<?xml version='1.0' encoding='UTF-8'?><gpx version="1.1" creator="JPX - https://github.com/jenetics/jpx" xmlns="http://www.topografix.com/GPX/1/1"><trk><trkseg><trkpt lat="43.992428038867054" lon="12.659245834604357"><ele>13.0</ele><time>2026-05-04T06:02:58Z</time></trkpt><trkpt lat="43.992399436428904" lon="12.65932704136173"><ele>13.0</ele><time>2026-05-04T06:03:08Z</time></trkpt><trkpt lat="43.992427402615924" lon="12.65942024483143"><ele>13.0</ele><time>2026-05-04T06:03:12Z</time></trkpt><trkpt lat="43.99245824668208" lon="12.659503907274761"><ele>13.0</ele><time>2026-05-04T06:03:16Z</time></trkpt><trkpt lat="43.99253040976812" lon="12.659405352759348"><ele>13.0</ele><time>2026-05-04T06:03:49Z</time></trkpt><trkpt lat="43.99252304215627" lon="12.65930828500839"><ele>13.0</ele><time>2026-05-04T06:03:50Z</time></trkpt><trkpt lat="43.99250104186126" lon="12.659225811487552"><ele>13.0</ele><time>2026-05-04T06:03:51Z</time></trkpt><trkpt lat="43.992488486238685" lon="12.65912576469578"><ele>12.999999999999998</ele><time>2026-05-04T06:03:52Z</time></trkpt><trkpt lat="43.992476675205694" lon="12.659034306763292"><ele>13.0</ele><time>2026-05-04T06:03:53Z</time></trkpt><trkpt lat="43.99246994385668" lon="12.658946431582285"><ele>13.0</ele><time>2026-05-04T06:03:54Z</time></trkpt><trkpt lat="43.99245046560651" lon="12.658765198173958"><ele>13.0</ele><time>2026-05-04T06:03:56Z</time></trkpt><trkpt lat="43.99243764063679" lon="12.658660884105757"><ele>12.999999999999998</ele><time>2026-05-04T06:03:57Z</time></trkpt><trkpt lat="43.99242307881114" lon="12.658548437089047"><ele>13.0</ele><time>2026-05-04T06:03:58Z</time></trkpt><trkpt lat="43.992405397285474" lon="12.658446509062598"><ele>13.0</ele><time>2026-05-04T06:03:59Z</time></trkpt><trkpt lat="43.9923904698192" lon="12.658283280780278"><ele>13.0</ele><time>2026-05-04T06:04:01Z</time></trkpt><trkpt lat="43.99237985163315" lon="12.65816567343599"><ele>13.0</ele><time>2026-05-04T06:04:03Z</time></trkpt><trkpt lat="43.99236755279187" lon="12.658060643115354"><ele>13.0</ele><time>2026-05-04T06:04:05Z</time></trkpt><trkpt lat="43.99237159031551" lon="12.657972430623795"><ele>13.0</ele><time>2026-05-04T06:04:11Z</time></trkpt><trkpt lat="43.99236868609183" lon="12.657822640438486"><ele>13.2</ele><time>2026-05-04T06:04:14Z</time></trkpt><trkpt lat="43.99232776861597" lon="12.65767325243879"><ele>13.4</ele><time>2026-05-04T06:04:16Z</time></trkpt><trkpt lat="43.99230305291721" lon="12.657571317104331"><ele>13.599999999999998</ele><time>2026-05-04T06:04:17Z</time></trkpt><trkpt lat="43.9922894835152" lon="12.657454761817002"><ele>13.799999999999999</ele><time>2026-05-04T06:04:18Z</time></trkpt><trkpt lat="43.99227242474894" lon="12.657331606920158"><ele>14.0</ele><time>2026-05-04T06:04:19Z</time></trkpt><trkpt lat="43.99225513388452" lon="12.657210902721316"><ele>14.000000000000002</ele><time>2026-05-04T06:04:20Z</time></trkpt><trkpt lat="43.992238836874115" lon="12.657088930507758"><ele>14.0</ele><time>2026-05-04T06:04:21Z</time></trkpt><trkpt lat="43.99222345646866" lon="12.656959648514064"><ele>14.0</ele><time>2026-05-04T06:04:22Z</time></trkpt><trkpt lat="43.99220949925104" lon="12.65683312030173"><ele>14.0</ele><time>2026-05-04T06:04:23Z</time></trkpt><trkpt lat="43.99219626966354" lon="12.65672172507048"><ele>14.000000000000002</ele><time>2026-05-04T06:04:24Z</time></trkpt><trkpt lat="43.99218051432557" lon="12.656620895701462"><ele>14.0</ele><time>2026-05-04T06:04:25Z</time></trkpt><trkpt lat="43.9921703306322" lon="12.656528624129573"><ele>14.000000000000002</ele><time>2026-05-04T06:04:26Z</time></trkpt><trkpt lat="43.99215907570414" lon="12.656432997994893"><ele>14.0</ele><time>2026-05-04T06:04:27Z</time></trkpt><trkpt lat="43.99214571717701" lon="12.656329269008143"><ele>14.0</ele><time>2026-05-04T06:04:28Z</time></trkpt><trkpt lat="43.99213183369628" lon="12.656215508167755"><ele>14.0</ele><time>2026-05-04T06:04:29Z</time></trkpt><trkpt lat="43.99211890040203" lon="12.656098831639419"><ele>14.000000000000002</ele><time>2026-05-04T06:04:30Z</time></trkpt><trkpt lat="43.992101677666355" lon="12.655980789246998"><ele>14.0</ele><time>2026-05-04T06:04:31Z</time></trkpt><trkpt lat="43.9920860446114" lon="12.655871967621575"><ele>14.25</ele><time>2026-05-04T06:04:32Z</time></trkpt><trkpt lat="43.99205780919924" lon="12.65565755087233"><ele>14.5</ele><time>2026-05-04T06:04:34Z</time></trkpt><trkpt lat="43.99204635912152" lon="12.65556229061488"><ele>14.75</ele><time>2026-05-04T06:04:35Z</time></trkpt><trkpt lat="43.99203457883136" lon="12.65543747925155"><ele>15.0</ele><time>2026-05-04T06:04:37Z</time></trkpt><trkpt lat="43.99185466386408" lon="12.655394934257686"><ele>15.0</ele><time>2026-05-04T06:04:54Z</time></trkpt><trkpt lat="43.99178869703144" lon="12.655390269546455"><ele>15.0</ele><time>2026-05-04T06:04:55Z</time></trkpt><trkpt lat="43.99171524685657" lon="12.655334548844493"><ele>15.0</ele><time>2026-05-04T06:04:56Z</time></trkpt><trkpt lat="43.99164234630296" lon="12.655265120409021"><ele>15.0</ele><time>2026-05-04T06:04:57Z</time></trkpt><trkpt lat="43.99155992452731" lon="12.655200311194344"><ele>15.0</ele><time>2026-05-04T06:04:58Z</time></trkpt><trkpt lat="43.99147055064068" lon="12.655128094605761"><ele>15.0</ele><time>2026-05-04T06:04:59Z</time></trkpt><trkpt lat="43.991378646564236" lon="12.655048004890988"><ele>15.5</ele><time>2026-05-04T06:05:00Z</time></trkpt><trkpt lat="43.991282479845026" lon="12.654970135217226"><ele>16.0</ele><time>2026-05-04T06:05:01Z</time></trkpt><trkpt lat="43.991182684791056" lon="12.65488766675375"><ele>16.5</ele><time>2026-05-04T06:05:02Z</time></trkpt><trkpt lat="43.99107940693498" lon="12.654804865966556"><ele>17.0</ele><time>2026-05-04T06:05:03Z</time></trkpt><trkpt lat="43.99097234578152" lon="12.654722996809037"><ele>17.0</ele><time>2026-05-04T06:05:04Z</time></trkpt><trkpt lat="43.9908582477684" lon="12.654639045229349"><ele>17.0</ele><time>2026-05-04T06:05:05Z</time></trkpt><trkpt lat="43.99075065649701" lon="12.654551562848408"><ele>17.0</ele><time>2026-05-04T06:05:06Z</time></trkpt><trkpt lat="43.99064262485194" lon="12.654465049836096"><ele>17.0</ele><time>2026-05-04T06:05:07Z</time></trkpt><trkpt lat="43.99053713534153" lon="12.65438270790971"><ele>18.75</ele><time>2026-05-04T06:05:08Z</time></trkpt><trkpt lat="43.99042901694233" lon="12.65429911726815"><ele>20.5</ele><time>2026-05-04T06:05:09Z</time></trkpt><trkpt lat="43.990325447652616" lon="12.654216287116574"><ele>22.25</ele><time>2026-05-04T06:05:10Z</time></trkpt><trkpt lat="43.99022367490355" lon="12.654133843658965"><ele>24.0</ele><time>2026-05-04T06:05:11Z</time></trkpt><trkpt lat="43.99011758072081" lon="12.654054472790191"><ele>28.0</ele><time>2026-05-04T06:05:12Z</time></trkpt><trkpt lat="43.9900073942211" lon="12.653974818110331"><ele>32.0</ele><time>2026-05-04T06:05:13Z</time></trkpt><trkpt lat="43.989903196112486" lon="12.65388893446845"><ele>36.0</ele><time>2026-05-04T06:05:14Z</time></trkpt><trkpt lat="43.98980037399629" lon="12.653808382909338"><ele>40.0</ele><time>2026-05-04T06:05:15Z</time></trkpt><trkpt lat="43.98969222891451" lon="12.653722345662855"><ele>40.0</ele><time>2026-05-04T06:05:16Z</time></trkpt><trkpt lat="43.989581497165176" lon="12.653626458179849"><ele>40.0</ele><time>2026-05-04T06:05:17Z</time></trkpt><trkpt lat="43.98947328508914" lon="12.653514768869936"><ele>40.0</ele><time>2026-05-04T06:05:18Z</time></trkpt><trkpt lat="43.989377992273326" lon="12.653399541185667"><ele>40.0</ele><time>2026-05-04T06:05:19Z</time></trkpt><trkpt lat="43.98928399525777" lon="12.65329462183006"><ele>40.0</ele><time>2026-05-04T06:05:20Z</time></trkpt><trkpt lat="43.98919712374886" lon="12.65318565645129"><ele>40.0</ele><time>2026-05-04T06:05:21Z</time></trkpt><trkpt lat="43.989091197768566" lon="12.65306416385937"><ele>40.0</ele><time>2026-05-04T06:05:22Z</time></trkpt><trkpt lat="43.988995095768146" lon="12.652946192058609"><ele>40.0</ele><time>2026-05-04T06:05:23Z</time></trkpt><trkpt lat="43.98892347479808" lon="12.65281657657471"><ele>42.75</ele><time>2026-05-04T06:05:24Z</time></trkpt><trkpt lat="43.9888565943935" lon="12.652668969552398"><ele>45.5</ele><time>2026-05-04T06:05:25Z</time></trkpt><trkpt lat="43.988794014529965" lon="12.652517967890496"><ele>48.25</ele><time>2026-05-04T06:05:26Z</time></trkpt><trkpt lat="43.98873143764276" lon="12.652368640424772"><ele>51.0</ele><time>2026-05-04T06:05:27Z</time></trkpt><trkpt lat="43.98867280907724" lon="12.652219672105305"><ele>51.0</ele><time>2026-05-04T06:05:28Z</time></trkpt><trkpt lat="43.98861096872187" lon="12.652075932433924"><ele>51.0</ele><time>2026-05-04T06:05:29Z</time></trkpt><trkpt lat="43.988556991042536" lon="12.651951020000206"><ele>51.0</ele><time>2026-05-04T06:05:30Z</time></trkpt><trkpt lat="43.98850994628532" lon="12.651835331886149"><ele>51.0</ele><time>2026-05-04T06:05:31Z</time></trkpt><trkpt lat="43.988468048282684" lon="12.651725039341382"><ele>51.0</ele><time>2026-05-04T06:05:32Z</time></trkpt><trkpt lat="43.9884147947322" lon="12.651594902242824"><ele>51.599999999999994</ele><time>2026-05-04T06:05:33Z</time></trkpt><trkpt lat="43.98836128784903" lon="12.651453829854958"><ele>52.2</ele><time>2026-05-04T06:05:34Z</time></trkpt><trkpt lat="43.988305627260736" lon="12.651325850375688"><ele>52.800000000000004</ele><time>2026-05-04T06:05:35Z</time></trkpt><trkpt lat="43.98826232476164" lon="12.65120818570832"><ele>53.400000000000006</ele><time>2026-05-04T06:05:36Z</time></trkpt><trkpt lat="43.98822011784176" lon="12.65108378493524"><ele>54.0</ele><time>2026-05-04T06:05:37Z</time></trkpt><trkpt lat="43.98819168341996" lon="12.650948553345101"><ele>55.0</ele><time>2026-05-04T06:05:38Z</time></trkpt><trkpt lat="43.9881705170776" lon="12.65079630601448"><ele>56.0</ele><time>2026-05-04T06:05:39Z</time></trkpt><trkpt lat="43.988130847545904" lon="12.650636541994345"><ele>57.0</ele><time>2026-05-04T06:05:40Z</time></trkpt><trkpt lat="43.98807855135735" lon="12.650484733082056"><ele>58.0</ele><time>2026-05-04T06:05:41Z</time></trkpt><trkpt lat="43.988007403619584" lon="12.650340764130377"><ele>57.0</ele><time>2026-05-04T06:05:42Z</time></trkpt><trkpt lat="43.987937206579026" lon="12.650221036384298"><ele>56.0</ele><time>2026-05-04T06:05:43Z</time></trkpt><trkpt lat="43.98788381115155" lon="12.650091709701547"><ele>55.0</ele><time>2026-05-04T06:05:44Z</time></trkpt><trkpt lat="43.98782387769487" lon="12.649970413652257"><ele>54.0</ele><time>2026-05-04T06:05:45Z</time></trkpt><trkpt lat="43.98776601618575" lon="12.649852515256386"><ele>53.0</ele><time>2026-05-04T06:05:46Z</time></trkpt><trkpt lat="43.987715952906235" lon="12.649742385017216"><ele>53.0</ele><time>2026-05-04T06:05:47Z</time></trkpt><trkpt lat="43.98766824912594" lon="12.649623142291942"><ele>53.0</ele><time>2026-05-04T06:05:48Z</time></trkpt><trkpt lat="43.98761227367784" lon="12.649497141678275"><ele>53.0</ele><time>2026-05-04T06:05:49Z</time></trkpt><trkpt lat="43.98755866344361" lon="12.64938219841455"><ele>53.0</ele><time>2026-05-04T06:05:50Z</time></trkpt><trkpt lat="43.98751527378489" lon="12.649280052129138"><ele>53.0</ele><time>2026-05-04T06:05:51Z</time></trkpt><trkpt lat="43.987466988520374" lon="12.649182700282777"><ele>52.5</ele><time>2026-05-04T06:05:52Z</time></trkpt><trkpt lat="43.987429124384626" lon="12.649101880865693"><ele>52.0</ele><time>2026-05-04T06:05:53Z</time></trkpt><trkpt lat="43.98731826873245" lon="12.648870794425697"><ele>51.5</ele><time>2026-05-04T06:05:56Z</time></trkpt><trkpt lat="43.98731056576564" lon="12.648783583410665"><ele>51.0</ele><time>2026-05-04T06:05:59Z</time></trkpt><trkpt lat="43.987193277132185" lon="12.648804962559906"><ele>51.0</ele><time>2026-05-04T06:06:00Z</time></trkpt><trkpt lat="43.987118179674596" lon="12.648825298239109"><ele>51.0</ele><time>2026-05-04T06:06:01Z</time></trkpt><trkpt lat="43.98703847440262" lon="12.6488680828457"><ele>51.0</ele><time>2026-05-04T06:06:02Z</time></trkpt><trkpt lat="43.98695031692929" lon="12.648903812937833"><ele>51.0</ele><time>2026-05-04T06:06:03Z</time></trkpt><trkpt lat="43.98684994200315" lon="12.648920856335854"><ele>51.0</ele><time>2026-05-04T06:06:04Z</time></trkpt><trkpt lat="43.986751444192215" lon="12.64889493754093"><ele>50.0</ele><time>2026-05-04T06:06:05Z</time></trkpt><trkpt lat="43.986660808826294" lon="12.648828312309938"><ele>49.0</ele><time>2026-05-04T06:06:06Z</time></trkpt><trkpt lat="43.98658372667152" lon="12.648734654246802"><ele>48.0</ele><time>2026-05-04T06:06:06.999Z</time></trkpt><trkpt lat="43.98648799292149" lon="12.64867241206183"><ele>47.0</ele><time>2026-05-04T06:06:07.999Z</time></trkpt><trkpt lat="43.98641174755416" lon="12.6485194636572"><ele>46.0</ele><time>2026-05-04T06:06:08.999Z</time></trkpt><trkpt lat="43.986312794584116" lon="12.648410174095693"><ele>45.5</ele><time>2026-05-04T06:06:09.999Z</time></trkpt><trkpt lat="43.98620881852602" lon="12.648298458028213"><ele>45.0</ele><time>2026-05-04T06:06:11Z</time></trkpt><trkpt lat="43.98610245088198" lon="12.648189058481178"><ele>44.5</ele><time>2026-05-04T06:06:12Z</time></trkpt><trkpt lat="43.9860067566183" lon="12.648083456138306"><ele>44.0</ele><time>2026-05-04T06:06:13Z</time></trkpt><trkpt lat="43.98591504610662" lon="12.647982615830976"><ele>43.2</ele><time>2026-05-04T06:06:14Z</time></trkpt><trkpt lat="43.98583304750501" lon="12.647886795914962"><ele>42.400000000000006</ele><time>2026-05-04T06:06:15Z</time></trkpt><trkpt lat="43.98576412752795" lon="12.647809366775569"><ele>41.6</ele><time>2026-05-04T06:06:16Z</time></trkpt><trkpt lat="43.985710464642345" lon="12.647739864619837"><ele>40.8</ele><time>2026-05-04T06:06:17Z</time></trkpt><trkpt lat="43.985671539940554" lon="12.647540468568362"><ele>40.0</ele><time>2026-05-04T06:06:19Z</time></trkpt><trkpt lat="43.98563543235332" lon="12.647442845424749"><ele>40.0</ele><time>2026-05-04T06:06:20Z</time></trkpt><trkpt lat="43.98559529004469" lon="12.647358422268995"><ele>40.0</ele><time>2026-05-04T06:06:21Z</time></trkpt><trkpt lat="43.98550338891958" lon="12.647336620912387"><ele>40.0</ele><time>2026-05-04T06:06:22Z</time></trkpt><trkpt lat="43.9854151612711" lon="12.647314263871769"><ele>40.0</ele><time>2026-05-04T06:06:23Z</time></trkpt><trkpt lat="43.98532057995192" lon="12.647358002066865"><ele>40.0</ele><time>2026-05-04T06:06:24Z</time></trkpt><trkpt lat="43.98524374139386" lon="12.647181012251044"><ele>40.0</ele><time>2026-05-04T06:06:25Z</time></trkpt><trkpt lat="43.98515366193733" lon="12.647073970371034"><ele>40.0</ele><time>2026-05-04T06:06:26Z</time></trkpt><trkpt lat="43.985050486922574" lon="12.646972312553556"><ele>40.0</ele><time>2026-05-04T06:06:27Z</time></trkpt><trkpt lat="43.98495384999934" lon="12.646862008538214"><ele>40.0</ele><time>2026-05-04T06:06:28Z</time></trkpt><trkpt lat="43.984849412282635" lon="12.646745383124907"><ele>39.2</ele><time>2026-05-04T06:06:29Z</time></trkpt><trkpt lat="43.984750577573685" lon="12.64663765834681"><ele>38.4</ele><time>2026-05-04T06:06:30Z</time></trkpt><trkpt lat="43.98465928967451" lon="12.646534227583466"><ele>37.6</ele><time>2026-05-04T06:06:31Z</time></trkpt><trkpt lat="43.984580127138585" lon="12.646443583645018"><ele>36.8</ele><time>2026-05-04T06:06:32Z</time></trkpt><trkpt lat="43.98450894874912" lon="12.6463605763754"><ele>36.0</ele><time>2026-05-04T06:06:33Z</time></trkpt><trkpt lat="43.984456320660364" lon="12.646286833289354"><ele>36.0</ele><time>2026-05-04T06:06:34Z</time></trkpt><trkpt lat="43.98442023936615" lon="12.64621074394722"><ele>36.0</ele><time>2026-05-04T06:06:35Z</time></trkpt><trkpt lat="43.98439783421924" lon="12.646118306602633"><ele>36.0</ele><time>2026-05-04T06:06:36Z</time></trkpt><trkpt lat="43.98438253989435" lon="12.646014972821138"><ele>36.0</ele><time>2026-05-04T06:06:37Z</time></trkpt><trkpt lat="43.98437173327883" lon="12.645907627978788"><ele>36.0</ele><time>2026-05-04T06:06:38Z</time></trkpt><trkpt lat="43.984365700872836" lon="12.645784895298297"><ele>36.0</ele><time>2026-05-04T06:06:39Z</time></trkpt><trkpt lat="43.984339998604895" lon="12.645676620713578"><ele>34.75</ele><time>2026-05-04T06:06:40Z</time></trkpt><trkpt lat="43.984478076121384" lon="12.64558512613173"><ele>33.5</ele><time>2026-05-04T06:06:41Z</time></trkpt><trkpt lat="43.98455428910634" lon="12.645472951789793"><ele>32.25</ele><time>2026-05-04T06:06:42Z</time></trkpt><trkpt lat="43.98461155998677" lon="12.645356521438135"><ele>31.0</ele><time>2026-05-04T06:06:43Z</time></trkpt><trkpt lat="43.9846585632224" lon="12.64523712698564"><ele>29.6</ele><time>2026-05-04T06:06:44Z</time></trkpt><trkpt lat="43.98469979644044" lon="12.645131227908097"><ele>28.200000000000003</ele><time>2026-05-04T06:06:45Z</time></trkpt><trkpt lat="43.9847369518315" lon="12.64503580190838"><ele>26.799999999999997</ele><time>2026-05-04T06:06:46Z</time></trkpt><trkpt lat="43.98479457095237" lon="12.644898060864882"><ele>25.4</ele><time>2026-05-04T06:06:48Z</time></trkpt><trkpt lat="43.98488798882511" lon="12.644788861222894"><ele>24.0</ele><time>2026-05-04T06:06:50Z</time></trkpt><trkpt lat="43.98493650310886" lon="12.644643894892655"><ele>24.0</ele><time>2026-05-04T06:06:52Z</time></trkpt><trkpt lat="43.984873601129614" lon="12.644504975369204"><ele>24.0</ele><time>2026-05-04T06:06:54Z</time></trkpt><trkpt lat="43.98480957475393" lon="12.644480620314711"><ele>24.0</ele><time>2026-05-04T06:06:55Z</time></trkpt><trkpt lat="43.98473830221817" lon="12.64449657183412"><ele>24.0</ele><time>2026-05-04T06:06:56Z</time></trkpt><trkpt lat="43.98466422492315" lon="12.644518133244766"><ele>24.0</ele><time>2026-05-04T06:06:57Z</time></trkpt><trkpt lat="43.984578477409826" lon="12.644508125104515"><ele>24.0</ele><time>2026-05-04T06:06:58Z</time></trkpt><trkpt lat="43.984480944117834" lon="12.64446075855665"><ele>23.25</ele><time>2026-05-04T06:06:59Z</time></trkpt><trkpt lat="43.9843791290373" lon="12.64438706226679"><ele>22.5</ele><time>2026-05-04T06:07:00Z</time></trkpt><trkpt lat="43.984269904852106" lon="12.644287060201949"><ele>21.75</ele><time>2026-05-04T06:07:01Z</time></trkpt><trkpt lat="43.98416376964357" lon="12.64420593784586"><ele>21.0</ele><time>2026-05-04T06:07:02Z</time></trkpt><trkpt lat="43.984048371341906" lon="12.644124369015458"><ele>21.0</ele><time>2026-05-04T06:07:03Z</time></trkpt><trkpt lat="43.983912249531585" lon="12.644031369365996"><ele>21.0</ele><time>2026-05-04T06:07:04Z</time></trkpt><trkpt lat="43.983799966373326" lon="12.643942576485658"><ele>21.0</ele><time>2026-05-04T06:07:05Z</time></trkpt><trkpt lat="43.983737955875384" lon="12.643855616342488"><ele>21.0</ele><time>2026-05-04T06:07:06Z</time></trkpt><trkpt lat="43.983655637481775" lon="12.643813985374852"><ele>21.0</ele><time>2026-05-04T06:07:07Z</time></trkpt><trkpt lat="43.983567620183635" lon="12.643733741772726"><ele>21.0</ele><time>2026-05-04T06:07:08Z</time></trkpt><trkpt lat="43.983473063092674" lon="12.64366008487692"><ele>21.0</ele><time>2026-05-04T06:07:09Z</time></trkpt><trkpt lat="43.98338179894984" lon="12.643586025832914"><ele>21.0</ele><time>2026-05-04T06:07:10Z</time></trkpt><trkpt lat="43.983291222485676" lon="12.643507564493353"><ele>21.0</ele><time>2026-05-04T06:07:11Z</time></trkpt><trkpt lat="43.98319857522295" lon="12.643457738219757"><ele>20.6</ele><time>2026-05-04T06:07:12Z</time></trkpt><trkpt lat="43.98310212405897" lon="12.643431633078505"><ele>20.200000000000003</ele><time>2026-05-04T06:07:13Z</time></trkpt><trkpt lat="43.9830002747323" lon="12.643438626018005"><ele>19.799999999999997</ele><time>2026-05-04T06:07:14Z</time></trkpt><trkpt lat="43.98289735641979" lon="12.64346866212184"><ele>19.4</ele><time>2026-05-04T06:07:15Z</time></trkpt><trkpt lat="43.982794178007765" lon="12.643513898644057"><ele>19.0</ele><time>2026-05-04T06:07:16Z</time></trkpt><trkpt lat="43.98269213559192" lon="12.64354558965762"><ele>19.0</ele><time>2026-05-04T06:07:17Z</time></trkpt><trkpt lat="43.98258849721018" lon="12.643569400975066"><ele>19.0</ele><time>2026-05-04T06:07:18Z</time></trkpt><trkpt lat="43.982381846483946" lon="12.643574302244678"><ele>19.0</ele><time>2026-05-04T06:07:20Z</time></trkpt><trkpt lat="43.982282395205445" lon="12.643542216460467"><ele>19.0</ele><time>2026-05-04T06:07:21Z</time></trkpt><trkpt lat="43.982182747435296" lon="12.64347439087141"><ele>18.75</ele><time>2026-05-04T06:07:22Z</time></trkpt><trkpt lat="43.98208472403903" lon="12.643394750852247"><ele>18.5</ele><time>2026-05-04T06:07:23Z</time></trkpt><trkpt lat="43.98198959145864" lon="12.643310844225809"><ele>18.25</ele><time>2026-05-04T06:07:24Z</time></trkpt><trkpt lat="43.98188848626723" lon="12.643229173919545"><ele>18.0</ele><time>2026-05-04T06:07:25Z</time></trkpt><trkpt lat="43.98178618954395" lon="12.643147415382428"><ele>18.0</ele><time>2026-05-04T06:07:26Z</time></trkpt><trkpt lat="43.98168117033071" lon="12.643057713426016"><ele>18.0</ele><time>2026-05-04T06:07:27Z</time></trkpt><trkpt lat="43.98157042365445" lon="12.642963259838258"><ele>18.0</ele><time>2026-05-04T06:07:28Z</time></trkpt><trkpt lat="43.98145220277699" lon="12.642865429471971"><ele>18.0</ele><time>2026-05-04T06:07:29Z</time></trkpt><trkpt lat="43.981331671490004" lon="12.64276706663172"><ele>18.0</ele><time>2026-05-04T06:07:30Z</time></trkpt><trkpt lat="43.98121476498827" lon="12.642671027679487"><ele>18.0</ele><time>2026-05-04T06:07:31Z</time></trkpt><trkpt lat="43.98110197700583" lon="12.642581836708999"><ele>18.0</ele><time>2026-05-04T06:07:32Z</time></trkpt><trkpt lat="43.98099242454874" lon="12.642493011663847"><ele>18.0</ele><time>2026-05-04T06:07:33Z</time></trkpt><trkpt lat="43.980881704730535" lon="12.642395043670556"><ele>18.0</ele><time>2026-05-04T06:07:34Z</time></trkpt><trkpt lat="43.98076979800546" lon="12.642292728596743"><ele>18.0</ele><time>2026-05-04T06:07:35Z</time></trkpt><trkpt lat="43.98066724770751" lon="12.642182231735113"><ele>18.0</ele><time>2026-05-04T06:07:36Z</time></trkpt><trkpt lat="43.98056761277536" lon="12.642060187690602"><ele>18.0</ele><time>2026-05-04T06:07:37Z</time></trkpt><trkpt lat="43.98047980342078" lon="12.641929414270347"><ele>18.0</ele><time>2026-05-04T06:07:38Z</time></trkpt><trkpt lat="43.9803967384215" lon="12.6417958559453"><ele>18.0</ele><time>2026-05-04T06:07:39Z</time></trkpt><trkpt lat="43.98031717985335" lon="12.641671164637161"><ele>18.0</ele><time>2026-05-04T06:07:40Z</time></trkpt><trkpt lat="43.980244464132916" lon="12.641560662039328"><ele>18.0</ele><time>2026-05-04T06:07:41Z</time></trkpt><trkpt lat="43.98017433303984" lon="12.64145864023101"><ele>18.0</ele><time>2026-05-04T06:07:42Z</time></trkpt><trkpt lat="43.980121422298694" lon="12.64137660424589"><ele>18.0</ele><time>2026-05-04T06:07:43Z</time></trkpt><trkpt lat="43.98005276657088" lon="12.641271429466714"><ele>18.0</ele><time>2026-05-04T06:07:45Z</time></trkpt><trkpt lat="43.97999637170189" lon="12.641135586145486"><ele>18.0</ele><time>2026-05-04T06:07:48Z</time></trkpt><trkpt lat="43.979957207311664" lon="12.641041239962437"><ele>18.0</ele><time>2026-05-04T06:07:50Z</time></trkpt><trkpt lat="43.979932049963445" lon="12.640910194331036"><ele>18.5</ele><time>2026-05-04T06:07:52Z</time></trkpt><trkpt lat="43.97987203787063" lon="12.640824859491033"><ele>19.0</ele><time>2026-05-04T06:07:54Z</time></trkpt><trkpt lat="43.97974462093276" lon="12.640859431495207"><ele>19.5</ele><time>2026-05-04T06:07:56Z</time></trkpt><trkpt lat="43.97967959044109" lon="12.640887621737814"><ele>20.0</ele><time>2026-05-04T06:07:57Z</time></trkpt><trkpt lat="43.97960916145362" lon="12.640896764156045"><ele>20.5</ele><time>2026-05-04T06:07:58Z</time></trkpt><trkpt lat="43.979532297549696" lon="12.640864337694813"><ele>21.0</ele><time>2026-05-04T06:07:59Z</time></trkpt><trkpt lat="43.97945948989729" lon="12.640807292631505"><ele>21.0</ele><time>2026-05-04T06:08:00Z</time></trkpt><trkpt lat="43.97939091933337" lon="12.64072962329902"><ele>21.0</ele><time>2026-05-04T06:08:01Z</time></trkpt><trkpt lat="43.97932155467444" lon="12.640649139952647"><ele>21.0</ele><time>2026-05-04T06:08:02Z</time></trkpt><trkpt lat="43.97924866387047" lon="12.640558712650193"><ele>21.0</ele><time>2026-05-04T06:08:03Z</time></trkpt><trkpt lat="43.97917469913441" lon="12.640456145213877"><ele>21.0</ele><time>2026-05-04T06:08:04Z</time></trkpt><trkpt lat="43.979098339835495" lon="12.640328043041599"><ele>21.5</ele><time>2026-05-04T06:08:05Z</time></trkpt><trkpt lat="43.97902336989024" lon="12.640197833756066"><ele>22.0</ele><time>2026-05-04T06:08:06Z</time></trkpt><trkpt lat="43.97893902856005" lon="12.640063746824177"><ele>22.5</ele><time>2026-05-04T06:08:07Z</time></trkpt><trkpt lat="43.97885113771245" lon="12.639931299901509"><ele>23.0</ele><time>2026-05-04T06:08:08Z</time></trkpt><trkpt lat="43.97875910359299" lon="12.63980455841745"><ele>23.0</ele><time>2026-05-04T06:08:09Z</time></trkpt><trkpt lat="43.97866066776759" lon="12.639689600319828"><ele>23.0</ele><time>2026-05-04T06:08:10Z</time></trkpt><trkpt lat="43.97857188285419" lon="12.639584143724472"><ele>23.0</ele><time>2026-05-04T06:08:11Z</time></trkpt><trkpt lat="43.97850136851545" lon="12.639501976741661"><ele>23.0</ele><time>2026-05-04T06:08:12Z</time></trkpt><trkpt lat="43.97844770186138" lon="12.639422517799575"><ele>23.0</ele><time>2026-05-04T06:08:13Z</time></trkpt><trkpt lat="43.97842085646301" lon="12.63933597092727"><ele>22.599999999999998</ele><time>2026-05-04T06:08:14Z</time></trkpt><trkpt lat="43.97842227454958" lon="12.639218092715469"><ele>22.2</ele><time>2026-05-04T06:08:15Z</time></trkpt><trkpt lat="43.978406197574465" lon="12.63909640365598"><ele>21.8</ele><time>2026-05-04T06:08:16Z</time></trkpt><trkpt lat="43.97840295567375" lon="12.638975529495879"><ele>21.4</ele><time>2026-05-04T06:08:17Z</time></trkpt><trkpt lat="43.97849139210022" lon="12.638866153006093"><ele>21.0</ele><time>2026-05-04T06:08:18Z</time></trkpt><trkpt lat="43.97854471230544" lon="12.63874158641706"><ele>21.5</ele><time>2026-05-04T06:08:19Z</time></trkpt><trkpt lat="43.97858215696648" lon="12.638581976213523"><ele>22.0</ele><time>2026-05-04T06:08:20Z</time></trkpt><trkpt lat="43.97865743554866" lon="12.638438375226707"><ele>22.5</ele><time>2026-05-04T06:08:21Z</time></trkpt><trkpt lat="43.97873978261927" lon="12.638284191580613"><ele>23.0</ele><time>2026-05-04T06:08:22Z</time></trkpt><trkpt lat="43.978811981655156" lon="12.638123297594"><ele>23.0</ele><time>2026-05-04T06:08:23Z</time></trkpt><trkpt lat="43.97886135139676" lon="12.637932212832892"><ele>23.0</ele><time>2026-05-04T06:08:24Z</time></trkpt><trkpt lat="43.97889421688059" lon="12.637748268752505"><ele>23.0</ele><time>2026-05-04T06:08:25Z</time></trkpt><trkpt lat="43.97891600718779" lon="12.637556820010072"><ele>23.0</ele><time>2026-05-04T06:08:26Z</time></trkpt><trkpt lat="43.97893643600724" lon="12.637359651605246"><ele>23.25</ele><time>2026-05-04T06:08:27Z</time></trkpt><trkpt lat="43.97895555741995" lon="12.637162922554937"><ele>23.5</ele><time>2026-05-04T06:08:28Z</time></trkpt><trkpt lat="43.97899007680357" lon="12.636958564482711"><ele>23.75</ele><time>2026-05-04T06:08:29Z</time></trkpt><trkpt lat="43.97901315163946" lon="12.636768687322931"><ele>24.0</ele><time>2026-05-04T06:08:30Z</time></trkpt><trkpt lat="43.97903720867735" lon="12.636567618344552"><ele>24.0</ele><time>2026-05-04T06:08:31Z</time></trkpt><trkpt lat="43.97906324911987" lon="12.636370446899576"><ele>24.0</ele><time>2026-05-04T06:08:32Z</time></trkpt><trkpt lat="43.979089960883755" lon="12.636178837218482"><ele>24.0</ele><time>2026-05-04T06:08:33Z</time></trkpt><trkpt lat="43.97912165872356" lon="12.635985739142482"><ele>24.0</ele><time>2026-05-04T06:08:34Z</time></trkpt><trkpt lat="43.97915317837582" lon="12.635779349081535"><ele>24.75</ele><time>2026-05-04T06:08:35Z</time></trkpt><trkpt lat="43.97920280128002" lon="12.635579370106806"><ele>25.5</ele><time>2026-05-04T06:08:36Z</time></trkpt><trkpt lat="43.979224602708754" lon="12.635373782016854"><ele>26.25</ele><time>2026-05-04T06:08:37Z</time></trkpt><trkpt lat="43.97927280753767" lon="12.635204147656717"><ele>27.0</ele><time>2026-05-04T06:08:38Z</time></trkpt><trkpt lat="43.979302277954865" lon="12.634974949156645"><ele>27.0</ele><time>2026-05-04T06:08:39Z</time></trkpt><trkpt lat="43.97934386576341" lon="12.63477191355152"><ele>27.0</ele><time>2026-05-04T06:08:40Z</time></trkpt><trkpt lat="43.97938839728441" lon="12.63457196512367"><ele>27.0</ele><time>2026-05-04T06:08:41Z</time></trkpt><trkpt lat="43.97943320338158" lon="12.63438478887781"><ele>27.0</ele><time>2026-05-04T06:08:42Z</time></trkpt><trkpt lat="43.979481430549086" lon="12.63423203560077"><ele>26.333333333333332</ele><time>2026-05-04T06:08:43Z</time></trkpt><trkpt lat="43.97952545099149" lon="12.63411071174202"><ele>25.666666666666668</ele><time>2026-05-04T06:08:44Z</time></trkpt><trkpt lat="43.97956009381237" lon="12.634011813251307"><ele>25.0</ele><time>2026-05-04T06:08:45Z</time></trkpt><trkpt lat="43.97957554982343" lon="12.63391293283144"><ele>24.333333333333336</ele><time>2026-05-04T06:08:46Z</time></trkpt><trkpt lat="43.979556238587385" lon="12.633823115754037"><ele>23.666666666666668</ele><time>2026-05-04T06:08:47Z</time></trkpt><trkpt lat="43.97954682540699" lon="12.63368794173851"><ele>23.0</ele><time>2026-05-04T06:08:48Z</time></trkpt><trkpt lat="43.9794252438236" lon="12.633669527201677"><ele>23.0</ele><time>2026-05-04T06:08:49Z</time></trkpt><trkpt lat="43.979349703296215" lon="12.633538411142439"><ele>23.0</ele><time>2026-05-04T06:08:50Z</time></trkpt><trkpt lat="43.979291352846154" lon="12.633420948084218"><ele>23.0</ele><time>2026-05-04T06:08:51Z</time></trkpt><trkpt lat="43.97921155890516" lon="12.633299337145221"><ele>23.0</ele><time>2026-05-04T06:08:52Z</time></trkpt><trkpt lat="43.97913110338718" lon="12.633166810293767"><ele>23.0</ele><time>2026-05-04T06:08:53Z</time></trkpt><trkpt lat="43.97904362091435" lon="12.63303216930663"><ele>23.0</ele><time>2026-05-04T06:08:54Z</time></trkpt><trkpt lat="43.978942996536425" lon="12.632913926799885"><ele>23.0</ele><time>2026-05-04T06:08:55Z</time></trkpt><trkpt lat="43.97883204063819" lon="12.6328009616986"><ele>23.0</ele><time>2026-05-04T06:08:56Z</time></trkpt><trkpt lat="43.978716043736966" lon="12.632680645426403"><ele>23.0</ele><time>2026-05-04T06:08:57Z</time></trkpt><trkpt lat="43.978602031757134" lon="12.632573609954074"><ele>23.0</ele><time>2026-05-04T06:08:58Z</time></trkpt><trkpt lat="43.97849258520336" lon="12.632468085896507"><ele>23.0</ele><time>2026-05-04T06:08:59Z</time></trkpt><trkpt lat="43.97838074800599" lon="12.63235851674995"><ele>23.0</ele><time>2026-05-04T06:09:00Z</time></trkpt><trkpt lat="43.97828046296404" lon="12.632209951367194"><ele>23.0</ele><time>2026-05-04T06:09:01Z</time></trkpt><trkpt lat="43.97817273614278" lon="12.6320670780415"><ele>23.0</ele><time>2026-05-04T06:09:02Z</time></trkpt><trkpt lat="43.97807376674829" lon="12.631914877501549"><ele>23.0</ele><time>2026-05-04T06:09:03Z</time></trkpt><trkpt lat="43.97798052183256" lon="12.63176229442907"><ele>23.0</ele><time>2026-05-04T06:09:04Z</time></trkpt><trkpt lat="43.977871736264156" lon="12.631628688471631"><ele>22.75</ele><time>2026-05-04T06:09:05Z</time></trkpt><trkpt lat="43.977777313438146" lon="12.631479296149008"><ele>22.5</ele><time>2026-05-04T06:09:06Z</time></trkpt><trkpt lat="43.977678699138565" lon="12.631341641660027"><ele>22.25</ele><time>2026-05-04T06:09:07Z</time></trkpt><trkpt lat="43.9775899108581" lon="12.63121662724092"><ele>22.0</ele><time>2026-05-04T06:09:08Z</time></trkpt><trkpt lat="43.97750395378723" lon="12.631092987693462"><ele>22.0</ele><time>2026-05-04T06:09:09Z</time></trkpt><trkpt lat="43.977412520212916" lon="12.630968135891315"><ele>22.0</ele><time>2026-05-04T06:09:10Z</time></trkpt><trkpt lat="43.97733225466622" lon="12.630854849525063"><ele>22.0</ele><time>2026-05-04T06:09:11Z</time></trkpt><trkpt lat="43.97725549571143" lon="12.630749380815276"><ele>22.0</ele><time>2026-05-04T06:09:12Z</time></trkpt><trkpt lat="43.977188331532105" lon="12.630668909556626"><ele>22.0</ele><time>2026-05-04T06:09:13Z</time></trkpt><trkpt lat="43.97713176462356" lon="12.630603155354743"><ele>22.0</ele><time>2026-05-04T06:09:14Z</time></trkpt><trkpt lat="43.97708211675042" lon="12.630471501224289"><ele>22.0</ele><time>2026-05-04T06:09:16Z</time></trkpt><trkpt lat="43.97713199317452" lon="12.630389120091603"><ele>22.0</ele><time>2026-05-04T06:09:17Z</time></trkpt><trkpt lat="43.97716436919998" lon="12.630284197323627"><ele>22.0</ele><time>2026-05-04T06:09:18Z</time></trkpt><trkpt lat="43.9771904305379" lon="12.63017502857115"><ele>22.0</ele><time>2026-05-04T06:09:19Z</time></trkpt><trkpt lat="43.97723670302776" lon="12.630073121955691"><ele>22.0</ele><time>2026-05-04T06:09:20Z</time></trkpt><trkpt lat="43.977277182311056" lon="12.629987204781125"><ele>22.200000000000003</ele><time>2026-05-04T06:09:21Z</time></trkpt><trkpt lat="43.97731429194005" lon="12.629912903897297"><ele>22.4</ele><time>2026-05-04T06:09:22Z</time></trkpt><trkpt lat="43.977378729422256" lon="12.629838505850453"><ele>22.6</ele><time>2026-05-04T06:09:24Z</time></trkpt><trkpt lat="43.97728397374078" lon="12.6296957832188"><ele>22.799999999999997</ele><time>2026-05-04T06:09:25Z</time></trkpt><trkpt lat="43.97722089984041" lon="12.62961414394886"><ele>23.0</ele><time>2026-05-04T06:09:26Z</time></trkpt><trkpt lat="43.97716265234022" lon="12.629502221802055"><ele>22.75</ele><time>2026-05-04T06:09:27Z</time></trkpt><trkpt lat="43.97708474736396" lon="12.629393697333636"><ele>22.5</ele><time>2026-05-04T06:09:28Z</time></trkpt><trkpt lat="43.977007285777546" lon="12.629279886038221"><ele>22.25</ele><time>2026-05-04T06:09:29Z</time></trkpt><trkpt lat="43.976922681746935" lon="12.629147764659804"><ele>22.0</ele><time>2026-05-04T06:09:30Z</time></trkpt><trkpt lat="43.97683519974171" lon="12.629008472845662"><ele>22.0</ele><time>2026-05-04T06:09:31Z</time></trkpt><trkpt lat="43.97674569398327" lon="12.628865024632352"><ele>22.0</ele><time>2026-05-04T06:09:32Z</time></trkpt><trkpt lat="43.976663211096245" lon="12.628711188628092"><ele>22.0</ele><time>2026-05-04T06:09:33Z</time></trkpt><trkpt lat="43.97658848077723" lon="12.628550762299298"><ele>22.0</ele><time>2026-05-04T06:09:34Z</time></trkpt><trkpt lat="43.97651848252541" lon="12.628391295602713"><ele>21.75</ele><time>2026-05-04T06:09:35Z</time></trkpt><trkpt lat="43.976440593899774" lon="12.628245093434087"><ele>21.5</ele><time>2026-05-04T06:09:36Z</time></trkpt><trkpt lat="43.97637813642551" lon="12.628096217034047"><ele>21.25</ele><time>2026-05-04T06:09:37Z</time></trkpt><trkpt lat="43.97632394249727" lon="12.627956768169648"><ele>21.0</ele><time>2026-05-04T06:09:38Z</time></trkpt><trkpt lat="43.976285548667505" lon="12.627830236577761"><ele>21.166666666666668</ele><time>2026-05-04T06:09:39Z</time></trkpt><trkpt lat="43.9762482339883" lon="12.627730137087077"><ele>21.333333333333332</ele><time>2026-05-04T06:09:40Z</time></trkpt><trkpt lat="43.97621593297072" lon="12.627640288006928"><ele>21.5</ele><time>2026-05-04T06:09:41Z</time></trkpt><trkpt lat="43.97617155896128" lon="12.627549229378271"><ele>21.666666666666664</ele><time>2026-05-04T06:09:42Z</time></trkpt><trkpt lat="43.976128636493236" lon="12.627448250143468"><ele>21.833333333333332</ele><time>2026-05-04T06:09:43Z</time></trkpt><trkpt lat="43.97606876461898" lon="12.627339606985025"><ele>22.0</ele><time>2026-05-04T06:09:44Z</time></trkpt><trkpt lat="43.97599967849191" lon="12.627223413444153"><ele>22.0</ele><time>2026-05-04T06:09:45Z</time></trkpt><trkpt lat="43.97590783795357" lon="12.62711042192357"><ele>22.0</ele><time>2026-05-04T06:09:46Z</time></trkpt><trkpt lat="43.9758339229879" lon="12.62695639815978"><ele>22.0</ele><time>2026-05-04T06:09:47Z</time></trkpt><trkpt lat="43.97574807354778" lon="12.626818345812637"><ele>22.0</ele><time>2026-05-04T06:09:48Z</time></trkpt><trkpt lat="43.97565364301481" lon="12.626678237459625"><ele>22.5</ele><time>2026-05-04T06:09:49Z</time></trkpt><trkpt lat="43.97558865347833" lon="12.62650922208468"><ele>23.0</ele><time>2026-05-04T06:09:50Z</time></trkpt><trkpt lat="43.975526046475146" lon="12.62635050740103"><ele>23.5</ele><time>2026-05-04T06:09:51Z</time></trkpt><trkpt lat="43.97545790204435" lon="12.626214286522776"><ele>24.0</ele><time>2026-05-04T06:09:52Z</time></trkpt><trkpt lat="43.97540200528239" lon="12.626068661228217"><ele>24.0</ele><time>2026-05-04T06:09:53Z</time></trkpt><trkpt lat="43.97532622809528" lon="12.625934264111075"><ele>24.0</ele><time>2026-05-04T06:09:54Z</time></trkpt><trkpt lat="43.97522673315532" lon="12.625816837220391"><ele>24.0</ele><time>2026-05-04T06:09:55Z</time></trkpt><trkpt lat="43.97511578907192" lon="12.625719847265449"><ele>24.0</ele><time>2026-05-04T06:09:56Z</time></trkpt><trkpt lat="43.9750167545323" lon="12.625634259006436"><ele>24.0</ele><time>2026-05-04T06:09:57Z</time></trkpt><trkpt lat="43.97495043317537" lon="12.625520317871155"><ele>24.0</ele><time>2026-05-04T06:09:58Z</time></trkpt><trkpt lat="43.97488969229561" lon="12.625398499771087"><ele>24.0</ele><time>2026-05-04T06:09:59Z</time></trkpt><trkpt lat="43.974850210163304" lon="12.62525916178634"><ele>24.0</ele><time>2026-05-04T06:10:00Z</time></trkpt><trkpt lat="43.97481523643832" lon="12.625098817299703"><ele>24.0</ele><time>2026-05-04T06:10:01Z</time></trkpt><trkpt lat="43.97478958893051" lon="12.624929533741224"><ele>24.4</ele><time>2026-05-04T06:10:02Z</time></trkpt><trkpt lat="43.97477000383022" lon="12.624757911286867"><ele>24.799999999999997</ele><time>2026-05-04T06:10:03Z</time></trkpt><trkpt lat="43.97475712447789" lon="12.624598388130183"><ele>25.200000000000003</ele><time>2026-05-04T06:10:04Z</time></trkpt><trkpt lat="43.97473568933426" lon="12.624469610365601"><ele>25.6</ele><time>2026-05-04T06:10:05Z</time></trkpt><trkpt lat="43.974729798512946" lon="12.624337775604983"><ele>26.0</ele><time>2026-05-04T06:10:06Z</time></trkpt><trkpt lat="43.97470715231802" lon="12.624208093243407"><ele>27.5</ele><time>2026-05-04T06:10:07Z</time></trkpt><trkpt lat="43.9746648340835" lon="12.62408165091824"><ele>29.0</ele><time>2026-05-04T06:10:08Z</time></trkpt><trkpt lat="43.974607966031755" lon="12.62395174630815"><ele>30.5</ele><time>2026-05-04T06:10:09Z</time></trkpt><trkpt lat="43.97453409818731" lon="12.623821612822566"><ele>32.0</ele><time>2026-05-04T06:10:10Z</time></trkpt><trkpt lat="43.974449714732124" lon="12.623700026137636"><ele>31.75</ele><time>2026-05-04T06:10:11Z</time></trkpt><trkpt lat="43.974356095996285" lon="12.62359308877204"><ele>31.5</ele><time>2026-05-04T06:10:12Z</time></trkpt><trkpt lat="43.97425211148345" lon="12.623509283271098"><ele>31.25</ele><time>2026-05-04T06:10:13Z</time></trkpt><trkpt lat="43.974137942061716" lon="12.6234483405954"><ele>31.0</ele><time>2026-05-04T06:10:13.999Z</time></trkpt><trkpt lat="43.97403516407323" lon="12.623417763450563"><ele>31.0</ele><time>2026-05-04T06:10:14.999Z</time></trkpt><trkpt lat="43.973953850623026" lon="12.62337183269271"><ele>31.0</ele><time>2026-05-04T06:10:15.999Z</time></trkpt><trkpt lat="43.9738499323652" lon="12.6232984979511"><ele>31.0</ele><time>2026-05-04T06:10:17.999Z</time></trkpt><trkpt lat="43.9738615475944" lon="12.623190614899347"><ele>31.0</ele><time>2026-05-04T06:10:18.999Z</time></trkpt><trkpt lat="43.973893276233035" lon="12.6230910114512"><ele>31.0</ele><time>2026-05-04T06:10:19.999Z</time></trkpt><trkpt lat="43.97390723588424" lon="12.622965483629642"><ele>31.0</ele><time>2026-05-04T06:10:20.999Z</time></trkpt><trkpt lat="43.97391798038783" lon="12.622823860818205"><ele>31.0</ele><time>2026-05-04T06:10:21.999Z</time></trkpt><trkpt lat="43.973925602360445" lon="12.622663179400854"><ele>31.0</ele><time>2026-05-04T06:10:23Z</time></trkpt><trkpt lat="43.97393363986522" lon="12.622489152209463"><ele>31.0</ele><time>2026-05-04T06:10:24Z</time></trkpt><trkpt lat="43.9739409550229" lon="12.62230033807473"><ele>32.0</ele><time>2026-05-04T06:10:25Z</time></trkpt><trkpt lat="43.97394702357226" lon="12.622097858220911"><ele>33.0</ele><time>2026-05-04T06:10:26Z</time></trkpt><trkpt lat="43.973947079182565" lon="12.621899590557735"><ele>34.0</ele><time>2026-05-04T06:10:27Z</time></trkpt><trkpt lat="43.973946008368166" lon="12.621707966777208"><ele>35.0</ele><time>2026-05-04T06:10:28Z</time></trkpt><trkpt lat="43.973931730096766" lon="12.621532690112122"><ele>36.6</ele><time>2026-05-04T06:10:29Z</time></trkpt><trkpt lat="43.97396502685113" lon="12.6213746172075"><ele>38.2</ele><time>2026-05-04T06:10:30Z</time></trkpt><trkpt lat="43.974013507862566" lon="12.62124871166772"><ele>39.8</ele><time>2026-05-04T06:10:31Z</time></trkpt><trkpt lat="43.974066856522064" lon="12.621119554965743"><ele>41.4</ele><time>2026-05-04T06:10:32Z</time></trkpt><trkpt lat="43.97413732127878" lon="12.620984259514593"><ele>43.0</ele><time>2026-05-04T06:10:33Z</time></trkpt><trkpt lat="43.974213586068714" lon="12.620848098319142"><ele>44.75</ele><time>2026-05-04T06:10:34Z</time></trkpt><trkpt lat="43.97429479032023" lon="12.620716880675221"><ele>46.5</ele><time>2026-05-04T06:10:35Z</time></trkpt><trkpt lat="43.974389048780736" lon="12.620590108932602"><ele>48.25</ele><time>2026-05-04T06:10:36Z</time></trkpt><trkpt lat="43.974487652311076" lon="12.620463893625502"><ele>50.0</ele><time>2026-05-04T06:10:37Z</time></trkpt><trkpt lat="43.97458811457995" lon="12.620328107741535"><ele>52.75</ele><time>2026-05-04T06:10:38Z</time></trkpt><trkpt lat="43.97467558514163" lon="12.62018109374622"><ele>55.5</ele><time>2026-05-04T06:10:39Z</time></trkpt><trkpt lat="43.974761284076145" lon="12.620049209077584"><ele>58.25</ele><time>2026-05-04T06:10:40Z</time></trkpt><trkpt lat="43.97483999017869" lon="12.619920221740141"><ele>61.0</ele><time>2026-05-04T06:10:41Z</time></trkpt><trkpt lat="43.974881275812365" lon="12.61977880868647"><ele>61.0</ele><time>2026-05-04T06:10:42Z</time></trkpt><trkpt lat="43.974881485136954" lon="12.619645969282228"><ele>60.99999999999999</ele><time>2026-05-04T06:10:43Z</time></trkpt><trkpt lat="43.97490418032905" lon="12.619550659866778"><ele>60.99999999999999</ele><time>2026-05-04T06:10:44Z</time></trkpt><trkpt lat="43.974890597403224" lon="12.61942913729962"><ele>61.0</ele><time>2026-05-04T06:10:46Z</time></trkpt><trkpt lat="43.97487216894813" lon="12.619314664827186"><ele>61.0</ele><time>2026-05-04T06:10:50Z</time></trkpt><trkpt lat="43.97471204849068" lon="12.61933238404664"><ele>61.75</ele><time>2026-05-04T06:10:51Z</time></trkpt><trkpt lat="43.9746141548175" lon="12.619305936671884"><ele>62.5</ele><time>2026-05-04T06:10:52Z</time></trkpt><trkpt lat="43.974505171804736" lon="12.619251821046433"><ele>63.25</ele><time>2026-05-04T06:10:53Z</time></trkpt><trkpt lat="43.97439373120174" lon="12.619196280326573"><ele>64.0</ele><time>2026-05-04T06:10:54Z</time></trkpt><trkpt lat="43.9742698423585" lon="12.619139431301717"><ele>63.25</ele><time>2026-05-04T06:10:55Z</time></trkpt><trkpt lat="43.97414149938872" lon="12.619080906031215"><ele>62.5</ele><time>2026-05-04T06:10:56Z</time></trkpt><trkpt lat="43.974010613583616" lon="12.61902267741822"><ele>61.75</ele><time>2026-05-04T06:10:57Z</time></trkpt><trkpt lat="43.97387289488836" lon="12.618958373535605"><ele>61.0</ele><time>2026-05-04T06:10:58Z</time></trkpt><trkpt lat="43.97373531017474" lon="12.618893205968899"><ele>61.0</ele><time>2026-05-04T06:10:59Z</time></trkpt><trkpt lat="43.97359181055452" lon="12.618825843297268"><ele>61.0</ele><time>2026-05-04T06:11:00Z</time></trkpt><trkpt lat="43.97345557498014" lon="12.618758584573554"><ele>61.0</ele><time>2026-05-04T06:11:01Z</time></trkpt><trkpt lat="43.9733136734869" lon="12.618695646580132"><ele>61.0</ele><time>2026-05-04T06:11:02Z</time></trkpt><trkpt lat="43.97317587041534" lon="12.61863302528481"><ele>60.75</ele><time>2026-05-04T06:11:03Z</time></trkpt><trkpt lat="43.97304484379987" lon="12.618575056812448"><ele>60.5</ele><time>2026-05-04T06:11:04Z</time></trkpt><trkpt lat="43.97291024066004" lon="12.618518645134571"><ele>60.25</ele><time>2026-05-04T06:11:05Z</time></trkpt><trkpt lat="43.97277558883398" lon="12.61847765624513"><ele>60.0</ele><time>2026-05-04T06:11:06Z</time></trkpt><trkpt lat="43.97263058183859" lon="12.618438397142858"><ele>61.0</ele><time>2026-05-04T06:11:07Z</time></trkpt><trkpt lat="43.972487044428576" lon="12.618400754343899"><ele>62.0</ele><time>2026-05-04T06:11:08Z</time></trkpt><trkpt lat="43.97233524194549" lon="12.618366560233094"><ele>63.0</ele><time>2026-05-04T06:11:09Z</time></trkpt><trkpt lat="43.972182834184984" lon="12.618331010543756"><ele>63.0</ele><time>2026-05-04T06:11:10Z</time></trkpt><trkpt lat="43.97203292642486" lon="12.618296779400394"><ele>63.0</ele><time>2026-05-04T06:11:11Z</time></trkpt><trkpt lat="43.97188238658071" lon="12.618262014926492"><ele>63.0</ele><time>2026-05-04T06:11:12Z</time></trkpt><trkpt lat="43.97173556643064" lon="12.618230956021657"><ele>62.25</ele><time>2026-05-04T06:11:13Z</time></trkpt><trkpt lat="43.97158314337634" lon="12.61819623336202"><ele>61.5</ele><time>2026-05-04T06:11:14Z</time></trkpt><trkpt lat="43.971445114609594" lon="12.61816704034144"><ele>60.75</ele><time>2026-05-04T06:11:15Z</time></trkpt><trkpt lat="43.97130511438529" lon="12.618135764644562"><ele>60.0</ele><time>2026-05-04T06:11:16Z</time></trkpt><trkpt lat="43.97116759572038" lon="12.61810411960336"><ele>60.0</ele><time>2026-05-04T06:11:17Z</time></trkpt><trkpt lat="43.97102672197395" lon="12.618070812500651"><ele>60.0</ele><time>2026-05-04T06:11:18Z</time></trkpt><trkpt lat="43.97088886945482" lon="12.618042712937449"><ele>60.0</ele><time>2026-05-04T06:11:19Z</time></trkpt><trkpt lat="43.970749205826195" lon="12.61801568185321"><ele>60.0</ele><time>2026-05-04T06:11:20Z</time></trkpt><trkpt lat="43.97062359567253" lon="12.617992029405313"><ele>60.4</ele><time>2026-05-04T06:11:21Z</time></trkpt><trkpt lat="43.9705068976294" lon="12.617966696436863"><ele>60.8</ele><time>2026-05-04T06:11:22Z</time></trkpt><trkpt lat="43.97039757501283" lon="12.617949474167137"><ele>61.2</ele><time>2026-05-04T06:11:23Z</time></trkpt><trkpt lat="43.970305498607566" lon="12.617932277258376"><ele>61.6</ele><time>2026-05-04T06:11:24Z</time></trkpt><trkpt lat="43.97022789482746" lon="12.61791351822664"><ele>62.0</ele><time>2026-05-04T06:11:25Z</time></trkpt><trkpt lat="43.97016496279555" lon="12.617880712827407"><ele>61.8</ele><time>2026-05-04T06:11:26Z</time></trkpt><trkpt lat="43.9700902816655" lon="12.61781305358286"><ele>61.6</ele><time>2026-05-04T06:11:28Z</time></trkpt><trkpt lat="43.970022976853976" lon="12.617783931913142"><ele>61.39999999999999</ele><time>2026-05-04T06:11:31Z</time></trkpt><trkpt lat="43.97001357648894" lon="12.617564072722397"><ele>61.199999999999996</ele><time>2026-05-04T06:11:33Z</time></trkpt><trkpt lat="43.97001262723069" lon="12.617443109325562"><ele>61.0</ele><time>2026-05-04T06:11:34Z</time></trkpt><trkpt lat="43.970035187580784" lon="12.617302519119399"><ele>61.0</ele><time>2026-05-04T06:11:35Z</time></trkpt><trkpt lat="43.97004774162527" lon="12.617152681208681"><ele>61.0</ele><time>2026-05-04T06:11:36Z</time></trkpt><trkpt lat="43.97005640962109" lon="12.617001085475058"><ele>61.0</ele><time>2026-05-04T06:11:37Z</time></trkpt><trkpt lat="43.97006981803562" lon="12.616844345260564"><ele>61.0</ele><time>2026-05-04T06:11:38Z</time></trkpt><trkpt lat="43.97008731829668" lon="12.61666989725868"><ele>59.0</ele><time>2026-05-04T06:11:39Z</time></trkpt><trkpt lat="43.970104221718046" lon="12.616486386490697"><ele>57.0</ele><time>2026-05-04T06:11:40Z</time></trkpt><trkpt lat="43.970125740450214" lon="12.61626179270453"><ele>55.0</ele><time>2026-05-04T06:11:41Z</time></trkpt><trkpt lat="43.97014577577694" lon="12.616057886398362"><ele>53.0</ele><time>2026-05-04T06:11:42Z</time></trkpt><trkpt lat="43.97016458907782" lon="12.615860941175292"><ele>51.25</ele><time>2026-05-04T06:11:43Z</time></trkpt><trkpt lat="43.97018525096054" lon="12.615665958766554"><ele>49.5</ele><time>2026-05-04T06:11:44Z</time></trkpt><trkpt lat="43.970205038231406" lon="12.615473833050206"><ele>47.75</ele><time>2026-05-04T06:11:45Z</time></trkpt><trkpt lat="43.970225161836495" lon="12.61527785117475"><ele>46.0</ele><time>2026-05-04T06:11:46Z</time></trkpt><trkpt lat="43.97024554534011" lon="12.61507546222717"><ele>44.0</ele><time>2026-05-04T06:11:47Z</time></trkpt><trkpt lat="43.970266952826265" lon="12.614866166935542"><ele>42.0</ele><time>2026-05-04T06:11:48Z</time></trkpt><trkpt lat="43.970289685408105" lon="12.614643272334224"><ele>40.0</ele><time>2026-05-04T06:11:49Z</time></trkpt><trkpt lat="43.97031447931822" lon="12.614409973663214"><ele>39.75</ele><time>2026-05-04T06:11:50Z</time></trkpt><trkpt lat="43.970342955996585" lon="12.614167736600947"><ele>39.5</ele><time>2026-05-04T06:11:51Z</time></trkpt><trkpt lat="43.97037192872077" lon="12.613918529513095"><ele>39.25</ele><time>2026-05-04T06:11:52Z</time></trkpt><trkpt lat="43.97038478530622" lon="12.613818104122116"><ele>39.0</ele><time>2026-05-04T06:11:53Z</time></trkpt><trkpt lat="43.97039157809706" lon="12.613588348591609"><ele>37.333333333333336</ele><time>2026-05-04T06:11:54Z</time></trkpt><trkpt lat="43.97041490007226" lon="12.613359267791635"><ele>35.66666666666667</ele><time>2026-05-04T06:11:55Z</time></trkpt><trkpt lat="43.97044399118295" lon="12.61313649005606"><ele>34.0</ele><time>2026-05-04T06:11:56Z</time></trkpt><trkpt lat="43.97046193757494" lon="12.612929045671423"><ele>33.25</ele><time>2026-05-04T06:11:57Z</time></trkpt><trkpt lat="43.97048335320869" lon="12.612730311489262"><ele>32.5</ele><time>2026-05-04T06:11:58Z</time></trkpt><trkpt lat="43.97050566181587" lon="12.612540578081223"><ele>31.75</ele><time>2026-05-04T06:11:59Z</time></trkpt><trkpt lat="43.970521986689285" lon="12.612349338190585"><ele>31.0</ele><time>2026-05-04T06:12:00Z</time></trkpt><trkpt lat="43.970541705201995" lon="12.612152742486485"><ele>31.25</ele><time>2026-05-04T06:12:01Z</time></trkpt><trkpt lat="43.97057794253355" lon="12.611963673306139"><ele>31.5</ele><time>2026-05-04T06:12:02Z</time></trkpt><trkpt lat="43.970598650402906" lon="12.611773349582139"><ele>31.75</ele><time>2026-05-04T06:12:03Z</time></trkpt><trkpt lat="43.97061965917232" lon="12.611580179543063"><ele>32.0</ele><time>2026-05-04T06:12:04Z</time></trkpt><trkpt lat="43.97062408425205" lon="12.611381007693304"><ele>32.0</ele><time>2026-05-04T06:12:05Z</time></trkpt><trkpt lat="43.97063799497171" lon="12.61120098367958"><ele>32.0</ele><time>2026-05-04T06:12:06Z</time></trkpt><trkpt lat="43.97063495583778" lon="12.61102916629734"><ele>32.0</ele><time>2026-05-04T06:12:07Z</time></trkpt><trkpt lat="43.970625524876965" lon="12.610855029818612"><ele>32.0</ele><time>2026-05-04T06:12:08Z</time></trkpt><trkpt lat="43.9706140109717" lon="12.610694915973054"><ele>32.25</ele><time>2026-05-04T06:12:09Z</time></trkpt><trkpt lat="43.97058826860898" lon="12.610543344004618"><ele>32.5</ele><time>2026-05-04T06:12:10Z</time></trkpt><trkpt lat="43.970543082201644" lon="12.610400107019224"><ele>32.75</ele><time>2026-05-04T06:12:11Z</time></trkpt><trkpt lat="43.97047310767752" lon="12.610273757289844"><ele>33.0</ele><time>2026-05-04T06:12:12Z</time></trkpt><trkpt lat="43.97037467120255" lon="12.610173078640903"><ele>32.5</ele><time>2026-05-04T06:12:13Z</time></trkpt><trkpt lat="43.97026540477329" lon="12.610084064355203"><ele>32.0</ele><time>2026-05-04T06:12:14Z</time></trkpt><trkpt lat="43.97018537299102" lon="12.60995421383662"><ele>31.5</ele><time>2026-05-04T06:12:15Z</time></trkpt><trkpt lat="43.97013873658053" lon="12.609794402455359"><ele>31.0</ele><time>2026-05-04T06:12:16Z</time></trkpt><trkpt lat="43.970104233359635" lon="12.609614851916097"><ele>30.25</ele><time>2026-05-04T06:12:17Z</time></trkpt><trkpt lat="43.97008222732938" lon="12.60943295423908"><ele>29.5</ele><time>2026-05-04T06:12:18Z</time></trkpt><trkpt lat="43.97005902393426" lon="12.60923875556563"><ele>28.75</ele><time>2026-05-04T06:12:19Z</time></trkpt><trkpt lat="43.970034785825916" lon="12.609045398153048"><ele>28.0</ele><time>2026-05-04T06:12:20Z</time></trkpt><trkpt lat="43.96999933468594" lon="12.608850983952795"><ele>29.0</ele><time>2026-05-04T06:12:21Z</time></trkpt><trkpt lat="43.96997729659012" lon="12.608657323831235"><ele>30.0</ele><time>2026-05-04T06:12:22Z</time></trkpt><trkpt lat="43.969952218369485" lon="12.60846448306195"><ele>31.0</ele><time>2026-05-04T06:12:23Z</time></trkpt><trkpt lat="43.96992299757878" lon="12.608275740054388"><ele>32.0</ele><time>2026-05-04T06:12:24Z</time></trkpt><trkpt lat="43.96989947469849" lon="12.608095761965492"><ele>32.0</ele><time>2026-05-04T06:12:25Z</time></trkpt><trkpt lat="43.96987786701595" lon="12.607929351877106"><ele>32.0</ele><time>2026-05-04T06:12:26Z</time></trkpt><trkpt lat="43.96985264068554" lon="12.60776452127498"><ele>32.0</ele><time>2026-05-04T06:12:27Z</time></trkpt><trkpt lat="43.96982247929732" lon="12.607604167334943"><ele>32.0</ele><time>2026-05-04T06:12:28Z</time></trkpt><trkpt lat="43.969787124124004" lon="12.60743325650574"><ele>34.5</ele><time>2026-05-04T06:12:29Z</time></trkpt><trkpt lat="43.9697491468903" lon="12.607262532631454"><ele>37.0</ele><time>2026-05-04T06:12:30Z</time></trkpt><trkpt lat="43.96970724643829" lon="12.607092551767275"><ele>39.5</ele><time>2026-05-04T06:12:31Z</time></trkpt><trkpt lat="43.96966821562806" lon="12.606924926988583"><ele>42.0</ele><time>2026-05-04T06:12:32Z</time></trkpt><trkpt lat="43.96962980771266" lon="12.606767012625248"><ele>43.75</ele><time>2026-05-04T06:12:33Z</time></trkpt><trkpt lat="43.96958856145589" lon="12.606616289455488"><ele>45.5</ele><time>2026-05-04T06:12:34Z</time></trkpt><trkpt lat="43.969554635449626" lon="12.606465213122974"><ele>47.25</ele><time>2026-05-04T06:12:35Z</time></trkpt><trkpt lat="43.96951742689216" lon="12.606318384090885"><ele>49.0</ele><time>2026-05-04T06:12:36Z</time></trkpt><trkpt lat="43.96947006341925" lon="12.60616836909424"><ele>50.6</ele><time>2026-05-04T06:12:37Z</time></trkpt><trkpt lat="43.96943393307845" lon="12.606021510959078"><ele>52.2</ele><time>2026-05-04T06:12:38Z</time></trkpt><trkpt lat="43.969395107539434" lon="12.605873919182596"><ele>53.800000000000004</ele><time>2026-05-04T06:12:39Z</time></trkpt><trkpt lat="43.96935782486444" lon="12.605727852546856"><ele>55.400000000000006</ele><time>2026-05-04T06:12:40Z</time></trkpt><trkpt lat="43.96934129224572" lon="12.605574943980265"><ele>57.0</ele><time>2026-05-04T06:12:41Z</time></trkpt><trkpt lat="43.9693100706677" lon="12.60543746227378"><ele>58.8</ele><time>2026-05-04T06:12:42Z</time></trkpt><trkpt lat="43.96932370945221" lon="12.605284005571297"><ele>60.6</ele><time>2026-05-04T06:12:43Z</time></trkpt><trkpt lat="43.969344299951445" lon="12.605137945682994"><ele>62.39999999999999</ele><time>2026-05-04T06:12:44Z</time></trkpt><trkpt lat="43.96937033171972" lon="12.60499522062834"><ele>64.2</ele><time>2026-05-04T06:12:45Z</time></trkpt><trkpt lat="43.96939137393917" lon="12.604869070623383"><ele>66.0</ele><time>2026-05-04T06:12:46Z</time></trkpt><trkpt lat="43.96941457313963" lon="12.604730393291513"><ele>66.0</ele><time>2026-05-04T06:12:47Z</time></trkpt><trkpt lat="43.96944027974761" lon="12.604586856215045"><ele>66.0</ele><time>2026-05-04T06:12:48Z</time></trkpt><trkpt lat="43.96946788106687" lon="12.604434537291832"><ele>66.0</ele><time>2026-05-04T06:12:49Z</time></trkpt><trkpt lat="43.969480588400316" lon="12.604283346565307"><ele>66.0</ele><time>2026-05-04T06:12:50Z</time></trkpt><trkpt lat="43.96952558728144" lon="12.60413726566842"><ele>66.0</ele><time>2026-05-04T06:12:51Z</time></trkpt><trkpt lat="43.96955576225738" lon="12.603981820284734"><ele>67.8</ele><time>2026-05-04T06:12:52Z</time></trkpt><trkpt lat="43.96958297639135" lon="12.603841627525206"><ele>69.6</ele><time>2026-05-04T06:12:53Z</time></trkpt><trkpt lat="43.96961014006123" lon="12.60369298696482"><ele>71.4</ele><time>2026-05-04T06:12:54Z</time></trkpt><trkpt lat="43.96963480468064" lon="12.603553302198826"><ele>73.2</ele><time>2026-05-04T06:12:55Z</time></trkpt><trkpt lat="43.96963923558875" lon="12.603430297252105"><ele>75.0</ele><time>2026-05-04T06:12:56Z</time></trkpt><trkpt lat="43.96965568811064" lon="12.603328070508645"><ele>75.5</ele><time>2026-05-04T06:12:57Z</time></trkpt><trkpt lat="43.96968928389005" lon="12.603228787216002"><ele>76.0</ele><time>2026-05-04T06:12:58Z</time></trkpt><trkpt lat="43.969703819231114" lon="12.603141406005225"><ele>76.5</ele><time>2026-05-04T06:12:59Z</time></trkpt><trkpt lat="43.969725985044384" lon="12.603008153500085"><ele>77.0</ele><time>2026-05-04T06:13:01Z</time></trkpt><trkpt lat="43.969743237551846" lon="12.60290570207105"><ele>77.5</ele><time>2026-05-04T06:13:03Z</time></trkpt><trkpt lat="43.969758316040966" lon="12.602818701078395"><ele>78.0</ele><time>2026-05-04T06:13:08Z</time></trkpt><trkpt lat="43.96977510031936" lon="12.602721857796093"><ele>79.0</ele><time>2026-05-04T06:13:10Z</time></trkpt><trkpt lat="43.96979409832214" lon="12.602612241544916"><ele>80.0</ele><time>2026-05-04T06:13:13Z</time></trkpt><trkpt lat="43.96981065840708" lon="12.602516691848026"><ele>81.0</ele><time>2026-05-04T06:13:17Z</time></trkpt><trkpt lat="43.96981720588269" lon="12.602427967972151"><ele>82.0</ele><time>2026-05-04T06:13:22Z</time></trkpt><trkpt lat="43.96966185586813" lon="12.602365007492502"><ele>83.0</ele><time>2026-05-04T06:13:23Z</time></trkpt><trkpt lat="43.96958175781429" lon="12.602326912473787"><ele>83.0</ele><time>2026-05-04T06:13:24Z</time></trkpt><trkpt lat="43.969497478982426" lon="12.602283085066642"><ele>83.0</ele><time>2026-05-04T06:13:25Z</time></trkpt><trkpt lat="43.96941771536994" lon="12.60223994108804"><ele>83.0</ele><time>2026-05-04T06:13:26Z</time></trkpt><trkpt lat="43.969347189360846" lon="12.602201025826307"><ele>83.0</ele><time>2026-05-04T06:13:27Z</time></trkpt><trkpt lat="43.96922870570207" lon="12.602139215712512"><ele>83.0</ele><time>2026-05-04T06:13:29Z</time></trkpt><trkpt lat="43.9691568249697" lon="12.60208912095663"><ele>83.0</ele><time>2026-05-04T06:13:31Z</time></trkpt><trkpt lat="43.96910382212466" lon="12.602014852931154"><ele>83.0</ele><time>2026-05-04T06:13:39Z</time></trkpt><trkpt lat="43.969069283747565" lon="12.601939342345862"><ele>83.0</ele><time>2026-05-04T06:13:46Z</time></trkpt><trkpt lat="43.96900380172972" lon="12.601893641899363"><ele>83.0</ele><time>2026-05-04T06:13:48Z</time></trkpt><trkpt lat="43.96888345963892" lon="12.601887526703797"><ele>83.0</ele><time>2026-05-04T06:13:50Z</time></trkpt><trkpt lat="43.96881936494429" lon="12.601883022431561"><ele>83.0</ele><time>2026-05-04T06:13:51Z</time></trkpt><trkpt lat="43.96875525439422" lon="12.60187962955244"><ele>83.16666666666667</ele><time>2026-05-04T06:13:52Z</time></trkpt><trkpt lat="43.96868005827807" lon="12.601851664636952"><ele>83.33333333333334</ele><time>2026-05-04T06:13:53Z</time></trkpt><trkpt lat="43.96861734645704" lon="12.601812083650643"><ele>83.5</ele><time>2026-05-04T06:13:54Z</time></trkpt><trkpt lat="43.968546361737936" lon="12.60176727200598"><ele>83.66666666666667</ele><time>2026-05-04T06:13:55Z</time></trkpt><trkpt lat="43.968472608311174" lon="12.601721989633415"><ele>83.83333333333333</ele><time>2026-05-04T06:13:56Z</time></trkpt><trkpt lat="43.96839603419604" lon="12.601680921663096"><ele>84.0</ele><time>2026-05-04T06:13:57Z</time></trkpt><trkpt lat="43.96829824708705" lon="12.601628059358566"><ele>84.6</ele><time>2026-05-04T06:13:58Z</time></trkpt><trkpt lat="43.968207171954376" lon="12.601579170426977"><ele>85.2</ele><time>2026-05-04T06:13:59Z</time></trkpt><trkpt lat="43.96811769007396" lon="12.60155258617618"><ele>85.8</ele><time>2026-05-04T06:14:00Z</time></trkpt><trkpt lat="43.968053733436214" lon="12.601524421583616"><ele>86.39999999999999</ele><time>2026-05-04T06:14:01Z</time></trkpt><trkpt lat="43.967939221449036" lon="12.601501017762816"><ele>87.0</ele><time>2026-05-04T06:14:03Z</time></trkpt><trkpt lat="43.96784779968663" lon="12.601476274396541"><ele>87.0</ele><time>2026-05-04T06:14:05Z</time></trkpt><trkpt lat="43.96780698752709" lon="12.601403773171775"><ele>87.0</ele><time>2026-05-04T06:14:07Z</time></trkpt><trkpt lat="43.967790120568296" lon="12.601240710887945"><ele>87.0</ele><time>2026-05-04T06:14:10Z</time></trkpt><trkpt lat="43.96771799987188" lon="12.601093507470335"><ele>87.0</ele><time>2026-05-04T06:14:12Z</time></trkpt><trkpt lat="43.967679294171845" lon="12.600992827570987"><ele>87.0</ele><time>2026-05-04T06:14:13Z</time></trkpt><trkpt lat="43.96764413893649" lon="12.60088488293177"><ele>87.0</ele><time>2026-05-04T06:14:14Z</time></trkpt><trkpt lat="43.96760227314438" lon="12.600782631611068"><ele>87.0</ele><time>2026-05-04T06:14:15Z</time></trkpt><trkpt lat="43.967561488278186" lon="12.600684373017648"><ele>87.0</ele><time>2026-05-04T06:14:16Z</time></trkpt><trkpt lat="43.96751101014869" lon="12.600592575965658"><ele>87.0</ele><time>2026-05-04T06:14:17Z</time></trkpt><trkpt lat="43.96747567409514" lon="12.600509687550886"><ele>87.0</ele><time>2026-05-04T06:14:18Z</time></trkpt><trkpt lat="43.9674321827027" lon="12.600421306059175"><ele>87.0</ele><time>2026-05-04T06:14:19Z</time></trkpt><trkpt lat="43.96738174108591" lon="12.600315715649185"><ele>86.28571428571428</ele><time>2026-05-04T06:14:20Z</time></trkpt><trkpt lat="43.967336327228274" lon="12.60021737042343"><ele>85.57142857142857</ele><time>2026-05-04T06:14:21Z</time></trkpt><trkpt lat="43.96730013313345" lon="12.600133317180612"><ele>84.85714285714286</ele><time>2026-05-04T06:14:22Z</time></trkpt><trkpt lat="43.967270774762376" lon="12.600036546654614"><ele>84.14285714285714</ele><time>2026-05-04T06:14:23Z</time></trkpt><trkpt lat="43.967257523441255" lon="12.599946096190687"><ele>83.42857142857143</ele><time>2026-05-04T06:14:24Z</time></trkpt><trkpt lat="43.96725777967341" lon="12.599853673404237"><ele>82.71428571428571</ele><time>2026-05-04T06:14:25Z</time></trkpt><trkpt lat="43.96728828898267" lon="12.59977165455496"><ele>82.0</ele><time>2026-05-04T06:14:26Z</time></trkpt><trkpt lat="43.96733940444024" lon="12.59969961347616"><ele>82.0</ele><time>2026-05-04T06:14:27Z</time></trkpt><trkpt lat="43.96741211359261" lon="12.599634153603393"><ele>82.0</ele><time>2026-05-04T06:14:28Z</time></trkpt><trkpt lat="43.96749187497041" lon="12.599566828432543"><ele>82.0</ele><time>2026-05-04T06:14:29Z</time></trkpt><trkpt lat="43.967579642457004" lon="12.599485318595235"><ele>82.0</ele><time>2026-05-04T06:14:30Z</time></trkpt><trkpt lat="43.96766809840128" lon="12.599394748811912"><ele>82.0</ele><time>2026-05-04T06:14:31Z</time></trkpt><trkpt lat="43.967769242633985" lon="12.599282174156565"><ele>78.75</ele><time>2026-05-04T06:14:32Z</time></trkpt><trkpt lat="43.96787399171736" lon="12.599195607626843"><ele>75.5</ele><time>2026-05-04T06:14:33Z</time></trkpt><trkpt lat="43.96797733589385" lon="12.599082643408167"><ele>72.25</ele><time>2026-05-04T06:14:34Z</time></trkpt><trkpt lat="43.968089640059574" lon="12.598960295779081"><ele>69.0</ele><time>2026-05-04T06:14:35Z</time></trkpt><trkpt lat="43.96819615970738" lon="12.598842199127235"><ele>69.0</ele><time>2026-05-04T06:14:36Z</time></trkpt><trkpt lat="43.968301925484504" lon="12.598719887822691"><ele>69.0</ele><time>2026-05-04T06:14:37Z</time></trkpt><trkpt lat="43.968394113704534" lon="12.598584176537052"><ele>69.0</ele><time>2026-05-04T06:14:38Z</time></trkpt><trkpt lat="43.96847784795213" lon="12.59843594034894"><ele>69.0</ele><time>2026-05-04T06:14:39Z</time></trkpt><trkpt lat="43.968558549046065" lon="12.598288290076967"><ele>65.25</ele><time>2026-05-04T06:14:40Z</time></trkpt><trkpt lat="43.968638423293854" lon="12.598140762516099"><ele>61.5</ele><time>2026-05-04T06:14:41Z</time></trkpt><trkpt lat="43.968716359675525" lon="12.597994679560223"><ele>57.75</ele><time>2026-05-04T06:14:42Z</time></trkpt><trkpt lat="43.96877546730852" lon="12.597847929079963"><ele>54.0</ele><time>2026-05-04T06:14:43Z</time></trkpt><trkpt lat="43.96884375520146" lon="12.597725950137406"><ele>52.800000000000004</ele><time>2026-05-04T06:14:44Z</time></trkpt><trkpt lat="43.968909313250606" lon="12.597609637329807"><ele>51.60000000000001</ele><time>2026-05-04T06:14:45Z</time></trkpt><trkpt lat="43.96895110759509" lon="12.597487467657745"><ele>50.4</ele><time>2026-05-04T06:14:46Z</time></trkpt><trkpt lat="43.96897275221344" lon="12.597342850576927"><ele>49.2</ele><time>2026-05-04T06:14:47Z</time></trkpt><trkpt lat="43.96895367663011" lon="12.597180190631239"><ele>48.0</ele><time>2026-05-04T06:14:48Z</time></trkpt><trkpt lat="43.96894785873469" lon="12.597033501081723"><ele>46.25</ele><time>2026-05-04T06:14:49Z</time></trkpt><trkpt lat="43.96891539211807" lon="12.596819185464149"><ele>44.5</ele><time>2026-05-04T06:14:50Z</time></trkpt><trkpt lat="43.96888073067604" lon="12.596620560368978"><ele>42.75</ele><time>2026-05-04T06:14:51Z</time></trkpt><trkpt lat="43.968837339559904" lon="12.596430853626305"><ele>41.0</ele><time>2026-05-04T06:14:52Z</time></trkpt><trkpt lat="43.96878902485523" lon="12.596249661164888"><ele>40.25</ele><time>2026-05-04T06:14:53Z</time></trkpt><trkpt lat="43.968738382243586" lon="12.596072366330553"><ele>39.5</ele><time>2026-05-04T06:14:54Z</time></trkpt><trkpt lat="43.968691054551385" lon="12.59589937373308"><ele>38.75</ele><time>2026-05-04T06:14:55Z</time></trkpt><trkpt lat="43.968646792492855" lon="12.595731003133812"><ele>38.0</ele><time>2026-05-04T06:14:56Z</time></trkpt><trkpt lat="43.96860698360935" lon="12.595569560077404"><ele>38.0</ele><time>2026-05-04T06:14:57Z</time></trkpt><trkpt lat="43.96856022215989" lon="12.595425843313851"><ele>38.0</ele><time>2026-05-04T06:14:58Z</time></trkpt><trkpt lat="43.9685408195888" lon="12.595291677786781"><ele>38.0</ele><time>2026-05-04T06:14:59Z</time></trkpt><trkpt lat="43.968533792349426" lon="12.595176058120831"><ele>38.0</ele><time>2026-05-04T06:15:00Z</time></trkpt><trkpt lat="43.96854222780326" lon="12.59507417481909"><ele>38.0</ele><time>2026-05-04T06:15:01Z</time></trkpt><trkpt lat="43.968570495744366" lon="12.594971511265753"><ele>38.0</ele><time>2026-05-04T06:15:02Z</time></trkpt><trkpt lat="43.968624522109195" lon="12.59489526330243"><ele>37.75</ele><time>2026-05-04T06:15:03Z</time></trkpt><trkpt lat="43.96867159650375" lon="12.59475675700667"><ele>37.5</ele><time>2026-05-04T06:15:05Z</time></trkpt><trkpt lat="43.96864131878162" lon="12.594601361930033"><ele>37.25</ele><time>2026-05-04T06:15:07Z</time></trkpt><trkpt lat="43.96850216652361" lon="12.594552265289481"><ele>37.0</ele><time>2026-05-04T06:15:09Z</time></trkpt><trkpt lat="43.96842551566986" lon="12.594446428302676"><ele>37.2</ele><time>2026-05-04T06:15:10Z</time></trkpt><trkpt lat="43.968353225587194" lon="12.594372227769188"><ele>37.400000000000006</ele><time>2026-05-04T06:15:11Z</time></trkpt><trkpt lat="43.96827611394959" lon="12.59426196915296"><ele>37.599999999999994</ele><time>2026-05-04T06:15:12Z</time></trkpt><trkpt lat="43.968184044525" lon="12.594159434827443"><ele>37.8</ele><time>2026-05-04T06:15:13Z</time></trkpt><trkpt lat="43.968094661623546" lon="12.594051138929373"><ele>38.0</ele><time>2026-05-04T06:15:14Z</time></trkpt><trkpt lat="43.96800257856399" lon="12.593938523720178"><ele>38.0</ele><time>2026-05-04T06:15:15Z</time></trkpt><trkpt lat="43.967917474617146" lon="12.593828061851067"><ele>38.0</ele><time>2026-05-04T06:15:16Z</time></trkpt><trkpt lat="43.9678297343493" lon="12.593712149697604"><ele>38.0</ele><time>2026-05-04T06:15:17Z</time></trkpt><trkpt lat="43.967751215873456" lon="12.593606027067151"><ele>38.0</ele><time>2026-05-04T06:15:18Z</time></trkpt><trkpt lat="43.96768313391825" lon="12.593517959367308"><ele>38.0</ele><time>2026-05-04T06:15:19Z</time></trkpt><trkpt lat="43.96760641525038" lon="12.593405267199756"><ele>38.5</ele><time>2026-05-04T06:15:20Z</time></trkpt><trkpt lat="43.96749982999444" lon="12.593271929321045"><ele>39.0</ele><time>2026-05-04T06:15:21Z</time></trkpt><trkpt lat="43.9674158036337" lon="12.593152271178429"><ele>39.5</ele><time>2026-05-04T06:15:22Z</time></trkpt><trkpt lat="43.96733062854197" lon="12.593026067674751"><ele>40.0</ele><time>2026-05-04T06:15:23Z</time></trkpt><trkpt lat="43.96724495258662" lon="12.592902549182782"><ele>39.75</ele><time>2026-05-04T06:15:24Z</time></trkpt><trkpt lat="43.96715933503155" lon="12.592772817243192"><ele>39.5</ele><time>2026-05-04T06:15:25Z</time></trkpt><trkpt lat="43.96707519105602" lon="12.592649083549718"><ele>39.25</ele><time>2026-05-04T06:15:26Z</time></trkpt><trkpt lat="43.96699399148835" lon="12.592530067706948"><ele>39.0</ele><time>2026-05-04T06:15:27Z</time></trkpt><trkpt lat="43.96691669227026" lon="12.59241780179972"><ele>39.0</ele><time>2026-05-04T06:15:28Z</time></trkpt><trkpt lat="43.96684171765729" lon="12.592307373167335"><ele>39.0</ele><time>2026-05-04T06:15:29Z</time></trkpt><trkpt lat="43.966761508124925" lon="12.592190403534246"><ele>39.0</ele><time>2026-05-04T06:15:30Z</time></trkpt><trkpt lat="43.966681413587324" lon="12.592057954497491"><ele>39.0</ele><time>2026-05-04T06:15:31Z</time></trkpt><trkpt lat="43.966625946626706" lon="12.591903499604275"><ele>40.5</ele><time>2026-05-04T06:15:32Z</time></trkpt><trkpt lat="43.96658179669511" lon="12.59170727358468"><ele>42.0</ele><time>2026-05-04T06:15:33Z</time></trkpt><trkpt lat="43.96653874324837" lon="12.59153010244096"><ele>43.5</ele><time>2026-05-04T06:15:34Z</time></trkpt><trkpt lat="43.96648726314087" lon="12.591363693054383"><ele>45.0</ele><time>2026-05-04T06:15:35Z</time></trkpt><trkpt lat="43.96644025687106" lon="12.591200481073137"><ele>44.75</ele><time>2026-05-04T06:15:36Z</time></trkpt><trkpt lat="43.966394334857625" lon="12.591050315456608"><ele>44.5</ele><time>2026-05-04T06:15:37Z</time></trkpt><trkpt lat="43.96632875376243" lon="12.590916515062021"><ele>44.25</ele><time>2026-05-04T06:15:38Z</time></trkpt><trkpt lat="43.96624396427298" lon="12.590818976535257"><ele>44.0</ele><time>2026-05-04T06:15:39Z</time></trkpt><trkpt lat="43.966139663902766" lon="12.590759795385726"><ele>44.0</ele><time>2026-05-04T06:15:40Z</time></trkpt><trkpt lat="43.966027419354006" lon="12.590698557844926"><ele>44.0</ele><time>2026-05-04T06:15:41Z</time></trkpt><trkpt lat="43.965913818741804" lon="12.590630985014899"><ele>44.0</ele><time>2026-05-04T06:15:42Z</time></trkpt><trkpt lat="43.9657968673997" lon="12.590568175037125"><ele>44.0</ele><time>2026-05-04T06:15:43Z</time></trkpt><trkpt lat="43.96567476294481" lon="12.590513348403197"><ele>47.75</ele><time>2026-05-04T06:15:44Z</time></trkpt><trkpt lat="43.96555662411631" lon="12.590461047333662"><ele>51.5</ele><time>2026-05-04T06:15:45Z</time></trkpt><trkpt lat="43.96544304764583" lon="12.590406466592794"><ele>55.25</ele><time>2026-05-04T06:15:46Z</time></trkpt><trkpt lat="43.96534027625124" lon="12.590345707456672"><ele>59.0</ele><time>2026-05-04T06:15:47Z</time></trkpt><trkpt lat="43.96523358899454" lon="12.590282606662699"><ele>59.400000000000006</ele><time>2026-05-04T06:15:48Z</time></trkpt><trkpt lat="43.96513304463581" lon="12.590202388316925"><ele>59.800000000000004</ele><time>2026-05-04T06:15:49Z</time></trkpt><trkpt lat="43.965066983721826" lon="12.59011483576213"><ele>60.199999999999996</ele><time>2026-05-04T06:15:50Z</time></trkpt><trkpt lat="43.96498735110752" lon="12.590004486655321"><ele>60.599999999999994</ele><time>2026-05-04T06:15:51Z</time></trkpt><trkpt lat="43.96490454180947" lon="12.589913983298784"><ele>61.0</ele><time>2026-05-04T06:15:52Z</time></trkpt><trkpt lat="43.96480423238885" lon="12.589785673689569"><ele>63.25</ele><time>2026-05-04T06:15:53Z</time></trkpt><trkpt lat="43.96471275098565" lon="12.589669205421377"><ele>65.5</ele><time>2026-05-04T06:15:54Z</time></trkpt><trkpt lat="43.96461237063085" lon="12.589544222367337"><ele>67.75</ele><time>2026-05-04T06:15:55Z</time></trkpt><trkpt lat="43.96451031652148" lon="12.589421572459873"><ele>70.0</ele><time>2026-05-04T06:15:56Z</time></trkpt><trkpt lat="43.964409271081585" lon="12.5893075713126"><ele>70.0</ele><time>2026-05-04T06:15:57Z</time></trkpt><trkpt lat="43.96432381550249" lon="12.589171365780773"><ele>70.0</ele><time>2026-05-04T06:15:58Z</time></trkpt><trkpt lat="43.96423704564956" lon="12.589056063002769"><ele>70.0</ele><time>2026-05-04T06:15:59Z</time></trkpt><trkpt lat="43.964169702565066" lon="12.588939701485106"><ele>70.0</ele><time>2026-05-04T06:16:00Z</time></trkpt><trkpt lat="43.96409991726234" lon="12.588815973741035"><ele>72.25</ele><time>2026-05-04T06:16:01Z</time></trkpt><trkpt lat="43.96402381158003" lon="12.58868090314063"><ele>74.5</ele><time>2026-05-04T06:16:02Z</time></trkpt><trkpt lat="43.963943232042034" lon="12.588541480880211"><ele>76.75</ele><time>2026-05-04T06:16:03Z</time></trkpt><trkpt lat="43.963859785855334" lon="12.588406525021657"><ele>79.0</ele><time>2026-05-04T06:16:04Z</time></trkpt><trkpt lat="43.96378026605937" lon="12.588306130174454"><ele>79.0</ele><time>2026-05-04T06:16:05Z</time></trkpt><trkpt lat="43.963694228599834" lon="12.588232585764752"><ele>79.0</ele><time>2026-05-04T06:16:06Z</time></trkpt><trkpt lat="43.96359610529744" lon="12.588167245989446"><ele>79.0</ele><time>2026-05-04T06:16:07Z</time></trkpt><trkpt lat="43.96349278714389" lon="12.588121333662318"><ele>79.0</ele><time>2026-05-04T06:16:08Z</time></trkpt><trkpt lat="43.963380316804994" lon="12.588044843714233"><ele>79.0</ele><time>2026-05-04T06:16:09Z</time></trkpt><trkpt lat="43.96328437965538" lon="12.587978551470261"><ele>80.4</ele><time>2026-05-04T06:16:10Z</time></trkpt><trkpt lat="43.96317811225521" lon="12.587909699310151"><ele>81.80000000000001</ele><time>2026-05-04T06:16:11Z</time></trkpt><trkpt lat="43.963073443447534" lon="12.587848510755935"><ele>83.19999999999999</ele><time>2026-05-04T06:16:12Z</time></trkpt><trkpt lat="43.96298744364159" lon="12.587788528324225"><ele>84.6</ele><time>2026-05-04T06:16:13Z</time></trkpt><trkpt lat="43.962905275524164" lon="12.587738793700328"><ele>86.0</ele><time>2026-05-04T06:16:14Z</time></trkpt><trkpt lat="43.96282085353726" lon="12.587683176001232"><ele>86.0</ele><time>2026-05-04T06:16:15Z</time></trkpt><trkpt lat="43.96273238980707" lon="12.587630183152385"><ele>86.0</ele><time>2026-05-04T06:16:16Z</time></trkpt><trkpt lat="43.962645674065676" lon="12.587580231717235"><ele>86.0</ele><time>2026-05-04T06:16:17Z</time></trkpt><trkpt lat="43.96255680398962" lon="12.587546175671662"><ele>86.0</ele><time>2026-05-04T06:16:18Z</time></trkpt><trkpt lat="43.962463625686794" lon="12.58749311747386"><ele>86.0</ele><time>2026-05-04T06:16:19Z</time></trkpt><trkpt lat="43.962372747444434" lon="12.587449161810877"><ele>87.8</ele><time>2026-05-04T06:16:20Z</time></trkpt><trkpt lat="43.962278237040714" lon="12.58740552419341"><ele>89.6</ele><time>2026-05-04T06:16:21Z</time></trkpt><trkpt lat="43.96218641550219" lon="12.587360072891666"><ele>91.4</ele><time>2026-05-04T06:16:22Z</time></trkpt><trkpt lat="43.962097706507976" lon="12.587312674668295"><ele>93.2</ele><time>2026-05-04T06:16:23Z</time></trkpt><trkpt lat="43.962002984346675" lon="12.587273071860912"><ele>95.0</ele><time>2026-05-04T06:16:24Z</time></trkpt><trkpt lat="43.96190703742084" lon="12.58727657956374"><ele>95.0</ele><time>2026-05-04T06:16:25Z</time></trkpt><trkpt lat="43.961806075813215" lon="12.587294510866947"><ele>95.0</ele><time>2026-05-04T06:16:26Z</time></trkpt><trkpt lat="43.96170618266793" lon="12.587324830517145"><ele>95.0</ele><time>2026-05-04T06:16:27Z</time></trkpt><trkpt lat="43.96159922162036" lon="12.587374646587104"><ele>95.0</ele><time>2026-05-04T06:16:28Z</time></trkpt><trkpt lat="43.96149790516961" lon="12.58743683161298"><ele>95.0</ele><time>2026-05-04T06:16:29Z</time></trkpt><trkpt lat="43.96139936676527" lon="12.587514686180734"><ele>96.6</ele><time>2026-05-04T06:16:30Z</time></trkpt><trkpt lat="43.96130557444369" lon="12.587599025974471"><ele>98.2</ele><time>2026-05-04T06:16:31Z</time></trkpt><trkpt lat="43.96121791117271" lon="12.587694526875163"><ele>99.80000000000001</ele><time>2026-05-04T06:16:32Z</time></trkpt><trkpt lat="43.961137443180526" lon="12.587792078289183"><ele>101.4</ele><time>2026-05-04T06:16:33Z</time></trkpt><trkpt lat="43.961077564198824" lon="12.587888038939086"><ele>103.0</ele><time>2026-05-04T06:16:34Z</time></trkpt><trkpt lat="43.96100856340617" lon="12.587950216535416"><ele>103.16666666666667</ele><time>2026-05-04T06:16:35Z</time></trkpt><trkpt lat="43.960938360355634" lon="12.587979975871006"><ele>103.33333333333334</ele><time>2026-05-04T06:16:36Z</time></trkpt><trkpt lat="43.96087293198327" lon="12.587958773251707"><ele>103.5</ele><time>2026-05-04T06:16:37Z</time></trkpt><trkpt lat="43.96082180302163" lon="12.587856757437104"><ele>103.66666666666666</ele><time>2026-05-04T06:16:38Z</time></trkpt><trkpt lat="43.96074170808392" lon="12.587801738367418"><ele>103.83333333333333</ele><time>2026-05-04T06:16:39Z</time></trkpt><trkpt lat="43.96066063978637" lon="12.587720364060953"><ele>104.0</ele><time>2026-05-04T06:16:40Z</time></trkpt><trkpt lat="43.960558874001514" lon="12.587654248333143"><ele>104.0</ele><time>2026-05-04T06:16:41Z</time></trkpt><trkpt lat="43.96045177923997" lon="12.58759913213297"><ele>104.0</ele><time>2026-05-04T06:16:42Z</time></trkpt><trkpt lat="43.96035395992054" lon="12.587553865774666"><ele>104.0</ele><time>2026-05-04T06:16:43Z</time></trkpt><trkpt lat="43.96026021128755" lon="12.58751785985654"><ele>104.0</ele><time>2026-05-04T06:16:44Z</time></trkpt><trkpt lat="43.96016177447847" lon="12.587500450424379"><ele>104.0</ele><time>2026-05-04T06:16:45Z</time></trkpt><trkpt lat="43.96006246128321" lon="12.587494936700466"><ele>104.4</ele><time>2026-05-04T06:16:46Z</time></trkpt><trkpt lat="43.959953363573064" lon="12.58750238092907"><ele>104.80000000000001</ele><time>2026-05-04T06:16:47Z</time></trkpt><trkpt lat="43.959846005280255" lon="12.58752517256048"><ele>105.19999999999999</ele><time>2026-05-04T06:16:48Z</time></trkpt><trkpt lat="43.95973730725736" lon="12.58755335516247"><ele>105.6</ele><time>2026-05-04T06:16:49Z</time></trkpt><trkpt lat="43.95963033153807" lon="12.587590235324289"><ele>106.0</ele><time>2026-05-04T06:16:50Z</time></trkpt><trkpt lat="43.9595282935813" lon="12.587636307463665"><ele>106.0</ele><time>2026-05-04T06:16:51Z</time></trkpt><trkpt lat="43.9594264522153" lon="12.587690580340295"><ele>106.0</ele><time>2026-05-04T06:16:52Z</time></trkpt><trkpt lat="43.95933546721758" lon="12.58774512470655"><ele>106.0</ele><time>2026-05-04T06:16:53Z</time></trkpt><trkpt lat="43.959260348107115" lon="12.587789942119235"><ele>106.0</ele><time>2026-05-04T06:16:54Z</time></trkpt><trkpt lat="43.9591970252565" lon="12.587823872050604"><ele>106.0</ele><time>2026-05-04T06:16:55Z</time></trkpt><trkpt lat="43.95910527092474" lon="12.58789091497491"><ele>106.0</ele><time>2026-05-04T06:16:57Z</time></trkpt><trkpt lat="43.959040911800834" lon="12.587717382181358"><ele>106.0</ele><time>2026-05-04T06:16:58Z</time></trkpt><trkpt lat="43.958977006830075" lon="12.587634457561059"><ele>106.0</ele><time>2026-05-04T06:16:59Z</time></trkpt><trkpt lat="43.95889006578962" lon="12.587553629553247"><ele>106.0</ele><time>2026-05-04T06:17:00Z</time></trkpt><trkpt lat="43.95881127919963" lon="12.587455163658975"><ele>106.0</ele><time>2026-05-04T06:17:01Z</time></trkpt><trkpt lat="43.95872164783538" lon="12.587341161743181"><ele>106.0</ele><time>2026-05-04T06:17:02Z</time></trkpt><trkpt lat="43.958621529200435" lon="12.587223829504154"><ele>106.0</ele><time>2026-05-04T06:17:03Z</time></trkpt><trkpt lat="43.958530984215955" lon="12.587114274843604"><ele>106.0</ele><time>2026-05-04T06:17:04Z</time></trkpt><trkpt lat="43.95844534832786" lon="12.58700368449726"><ele>106.0</ele><time>2026-05-04T06:17:05Z</time></trkpt><trkpt lat="43.95834841455803" lon="12.586896306868237"><ele>104.0</ele><time>2026-05-04T06:17:06Z</time></trkpt><trkpt lat="43.95823516732856" lon="12.586800968556526"><ele>102.0</ele><time>2026-05-04T06:17:07Z</time></trkpt><trkpt lat="43.958095140396665" lon="12.586728514179331"><ele>100.0</ele><time>2026-05-04T06:17:08Z</time></trkpt><trkpt lat="43.95795766935805" lon="12.586644402187442"><ele>98.0</ele><time>2026-05-04T06:17:09Z</time></trkpt><trkpt lat="43.957811024176706" lon="12.586571186381404"><ele>98.0</ele><time>2026-05-04T06:17:10Z</time></trkpt><trkpt lat="43.95766054339106" lon="12.586502145012636"><ele>98.0</ele><time>2026-05-04T06:17:11Z</time></trkpt><trkpt lat="43.95752242163846" lon="12.586438792227323"><ele>98.0</ele><time>2026-05-04T06:17:12Z</time></trkpt><trkpt lat="43.95738901164975" lon="12.586375422928052"><ele>98.0</ele><time>2026-05-04T06:17:13Z</time></trkpt><trkpt lat="43.95725813164189" lon="12.58630781995229"><ele>96.0</ele><time>2026-05-04T06:17:14Z</time></trkpt><trkpt lat="43.95713347963272" lon="12.586239663758578"><ele>94.0</ele><time>2026-05-04T06:17:15Z</time></trkpt><trkpt lat="43.957012344561385" lon="12.586172284199076"><ele>92.0</ele><time>2026-05-04T06:17:16Z</time></trkpt><trkpt lat="43.956893649552015" lon="12.586103849426834"><ele>90.0</ele><time>2026-05-04T06:17:17Z</time></trkpt><trkpt lat="43.956779192981536" lon="12.586039543466244"><ele>88.4</ele><time>2026-05-04T06:17:18Z</time></trkpt><trkpt lat="43.956674640481395" lon="12.585979267255139"><ele>86.8</ele><time>2026-05-04T06:17:19Z</time></trkpt><trkpt lat="43.95658142868578" lon="12.585928912804704"><ele>85.19999999999999</ele><time>2026-05-04T06:17:20Z</time></trkpt><trkpt lat="43.95649736139198" lon="12.585891118324122"><ele>83.6</ele><time>2026-05-04T06:17:21Z</time></trkpt><trkpt lat="43.95641439606996" lon="12.585875920028295"><ele>82.0</ele><time>2026-05-04T06:17:22Z</time></trkpt><trkpt lat="43.95632756115936" lon="12.585897671053576"><ele>82.0</ele><time>2026-05-04T06:17:23Z</time></trkpt><trkpt lat="43.956233179165736" lon="12.58595219722064"><ele>82.0</ele><time>2026-05-04T06:17:24Z</time></trkpt><trkpt lat="43.956149922731036" lon="12.58603705224667"><ele>82.0</ele><time>2026-05-04T06:17:25Z</time></trkpt><trkpt lat="43.956074353725505" lon="12.586139983832785"><ele>82.0</ele><time>2026-05-04T06:17:26Z</time></trkpt><trkpt lat="43.95600856601949" lon="12.586239179147968"><ele>82.0</ele><time>2026-05-04T06:17:27Z</time></trkpt><trkpt lat="43.95595042339139" lon="12.586316264409799"><ele>81.39999999999999</ele><time>2026-05-04T06:17:28Z</time></trkpt><trkpt lat="43.955894219360594" lon="12.586371129781798"><ele>80.8</ele><time>2026-05-04T06:17:29Z</time></trkpt><trkpt lat="43.95576730082857" lon="12.586379283762524"><ele>80.2</ele><time>2026-05-04T06:17:31Z</time></trkpt><trkpt lat="43.95569581807019" lon="12.586314056800932"><ele>79.6</ele><time>2026-05-04T06:17:32Z</time></trkpt><trkpt lat="43.95562301605785" lon="12.58623081999307"><ele>79.0</ele><time>2026-05-04T06:17:33Z</time></trkpt><trkpt lat="43.955535503549385" lon="12.586139821958655"><ele>78.5</ele><time>2026-05-04T06:17:34Z</time></trkpt><trkpt lat="43.95544650657826" lon="12.586051752107334"><ele>78.0</ele><time>2026-05-04T06:17:35Z</time></trkpt><trkpt lat="43.95534606866408" lon="12.585956462068982"><ele>77.5</ele><time>2026-05-04T06:17:36Z</time></trkpt><trkpt lat="43.955233321892514" lon="12.5858584514335"><ele>77.0</ele><time>2026-05-04T06:17:37Z</time></trkpt><trkpt lat="43.95511159357425" lon="12.585762221717376"><ele>74.5</ele><time>2026-05-04T06:17:38Z</time></trkpt><trkpt lat="43.9549751293747" lon="12.585672236346564"><ele>72.0</ele><time>2026-05-04T06:17:39Z</time></trkpt><trkpt lat="43.95484664203674" lon="12.5855760414911"><ele>69.5</ele><time>2026-05-04T06:17:40Z</time></trkpt><trkpt lat="43.95471815490747" lon="12.585475448925353"><ele>67.0</ele><time>2026-05-04T06:17:41Z</time></trkpt><trkpt lat="43.954597172483474" lon="12.585368692807522"><ele>65.0</ele><time>2026-05-04T06:17:42Z</time></trkpt><trkpt lat="43.95447699638151" lon="12.585261784526942"><ele>63.0</ele><time>2026-05-04T06:17:43Z</time></trkpt><trkpt lat="43.95436231952749" lon="12.585167509241"><ele>61.0</ele><time>2026-05-04T06:17:44Z</time></trkpt><trkpt lat="43.95424635777496" lon="12.58507692398544"><ele>59.0</ele><time>2026-05-04T06:17:45Z</time></trkpt><trkpt lat="43.9541433547073" lon="12.584995665618022"><ele>58.400000000000006</ele><time>2026-05-04T06:17:46Z</time></trkpt><trkpt lat="43.95405082953777" lon="12.584915077260801"><ele>57.800000000000004</ele><time>2026-05-04T06:17:47Z</time></trkpt><trkpt lat="43.95397888376131" lon="12.58483287519732"><ele>57.199999999999996</ele><time>2026-05-04T06:17:48Z</time></trkpt><trkpt lat="43.953945014235295" lon="12.584716100508858"><ele>56.599999999999994</ele><time>2026-05-04T06:17:49Z</time></trkpt><trkpt lat="43.95394255289347" lon="12.584608622778509"><ele>56.0</ele><time>2026-05-04T06:17:50Z</time></trkpt><trkpt lat="43.95396723364859" lon="12.584493909202333"><ele>55.8</ele><time>2026-05-04T06:17:51Z</time></trkpt><trkpt lat="43.9540044221849" lon="12.584380353495341"><ele>55.599999999999994</ele><time>2026-05-04T06:17:52Z</time></trkpt><trkpt lat="43.954047985827174" lon="12.584266936894872"><ele>55.4</ele><time>2026-05-04T06:17:53Z</time></trkpt><trkpt lat="43.954096821468106" lon="12.584147436608227"><ele>55.2</ele><time>2026-05-04T06:17:54Z</time></trkpt><trkpt lat="43.95415965799035" lon="12.584018746938453"><ele>55.0</ele><time>2026-05-04T06:17:55Z</time></trkpt><trkpt lat="43.95422481022245" lon="12.583891096676744"><ele>54.8</ele><time>2026-05-04T06:17:56Z</time></trkpt><trkpt lat="43.954300255632795" lon="12.583760682973987"><ele>54.6</ele><time>2026-05-04T06:17:57Z</time></trkpt><trkpt lat="43.95437429439324" lon="12.583646081431594"><ele>54.400000000000006</ele><time>2026-05-04T06:17:58Z</time></trkpt><trkpt lat="43.954429047896575" lon="12.58353411227784"><ele>54.2</ele><time>2026-05-04T06:17:59Z</time></trkpt><trkpt lat="43.95445141818803" lon="12.583400447954396"><ele>54.0</ele><time>2026-05-04T06:18:00Z</time></trkpt><trkpt lat="43.954479845869606" lon="12.583286950093683"><ele>53.800000000000004</ele><time>2026-05-04T06:18:01Z</time></trkpt><trkpt lat="43.9544505040875" lon="12.583150365331404"><ele>53.60000000000001</ele><time>2026-05-04T06:18:02Z</time></trkpt><trkpt lat="43.954416860048596" lon="12.583013486683717"><ele>53.4</ele><time>2026-05-04T06:18:03Z</time></trkpt><trkpt lat="43.95437138945299" lon="12.582875735900412"><ele>53.2</ele><time>2026-05-04T06:18:04Z</time></trkpt><trkpt lat="43.95433251781918" lon="12.582730749268379"><ele>53.0</ele><time>2026-05-04T06:18:05Z</time></trkpt><trkpt lat="43.95429674517567" lon="12.582603282281443"><ele>52.833333333333336</ele><time>2026-05-04T06:18:06Z</time></trkpt><trkpt lat="43.954260836267615" lon="12.582499197943099"><ele>52.66666666666667</ele><time>2026-05-04T06:18:07Z</time></trkpt><trkpt lat="43.954227338565794" lon="12.58242227617648"><ele>52.5</ele><time>2026-05-04T06:18:08Z</time></trkpt><trkpt lat="43.95412686028227" lon="12.582351895085399"><ele>52.33333333333333</ele><time>2026-05-04T06:18:10Z</time></trkpt><trkpt lat="43.95405659151822" lon="12.582354786727613"><ele>52.166666666666664</ele><time>2026-05-04T06:18:11Z</time></trkpt><trkpt lat="43.953970934597066" lon="12.582387888704591"><ele>52.0</ele><time>2026-05-04T06:18:12Z</time></trkpt><trkpt lat="43.95387744587973" lon="12.582427586790315"><ele>52.8</ele><time>2026-05-04T06:18:13Z</time></trkpt><trkpt lat="43.95377880389086" lon="12.58246284129414"><ele>53.6</ele><time>2026-05-04T06:18:14Z</time></trkpt><trkpt lat="43.95367671855754" lon="12.582495634982278"><ele>54.39999999999999</ele><time>2026-05-04T06:18:15Z</time></trkpt><trkpt lat="43.95358641548" lon="12.582526088770633"><ele>55.199999999999996</ele><time>2026-05-04T06:18:16Z</time></trkpt><trkpt lat="43.95350615200869" lon="12.5825718319684"><ele>56.0</ele><time>2026-05-04T06:18:17Z</time></trkpt><trkpt lat="43.95341302165416" lon="12.582635544699652"><ele>57.0</ele><time>2026-05-04T06:18:18Z</time></trkpt><trkpt lat="43.95332927939477" lon="12.582725977474484"><ele>58.0</ele><time>2026-05-04T06:18:19Z</time></trkpt><trkpt lat="43.953238573756664" lon="12.582816192096411"><ele>59.0</ele><time>2026-05-04T06:18:20Z</time></trkpt><trkpt lat="43.95314099817505" lon="12.582907508294104"><ele>60.0</ele><time>2026-05-04T06:18:21Z</time></trkpt><trkpt lat="43.95304498692928" lon="12.583007936099698"><ele>60.5</ele><time>2026-05-04T06:18:22Z</time></trkpt><trkpt lat="43.95295382683675" lon="12.583129152231404"><ele>61.0</ele><time>2026-05-04T06:18:23Z</time></trkpt><trkpt lat="43.952876213603645" lon="12.583259624794948"><ele>61.5</ele><time>2026-05-04T06:18:24Z</time></trkpt><trkpt lat="43.95280311121145" lon="12.583392191858904"><ele>62.0</ele><time>2026-05-04T06:18:25Z</time></trkpt><trkpt lat="43.95273534081263" lon="12.583514967494699"><ele>62.00000000000001</ele><time>2026-05-04T06:18:26Z</time></trkpt><trkpt lat="43.95268134433206" lon="12.58363178609184"><ele>62.0</ele><time>2026-05-04T06:18:27Z</time></trkpt><trkpt lat="43.95264039549107" lon="12.583728506894992"><ele>62.0</ele><time>2026-05-04T06:18:28Z</time></trkpt><trkpt lat="43.95259937731099" lon="12.583826360607947"><ele>62.0</ele><time>2026-05-04T06:18:29Z</time></trkpt><trkpt lat="43.95255769065876" lon="12.583930994981861"><ele>62.00000000000001</ele><time>2026-05-04T06:18:30Z</time></trkpt><trkpt lat="43.95252006342655" lon="12.58404991558786"><ele>62.0</ele><time>2026-05-04T06:18:31Z</time></trkpt><trkpt lat="43.95248971109453" lon="12.584166297712507"><ele>66.0</ele><time>2026-05-04T06:18:32Z</time></trkpt><trkpt lat="43.952447027804794" lon="12.584308094620464"><ele>70.0</ele><time>2026-05-04T06:18:33Z</time></trkpt><trkpt lat="43.95240405697418" lon="12.584472462660566"><ele>74.0</ele><time>2026-05-04T06:18:34Z</time></trkpt><trkpt lat="43.952360960882196" lon="12.584643712156344"><ele>78.0</ele><time>2026-05-04T06:18:35Z</time></trkpt><trkpt lat="43.95231877830941" lon="12.584824513143431"><ele>78.25</ele><time>2026-05-04T06:18:36Z</time></trkpt><trkpt lat="43.952275708724066" lon="12.585010465133266"><ele>78.5</ele><time>2026-05-04T06:18:37Z</time></trkpt><trkpt lat="43.952238564437344" lon="12.585188364736041"><ele>78.75</ele><time>2026-05-04T06:18:38Z</time></trkpt><trkpt lat="43.9522098737459" lon="12.58535750735466"><ele>79.0</ele><time>2026-05-04T06:18:39Z</time></trkpt><trkpt lat="43.952189626174885" lon="12.585518635504656"><ele>80.0</ele><time>2026-05-04T06:18:40Z</time></trkpt><trkpt lat="43.95218227408477" lon="12.585688045797422"><ele>81.0</ele><time>2026-05-04T06:18:41Z</time></trkpt><trkpt lat="43.952182867189435" lon="12.585865002483347"><ele>82.0</ele><time>2026-05-04T06:18:42Z</time></trkpt><trkpt lat="43.952182663035266" lon="12.586041738634687"><ele>83.0</ele><time>2026-05-04T06:18:43Z</time></trkpt><trkpt lat="43.952187874928136" lon="12.58621974962854"><ele>84.5</ele><time>2026-05-04T06:18:44Z</time></trkpt><trkpt lat="43.95219812376694" lon="12.586406812719984"><ele>86.0</ele><time>2026-05-04T06:18:45Z</time></trkpt><trkpt lat="43.95221667691877" lon="12.586590086911283"><ele>87.5</ele><time>2026-05-04T06:18:46Z</time></trkpt><trkpt lat="43.95223551410396" lon="12.586767703641925"><ele>89.0</ele><time>2026-05-04T06:18:47Z</time></trkpt><trkpt lat="43.95225438958673" lon="12.586922182518117"><ele>89.6</ele><time>2026-05-04T06:18:48Z</time></trkpt><trkpt lat="43.952267228823345" lon="12.5870493609102"><ele>90.2</ele><time>2026-05-04T06:18:49Z</time></trkpt><trkpt lat="43.95226621662805" lon="12.587138307609111"><ele>90.8</ele><time>2026-05-04T06:18:50Z</time></trkpt><trkpt lat="43.95227626186467" lon="12.587295829791767"><ele>91.39999999999999</ele><time>2026-05-04T06:18:52Z</time></trkpt><trkpt lat="43.95230270336251" lon="12.587458901258303"><ele>92.0</ele><time>2026-05-04T06:18:54Z</time></trkpt><trkpt lat="43.95230420700371" lon="12.587547977424308"><ele>92.0</ele><time>2026-05-04T06:18:55Z</time></trkpt><trkpt lat="43.95224029262634" lon="12.587506888550855"><ele>92.0</ele><time>2026-05-04T06:18:58Z</time></trkpt><trkpt lat="43.952118028157194" lon="12.587447017015277"><ele>92.0</ele><time>2026-05-04T06:19:00Z</time></trkpt><trkpt lat="43.9520304954201" lon="12.587414659976387"><ele>92.0</ele><time>2026-05-04T06:19:01Z</time></trkpt><trkpt lat="43.95192459962065" lon="12.587409587107299"><ele>92.0</ele><time>2026-05-04T06:19:02Z</time></trkpt><trkpt lat="43.95180669460314" lon="12.587423252788318"><ele>93.0</ele><time>2026-05-04T06:19:03Z</time></trkpt><trkpt lat="43.95169233173907" lon="12.58744525371724"><ele>94.0</ele><time>2026-05-04T06:19:04Z</time></trkpt><trkpt lat="43.951590606661455" lon="12.587477447879559"><ele>95.0</ele><time>2026-05-04T06:19:05Z</time></trkpt><trkpt lat="43.95149205668579" lon="12.587533531421688"><ele>96.0</ele><time>2026-05-04T06:19:06Z</time></trkpt><trkpt lat="43.951398289784315" lon="12.58760824273195"><ele>97.0</ele><time>2026-05-04T06:19:07Z</time></trkpt><trkpt lat="43.951300752348025" lon="12.587688416502393"><ele>97.0</ele><time>2026-05-04T06:19:08Z</time></trkpt><trkpt lat="43.95120566418051" lon="12.587780294844805"><ele>97.0</ele><time>2026-05-04T06:19:09Z</time></trkpt><trkpt lat="43.95110704283899" lon="12.587867562763448"><ele>97.0</ele><time>2026-05-04T06:19:10Z</time></trkpt><trkpt lat="43.95099698422459" lon="12.587948865534207"><ele>97.0</ele><time>2026-05-04T06:19:11Z</time></trkpt><trkpt lat="43.950891890497374" lon="12.588015785049155"><ele>95.75</ele><time>2026-05-04T06:19:12Z</time></trkpt><trkpt lat="43.950779347601106" lon="12.588071579632217"><ele>94.5</ele><time>2026-05-04T06:19:13Z</time></trkpt><trkpt lat="43.95065910815792" lon="12.588121213440758"><ele>93.25</ele><time>2026-05-04T06:19:14Z</time></trkpt><trkpt lat="43.950533285348634" lon="12.588168736125445"><ele>92.0</ele><time>2026-05-04T06:19:15Z</time></trkpt><trkpt lat="43.95042346622696" lon="12.58820697021606"><ele>92.0</ele><time>2026-05-04T06:19:16Z</time></trkpt><trkpt lat="43.950326112777354" lon="12.588247343513249"><ele>92.0</ele><time>2026-05-04T06:19:17Z</time></trkpt><trkpt lat="43.950242780416396" lon="12.588285254653886"><ele>92.0</ele><time>2026-05-04T06:19:18Z</time></trkpt><trkpt lat="43.95016066806396" lon="12.588312631282344"><ele>92.0</ele><time>2026-05-04T06:19:19Z</time></trkpt><trkpt lat="43.95007155662687" lon="12.58831729327762"><ele>92.0</ele><time>2026-05-04T06:19:20Z</time></trkpt><trkpt lat="43.94998664792943" lon="12.588264012615122"><ele>89.5</ele><time>2026-05-04T06:19:21Z</time></trkpt><trkpt lat="43.949892438554926" lon="12.588214552278314"><ele>87.0</ele><time>2026-05-04T06:19:22Z</time></trkpt><trkpt lat="43.94979471327995" lon="12.588147260366156"><ele>84.5</ele><time>2026-05-04T06:19:23Z</time></trkpt><trkpt lat="43.94969073492621" lon="12.588076693940035"><ele>82.0</ele><time>2026-05-04T06:19:24Z</time></trkpt><trkpt lat="43.94957357425606" lon="12.58801474968553"><ele>82.0</ele><time>2026-05-04T06:19:25Z</time></trkpt><trkpt lat="43.94945244604483" lon="12.58794167271046"><ele>82.0</ele><time>2026-05-04T06:19:26Z</time></trkpt><trkpt lat="43.949327051822316" lon="12.587876577114145"><ele>82.0</ele><time>2026-05-04T06:19:27Z</time></trkpt><trkpt lat="43.94921644523366" lon="12.587801925122866"><ele>82.0</ele><time>2026-05-04T06:19:28Z</time></trkpt><trkpt lat="43.949109341867214" lon="12.58772623121549"><ele>79.25</ele><time>2026-05-04T06:19:29Z</time></trkpt><trkpt lat="43.94901227943719" lon="12.587652506095015"><ele>76.5</ele><time>2026-05-04T06:19:30Z</time></trkpt><trkpt lat="43.94890732595352" lon="12.587584966107016"><ele>73.75</ele><time>2026-05-04T06:19:31Z</time></trkpt><trkpt lat="43.948788856891746" lon="12.587491771385944"><ele>71.0</ele><time>2026-05-04T06:19:32Z</time></trkpt><trkpt lat="43.948671168796345" lon="12.587385508558107"><ele>71.0</ele><time>2026-05-04T06:19:33Z</time></trkpt><trkpt lat="43.9485515486483" lon="12.587268308134716"><ele>71.0</ele><time>2026-05-04T06:19:34Z</time></trkpt><trkpt lat="43.948438319947286" lon="12.58715721540601"><ele>71.0</ele><time>2026-05-04T06:19:35Z</time></trkpt><trkpt lat="43.948327842839625" lon="12.587052080108668"><ele>71.0</ele><time>2026-05-04T06:19:36Z</time></trkpt><trkpt lat="43.94823459670165" lon="12.586932665540635"><ele>68.6</ele><time>2026-05-04T06:19:37Z</time></trkpt><trkpt lat="43.94813651360205" lon="12.586853080950819"><ele>66.19999999999999</ele><time>2026-05-04T06:19:38Z</time></trkpt><trkpt lat="43.948062329403136" lon="12.586747352053631"><ele>63.800000000000004</ele><time>2026-05-04T06:19:39Z</time></trkpt><trkpt lat="43.94802680423465" lon="12.586611557800612"><ele>61.400000000000006</ele><time>2026-05-04T06:19:40Z</time></trkpt><trkpt lat="43.948011681775164" lon="12.586465219054931"><ele>59.0</ele><time>2026-05-04T06:19:41Z</time></trkpt><trkpt lat="43.948000406408696" lon="12.586315226007217"><ele>58.0</ele><time>2026-05-04T06:19:42Z</time></trkpt><trkpt lat="43.94798136697734" lon="12.586156536835976"><ele>57.0</ele><time>2026-05-04T06:19:43Z</time></trkpt><trkpt lat="43.94792780340786" lon="12.585996346343268"><ele>56.0</ele><time>2026-05-04T06:19:44Z</time></trkpt><trkpt lat="43.94786719792478" lon="12.585842229789307"><ele>55.0</ele><time>2026-05-04T06:19:45Z</time></trkpt><trkpt lat="43.947791657507224" lon="12.58569773515856"><ele>55.0</ele><time>2026-05-04T06:19:46Z</time></trkpt><trkpt lat="43.94770505207561" lon="12.585543873328996"><ele>55.0</ele><time>2026-05-04T06:19:47Z</time></trkpt><trkpt lat="43.94763198403294" lon="12.585378479230164"><ele>55.0</ele><time>2026-05-04T06:19:48Z</time></trkpt><trkpt lat="43.94752801205854" lon="12.585236479850353"><ele>55.0</ele><time>2026-05-04T06:19:49Z</time></trkpt><trkpt lat="43.947439387456456" lon="12.585089472856264"><ele>54.5</ele><time>2026-05-04T06:19:50Z</time></trkpt><trkpt lat="43.94735696426099" lon="12.584950942964864"><ele>54.0</ele><time>2026-05-04T06:19:51Z</time></trkpt><trkpt lat="43.94727634527142" lon="12.584814655542504"><ele>53.5</ele><time>2026-05-04T06:19:52Z</time></trkpt><trkpt lat="43.94719745898927" lon="12.584681169257095"><ele>53.0</ele><time>2026-05-04T06:19:53Z</time></trkpt><trkpt lat="43.94712250155481" lon="12.584549250863315"><ele>53.4</ele><time>2026-05-04T06:19:54Z</time></trkpt><trkpt lat="43.94706412809442" lon="12.584418702642395"><ele>53.8</ele><time>2026-05-04T06:19:55Z</time></trkpt><trkpt lat="43.947026612771005" lon="12.584295651417316"><ele>54.2</ele><time>2026-05-04T06:19:56Z</time></trkpt><trkpt lat="43.947009228381724" lon="12.584178720293128"><ele>54.6</ele><time>2026-05-04T06:19:57Z</time></trkpt><trkpt lat="43.94702850359399" lon="12.58406032692923"><ele>55.0</ele><time>2026-05-04T06:19:58Z</time></trkpt><trkpt lat="43.94704953574626" lon="12.583933184231897"><ele>55.0</ele><time>2026-05-04T06:19:59Z</time></trkpt><trkpt lat="43.947086326127696" lon="12.583845135867794"><ele>55.0</ele><time>2026-05-04T06:20:00Z</time></trkpt><trkpt lat="43.947145236323976" lon="12.58372915666452"><ele>55.0</ele><time>2026-05-04T06:20:01Z</time></trkpt><trkpt lat="43.94721529991235" lon="12.583598684745848"><ele>55.0</ele><time>2026-05-04T06:20:02Z</time></trkpt><trkpt lat="43.9472947458246" lon="12.583454618660989"><ele>55.0</ele><time>2026-05-04T06:20:03Z</time></trkpt><trkpt lat="43.94737984586804" lon="12.583300299227483"><ele>55.33333333333333</ele><time>2026-05-04T06:20:04Z</time></trkpt><trkpt lat="43.94746929099461" lon="12.583138100639452"><ele>55.66666666666667</ele><time>2026-05-04T06:20:05Z</time></trkpt><trkpt lat="43.94754701234441" lon="12.582947678353815"><ele>56.0</ele><time>2026-05-04T06:20:06Z</time></trkpt><trkpt lat="43.94765552962273" lon="12.582787331961478"><ele>54.333333333333336</ele><time>2026-05-04T06:20:07Z</time></trkpt><trkpt lat="43.94775661275912" lon="12.582619021192137"><ele>52.66666666666667</ele><time>2026-05-04T06:20:08Z</time></trkpt><trkpt lat="43.94785532056457" lon="12.582451254419562"><ele>51.0</ele><time>2026-05-04T06:20:09Z</time></trkpt><trkpt lat="43.947948815388685" lon="12.582279507807183"><ele>51.0</ele><time>2026-05-04T06:20:10Z</time></trkpt><trkpt lat="43.94803093812231" lon="12.582106969668615"><ele>51.0</ele><time>2026-05-04T06:20:11Z</time></trkpt><trkpt lat="43.94811063897166" lon="12.581933825213651"><ele>51.0</ele><time>2026-05-04T06:20:12Z</time></trkpt><trkpt lat="43.94817861204428" lon="12.581775322889289"><ele>51.0</ele><time>2026-05-04T06:20:13Z</time></trkpt><trkpt lat="43.94821972111218" lon="12.581634581553494"><ele>52.199999999999996</ele><time>2026-05-04T06:20:14Z</time></trkpt><trkpt lat="43.9482478059136" lon="12.581515904762679"><ele>53.4</ele><time>2026-05-04T06:20:15Z</time></trkpt><trkpt lat="43.94824739775902" lon="12.581394333433266"><ele>54.6</ele><time>2026-05-04T06:20:16Z</time></trkpt><trkpt lat="43.94820576332142" lon="12.581261904875392"><ele>55.8</ele><time>2026-05-04T06:20:17Z</time></trkpt><trkpt lat="43.94813540809728" lon="12.581133625138456"><ele>57.0</ele><time>2026-05-04T06:20:18Z</time></trkpt><trkpt lat="43.94804841169461" lon="12.581008133296551"><ele>58.75</ele><time>2026-05-04T06:20:19Z</time></trkpt><trkpt lat="43.94795453640384" lon="12.580896018932565"><ele>60.5</ele><time>2026-05-04T06:20:20Z</time></trkpt><trkpt lat="43.947865131909744" lon="12.58076607459513"><ele>62.25</ele><time>2026-05-04T06:20:21Z</time></trkpt><trkpt lat="43.94776491906684" lon="12.580633007837813"><ele>64.0</ele><time>2026-05-04T06:20:22Z</time></trkpt><trkpt lat="43.947675099636655" lon="12.580498795542946"><ele>64.0</ele><time>2026-05-04T06:20:23Z</time></trkpt><trkpt lat="43.94758663109342" lon="12.58038564291233"><ele>64.0</ele><time>2026-05-04T06:20:24Z</time></trkpt><trkpt lat="43.947499858371195" lon="12.580298955047484"><ele>64.0</ele><time>2026-05-04T06:20:25Z</time></trkpt><trkpt lat="43.94741496079774" lon="12.580244867843703"><ele>64.0</ele><time>2026-05-04T06:20:26Z</time></trkpt><trkpt lat="43.947329936359885" lon="12.58021595409475"><ele>64.0</ele><time>2026-05-04T06:20:27Z</time></trkpt><trkpt lat="43.94724939387697" lon="12.580179061649776"><ele>65.5</ele><time>2026-05-04T06:20:28Z</time></trkpt><trkpt lat="43.94713640648878" lon="12.58027127580267"><ele>67.0</ele><time>2026-05-04T06:20:29Z</time></trkpt><trkpt lat="43.94703443903625" lon="12.580328400613844"><ele>68.5</ele><time>2026-05-04T06:20:30Z</time></trkpt><trkpt lat="43.946920519399235" lon="12.580368301170571"><ele>70.0</ele><time>2026-05-04T06:20:31Z</time></trkpt><trkpt lat="43.946798649028494" lon="12.580397404269256"><ele>72.25</ele><time>2026-05-04T06:20:32Z</time></trkpt><trkpt lat="43.94667562959747" lon="12.580419281919747"><ele>74.5</ele><time>2026-05-04T06:20:33Z</time></trkpt><trkpt lat="43.946552472720526" lon="12.580420876647954"><ele>76.75</ele><time>2026-05-04T06:20:34Z</time></trkpt><trkpt lat="43.94642882102156" lon="12.580442822191948"><ele>79.0</ele><time>2026-05-04T06:20:35Z</time></trkpt><trkpt lat="43.94630661523582" lon="12.580464511070089"><ele>79.0</ele><time>2026-05-04T06:20:36Z</time></trkpt><trkpt lat="43.94619613834524" lon="12.580504060470163"><ele>79.0</ele><time>2026-05-04T06:20:37Z</time></trkpt><trkpt lat="43.946055191459514" lon="12.580525701537093"><ele>79.0</ele><time>2026-05-04T06:20:38Z</time></trkpt><trkpt lat="43.94593037710354" lon="12.58055488401468"><ele>79.0</ele><time>2026-05-04T06:20:39Z</time></trkpt><trkpt lat="43.945808325506" lon="12.580577424105375"><ele>80.75</ele><time>2026-05-04T06:20:40Z</time></trkpt><trkpt lat="43.945684167983" lon="12.580587315284323"><ele>82.5</ele><time>2026-05-04T06:20:41Z</time></trkpt><trkpt lat="43.94556767206207" lon="12.580560362439103"><ele>84.25</ele><time>2026-05-04T06:20:42Z</time></trkpt><trkpt lat="43.945449230958744" lon="12.580536362623368"><ele>86.0</ele><time>2026-05-04T06:20:43Z</time></trkpt><trkpt lat="43.94532898935994" lon="12.580500216948463"><ele>86.0</ele><time>2026-05-04T06:20:44Z</time></trkpt><trkpt lat="43.94520435111699" lon="12.580471909087539"><ele>86.0</ele><time>2026-05-04T06:20:45Z</time></trkpt><trkpt lat="43.94508344838365" lon="12.580429098017477"><ele>86.0</ele><time>2026-05-04T06:20:46Z</time></trkpt><trkpt lat="43.94495788174231" lon="12.580383707135498"><ele>86.0</ele><time>2026-05-04T06:20:47Z</time></trkpt><trkpt lat="43.94482284557006" lon="12.580380902601366"><ele>87.4</ele><time>2026-05-04T06:20:48Z</time></trkpt><trkpt lat="43.94471210350208" lon="12.58036916159061"><ele>88.8</ele><time>2026-05-04T06:20:49Z</time></trkpt><trkpt lat="43.94459971585336" lon="12.580327715598182"><ele>90.2</ele><time>2026-05-04T06:20:50Z</time></trkpt><trkpt lat="43.94449060117819" lon="12.580291119390756"><ele>91.60000000000001</ele><time>2026-05-04T06:20:51Z</time></trkpt><trkpt lat="43.9443876130304" lon="12.580245516134344"><ele>93.0</ele><time>2026-05-04T06:20:52Z</time></trkpt><trkpt lat="43.94428000402692" lon="12.580196607574296"><ele>96.5</ele><time>2026-05-04T06:20:53Z</time></trkpt><trkpt lat="43.94415839521324" lon="12.580142696065108"><ele>100.0</ele><time>2026-05-04T06:20:54Z</time></trkpt><trkpt lat="43.94403422190821" lon="12.580091436758188"><ele>103.5</ele><time>2026-05-04T06:20:55Z</time></trkpt><trkpt lat="43.943909426297836" lon="12.580041809207135"><ele>107.0</ele><time>2026-05-04T06:20:56Z</time></trkpt><trkpt lat="43.943779199397305" lon="12.579990152547566"><ele>107.0</ele><time>2026-05-04T06:20:57Z</time></trkpt><trkpt lat="43.94365005480731" lon="12.579938925177151"><ele>107.0</ele><time>2026-05-04T06:20:58Z</time></trkpt><trkpt lat="43.943517538559625" lon="12.579886042243492"><ele>107.0</ele><time>2026-05-04T06:20:59Z</time></trkpt><trkpt lat="43.943382809763584" lon="12.57982902944914"><ele>107.0</ele><time>2026-05-04T06:21:00Z</time></trkpt><trkpt lat="43.943255990008794" lon="12.579773001283137"><ele>109.25</ele><time>2026-05-04T06:21:01Z</time></trkpt><trkpt lat="43.943135580283176" lon="12.579722968137764"><ele>111.5</ele><time>2026-05-04T06:21:02Z</time></trkpt><trkpt lat="43.94302310602516" lon="12.579687886980613"><ele>113.75</ele><time>2026-05-04T06:21:03Z</time></trkpt><trkpt lat="43.942918378330546" lon="12.579687323655822"><ele>116.0</ele><time>2026-05-04T06:21:04Z</time></trkpt><trkpt lat="43.94281263047978" lon="12.579676808361317"><ele>116.0</ele><time>2026-05-04T06:21:05Z</time></trkpt><trkpt lat="43.942708632600066" lon="12.579679505343611"><ele>116.0</ele><time>2026-05-04T06:21:06Z</time></trkpt><trkpt lat="43.94260014290541" lon="12.579701271036669"><ele>116.0</ele><time>2026-05-04T06:21:07Z</time></trkpt><trkpt lat="43.942497926960925" lon="12.579716224986988"><ele>116.0</ele><time>2026-05-04T06:21:08Z</time></trkpt><trkpt lat="43.94240203224813" lon="12.579744437903647"><ele>116.0</ele><time>2026-05-04T06:21:09Z</time></trkpt><trkpt lat="43.9423097404278" lon="12.579764972333301"><ele>116.99999999999999</ele><time>2026-05-04T06:21:10Z</time></trkpt><trkpt lat="43.942239610927146" lon="12.579761501957167"><ele>118.0</ele><time>2026-05-04T06:21:11Z</time></trkpt><trkpt lat="43.94217873631818" lon="12.579795288978294"><ele>119.0</ele><time>2026-05-04T06:21:12Z</time></trkpt><trkpt lat="43.94211454556687" lon="12.579809177686945"><ele>120.0</ele><time>2026-05-04T06:22:35Z</time></trkpt><trkpt lat="43.9420457195511" lon="12.57982315374962"><ele>120.99999999999999</ele><time>2026-05-04T06:22:40Z</time></trkpt><trkpt lat="43.94194634847322" lon="12.579829936307435"><ele>122.0</ele><time>2026-05-04T06:22:41Z</time></trkpt><trkpt lat="43.94183017013868" lon="12.579835903092363"><ele>122.0</ele><time>2026-05-04T06:22:42Z</time></trkpt><trkpt lat="43.94191112726606" lon="12.579867136206259"><ele>121.99999999999999</ele><time>2026-05-04T06:22:43Z</time></trkpt><trkpt lat="43.94181240944661" lon="12.579888462293239"><ele>121.99999999999999</ele><time>2026-05-04T06:22:44Z</time></trkpt><trkpt lat="43.941701483732295" lon="12.579925790007895"><ele>122.0</ele><time>2026-05-04T06:22:45Z</time></trkpt><trkpt lat="43.94157572882045" lon="12.579968195323413"><ele>122.0</ele><time>2026-05-04T06:22:46Z</time></trkpt><trkpt lat="43.94143266357559" lon="12.580022749437697"><ele>123.0</ele><time>2026-05-04T06:22:47Z</time></trkpt><trkpt lat="43.94127893460751" lon="12.580070691869475"><ele>124.0</ele><time>2026-05-04T06:22:48Z</time></trkpt><trkpt lat="43.94112083305988" lon="12.580125107089854"><ele>125.0</ele><time>2026-05-04T06:22:49Z</time></trkpt><trkpt lat="43.940958928405074" lon="12.580183047930165"><ele>124.75</ele><time>2026-05-04T06:22:50Z</time></trkpt><trkpt lat="43.94081477285723" lon="12.58020231184018"><ele>124.5</ele><time>2026-05-04T06:22:51Z</time></trkpt><trkpt lat="43.94068679599262" lon="12.58023402636047"><ele>124.25</ele><time>2026-05-04T06:22:52Z</time></trkpt><trkpt lat="43.9405631165393" lon="12.580256785930949"><ele>124.0</ele><time>2026-05-04T06:22:53Z</time></trkpt><trkpt lat="43.94043843997099" lon="12.580307502401773"><ele>124.0</ele><time>2026-05-04T06:22:54Z</time></trkpt><trkpt lat="43.94031919288819" lon="12.580337894661717"><ele>124.0</ele><time>2026-05-04T06:22:55Z</time></trkpt><trkpt lat="43.94020048479988" lon="12.580360854638666"><ele>124.0</ele><time>2026-05-04T06:22:56Z</time></trkpt><trkpt lat="43.94007719548426" lon="12.580391568530432"><ele>124.0</ele><time>2026-05-04T06:22:57Z</time></trkpt><trkpt lat="43.9399521207341" lon="12.580437975510913"><ele>122.75</ele><time>2026-05-04T06:22:58Z</time></trkpt><trkpt lat="43.939818939210554" lon="12.580502826981466"><ele>121.5</ele><time>2026-05-04T06:22:59.001Z</time></trkpt><trkpt lat="43.9396836324013" lon="12.580572290606815"><ele>120.25</ele><time>2026-05-04T06:23:00.001Z</time></trkpt><trkpt lat="43.939546087822954" lon="12.580642408803751"><ele>119.0</ele><time>2026-05-04T06:23:01.001Z</time></trkpt><trkpt lat="43.93941029861734" lon="12.580712204087943"><ele>119.0</ele><time>2026-05-04T06:23:02.001Z</time></trkpt><trkpt lat="43.93928208020085" lon="12.58075976804817"><ele>119.0</ele><time>2026-05-04T06:23:03.001Z</time></trkpt><trkpt lat="43.939152437659146" lon="12.580789748602053"><ele>119.0</ele><time>2026-05-04T06:23:04.001Z</time></trkpt><trkpt lat="43.939025201329976" lon="12.580814670511199"><ele>119.0</ele><time>2026-05-04T06:23:05.001Z</time></trkpt><trkpt lat="43.93891688591254" lon="12.580822026835698"><ele>119.5</ele><time>2026-05-04T06:23:06.001Z</time></trkpt><trkpt lat="43.93881706490007" lon="12.580763239604648"><ele>120.0</ele><time>2026-05-04T06:23:07.001Z</time></trkpt><trkpt lat="43.93870222233449" lon="12.580700835894895"><ele>120.5</ele><time>2026-05-04T06:23:08.001Z</time></trkpt><trkpt lat="43.93857864912026" lon="12.580651316932496"><ele>121.0</ele><time>2026-05-04T06:23:09.001Z</time></trkpt><trkpt lat="43.93844580505689" lon="12.580626189397357"><ele>122.25</ele><time>2026-05-04T06:23:10.001Z</time></trkpt><trkpt lat="43.93831387148307" lon="12.580573137376355"><ele>123.5</ele><time>2026-05-04T06:23:11.001Z</time></trkpt><trkpt lat="43.938177995748134" lon="12.580525409565087"><ele>124.75</ele><time>2026-05-04T06:23:12.001Z</time></trkpt><trkpt lat="43.938040680042164" lon="12.580488630566549"><ele>126.0</ele><time>2026-05-04T06:23:13.001Z</time></trkpt><trkpt lat="43.93791438207292" lon="12.580435159568612"><ele>126.0</ele><time>2026-05-04T06:23:14.001Z</time></trkpt><trkpt lat="43.93778391903348" lon="12.58040217421915"><ele>126.0</ele><time>2026-05-04T06:23:15.001Z</time></trkpt><trkpt lat="43.93764558626719" lon="12.580370785428416"><ele>126.0</ele><time>2026-05-04T06:23:16.001Z</time></trkpt><trkpt lat="43.937517571875816" lon="12.580353396412104"><ele>126.0</ele><time>2026-05-04T06:23:17.001Z</time></trkpt><trkpt lat="43.93738723934894" lon="12.580337888779578"><ele>126.25</ele><time>2026-05-04T06:23:18.001Z</time></trkpt><trkpt lat="43.93725432587083" lon="12.58033460866403"><ele>126.5</ele><time>2026-05-04T06:23:19.001Z</time></trkpt><trkpt lat="43.9371152787685" lon="12.58034479050286"><ele>126.75</ele><time>2026-05-04T06:23:20.001Z</time></trkpt><trkpt lat="43.9369710525389" lon="12.58036606458188"><ele>127.0</ele><time>2026-05-04T06:23:21.001Z</time></trkpt><trkpt lat="43.936816917973175" lon="12.580399356101424"><ele>128.66666666666669</ele><time>2026-05-04T06:23:22.001Z</time></trkpt><trkpt lat="43.93666544576264" lon="12.580437432219242"><ele>130.33333333333334</ele><time>2026-05-04T06:23:23.001Z</time></trkpt><trkpt lat="43.93651816745521" lon="12.580473219514353"><ele>132.0</ele><time>2026-05-04T06:23:24Z</time></trkpt><trkpt lat="43.936368053328614" lon="12.580512821869155"><ele>132.0</ele><time>2026-05-04T06:23:25Z</time></trkpt><trkpt lat="43.93621685997169" lon="12.580543591447476"><ele>132.0</ele><time>2026-05-04T06:23:26Z</time></trkpt><trkpt lat="43.936065518279996" lon="12.58056708352187"><ele>132.0</ele><time>2026-05-04T06:23:27Z</time></trkpt><trkpt lat="43.93591266103851" lon="12.580592929169928"><ele>133.0</ele><time>2026-05-04T06:23:28Z</time></trkpt><trkpt lat="43.9357668554912" lon="12.580614993331949"><ele>134.0</ele><time>2026-05-04T06:23:29Z</time></trkpt><trkpt lat="43.935619204918645" lon="12.580635150221152"><ele>135.0</ele><time>2026-05-04T06:23:30Z</time></trkpt><trkpt lat="43.935466632122676" lon="12.58066785603731"><ele>136.0</ele><time>2026-05-04T06:23:31Z</time></trkpt><trkpt lat="43.93530260366375" lon="12.580707714686971"><ele>136.0</ele><time>2026-05-04T06:23:32Z</time></trkpt><trkpt lat="43.935136330487886" lon="12.580755401050371"><ele>136.0</ele><time>2026-05-04T06:23:33Z</time></trkpt><trkpt lat="43.93499943352461" lon="12.58078847535228"><ele>136.0</ele><time>2026-05-04T06:23:34Z</time></trkpt><trkpt lat="43.934871449404774" lon="12.580826516097655"><ele>136.0</ele><time>2026-05-04T06:23:35Z</time></trkpt><trkpt lat="43.9347513803131" lon="12.580847063320581"><ele>136.25</ele><time>2026-05-04T06:23:36Z</time></trkpt><trkpt lat="43.934634561839864" lon="12.58081066057247"><ele>136.5</ele><time>2026-05-04T06:23:37Z</time></trkpt><trkpt lat="43.93451070450701" lon="12.580816228628404"><ele>136.75</ele><time>2026-05-04T06:23:38Z</time></trkpt><trkpt lat="43.93437704234618" lon="12.580788042007189"><ele>137.0</ele><time>2026-05-04T06:23:39Z</time></trkpt><trkpt lat="43.93423626209418" lon="12.580763766900905"><ele>139.33333333333331</ele><time>2026-05-04T06:23:40Z</time></trkpt><trkpt lat="43.93407821012537" lon="12.580751198153248"><ele>141.66666666666666</ele><time>2026-05-04T06:23:41Z</time></trkpt><trkpt lat="43.93392651722096" lon="12.580730328982183"><ele>144.0</ele><time>2026-05-04T06:23:42Z</time></trkpt><trkpt lat="43.93378726520863" lon="12.580710092784688"><ele>144.0</ele><time>2026-05-04T06:23:43Z</time></trkpt><trkpt lat="43.93365044131178" lon="12.580716293373344"><ele>144.0</ele><time>2026-05-04T06:23:44Z</time></trkpt><trkpt lat="43.93350286940823" lon="12.580702881358864"><ele>144.0</ele><time>2026-05-04T06:23:45Z</time></trkpt><trkpt lat="43.93335170576104" lon="12.580692794139178"><ele>144.0</ele><time>2026-05-04T06:23:46Z</time></trkpt><trkpt lat="43.93319103412088" lon="12.580686448654905"><ele>145.33333333333334</ele><time>2026-05-04T06:23:47Z</time></trkpt><trkpt lat="43.93303500011914" lon="12.580680360760619"><ele>146.66666666666669</ele><time>2026-05-04T06:23:48Z</time></trkpt><trkpt lat="43.93287571665236" lon="12.580678141164231"><ele>148.0</ele><time>2026-05-04T06:23:49Z</time></trkpt><trkpt lat="43.93273542294647" lon="12.580674528274905"><ele>148.0</ele><time>2026-05-04T06:23:50Z</time></trkpt><trkpt lat="43.93258843301936" lon="12.580676317141068"><ele>148.0</ele><time>2026-05-04T06:23:51Z</time></trkpt><trkpt lat="43.93244089295567" lon="12.580684797490173"><ele>148.0</ele><time>2026-05-04T06:23:52Z</time></trkpt><trkpt lat="43.93229182911214" lon="12.580703190802268"><ele>148.0</ele><time>2026-05-04T06:23:53Z</time></trkpt><trkpt lat="43.93213955352051" lon="12.580732237851969"><ele>148.5</ele><time>2026-05-04T06:23:54Z</time></trkpt><trkpt lat="43.932009696346924" lon="12.580759151298258"><ele>149.0</ele><time>2026-05-04T06:23:55Z</time></trkpt><trkpt lat="43.931875745224346" lon="12.580758857270308"><ele>149.5</ele><time>2026-05-04T06:23:56Z</time></trkpt><trkpt lat="43.9317549722751" lon="12.580768545087011"><ele>150.0</ele><time>2026-05-04T06:23:57Z</time></trkpt><trkpt lat="43.931634277015476" lon="12.580774433998002"><ele>151.2</ele><time>2026-05-04T06:23:58Z</time></trkpt><trkpt lat="43.93152160351191" lon="12.58078834639978"><ele>152.4</ele><time>2026-05-04T06:23:59Z</time></trkpt><trkpt lat="43.931430941232385" lon="12.580828467834808"><ele>153.6</ele><time>2026-05-04T06:24:00Z</time></trkpt><trkpt lat="43.93136950635834" lon="12.580853344784803"><ele>154.8</ele><time>2026-05-04T06:24:01Z</time></trkpt><trkpt lat="43.931306609539156" lon="12.580835006465268"><ele>156.0</ele><time>2026-05-04T06:24:04Z</time></trkpt><trkpt lat="43.93130683732476" lon="12.580650717933272"><ele>156.0</ele><time>2026-05-04T06:24:07Z</time></trkpt><trkpt lat="43.931306468010284" lon="12.580529132089122"><ele>156.0</ele><time>2026-05-04T06:24:08Z</time></trkpt><trkpt lat="43.93128757447522" lon="12.580437084628176"><ele>156.0</ele><time>2026-05-04T06:24:09Z</time></trkpt><trkpt lat="43.93121868242337" lon="12.580279644198802"><ele>156.0</ele><time>2026-05-04T06:24:11Z</time></trkpt><trkpt lat="43.93113214100507" lon="12.580130525998076"><ele>156.0</ele><time>2026-05-04T06:24:13Z</time></trkpt><trkpt lat="43.931056730888514" lon="12.580030063901637"><ele>156.33333333333334</ele><time>2026-05-04T06:24:15Z</time></trkpt><trkpt lat="43.93101676246988" lon="12.579947324101102"><ele>156.66666666666666</ele><time>2026-05-04T06:24:16Z</time></trkpt><trkpt lat="43.93097769814357" lon="12.579844213042321"><ele>157.0</ele><time>2026-05-04T06:24:17Z</time></trkpt><trkpt lat="43.93093382901922" lon="12.579760224769915"><ele>157.33333333333331</ele><time>2026-05-04T06:24:18Z</time></trkpt><trkpt lat="43.93087928556668" lon="12.579678792389222"><ele>157.66666666666666</ele><time>2026-05-04T06:24:19Z</time></trkpt><trkpt lat="43.93082236279884" lon="12.57959344327092"><ele>158.0</ele><time>2026-05-04T06:24:20Z</time></trkpt><trkpt lat="43.93076320257663" lon="12.5795007520561"><ele>157.0</ele><time>2026-05-04T06:24:21Z</time></trkpt><trkpt lat="43.930700583412666" lon="12.579404932224781"><ele>156.0</ele><time>2026-05-04T06:24:22Z</time></trkpt><trkpt lat="43.9306426823851" lon="12.579307494262169"><ele>155.0</ele><time>2026-05-04T06:24:23Z</time></trkpt><trkpt lat="43.9305858433619" lon="12.579210507697688"><ele>154.0</ele><time>2026-05-04T06:24:24Z</time></trkpt><trkpt lat="43.93053989188668" lon="12.579106862871559"><ele>153.0</ele><time>2026-05-04T06:24:25Z</time></trkpt><trkpt lat="43.930501212131034" lon="12.578993971538672"><ele>153.0</ele><time>2026-05-04T06:24:26Z</time></trkpt><trkpt lat="43.930456739171476" lon="12.578877145476685"><ele>153.0</ele><time>2026-05-04T06:24:27Z</time></trkpt><trkpt lat="43.93041614323998" lon="12.578774521359744"><ele>153.0</ele><time>2026-05-04T06:24:28Z</time></trkpt><trkpt lat="43.93037980274016" lon="12.578670925879177"><ele>153.0</ele><time>2026-05-04T06:24:29Z</time></trkpt><trkpt lat="43.93034584155987" lon="12.578565597834963"><ele>153.0</ele><time>2026-05-04T06:24:30Z</time></trkpt><trkpt lat="43.930346916239" lon="12.578423936535083"><ele>153.0</ele><time>2026-05-04T06:24:32Z</time></trkpt><trkpt lat="43.93045606689868" lon="12.578360160676766"><ele>152.4</ele><time>2026-05-04T06:24:34Z</time></trkpt><trkpt lat="43.93056750818538" lon="12.578319816448024"><ele>151.8</ele><time>2026-05-04T06:24:36Z</time></trkpt><trkpt lat="43.930628657446746" lon="12.578277833361865"><ele>151.2</ele><time>2026-05-04T06:24:37Z</time></trkpt><trkpt lat="43.930693299078854" lon="12.578230350848724"><ele>150.6</ele><time>2026-05-04T06:24:38Z</time></trkpt><trkpt lat="43.93076764532054" lon="12.578184908265035"><ele>150.0</ele><time>2026-05-04T06:24:39Z</time></trkpt><trkpt lat="43.93088263953807" lon="12.57810972395799"><ele>146.6</ele><time>2026-05-04T06:24:41Z</time></trkpt><trkpt lat="43.93099879621303" lon="12.578037663811633"><ele>143.2</ele><time>2026-05-04T06:24:43Z</time></trkpt><trkpt lat="43.93106342492441" lon="12.577993054972"><ele>139.8</ele><time>2026-05-04T06:24:44Z</time></trkpt><trkpt lat="43.93111018484736" lon="12.577912281724643"><ele>136.4</ele><time>2026-05-04T06:24:46Z</time></trkpt><trkpt lat="43.93108291734836" lon="12.577769797932499"><ele>133.0</ele><time>2026-05-04T06:24:48Z</time></trkpt><trkpt lat="43.93105078461427" lon="12.577679604670104"><ele>132.6</ele><time>2026-05-04T06:24:49Z</time></trkpt><trkpt lat="43.93098334697882" lon="12.577566593706715"><ele>132.20000000000002</ele><time>2026-05-04T06:24:51Z</time></trkpt><trkpt lat="43.93088451136768" lon="12.577460882605127"><ele>131.8</ele><time>2026-05-04T06:24:53Z</time></trkpt><trkpt lat="43.93080871882609" lon="12.57740087882113"><ele>131.4</ele><time>2026-05-04T06:24:54Z</time></trkpt><trkpt lat="43.930716596557914" lon="12.577324444702944"><ele>131.0</ele><time>2026-05-04T06:24:55Z</time></trkpt><trkpt lat="43.930619943568765" lon="12.577250582583433"><ele>133.6</ele><time>2026-05-04T06:24:56Z</time></trkpt><trkpt lat="43.93053571080388" lon="12.577155706924819"><ele>136.2</ele><time>2026-05-04T06:24:57Z</time></trkpt><trkpt lat="43.93043188623953" lon="12.577047263371538"><ele>138.8</ele><time>2026-05-04T06:24:58Z</time></trkpt><trkpt lat="43.930336047030984" lon="12.576948151078204"><ele>141.4</ele><time>2026-05-04T06:24:59Z</time></trkpt><trkpt lat="43.93027170879362" lon="12.576884439234062"><ele>144.0</ele><time>2026-05-04T06:25:00Z</time></trkpt><trkpt lat="43.93020982657261" lon="12.576811400975217"><ele>144.33333333333334</ele><time>2026-05-04T06:25:01Z</time></trkpt><trkpt lat="43.930150880953036" lon="12.576744188837884"><ele>144.66666666666666</ele><time>2026-05-04T06:25:02Z</time></trkpt><trkpt lat="43.93009866813339" lon="12.576670392565019"><ele>145.0</ele><time>2026-05-04T06:25:03Z</time></trkpt><trkpt lat="43.93004353843882" lon="12.576579165955202"><ele>145.33333333333331</ele><time>2026-05-04T06:25:04Z</time></trkpt><trkpt lat="43.93004136285849" lon="12.576467721500467"><ele>145.66666666666666</ele><time>2026-05-04T06:25:05.001Z</time></trkpt><trkpt lat="43.92998848608365" lon="12.576372605646721"><ele>146.0</ele><time>2026-05-04T06:25:06.001Z</time></trkpt><trkpt lat="43.92994765780277" lon="12.576296249436254"><ele>148.16666666666666</ele><time>2026-05-04T06:25:07.001Z</time></trkpt><trkpt lat="43.92989707996124" lon="12.576122410700494"><ele>150.33333333333331</ele><time>2026-05-04T06:25:09.001Z</time></trkpt><trkpt lat="43.92986876244895" lon="12.576039028270598"><ele>152.5</ele><time>2026-05-04T06:25:10.001Z</time></trkpt><trkpt lat="43.92982249544534" lon="12.575953906493785"><ele>154.66666666666666</ele><time>2026-05-04T06:25:11.001Z</time></trkpt><trkpt lat="43.929768638143166" lon="12.575878055461553"><ele>156.83333333333334</ele><time>2026-05-04T06:25:12.001Z</time></trkpt><trkpt lat="43.92970441915707" lon="12.575796255457115"><ele>159.0</ele><time>2026-05-04T06:25:13.001Z</time></trkpt><trkpt lat="43.92964294292353" lon="12.575722997335317"><ele>159.0</ele><time>2026-05-04T06:25:14.001Z</time></trkpt><trkpt lat="43.929568136274305" lon="12.575671137241239"><ele>159.0</ele><time>2026-05-04T06:25:15.001Z</time></trkpt><trkpt lat="43.92951366175013" lon="12.575609763908064"><ele>159.0</ele><time>2026-05-04T06:25:16.001Z</time></trkpt><trkpt lat="43.92944007277381" lon="12.575489484860748"><ele>159.0</ele><time>2026-05-04T06:25:18.001Z</time></trkpt><trkpt lat="43.92936781698239" lon="12.575341269922943"><ele>159.0</ele><time>2026-05-04T06:25:20.001Z</time></trkpt><trkpt lat="43.92932037304796" lon="12.57524490257455"><ele>158.0</ele><time>2026-05-04T06:25:21Z</time></trkpt><trkpt lat="43.92925399552823" lon="12.575127256158034"><ele>157.0</ele><time>2026-05-04T06:25:22Z</time></trkpt><trkpt lat="43.929180369959795" lon="12.575008013291399"><ele>156.0</ele><time>2026-05-04T06:25:23Z</time></trkpt><trkpt lat="43.929097118358975" lon="12.574879231486085"><ele>155.0</ele><time>2026-05-04T06:25:24Z</time></trkpt><trkpt lat="43.92901417342629" lon="12.574748799720913"><ele>159.33333333333331</ele><time>2026-05-04T06:25:25Z</time></trkpt><trkpt lat="43.92893016745861" lon="12.574609869682401"><ele>163.66666666666666</ele><time>2026-05-04T06:25:26Z</time></trkpt><trkpt lat="43.92873413251115" lon="12.574315479450165"><ele>168.0</ele><time>2026-05-04T06:25:28Z</time></trkpt><trkpt lat="43.92863414774439" lon="12.57416435112355"><ele>168.0</ele><time>2026-05-04T06:25:29Z</time></trkpt><trkpt lat="43.92855886715321" lon="12.574040971931513"><ele>168.0</ele><time>2026-05-04T06:25:30Z</time></trkpt><trkpt lat="43.92847240993759" lon="12.573912088470541"><ele>168.0</ele><time>2026-05-04T06:25:31Z</time></trkpt><trkpt lat="43.92839125788208" lon="12.5737605878502"><ele>168.0</ele><time>2026-05-04T06:25:32Z</time></trkpt><trkpt lat="43.92830121971092" lon="12.57364326100596"><ele>171.25</ele><time>2026-05-04T06:25:33Z</time></trkpt><trkpt lat="43.92822616962301" lon="12.573507998067143"><ele>174.5</ele><time>2026-05-04T06:25:34Z</time></trkpt><trkpt lat="43.92814562600351" lon="12.573378375422106"><ele>177.75</ele><time>2026-05-04T06:25:35Z</time></trkpt><trkpt lat="43.92804906257017" lon="12.57325150367648"><ele>181.0</ele><time>2026-05-04T06:25:36Z</time></trkpt><trkpt lat="43.92795942464617" lon="12.57312098769872"><ele>181.0</ele><time>2026-05-04T06:25:37Z</time></trkpt><trkpt lat="43.927878388167535" lon="12.572985704599427"><ele>181.0</ele><time>2026-05-04T06:25:38Z</time></trkpt><trkpt lat="43.9277771436493" lon="12.572870280410298"><ele>181.0</ele><time>2026-05-04T06:25:39Z</time></trkpt><trkpt lat="43.927681452809836" lon="12.572747021603151"><ele>181.0</ele><time>2026-05-04T06:25:40Z</time></trkpt><trkpt lat="43.92758843852462" lon="12.572624162364097"><ele>184.75</ele><time>2026-05-04T06:25:41Z</time></trkpt><trkpt lat="43.92751934419211" lon="12.572498164653485"><ele>188.5</ele><time>2026-05-04T06:25:42Z</time></trkpt><trkpt lat="43.92745760691502" lon="12.572384282664126"><ele>192.25</ele><time>2026-05-04T06:25:43Z</time></trkpt><trkpt lat="43.92737626347358" lon="12.572262144603343"><ele>196.0</ele><time>2026-05-04T06:25:44Z</time></trkpt><trkpt lat="43.927313560767644" lon="12.572100036862563"><ele>196.4</ele><time>2026-05-04T06:25:45Z</time></trkpt><trkpt lat="43.927229306458656" lon="12.571974349670235"><ele>196.8</ele><time>2026-05-04T06:25:46Z</time></trkpt><trkpt lat="43.92716582685007" lon="12.571848694007073"><ele>197.20000000000002</ele><time>2026-05-04T06:25:47Z</time></trkpt><trkpt lat="43.92710262554136" lon="12.571730876843898"><ele>197.60000000000002</ele><time>2026-05-04T06:25:48Z</time></trkpt><trkpt lat="43.92703669146769" lon="12.571616345108122"><ele>198.0</ele><time>2026-05-04T06:25:49Z</time></trkpt><trkpt lat="43.926945545491215" lon="12.571534692276698"><ele>198.0</ele><time>2026-05-04T06:25:50Z</time></trkpt><trkpt lat="43.92684525746497" lon="12.57150726625114"><ele>198.0</ele><time>2026-05-04T06:25:51Z</time></trkpt><trkpt lat="43.92674737787753" lon="12.571478478956424"><ele>198.0</ele><time>2026-05-04T06:25:52Z</time></trkpt><trkpt lat="43.92664537886147" lon="12.571470954818675"><ele>198.0</ele><time>2026-05-04T06:25:53Z</time></trkpt><trkpt lat="43.92655046486153" lon="12.571477756225873"><ele>198.0</ele><time>2026-05-04T06:25:54Z</time></trkpt><trkpt lat="43.92645927398442" lon="12.57148898948646"><ele>200.60000000000002</ele><time>2026-05-04T06:25:55Z</time></trkpt><trkpt lat="43.92638684982406" lon="12.571490599742765"><ele>203.20000000000002</ele><time>2026-05-04T06:25:56Z</time></trkpt><trkpt lat="43.92632212250947" lon="12.571513589129504"><ele>205.8</ele><time>2026-05-04T06:25:58Z</time></trkpt><trkpt lat="43.92629670232755" lon="12.571347246085482"><ele>208.4</ele><time>2026-05-04T06:26:00Z</time></trkpt><trkpt lat="43.92631476239881" lon="12.571189486524796"><ele>211.0</ele><time>2026-05-04T06:26:02Z</time></trkpt><trkpt lat="43.92632243012512" lon="12.571082282756366"><ele>211.33333333333331</ele><time>2026-05-04T06:26:03Z</time></trkpt><trkpt lat="43.92631575025633" lon="12.57096294813554"><ele>211.66666666666666</ele><time>2026-05-04T06:26:04Z</time></trkpt><trkpt lat="43.92634140053185" lon="12.570840900079991"><ele>212.0</ele><time>2026-05-04T06:26:05Z</time></trkpt><trkpt lat="43.92635384711475" lon="12.570719550458863"><ele>212.33333333333331</ele><time>2026-05-04T06:26:06Z</time></trkpt><trkpt lat="43.92636905340897" lon="12.570594241057318"><ele>212.66666666666666</ele><time>2026-05-04T06:26:07Z</time></trkpt><trkpt lat="43.92638628402602" lon="12.57047251863597"><ele>213.0</ele><time>2026-05-04T06:26:08Z</time></trkpt><trkpt lat="43.92639369577368" lon="12.570351871856621"><ele>214.0</ele><time>2026-05-04T06:26:09Z</time></trkpt><trkpt lat="43.92642395381283" lon="12.570259317521574"><ele>215.0</ele><time>2026-05-04T06:26:10Z</time></trkpt><trkpt lat="43.92639336312306" lon="12.570078610517319"><ele>216.0</ele><time>2026-05-04T06:26:12Z</time></trkpt><trkpt lat="43.92640562954011" lon="12.569931071526105"><ele>217.0</ele><time>2026-05-04T06:26:14Z</time></trkpt><trkpt lat="43.92638662649713" lon="12.569846628936826"><ele>218.0</ele><time>2026-05-04T06:26:15Z</time></trkpt><trkpt lat="43.92638485455974" lon="12.569724716334436"><ele>218.0</ele><time>2026-05-04T06:26:17Z</time></trkpt><trkpt lat="43.92622193318044" lon="12.569730565537213"><ele>218.0</ele><time>2026-05-04T06:26:18Z</time></trkpt><trkpt lat="43.92614299974419" lon="12.569730940178859"><ele>218.0</ele><time>2026-05-04T06:26:19Z</time></trkpt><trkpt lat="43.92606634955751" lon="12.569732129480577"><ele>218.0</ele><time>2026-05-04T06:26:20Z</time></trkpt><trkpt lat="43.92598989345933" lon="12.569717759682895"><ele>218.0</ele><time>2026-05-04T06:26:21Z</time></trkpt><trkpt lat="43.92590352895568" lon="12.569704535793356"><ele>216.75</ele><time>2026-05-04T06:26:22Z</time></trkpt><trkpt lat="43.925801780374684" lon="12.569695792132764"><ele>215.5</ele><time>2026-05-04T06:26:23Z</time></trkpt><trkpt lat="43.92568903321325" lon="12.569676485541006"><ele>214.25</ele><time>2026-05-04T06:26:24Z</time></trkpt><trkpt lat="43.92556245978108" lon="12.569645379953329"><ele>213.0</ele><time>2026-05-04T06:26:25Z</time></trkpt><trkpt lat="43.92544323039303" lon="12.569606994523236"><ele>213.0</ele><time>2026-05-04T06:26:26Z</time></trkpt><trkpt lat="43.92532404420725" lon="12.569558864693379"><ele>213.0</ele><time>2026-05-04T06:26:27Z</time></trkpt><trkpt lat="43.92521300257505" lon="12.569506087870916"><ele>213.0</ele><time>2026-05-04T06:26:28Z</time></trkpt><trkpt lat="43.925104026506546" lon="12.569442402182315"><ele>213.0</ele><time>2026-05-04T06:26:29Z</time></trkpt><trkpt lat="43.92500283659889" lon="12.569363758384565"><ele>210.5</ele><time>2026-05-04T06:26:30Z</time></trkpt><trkpt lat="43.92489488961811" lon="12.569273294155309"><ele>208.0</ele><time>2026-05-04T06:26:31Z</time></trkpt><trkpt lat="43.92479408051148" lon="12.569186536108496"><ele>205.5</ele><time>2026-05-04T06:26:32Z</time></trkpt><trkpt lat="43.92469840505913" lon="12.569109050239815"><ele>203.0</ele><time>2026-05-04T06:26:33Z</time></trkpt><trkpt lat="43.92460363238678" lon="12.569044053915402"><ele>203.0</ele><time>2026-05-04T06:26:34Z</time></trkpt><trkpt lat="43.92450484491904" lon="12.568990019431558"><ele>203.0</ele><time>2026-05-04T06:26:35Z</time></trkpt><trkpt lat="43.92440363573893" lon="12.568951024558961"><ele>203.0</ele><time>2026-05-04T06:26:36Z</time></trkpt><trkpt lat="43.92429301210982" lon="12.568917775038464"><ele>203.0</ele><time>2026-05-04T06:26:37Z</time></trkpt><trkpt lat="43.9241836369004" lon="12.568882051580378"><ele>203.0</ele><time>2026-05-04T06:26:38Z</time></trkpt><trkpt lat="43.924084140324204" lon="12.568846645478269"><ele>201.2</ele><time>2026-05-04T06:26:39Z</time></trkpt><trkpt lat="43.923991333687155" lon="12.568795954611378"><ele>199.4</ele><time>2026-05-04T06:26:40Z</time></trkpt><trkpt lat="43.92390051240811" lon="12.56872386376955"><ele>197.6</ele><time>2026-05-04T06:26:41Z</time></trkpt><trkpt lat="43.92383278891226" lon="12.56859974040829"><ele>195.79999999999998</ele><time>2026-05-04T06:26:42Z</time></trkpt><trkpt lat="43.923759099195884" lon="12.568467450498465"><ele>194.0</ele><time>2026-05-04T06:26:43Z</time></trkpt><trkpt lat="43.92368048480635" lon="12.568349784221752"><ele>193.75</ele><time>2026-05-04T06:26:44Z</time></trkpt><trkpt lat="43.92361336413781" lon="12.568213853838865"><ele>193.5</ele><time>2026-05-04T06:26:45Z</time></trkpt><trkpt lat="43.92351312977754" lon="12.568096861037752"><ele>193.25</ele><time>2026-05-04T06:26:47Z</time></trkpt><trkpt lat="43.92342482064446" lon="12.568048460791864"><ele>193.0</ele><time>2026-05-04T06:26:48Z</time></trkpt><trkpt lat="43.923311524616196" lon="12.568023294187263"><ele>190.5</ele><time>2026-05-04T06:26:49Z</time></trkpt><trkpt lat="43.92318461912188" lon="12.568021570351045"><ele>188.0</ele><time>2026-05-04T06:26:50Z</time></trkpt><trkpt lat="43.9230468609504" lon="12.5680266546723"><ele>185.5</ele><time>2026-05-04T06:26:51Z</time></trkpt><trkpt lat="43.922905897811354" lon="12.568023922036755"><ele>183.0</ele><time>2026-05-04T06:26:52Z</time></trkpt><trkpt lat="43.92276647903782" lon="12.568020112060458"><ele>183.0</ele><time>2026-05-04T06:26:53Z</time></trkpt><trkpt lat="43.92262861445227" lon="12.568014085041098"><ele>183.0</ele><time>2026-05-04T06:26:54Z</time></trkpt><trkpt lat="43.922506616692395" lon="12.568008623854471"><ele>183.0</ele><time>2026-05-04T06:26:55Z</time></trkpt><trkpt lat="43.92239706387875" lon="12.567992829706993"><ele>183.0</ele><time>2026-05-04T06:26:56Z</time></trkpt><trkpt lat="43.92230272946696" lon="12.567955133402366"><ele>182.8</ele><time>2026-05-04T06:26:57Z</time></trkpt><trkpt lat="43.92223554956749" lon="12.567853192217962"><ele>182.60000000000002</ele><time>2026-05-04T06:26:58Z</time></trkpt><trkpt lat="43.92217034347174" lon="12.567747004778958"><ele>182.39999999999998</ele><time>2026-05-04T06:26:59Z</time></trkpt><trkpt lat="43.92210291462067" lon="12.567624186970358"><ele>182.2</ele><time>2026-05-04T06:27:00Z</time></trkpt><trkpt lat="43.92201903624499" lon="12.567517339286539"><ele>182.0</ele><time>2026-05-04T06:27:01Z</time></trkpt><trkpt lat="43.92194155052357" lon="12.567405281354889"><ele>182.0</ele><time>2026-05-04T06:27:02Z</time></trkpt><trkpt lat="43.921844304423765" lon="12.567296216582749"><ele>182.0</ele><time>2026-05-04T06:27:03Z</time></trkpt><trkpt lat="43.92174301831431" lon="12.567207352093563"><ele>182.0</ele><time>2026-05-04T06:27:04Z</time></trkpt><trkpt lat="43.92167343101193" lon="12.567152603457997"><ele>182.0</ele><time>2026-05-04T06:27:05Z</time></trkpt><trkpt lat="43.921589734225385" lon="12.567100107888175"><ele>182.0</ele><time>2026-05-04T06:27:07Z</time></trkpt><trkpt lat="43.92145446333111" lon="12.567252957086259"><ele>181.0</ele><time>2026-05-04T06:27:11Z</time></trkpt><trkpt lat="43.9213757860634" lon="12.56727105055268"><ele>180.0</ele><time>2026-05-04T06:27:12Z</time></trkpt><trkpt lat="43.92127344568106" lon="12.567325659585142"><ele>179.0</ele><time>2026-05-04T06:27:13Z</time></trkpt><trkpt lat="43.92115715784382" lon="12.567408429649287"><ele>178.0</ele><time>2026-05-04T06:27:14Z</time></trkpt><trkpt lat="43.92104407307868" lon="12.567475245953295"><ele>177.0</ele><time>2026-05-04T06:27:15Z</time></trkpt><trkpt lat="43.92093181888354" lon="12.5675154717545"><ele>174.5</ele><time>2026-05-04T06:27:16Z</time></trkpt><trkpt lat="43.92082055929509" lon="12.56757351555194"><ele>172.0</ele><time>2026-05-04T06:27:17Z</time></trkpt><trkpt lat="43.920710651794074" lon="12.567630853989996"><ele>169.5</ele><time>2026-05-04T06:27:18Z</time></trkpt><trkpt lat="43.92061401554096" lon="12.56770451607644"><ele>167.0</ele><time>2026-05-04T06:27:19Z</time></trkpt><trkpt lat="43.92050652086543" lon="12.56774027130644"><ele>167.0</ele><time>2026-05-04T06:27:20Z</time></trkpt><trkpt lat="43.92041204865861" lon="12.567810921542787"><ele>167.0</ele><time>2026-05-04T06:27:21Z</time></trkpt><trkpt lat="43.92032658482872" lon="12.567851631699938"><ele>167.0</ele><time>2026-05-04T06:27:22Z</time></trkpt><trkpt lat="43.920241900051906" lon="12.567918176362193"><ele>167.0</ele><time>2026-05-04T06:27:23Z</time></trkpt><trkpt lat="43.92016619817516" lon="12.567986725717319"><ele>167.0</ele><time>2026-05-04T06:27:24Z</time></trkpt><trkpt lat="43.920088986032624" lon="12.568047057371542"><ele>165.0</ele><time>2026-05-04T06:27:25Z</time></trkpt><trkpt lat="43.92001112571698" lon="12.568092877333363"><ele>163.0</ele><time>2026-05-04T06:27:26Z</time></trkpt><trkpt lat="43.91993625670498" lon="12.56816338437437"><ele>161.0</ele><time>2026-05-04T06:27:27Z</time></trkpt><trkpt lat="43.919869558599956" lon="12.56824360661112"><ele>159.0</ele><time>2026-05-04T06:27:28Z</time></trkpt><trkpt lat="43.919801614964484" lon="12.56831127949331"><ele>157.0</ele><time>2026-05-04T06:27:29Z</time></trkpt><trkpt lat="43.919698009868036" lon="12.568342313822503"><ele>157.0</ele><time>2026-05-04T06:27:30Z</time></trkpt><trkpt lat="43.91959652292972" lon="12.568382696013005"><ele>157.0</ele><time>2026-05-04T06:27:31Z</time></trkpt><trkpt lat="43.91948766574033" lon="12.568442294431453"><ele>157.0</ele><time>2026-05-04T06:27:32Z</time></trkpt><trkpt lat="43.91937219190472" lon="12.568467427190097"><ele>157.0</ele><time>2026-05-04T06:27:33Z</time></trkpt><trkpt lat="43.91926191974791" lon="12.568517345289084"><ele>154.75</ele><time>2026-05-04T06:27:34Z</time></trkpt><trkpt lat="43.91915145237498" lon="12.568555158039908"><ele>152.5</ele><time>2026-05-04T06:27:35Z</time></trkpt><trkpt lat="43.91904419727668" lon="12.568593279953063"><ele>150.25</ele><time>2026-05-04T06:27:36Z</time></trkpt><trkpt lat="43.91892446831295" lon="12.568636252821957"><ele>148.0</ele><time>2026-05-04T06:27:37Z</time></trkpt><trkpt lat="43.91880865151663" lon="12.56867688609145"><ele>148.20000000000002</ele><time>2026-05-04T06:27:38Z</time></trkpt><trkpt lat="43.9186978895056" lon="12.568716278556073"><ele>148.4</ele><time>2026-05-04T06:27:39Z</time></trkpt><trkpt lat="43.918593743793885" lon="12.568752597508661"><ele>148.60000000000002</ele><time>2026-05-04T06:27:40Z</time></trkpt><trkpt lat="43.9184847025398" lon="12.568746512036444"><ele>148.8</ele><time>2026-05-04T06:27:41Z</time></trkpt><trkpt lat="43.918374138651856" lon="12.568759693461379"><ele>149.0</ele><time>2026-05-04T06:27:42Z</time></trkpt><trkpt lat="43.91827305141685" lon="12.568752508051071"><ele>147.8</ele><time>2026-05-04T06:27:43Z</time></trkpt><trkpt lat="43.918165520031735" lon="12.568752447659213"><ele>146.60000000000002</ele><time>2026-05-04T06:27:44Z</time></trkpt><trkpt lat="43.918066718932884" lon="12.56876793088249"><ele>145.4</ele><time>2026-05-04T06:27:45Z</time></trkpt><trkpt lat="43.91797034689898" lon="12.568792822143537"><ele>144.20000000000002</ele><time>2026-05-04T06:27:46Z</time></trkpt><trkpt lat="43.91789146984462" lon="12.568799466162961"><ele>143.0</ele><time>2026-05-04T06:27:47Z</time></trkpt><trkpt lat="43.91781293844241" lon="12.568800932023672"><ele>143.0</ele><time>2026-05-04T06:27:48Z</time></trkpt><trkpt lat="43.91772477399042" lon="12.568780106938439"><ele>143.0</ele><time>2026-05-04T06:27:50Z</time></trkpt><trkpt lat="43.91766800817632" lon="12.56872800988541"><ele>143.0</ele><time>2026-05-04T06:28:10Z</time></trkpt><trkpt lat="43.917599337436485" lon="12.568687813936256"><ele>143.0</ele><time>2026-05-04T06:28:11Z</time></trkpt><trkpt lat="43.91752464871004" lon="12.568661801843058"><ele>143.0</ele><time>2026-05-04T06:28:12Z</time></trkpt><trkpt lat="43.91744104492543" lon="12.568656477225378"><ele>143.0</ele><time>2026-05-04T06:28:13Z</time></trkpt><trkpt lat="43.91735743517938" lon="12.568681042637623"><ele>142.20000000000002</ele><time>2026-05-04T06:28:14Z</time></trkpt><trkpt lat="43.91727968310946" lon="12.568731309478764"><ele>141.4</ele><time>2026-05-04T06:28:15Z</time></trkpt><trkpt lat="43.917198209129054" lon="12.568797500538631"><ele>140.60000000000002</ele><time>2026-05-04T06:28:16Z</time></trkpt><trkpt lat="43.9170903977664" lon="12.56885952676581"><ele>139.8</ele><time>2026-05-04T06:28:17Z</time></trkpt><trkpt lat="43.916999941567596" lon="12.568961791888848"><ele>139.0</ele><time>2026-05-04T06:28:18Z</time></trkpt><trkpt lat="43.91692966114314" lon="12.568996504052308"><ele>139.0</ele><time>2026-05-04T06:28:19Z</time></trkpt><trkpt lat="43.91686812277267" lon="12.569038558109304"><ele>139.0</ele><time>2026-05-04T06:28:20Z</time></trkpt><trkpt lat="43.916804172242536" lon="12.569061272501356"><ele>139.0</ele><time>2026-05-04T06:28:21Z</time></trkpt><trkpt lat="43.9167065660886" lon="12.568959435187914"><ele>139.0</ele><time>2026-05-04T06:28:23Z</time></trkpt><trkpt lat="43.916646533906736" lon="12.568905504928827"><ele>139.0</ele><time>2026-05-04T06:28:24Z</time></trkpt><trkpt lat="43.91658594654939" lon="12.568817147930403"><ele>139.0</ele><time>2026-05-04T06:28:25Z</time></trkpt><trkpt lat="43.91652928245418" lon="12.568713172019242"><ele>139.0</ele><time>2026-05-04T06:28:26Z</time></trkpt><trkpt lat="43.916494773221665" lon="12.568634961732183"><ele>139.0</ele><time>2026-05-04T06:28:27Z</time></trkpt><trkpt lat="43.91646058223669" lon="12.568557112590085"><ele>139.0</ele><time>2026-05-04T06:28:28Z</time></trkpt><trkpt lat="43.91642214566847" lon="12.568462816610829"><ele>139.0</ele><time>2026-05-04T06:28:31Z</time></trkpt><trkpt lat="43.91619318186757" lon="12.568497899638759"><ele>139.0</ele><time>2026-05-04T06:28:33Z</time></trkpt><trkpt lat="43.9161071833422" lon="12.568495883115197"><ele>139.0</ele><time>2026-05-04T06:28:35Z</time></trkpt><trkpt lat="43.91609172568118" lon="12.568405809467539"><ele>139.0</ele><time>2026-05-04T06:28:48Z</time></trkpt><trkpt lat="43.91605785034606" lon="12.568258350405532"><ele>139.0</ele><time>2026-05-04T06:28:50Z</time></trkpt><trkpt lat="43.91604618185444" lon="12.56811814935972"><ele>139.0</ele><time>2026-05-04T06:28:52Z</time></trkpt><trkpt lat="43.916034630508356" lon="12.567966787359543"><ele>139.0</ele><time>2026-05-04T06:28:54Z</time></trkpt><trkpt lat="43.91600663189063" lon="12.56782390815327"><ele>139.2</ele><time>2026-05-04T06:28:56Z</time></trkpt><trkpt lat="43.91597107228225" lon="12.567684239068901"><ele>139.4</ele><time>2026-05-04T06:28:58Z</time></trkpt><trkpt lat="43.915962346939224" lon="12.567554807793838"><ele>139.6</ele><time>2026-05-04T06:29:00Z</time></trkpt><trkpt lat="43.91596997811313" lon="12.567384628502614"><ele>139.8</ele><time>2026-05-04T06:29:02Z</time></trkpt><trkpt lat="43.91597944125796" lon="12.56728730630266"><ele>140.0</ele><time>2026-05-04T06:29:03Z</time></trkpt><trkpt lat="43.915988394568735" lon="12.567196879109636"><ele>140.0</ele><time>2026-05-04T06:29:04Z</time></trkpt><trkpt lat="43.91596743063106" lon="12.567080358797996"><ele>140.0</ele><time>2026-05-04T06:29:06Z</time></trkpt><trkpt lat="43.91594660533481" lon="12.566961110508409"><ele>140.0</ele><time>2026-05-04T06:29:07Z</time></trkpt><trkpt lat="43.915915371338585" lon="12.566849598830903"><ele>140.0</ele><time>2026-05-04T06:29:08Z</time></trkpt><trkpt lat="43.91588041840048" lon="12.566747579221671"><ele>140.0</ele><time>2026-05-04T06:29:09Z</time></trkpt><trkpt lat="43.91584466607079" lon="12.566662391516266"><ele>140.0</ele><time>2026-05-04T06:29:11Z</time></trkpt><trkpt lat="43.915766888863374" lon="12.566675587322994"><ele>140.33333333333331</ele><time>2026-05-04T06:29:13Z</time></trkpt><trkpt lat="43.915701010635885" lon="12.566685972384933"><ele>140.66666666666666</ele><time>2026-05-04T06:29:15Z</time></trkpt><trkpt lat="43.9156276481547" lon="12.566676712659548"><ele>141.0</ele><time>2026-05-04T06:29:18Z</time></trkpt><trkpt lat="43.91556293767765" lon="12.566651019633673"><ele>141.33333333333334</ele><time>2026-05-04T06:29:20Z</time></trkpt><trkpt lat="43.91548555861516" lon="12.566609489172059"><ele>141.66666666666669</ele><time>2026-05-04T06:29:22Z</time></trkpt><trkpt lat="43.915429218370214" lon="12.56653813313269"><ele>142.0</ele><time>2026-05-04T06:29:25Z</time></trkpt><trkpt lat="43.91533067667428" lon="12.566532839552595"><ele>142.0</ele><time>2026-05-04T06:29:28Z</time></trkpt><trkpt lat="43.915260178755915" lon="12.56654908421334"><ele>142.0</ele><time>2026-05-04T06:29:30Z</time></trkpt><trkpt lat="43.9151632561719" lon="12.566495934896112"><ele>142.0</ele><time>2026-05-04T06:29:32Z</time></trkpt><trkpt lat="43.915104220614765" lon="12.566463127238162"><ele>142.0</ele><time>2026-05-04T06:29:33Z</time></trkpt><trkpt lat="43.91500841733173" lon="12.566402168803393"><ele>142.0</ele><time>2026-05-04T06:29:35Z</time></trkpt><trkpt lat="43.91495703832493" lon="12.566337529635886"><ele>142.0</ele><time>2026-05-04T06:29:37Z</time></trkpt><trkpt lat="43.91491694925019" lon="12.566248011998844"><ele>142.0</ele><time>2026-05-04T06:29:39Z</time></trkpt><trkpt lat="43.91490786518259" lon="12.566099167328233"><ele>142.0</ele><time>2026-05-04T06:29:46Z</time></trkpt><trkpt lat="43.91489440214985" lon="12.565994684971269"><ele>142.0</ele><time>2026-05-04T06:29:47Z</time></trkpt><trkpt lat="43.91488579655927" lon="12.565901682173074"><ele>142.0</ele><time>2026-05-04T06:29:48Z</time></trkpt><trkpt lat="43.91486887918906" lon="12.565764378548117"><ele>142.0</ele><time>2026-05-04T06:29:50Z</time></trkpt><trkpt lat="43.91485827118317" lon="12.565668437416203"><ele>142.0</ele><time>2026-05-04T06:29:53Z</time></trkpt><trkpt lat="43.914830335660014" lon="12.565570700879476"><ele>142.0</ele><time>2026-05-04T06:30:03Z</time></trkpt><trkpt lat="43.91479545983714" lon="12.56547423828285"><ele>142.0</ele><time>2026-05-04T06:30:04Z</time></trkpt><trkpt lat="43.91476252869846" lon="12.565393001903722"><ele>142.0</ele><time>2026-05-04T06:30:05Z</time></trkpt><trkpt lat="43.91472409953118" lon="12.565319114408968"><ele>142.0</ele><time>2026-05-04T06:30:06Z</time></trkpt><trkpt lat="43.914655800388864" lon="12.565212718825922"><ele>142.0</ele><time>2026-05-04T06:30:08Z</time></trkpt><trkpt lat="43.91456899376918" lon="12.565169972037504"><ele>142.0</ele><time>2026-05-04T06:30:28Z</time></trkpt><trkpt lat="43.9145014437121" lon="12.565160409645113"><ele>142.33333333333334</ele><time>2026-05-04T06:30:29Z</time></trkpt><trkpt lat="43.91442547753715" lon="12.565146229747624"><ele>142.66666666666669</ele><time>2026-05-04T06:30:30Z</time></trkpt><trkpt lat="43.914361636369" lon="12.565140891370199"><ele>143.0</ele><time>2026-05-04T06:30:31Z</time></trkpt><trkpt lat="43.914251876501744" lon="12.565198627931519"><ele>143.33333333333334</ele><time>2026-05-04T06:30:33Z</time></trkpt><trkpt lat="43.91418169135877" lon="12.565223925563485"><ele>143.66666666666666</ele><time>2026-05-04T06:30:34Z</time></trkpt><trkpt lat="43.914102492296024" lon="12.565199188113125"><ele>144.0</ele><time>2026-05-04T06:30:35Z</time></trkpt><trkpt lat="43.91403158298984" lon="12.56520144039112"><ele>144.0</ele><time>2026-05-04T06:30:37Z</time></trkpt><trkpt lat="43.91396802665879" lon="12.565158131274293"><ele>144.0</ele><time>2026-05-04T06:30:40Z</time></trkpt><trkpt lat="43.913861058940086" lon="12.56506007507549"><ele>144.0</ele><time>2026-05-04T06:30:42Z</time></trkpt><trkpt lat="43.9137861514404" lon="12.5649836739488"><ele>144.0</ele><time>2026-05-04T06:30:44Z</time></trkpt><trkpt lat="43.91375476260514" lon="12.564896442759624"><ele>144.0</ele><time>2026-05-04T06:30:46Z</time></trkpt><trkpt lat="43.91368167148127" lon="12.564857060767597"><ele>144.0</ele><time>2026-05-04T06:30:49Z</time></trkpt><trkpt lat="43.91363095447278" lon="12.564799605010753"><ele>144.0</ele><time>2026-05-04T06:30:51Z</time></trkpt><trkpt lat="43.91355259047866" lon="12.56474594218239"><ele>144.0</ele><time>2026-05-04T06:30:54Z</time></trkpt><trkpt lat="43.91362492829146" lon="12.564789012768323"><ele>144.0</ele><time>2026-05-04T06:31:19Z</time></trkpt><trkpt lat="43.91368619979326" lon="12.564842183136902"><ele>144.0</ele><time>2026-05-04T06:31:21Z</time></trkpt><trkpt lat="43.91375896210963" lon="12.564890340517822"><ele>144.0</ele><time>2026-05-04T06:31:23Z</time></trkpt><trkpt lat="43.91379372225493" lon="12.564970748097993"><ele>144.0</ele><time>2026-05-04T06:31:26Z</time></trkpt><trkpt lat="43.91385961547516" lon="12.565062519342865"><ele>144.0</ele><time>2026-05-04T06:31:28Z</time></trkpt><trkpt lat="43.913954038758476" lon="12.5651431406085"><ele>144.0</ele><time>2026-05-04T06:31:30Z</time></trkpt><trkpt lat="43.91401587391259" lon="12.565207331480435"><ele>144.0</ele><time>2026-05-04T06:31:33Z</time></trkpt><trkpt lat="43.9140000389869" lon="12.565311643354478"><ele>144.0</ele><time>2026-05-04T06:31:36Z</time></trkpt><trkpt lat="43.91400707354191" lon="12.565402141704801"><ele>144.0</ele><time>2026-05-04T06:31:38Z</time></trkpt><trkpt lat="43.91401013300477" lon="12.565509107199178"><ele>144.0</ele><time>2026-05-04T06:31:40Z</time></trkpt><trkpt lat="43.91399140711893" lon="12.565602267390563"><ele>144.2</ele><time>2026-05-04T06:31:42Z</time></trkpt><trkpt lat="43.913878058569416" lon="12.56556311354734"><ele>144.4</ele><time>2026-05-04T06:31:45Z</time></trkpt><trkpt lat="43.91378459866971" lon="12.565534969301169"><ele>144.6</ele><time>2026-05-04T06:31:46Z</time></trkpt><trkpt lat="43.91366787113806" lon="12.565493608833568"><ele>144.8</ele><time>2026-05-04T06:31:47Z</time></trkpt><trkpt lat="43.91356996144989" lon="12.565451596666676"><ele>145.0</ele><time>2026-05-04T06:31:48Z</time></trkpt><trkpt lat="43.91347635333937" lon="12.5653904784049"><ele>145.2</ele><time>2026-05-04T06:31:49Z</time></trkpt><trkpt lat="43.91340410242966" lon="12.565339098074993"><ele>145.4</ele><time>2026-05-04T06:31:50Z</time></trkpt><trkpt lat="43.91334875558723" lon="12.565264031461803"><ele>145.6</ele><time>2026-05-04T06:31:51Z</time></trkpt><trkpt lat="43.91327779522022" lon="12.565172980681892"><ele>145.8</ele><time>2026-05-04T06:31:52Z</time></trkpt><trkpt lat="43.91318595741485" lon="12.565104836077825"><ele>146.0</ele><time>2026-05-04T06:31:53Z</time></trkpt><trkpt lat="43.91308660911214" lon="12.565031285100243"><ele>146.0</ele><time>2026-05-04T06:31:54Z</time></trkpt><trkpt lat="43.912971651370974" lon="12.564970196945145"><ele>146.0</ele><time>2026-05-04T06:31:55Z</time></trkpt><trkpt lat="43.9128513847056" lon="12.564911948749046"><ele>146.0</ele><time>2026-05-04T06:31:56Z</time></trkpt><trkpt lat="43.91273319999243" lon="12.564846423831145"><ele>146.0</ele><time>2026-05-04T06:31:57Z</time></trkpt><trkpt lat="43.91262145283969" lon="12.564774051392225"><ele>146.2</ele><time>2026-05-04T06:31:58Z</time></trkpt><trkpt lat="43.91251819287314" lon="12.56469426102653"><ele>146.39999999999998</ele><time>2026-05-04T06:31:59Z</time></trkpt><trkpt lat="43.91242879780194" lon="12.564587620659498"><ele>146.6</ele><time>2026-05-04T06:32:00Z</time></trkpt><trkpt lat="43.91235165165108" lon="12.56450404569152"><ele>146.79999999999998</ele><time>2026-05-04T06:32:01Z</time></trkpt><trkpt lat="43.9122744639955" lon="12.564436541332537"><ele>147.0</ele><time>2026-05-04T06:32:02Z</time></trkpt><trkpt lat="43.91219440720719" lon="12.564341694831274"><ele>147.0</ele><time>2026-05-04T06:32:03Z</time></trkpt><trkpt lat="43.91211772310049" lon="12.564212392202228"><ele>147.0</ele><time>2026-05-04T06:32:04Z</time></trkpt><trkpt lat="43.91203601777036" lon="12.564081362767235"><ele>147.0</ele><time>2026-05-04T06:32:05Z</time></trkpt><trkpt lat="43.91196917092927" lon="12.563964231522267"><ele>147.0</ele><time>2026-05-04T06:32:06Z</time></trkpt><trkpt lat="43.91189598966249" lon="12.563839604361291"><ele>147.0</ele><time>2026-05-04T06:32:07Z</time></trkpt><trkpt lat="43.91181924001662" lon="12.563726837484129"><ele>147.0</ele><time>2026-05-04T06:32:08Z</time></trkpt><trkpt lat="43.911746797247105" lon="12.563616193262959"><ele>147.0</ele><time>2026-05-04T06:32:09Z</time></trkpt><trkpt lat="43.91169217568844" lon="12.56347202186554"><ele>147.0</ele><time>2026-05-04T06:32:10Z</time></trkpt><trkpt lat="43.9116309839575" lon="12.563338230044204"><ele>147.25</ele><time>2026-05-04T06:32:11Z</time></trkpt><trkpt lat="43.911569095609494" lon="12.563197374519158"><ele>147.5</ele><time>2026-05-04T06:32:12Z</time></trkpt><trkpt lat="43.91150920659854" lon="12.563069069515109"><ele>147.75</ele><time>2026-05-04T06:32:13Z</time></trkpt><trkpt lat="43.91143666195287" lon="12.562933247972214"><ele>148.0</ele><time>2026-05-04T06:32:14Z</time></trkpt><trkpt lat="43.91133477991853" lon="12.562807931994115"><ele>148.0</ele><time>2026-05-04T06:32:15Z</time></trkpt><trkpt lat="43.91123818071563" lon="12.56266423591802"><ele>148.0</ele><time>2026-05-04T06:32:16Z</time></trkpt><trkpt lat="43.9111426731673" lon="12.562525424455744"><ele>148.0</ele><time>2026-05-04T06:32:17Z</time></trkpt><trkpt lat="43.911055562380916" lon="12.562400437242893"><ele>148.0</ele><time>2026-05-04T06:32:18Z</time></trkpt><trkpt lat="43.910956102715694" lon="12.562255169888422"><ele>148.0</ele><time>2026-05-04T06:32:19Z</time></trkpt><trkpt lat="43.910837379540006" lon="12.562110675097147"><ele>148.0</ele><time>2026-05-04T06:32:20Z</time></trkpt><trkpt lat="43.91077217773743" lon="12.562000827496599"><ele>148.0</ele><time>2026-05-04T06:32:21Z</time></trkpt><trkpt lat="43.910666638929904" lon="12.561864268911494"><ele>148.0</ele><time>2026-05-04T06:32:22Z</time></trkpt><trkpt lat="43.910569470576434" lon="12.561738541539507"><ele>148.0</ele><time>2026-05-04T06:32:23Z</time></trkpt><trkpt lat="43.91047086815612" lon="12.561610362074793"><ele>148.0</ele><time>2026-05-04T06:32:24Z</time></trkpt><trkpt lat="43.91037680623703" lon="12.561490968216443"><ele>148.0</ele><time>2026-05-04T06:32:25Z</time></trkpt><trkpt lat="43.91027469816385" lon="12.561361641069865"><ele>148.0</ele><time>2026-05-04T06:32:26Z</time></trkpt><trkpt lat="43.91016788790485" lon="12.561226131746533"><ele>149.0</ele><time>2026-05-04T06:32:27Z</time></trkpt><trkpt lat="43.91004696873683" lon="12.56109594767543"><ele>150.0</ele><time>2026-05-04T06:32:28Z</time></trkpt><trkpt lat="43.90994863597229" lon="12.560950764226979"><ele>151.0</ele><time>2026-05-04T06:32:29Z</time></trkpt><trkpt lat="43.90983314852744" lon="12.56081900165565"><ele>152.0</ele><time>2026-05-04T06:32:30Z</time></trkpt><trkpt lat="43.909726068833656" lon="12.560675716752598"><ele>152.0</ele><time>2026-05-04T06:32:31Z</time></trkpt><trkpt lat="43.90961925965774" lon="12.560538871222969"><ele>152.0</ele><time>2026-05-04T06:32:32Z</time></trkpt><trkpt lat="43.90951439858877" lon="12.560409725417019"><ele>152.0</ele><time>2026-05-04T06:32:33Z</time></trkpt><trkpt lat="43.9094079249453" lon="12.560270591345892"><ele>152.0</ele><time>2026-05-04T06:32:34Z</time></trkpt><trkpt lat="43.90930749576029" lon="12.560135053295237"><ele>152.5</ele><time>2026-05-04T06:32:35Z</time></trkpt><trkpt lat="43.909210136873135" lon="12.559992478086116"><ele>153.0</ele><time>2026-05-04T06:32:36Z</time></trkpt><trkpt lat="43.90912931233156" lon="12.559855615813715"><ele>153.5</ele><time>2026-05-04T06:32:37Z</time></trkpt><trkpt lat="43.909035658397045" lon="12.559708655904858"><ele>154.0</ele><time>2026-05-04T06:32:38Z</time></trkpt><trkpt lat="43.90895896002353" lon="12.559550865902304"><ele>153.5</ele><time>2026-05-04T06:32:39Z</time></trkpt><trkpt lat="43.90889781457998" lon="12.559392700900384"><ele>153.0</ele><time>2026-05-04T06:32:40Z</time></trkpt><trkpt lat="43.908857256994374" lon="12.559192354999528"><ele>152.5</ele><time>2026-05-04T06:32:41Z</time></trkpt><trkpt lat="43.90880964708341" lon="12.55899756560712"><ele>152.0</ele><time>2026-05-04T06:32:42Z</time></trkpt><trkpt lat="43.90876343104558" lon="12.558801793952256"><ele>152.5</ele><time>2026-05-04T06:32:43Z</time></trkpt><trkpt lat="43.90870656596098" lon="12.55863076819766"><ele>153.0</ele><time>2026-05-04T06:32:44Z</time></trkpt><trkpt lat="43.90868597250035" lon="12.558468487406724"><ele>153.5</ele><time>2026-05-04T06:32:45Z</time></trkpt><trkpt lat="43.90865378054675" lon="12.558317598347118"><ele>154.0</ele><time>2026-05-04T06:32:46Z</time></trkpt><trkpt lat="43.90861799694697" lon="12.55814074882521"><ele>154.0</ele><time>2026-05-04T06:32:47Z</time></trkpt><trkpt lat="43.90857935830539" lon="12.557951913306454"><ele>154.0</ele><time>2026-05-04T06:32:48Z</time></trkpt><trkpt lat="43.908540781991135" lon="12.557763382532618"><ele>154.0</ele><time>2026-05-04T06:32:49Z</time></trkpt><trkpt lat="43.90850189672261" lon="12.557573341638083"><ele>154.0</ele><time>2026-05-04T06:32:50Z</time></trkpt><trkpt lat="43.90846101788548" lon="12.55737355793843"><ele>154.0</ele><time>2026-05-04T06:32:51Z</time></trkpt><trkpt lat="43.90842257716757" lon="12.557189281544492"><ele>154.0</ele><time>2026-05-04T06:32:52Z</time></trkpt><trkpt lat="43.908388050422886" lon="12.557025630894794"><ele>154.0</ele><time>2026-05-04T06:32:53Z</time></trkpt><trkpt lat="43.90835203623136" lon="12.556854930244592"><ele>154.0</ele><time>2026-05-04T06:32:54Z</time></trkpt><trkpt lat="43.908317764155996" lon="12.55669248664728"><ele>154.0</ele><time>2026-05-04T06:32:55Z</time></trkpt><trkpt lat="43.90826776365593" lon="12.556529145061434"><ele>154.0</ele><time>2026-05-04T06:32:56Z</time></trkpt><trkpt lat="43.90824214972409" lon="12.556375432081476"><ele>154.0</ele><time>2026-05-04T06:32:57Z</time></trkpt><trkpt lat="43.90820878455634" lon="12.556225631881121"><ele>154.0</ele><time>2026-05-04T06:32:58Z</time></trkpt><trkpt lat="43.90817110991325" lon="12.556054630058568"><ele>154.25</ele><time>2026-05-04T06:32:59Z</time></trkpt><trkpt lat="43.908128536263625" lon="12.555882199847279"><ele>154.5</ele><time>2026-05-04T06:33:00Z</time></trkpt><trkpt lat="43.90808581554225" lon="12.555706483328727"><ele>154.75</ele><time>2026-05-04T06:33:01Z</time></trkpt><trkpt lat="43.90804394978621" lon="12.555532762026582"><ele>155.0</ele><time>2026-05-04T06:33:02Z</time></trkpt><trkpt lat="43.90800818293321" lon="12.5553703808041"><ele>155.25</ele><time>2026-05-04T06:33:03Z</time></trkpt><trkpt lat="43.90796224657723" lon="12.555191057959664"><ele>155.5</ele><time>2026-05-04T06:33:04Z</time></trkpt><trkpt lat="43.9079231182875" lon="12.555013421134726"><ele>155.75</ele><time>2026-05-04T06:33:05Z</time></trkpt><trkpt lat="43.90788591138649" lon="12.554842115979623"><ele>156.0</ele><time>2026-05-04T06:33:06Z</time></trkpt><trkpt lat="43.90784119334341" lon="12.554669959081963"><ele>156.25</ele><time>2026-05-04T06:33:07Z</time></trkpt><trkpt lat="43.90779695246343" lon="12.55447393494184"><ele>156.5</ele><time>2026-05-04T06:33:08Z</time></trkpt><trkpt lat="43.90775635738312" lon="12.554288961615844"><ele>156.75</ele><time>2026-05-04T06:33:09Z</time></trkpt><trkpt lat="43.90771524040865" lon="12.554099513658436"><ele>157.0</ele><time>2026-05-04T06:33:10Z</time></trkpt><trkpt lat="43.90767466556107" lon="12.553910390342585"><ele>157.0</ele><time>2026-05-04T06:33:11Z</time></trkpt><trkpt lat="43.907634589466305" lon="12.553722253431285"><ele>157.0</ele><time>2026-05-04T06:33:12Z</time></trkpt><trkpt lat="43.907589192569056" lon="12.553536249720947"><ele>157.0</ele><time>2026-05-04T06:33:13Z</time></trkpt><trkpt lat="43.90754804804781" lon="12.553354052572438"><ele>157.0</ele><time>2026-05-04T06:33:14Z</time></trkpt><trkpt lat="43.907504265951566" lon="12.553171195440417"><ele>157.75</ele><time>2026-05-04T06:33:15Z</time></trkpt><trkpt lat="43.90746347831683" lon="12.553007547016787"><ele>158.5</ele><time>2026-05-04T06:33:16Z</time></trkpt><trkpt lat="43.907427455473425" lon="12.552842380612185"><ele>159.25</ele><time>2026-05-04T06:33:17Z</time></trkpt><trkpt lat="43.90739627432238" lon="12.552695843867989"><ele>160.0</ele><time>2026-05-04T06:33:18Z</time></trkpt><trkpt lat="43.907374518092084" lon="12.55255473489493"><ele>160.0</ele><time>2026-05-04T06:33:19Z</time></trkpt><trkpt lat="43.907355305356774" lon="12.552446433128905"><ele>160.0</ele><time>2026-05-04T06:33:20Z</time></trkpt><trkpt lat="43.90733975149672" lon="12.552336546619923"><ele>160.0</ele><time>2026-05-04T06:33:22Z</time></trkpt><trkpt lat="43.907326585382954" lon="12.552241156636962"><ele>160.0</ele><time>2026-05-04T06:33:25Z</time></trkpt><trkpt lat="43.907219696890955" lon="12.552219273887532"><ele>160.0</ele><time>2026-05-04T06:33:26Z</time></trkpt><trkpt lat="43.90714329874615" lon="12.552201157232023"><ele>160.0</ele><time>2026-05-04T06:33:27Z</time></trkpt><trkpt lat="43.907060312325164" lon="12.552182570211482"><ele>160.0</ele><time>2026-05-04T06:33:28Z</time></trkpt><trkpt lat="43.906959654940216" lon="12.552152905370383"><ele>160.0</ele><time>2026-05-04T06:33:29Z</time></trkpt><trkpt lat="43.90684547339846" lon="12.552131889717359"><ele>160.0</ele><time>2026-05-04T06:33:30Z</time></trkpt><trkpt lat="43.906724967472826" lon="12.552120497645541"><ele>160.0</ele><time>2026-05-04T06:33:31Z</time></trkpt><trkpt lat="43.90659904794249" lon="12.552119506884292"><ele>160.5</ele><time>2026-05-04T06:33:32Z</time></trkpt><trkpt lat="43.906470346261145" lon="12.552133533122129"><ele>161.0</ele><time>2026-05-04T06:33:33Z</time></trkpt><trkpt lat="43.9063355951958" lon="12.55215718020172"><ele>161.5</ele><time>2026-05-04T06:33:34Z</time></trkpt><trkpt lat="43.906203032878835" lon="12.55219252351491"><ele>162.0</ele><time>2026-05-04T06:33:35Z</time></trkpt><trkpt lat="43.90607686384198" lon="12.552233256041626"><ele>162.0</ele><time>2026-05-04T06:33:36Z</time></trkpt><trkpt lat="43.90594750905075" lon="12.552273761241073"><ele>162.0</ele><time>2026-05-04T06:33:37Z</time></trkpt><trkpt lat="43.90582251401512" lon="12.55230188581921"><ele>162.0</ele><time>2026-05-04T06:33:38Z</time></trkpt><trkpt lat="43.9056922117121" lon="12.552319191931781"><ele>162.0</ele><time>2026-05-04T06:33:39Z</time></trkpt><trkpt lat="43.90555763901456" lon="12.55229569318405"><ele>163.25</ele><time>2026-05-04T06:33:40Z</time></trkpt><trkpt lat="43.905422664864986" lon="12.552252439118993"><ele>164.5</ele><time>2026-05-04T06:33:41Z</time></trkpt><trkpt lat="43.90528900478165" lon="12.552203831875781"><ele>165.75</ele><time>2026-05-04T06:33:42Z</time></trkpt><trkpt lat="43.90515898403238" lon="12.552160995387768"><ele>167.0</ele><time>2026-05-04T06:33:43Z</time></trkpt><trkpt lat="43.9050308411626" lon="12.552128100948954"><ele>168.0</ele><time>2026-05-04T06:33:44Z</time></trkpt><trkpt lat="43.90492563061336" lon="12.552109415706388"><ele>169.0</ele><time>2026-05-04T06:33:45Z</time></trkpt><trkpt lat="43.904834517895466" lon="12.55212136037529"><ele>170.0</ele><time>2026-05-04T06:33:46Z</time></trkpt><trkpt lat="43.90472724621827" lon="12.552145058295386"><ele>171.0</ele><time>2026-05-04T06:33:47Z</time></trkpt><trkpt lat="43.90462773348228" lon="12.552172612558405"><ele>172.0</ele><time>2026-05-04T06:33:49Z</time></trkpt><trkpt lat="43.904526111216015" lon="12.552222120325304"><ele>172.0</ele><time>2026-05-04T06:33:51Z</time></trkpt><trkpt lat="43.90444237600044" lon="12.552313227096459"><ele>172.0</ele><time>2026-05-04T06:33:53Z</time></trkpt><trkpt lat="43.90436835738644" lon="12.552335841030622"><ele>172.0</ele><time>2026-05-04T06:33:54Z</time></trkpt><trkpt lat="43.904295036989794" lon="12.552322661168622"><ele>172.0</ele><time>2026-05-04T06:33:55Z</time></trkpt><trkpt lat="43.904207256234564" lon="12.552211054163871"><ele>172.0</ele><time>2026-05-04T06:33:57Z</time></trkpt><trkpt lat="43.90418523964974" lon="12.552107902425742"><ele>172.2</ele><time>2026-05-04T06:33:58Z</time></trkpt><trkpt lat="43.90415887874871" lon="12.55200455881398"><ele>172.39999999999998</ele><time>2026-05-04T06:33:59Z</time></trkpt><trkpt lat="43.90417582750284" lon="12.551805195120226"><ele>172.60000000000002</ele><time>2026-05-04T06:34:01Z</time></trkpt><trkpt lat="43.904197544549824" lon="12.551684046789873"><ele>172.8</ele><time>2026-05-04T06:34:02Z</time></trkpt><trkpt lat="43.9042379763192" lon="12.551560992881926"><ele>173.0</ele><time>2026-05-04T06:34:03Z</time></trkpt><trkpt lat="43.90429520668973" lon="12.551468687345805"><ele>173.0</ele><time>2026-05-04T06:34:04Z</time></trkpt><trkpt lat="43.90435224648071" lon="12.551323362906373"><ele>173.0</ele><time>2026-05-04T06:34:05Z</time></trkpt><trkpt lat="43.90441757115109" lon="12.551216147399764"><ele>173.0</ele><time>2026-05-04T06:34:06Z</time></trkpt><trkpt lat="43.90445868407614" lon="12.551110087616358"><ele>173.0</ele><time>2026-05-04T06:34:07Z</time></trkpt><trkpt lat="43.90448811035592" lon="12.551009940401306"><ele>173.0</ele><time>2026-05-04T06:34:08Z</time></trkpt><trkpt lat="43.90448991717028" lon="12.550912993738022"><ele>174.8</ele><time>2026-05-04T06:34:09Z</time></trkpt><trkpt lat="43.90448311622788" lon="12.550818111689185"><ele>176.60000000000002</ele><time>2026-05-04T06:34:10Z</time></trkpt><trkpt lat="43.904444366550464" lon="12.550734102431141"><ele>178.39999999999998</ele><time>2026-05-04T06:34:11Z</time></trkpt><trkpt lat="43.9044329472337" lon="12.550626799761345"><ele>180.2</ele><time>2026-05-04T06:34:13Z</time></trkpt><trkpt lat="43.904320565308076" lon="12.550641576277195"><ele>182.0</ele><time>2026-05-04T06:34:15Z</time></trkpt><trkpt lat="43.904205012811595" lon="12.550603640289431"><ele>183.8</ele><time>2026-05-04T06:34:17Z</time></trkpt><trkpt lat="43.90411183635745" lon="12.550579624251466"><ele>185.6</ele><time>2026-05-04T06:34:18Z</time></trkpt><trkpt lat="43.90400663403241" lon="12.550556872774937"><ele>187.4</ele><time>2026-05-04T06:34:19Z</time></trkpt><trkpt lat="43.903893361065826" lon="12.550537188573449"><ele>189.20000000000002</ele><time>2026-05-04T06:34:20Z</time></trkpt><trkpt lat="43.90376760075027" lon="12.550519726470416"><ele>191.0</ele><time>2026-05-04T06:34:21Z</time></trkpt><trkpt lat="43.903665705583954" lon="12.550489416998463"><ele>191.0</ele><time>2026-05-04T06:34:22Z</time></trkpt><trkpt lat="43.90354025843903" lon="12.55048098118153"><ele>191.0</ele><time>2026-05-04T06:34:23Z</time></trkpt><trkpt lat="43.90341001352593" lon="12.550483939437926"><ele>191.0</ele><time>2026-05-04T06:34:24Z</time></trkpt><trkpt lat="43.903284673475284" lon="12.550496938417682"><ele>191.0</ele><time>2026-05-04T06:34:25Z</time></trkpt><trkpt lat="43.9031610873297" lon="12.550532766828843"><ele>193.8</ele><time>2026-05-04T06:34:26Z</time></trkpt><trkpt lat="43.903047899862194" lon="12.550543650758236"><ele>196.60000000000002</ele><time>2026-05-04T06:34:27Z</time></trkpt><trkpt lat="43.90294547063576" lon="12.550555084680317"><ele>199.4</ele><time>2026-05-04T06:34:28Z</time></trkpt><trkpt lat="43.90283585910751" lon="12.550564136521613"><ele>202.2</ele><time>2026-05-04T06:34:29Z</time></trkpt><trkpt lat="43.90272979622281" lon="12.550570748958052"><ele>205.0</ele><time>2026-05-04T06:34:30Z</time></trkpt><trkpt lat="43.90263244801826" lon="12.5505784624635"><ele>208.16666666666666</ele><time>2026-05-04T06:34:31Z</time></trkpt><trkpt lat="43.90256225012671" lon="12.55058686491951"><ele>211.33333333333331</ele><time>2026-05-04T06:34:32Z</time></trkpt><trkpt lat="43.902469927677664" lon="12.550586296123718"><ele>214.5</ele><time>2026-05-04T06:34:33Z</time></trkpt><trkpt lat="43.90238780862497" lon="12.550571130329807"><ele>217.66666666666669</ele><time>2026-05-04T06:34:35Z</time></trkpt><trkpt lat="43.902298972650414" lon="12.550582894084094"><ele>220.83333333333334</ele><time>2026-05-04T06:34:37Z</time></trkpt><trkpt lat="43.90222793538439" lon="12.550600222495381"><ele>224.0</ele><time>2026-05-04T06:34:40Z</time></trkpt><trkpt lat="43.90214752426794" lon="12.550453956798036"><ele>224.0</ele><time>2026-05-04T06:34:48Z</time></trkpt><trkpt lat="43.90203065327644" lon="12.550396197481321"><ele>223.99999999999997</ele><time>2026-05-04T06:34:50Z</time></trkpt><trkpt lat="43.90194477054682" lon="12.550342300058068"><ele>223.99999999999997</ele><time>2026-05-04T06:34:51Z</time></trkpt><trkpt lat="43.90186922867588" lon="12.550261647009565"><ele>224.0</ele><time>2026-05-04T06:34:52Z</time></trkpt><trkpt lat="43.90177766256533" lon="12.550162791483919"><ele>224.0</ele><time>2026-05-04T06:34:53Z</time></trkpt><trkpt lat="43.9016756479756" lon="12.550063413539311"><ele>227.6</ele><time>2026-05-04T06:34:54Z</time></trkpt><trkpt lat="43.90156809686514" lon="12.549965253176563"><ele>231.2</ele><time>2026-05-04T06:34:55Z</time></trkpt><trkpt lat="43.90147099640653" lon="12.549888172887183"><ele>234.79999999999998</ele><time>2026-05-04T06:34:56Z</time></trkpt><trkpt lat="43.90139257166865" lon="12.549821999396721"><ele>238.39999999999998</ele><time>2026-05-04T06:34:57Z</time></trkpt><trkpt lat="43.90131766120658" lon="12.5497651139343"><ele>242.0</ele><time>2026-05-04T06:34:58Z</time></trkpt><trkpt lat="43.901244542381946" lon="12.549713702047978"><ele>242.00000000000003</ele><time>2026-05-04T06:34:59Z</time></trkpt><trkpt lat="43.90116355012391" lon="12.54966889781987"><ele>242.0</ele><time>2026-05-04T06:35:00Z</time></trkpt><trkpt lat="43.90109231612779" lon="12.549620055141828"><ele>242.0</ele><time>2026-05-04T06:35:01Z</time></trkpt><trkpt lat="43.90100399776704" lon="12.549568318479242"><ele>242.0</ele><time>2026-05-04T06:35:02Z</time></trkpt><trkpt lat="43.900927334563875" lon="12.549522966664272"><ele>242.00000000000003</ele><time>2026-05-04T06:35:03Z</time></trkpt><trkpt lat="43.90086018302946" lon="12.54949511719166"><ele>242.0</ele><time>2026-05-04T06:35:04Z</time></trkpt><trkpt lat="43.90077176651555" lon="12.549481320767194"><ele>245.0</ele><time>2026-05-04T06:35:06Z</time></trkpt><trkpt lat="43.90066261926543" lon="12.549500081189747"><ele>248.0</ele><time>2026-05-04T06:35:08Z</time></trkpt><trkpt lat="43.90054098402589" lon="12.549494877300747"><ele>251.0</ele><time>2026-05-04T06:35:10Z</time></trkpt><trkpt lat="43.90045292028319" lon="12.549484292241283"><ele>254.0</ele><time>2026-05-04T06:35:12Z</time></trkpt><trkpt lat="43.90036749019703" lon="12.549492717694902"><ele>257.0</ele><time>2026-05-04T06:35:18Z</time></trkpt><trkpt lat="43.900241422475105" lon="12.5494818972603"><ele>257.0</ele><time>2026-05-04T06:35:20Z</time></trkpt><trkpt lat="43.900152829448444" lon="12.549492199358127"><ele>257.0</ele><time>2026-05-04T06:35:21Z</time></trkpt><trkpt lat="43.90006491863898" lon="12.549497992861536"><ele>257.0</ele><time>2026-05-04T06:35:22Z</time></trkpt><trkpt lat="43.89997601749691" lon="12.549492977423956"><ele>257.0</ele><time>2026-05-04T06:35:23Z</time></trkpt><trkpt lat="43.89988200101895" lon="12.549479902492525"><ele>257.0</ele><time>2026-05-04T06:35:24Z</time></trkpt><trkpt lat="43.89978841714425" lon="12.549460671918872"><ele>257.42857142857144</ele><time>2026-05-04T06:35:25Z</time></trkpt><trkpt lat="43.89970848608761" lon="12.549438963732118"><ele>257.8571428571429</ele><time>2026-05-04T06:35:26Z</time></trkpt><trkpt lat="43.89964543136669" lon="12.54941108320145"><ele>258.28571428571433</ele><time>2026-05-04T06:35:27Z</time></trkpt><trkpt lat="43.89958333009199" lon="12.549388399732731"><ele>258.7142857142857</ele><time>2026-05-04T06:35:28Z</time></trkpt><trkpt lat="43.89951690707181" lon="12.549351064354001"><ele>259.14285714285717</ele><time>2026-05-04T06:35:29Z</time></trkpt><trkpt lat="43.899443632873286" lon="12.54930488334507"><ele>259.5714285714286</ele><time>2026-05-04T06:35:30Z</time></trkpt><trkpt lat="43.89936654054222" lon="12.549261409053631"><ele>260.0</ele><time>2026-05-04T06:35:31Z</time></trkpt><trkpt lat="43.899284880423025" lon="12.549232703064769"><ele>261.33333333333337</ele><time>2026-05-04T06:35:32Z</time></trkpt><trkpt lat="43.899202537977004" lon="12.549214982067532"><ele>262.6666666666667</ele><time>2026-05-04T06:35:33Z</time></trkpt><trkpt lat="43.89912641684129" lon="12.549197464133224"><ele>264.0</ele><time>2026-05-04T06:35:34Z</time></trkpt><trkpt lat="43.899046135106104" lon="12.549165569139593"><ele>265.3333333333333</ele><time>2026-05-04T06:35:35Z</time></trkpt><trkpt lat="43.8989557051925" lon="12.54913111688192"><ele>266.66666666666663</ele><time>2026-05-04T06:35:36Z</time></trkpt><trkpt lat="43.898883332423885" lon="12.549099317323401"><ele>268.0</ele><time>2026-05-04T06:35:37Z</time></trkpt><trkpt lat="43.89881182061361" lon="12.549066979366122"><ele>268.0</ele><time>2026-05-04T06:35:38Z</time></trkpt><trkpt lat="43.89874580469816" lon="12.54902922874776"><ele>268.0</ele><time>2026-05-04T06:35:39Z</time></trkpt><trkpt lat="43.898672219005654" lon="12.548996781346194"><ele>268.0</ele><time>2026-05-04T06:35:40Z</time></trkpt><trkpt lat="43.89858450816506" lon="12.548966654449702"><ele>268.0</ele><time>2026-05-04T06:35:41Z</time></trkpt><trkpt lat="43.89849085346817" lon="12.548935053157413"><ele>268.0</ele><time>2026-05-04T06:35:42Z</time></trkpt><trkpt lat="43.89839806848613" lon="12.548901758984009"><ele>268.0</ele><time>2026-05-04T06:35:43Z</time></trkpt><trkpt lat="43.898312654151425" lon="12.548874698633636"><ele>269.66666666666663</ele><time>2026-05-04T06:35:44Z</time></trkpt><trkpt lat="43.89822680690277" lon="12.54885252993565"><ele>271.3333333333333</ele><time>2026-05-04T06:35:45Z</time></trkpt><trkpt lat="43.898146956851996" lon="12.548841735742121"><ele>273.0</ele><time>2026-05-04T06:35:46Z</time></trkpt><trkpt lat="43.89806604939741" lon="12.548830965753352"><ele>274.6666666666667</ele><time>2026-05-04T06:35:47Z</time></trkpt><trkpt lat="43.897991413837694" lon="12.548817766447613"><ele>276.33333333333337</ele><time>2026-05-04T06:35:48Z</time></trkpt><trkpt lat="43.89790944987233" lon="12.548790115000854"><ele>278.0</ele><time>2026-05-04T06:35:49Z</time></trkpt><trkpt lat="43.897819601787226" lon="12.548726822061713"><ele>279.5</ele><time>2026-05-04T06:35:50Z</time></trkpt><trkpt lat="43.89775287942" lon="12.548669158934747"><ele>281.0</ele><time>2026-05-04T06:35:51Z</time></trkpt><trkpt lat="43.897685395037485" lon="12.548593135858555"><ele>282.5</ele><time>2026-05-04T06:35:52Z</time></trkpt><trkpt lat="43.8976168218644" lon="12.548508520244495"><ele>284.0</ele><time>2026-05-04T06:35:53Z</time></trkpt><trkpt lat="43.89754262854064" lon="12.548413484812118"><ele>285.5</ele><time>2026-05-04T06:35:54Z</time></trkpt><trkpt lat="43.897475394503616" lon="12.548333686155747"><ele>287.0</ele><time>2026-05-04T06:35:55Z</time></trkpt><trkpt lat="43.89741122864708" lon="12.548256714439"><ele>287.0</ele><time>2026-05-04T06:35:56Z</time></trkpt><trkpt lat="43.89734187625082" lon="12.548183420214572"><ele>287.0</ele><time>2026-05-04T06:35:57Z</time></trkpt><trkpt lat="43.897265489716055" lon="12.54810022429047"><ele>287.0</ele><time>2026-05-04T06:35:58Z</time></trkpt><trkpt lat="43.89720201557796" lon="12.548022796261263"><ele>287.0</ele><time>2026-05-04T06:35:59Z</time></trkpt><trkpt lat="43.897132283757266" lon="12.547941535226945"><ele>287.0</ele><time>2026-05-04T06:36:00Z</time></trkpt><trkpt lat="43.89705749883987" lon="12.547847785794316"><ele>287.2</ele><time>2026-05-04T06:36:01Z</time></trkpt><trkpt lat="43.89690825680966" lon="12.547661548983923"><ele>287.4</ele><time>2026-05-04T06:36:03Z</time></trkpt><trkpt lat="43.8968445060861" lon="12.547578525064335"><ele>287.6</ele><time>2026-05-04T06:36:04Z</time></trkpt><trkpt lat="43.89678822345412" lon="12.547520688539509"><ele>287.8</ele><time>2026-05-04T06:36:05Z</time></trkpt><trkpt lat="43.89673233004797" lon="12.547462408421886"><ele>288.0</ele><time>2026-05-04T06:36:06Z</time></trkpt><trkpt lat="43.89666157627772" lon="12.547397687974986"><ele>291.8</ele><time>2026-05-04T06:36:07Z</time></trkpt><trkpt lat="43.896586666810435" lon="12.547317624908064"><ele>295.6</ele><time>2026-05-04T06:36:08Z</time></trkpt><trkpt lat="43.89650266263699" lon="12.54722599973313"><ele>299.4</ele><time>2026-05-04T06:36:09Z</time></trkpt><trkpt lat="43.89643013502493" lon="12.547150699611883"><ele>303.2</ele><time>2026-05-04T06:36:10Z</time></trkpt><trkpt lat="43.896352340651404" lon="12.547081708869456"><ele>307.0</ele><time>2026-05-04T06:36:11Z</time></trkpt><trkpt lat="43.89629280940697" lon="12.547026816320031"><ele>307.0</ele><time>2026-05-04T06:36:12Z</time></trkpt><trkpt lat="43.89623672892754" lon="12.546979266581596"><ele>307.0</ele><time>2026-05-04T06:36:13Z</time></trkpt><trkpt lat="43.8961490817837" lon="12.546921153619634"><ele>307.0</ele><time>2026-05-04T06:36:15Z</time></trkpt><trkpt lat="43.89605162744931" lon="12.546861410775714"><ele>307.0</ele><time>2026-05-04T06:36:17Z</time></trkpt><trkpt lat="43.89599309046571" lon="12.54682689127126"><ele>307.0</ele><time>2026-05-04T06:36:18Z</time></trkpt><trkpt lat="43.895927259281365" lon="12.546787859659151"><ele>307.0</ele><time>2026-05-04T06:36:19Z</time></trkpt><trkpt lat="43.89582584266764" lon="12.546735724080738"><ele>307.66666666666663</ele><time>2026-05-04T06:36:21Z</time></trkpt><trkpt lat="43.89574551652637" lon="12.546727406026944"><ele>308.3333333333333</ele><time>2026-05-04T06:36:23Z</time></trkpt><trkpt lat="43.89565403662426" lon="12.546724198384936"><ele>309.0</ele><time>2026-05-04T06:36:25Z</time></trkpt><trkpt lat="43.89559098645089" lon="12.546720072532526"><ele>309.6666666666667</ele><time>2026-05-04T06:36:26Z</time></trkpt><trkpt lat="43.89550277797274" lon="12.546718609868412"><ele>310.33333333333337</ele><time>2026-05-04T06:36:27Z</time></trkpt><trkpt lat="43.89540870159647" lon="12.546715452967199"><ele>311.0</ele><time>2026-05-04T06:36:28Z</time></trkpt><trkpt lat="43.89529617965735" lon="12.546718002979487"><ele>311.0</ele><time>2026-05-04T06:36:29Z</time></trkpt><trkpt lat="43.89521863851528" lon="12.546697332353332"><ele>311.0</ele><time>2026-05-04T06:36:30Z</time></trkpt><trkpt lat="43.89516895479016" lon="12.546621873970016"><ele>311.0</ele><time>2026-05-04T06:36:31Z</time></trkpt><trkpt lat="43.89513298598725" lon="12.54653319662801"><ele>311.0</ele><time>2026-05-04T06:36:32Z</time></trkpt><trkpt lat="43.89509842637721" lon="12.546406949577197"><ele>311.0</ele><time>2026-05-04T06:36:34Z</time></trkpt><trkpt lat="43.895032442540305" lon="12.546328787205143"><ele>311.0</ele><time>2026-05-04T06:36:37Z</time></trkpt><trkpt lat="43.894949263389776" lon="12.546245024033109"><ele>311.6</ele><time>2026-05-04T06:36:41Z</time></trkpt><trkpt lat="43.89484158370301" lon="12.546169050498802"><ele>312.20000000000005</ele><time>2026-05-04T06:36:43Z</time></trkpt><trkpt lat="43.894711665163456" lon="12.546159064022985"><ele>312.79999999999995</ele><time>2026-05-04T06:36:45Z</time></trkpt><trkpt lat="43.89462998343623" lon="12.546156891861605"><ele>313.4</ele><time>2026-05-04T06:36:46Z</time></trkpt><trkpt lat="43.894554622095804" lon="12.546167313400865"><ele>314.0</ele><time>2026-05-04T06:36:47Z</time></trkpt><trkpt lat="43.894489106929704" lon="12.546192735343407"><ele>315.6666666666667</ele><time>2026-05-04T06:36:48Z</time></trkpt><trkpt lat="43.89440678591076" lon="12.54623349156425"><ele>317.33333333333337</ele><time>2026-05-04T06:36:50Z</time></trkpt><trkpt lat="43.89429884647488" lon="12.546288746475255"><ele>319.0</ele><time>2026-05-04T06:36:52Z</time></trkpt><trkpt lat="43.894229928074274" lon="12.546311642929894"><ele>320.6666666666667</ele><time>2026-05-04T06:36:53Z</time></trkpt><trkpt lat="43.894153127588964" lon="12.546332788087945"><ele>322.3333333333333</ele><time>2026-05-04T06:36:54Z</time></trkpt><trkpt lat="43.89408544882056" lon="12.546357454896972"><ele>324.0</ele><time>2026-05-04T06:36:55Z</time></trkpt><trkpt lat="43.89398693461807" lon="12.54641641598833"><ele>323.3333333333333</ele><time>2026-05-04T06:36:57Z</time></trkpt><trkpt lat="43.89392449130449" lon="12.546336412820699"><ele>322.6666666666667</ele><time>2026-05-04T06:37:16Z</time></trkpt><trkpt lat="43.89386690931059" lon="12.546298032102339"><ele>322.0</ele><time>2026-05-04T06:37:17Z</time></trkpt><trkpt lat="43.893799812936074" lon="12.54626218144306"><ele>321.33333333333337</ele><time>2026-05-04T06:37:18Z</time></trkpt><trkpt lat="43.89372251803398" lon="12.54622595300786"><ele>320.6666666666667</ele><time>2026-05-04T06:37:19Z</time></trkpt><trkpt lat="43.89363018131529" lon="12.546194253528098"><ele>320.0</ele><time>2026-05-04T06:37:20Z</time></trkpt><trkpt lat="43.893534822964554" lon="12.546176249548447"><ele>321.5</ele><time>2026-05-04T06:37:21Z</time></trkpt><trkpt lat="43.89341711656025" lon="12.54616613662092"><ele>323.0</ele><time>2026-05-04T06:37:22Z</time></trkpt><trkpt lat="43.893298838799836" lon="12.546156606984285"><ele>324.5</ele><time>2026-05-04T06:37:23Z</time></trkpt><trkpt lat="43.89316267574838" lon="12.546144045141537"><ele>326.0</ele><time>2026-05-04T06:37:24Z</time></trkpt><trkpt lat="43.89304084251642" lon="12.546131067085824"><ele>326.0</ele><time>2026-05-04T06:37:25Z</time></trkpt><trkpt lat="43.892936234276014" lon="12.546123274404868"><ele>326.0</ele><time>2026-05-04T06:37:26Z</time></trkpt><trkpt lat="43.8928324938187" lon="12.546113208684286"><ele>326.0</ele><time>2026-05-04T06:37:27Z</time></trkpt><trkpt lat="43.892724777345556" lon="12.546087011561037"><ele>326.0</ele><time>2026-05-04T06:37:28Z</time></trkpt><trkpt lat="43.89262585369794" lon="12.546040308280867"><ele>326.0</ele><time>2026-05-04T06:37:29Z</time></trkpt><trkpt lat="43.89252284609127" lon="12.54598318657172"><ele>326.20000000000005</ele><time>2026-05-04T06:37:30Z</time></trkpt><trkpt lat="43.892427029339686" lon="12.545932080979977"><ele>326.40000000000003</ele><time>2026-05-04T06:37:31Z</time></trkpt><trkpt lat="43.89234065210873" lon="12.545886412485444"><ele>326.6</ele><time>2026-05-04T06:37:32Z</time></trkpt><trkpt lat="43.89227365817152" lon="12.54583485028049"><ele>326.8</ele><time>2026-05-04T06:37:33Z</time></trkpt><trkpt lat="43.892205495976526" lon="12.545767659975654"><ele>327.0</ele><time>2026-05-04T06:37:35Z</time></trkpt><trkpt lat="43.892114037480695" lon="12.545718814708248"><ele>327.0</ele><time>2026-05-04T06:39:17Z</time></trkpt><trkpt lat="43.89204704690493" lon="12.545683972677194"><ele>327.0</ele><time>2026-05-04T06:39:18Z</time></trkpt><trkpt lat="43.89193483235081" lon="12.545617751271976"><ele>327.0</ele><time>2026-05-04T06:39:20Z</time></trkpt><trkpt lat="43.8918494786733" lon="12.54554033000817"><ele>327.0</ele><time>2026-05-04T06:39:22Z</time></trkpt><trkpt lat="43.89178576520378" lon="12.545469897232287"><ele>327.0</ele><time>2026-05-04T06:39:23Z</time></trkpt><trkpt lat="43.891714329004955" lon="12.545386204093507"><ele>326.3333333333333</ele><time>2026-05-04T06:39:24Z</time></trkpt><trkpt lat="43.89165638604879" lon="12.545304298442499"><ele>325.6666666666667</ele><time>2026-05-04T06:39:25Z</time></trkpt><trkpt lat="43.891606870468614" lon="12.545216525038215"><ele>325.0</ele><time>2026-05-04T06:39:26Z</time></trkpt><trkpt lat="43.89156497328307" lon="12.545118514347246"><ele>324.33333333333337</ele><time>2026-05-04T06:39:27Z</time></trkpt><trkpt lat="43.89153096034174" lon="12.54503866834478"><ele>323.6666666666667</ele><time>2026-05-04T06:39:28Z</time></trkpt><trkpt lat="43.89149244377053" lon="12.544945844380198"><ele>323.0</ele><time>2026-05-04T06:39:29Z</time></trkpt><trkpt lat="43.891459694079224" lon="12.544859543792851"><ele>323.0</ele><time>2026-05-04T06:39:30Z</time></trkpt><trkpt lat="43.891431614531164" lon="12.544773328220199"><ele>323.0</ele><time>2026-05-04T06:39:31Z</time></trkpt><trkpt lat="43.89141366045436" lon="12.544666476346922"><ele>323.0</ele><time>2026-05-04T06:39:32Z</time></trkpt><trkpt lat="43.89137429310449" lon="12.544574681832264"><ele>323.0</ele><time>2026-05-04T06:39:33Z</time></trkpt><trkpt lat="43.89134226546562" lon="12.544472864119529"><ele>323.0</ele><time>2026-05-04T06:39:34Z</time></trkpt><trkpt lat="43.8913058254961" lon="12.544383281133323"><ele>323.0</ele><time>2026-05-04T06:39:35Z</time></trkpt><trkpt lat="43.89126189244086" lon="12.54430187668624"><ele>321.5</ele><time>2026-05-04T06:39:36Z</time></trkpt><trkpt lat="43.891209117432496" lon="12.544226852110137"><ele>320.0</ele><time>2026-05-04T06:39:37Z</time></trkpt><trkpt lat="43.89115366336226" lon="12.544168880904996"><ele>318.5</ele><time>2026-05-04T06:39:38Z</time></trkpt><trkpt lat="43.8910952543042" lon="12.544115967856525"><ele>317.0</ele><time>2026-05-04T06:39:39Z</time></trkpt><trkpt lat="43.891031282432024" lon="12.544061313255899"><ele>315.5</ele><time>2026-05-04T06:39:40Z</time></trkpt><trkpt lat="43.89096019632294" lon="12.544005084741212"><ele>314.0</ele><time>2026-05-04T06:39:41Z</time></trkpt><trkpt lat="43.89089080294245" lon="12.543940868993133"><ele>313.6666666666667</ele><time>2026-05-04T06:39:42Z</time></trkpt><trkpt lat="43.89081709842037" lon="12.543871978872179"><ele>313.33333333333337</ele><time>2026-05-04T06:39:43Z</time></trkpt><trkpt lat="43.89075206150888" lon="12.543801968982041"><ele>313.0</ele><time>2026-05-04T06:39:44Z</time></trkpt><trkpt lat="43.8906839666368" lon="12.543730820825195"><ele>312.6666666666667</ele><time>2026-05-04T06:39:45Z</time></trkpt><trkpt lat="43.89062891624463" lon="12.543676115659704"><ele>312.3333333333333</ele><time>2026-05-04T06:39:46Z</time></trkpt><trkpt lat="43.89057409834739" lon="12.54362776924174"><ele>312.0</ele><time>2026-05-04T06:39:47Z</time></trkpt><trkpt lat="43.890503489622" lon="12.543585044653074"><ele>310.0</ele><time>2026-05-04T06:39:48Z</time></trkpt><trkpt lat="43.89044303140155" lon="12.543556436597555"><ele>308.0</ele><time>2026-05-04T06:39:49Z</time></trkpt><trkpt lat="43.89036572416833" lon="12.543544374446872"><ele>306.0</ele><time>2026-05-04T06:39:50Z</time></trkpt><trkpt lat="43.8902726151543" lon="12.543524550511847"><ele>304.0</ele><time>2026-05-04T06:39:51Z</time></trkpt><trkpt lat="43.890166143108985" lon="12.5435197754194"><ele>302.0</ele><time>2026-05-04T06:39:52Z</time></trkpt><trkpt lat="43.890055889473715" lon="12.543514857385343"><ele>302.0</ele><time>2026-05-04T06:39:53Z</time></trkpt><trkpt lat="43.889946195281794" lon="12.543519628004047"><ele>302.0</ele><time>2026-05-04T06:39:54Z</time></trkpt><trkpt lat="43.88985960175643" lon="12.54351687658347"><ele>302.0</ele><time>2026-05-04T06:39:55Z</time></trkpt><trkpt lat="43.889764069159035" lon="12.543515843825343"><ele>302.0</ele><time>2026-05-04T06:39:56Z</time></trkpt><trkpt lat="43.889675547379085" lon="12.543511351765254"><ele>302.0</ele><time>2026-05-04T06:39:57Z</time></trkpt><trkpt lat="43.88958360925619" lon="12.54349401084623"><ele>302.0</ele><time>2026-05-04T06:39:58Z</time></trkpt><trkpt lat="43.88948528610323" lon="12.543472918763097"><ele>302.0</ele><time>2026-05-04T06:39:59Z</time></trkpt><trkpt lat="43.88940605964936" lon="12.543451738173097"><ele>302.0</ele><time>2026-05-04T06:40:00Z</time></trkpt><trkpt lat="43.88933087966485" lon="12.543433001837382"><ele>302.0</ele><time>2026-05-04T06:40:01Z</time></trkpt><trkpt lat="43.88926494727213" lon="12.543419260631463"><ele>302.0</ele><time>2026-05-04T06:40:02Z</time></trkpt><trkpt lat="43.889162020819" lon="12.543375649363933"><ele>302.0</ele><time>2026-05-04T06:40:06Z</time></trkpt><trkpt lat="43.889101306359606" lon="12.54332939931199"><ele>301.0</ele><time>2026-05-04T06:40:07Z</time></trkpt><trkpt lat="43.88905796219606" lon="12.543258905302912"><ele>300.0</ele><time>2026-05-04T06:40:09Z</time></trkpt><trkpt lat="43.8890282180131" lon="12.543126134973146"><ele>299.0</ele><time>2026-05-04T06:40:11Z</time></trkpt><trkpt lat="43.88900676828149" lon="12.543033468554167"><ele>298.0</ele><time>2026-05-04T06:40:12Z</time></trkpt><trkpt lat="43.88893658048993" lon="12.542920137531754"><ele>297.0</ele><time>2026-05-04T06:40:14Z</time></trkpt><trkpt lat="43.888824723873896" lon="12.542840254429297"><ele>295.75</ele><time>2026-05-04T06:40:16Z</time></trkpt><trkpt lat="43.88874598141521" lon="12.542784893814417"><ele>294.5</ele><time>2026-05-04T06:40:17Z</time></trkpt><trkpt lat="43.88863953450498" lon="12.542717493242177"><ele>293.25</ele><time>2026-05-04T06:40:18Z</time></trkpt><trkpt lat="43.88852283544391" lon="12.542657088388916"><ele>292.0</ele><time>2026-05-04T06:40:19Z</time></trkpt><trkpt lat="43.888403337644725" lon="12.542615813018624"><ele>294.4</ele><time>2026-05-04T06:40:20Z</time></trkpt><trkpt lat="43.888278005403514" lon="12.542576381897868"><ele>296.79999999999995</ele><time>2026-05-04T06:40:21Z</time></trkpt><trkpt lat="43.8881372910398" lon="12.542522383883629"><ele>299.2</ele><time>2026-05-04T06:40:22Z</time></trkpt><trkpt lat="43.88804121676666" lon="12.542482289646212"><ele>301.59999999999997</ele><time>2026-05-04T06:40:23Z</time></trkpt><trkpt lat="43.887976272513946" lon="12.542481634828135"><ele>304.0</ele><time>2026-05-04T06:40:24Z</time></trkpt><trkpt lat="43.88790210476086" lon="12.54247839480059"><ele>304.0</ele><time>2026-05-04T06:40:26Z</time></trkpt><trkpt lat="43.88779543407316" lon="12.542449059447556"><ele>304.0</ele><time>2026-05-04T06:40:28Z</time></trkpt><trkpt lat="43.88772133376941" lon="12.542430431346581"><ele>304.0</ele><time>2026-05-04T06:40:29Z</time></trkpt><trkpt lat="43.88765101801432" lon="12.542413386036033"><ele>304.0</ele><time>2026-05-04T06:40:30Z</time></trkpt><trkpt lat="43.887586447256886" lon="12.542392307583693"><ele>304.0</ele><time>2026-05-04T06:40:31Z</time></trkpt><trkpt lat="43.88752223429562" lon="12.542366068690395"><ele>304.0</ele><time>2026-05-04T06:40:32Z</time></trkpt><trkpt lat="43.88741818328572" lon="12.542309929425953"><ele>303.4</ele><time>2026-05-04T06:40:34Z</time></trkpt><trkpt lat="43.88733375490138" lon="12.542178870560287"><ele>302.79999999999995</ele><time>2026-05-04T06:40:36Z</time></trkpt><trkpt lat="43.887271647399444" lon="12.542066556609184"><ele>302.20000000000005</ele><time>2026-05-04T06:40:37Z</time></trkpt><trkpt lat="43.887217635073455" lon="12.541978575367319"><ele>301.6</ele><time>2026-05-04T06:40:38Z</time></trkpt><trkpt lat="43.88715305173708" lon="12.541913821073704"><ele>301.0</ele><time>2026-05-04T06:40:39Z</time></trkpt><trkpt lat="43.88709334705439" lon="12.541862527463998"><ele>301.0</ele><time>2026-05-04T06:40:40Z</time></trkpt><trkpt lat="43.88703357692152" lon="12.541805810317932"><ele>301.0</ele><time>2026-05-04T06:40:41Z</time></trkpt><trkpt lat="43.88695316129171" lon="12.541734826793597"><ele>301.0</ele><time>2026-05-04T06:40:42Z</time></trkpt><trkpt lat="43.88688769987598" lon="12.541658954880319"><ele>301.0</ele><time>2026-05-04T06:40:43Z</time></trkpt><trkpt lat="43.88684118490045" lon="12.54159110383075"><ele>301.0</ele><time>2026-05-04T06:40:44Z</time></trkpt><trkpt lat="43.88679485581392" lon="12.541507949150828"><ele>301.0</ele><time>2026-05-04T06:40:45Z</time></trkpt><trkpt lat="43.88675979850179" lon="12.541407400626726"><ele>298.0</ele><time>2026-05-04T06:40:46Z</time></trkpt><trkpt lat="43.886713342002466" lon="12.541279245033023"><ele>295.0</ele><time>2026-05-04T06:40:47Z</time></trkpt><trkpt lat="43.8866779766635" lon="12.541167285818174"><ele>292.0</ele><time>2026-05-04T06:40:48Z</time></trkpt><trkpt lat="43.886630499597054" lon="12.541065942847302"><ele>289.0</ele><time>2026-05-04T06:40:49Z</time></trkpt><trkpt lat="43.886569149567364" lon="12.540970284892976"><ele>286.0</ele><time>2026-05-04T06:40:50Z</time></trkpt><trkpt lat="43.88650563424897" lon="12.540889381118028"><ele>286.0</ele><time>2026-05-04T06:40:51Z</time></trkpt><trkpt lat="43.88643783249032" lon="12.54079950843583"><ele>286.0</ele><time>2026-05-04T06:40:52Z</time></trkpt><trkpt lat="43.88637689241353" lon="12.540715878249099"><ele>286.0</ele><time>2026-05-04T06:40:53Z</time></trkpt><trkpt lat="43.886310051260864" lon="12.540622806727537"><ele>286.0</ele><time>2026-05-04T06:40:54Z</time></trkpt><trkpt lat="43.88623352315439" lon="12.540504943813806"><ele>286.0</ele><time>2026-05-04T06:40:55Z</time></trkpt><trkpt lat="43.88616763782146" lon="12.540373150899915"><ele>285.2</ele><time>2026-05-04T06:40:56Z</time></trkpt><trkpt lat="43.886101167068645" lon="12.54023223914275"><ele>284.40000000000003</ele><time>2026-05-04T06:40:57Z</time></trkpt><trkpt lat="43.88603157324627" lon="12.540105656561316"><ele>283.6</ele><time>2026-05-04T06:40:58Z</time></trkpt><trkpt lat="43.885977546145035" lon="12.540012920411435"><ele>282.8</ele><time>2026-05-04T06:40:59Z</time></trkpt><trkpt lat="43.885915465148074" lon="12.539932452747271"><ele>282.0</ele><time>2026-05-04T06:41:00Z</time></trkpt><trkpt lat="43.88583198293666" lon="12.539859276306146"><ele>282.0</ele><time>2026-05-04T06:41:01Z</time></trkpt><trkpt lat="43.88572926367454" lon="12.539786879882923"><ele>282.0</ele><time>2026-05-04T06:41:02Z</time></trkpt><trkpt lat="43.88561333758948" lon="12.539714156264385"><ele>282.0</ele><time>2026-05-04T06:41:03Z</time></trkpt><trkpt lat="43.885469446032054" lon="12.539638489610729"><ele>282.0</ele><time>2026-05-04T06:41:04Z</time></trkpt><trkpt lat="43.88529722929547" lon="12.539556312579116"><ele>281.5</ele><time>2026-05-04T06:41:05Z</time></trkpt><trkpt lat="43.885151307425055" lon="12.539493299672833"><ele>281.0</ele><time>2026-05-04T06:41:06Z</time></trkpt><trkpt lat="43.88503504686589" lon="12.539429114615439"><ele>280.5</ele><time>2026-05-04T06:41:07Z</time></trkpt><trkpt lat="43.88493798637284" lon="12.539370915633896"><ele>280.0</ele><time>2026-05-04T06:41:08Z</time></trkpt><trkpt lat="43.884836715747674" lon="12.539310320151781"><ele>280.0</ele><time>2026-05-04T06:41:09Z</time></trkpt><trkpt lat="43.884744362999925" lon="12.539256776235392"><ele>280.0</ele><time>2026-05-04T06:41:10Z</time></trkpt><trkpt lat="43.88466299174502" lon="12.53921258822804"><ele>280.0</ele><time>2026-05-04T06:41:11Z</time></trkpt><trkpt lat="43.88459906737858" lon="12.539181855428748"><ele>280.0</ele><time>2026-05-04T06:41:12Z</time></trkpt><trkpt lat="43.884540061917086" lon="12.539126825631252"><ele>280.0</ele><time>2026-05-04T06:41:15Z</time></trkpt><trkpt lat="43.88454635717538" lon="12.53902296250868"><ele>280.0</ele><time>2026-05-04T06:41:17Z</time></trkpt><trkpt lat="43.88456711254306" lon="12.538871381099964"><ele>277.8</ele><time>2026-05-04T06:41:19Z</time></trkpt><trkpt lat="43.88459714026455" lon="12.538711601417361"><ele>275.6</ele><time>2026-05-04T06:41:21Z</time></trkpt><trkpt lat="43.88459729880291" lon="12.538541321361823"><ele>273.4</ele><time>2026-05-04T06:41:23Z</time></trkpt><trkpt lat="43.88459734867233" lon="12.538378324082304"><ele>271.2</ele><time>2026-05-04T06:41:25Z</time></trkpt><trkpt lat="43.884616057470744" lon="12.538285696872077"><ele>269.0</ele><time>2026-05-04T06:41:26Z</time></trkpt><trkpt lat="43.884638162374635" lon="12.538175046232974"><ele>269.0</ele><time>2026-05-04T06:41:27Z</time></trkpt><trkpt lat="43.884651059623856" lon="12.53805773819831"><ele>269.0</ele><time>2026-05-04T06:41:28Z</time></trkpt><trkpt lat="43.88464800855049" lon="12.537929774641267"><ele>269.0</ele><time>2026-05-04T06:41:29Z</time></trkpt><trkpt lat="43.884628378359764" lon="12.537799825389728"><ele>269.0</ele><time>2026-05-04T06:41:30Z</time></trkpt><trkpt lat="43.88458413305002" lon="12.537671483778617"><ele>269.0</ele><time>2026-05-04T06:41:31Z</time></trkpt><trkpt lat="43.88452074492255" lon="12.53755470725779"><ele>267.75</ele><time>2026-05-04T06:41:32Z</time></trkpt><trkpt lat="43.88444101774767" lon="12.537442947174855"><ele>266.5</ele><time>2026-05-04T06:41:33Z</time></trkpt><trkpt lat="43.88435522099029" lon="12.537326910415855"><ele>265.25</ele><time>2026-05-04T06:41:34Z</time></trkpt><trkpt lat="43.884274906929704" lon="12.537182520255776"><ele>264.0</ele><time>2026-05-04T06:41:35Z</time></trkpt><trkpt lat="43.884183937671324" lon="12.537053133553956"><ele>264.59999999999997</ele><time>2026-05-04T06:41:36Z</time></trkpt><trkpt lat="43.88409735622213" lon="12.536928802171472"><ele>265.2</ele><time>2026-05-04T06:41:37Z</time></trkpt><trkpt lat="43.88402329558258" lon="12.53682136586004"><ele>265.79999999999995</ele><time>2026-05-04T06:41:38Z</time></trkpt><trkpt lat="43.88395523884026" lon="12.536720859412052"><ele>266.4</ele><time>2026-05-04T06:41:39Z</time></trkpt><trkpt lat="43.88389641790896" lon="12.536620261627979"><ele>267.0</ele><time>2026-05-04T06:41:40Z</time></trkpt><trkpt lat="43.883856450764235" lon="12.536513808204797"><ele>267.0</ele><time>2026-05-04T06:41:41Z</time></trkpt><trkpt lat="43.88382428557393" lon="12.5364169410986"><ele>267.0</ele><time>2026-05-04T06:41:42Z</time></trkpt><trkpt lat="43.88383976713319" lon="12.536299345215118"><ele>267.0</ele><time>2026-05-04T06:41:42.999Z</time></trkpt><trkpt lat="43.88389094126154" lon="12.536186487157577"><ele>267.0</ele><time>2026-05-04T06:41:43.999Z</time></trkpt><trkpt lat="43.88394550972934" lon="12.53610335143803"><ele>267.0</ele><time>2026-05-04T06:41:44.999Z</time></trkpt><trkpt lat="43.88401623793417" lon="12.536055888380865"><ele>267.0</ele><time>2026-05-04T06:41:45.999Z</time></trkpt><trkpt lat="43.88409515340526" lon="12.53603959695382"><ele>264.6</ele><time>2026-05-04T06:41:46.999Z</time></trkpt><trkpt lat="43.884177859919404" lon="12.536052464494746"><ele>262.2</ele><time>2026-05-04T06:41:47.999Z</time></trkpt><trkpt lat="43.884265473655866" lon="12.536102348122109"><ele>259.8</ele><time>2026-05-04T06:41:48.999Z</time></trkpt><trkpt lat="43.88436308268972" lon="12.536161458398729"><ele>257.4</ele><time>2026-05-04T06:41:49.999Z</time></trkpt><trkpt lat="43.88444729570617" lon="12.53620704391047"><ele>255.0</ele><time>2026-05-04T06:41:50.999Z</time></trkpt><trkpt lat="43.88454186381806" lon="12.536205752851894"><ele>252.2</ele><time>2026-05-04T06:41:51.999Z</time></trkpt><trkpt lat="43.88464718341272" lon="12.536163456438706"><ele>249.4</ele><time>2026-05-04T06:41:53Z</time></trkpt><trkpt lat="43.88475199970181" lon="12.536102970567462"><ele>246.60000000000002</ele><time>2026-05-04T06:41:54Z</time></trkpt><trkpt lat="43.88486390032447" lon="12.536071489422852"><ele>243.8</ele><time>2026-05-04T06:41:55Z</time></trkpt><trkpt lat="43.884969468645636" lon="12.536069828328337"><ele>241.0</ele><time>2026-05-04T06:41:56Z</time></trkpt><trkpt lat="43.885073566264" lon="12.536089458298365"><ele>239.0</ele><time>2026-05-04T06:41:57Z</time></trkpt><trkpt lat="43.8851856261916" lon="12.536142428170436"><ele>237.0</ele><time>2026-05-04T06:41:58Z</time></trkpt><trkpt lat="43.88529401979857" lon="12.536214832245854"><ele>235.0</ele><time>2026-05-04T06:41:59Z</time></trkpt><trkpt lat="43.88539596681391" lon="12.536283845285377"><ele>233.0</ele><time>2026-05-04T06:42:00Z</time></trkpt><trkpt lat="43.885499108691" lon="12.536339215234971"><ele>233.00000000000003</ele><time>2026-05-04T06:42:01Z</time></trkpt><trkpt lat="43.88559030677904" lon="12.536388004249797"><ele>233.0</ele><time>2026-05-04T06:42:02Z</time></trkpt><trkpt lat="43.88566657986673" lon="12.536411356345507"><ele>233.0</ele><time>2026-05-04T06:42:03Z</time></trkpt><trkpt lat="43.88573157753649" lon="12.536396578728189"><ele>233.0</ele><time>2026-05-04T06:42:04Z</time></trkpt><trkpt lat="43.88578861459484" lon="12.536337359844495"><ele>233.00000000000003</ele><time>2026-05-04T06:42:05Z</time></trkpt><trkpt lat="43.88582261386117" lon="12.536253290172619"><ele>233.0</ele><time>2026-05-04T06:42:06Z</time></trkpt><trkpt lat="43.885831896534015" lon="12.536151222595159"><ele>231.2</ele><time>2026-05-04T06:42:07Z</time></trkpt><trkpt lat="43.885818035465505" lon="12.536036857154809"><ele>229.4</ele><time>2026-05-04T06:42:08Z</time></trkpt><trkpt lat="43.885784235469295" lon="12.53590820575838"><ele>227.59999999999997</ele><time>2026-05-04T06:42:09Z</time></trkpt><trkpt lat="43.885729735005675" lon="12.535771584122616"><ele>225.79999999999998</ele><time>2026-05-04T06:42:10Z</time></trkpt><trkpt lat="43.88567388170681" lon="12.535631704442565"><ele>224.0</ele><time>2026-05-04T06:42:11Z</time></trkpt><trkpt lat="43.88561426151197" lon="12.535493470389289"><ele>222.0</ele><time>2026-05-04T06:42:12Z</time></trkpt><trkpt lat="43.88555837085856" lon="12.535361252579062"><ele>219.99999999999997</ele><time>2026-05-04T06:42:13Z</time></trkpt><trkpt lat="43.88549596128648" lon="12.535235861907033"><ele>217.99999999999997</ele><time>2026-05-04T06:42:14Z</time></trkpt><trkpt lat="43.88543521328338" lon="12.53510948397976"><ele>216.0</ele><time>2026-05-04T06:42:15Z</time></trkpt><trkpt lat="43.88536527186091" lon="12.534992870656895"><ele>214.0</ele><time>2026-05-04T06:42:16Z</time></trkpt><trkpt lat="43.885305452147946" lon="12.534876691547042"><ele>214.0</ele><time>2026-05-04T06:42:17Z</time></trkpt><trkpt lat="43.885241180121454" lon="12.53476230271241"><ele>213.99999999999997</ele><time>2026-05-04T06:42:18Z</time></trkpt><trkpt lat="43.88518442231007" lon="12.534651828595555"><ele>213.99999999999997</ele><time>2026-05-04T06:42:19Z</time></trkpt><trkpt lat="43.885124040013324" lon="12.534544968183932"><ele>214.0</ele><time>2026-05-04T06:42:20Z</time></trkpt><trkpt lat="43.88507276160293" lon="12.534451473067932"><ele>214.0</ele><time>2026-05-04T06:42:21Z</time></trkpt><trkpt lat="43.88502290937241" lon="12.534349371882087"><ele>214.39999999999998</ele><time>2026-05-04T06:42:22Z</time></trkpt><trkpt lat="43.884966715876" lon="12.534238496820391"><ele>214.79999999999998</ele><time>2026-05-04T06:42:23Z</time></trkpt><trkpt lat="43.88491189900949" lon="12.534133108073162"><ele>215.20000000000002</ele><time>2026-05-04T06:42:24Z</time></trkpt><trkpt lat="43.88486160047846" lon="12.534027488269405"><ele>215.60000000000002</ele><time>2026-05-04T06:42:25Z</time></trkpt><trkpt lat="43.88480806226301" lon="12.533918047291484"><ele>216.0</ele><time>2026-05-04T06:42:26Z</time></trkpt><trkpt lat="43.88475026598854" lon="12.533809058108385"><ele>214.60000000000002</ele><time>2026-05-04T06:42:27Z</time></trkpt><trkpt lat="43.88468788560014" lon="12.533705427441236"><ele>213.20000000000002</ele><time>2026-05-04T06:42:28Z</time></trkpt><trkpt lat="43.884631403158934" lon="12.533589602397235"><ele>211.8</ele><time>2026-05-04T06:42:29Z</time></trkpt><trkpt lat="43.884564239883275" lon="12.533493307346529"><ele>210.39999999999998</ele><time>2026-05-04T06:42:30Z</time></trkpt><trkpt lat="43.88448882618727" lon="12.533390696095134"><ele>209.0</ele><time>2026-05-04T06:42:31Z</time></trkpt><trkpt lat="43.88439669344741" lon="12.533288781255036"><ele>209.0</ele><time>2026-05-04T06:42:32Z</time></trkpt><trkpt lat="43.88433146856983" lon="12.533157701433865"><ele>209.0</ele><time>2026-05-04T06:42:33Z</time></trkpt><trkpt lat="43.884264476135264" lon="12.533052672815563"><ele>209.0</ele><time>2026-05-04T06:42:34Z</time></trkpt><trkpt lat="43.884205012789366" lon="12.532955223445859"><ele>209.0</ele><time>2026-05-04T06:42:35Z</time></trkpt><trkpt lat="43.88413463096475" lon="12.53285837906497"><ele>209.0</ele><time>2026-05-04T06:42:36Z</time></trkpt><trkpt lat="43.88408911847069" lon="12.532729169938543"><ele>209.6</ele><time>2026-05-04T06:42:37Z</time></trkpt><trkpt lat="43.88403404777599" lon="12.532610767953688"><ele>210.2</ele><time>2026-05-04T06:42:38Z</time></trkpt><trkpt lat="43.8839940536357" lon="12.53249185437258"><ele>210.79999999999998</ele><time>2026-05-04T06:42:39Z</time></trkpt><trkpt lat="43.88394103370039" lon="12.53237594833591"><ele>211.39999999999998</ele><time>2026-05-04T06:42:40Z</time></trkpt><trkpt lat="43.88390130183707" lon="12.532246095943314"><ele>212.0</ele><time>2026-05-04T06:42:41Z</time></trkpt><trkpt lat="43.88385269721408" lon="12.532106466475915"><ele>211.6</ele><time>2026-05-04T06:42:42Z</time></trkpt><trkpt lat="43.883803045812265" lon="12.531960758077608"><ele>211.2</ele><time>2026-05-04T06:42:43Z</time></trkpt><trkpt lat="43.88375711896213" lon="12.53181695644288"><ele>210.8</ele><time>2026-05-04T06:42:44Z</time></trkpt><trkpt lat="43.88371657124084" lon="12.531685037825385"><ele>210.4</ele><time>2026-05-04T06:42:45Z</time></trkpt><trkpt lat="43.88368741378431" lon="12.5315691291655"><ele>210.0</ele><time>2026-05-04T06:42:46Z</time></trkpt><trkpt lat="43.883676097379556" lon="12.53147399234833"><ele>210.0</ele><time>2026-05-04T06:42:47Z</time></trkpt><trkpt lat="43.883678086011265" lon="12.531315978315932"><ele>210.0</ele><time>2026-05-04T06:42:49Z</time></trkpt><trkpt lat="43.88369508496839" lon="12.53117606716463"><ele>210.0</ele><time>2026-05-04T06:42:51Z</time></trkpt><trkpt lat="43.883647593997395" lon="12.531093007211537"><ele>210.0</ele><time>2026-05-04T06:42:52Z</time></trkpt><trkpt lat="43.88357587185558" lon="12.531034863897741"><ele>210.0</ele><time>2026-05-04T06:42:53Z</time></trkpt><trkpt lat="43.88351186020634" lon="12.53096671617062"><ele>210.0</ele><time>2026-05-04T06:42:54Z</time></trkpt><trkpt lat="43.88345077900662" lon="12.530893729623987"><ele>210.0</ele><time>2026-05-04T06:42:55Z</time></trkpt><trkpt lat="43.88338932119237" lon="12.53081411770215"><ele>210.0</ele><time>2026-05-04T06:42:56Z</time></trkpt><trkpt lat="43.88333089788299" lon="12.530732361292593"><ele>210.0</ele><time>2026-05-04T06:42:57Z</time></trkpt><trkpt lat="43.88327525328787" lon="12.530645211914111"><ele>210.0</ele><time>2026-05-04T06:42:58Z</time></trkpt><trkpt lat="43.88323316788978" lon="12.530565445436357"><ele>210.0</ele><time>2026-05-04T06:42:59Z</time></trkpt><trkpt lat="43.88323928265973" lon="12.530407687479624"><ele>210.2</ele><time>2026-05-04T06:43:01Z</time></trkpt><trkpt lat="43.88330719996769" lon="12.530283750758606"><ele>210.4</ele><time>2026-05-04T06:43:03Z</time></trkpt><trkpt lat="43.88334750952376" lon="12.530204390531262"><ele>210.60000000000002</ele><time>2026-05-04T06:43:04Z</time></trkpt><trkpt lat="43.88339845052086" lon="12.53010647707243"><ele>210.8</ele><time>2026-05-04T06:43:05Z</time></trkpt><trkpt lat="43.883448295888506" lon="12.529990509388366"><ele>211.0</ele><time>2026-05-04T06:43:06Z</time></trkpt><trkpt lat="43.88349478092224" lon="12.529861688885719"><ele>210.66666666666666</ele><time>2026-05-04T06:43:07Z</time></trkpt><trkpt lat="43.883548488805005" lon="12.529739079249918"><ele>210.33333333333331</ele><time>2026-05-04T06:43:08Z</time></trkpt><trkpt lat="43.8835889680761" lon="12.529623966286298"><ele>210.0</ele><time>2026-05-04T06:43:09Z</time></trkpt><trkpt lat="43.88360988673516" lon="12.529497847809495"><ele>209.66666666666669</ele><time>2026-05-04T06:43:10Z</time></trkpt><trkpt lat="43.88361494845331" lon="12.52937221995676"><ele>209.33333333333334</ele><time>2026-05-04T06:43:11Z</time></trkpt><trkpt lat="43.88361260231878" lon="12.52928042795701"><ele>209.0</ele><time>2026-05-04T06:43:12Z</time></trkpt><trkpt lat="43.883624690522545" lon="12.529162856171668"><ele>208.83333333333334</ele><time>2026-05-04T06:43:14Z</time></trkpt><trkpt lat="43.8835702403463" lon="12.529086466705802"><ele>208.66666666666669</ele><time>2026-05-04T06:43:16Z</time></trkpt><trkpt lat="43.88351470665269" lon="12.529026189411804"><ele>208.5</ele><time>2026-05-04T06:43:20Z</time></trkpt><trkpt lat="43.88346115051308" lon="12.528965154236774"><ele>208.33333333333331</ele><time>2026-05-04T06:43:49Z</time></trkpt><trkpt lat="43.88339590248122" lon="12.52887701840319"><ele>208.16666666666666</ele><time>2026-05-04T06:43:50Z</time></trkpt><trkpt lat="43.883360281465684" lon="12.528752311317234"><ele>208.0</ele><time>2026-05-04T06:43:51Z</time></trkpt><trkpt lat="43.88338960295409" lon="12.528866469166788"><ele>208.49999999999997</ele><time>2026-05-04T06:43:52Z</time></trkpt><trkpt lat="43.88335913976774" lon="12.528767390610744"><ele>209.0</ele><time>2026-05-04T06:43:52.999Z</time></trkpt><trkpt lat="43.88333733772467" lon="12.528675163806462"><ele>209.5</ele><time>2026-05-04T06:43:53.999Z</time></trkpt><trkpt lat="43.88330352562483" lon="12.528551049054828"><ele>210.0</ele><time>2026-05-04T06:43:55.999Z</time></trkpt><trkpt lat="43.88325628511522" lon="12.528383640920783"><ele>210.49999999999997</ele><time>2026-05-04T06:43:57.999Z</time></trkpt><trkpt lat="43.883214819136946" lon="12.528309608025653"><ele>211.0</ele><time>2026-05-04T06:43:59Z</time></trkpt><trkpt lat="43.88312424239531" lon="12.52821075419283"><ele>211.16666666666666</ele><time>2026-05-04T06:44:01Z</time></trkpt><trkpt lat="43.883056315884446" lon="12.528202979478346"><ele>211.33333333333331</ele><time>2026-05-04T06:44:02Z</time></trkpt><trkpt lat="43.88294404238421" lon="12.528131096569838"><ele>211.5</ele><time>2026-05-04T06:44:04Z</time></trkpt><trkpt lat="43.88287463952933" lon="12.528125504780736"><ele>211.66666666666669</ele><time>2026-05-04T06:44:05Z</time></trkpt><trkpt lat="43.88280071261656" lon="12.528090026196715"><ele>211.83333333333334</ele><time>2026-05-04T06:44:06Z</time></trkpt><trkpt lat="43.882720762115476" lon="12.52805843839036"><ele>212.0</ele><time>2026-05-04T06:44:07Z</time></trkpt><trkpt lat="43.88264330653753" lon="12.528007893345642"><ele>211.83333333333334</ele><time>2026-05-04T06:44:08Z</time></trkpt><trkpt lat="43.88257064366651" lon="12.527983863775278"><ele>211.66666666666669</ele><time>2026-05-04T06:44:09Z</time></trkpt><trkpt lat="43.882501709784" lon="12.52797114670775"><ele>211.5</ele><time>2026-05-04T06:44:10Z</time></trkpt><trkpt lat="43.8824232278115" lon="12.52797639154043"><ele>211.33333333333331</ele><time>2026-05-04T06:44:11Z</time></trkpt><trkpt lat="43.88235732197214" lon="12.527931333847508"><ele>211.16666666666666</ele><time>2026-05-04T06:44:12Z</time></trkpt><trkpt lat="43.88229615432047" lon="12.527906953555036"><ele>211.0</ele><time>2026-05-04T06:44:13Z</time></trkpt><trkpt lat="43.88219423744263" lon="12.527843903578473"><ele>211.0</ele><time>2026-05-04T06:44:15Z</time></trkpt><trkpt lat="43.88212401134445" lon="12.527811898215923"><ele>211.0</ele><time>2026-05-04T06:44:16Z</time></trkpt><trkpt lat="43.88205748281193" lon="12.527726669338794"><ele>211.0</ele><time>2026-05-04T06:44:17Z</time></trkpt><trkpt lat="43.88198852550514" lon="12.527652840260576"><ele>211.0</ele><time>2026-05-04T06:44:18Z</time></trkpt><trkpt lat="43.88188513519763" lon="12.527534751701648"><ele>211.0</ele><time>2026-05-04T06:44:20Z</time></trkpt><trkpt lat="43.881836199231905" lon="12.527439393630809"><ele>211.0</ele><time>2026-05-04T06:44:21Z</time></trkpt><trkpt lat="43.88178492148222" lon="12.527369492009504"><ele>211.0</ele><time>2026-05-04T06:44:22Z</time></trkpt><trkpt lat="43.88173529445053" lon="12.527298056236713"><ele>211.0</ele><time>2026-05-04T06:44:23Z</time></trkpt><trkpt lat="43.88165049983609" lon="12.527139606155924"><ele>211.0</ele><time>2026-05-04T06:44:25Z</time></trkpt><trkpt lat="43.88159965448992" lon="12.52705435475199"><ele>211.0</ele><time>2026-05-04T06:44:26Z</time></trkpt><trkpt lat="43.88154340667891" lon="12.526953210195883"><ele>211.49999999999997</ele><time>2026-05-04T06:44:27Z</time></trkpt><trkpt lat="43.88149187184538" lon="12.52685061236823"><ele>212.0</ele><time>2026-05-04T06:44:28Z</time></trkpt><trkpt lat="43.88144686266408" lon="12.526757407572465"><ele>212.5</ele><time>2026-05-04T06:44:29Z</time></trkpt><trkpt lat="43.881406032192714" lon="12.526663696389729"><ele>213.0</ele><time>2026-05-04T06:44:30Z</time></trkpt><trkpt lat="43.88136870597869" lon="12.526530855371897"><ele>213.49999999999997</ele><time>2026-05-04T06:44:31Z</time></trkpt><trkpt lat="43.881332017134" lon="12.52645458917348"><ele>214.0</ele><time>2026-05-04T06:44:32Z</time></trkpt><trkpt lat="43.881296721080936" lon="12.526336575250049"><ele>213.99999999999997</ele><time>2026-05-04T06:44:33Z</time></trkpt><trkpt lat="43.88126007235167" lon="12.526218932616333"><ele>214.0</ele><time>2026-05-04T06:44:34Z</time></trkpt><trkpt lat="43.88122341379257" lon="12.52610310277154"><ele>214.0</ele><time>2026-05-04T06:44:35Z</time></trkpt><trkpt lat="43.8811965842432" lon="12.52600410340353"><ele>214.0</ele><time>2026-05-04T06:44:36Z</time></trkpt><trkpt lat="43.88116378668238" lon="12.5258806465094"><ele>213.99999999999997</ele><time>2026-05-04T06:44:37Z</time></trkpt><trkpt lat="43.88113663396082" lon="12.52578979230921"><ele>214.0</ele><time>2026-05-04T06:44:38Z</time></trkpt><trkpt lat="43.881109468871024" lon="12.525693182327725"><ele>213.99999999999997</ele><time>2026-05-04T06:44:39Z</time></trkpt><trkpt lat="43.88108151585891" lon="12.52557609561971"><ele>214.0</ele><time>2026-05-04T06:44:40Z</time></trkpt><trkpt lat="43.88108157188915" lon="12.525450158923574"><ele>214.0</ele><time>2026-05-04T06:44:41Z</time></trkpt><trkpt lat="43.88107110311618" lon="12.525341829980256"><ele>214.0</ele><time>2026-05-04T06:44:42Z</time></trkpt><trkpt lat="43.88106883352256" lon="12.52525256464577"><ele>213.99999999999997</ele><time>2026-05-04T06:44:43Z</time></trkpt><trkpt lat="43.88106293393457" lon="12.525149642814375"><ele>214.0</ele><time>2026-05-04T06:44:46Z</time></trkpt><trkpt lat="43.881054712821175" lon="12.525006220899778"><ele>213.79999999999998</ele><time>2026-05-04T06:44:50Z</time></trkpt><trkpt lat="43.881047428335336" lon="12.524877959192308"><ele>213.59999999999997</ele><time>2026-05-04T06:44:51Z</time></trkpt><trkpt lat="43.881032400124234" lon="12.524775325397579"><ele>213.4</ele><time>2026-05-04T06:44:52Z</time></trkpt><trkpt lat="43.880998533782574" lon="12.524650056700677"><ele>213.2</ele><time>2026-05-04T06:44:53Z</time></trkpt><trkpt lat="43.880984699364014" lon="12.524505557281993"><ele>213.0</ele><time>2026-05-04T06:44:54Z</time></trkpt><trkpt lat="43.880976127386184" lon="12.524371800258754"><ele>213.33333333333334</ele><time>2026-05-04T06:44:55Z</time></trkpt><trkpt lat="43.88096998285429" lon="12.524282783948019"><ele>213.66666666666669</ele><time>2026-05-04T06:44:56Z</time></trkpt><trkpt lat="43.88096101649526" lon="12.52418827027844"><ele>214.0</ele><time>2026-05-04T06:44:57Z</time></trkpt><trkpt lat="43.88095521115681" lon="12.524045908256705"><ele>214.33333333333334</ele><time>2026-05-04T06:44:59Z</time></trkpt><trkpt lat="43.88094421912411" lon="12.523947894243094"><ele>214.66666666666669</ele><time>2026-05-04T06:45:01Z</time></trkpt><trkpt lat="43.88096497994297" lon="12.523838640456443"><ele>215.0</ele><time>2026-05-04T06:45:02Z</time></trkpt><trkpt lat="43.88094175695413" lon="12.52374367429766"><ele>215.6</ele><time>2026-05-04T06:45:03Z</time></trkpt><trkpt lat="43.88093241553145" lon="12.523619126634115"><ele>216.2</ele><time>2026-05-04T06:45:05Z</time></trkpt><trkpt lat="43.880918076637656" lon="12.523427948447985"><ele>216.8</ele><time>2026-05-04T06:45:07Z</time></trkpt><trkpt lat="43.88091015675009" lon="12.523322353874777"><ele>217.4</ele><time>2026-05-04T06:45:08Z</time></trkpt><trkpt lat="43.880903312520594" lon="12.523231100845644"><ele>218.0</ele><time>2026-05-04T06:45:09Z</time></trkpt><trkpt lat="43.88089425057975" lon="12.523110279462482"><ele>218.00000000000003</ele><time>2026-05-04T06:45:11Z</time></trkpt><trkpt lat="43.88088292667101" lon="12.522959299586342"><ele>218.0</ele><time>2026-05-04T06:45:13Z</time></trkpt><trkpt lat="43.8808746526062" lon="12.522848982820554"><ele>218.0</ele><time>2026-05-04T06:45:16Z</time></trkpt><trkpt lat="43.88086563057492" lon="12.52274823637804"><ele>218.0</ele><time>2026-05-04T06:45:18Z</time></trkpt><trkpt lat="43.880899502440215" lon="12.52265114198761"><ele>218.00000000000003</ele><time>2026-05-04T06:45:19Z</time></trkpt><trkpt lat="43.88085946699763" lon="12.522570019453484"><ele>218.0</ele><time>2026-05-04T06:45:20Z</time></trkpt><trkpt lat="43.880844735722654" lon="12.5224793056782"><ele>218.16666666666669</ele><time>2026-05-04T06:45:21Z</time></trkpt><trkpt lat="43.880814715776665" lon="12.522376425637386"><ele>218.33333333333334</ele><time>2026-05-04T06:45:22Z</time></trkpt><trkpt lat="43.880782364863165" lon="12.522280705797344"><ele>218.5</ele><time>2026-05-04T06:45:23Z</time></trkpt><trkpt lat="43.88074406755002" lon="12.522188791326073"><ele>218.66666666666669</ele><time>2026-05-04T06:45:24Z</time></trkpt><trkpt lat="43.88069496546273" lon="12.522077239438179"><ele>218.83333333333334</ele><time>2026-05-04T06:45:25Z</time></trkpt><trkpt lat="43.88064907602072" lon="12.521972986152964"><ele>219.0</ele><time>2026-05-04T06:45:26Z</time></trkpt><trkpt lat="43.88061512799906" lon="12.521891579730676"><ele>219.0</ele><time>2026-05-04T06:45:27Z</time></trkpt><trkpt lat="43.88055599318951" lon="12.521767281275105"><ele>218.99999999999997</ele><time>2026-05-04T06:45:29Z</time></trkpt><trkpt lat="43.88052332658617" lon="12.52167586552763"><ele>218.99999999999997</ele><time>2026-05-04T06:45:30Z</time></trkpt><trkpt lat="43.88047610435326" lon="12.521533851735969"><ele>219.0</ele><time>2026-05-04T06:45:31Z</time></trkpt><trkpt lat="43.88042764666371" lon="12.5213946511538"><ele>219.0</ele><time>2026-05-04T06:45:32Z</time></trkpt><trkpt lat="43.88038706228031" lon="12.521278245662845"><ele>219.0</ele><time>2026-05-04T06:45:33Z</time></trkpt><trkpt lat="43.88034296981823" lon="12.521148577841531"><ele>219.0</ele><time>2026-05-04T06:45:34Z</time></trkpt><trkpt lat="43.88031643587245" lon="12.520993743851962"><ele>219.0</ele><time>2026-05-04T06:45:35Z</time></trkpt><trkpt lat="43.88027834952039" lon="12.520823284147534"><ele>219.0</ele><time>2026-05-04T06:45:36Z</time></trkpt><trkpt lat="43.88024346323481" lon="12.52068492309753"><ele>219.0</ele><time>2026-05-04T06:45:37Z</time></trkpt><trkpt lat="43.880211800008546" lon="12.520573700974278"><ele>219.0</ele><time>2026-05-04T06:45:38Z</time></trkpt><trkpt lat="43.880184466850366" lon="12.520468859518584"><ele>219.0</ele><time>2026-05-04T06:45:39Z</time></trkpt><trkpt lat="43.88016501572446" lon="12.520378594178917"><ele>219.0</ele><time>2026-05-04T06:45:40Z</time></trkpt><trkpt lat="43.88015499879497" lon="12.520280206265722"><ele>219.0</ele><time>2026-05-04T06:45:41Z</time></trkpt><trkpt lat="43.880156042510684" lon="12.520168764770078"><ele>219.0</ele><time>2026-05-04T06:45:42Z</time></trkpt><trkpt lat="43.88015963263337" lon="12.520043624640886"><ele>219.39999999999998</ele><time>2026-05-04T06:45:43Z</time></trkpt><trkpt lat="43.880165479976796" lon="12.519924891148133"><ele>219.79999999999998</ele><time>2026-05-04T06:45:44Z</time></trkpt><trkpt lat="43.88016984933256" lon="12.519797166388132"><ele>220.20000000000002</ele><time>2026-05-04T06:45:45Z</time></trkpt><trkpt lat="43.88016394445043" lon="12.519663059599859"><ele>220.60000000000002</ele><time>2026-05-04T06:45:46Z</time></trkpt><trkpt lat="43.88015455564968" lon="12.519537721245143"><ele>221.0</ele><time>2026-05-04T06:45:47Z</time></trkpt><trkpt lat="43.88014520105487" lon="12.519414070154708"><ele>221.16666666666669</ele><time>2026-05-04T06:45:48Z</time></trkpt><trkpt lat="43.88017334958735" lon="12.519275632076996"><ele>221.33333333333334</ele><time>2026-05-04T06:45:49Z</time></trkpt><trkpt lat="43.880162395453546" lon="12.519176478696629"><ele>221.5</ele><time>2026-05-04T06:45:50Z</time></trkpt><trkpt lat="43.88017795702748" lon="12.519042738238703"><ele>221.66666666666669</ele><time>2026-05-04T06:45:50.999Z</time></trkpt><trkpt lat="43.880172591404765" lon="12.518926095891253"><ele>221.83333333333334</ele><time>2026-05-04T06:45:51.999Z</time></trkpt><trkpt lat="43.88017693209463" lon="12.518799873763804"><ele>222.0</ele><time>2026-05-04T06:45:52.999Z</time></trkpt><trkpt lat="43.880181966674265" lon="12.518679370764294"><ele>222.16666666666666</ele><time>2026-05-04T06:45:53.999Z</time></trkpt><trkpt lat="43.88018943946115" lon="12.518558922226216"><ele>222.33333333333331</ele><time>2026-05-04T06:45:54.999Z</time></trkpt><trkpt lat="43.880186092814846" lon="12.51842346688112"><ele>222.5</ele><time>2026-05-04T06:45:55.999Z</time></trkpt><trkpt lat="43.880185899464564" lon="12.518299958558055"><ele>222.66666666666666</ele><time>2026-05-04T06:45:56.999Z</time></trkpt><trkpt lat="43.88018706351215" lon="12.518181227721723"><ele>222.83333333333331</ele><time>2026-05-04T06:45:57.999Z</time></trkpt><trkpt lat="43.88018144543904" lon="12.518082033443905"><ele>223.0</ele><time>2026-05-04T06:45:58.999Z</time></trkpt><trkpt lat="43.88017226136139" lon="12.51795493943844"><ele>223.4</ele><time>2026-05-04T06:45:59.999Z</time></trkpt><trkpt lat="43.880167687374716" lon="12.51785517009752"><ele>223.8</ele><time>2026-05-04T06:46:00.999Z</time></trkpt><trkpt lat="43.88015896248009" lon="12.51772871011089"><ele>224.2</ele><time>2026-05-04T06:46:01.999Z</time></trkpt><trkpt lat="43.88015072392197" lon="12.517586253297376"><ele>224.6</ele><time>2026-05-04T06:46:02.999Z</time></trkpt><trkpt lat="43.88014798242902" lon="12.517437663733983"><ele>225.0</ele><time>2026-05-04T06:46:03.999Z</time></trkpt><trkpt lat="43.88014599769042" lon="12.51729468574598"><ele>225.0</ele><time>2026-05-04T06:46:05Z</time></trkpt><trkpt lat="43.88013109180196" lon="12.517152432585641"><ele>225.0</ele><time>2026-05-04T06:46:06Z</time></trkpt><trkpt lat="43.880123807649596" lon="12.517017503923611"><ele>225.0</ele><time>2026-05-04T06:46:07Z</time></trkpt><trkpt lat="43.88012681550646" lon="12.516898179296716"><ele>225.0</ele><time>2026-05-04T06:46:08Z</time></trkpt><trkpt lat="43.880107925705005" lon="12.51680019579761"><ele>225.0</ele><time>2026-05-04T06:46:09Z</time></trkpt><trkpt lat="43.880078643789176" lon="12.516713928968604"><ele>225.0</ele><time>2026-05-04T06:46:10Z</time></trkpt><trkpt lat="43.88000839253239" lon="12.516643490035918"><ele>225.4</ele><time>2026-05-04T06:46:11Z</time></trkpt><trkpt lat="43.87991313959984" lon="12.516597190599656"><ele>225.8</ele><time>2026-05-04T06:46:12Z</time></trkpt><trkpt lat="43.879816443529236" lon="12.516509504679636"><ele>226.2</ele><time>2026-05-04T06:46:13Z</time></trkpt><trkpt lat="43.8797179858458" lon="12.516459440323109"><ele>226.6</ele><time>2026-05-04T06:46:14Z</time></trkpt><trkpt lat="43.879615144251304" lon="12.516426541120758"><ele>227.0</ele><time>2026-05-04T06:46:15Z</time></trkpt><trkpt lat="43.87950716581555" lon="12.516408533134655"><ele>227.00000000000003</ele><time>2026-05-04T06:46:16Z</time></trkpt><trkpt lat="43.87940779147803" lon="12.516395800973244"><ele>227.0</ele><time>2026-05-04T06:46:17Z</time></trkpt><trkpt lat="43.87932071841886" lon="12.516379629480134"><ele>227.0</ele><time>2026-05-04T06:46:18Z</time></trkpt><trkpt lat="43.87924003528621" lon="12.516363330663182"><ele>227.0</ele><time>2026-05-04T06:46:19Z</time></trkpt><trkpt lat="43.87918617324842" lon="12.516308211168408"><ele>227.00000000000003</ele><time>2026-05-04T06:46:20Z</time></trkpt><trkpt lat="43.87913796832133" lon="12.516248921237532"><ele>227.0</ele><time>2026-05-04T06:46:21Z</time></trkpt><trkpt lat="43.879057168799896" lon="12.516150479690754"><ele>228.0</ele><time>2026-05-04T06:46:22Z</time></trkpt><trkpt lat="43.878994938954314" lon="12.516098898571888"><ele>229.0</ele><time>2026-05-04T06:46:23Z</time></trkpt><trkpt lat="43.87894530251853" lon="12.515995789634017"><ele>230.0</ele><time>2026-05-04T06:46:24Z</time></trkpt><trkpt lat="43.878858744124514" lon="12.515862509835646"><ele>231.0</ele><time>2026-05-04T06:46:25Z</time></trkpt><trkpt lat="43.878763525201315" lon="12.515754307373362"><ele>232.0</ele><time>2026-05-04T06:46:26Z</time></trkpt><trkpt lat="43.87868137301668" lon="12.515625636653484"><ele>232.0</ele><time>2026-05-04T06:46:27Z</time></trkpt><trkpt lat="43.878598540375954" lon="12.515499096792626"><ele>232.0</ele><time>2026-05-04T06:46:28Z</time></trkpt><trkpt lat="43.878487380604696" lon="12.51541360725758"><ele>232.0</ele><time>2026-05-04T06:46:29Z</time></trkpt><trkpt lat="43.87838732636461" lon="12.515316964866543"><ele>232.0</ele><time>2026-05-04T06:46:30Z</time></trkpt><trkpt lat="43.87829118866458" lon="12.515231741052574"><ele>232.2</ele><time>2026-05-04T06:46:31Z</time></trkpt><trkpt lat="43.87820344545048" lon="12.515166446728818"><ele>232.39999999999998</ele><time>2026-05-04T06:46:32Z</time></trkpt><trkpt lat="43.87812327711348" lon="12.515116871755593"><ele>232.60000000000002</ele><time>2026-05-04T06:46:33Z</time></trkpt><trkpt lat="43.87797936141265" lon="12.515061296691059"><ele>232.8</ele><time>2026-05-04T06:46:35Z</time></trkpt><trkpt lat="43.87790517415072" lon="12.515050113412935"><ele>233.0</ele><time>2026-05-04T06:46:37Z</time></trkpt><trkpt lat="43.87793399102344" lon="12.514900590170722"><ele>233.0</ele><time>2026-05-04T06:46:42Z</time></trkpt><trkpt lat="43.87791346700911" lon="12.51478104531972"><ele>233.0</ele><time>2026-05-04T06:46:45Z</time></trkpt><trkpt lat="43.877907285746204" lon="12.514592541918622"><ele>233.0</ele><time>2026-05-04T06:46:47Z</time></trkpt><trkpt lat="43.87793445979212" lon="12.514474789818633"><ele>233.0</ele><time>2026-05-04T06:46:49Z</time></trkpt><trkpt lat="43.87796264893381" lon="12.51439011768414"><ele>233.0</ele><time>2026-05-04T06:46:55Z</time></trkpt><trkpt lat="43.87800236160279" lon="12.514258025257474"><ele>232.83333333333334</ele><time>2026-05-04T06:47:00Z</time></trkpt><trkpt lat="43.87803345335384" lon="12.514171800512331"><ele>232.66666666666669</ele><time>2026-05-04T06:47:02Z</time></trkpt><trkpt lat="43.87806691416941" lon="12.514071328967974"><ele>232.5</ele><time>2026-05-04T06:47:05Z</time></trkpt><trkpt lat="43.87809143740708" lon="12.513987038120549"><ele>232.33333333333331</ele><time>2026-05-04T06:47:08Z</time></trkpt><trkpt lat="43.87813119581334" lon="12.513861832659266"><ele>232.16666666666666</ele><time>2026-05-04T06:47:11Z</time></trkpt><trkpt lat="43.87815901688146" lon="12.51376182704637"><ele>232.0</ele><time>2026-05-04T06:47:13Z</time></trkpt><trkpt lat="43.87818635263219" lon="12.51367471904051"><ele>232.0</ele><time>2026-05-04T06:47:15Z</time></trkpt><trkpt lat="43.87822722733013" lon="12.513532599290679"><ele>232.0</ele><time>2026-05-04T06:47:17Z</time></trkpt><trkpt lat="43.878263492853186" lon="12.51341818424299"><ele>232.0</ele><time>2026-05-04T06:47:19Z</time></trkpt><trkpt lat="43.8782950315148" lon="12.513306247776114"><ele>232.0</ele><time>2026-05-04T06:47:21Z</time></trkpt><trkpt lat="43.87833138207002" lon="12.513160822983563"><ele>232.0</ele><time>2026-05-04T06:47:23Z</time></trkpt><trkpt lat="43.87837232544357" lon="12.513066360031447"><ele>232.0</ele><time>2026-05-04T06:47:25Z</time></trkpt><trkpt lat="43.87840391373275" lon="12.512988145059749"><ele>232.0</ele><time>2026-05-04T06:47:26Z</time></trkpt><trkpt lat="43.87843905570677" lon="12.512913076859437"><ele>232.0</ele><time>2026-05-04T06:47:27Z</time></trkpt><trkpt lat="43.87845833530877" lon="12.512800025841248"><ele>232.0</ele><time>2026-05-04T06:47:30Z</time></trkpt><trkpt lat="43.87858029047541" lon="12.51266078371837"><ele>232.0</ele><time>2026-05-04T06:47:32Z</time></trkpt><trkpt lat="43.87864568607088" lon="12.51256619909434"><ele>232.2</ele><time>2026-05-04T06:47:34Z</time></trkpt><trkpt lat="43.87869440694767" lon="12.512482994198665"><ele>232.39999999999998</ele><time>2026-05-04T06:47:35Z</time></trkpt><trkpt lat="43.878767178933074" lon="12.512343082436882"><ele>232.60000000000002</ele><time>2026-05-04T06:47:37Z</time></trkpt><trkpt lat="43.878782351537964" lon="12.512209149730442"><ele>232.8</ele><time>2026-05-04T06:47:39Z</time></trkpt><trkpt lat="43.87871601144171" lon="12.512196576289544"><ele>233.0</ele><time>2026-05-04T06:48:16Z</time></trkpt><trkpt lat="43.8786397744961" lon="12.512265798148363"><ele>233.0</ele><time>2026-05-04T06:48:35Z</time></trkpt><trkpt lat="43.878578242332345" lon="12.512299223197378"><ele>233.0</ele><time>2026-05-04T06:48:45Z</time></trkpt><trkpt lat="43.87850281062835" lon="12.51235335114961"><ele>233.0</ele><time>2026-05-04T06:48:53Z</time></trkpt><trkpt lat="43.87843174012571" lon="12.512429900327051"><ele>233.0</ele><time>2026-05-04T06:49:18Z</time></trkpt><trkpt lat="43.87831534659277" lon="12.512523995469172"><ele>233.0</ele><time>2026-05-04T06:49:20Z</time></trkpt><trkpt lat="43.878249031788535" lon="12.51256978705868"><ele>232.83333333333334</ele><time>2026-05-04T06:49:21Z</time></trkpt><trkpt lat="43.878188706316614" lon="12.512639319703528"><ele>232.66666666666669</ele><time>2026-05-04T06:49:23Z</time></trkpt><trkpt lat="43.87812024328533" lon="12.512717244889465"><ele>232.5</ele><time>2026-05-04T06:49:25Z</time></trkpt><trkpt lat="43.87805411334507" lon="12.512796086726322"><ele>232.33333333333331</ele><time>2026-05-04T06:49:26Z</time></trkpt><trkpt lat="43.87798690823316" lon="12.512856748737692"><ele>232.16666666666666</ele><time>2026-05-04T06:49:28Z</time></trkpt><trkpt lat="43.877918063696676" lon="12.512930971931626"><ele>232.0</ele><time>2026-05-04T06:49:30Z</time></trkpt><trkpt lat="43.87780718213825" lon="12.513051033706748"><ele>231.99999999999997</ele><time>2026-05-04T06:49:32Z</time></trkpt><trkpt lat="43.877750575421096" lon="12.51311636564034"><ele>232.0</ele><time>2026-05-04T06:49:33Z</time></trkpt><trkpt lat="43.877691180637065" lon="12.513171220587054"><ele>232.0</ele><time>2026-05-04T06:49:34Z</time></trkpt><trkpt lat="43.8775950401789" lon="12.513217112091294"><ele>232.0</ele><time>2026-05-04T06:49:36Z</time></trkpt><trkpt lat="43.8775040146125" lon="12.513253666858303"><ele>231.99999999999997</ele><time>2026-05-04T06:49:38Z</time></trkpt><trkpt lat="43.87741362002765" lon="12.513297900436726"><ele>232.0</ele><time>2026-05-04T06:49:40Z</time></trkpt><trkpt lat="43.877309742901325" lon="12.513352492217866"><ele>234.83333333333331</ele><time>2026-05-04T06:49:43Z</time></trkpt><trkpt lat="43.87720594969211" lon="12.513390080822237"><ele>237.66666666666666</ele><time>2026-05-04T06:49:45Z</time></trkpt><trkpt lat="43.87712136703932" lon="12.513433491412227"><ele>240.5</ele><time>2026-05-04T06:49:47Z</time></trkpt><trkpt lat="43.877056953963965" lon="12.513481084459892"><ele>243.33333333333331</ele><time>2026-05-04T06:49:51Z</time></trkpt><trkpt lat="43.87698289054534" lon="12.513526201345753"><ele>246.16666666666666</ele><time>2026-05-04T06:49:53Z</time></trkpt><trkpt lat="43.876924176590414" lon="12.513569585801477"><ele>249.0</ele><time>2026-05-04T06:49:55Z</time></trkpt><trkpt lat="43.876805490348154" lon="12.51360403653902"><ele>251.6</ele><time>2026-05-04T06:49:57Z</time></trkpt><trkpt lat="43.87671918955317" lon="12.513611125077903"><ele>254.2</ele><time>2026-05-04T06:49:59Z</time></trkpt><trkpt lat="43.87664055594593" lon="12.513586518157512"><ele>256.79999999999995</ele><time>2026-05-04T06:50:01Z</time></trkpt><trkpt lat="43.87653508149816" lon="12.513525742864836"><ele>259.4</ele><time>2026-05-04T06:50:03Z</time></trkpt><trkpt lat="43.876461918477425" lon="12.513463679505616"><ele>262.0</ele><time>2026-05-04T06:50:05Z</time></trkpt><trkpt lat="43.87640889005805" lon="12.513370204582781"><ele>262.0</ele><time>2026-05-04T06:50:07Z</time></trkpt><trkpt lat="43.87634818748101" lon="12.513277572341282"><ele>262.0</ele><time>2026-05-04T06:50:08Z</time></trkpt><trkpt lat="43.87628961918061" lon="12.513171887423075"><ele>262.0</ele><time>2026-05-04T06:50:09Z</time></trkpt><trkpt lat="43.87622081440509" lon="12.513059612756166"><ele>262.0</ele><time>2026-05-04T06:50:10Z</time></trkpt><trkpt lat="43.876167552696465" lon="12.512970862714933"><ele>262.0</ele><time>2026-05-04T06:50:11Z</time></trkpt><trkpt lat="43.876118966255355" lon="12.512885480283579"><ele>263.16666666666663</ele><time>2026-05-04T06:50:12Z</time></trkpt><trkpt lat="43.87607816428232" lon="12.51281570818421"><ele>264.3333333333333</ele><time>2026-05-04T06:50:13Z</time></trkpt><trkpt lat="43.87603523238322" lon="12.512726443246969"><ele>265.5</ele><time>2026-05-04T06:50:14Z</time></trkpt><trkpt lat="43.875979220364194" lon="12.512629415352116"><ele>266.6666666666667</ele><time>2026-05-04T06:50:16Z</time></trkpt><trkpt lat="43.87593456589096" lon="12.512565756046035"><ele>267.83333333333337</ele><time>2026-05-04T06:50:17Z</time></trkpt><trkpt lat="43.87588401487556" lon="12.512479590668375"><ele>269.0</ele><time>2026-05-04T06:50:18Z</time></trkpt><trkpt lat="43.87582743109807" lon="12.512385032898548"><ele>269.6666666666667</ele><time>2026-05-04T06:50:19Z</time></trkpt><trkpt lat="43.875774948012726" lon="12.51229797095052"><ele>270.33333333333337</ele><time>2026-05-04T06:50:20Z</time></trkpt><trkpt lat="43.875739782840036" lon="12.512220219873944"><ele>271.0</ele><time>2026-05-04T06:50:21Z</time></trkpt><trkpt lat="43.87569905996384" lon="12.512147170472046"><ele>271.6666666666667</ele><time>2026-05-04T06:50:22Z</time></trkpt><trkpt lat="43.875651424164886" lon="12.512082162521967"><ele>272.3333333333333</ele><time>2026-05-04T06:50:23Z</time></trkpt><trkpt lat="43.87558972040312" lon="12.511976188461519"><ele>273.0</ele><time>2026-05-04T06:50:25Z</time></trkpt><trkpt lat="43.875519182613324" lon="12.511866682360765"><ele>273.1666666666667</ele><time>2026-05-04T06:50:27Z</time></trkpt><trkpt lat="43.8754747970643" lon="12.511768073434103"><ele>273.3333333333333</ele><time>2026-05-04T06:50:28Z</time></trkpt><trkpt lat="43.87541192984159" lon="12.511667710382172"><ele>273.5</ele><time>2026-05-04T06:50:29Z</time></trkpt><trkpt lat="43.875358309924145" lon="12.51158430692342"><ele>273.66666666666663</ele><time>2026-05-04T06:50:30Z</time></trkpt><trkpt lat="43.8753089536849" lon="12.51150909484591"><ele>273.8333333333333</ele><time>2026-05-04T06:50:32Z</time></trkpt><trkpt lat="43.87526082508886" lon="12.511409888193903"><ele>274.0</ele><time>2026-05-04T06:50:34Z</time></trkpt><trkpt lat="43.87521254959076" lon="12.511339295163816"><ele>274.0</ele><time>2026-05-04T06:50:35Z</time></trkpt><trkpt lat="43.87514218625715" lon="12.511252536913224"><ele>274.0</ele><time>2026-05-04T06:50:36Z</time></trkpt><trkpt lat="43.87508567412779" lon="12.511194485461731"><ele>274.0</ele><time>2026-05-04T06:50:37Z</time></trkpt><trkpt lat="43.87501993147691" lon="12.511115689314774"><ele>274.0</ele><time>2026-05-04T06:50:39Z</time></trkpt><trkpt lat="43.874911837134356" lon="12.511053509589445"><ele>274.0</ele><time>2026-05-04T06:50:41Z</time></trkpt><trkpt lat="43.874841397255864" lon="12.511002118498102"><ele>274.0</ele><time>2026-05-04T06:50:42Z</time></trkpt><trkpt lat="43.87477520474615" lon="12.510957690582456"><ele>276.2</ele><time>2026-05-04T06:50:44Z</time></trkpt><trkpt lat="43.87471428557195" lon="12.511045200352976"><ele>278.4</ele><time>2026-05-04T06:50:58Z</time></trkpt><trkpt lat="43.87461240006697" lon="12.51101816774758"><ele>280.6</ele><time>2026-05-04T06:51:24Z</time></trkpt><trkpt lat="43.87449724241582" lon="12.51097360256162"><ele>282.8</ele><time>2026-05-04T06:51:26Z</time></trkpt><trkpt lat="43.87438743226929" lon="12.510965517257336"><ele>285.0</ele><time>2026-05-04T06:51:28Z</time></trkpt><trkpt lat="43.87432249632268" lon="12.510971825938089"><ele>286.6</ele><time>2026-05-04T06:51:29Z</time></trkpt><trkpt lat="43.874243614219736" lon="12.510961782856905"><ele>288.2</ele><time>2026-05-04T06:51:30Z</time></trkpt><trkpt lat="43.87413743392603" lon="12.510892384796724"><ele>289.8</ele><time>2026-05-04T06:51:32Z</time></trkpt><trkpt lat="43.87407230878438" lon="12.51082370416559"><ele>291.4</ele><time>2026-05-04T06:51:33Z</time></trkpt><trkpt lat="43.87401074287806" lon="12.51074186379313"><ele>293.0</ele><time>2026-05-04T06:51:34Z</time></trkpt><trkpt lat="43.87394458054594" lon="12.510652046340976"><ele>293.0</ele><time>2026-05-04T06:51:35Z</time></trkpt><trkpt lat="43.87388219054863" lon="12.51055668335489"><ele>293.0</ele><time>2026-05-04T06:51:36Z</time></trkpt><trkpt lat="43.873817723731015" lon="12.51044903196459"><ele>293.0</ele><time>2026-05-04T06:51:37Z</time></trkpt><trkpt lat="43.873773070501535" lon="12.51036043690026"><ele>293.0</ele><time>2026-05-04T06:51:38Z</time></trkpt><trkpt lat="43.87376739731439" lon="12.510194043065379"><ele>293.0</ele><time>2026-05-04T06:51:40Z</time></trkpt><trkpt lat="43.8738205196449" lon="12.51009838096373"><ele>294.8</ele><time>2026-05-04T06:51:41Z</time></trkpt><trkpt lat="43.87384676786851" lon="12.509971362424793"><ele>296.6</ele><time>2026-05-04T06:51:42Z</time></trkpt><trkpt lat="43.873873909072806" lon="12.509885860534299"><ele>298.4</ele><time>2026-05-04T06:51:43Z</time></trkpt><trkpt lat="43.873871168316796" lon="12.50968090236691"><ele>300.2</ele><time>2026-05-04T06:51:45Z</time></trkpt><trkpt lat="43.87386762261331" lon="12.509547320530352"><ele>302.0</ele><time>2026-05-04T06:51:46Z</time></trkpt><trkpt lat="43.87385965006848" lon="12.509356849591171"><ele>302.8</ele><time>2026-05-04T06:51:47Z</time></trkpt><trkpt lat="43.87385849682467" lon="12.509170574523042"><ele>303.6</ele><time>2026-05-04T06:51:48Z</time></trkpt><trkpt lat="43.873853574199536" lon="12.509049328803119"><ele>304.40000000000003</ele><time>2026-05-04T06:51:49Z</time></trkpt><trkpt lat="43.87384490411818" lon="12.508943865611352"><ele>305.2</ele><time>2026-05-04T06:51:50Z</time></trkpt><trkpt lat="43.87381305140202" lon="12.508823820221108"><ele>306.0</ele><time>2026-05-04T06:51:52Z</time></trkpt><trkpt lat="43.873751286054144" lon="12.50877711446827"><ele>306.8</ele><time>2026-05-04T06:51:53Z</time></trkpt><trkpt lat="43.87366790729048" lon="12.508713705230207"><ele>307.6</ele><time>2026-05-04T06:51:54Z</time></trkpt><trkpt lat="43.873573580200876" lon="12.508629241724142"><ele>308.4</ele><time>2026-05-04T06:51:55Z</time></trkpt><trkpt lat="43.873476957453725" lon="12.508541342266524"><ele>309.2</ele><time>2026-05-04T06:51:56Z</time></trkpt><trkpt lat="43.87339595989377" lon="12.508496090769187"><ele>310.0</ele><time>2026-05-04T06:51:57Z</time></trkpt><trkpt lat="43.87332489810092" lon="12.508458402861978"><ele>312.3333333333333</ele><time>2026-05-04T06:51:58Z</time></trkpt><trkpt lat="43.87324929608363" lon="12.508432790678686"><ele>314.66666666666663</ele><time>2026-05-04T06:51:59Z</time></trkpt><trkpt lat="43.87318359489068" lon="12.508409941115513"><ele>317.0</ele><time>2026-05-04T06:52:00Z</time></trkpt><trkpt lat="43.87311244133052" lon="12.508386388682295"><ele>319.3333333333333</ele><time>2026-05-04T06:52:01Z</time></trkpt><trkpt lat="43.872987901558275" lon="12.508414374741042"><ele>321.6666666666667</ele><time>2026-05-04T06:52:03Z</time></trkpt><trkpt lat="43.87290968767104" lon="12.508435216008417"><ele>324.0</ele><time>2026-05-04T06:52:04Z</time></trkpt><trkpt lat="43.872833794864846" lon="12.508450830788131"><ele>324.0</ele><time>2026-05-04T06:52:05Z</time></trkpt><trkpt lat="43.87276586400068" lon="12.508460492436612"><ele>324.0</ele><time>2026-05-04T06:52:06Z</time></trkpt><trkpt lat="43.87266121243528" lon="12.508474331584333"><ele>324.0</ele><time>2026-05-04T06:52:08Z</time></trkpt><trkpt lat="43.87259507810933" lon="12.508487883227502"><ele>324.0</ele><time>2026-05-04T06:52:09Z</time></trkpt><trkpt lat="43.87252318979528" lon="12.5084974998338"><ele>324.0</ele><time>2026-05-04T06:52:10Z</time></trkpt><trkpt lat="43.87244282084118" lon="12.508498564177554"><ele>324.0</ele><time>2026-05-04T06:52:11Z</time></trkpt><trkpt lat="43.87236492106079" lon="12.508500354535986"><ele>325.5</ele><time>2026-05-04T06:52:12Z</time></trkpt><trkpt lat="43.872293916544926" lon="12.508513594909944"><ele>327.0</ele><time>2026-05-04T06:52:13Z</time></trkpt><trkpt lat="43.87209509373476" lon="12.508446056820752"><ele>328.5</ele><time>2026-05-04T06:52:15Z</time></trkpt><trkpt lat="43.87203120340124" lon="12.508569535951331"><ele>330.0</ele><time>2026-05-04T06:52:18Z</time></trkpt><trkpt lat="43.87199900572971" lon="12.50869898163872"><ele>330.0</ele><time>2026-05-04T06:52:19.999Z</time></trkpt><trkpt lat="43.871911421912465" lon="12.508742696070003"><ele>330.0</ele><time>2026-05-04T06:52:20.999Z</time></trkpt><trkpt lat="43.87183246460054" lon="12.508786444030115"><ele>330.0</ele><time>2026-05-04T06:52:21.999Z</time></trkpt><trkpt lat="43.871726637775254" lon="12.508829700689837"><ele>330.0</ele><time>2026-05-04T06:52:23Z</time></trkpt><trkpt lat="43.871633269480405" lon="12.50884965577815"><ele>330.0</ele><time>2026-05-04T06:52:24Z</time></trkpt><trkpt lat="43.8715667821638" lon="12.508816573266714"><ele>331.2</ele><time>2026-05-04T06:52:25Z</time></trkpt><trkpt lat="43.87148154476512" lon="12.50876389071507"><ele>332.4</ele><time>2026-05-04T06:52:27Z</time></trkpt><trkpt lat="43.871367534024216" lon="12.508674789100496"><ele>333.6</ele><time>2026-05-04T06:52:29Z</time></trkpt><trkpt lat="43.87128799472428" lon="12.50859057807581"><ele>334.8</ele><time>2026-05-04T06:52:30Z</time></trkpt><trkpt lat="43.871195327876556" lon="12.508485435834277"><ele>336.0</ele><time>2026-05-04T06:52:31Z</time></trkpt><trkpt lat="43.871080049366746" lon="12.508416877884084"><ele>337.25</ele><time>2026-05-04T06:52:32Z</time></trkpt><trkpt lat="43.87100055663116" lon="12.50836487682829"><ele>338.5</ele><time>2026-05-04T06:52:33Z</time></trkpt><trkpt lat="43.87087121474913" lon="12.508332189124909"><ele>339.75</ele><time>2026-05-04T06:52:34Z</time></trkpt><trkpt lat="43.870715651443106" lon="12.50829711898527"><ele>341.0</ele><time>2026-05-04T06:52:35Z</time></trkpt><trkpt lat="43.87058875770573" lon="12.508225896710153"><ele>343.0</ele><time>2026-05-04T06:52:36Z</time></trkpt><trkpt lat="43.87048127421897" lon="12.508166920188449"><ele>345.0</ele><time>2026-05-04T06:52:37Z</time></trkpt><trkpt lat="43.87039372751035" lon="12.508122218979635"><ele>347.0</ele><time>2026-05-04T06:52:38Z</time></trkpt><trkpt lat="43.870325849786774" lon="12.508062558248314"><ele>349.0</ele><time>2026-05-04T06:52:39Z</time></trkpt><trkpt lat="43.87026883073028" lon="12.508011012371927"><ele>351.0</ele><time>2026-05-04T06:52:40Z</time></trkpt><trkpt lat="43.87018589892889" lon="12.507938766982098"><ele>353.8</ele><time>2026-05-04T06:52:42Z</time></trkpt><trkpt lat="43.870105239200086" lon="12.50779517081221"><ele>356.6</ele><time>2026-05-04T06:52:44Z</time></trkpt><trkpt lat="43.87003658338102" lon="12.507731293661182"><ele>359.4</ele><time>2026-05-04T06:52:45Z</time></trkpt><trkpt lat="43.869971492769245" lon="12.507677426751396"><ele>362.2</ele><time>2026-05-04T06:52:46Z</time></trkpt><trkpt lat="43.86990309555637" lon="12.507627588195705"><ele>365.0</ele><time>2026-05-04T06:52:47Z</time></trkpt><trkpt lat="43.86982607212304" lon="12.507581918496076"><ele>365.0</ele><time>2026-05-04T06:52:48Z</time></trkpt><trkpt lat="43.86975458962087" lon="12.507535643817576"><ele>365.0</ele><time>2026-05-04T06:52:49Z</time></trkpt><trkpt lat="43.86968047315816" lon="12.507481280492382"><ele>365.0</ele><time>2026-05-04T06:52:50Z</time></trkpt><trkpt lat="43.86961009052408" lon="12.507429655876068"><ele>365.0</ele><time>2026-05-04T06:52:51Z</time></trkpt><trkpt lat="43.869540394044606" lon="12.50737853451972"><ele>365.0</ele><time>2026-05-04T06:52:52Z</time></trkpt><trkpt lat="43.869478171032306" lon="12.507335739139886"><ele>365.0</ele><time>2026-05-04T06:52:53Z</time></trkpt><trkpt lat="43.86941505000213" lon="12.507302035379261"><ele>365.0</ele><time>2026-05-04T06:52:54Z</time></trkpt><trkpt lat="43.869334859465475" lon="12.507260928870423"><ele>365.0</ele><time>2026-05-04T06:52:55Z</time></trkpt><trkpt lat="43.86924939543391" lon="12.50721973655487"><ele>365.0</ele><time>2026-05-04T06:52:56Z</time></trkpt><trkpt lat="43.86916663097748" lon="12.50718275175435"><ele>365.0</ele><time>2026-05-04T06:52:57Z</time></trkpt><trkpt lat="43.869077640745054" lon="12.507145668246888"><ele>365.0</ele><time>2026-05-04T06:52:58Z</time></trkpt><trkpt lat="43.86898195402999" lon="12.50710929275507"><ele>365.8</ele><time>2026-05-04T06:52:59Z</time></trkpt><trkpt lat="43.86888613120203" lon="12.507077804477122"><ele>366.6</ele><time>2026-05-04T06:53:00Z</time></trkpt><trkpt lat="43.868791435317135" lon="12.507047515605224"><ele>367.4</ele><time>2026-05-04T06:53:01Z</time></trkpt><trkpt lat="43.86869122368977" lon="12.507015462508926"><ele>368.2</ele><time>2026-05-04T06:53:02Z</time></trkpt><trkpt lat="43.868601541430564" lon="12.506979109341398"><ele>369.0</ele><time>2026-05-04T06:53:03Z</time></trkpt><trkpt lat="43.86852333367457" lon="12.506919218485715"><ele>369.4</ele><time>2026-05-04T06:53:04Z</time></trkpt><trkpt lat="43.8684492295776" lon="12.506859229876174"><ele>369.79999999999995</ele><time>2026-05-04T06:53:05Z</time></trkpt><trkpt lat="43.86839914811395" lon="12.506744809663886"><ele>370.20000000000005</ele><time>2026-05-04T06:53:06Z</time></trkpt><trkpt lat="43.86833710820018" lon="12.506649322612667"><ele>370.6</ele><time>2026-05-04T06:53:07Z</time></trkpt><trkpt lat="43.8682672419028" lon="12.50656399808453"><ele>371.0</ele><time>2026-05-04T06:53:08Z</time></trkpt><trkpt lat="43.868204659679954" lon="12.506467945589463"><ele>373.33333333333337</ele><time>2026-05-04T06:53:09Z</time></trkpt><trkpt lat="43.86813797458102" lon="12.506372180382801"><ele>375.6666666666667</ele><time>2026-05-04T06:53:10Z</time></trkpt><trkpt lat="43.8680728105084" lon="12.506315586090201"><ele>378.0</ele><time>2026-05-04T06:53:11Z</time></trkpt><trkpt lat="43.86801006389083" lon="12.506289532752389"><ele>380.33333333333337</ele><time>2026-05-04T06:53:12Z</time></trkpt><trkpt lat="43.867930818501016" lon="12.506325862165443"><ele>382.6666666666667</ele><time>2026-05-04T06:53:13Z</time></trkpt><trkpt lat="43.867870185172336" lon="12.506421041765167"><ele>385.0</ele><time>2026-05-04T06:53:14Z</time></trkpt><trkpt lat="43.86780512665395" lon="12.506464431946792"><ele>385.0</ele><time>2026-05-04T06:53:15Z</time></trkpt><trkpt lat="43.86774814419809" lon="12.506502667502826"><ele>385.0</ele><time>2026-05-04T06:53:16Z</time></trkpt><trkpt lat="43.86768246427409" lon="12.506439307337118"><ele>385.0</ele><time>2026-05-04T06:53:17Z</time></trkpt><trkpt lat="43.86760468912087" lon="12.506313015089523"><ele>385.0</ele><time>2026-05-04T06:53:19Z</time></trkpt><trkpt lat="43.867572131205" lon="12.506225226360058"><ele>385.0</ele><time>2026-05-04T06:53:20Z</time></trkpt><trkpt lat="43.86745694582265" lon="12.506217951275595"><ele>387.33333333333337</ele><time>2026-05-04T06:53:21Z</time></trkpt><trkpt lat="43.867369518981846" lon="12.506159037485634"><ele>389.6666666666667</ele><time>2026-05-04T06:53:22Z</time></trkpt><trkpt lat="43.867290838541834" lon="12.506120755628846"><ele>392.0</ele><time>2026-05-04T06:53:23Z</time></trkpt><trkpt lat="43.867212105491184" lon="12.506085995557445"><ele>394.33333333333337</ele><time>2026-05-04T06:53:24Z</time></trkpt><trkpt lat="43.86713489079521" lon="12.506056307543114"><ele>396.6666666666667</ele><time>2026-05-04T06:53:25Z</time></trkpt><trkpt lat="43.86705483529007" lon="12.506030212045419"><ele>399.0</ele><time>2026-05-04T06:53:26Z</time></trkpt><trkpt lat="43.86697802734144" lon="12.506019989962999"><ele>399.0</ele><time>2026-05-04T06:53:27Z</time></trkpt><trkpt lat="43.86690313720855" lon="12.506036112445033"><ele>399.0</ele><time>2026-05-04T06:53:28Z</time></trkpt><trkpt lat="43.86683601841383" lon="12.506072809671343"><ele>399.0</ele><time>2026-05-04T06:53:29Z</time></trkpt><trkpt lat="43.86677720775744" lon="12.506139854956338"><ele>399.0</ele><time>2026-05-04T06:53:30Z</time></trkpt><trkpt lat="43.86672146029293" lon="12.506210354732831"><ele>399.0</ele><time>2026-05-04T06:53:31Z</time></trkpt><trkpt lat="43.8666625616971" lon="12.506284475607982"><ele>399.0</ele><time>2026-05-04T06:53:32Z</time></trkpt><trkpt lat="43.8666110898921" lon="12.50635036697584"><ele>399.0</ele><time>2026-05-04T06:53:33Z</time></trkpt><trkpt lat="43.866551543987995" lon="12.506419251414647"><ele>399.8333333333333</ele><time>2026-05-04T06:53:34Z</time></trkpt><trkpt lat="43.86650162574753" lon="12.50647678107684"><ele>400.66666666666663</ele><time>2026-05-04T06:53:35Z</time></trkpt><trkpt lat="43.86641927454316" lon="12.506595102054492"><ele>401.5</ele><time>2026-05-04T06:53:37Z</time></trkpt><trkpt lat="43.866381019714886" lon="12.506671777821442"><ele>402.3333333333333</ele><time>2026-05-04T06:53:38Z</time></trkpt><trkpt lat="43.866341361924974" lon="12.506746450339724"><ele>403.16666666666663</ele><time>2026-05-04T06:53:39Z</time></trkpt><trkpt lat="43.86629035251213" lon="12.506817063745292"><ele>404.0</ele><time>2026-05-04T06:53:40Z</time></trkpt><trkpt lat="43.86623569031548" lon="12.506892147135304"><ele>404.0</ele><time>2026-05-04T06:53:41Z</time></trkpt><trkpt lat="43.86617633719281" lon="12.506980893489999"><ele>404.0</ele><time>2026-05-04T06:53:42Z</time></trkpt><trkpt lat="43.866112112109185" lon="12.507068046261654"><ele>404.0</ele><time>2026-05-04T06:53:43Z</time></trkpt><trkpt lat="43.86604222832675" lon="12.507161138973842"><ele>404.0</ele><time>2026-05-04T06:53:44Z</time></trkpt><trkpt lat="43.86596326130752" lon="12.507238586909676"><ele>404.0</ele><time>2026-05-04T06:53:45Z</time></trkpt><trkpt lat="43.865860710152646" lon="12.507263511287169"><ele>403.8333333333333</ele><time>2026-05-04T06:53:46Z</time></trkpt><trkpt lat="43.865759819022" lon="12.507287862769065"><ele>403.66666666666663</ele><time>2026-05-04T06:53:47Z</time></trkpt><trkpt lat="43.865673058324546" lon="12.507285018812848"><ele>403.5</ele><time>2026-05-04T06:53:48Z</time></trkpt><trkpt lat="43.86560069386363" lon="12.50723871399121"><ele>403.33333333333337</ele><time>2026-05-04T06:53:49Z</time></trkpt><trkpt lat="43.86553468287679" lon="12.507165681409866"><ele>403.1666666666667</ele><time>2026-05-04T06:53:50Z</time></trkpt><trkpt lat="43.86549843837734" lon="12.507058667177226"><ele>403.0</ele><time>2026-05-04T06:53:51Z</time></trkpt><trkpt lat="43.86550757715443" lon="12.506935902913055"><ele>405.59999999999997</ele><time>2026-05-04T06:53:52Z</time></trkpt><trkpt lat="43.865551265387154" lon="12.506830028388475"><ele>408.2</ele><time>2026-05-04T06:53:53Z</time></trkpt><trkpt lat="43.865594911471426" lon="12.50671160336051"><ele>410.8</ele><time>2026-05-04T06:53:54Z</time></trkpt><trkpt lat="43.86564061967636" lon="12.50658183405191"><ele>413.4</ele><time>2026-05-04T06:53:55Z</time></trkpt><trkpt lat="43.86566941748181" lon="12.506443910500705"><ele>416.0</ele><time>2026-05-04T06:53:56Z</time></trkpt><trkpt lat="43.865710298886874" lon="12.506321090775453"><ele>417.0</ele><time>2026-05-04T06:53:57Z</time></trkpt><trkpt lat="43.86575248307434" lon="12.506202282420515"><ele>418.0</ele><time>2026-05-04T06:53:58Z</time></trkpt><trkpt lat="43.865769716460164" lon="12.506080497074835"><ele>419.0</ele><time>2026-05-04T06:53:59Z</time></trkpt><trkpt lat="43.86575390871253" lon="12.505946485197372"><ele>420.0</ele><time>2026-05-04T06:54:00Z</time></trkpt><trkpt lat="43.86571422207356" lon="12.505817109731227"><ele>421.0</ele><time>2026-05-04T06:54:01Z</time></trkpt><trkpt lat="43.86563638819862" lon="12.505710293979336"><ele>421.0</ele><time>2026-05-04T06:54:02Z</time></trkpt><trkpt lat="43.86557753131626" lon="12.505651028888616"><ele>421.0</ele><time>2026-05-04T06:54:03Z</time></trkpt><trkpt lat="43.86547425620558" lon="12.505613950939908"><ele>421.0</ele><time>2026-05-04T06:54:04Z</time></trkpt><trkpt lat="43.86536535562344" lon="12.505585803261878"><ele>421.0</ele><time>2026-05-04T06:54:05Z</time></trkpt><trkpt lat="43.86526307985173" lon="12.505569525833515"><ele>421.0</ele><time>2026-05-04T06:54:06Z</time></trkpt><trkpt lat="43.86515472456788" lon="12.505541032108646"><ele>422.5</ele><time>2026-05-04T06:54:07Z</time></trkpt><trkpt lat="43.86504652165791" lon="12.505513337767235"><ele>424.0</ele><time>2026-05-04T06:54:08Z</time></trkpt><trkpt lat="43.86493721367813" lon="12.505491076008669"><ele>425.5</ele><time>2026-05-04T06:54:09Z</time></trkpt><trkpt lat="43.864815971728156" lon="12.50546002031806"><ele>427.0</ele><time>2026-05-04T06:54:09.999Z</time></trkpt><trkpt lat="43.86469059800284" lon="12.505426163766893"><ele>426.25</ele><time>2026-05-04T06:54:10.999Z</time></trkpt><trkpt lat="43.86457855073962" lon="12.505401618780661"><ele>425.5</ele><time>2026-05-04T06:54:11.999Z</time></trkpt><trkpt lat="43.86445579659079" lon="12.50537465278209"><ele>424.75</ele><time>2026-05-04T06:54:12.999Z</time></trkpt><trkpt lat="43.864333826080205" lon="12.505346989115647"><ele>424.0</ele><time>2026-05-04T06:54:13.999Z</time></trkpt><trkpt lat="43.864220775457504" lon="12.50530899941708"><ele>425.75</ele><time>2026-05-04T06:54:14.999Z</time></trkpt><trkpt lat="43.86409732522652" lon="12.505284480170031"><ele>427.5</ele><time>2026-05-04T06:54:15.999Z</time></trkpt><trkpt lat="43.8639719386388" lon="12.505254837533984"><ele>429.25</ele><time>2026-05-04T06:54:16.999Z</time></trkpt><trkpt lat="43.86384732670682" lon="12.505223498656123"><ele>431.0</ele><time>2026-05-04T06:54:17.999Z</time></trkpt><trkpt lat="43.8637350192115" lon="12.50520025803632"><ele>430.99999999999994</ele><time>2026-05-04T06:54:18.999Z</time></trkpt><trkpt lat="43.8636485640785" lon="12.50518955307784"><ele>431.0</ele><time>2026-05-04T06:54:19.999Z</time></trkpt><trkpt lat="43.86356220982053" lon="12.50520876962738"><ele>431.0</ele><time>2026-05-04T06:54:20.999Z</time></trkpt><trkpt lat="43.863469313169986" lon="12.505229281635485"><ele>431.0</ele><time>2026-05-04T06:54:21.999Z</time></trkpt><trkpt lat="43.86340092906941" lon="12.50527413933006"><ele>430.99999999999994</ele><time>2026-05-04T06:54:22.999Z</time></trkpt><trkpt lat="43.863341486959406" lon="12.505338473922718"><ele>431.0</ele><time>2026-05-04T06:54:23.999Z</time></trkpt><trkpt lat="43.8632765642362" lon="12.505424881295099"><ele>433.8</ele><time>2026-05-04T06:54:24.999Z</time></trkpt><trkpt lat="43.86320559775014" lon="12.505487645799208"><ele>436.6</ele><time>2026-05-04T06:54:25.999Z</time></trkpt><trkpt lat="43.86314832456337" lon="12.505577338300105"><ele>439.4</ele><time>2026-05-04T06:54:26.999Z</time></trkpt><trkpt lat="43.863089422162304" lon="12.505697570597604"><ele>442.2</ele><time>2026-05-04T06:54:27.999Z</time></trkpt><trkpt lat="43.863030254603174" lon="12.505821912521743"><ele>445.0</ele><time>2026-05-04T06:54:29Z</time></trkpt><trkpt lat="43.86297504795073" lon="12.505950953143175"><ele>445.0</ele><time>2026-05-04T06:54:30Z</time></trkpt><trkpt lat="43.86289898376195" lon="12.50604392084962"><ele>445.0</ele><time>2026-05-04T06:54:31Z</time></trkpt><trkpt lat="43.86282338888315" lon="12.506138984739627"><ele>445.0</ele><time>2026-05-04T06:54:32Z</time></trkpt><trkpt lat="43.862740321229055" lon="12.50617548545185"><ele>445.0</ele><time>2026-05-04T06:54:33Z</time></trkpt><trkpt lat="43.862648414679526" lon="12.506094467208277"><ele>445.0</ele><time>2026-05-04T06:54:34Z</time></trkpt><trkpt lat="43.86256790707301" lon="12.50601012357622"><ele>447.0</ele><time>2026-05-04T06:54:35Z</time></trkpt><trkpt lat="43.86247242711501" lon="12.505951300938696"><ele>449.0</ele><time>2026-05-04T06:54:36Z</time></trkpt><trkpt lat="43.862380141929926" lon="12.505908215524004"><ele>451.0</ele><time>2026-05-04T06:54:37Z</time></trkpt><trkpt lat="43.862283970341714" lon="12.505859173268961"><ele>453.0</ele><time>2026-05-04T06:54:38Z</time></trkpt><trkpt lat="43.862176439297556" lon="12.505838357690147"><ele>455.0</ele><time>2026-05-04T06:54:39Z</time></trkpt><trkpt lat="43.8620580032698" lon="12.505831565986144"><ele>455.0</ele><time>2026-05-04T06:54:40Z</time></trkpt><trkpt lat="43.86193496286738" lon="12.505838544318085"><ele>455.0</ele><time>2026-05-04T06:54:41Z</time></trkpt><trkpt lat="43.86180850090577" lon="12.505850720323098"><ele>455.0</ele><time>2026-05-04T06:54:42Z</time></trkpt><trkpt lat="43.86168283143027" lon="12.505861098305823"><ele>455.0</ele><time>2026-05-04T06:54:43Z</time></trkpt><trkpt lat="43.86155358247233" lon="12.505864807840744"><ele>456.25</ele><time>2026-05-04T06:54:44Z</time></trkpt><trkpt lat="43.86142274584652" lon="12.505867709734625"><ele>457.5</ele><time>2026-05-04T06:54:45Z</time></trkpt><trkpt lat="43.861298072185654" lon="12.505858334346145"><ele>458.75</ele><time>2026-05-04T06:54:46Z</time></trkpt><trkpt lat="43.861179765800756" lon="12.505846393461912"><ele>460.0</ele><time>2026-05-04T06:54:47Z</time></trkpt><trkpt lat="43.86106450320697" lon="12.505839913086866"><ele>462.0</ele><time>2026-05-04T06:54:48Z</time></trkpt><trkpt lat="43.86094881159654" lon="12.50582213213266"><ele>464.0</ele><time>2026-05-04T06:54:49Z</time></trkpt><trkpt lat="43.86082301106306" lon="12.505804178818574"><ele>466.0</ele><time>2026-05-04T06:54:50Z</time></trkpt><trkpt lat="43.8606973950294" lon="12.505791820674265"><ele>468.0</ele><time>2026-05-04T06:54:51Z</time></trkpt><trkpt lat="43.8605669704457" lon="12.505789748402776"><ele>468.0</ele><time>2026-05-04T06:54:52Z</time></trkpt><trkpt lat="43.86044038477672" lon="12.5058153768799"><ele>468.0</ele><time>2026-05-04T06:54:53Z</time></trkpt><trkpt lat="43.86030963267" lon="12.505838000604841"><ele>468.0</ele><time>2026-05-04T06:54:54Z</time></trkpt><trkpt lat="43.860174387657274" lon="12.505871886726306"><ele>468.0</ele><time>2026-05-04T06:54:55Z</time></trkpt><trkpt lat="43.86005387920618" lon="12.505908245100162"><ele>470.1666666666667</ele><time>2026-05-04T06:54:56Z</time></trkpt><trkpt lat="43.85995855598428" lon="12.505957231423796"><ele>472.33333333333337</ele><time>2026-05-04T06:54:57Z</time></trkpt><trkpt lat="43.8598756769158" lon="12.506012454363873"><ele>474.5</ele><time>2026-05-04T06:54:58Z</time></trkpt><trkpt lat="43.85980663213643" lon="12.50605909747746"><ele>476.6666666666667</ele><time>2026-05-04T06:54:59Z</time></trkpt><trkpt lat="43.85971796319336" lon="12.50605221634356"><ele>478.83333333333337</ele><time>2026-05-04T06:55:01Z</time></trkpt><trkpt lat="43.85970732582405" lon="12.505931495881354"><ele>481.0</ele><time>2026-05-04T06:55:02Z</time></trkpt><trkpt lat="43.859641166975486" lon="12.505763330820319"><ele>481.0</ele><time>2026-05-04T06:55:04Z</time></trkpt><trkpt lat="43.85959780994876" lon="12.505643073687501"><ele>481.0</ele><time>2026-05-04T06:55:05Z</time></trkpt><trkpt lat="43.85954360255294" lon="12.505504799835698"><ele>481.0</ele><time>2026-05-04T06:55:06Z</time></trkpt><trkpt lat="43.85948984112209" lon="12.505354577510325"><ele>481.0</ele><time>2026-05-04T06:55:07Z</time></trkpt><trkpt lat="43.859435224086994" lon="12.505206174730178"><ele>482.75</ele><time>2026-05-04T06:55:08Z</time></trkpt><trkpt lat="43.85937924611431" lon="12.505061778559678"><ele>484.5</ele><time>2026-05-04T06:55:09Z</time></trkpt><trkpt lat="43.85934068306372" lon="12.504905700239865"><ele>486.25</ele><time>2026-05-04T06:55:10Z</time></trkpt><trkpt lat="43.85927431126538" lon="12.504775666086553"><ele>488.0</ele><time>2026-05-04T06:55:11Z</time></trkpt><trkpt lat="43.85922555926207" lon="12.504624267491064"><ele>484.0</ele><time>2026-05-04T06:55:12Z</time></trkpt><trkpt lat="43.85917348976767" lon="12.504473683431893"><ele>480.0</ele><time>2026-05-04T06:55:13Z</time></trkpt><trkpt lat="43.85914617113985" lon="12.504316009057273"><ele>476.0</ele><time>2026-05-04T06:55:14Z</time></trkpt><trkpt lat="43.85912905156819" lon="12.504162598591291"><ele>472.0</ele><time>2026-05-04T06:55:15Z</time></trkpt><trkpt lat="43.85911397433524" lon="12.504013760089036"><ele>472.00000000000006</ele><time>2026-05-04T06:55:16Z</time></trkpt><trkpt lat="43.85907300614383" lon="12.503876705055207"><ele>472.0</ele><time>2026-05-04T06:55:17Z</time></trkpt><trkpt lat="43.85904224059951" lon="12.5037564457017"><ele>472.0</ele><time>2026-05-04T06:55:18Z</time></trkpt><trkpt lat="43.85903125146319" lon="12.503655590734592"><ele>472.0</ele><time>2026-05-04T06:55:19Z</time></trkpt><trkpt lat="43.859042957065846" lon="12.503550514109717"><ele>472.00000000000006</ele><time>2026-05-04T06:55:20Z</time></trkpt><trkpt lat="43.859073503233134" lon="12.503438411990992"><ele>472.0</ele><time>2026-05-04T06:55:21Z</time></trkpt><trkpt lat="43.85912484192945" lon="12.503318336791"><ele>472.0</ele><time>2026-05-04T06:55:22Z</time></trkpt><trkpt lat="43.85918058502191" lon="12.503199567945783"><ele>472.00000000000006</ele><time>2026-05-04T06:55:23Z</time></trkpt><trkpt lat="43.859237303689326" lon="12.503075345925227"><ele>472.00000000000006</ele><time>2026-05-04T06:55:24Z</time></trkpt><trkpt lat="43.85928676297977" lon="12.502942246833818"><ele>472.0</ele><time>2026-05-04T06:55:25Z</time></trkpt><trkpt lat="43.85933937937483" lon="12.50281869343099"><ele>472.0</ele><time>2026-05-04T06:55:26Z</time></trkpt><trkpt lat="43.8593912095972" lon="12.502712514175368"><ele>469.1666666666667</ele><time>2026-05-04T06:55:27Z</time></trkpt><trkpt lat="43.8594364925505" lon="12.50262463056556"><ele>466.33333333333337</ele><time>2026-05-04T06:55:28Z</time></trkpt><trkpt lat="43.85949052102224" lon="12.50253954303808"><ele>463.5</ele><time>2026-05-04T06:55:29Z</time></trkpt><trkpt lat="43.85954427682115" lon="12.502472822508421"><ele>460.66666666666663</ele><time>2026-05-04T06:55:30Z</time></trkpt><trkpt lat="43.85960395259694" lon="12.502424518554307"><ele>457.8333333333333</ele><time>2026-05-04T06:55:31Z</time></trkpt><trkpt lat="43.85966747405158" lon="12.502381923290333"><ele>455.0</ele><time>2026-05-04T06:55:32Z</time></trkpt><trkpt lat="43.859778637028256" lon="12.502307749744377"><ele>455.0</ele><time>2026-05-04T06:55:34Z</time></trkpt><trkpt lat="43.85985299540882" lon="12.502271268811803"><ele>455.0</ele><time>2026-05-04T06:55:35Z</time></trkpt><trkpt lat="43.859920732779194" lon="12.502233255215165"><ele>455.0</ele><time>2026-05-04T06:55:36Z</time></trkpt><trkpt lat="43.85998317780289" lon="12.502181554508422"><ele>455.0</ele><time>2026-05-04T06:55:37Z</time></trkpt><trkpt lat="43.860037097534864" lon="12.502118666420236"><ele>455.0</ele><time>2026-05-04T06:55:38Z</time></trkpt><trkpt lat="43.86007528157201" lon="12.502042565920311"><ele>455.0</ele><time>2026-05-04T06:55:39Z</time></trkpt><trkpt lat="43.86009692855079" lon="12.501958935312352"><ele>455.0</ele><time>2026-05-04T06:55:40Z</time></trkpt><trkpt lat="43.86010747110548" lon="12.501863231617257"><ele>454.6</ele><time>2026-05-04T06:55:41Z</time></trkpt><trkpt lat="43.86009664559661" lon="12.501760597372877"><ele>454.2</ele><time>2026-05-04T06:55:42Z</time></trkpt><trkpt lat="43.86005952816743" lon="12.501633457888722"><ele>453.79999999999995</ele><time>2026-05-04T06:55:43Z</time></trkpt><trkpt lat="43.86001621650202" lon="12.501496768326165"><ele>453.4</ele><time>2026-05-04T06:55:44Z</time></trkpt><trkpt lat="43.85998469237896" lon="12.501341741945886"><ele>453.0</ele><time>2026-05-04T06:55:45Z</time></trkpt><trkpt lat="43.85998365573465" lon="12.501189172787946"><ele>451.59999999999997</ele><time>2026-05-04T06:55:46Z</time></trkpt><trkpt lat="43.86000122438713" lon="12.501030652607005"><ele>450.19999999999993</ele><time>2026-05-04T06:55:47Z</time></trkpt><trkpt lat="43.86003649457676" lon="12.500875294860913"><ele>448.8</ele><time>2026-05-04T06:55:48Z</time></trkpt><trkpt lat="43.86007550143964" lon="12.5007495780451"><ele>447.4</ele><time>2026-05-04T06:55:49Z</time></trkpt><trkpt lat="43.86009952274545" lon="12.500650594096811"><ele>446.0</ele><time>2026-05-04T06:55:50Z</time></trkpt><trkpt lat="43.86011606348592" lon="12.500549411692168"><ele>445.99999999999994</ele><time>2026-05-04T06:55:51Z</time></trkpt><trkpt lat="43.86011189255159" lon="12.50044631084424"><ele>446.0</ele><time>2026-05-04T06:55:52Z</time></trkpt><trkpt lat="43.860083016963294" lon="12.500356572364737"><ele>446.0</ele><time>2026-05-04T06:55:52.999Z</time></trkpt><trkpt lat="43.86003796630724" lon="12.50028061521225"><ele>446.0</ele><time>2026-05-04T06:55:53.999Z</time></trkpt><trkpt lat="43.85996037971372" lon="12.500220917764537"><ele>445.99999999999994</ele><time>2026-05-04T06:55:54.999Z</time></trkpt><trkpt lat="43.85987197433414" lon="12.50014507221232"><ele>446.0</ele><time>2026-05-04T06:55:55.999Z</time></trkpt><trkpt lat="43.859759365835416" lon="12.50010631664678"><ele>445.0</ele><time>2026-05-04T06:55:56.999Z</time></trkpt><trkpt lat="43.85963848677292" lon="12.500074168495399"><ele>444.0</ele><time>2026-05-04T06:55:57.999Z</time></trkpt><trkpt lat="43.859505022345225" lon="12.500044627895571"><ele>443.0</ele><time>2026-05-04T06:55:58.999Z</time></trkpt><trkpt lat="43.85938584301678" lon="12.500020766653954"><ele>442.0</ele><time>2026-05-04T06:55:59.999Z</time></trkpt><trkpt lat="43.859268193632445" lon="12.49998965921034"><ele>441.5</ele><time>2026-05-04T06:56:00.999Z</time></trkpt><trkpt lat="43.85914636037195" lon="12.499947825473896"><ele>441.0</ele><time>2026-05-04T06:56:01.999Z</time></trkpt><trkpt lat="43.8590440130016" lon="12.499882795610855"><ele>440.5</ele><time>2026-05-04T06:56:02.999Z</time></trkpt><trkpt lat="43.85895106862443" lon="12.499792023171661"><ele>440.0</ele><time>2026-05-04T06:56:03.999Z</time></trkpt><trkpt lat="43.85886133328011" lon="12.499695002355637"><ele>440.0</ele><time>2026-05-04T06:56:04.999Z</time></trkpt><trkpt lat="43.85878657936802" lon="12.499589606544532"><ele>440.0</ele><time>2026-05-04T06:56:05.999Z</time></trkpt><trkpt lat="43.85873468388983" lon="12.499466425904794"><ele>440.0</ele><time>2026-05-04T06:56:06.999Z</time></trkpt><trkpt lat="43.858693387913945" lon="12.499342596879828"><ele>440.0</ele><time>2026-05-04T06:56:07.999Z</time></trkpt><trkpt lat="43.85864664267641" lon="12.499229718727058"><ele>440.0</ele><time>2026-05-04T06:56:08.999Z</time></trkpt><trkpt lat="43.85861642035468" lon="12.499118866789575"><ele>437.8333333333333</ele><time>2026-05-04T06:56:09.999Z</time></trkpt><trkpt lat="43.85859094566343" lon="12.499018683764886"><ele>435.66666666666663</ele><time>2026-05-04T06:56:10.999Z</time></trkpt><trkpt lat="43.85857322649598" lon="12.49891902056192"><ele>433.5</ele><time>2026-05-04T06:56:11.999Z</time></trkpt><trkpt lat="43.85855918258123" lon="12.49879677432775"><ele>431.33333333333337</ele><time>2026-05-04T06:56:12.999Z</time></trkpt><trkpt lat="43.85856891317646" lon="12.498659283273513"><ele>429.1666666666667</ele><time>2026-05-04T06:56:13.999Z</time></trkpt><trkpt lat="43.858591646300866" lon="12.498513201249288"><ele>427.0</ele><time>2026-05-04T06:56:14.999Z</time></trkpt><trkpt lat="43.85863980723536" lon="12.498407126432113"><ele>427.0</ele><time>2026-05-04T06:56:15.999Z</time></trkpt><trkpt lat="43.858644840914835" lon="12.498302202408434"><ele>427.00000000000006</ele><time>2026-05-04T06:56:16.999Z</time></trkpt><trkpt lat="43.85864511687068" lon="12.498142065388974"><ele>427.00000000000006</ele><time>2026-05-04T06:56:18.999Z</time></trkpt><trkpt lat="43.85859142025877" lon="12.498068671422592"><ele>427.0</ele><time>2026-05-04T06:56:19.999Z</time></trkpt><trkpt lat="43.858497310474476" lon="12.49804044878649"><ele>427.0</ele><time>2026-05-04T06:56:20.999Z</time></trkpt><trkpt lat="43.858389174146474" lon="12.498049982152187"><ele>427.0</ele><time>2026-05-04T06:56:21.999Z</time></trkpt><trkpt lat="43.85828797803846" lon="12.497998190617245"><ele>427.00000000000006</ele><time>2026-05-04T06:56:22.999Z</time></trkpt><trkpt lat="43.85818272550761" lon="12.497954625746322"><ele>427.00000000000006</ele><time>2026-05-04T06:56:23.999Z</time></trkpt><trkpt lat="43.85809061769574" lon="12.497910289877908"><ele>427.0</ele><time>2026-05-04T06:56:24.999Z</time></trkpt><trkpt lat="43.85801728635545" lon="12.497870179790004"><ele>427.0</ele><time>2026-05-04T06:56:25.999Z</time></trkpt><trkpt lat="43.85796107140311" lon="12.497830334126842"><ele>426.8</ele><time>2026-05-04T06:56:26.999Z</time></trkpt><trkpt lat="43.85789797186991" lon="12.49777257050024"><ele>426.6</ele><time>2026-05-04T06:56:27.999Z</time></trkpt><trkpt lat="43.85783427560291" lon="12.49769304817546"><ele>426.40000000000003</ele><time>2026-05-04T06:56:28.999Z</time></trkpt><trkpt lat="43.85776334915441" lon="12.497595853462533"><ele>426.20000000000005</ele><time>2026-05-04T06:56:29.999Z</time></trkpt><trkpt lat="43.85767247494806" lon="12.49752032456955"><ele>426.0</ele><time>2026-05-04T06:56:30.999Z</time></trkpt><trkpt lat="43.85758910709455" lon="12.4974204868336"><ele>426.0</ele><time>2026-05-04T06:56:31.999Z</time></trkpt><trkpt lat="43.85752232703753" lon="12.497321371532056"><ele>426.0</ele><time>2026-05-04T06:56:32.999Z</time></trkpt><trkpt lat="43.85744929560986" lon="12.497240327592902"><ele>426.0</ele><time>2026-05-04T06:56:34Z</time></trkpt><trkpt lat="43.85742216834611" lon="12.497114193423222"><ele>426.0</ele><time>2026-05-04T06:56:35Z</time></trkpt><trkpt lat="43.85741378122894" lon="12.496978471100471"><ele>426.0</ele><time>2026-05-04T06:56:36Z</time></trkpt><trkpt lat="43.857390358904674" lon="12.496826471055751"><ele>425.0</ele><time>2026-05-04T06:56:37Z</time></trkpt><trkpt lat="43.857349022053405" lon="12.496675787670982"><ele>424.0</ele><time>2026-05-04T06:56:38Z</time></trkpt><trkpt lat="43.85732210599473" lon="12.49652726627387"><ele>423.0</ele><time>2026-05-04T06:56:39Z</time></trkpt><trkpt lat="43.857290952519804" lon="12.496381782725988"><ele>422.0</ele><time>2026-05-04T06:56:40Z</time></trkpt><trkpt lat="43.8572516073792" lon="12.496272660410154"><ele>421.0</ele><time>2026-05-04T06:56:41Z</time></trkpt><trkpt lat="43.857213500750575" lon="12.496196886058385"><ele>420.1666666666667</ele><time>2026-05-04T06:56:42Z</time></trkpt><trkpt lat="43.85714862883238" lon="12.496107747106578"><ele>419.33333333333337</ele><time>2026-05-04T06:56:44Z</time></trkpt><trkpt lat="43.85709770363832" lon="12.496052499437404"><ele>418.5</ele><time>2026-05-04T06:56:45Z</time></trkpt><trkpt lat="43.85703276247554" lon="12.495971357240975"><ele>417.66666666666663</ele><time>2026-05-04T06:56:46Z</time></trkpt><trkpt lat="43.8569871828068" lon="12.495878829038542"><ele>416.8333333333333</ele><time>2026-05-04T06:56:47Z</time></trkpt><trkpt lat="43.856938538897865" lon="12.495788808125756"><ele>416.0</ele><time>2026-05-04T06:56:48Z</time></trkpt><trkpt lat="43.85684201999453" lon="12.49572387625573"><ele>416.0</ele><time>2026-05-04T06:56:49Z</time></trkpt><trkpt lat="43.856744672502316" lon="12.495644084055845"><ele>416.0</ele><time>2026-05-04T06:56:50Z</time></trkpt><trkpt lat="43.85663763356276" lon="12.495557433792342"><ele>416.0</ele><time>2026-05-04T06:56:51Z</time></trkpt><trkpt lat="43.85655256502853" lon="12.49548950025851"><ele>416.0</ele><time>2026-05-04T06:56:52Z</time></trkpt><trkpt lat="43.856454652715804" lon="12.495411310037824"><ele>416.0</ele><time>2026-05-04T06:56:53Z</time></trkpt><trkpt lat="43.856370182004135" lon="12.495340950872906"><ele>416.0</ele><time>2026-05-04T06:56:54Z</time></trkpt><trkpt lat="43.85628260787825" lon="12.495264436106364"><ele>416.0</ele><time>2026-05-04T06:56:55Z</time></trkpt><trkpt lat="43.856195566558036" lon="12.495200797736622"><ele>416.0</ele><time>2026-05-04T06:56:56Z</time></trkpt><trkpt lat="43.85611208082915" lon="12.495142532657692"><ele>416.0</ele><time>2026-05-04T06:56:57Z</time></trkpt><trkpt lat="43.856005878165846" lon="12.49511161042196"><ele>416.0</ele><time>2026-05-04T06:56:58Z</time></trkpt><trkpt lat="43.85589136710629" lon="12.495115176404644"><ele>418.5</ele><time>2026-05-04T06:56:59Z</time></trkpt><trkpt lat="43.85576678164732" lon="12.495077774414511"><ele>421.0</ele><time>2026-05-04T06:57:00Z</time></trkpt><trkpt lat="43.85563963638872" lon="12.495061898864554"><ele>423.5</ele><time>2026-05-04T06:57:01Z</time></trkpt><trkpt lat="43.85551458422521" lon="12.49504874475565"><ele>426.0</ele><time>2026-05-04T06:57:02Z</time></trkpt><trkpt lat="43.85538006428176" lon="12.49503664341478"><ele>426.0</ele><time>2026-05-04T06:57:03Z</time></trkpt><trkpt lat="43.85525211150624" lon="12.495005609396294"><ele>426.0</ele><time>2026-05-04T06:57:04Z</time></trkpt><trkpt lat="43.855119816605985" lon="12.494957288027946"><ele>426.0</ele><time>2026-05-04T06:57:05Z</time></trkpt><trkpt lat="43.85499143785155" lon="12.494891061062088"><ele>426.0</ele><time>2026-05-04T06:57:06Z</time></trkpt><trkpt lat="43.854865746159646" lon="12.49483144681964"><ele>428.20000000000005</ele><time>2026-05-04T06:57:07Z</time></trkpt><trkpt lat="43.85475118642499" lon="12.494785596599547"><ele>430.40000000000003</ele><time>2026-05-04T06:57:08Z</time></trkpt><trkpt lat="43.854646724983944" lon="12.494757954682"><ele>432.6</ele><time>2026-05-04T06:57:09Z</time></trkpt><trkpt lat="43.85457250489982" lon="12.49475228476527"><ele>434.8</ele><time>2026-05-04T06:57:10Z</time></trkpt><trkpt lat="43.85449586953353" lon="12.494789182461675"><ele>437.0</ele><time>2026-05-04T06:57:11Z</time></trkpt><trkpt lat="43.854437068433185" lon="12.49487197024484"><ele>436.99999999999994</ele><time>2026-05-04T06:57:12Z</time></trkpt><trkpt lat="43.8543985037888" lon="12.494995497108738"><ele>437.0</ele><time>2026-05-04T06:57:13Z</time></trkpt><trkpt lat="43.85435564194114" lon="12.495102805715954"><ele>437.0</ele><time>2026-05-04T06:57:14Z</time></trkpt><trkpt lat="43.85426430013344" lon="12.495159681478492"><ele>437.0</ele><time>2026-05-04T06:57:16Z</time></trkpt><trkpt lat="43.854191661382664" lon="12.49514926608393"><ele>436.99999999999994</ele><time>2026-05-04T06:57:17Z</time></trkpt><trkpt lat="43.85412804021499" lon="12.495084883163404"><ele>437.0</ele><time>2026-05-04T06:57:18Z</time></trkpt><trkpt lat="43.85406015289613" lon="12.495084653771364"><ele>440.6</ele><time>2026-05-04T06:57:19Z</time></trkpt><trkpt lat="43.85383507365224" lon="12.495055887390144"><ele>444.20000000000005</ele><time>2026-05-04T06:57:21Z</time></trkpt><trkpt lat="43.85375109441721" lon="12.495056928822414"><ele>447.8</ele><time>2026-05-04T06:57:22Z</time></trkpt><trkpt lat="43.85368133570167" lon="12.495071351058915"><ele>451.4</ele><time>2026-05-04T06:57:23Z</time></trkpt><trkpt lat="43.85362355915391" lon="12.49512116783628"><ele>455.0</ele><time>2026-05-04T06:57:24Z</time></trkpt><trkpt lat="43.85351413542119" lon="12.495228245410209"><ele>454.99999999999994</ele><time>2026-05-04T06:57:26Z</time></trkpt><trkpt lat="43.85347177377498" lon="12.495322630889794"><ele>455.0</ele><time>2026-05-04T06:57:27Z</time></trkpt><trkpt lat="43.853451675180715" lon="12.49541102739842"><ele>455.0</ele><time>2026-05-04T06:57:28Z</time></trkpt><trkpt lat="43.853375730717495" lon="12.495481226941322"><ele>455.0</ele><time>2026-05-04T06:57:30Z</time></trkpt><trkpt lat="43.85330829881173" lon="12.495431094478175"><ele>454.99999999999994</ele><time>2026-05-04T06:57:31Z</time></trkpt><trkpt lat="43.853235264399096" lon="12.495439422064084"><ele>455.0</ele><time>2026-05-04T06:57:32Z</time></trkpt><trkpt lat="43.85316783558263" lon="12.495447110477853"><ele>458.99999999999994</ele><time>2026-05-04T06:57:33Z</time></trkpt><trkpt lat="43.85309692732943" lon="12.49545519563315"><ele>463.0</ele><time>2026-05-04T06:57:34Z</time></trkpt><trkpt lat="43.85302651747074" lon="12.495464957920165"><ele>467.0</ele><time>2026-05-04T06:57:35Z</time></trkpt><trkpt lat="43.852939393131024" lon="12.495497769980979"><ele>471.0</ele><time>2026-05-04T06:57:36Z</time></trkpt><trkpt lat="43.852854382758686" lon="12.495500061041971"><ele>474.99999999999994</ele><time>2026-05-04T06:57:37Z</time></trkpt><trkpt lat="43.852773563775195" lon="12.49554579371321"><ele>479.0</ele><time>2026-05-04T06:57:38Z</time></trkpt><trkpt lat="43.852707357962814" lon="12.495638081507744"><ele>479.0</ele><time>2026-05-04T06:57:39Z</time></trkpt><trkpt lat="43.852631422425546" lon="12.495712031135673"><ele>479.0</ele><time>2026-05-04T06:57:40Z</time></trkpt><trkpt lat="43.852537431545805" lon="12.495777872661156"><ele>479.0</ele><time>2026-05-04T06:57:41Z</time></trkpt><trkpt lat="43.85244567069973" lon="12.495852672627688"><ele>479.0</ele><time>2026-05-04T06:57:42Z</time></trkpt><trkpt lat="43.85233871340288" lon="12.495914703995505"><ele>479.0</ele><time>2026-05-04T06:57:43Z</time></trkpt><trkpt lat="43.852209727716534" lon="12.495958107989143"><ele>481.2</ele><time>2026-05-04T06:57:44Z</time></trkpt><trkpt lat="43.852071462314186" lon="12.495989609819825"><ele>483.4</ele><time>2026-05-04T06:57:45Z</time></trkpt><trkpt lat="43.851974563822594" lon="12.496001712011664"><ele>485.6</ele><time>2026-05-04T06:57:46Z</time></trkpt><trkpt lat="43.85187784246038" lon="12.496013075031616"><ele>487.8</ele><time>2026-05-04T06:57:47Z</time></trkpt><trkpt lat="43.851788414558506" lon="12.49602393546397"><ele>490.0</ele><time>2026-05-04T06:57:48Z</time></trkpt><trkpt lat="43.85170649503481" lon="12.496038695295962"><ele>491.2</ele><time>2026-05-04T06:57:49Z</time></trkpt><trkpt lat="43.8516398302029" lon="12.496064019396636"><ele>492.4</ele><time>2026-05-04T06:57:50Z</time></trkpt><trkpt lat="43.85155718403979" lon="12.496121966333513"><ele>493.6</ele><time>2026-05-04T06:57:52Z</time></trkpt><trkpt lat="43.85144955767334" lon="12.495868158515563"><ele>494.8</ele><time>2026-05-04T07:02:31.999Z</time></trkpt><trkpt lat="43.851443922737126" lon="12.495764523703004"><ele>496.0</ele><time>2026-05-04T07:02:32.999Z</time></trkpt><trkpt lat="43.85141003217905" lon="12.495686141466008"><ele>496.0</ele><time>2026-05-04T07:02:33.999Z</time></trkpt><trkpt lat="43.85136957387191" lon="12.495513240488721"><ele>496.0</ele><time>2026-05-04T07:02:35.999Z</time></trkpt><trkpt lat="43.851338222232705" lon="12.49541667803146"><ele>496.0</ele><time>2026-05-04T07:02:36.999Z</time></trkpt><trkpt lat="43.851295796258526" lon="12.495297322380072"><ele>496.0</ele><time>2026-05-04T07:02:37.999Z</time></trkpt><trkpt lat="43.85125007398623" lon="12.49515557033779"><ele>496.0</ele><time>2026-05-04T07:02:38.999Z</time></trkpt><trkpt lat="43.85122666250706" lon="12.495020823710467"><ele>494.20000000000005</ele><time>2026-05-04T07:02:39.999Z</time></trkpt><trkpt lat="43.85120725792698" lon="12.494893330153003"><ele>492.40000000000003</ele><time>2026-05-04T07:02:40.999Z</time></trkpt><trkpt lat="43.85119967476409" lon="12.494766851430233"><ele>490.6</ele><time>2026-05-04T07:02:41.999Z</time></trkpt><trkpt lat="43.85119994770073" lon="12.494618515842589"><ele>488.8</ele><time>2026-05-04T07:02:42.999Z</time></trkpt><trkpt lat="43.85118948146265" lon="12.494469088063735"><ele>487.0</ele><time>2026-05-04T07:02:43.999Z</time></trkpt><trkpt lat="43.85117145493855" lon="12.494334620512571"><ele>485.6666666666667</ele><time>2026-05-04T07:02:44.999Z</time></trkpt><trkpt lat="43.85115270783636" lon="12.494222709582456"><ele>484.33333333333337</ele><time>2026-05-04T07:02:45.999Z</time></trkpt><trkpt lat="43.85112587427193" lon="12.494132822498894"><ele>483.0</ele><time>2026-05-04T07:02:46.999Z</time></trkpt><trkpt lat="43.851131210199746" lon="12.494042761601765"><ele>481.66666666666663</ele><time>2026-05-04T07:02:47.999Z</time></trkpt><trkpt lat="43.85112250827101" lon="12.49394613946946"><ele>480.3333333333333</ele><time>2026-05-04T07:02:48.999Z</time></trkpt><trkpt lat="43.851072214560524" lon="12.493811599068014"><ele>479.0</ele><time>2026-05-04T07:02:49.999Z</time></trkpt><trkpt lat="43.85104849698437" lon="12.493644372333684"><ele>480.2</ele><time>2026-05-04T07:02:50.999Z</time></trkpt><trkpt lat="43.851020839594945" lon="12.493489339169273"><ele>481.4</ele><time>2026-05-04T07:02:51.999Z</time></trkpt><trkpt lat="43.85101013711937" lon="12.493352015057688"><ele>482.6</ele><time>2026-05-04T07:02:52.999Z</time></trkpt><trkpt lat="43.85099207373629" lon="12.493238027175789"><ele>483.8</ele><time>2026-05-04T07:02:53.999Z</time></trkpt><trkpt lat="43.85094494022664" lon="12.493124891175936"><ele>485.0</ele><time>2026-05-04T07:02:54.999Z</time></trkpt><trkpt lat="43.850862419149145" lon="12.492995806048821"><ele>484.4</ele><time>2026-05-04T07:02:55.999Z</time></trkpt><trkpt lat="43.8507910318137" lon="12.492827475819068"><ele>483.8</ele><time>2026-05-04T07:02:56.999Z</time></trkpt><trkpt lat="43.85074377319199" lon="12.492708262344003"><ele>483.20000000000005</ele><time>2026-05-04T07:02:57.999Z</time></trkpt><trkpt lat="43.850713428339496" lon="12.492622352070935"><ele>482.6</ele><time>2026-05-04T07:02:58.999Z</time></trkpt><trkpt lat="43.85068480500214" lon="12.492529292111978"><ele>482.0</ele><time>2026-05-04T07:02:59.999Z</time></trkpt><trkpt lat="43.850657274642344" lon="12.492397458530995"><ele>481.99999999999994</ele><time>2026-05-04T07:03:00.999Z</time></trkpt><trkpt lat="43.8506325264077" lon="12.492267935331284"><ele>482.0</ele><time>2026-05-04T07:03:01.999Z</time></trkpt><trkpt lat="43.850603449134695" lon="12.492170409129276"><ele>482.0</ele><time>2026-05-04T07:03:02.999Z</time></trkpt><trkpt lat="43.85053440448718" lon="12.492065457175372"><ele>482.0</ele><time>2026-05-04T07:03:03.999Z</time></trkpt><trkpt lat="43.85050414190535" lon="12.491934012612369"><ele>481.99999999999994</ele><time>2026-05-04T07:03:04.999Z</time></trkpt><trkpt lat="43.850485440506795" lon="12.491833763189938"><ele>482.0</ele><time>2026-05-04T07:03:05.999Z</time></trkpt><trkpt lat="43.85048666121522" lon="12.491744796515848"><ele>481.20000000000005</ele><time>2026-05-04T07:03:06.999Z</time></trkpt><trkpt lat="43.85047496043839" lon="12.491571567654299"><ele>480.40000000000003</ele><time>2026-05-04T07:03:08.999Z</time></trkpt><trkpt lat="43.85045391002807" lon="12.491440679789504"><ele>479.59999999999997</ele><time>2026-05-04T07:03:09.999Z</time></trkpt><trkpt lat="43.85041205292554" lon="12.491295177942382"><ele>478.79999999999995</ele><time>2026-05-04T07:03:10.999Z</time></trkpt><trkpt lat="43.850387881760774" lon="12.491151614503936"><ele>478.0</ele><time>2026-05-04T07:03:11.999Z</time></trkpt><trkpt lat="43.85038170571181" lon="12.491010707641472"><ele>477.79999999999995</ele><time>2026-05-04T07:03:12.999Z</time></trkpt><trkpt lat="43.850355118272866" lon="12.490879844065127"><ele>477.59999999999997</ele><time>2026-05-04T07:03:13.999Z</time></trkpt><trkpt lat="43.850332891573935" lon="12.490760571843373"><ele>477.40000000000003</ele><time>2026-05-04T07:03:14.999Z</time></trkpt><trkpt lat="43.85030581343079" lon="12.490649212748211"><ele>477.20000000000005</ele><time>2026-05-04T07:03:15.999Z</time></trkpt><trkpt lat="43.85025325095516" lon="12.490543509946862"><ele>477.0</ele><time>2026-05-04T07:03:16.999Z</time></trkpt><trkpt lat="43.85021374897254" lon="12.490421144505449"><ele>475.75</ele><time>2026-05-04T07:03:17.999Z</time></trkpt><trkpt lat="43.85017815517509" lon="12.490274439563509"><ele>474.5</ele><time>2026-05-04T07:03:18.999Z</time></trkpt><trkpt lat="43.85013688429278" lon="12.490098091335561"><ele>473.25</ele><time>2026-05-04T07:03:19.999Z</time></trkpt><trkpt lat="43.85007980636551" lon="12.48990743436749"><ele>472.0</ele><time>2026-05-04T07:03:20.999Z</time></trkpt><trkpt lat="43.85003214993762" lon="12.489755947760079"><ele>473.6666666666667</ele><time>2026-05-04T07:03:21.999Z</time></trkpt><trkpt lat="43.850005777489486" lon="12.4896569017809"><ele>475.33333333333337</ele><time>2026-05-04T07:03:22.999Z</time></trkpt><trkpt lat="43.84997728552061" lon="12.489536526710744"><ele>477.0</ele><time>2026-05-04T07:03:23.999Z</time></trkpt><trkpt lat="43.849948452192336" lon="12.489416570354853"><ele>478.66666666666663</ele><time>2026-05-04T07:03:24.999Z</time></trkpt><trkpt lat="43.84991593935076" lon="12.489334388344036"><ele>480.3333333333333</ele><time>2026-05-04T07:03:25.999Z</time></trkpt><trkpt lat="43.84987609439415" lon="12.489194923322831"><ele>482.0</ele><time>2026-05-04T07:03:27.999Z</time></trkpt><trkpt lat="43.84982308671353" lon="12.489049863911934"><ele>481.8333333333333</ele><time>2026-05-04T07:03:29.999Z</time></trkpt><trkpt lat="43.84978143694842" lon="12.488945663628824"><ele>481.66666666666663</ele><time>2026-05-04T07:03:30.999Z</time></trkpt><trkpt lat="43.849739223772495" lon="12.488854388923123"><ele>481.5</ele><time>2026-05-04T07:03:31.999Z</time></trkpt><trkpt lat="43.84973565944984" lon="12.488764081927487"><ele>481.33333333333337</ele><time>2026-05-04T07:03:32.999Z</time></trkpt><trkpt lat="43.84970959806067" lon="12.488630899134147"><ele>481.1666666666667</ele><time>2026-05-04T07:03:33.999Z</time></trkpt><trkpt lat="43.84967399294826" lon="12.488504298306687"><ele>481.0</ele><time>2026-05-04T07:03:34.999Z</time></trkpt><trkpt lat="43.84963420068153" lon="12.48838320743032"><ele>480.99999999999994</ele><time>2026-05-04T07:03:35.999Z</time></trkpt><trkpt lat="43.849602839917715" lon="12.488285881090832"><ele>481.0</ele><time>2026-05-04T07:03:36.999Z</time></trkpt><trkpt lat="43.84958106150114" lon="12.488195126514642"><ele>480.99999999999994</ele><time>2026-05-04T07:03:37.999Z</time></trkpt><trkpt lat="43.849595082380446" lon="12.488098942973904"><ele>480.99999999999994</ele><time>2026-05-04T07:03:38.999Z</time></trkpt><trkpt lat="43.84959698105727" lon="12.488005206502466"><ele>481.0</ele><time>2026-05-04T07:03:39.999Z</time></trkpt><trkpt lat="43.849592135249374" lon="12.48791191847462"><ele>480.99999999999994</ele><time>2026-05-04T07:03:40.999Z</time></trkpt><trkpt lat="43.84961639844625" lon="12.487824072749643"><ele>480.99999999999994</ele><time>2026-05-04T07:03:41.999Z</time></trkpt><trkpt lat="43.84971035613919" lon="12.487724425036905"><ele>481.6</ele><time>2026-05-04T07:03:43.999Z</time></trkpt><trkpt lat="43.84979532002752" lon="12.487654860747343"><ele>482.20000000000005</ele><time>2026-05-04T07:03:44.999Z</time></trkpt><trkpt lat="43.84988992512419" lon="12.487571673373768"><ele>482.79999999999995</ele><time>2026-05-04T07:03:45.999Z</time></trkpt><trkpt lat="43.84995801116736" lon="12.487493670653144"><ele>483.4</ele><time>2026-05-04T07:03:46.999Z</time></trkpt><trkpt lat="43.850001065276146" lon="12.487338290472676"><ele>484.0</ele><time>2026-05-04T07:03:48.999Z</time></trkpt><trkpt lat="43.85001141769522" lon="12.48720825777369"><ele>486.0</ele><time>2026-05-04T07:03:49.999Z</time></trkpt><trkpt lat="43.85001768013249" lon="12.487073821937745"><ele>488.0</ele><time>2026-05-04T07:03:50.999Z</time></trkpt><trkpt lat="43.850008988049694" lon="12.486962663834547"><ele>490.0</ele><time>2026-05-04T07:03:51.999Z</time></trkpt><trkpt lat="43.84998953018311" lon="12.486843329990828"><ele>492.0</ele><time>2026-05-04T07:03:52.999Z</time></trkpt><trkpt lat="43.84997161255486" lon="12.486698901782974"><ele>494.0</ele><time>2026-05-04T07:03:53.999Z</time></trkpt><trkpt lat="43.84996046696825" lon="12.486535837232433"><ele>493.99999999999994</ele><time>2026-05-04T07:03:54.999Z</time></trkpt><trkpt lat="43.84994988633133" lon="12.486387708341406"><ele>494.0</ele><time>2026-05-04T07:03:55.999Z</time></trkpt><trkpt lat="43.8499389350813" lon="12.486264803279441"><ele>494.0</ele><time>2026-05-04T07:03:56.999Z</time></trkpt><trkpt lat="43.84992427389804" lon="12.48616166898094"><ele>494.0</ele><time>2026-05-04T07:03:57.999Z</time></trkpt><trkpt lat="43.849916728640075" lon="12.486056585271687"><ele>493.99999999999994</ele><time>2026-05-04T07:03:58.999Z</time></trkpt><trkpt lat="43.84990210927028" lon="12.485953102207631"><ele>494.0</ele><time>2026-05-04T07:03:59.999Z</time></trkpt><trkpt lat="43.849885578213936" lon="12.485814700641328"><ele>496.0</ele><time>2026-05-04T07:04:00.999Z</time></trkpt><trkpt lat="43.84985674986286" lon="12.485652105219852"><ele>498.0</ele><time>2026-05-04T07:04:01.999Z</time></trkpt><trkpt lat="43.84983051955927" lon="12.485536333481154"><ele>500.0</ele><time>2026-05-04T07:04:02.999Z</time></trkpt><trkpt lat="43.84981618118981" lon="12.48544539507434"><ele>502.0</ele><time>2026-05-04T07:04:03.999Z</time></trkpt><trkpt lat="43.849819067656696" lon="12.485266651317154"><ele>504.0</ele><time>2026-05-04T07:04:05.999Z</time></trkpt><trkpt lat="43.84982208772016" lon="12.485135270024784"><ele>506.2</ele><time>2026-05-04T07:04:06.999Z</time></trkpt><trkpt lat="43.849819881584786" lon="12.484994411572591"><ele>508.4</ele><time>2026-05-04T07:04:07.999Z</time></trkpt><trkpt lat="43.849821686481995" lon="12.484857698467344"><ele>510.6</ele><time>2026-05-04T07:04:08.999Z</time></trkpt><trkpt lat="43.84983596538771" lon="12.484716184745297"><ele>512.8</ele><time>2026-05-04T07:04:09.999Z</time></trkpt><trkpt lat="43.84985138177617" lon="12.484543067107904"><ele>515.0</ele><time>2026-05-04T07:04:10.999Z</time></trkpt><trkpt lat="43.849853661075485" lon="12.484419820667812"><ele>516.3333333333333</ele><time>2026-05-04T07:04:11.999Z</time></trkpt><trkpt lat="43.84985700175799" lon="12.48430445832511"><ele>517.6666666666666</ele><time>2026-05-04T07:04:12.999Z</time></trkpt><trkpt lat="43.84986575984506" lon="12.484145944661199"><ele>519.0</ele><time>2026-05-04T07:04:13.999Z</time></trkpt><trkpt lat="43.849876797528715" lon="12.484036376703642"><ele>520.3333333333334</ele><time>2026-05-04T07:04:14.999Z</time></trkpt><trkpt lat="43.84989370204516" lon="12.483943154180217"><ele>521.6666666666667</ele><time>2026-05-04T07:04:15.999Z</time></trkpt><trkpt lat="43.8499252391868" lon="12.483832881362298"><ele>523.0</ele><time>2026-05-04T07:04:16.999Z</time></trkpt><trkpt lat="43.84996776897681" lon="12.4837310787042"><ele>523.1999999999999</ele><time>2026-05-04T07:04:17.999Z</time></trkpt><trkpt lat="43.85002369451632" lon="12.483606631902115"><ele>523.4</ele><time>2026-05-04T07:04:18.999Z</time></trkpt><trkpt lat="43.850083447056186" lon="12.483477912954399"><ele>523.5999999999999</ele><time>2026-05-04T07:04:19.999Z</time></trkpt><trkpt lat="43.85012869409967" lon="12.483360920749554"><ele>523.8</ele><time>2026-05-04T07:04:20.999Z</time></trkpt><trkpt lat="43.85015480018958" lon="12.483246291432526"><ele>524.0</ele><time>2026-05-04T07:04:21.999Z</time></trkpt><trkpt lat="43.8501809665786" lon="12.48311827426923"><ele>522.25</ele><time>2026-05-04T07:04:22.999Z</time></trkpt><trkpt lat="43.85021628957233" lon="12.48296103397023"><ele>520.5</ele><time>2026-05-04T07:04:23.999Z</time></trkpt><trkpt lat="43.850271572732446" lon="12.482818865392678"><ele>518.75</ele><time>2026-05-04T07:04:24.999Z</time></trkpt><trkpt lat="43.85031590770609" lon="12.482688105896996"><ele>517.0</ele><time>2026-05-04T07:04:25.999Z</time></trkpt><trkpt lat="43.85038435533623" lon="12.482536947795788"><ele>520.2</ele><time>2026-05-04T07:04:26.999Z</time></trkpt><trkpt lat="43.85044168797186" lon="12.482408898803188"><ele>523.4000000000001</ele><time>2026-05-04T07:04:27.999Z</time></trkpt><trkpt lat="43.85049829738784" lon="12.482295261088694"><ele>526.5999999999999</ele><time>2026-05-04T07:04:28.999Z</time></trkpt><trkpt lat="43.85053797837501" lon="12.482209801812035"><ele>529.8</ele><time>2026-05-04T07:04:29.999Z</time></trkpt><trkpt lat="43.850566281498494" lon="12.48207590384059"><ele>533.0</ele><time>2026-05-04T07:04:31.999Z</time></trkpt><trkpt lat="43.85056077153541" lon="12.481943790377715"><ele>537.4</ele><time>2026-05-04T07:04:33.999Z</time></trkpt><trkpt lat="43.85047604395233" lon="12.481892835849926"><ele>541.8</ele><time>2026-05-04T07:04:34.999Z</time></trkpt><trkpt lat="43.8504190218401" lon="12.481817778222943"><ele>546.2</ele><time>2026-05-04T07:04:35.999Z</time></trkpt><trkpt lat="43.85034801090766" lon="12.481748014242514"><ele>550.6</ele><time>2026-05-04T07:04:36.999Z</time></trkpt><trkpt lat="43.85027223605554" lon="12.481670280108919"><ele>555.0</ele><time>2026-05-04T07:04:37.999Z</time></trkpt><trkpt lat="43.850171850710566" lon="12.481606666348828"><ele>555.1666666666666</ele><time>2026-05-04T07:04:38.999Z</time></trkpt><trkpt lat="43.85011089894822" lon="12.481559593918703"><ele>555.3333333333334</ele><time>2026-05-04T07:04:39.999Z</time></trkpt><trkpt lat="43.85005770420091" lon="12.481505981535685"><ele>555.5</ele><time>2026-05-04T07:04:40.999Z</time></trkpt><trkpt lat="43.850021426696244" lon="12.48135934285432"><ele>555.6666666666667</ele><time>2026-05-04T07:04:42.999Z</time></trkpt><trkpt lat="43.85000265719433" lon="12.481252535027615"><ele>555.8333333333334</ele><time>2026-05-04T07:04:43.999Z</time></trkpt><trkpt lat="43.8499633930172" lon="12.481140748986247"><ele>556.0</ele><time>2026-05-04T07:04:44.999Z</time></trkpt><trkpt lat="43.84991693691632" lon="12.48104381278793"><ele>556.0</ele><time>2026-05-04T07:04:45.999Z</time></trkpt><trkpt lat="43.84985318064885" lon="12.480939624829038"><ele>556.0</ele><time>2026-05-04T07:04:46.999Z</time></trkpt><trkpt lat="43.84977761498143" lon="12.480845861523962"><ele>556.0</ele><time>2026-05-04T07:04:47.999Z</time></trkpt><trkpt lat="43.849685791058455" lon="12.480779763411709"><ele>556.0</ele><time>2026-05-04T07:04:48.999Z</time></trkpt><trkpt lat="43.849602091741126" lon="12.4807259233235"><ele>556.0</ele><time>2026-05-04T07:04:49.999Z</time></trkpt><trkpt lat="43.849528313421935" lon="12.48069574351723"><ele>556.0</ele><time>2026-05-04T07:04:50.999Z</time></trkpt><trkpt lat="43.849451975967256" lon="12.480599040829247"><ele>556.0</ele><time>2026-05-04T07:04:52.999Z</time></trkpt><trkpt lat="43.84942080767315" lon="12.480506941173863"><ele>556.0</ele><time>2026-05-04T07:04:53.999Z</time></trkpt><trkpt lat="43.84937325275705" lon="12.48040359054479"><ele>556.0</ele><time>2026-05-04T07:04:54.999Z</time></trkpt><trkpt lat="43.849296777412" lon="12.480309652011766"><ele>556.0</ele><time>2026-05-04T07:04:55.999Z</time></trkpt><trkpt lat="43.84920288306154" lon="12.48024920602373"><ele>553.25</ele><time>2026-05-04T07:04:56.999Z</time></trkpt><trkpt lat="43.849110224730985" lon="12.480138735963363"><ele>550.5</ele><time>2026-05-04T07:04:57.999Z</time></trkpt><trkpt lat="43.84901790605136" lon="12.480018203931396"><ele>547.75</ele><time>2026-05-04T07:04:58.999Z</time></trkpt><trkpt lat="43.84893477621528" lon="12.479899461153762"><ele>545.0</ele><time>2026-05-04T07:04:59.999Z</time></trkpt><trkpt lat="43.848853726313756" lon="12.47981004218428"><ele>545.0</ele><time>2026-05-04T07:05:00.999Z</time></trkpt><trkpt lat="43.848795036290554" lon="12.47972581149514"><ele>545.0</ele><time>2026-05-04T07:05:01.999Z</time></trkpt><trkpt lat="43.848732393883566" lon="12.479653695141671"><ele>545.0</ele><time>2026-05-04T07:05:02.999Z</time></trkpt><trkpt lat="43.8486764927429" lon="12.47957312905349"><ele>545.0</ele><time>2026-05-04T07:05:03.999Z</time></trkpt><trkpt lat="43.848588616993865" lon="12.479428883143774"><ele>545.0</ele><time>2026-05-04T07:05:04.999Z</time></trkpt><trkpt lat="43.848483465474374" lon="12.479323866412761"><ele>543.0</ele><time>2026-05-04T07:05:05.999Z</time></trkpt><trkpt lat="43.84837204096027" lon="12.479225575952526"><ele>541.0</ele><time>2026-05-04T07:05:06.999Z</time></trkpt><trkpt lat="43.84829478565583" lon="12.479087238168313"><ele>539.0</ele><time>2026-05-04T07:05:07.999Z</time></trkpt><trkpt lat="43.84822012951188" lon="12.47898527594328"><ele>537.0</ele><time>2026-05-04T07:05:08.999Z</time></trkpt><trkpt lat="43.848130254557034" lon="12.478874026175736"><ele>537.0</ele><time>2026-05-04T07:05:09.999Z</time></trkpt><trkpt lat="43.84803782772195" lon="12.478790054297885"><ele>537.0</ele><time>2026-05-04T07:05:10.999Z</time></trkpt><trkpt lat="43.84795480485428" lon="12.478670772330606"><ele>537.0</ele><time>2026-05-04T07:05:11.999Z</time></trkpt><trkpt lat="43.84785114244581" lon="12.478545989932986"><ele>537.0</ele><time>2026-05-04T07:05:12.999Z</time></trkpt><trkpt lat="43.84775889944055" lon="12.478429049318892"><ele>536.5</ele><time>2026-05-04T07:05:13.999Z</time></trkpt><trkpt lat="43.84768522421856" lon="12.478322781971505"><ele>536.0</ele><time>2026-05-04T07:05:14.999Z</time></trkpt><trkpt lat="43.84762510239349" lon="12.47822533412229"><ele>535.5</ele><time>2026-05-04T07:05:15.999Z</time></trkpt><trkpt lat="43.84757199550525" lon="12.478134119971731"><ele>535.0</ele><time>2026-05-04T07:05:16.999Z</time></trkpt><trkpt lat="43.847528276878386" lon="12.478049290830512"><ele>534.5</ele><time>2026-05-04T07:05:17.999Z</time></trkpt><trkpt lat="43.847504193795935" lon="12.477950456949351"><ele>534.0</ele><time>2026-05-04T07:05:18.999Z</time></trkpt><trkpt lat="43.84747577894503" lon="12.47782729321783"><ele>531.8333333333334</ele><time>2026-05-04T07:05:19.999Z</time></trkpt><trkpt lat="43.84744866166933" lon="12.477720691873758"><ele>529.6666666666666</ele><time>2026-05-04T07:05:20.999Z</time></trkpt><trkpt lat="43.847411239173226" lon="12.477641410155984"><ele>527.5</ele><time>2026-05-04T07:05:21.999Z</time></trkpt><trkpt lat="43.84734433839334" lon="12.477580570781363"><ele>525.3333333333333</ele><time>2026-05-04T07:05:22.999Z</time></trkpt><trkpt lat="43.847264563382794" lon="12.477534915412532"><ele>523.1666666666666</ele><time>2026-05-04T07:05:23.999Z</time></trkpt><trkpt lat="43.84714647765813" lon="12.477549728913141"><ele>521.0</ele><time>2026-05-04T07:05:24.999Z</time></trkpt><trkpt lat="43.84702368948239" lon="12.477557735287707"><ele>521.0</ele><time>2026-05-04T07:05:25.999Z</time></trkpt><trkpt lat="43.84690915087957" lon="12.477561994579625"><ele>521.0</ele><time>2026-05-04T07:05:26.999Z</time></trkpt><trkpt lat="43.8468026486478" lon="12.477548867171082"><ele>521.0</ele><time>2026-05-04T07:05:27.999Z</time></trkpt><trkpt lat="43.846702231896806" lon="12.477516719864614"><ele>521.0</ele><time>2026-05-04T07:05:28.999Z</time></trkpt><trkpt lat="43.846620614080585" lon="12.47748455398093"><ele>521.0</ele><time>2026-05-04T07:05:29.999Z</time></trkpt><trkpt lat="43.84653066486891" lon="12.477438683160663"><ele>520.3333333333333</ele><time>2026-05-04T07:05:30.999Z</time></trkpt><trkpt lat="43.84644272274614" lon="12.477381805427715"><ele>519.6666666666666</ele><time>2026-05-04T07:05:31.999Z</time></trkpt><trkpt lat="43.846374797976004" lon="12.477316072539283"><ele>519.0</ele><time>2026-05-04T07:05:32.999Z</time></trkpt><trkpt lat="43.84629845429236" lon="12.477257658108437"><ele>518.3333333333334</ele><time>2026-05-04T07:05:33.999Z</time></trkpt><trkpt lat="43.846268027616546" lon="12.477176533308988"><ele>517.6666666666667</ele><time>2026-05-04T07:05:34.999Z</time></trkpt><trkpt lat="43.84627322555385" lon="12.477071900829047"><ele>517.0</ele><time>2026-05-04T07:05:35.999Z</time></trkpt><trkpt lat="43.84627473125127" lon="12.47695792995084"><ele>515.6666666666667</ele><time>2026-05-04T07:05:36.999Z</time></trkpt><trkpt lat="43.84626968934267" lon="12.476831584129592"><ele>514.3333333333334</ele><time>2026-05-04T07:05:37.999Z</time></trkpt><trkpt lat="43.84626081531606" lon="12.476704823955904"><ele>513.0</ele><time>2026-05-04T07:05:38.999Z</time></trkpt><trkpt lat="43.84624096943556" lon="12.476596525637484"><ele>511.66666666666663</ele><time>2026-05-04T07:05:39.999Z</time></trkpt><trkpt lat="43.84622651166338" lon="12.476495615861607"><ele>510.3333333333333</ele><time>2026-05-04T07:05:40.999Z</time></trkpt><trkpt lat="43.846204955742074" lon="12.476384589819663"><ele>509.0</ele><time>2026-05-04T07:05:41.999Z</time></trkpt><trkpt lat="43.84616646362604" lon="12.476274978259461"><ele>508.49999999999994</ele><time>2026-05-04T07:05:42.999Z</time></trkpt><trkpt lat="43.846142233805466" lon="12.47614894030032"><ele>508.0</ele><time>2026-05-04T07:05:43.999Z</time></trkpt><trkpt lat="43.84611184793096" lon="12.476050437448576"><ele>507.5</ele><time>2026-05-04T07:05:44.999Z</time></trkpt><trkpt lat="43.84607714972685" lon="12.47596370262989"><ele>507.0</ele><time>2026-05-04T07:05:45.999Z</time></trkpt><trkpt lat="43.84602880681909" lon="12.475868705532394"><ele>506.49999999999994</ele><time>2026-05-04T07:05:46.999Z</time></trkpt><trkpt lat="43.845986940014214" lon="12.475794876918757"><ele>506.0</ele><time>2026-05-04T07:05:47.999Z</time></trkpt><trkpt lat="43.84592528974342" lon="12.475714047161436"><ele>505.99999999999994</ele><time>2026-05-04T07:05:48.999Z</time></trkpt><trkpt lat="43.84584869496165" lon="12.475641690928908"><ele>506.0</ele><time>2026-05-04T07:05:49.999Z</time></trkpt><trkpt lat="43.845786267947865" lon="12.475576137669316"><ele>506.0</ele><time>2026-05-04T07:05:50.999Z</time></trkpt><trkpt lat="43.84573517380501" lon="12.475519816688427"><ele>506.0</ele><time>2026-05-04T07:05:51.999Z</time></trkpt><trkpt lat="43.84566681627407" lon="12.47539745316057"><ele>505.99999999999994</ele><time>2026-05-04T07:05:53.999Z</time></trkpt><trkpt lat="43.845642615518784" lon="12.475297414703654"><ele>506.0</ele><time>2026-05-04T07:05:55.999Z</time></trkpt><trkpt lat="43.84572247173785" lon="12.47520415312397"><ele>504.8333333333333</ele><time>2026-05-04T07:05:58.999Z</time></trkpt><trkpt lat="43.84580006679446" lon="12.475179352444878"><ele>503.66666666666663</ele><time>2026-05-04T07:05:59.999Z</time></trkpt><trkpt lat="43.84588323665268" lon="12.475151328076823"><ele>502.5</ele><time>2026-05-04T07:06:00.999Z</time></trkpt><trkpt lat="43.84596221429701" lon="12.475121276426563"><ele>501.33333333333337</ele><time>2026-05-04T07:06:01.999Z</time></trkpt><trkpt lat="43.84603422615584" lon="12.47508865950978"><ele>500.1666666666667</ele><time>2026-05-04T07:06:02.999Z</time></trkpt><trkpt lat="43.84611514524061" lon="12.475057466403099"><ele>499.0</ele><time>2026-05-04T07:06:03.999Z</time></trkpt><trkpt lat="43.84621346031818" lon="12.475022670226124"><ele>497.6666666666667</ele><time>2026-05-04T07:06:04.999Z</time></trkpt><trkpt lat="43.84627734097524" lon="12.474988850286202"><ele>496.33333333333337</ele><time>2026-05-04T07:06:05.999Z</time></trkpt><trkpt lat="43.84636615061535" lon="12.474926588305914"><ele>495.0</ele><time>2026-05-04T07:06:06.999Z</time></trkpt><trkpt lat="43.84646288222413" lon="12.474882167612575"><ele>493.66666666666663</ele><time>2026-05-04T07:06:07.999Z</time></trkpt><trkpt lat="43.84654057395062" lon="12.474832094161396"><ele>492.3333333333333</ele><time>2026-05-04T07:06:08.999Z</time></trkpt><trkpt lat="43.846605247693226" lon="12.474741499197638"><ele>491.0</ele><time>2026-05-04T07:06:09.999Z</time></trkpt><trkpt lat="43.84666173592421" lon="12.474643945973408"><ele>491.4</ele><time>2026-05-04T07:06:10.999Z</time></trkpt><trkpt lat="43.84669926928935" lon="12.474533946681456"><ele>491.8</ele><time>2026-05-04T07:06:11.999Z</time></trkpt><trkpt lat="43.84671480711204" lon="12.474404557824903"><ele>492.19999999999993</ele><time>2026-05-04T07:06:12.999Z</time></trkpt><trkpt lat="43.8467341195036" lon="12.47426181578532"><ele>492.59999999999997</ele><time>2026-05-04T07:06:13.999Z</time></trkpt><trkpt lat="43.84672081802031" lon="12.474109786904041"><ele>493.0</ele><time>2026-05-04T07:06:14.999Z</time></trkpt><trkpt lat="43.84668168475105" lon="12.473964508069935"><ele>493.0</ele><time>2026-05-04T07:06:15.999Z</time></trkpt><trkpt lat="43.84666914435254" lon="12.47381796918534"><ele>492.99999999999994</ele><time>2026-05-04T07:06:16.999Z</time></trkpt><trkpt lat="43.84662491406855" lon="12.473676177571418"><ele>492.99999999999994</ele><time>2026-05-04T07:06:17.999Z</time></trkpt><trkpt lat="43.84657322960536" lon="12.473548473579568"><ele>493.0</ele><time>2026-05-04T07:06:18.999Z</time></trkpt><trkpt lat="43.846501553349576" lon="12.473421401322213"><ele>493.0</ele><time>2026-05-04T07:06:19.999Z</time></trkpt><trkpt lat="43.84643689738037" lon="12.47330950517404"><ele>491.2</ele><time>2026-05-04T07:06:20.999Z</time></trkpt><trkpt lat="43.846361031734546" lon="12.473179804857331"><ele>489.4</ele><time>2026-05-04T07:06:21.999Z</time></trkpt><trkpt lat="43.846314119598766" lon="12.473041327078091"><ele>487.59999999999997</ele><time>2026-05-04T07:06:22.999Z</time></trkpt><trkpt lat="43.84628555745487" lon="12.472891738853297"><ele>485.79999999999995</ele><time>2026-05-04T07:06:23.999Z</time></trkpt><trkpt lat="43.8462720794762" lon="12.472746270231358"><ele>484.0</ele><time>2026-05-04T07:06:24.999Z</time></trkpt><trkpt lat="43.84625158758457" lon="12.472591866822885"><ele>481.0</ele><time>2026-05-04T07:06:25.999Z</time></trkpt><trkpt lat="43.846239165136936" lon="12.472451904328901"><ele>478.0</ele><time>2026-05-04T07:06:26.999Z</time></trkpt><trkpt lat="43.846208295352234" lon="12.47232520824041"><ele>475.0</ele><time>2026-05-04T07:06:27.999Z</time></trkpt><trkpt lat="43.8461792635823" lon="12.472203201747718"><ele>472.0</ele><time>2026-05-04T07:06:28.999Z</time></trkpt><trkpt lat="43.84608109227598" lon="12.472133693780805"><ele>469.0</ele><time>2026-05-04T07:06:29.999Z</time></trkpt><trkpt lat="43.84598870269071" lon="12.472066102700156"><ele>469.5</ele><time>2026-05-04T07:06:30.999Z</time></trkpt><trkpt lat="43.84586835837286" lon="12.472064395925237"><ele>470.0</ele><time>2026-05-04T07:06:31.999Z</time></trkpt><trkpt lat="43.84574191824907" lon="12.472046807006636"><ele>470.5</ele><time>2026-05-04T07:06:32.999Z</time></trkpt><trkpt lat="43.8456331879859" lon="12.471962536735868"><ele>471.0</ele><time>2026-05-04T07:06:33.999Z</time></trkpt><trkpt lat="43.845504086364066" lon="12.471861919165447"><ele>471.0</ele><time>2026-05-04T07:06:34.999Z</time></trkpt><trkpt lat="43.845387511139116" lon="12.471766104600627"><ele>471.0</ele><time>2026-05-04T07:06:35.999Z</time></trkpt><trkpt lat="43.84526986759855" lon="12.471683740069556"><ele>471.0</ele><time>2026-05-04T07:06:36.999Z</time></trkpt><trkpt lat="43.84517018419694" lon="12.471606490139763"><ele>471.0</ele><time>2026-05-04T07:06:37.999Z</time></trkpt><trkpt lat="43.84509058784334" lon="12.47151432551941"><ele>471.4</ele><time>2026-05-04T07:06:38.999Z</time></trkpt><trkpt lat="43.84501600665325" lon="12.471436212320938"><ele>471.8</ele><time>2026-05-04T07:06:39.999Z</time></trkpt><trkpt lat="43.84495330590904" lon="12.471297868615693"><ele>472.19999999999993</ele><time>2026-05-04T07:06:40.999Z</time></trkpt><trkpt lat="43.84490714029064" lon="12.471159528426575"><ele>472.59999999999997</ele><time>2026-05-04T07:06:41.999Z</time></trkpt><trkpt lat="43.84485438152978" lon="12.471030039576007"><ele>473.0</ele><time>2026-05-04T07:06:42.999Z</time></trkpt><trkpt lat="43.844814259857934" lon="12.470922203537542"><ele>470.66666666666663</ele><time>2026-05-04T07:06:43.999Z</time></trkpt><trkpt lat="43.84476040636086" lon="12.470846713503587"><ele>468.3333333333333</ele><time>2026-05-04T07:06:44.999Z</time></trkpt><trkpt lat="43.844697528114985" lon="12.470803036984947"><ele>466.0</ele><time>2026-05-04T07:06:45.999Z</time></trkpt><trkpt lat="43.84462527907939" lon="12.47081234287577"><ele>463.66666666666663</ele><time>2026-05-04T07:06:46.999Z</time></trkpt><trkpt lat="43.8445482533661" lon="12.47086240189039"><ele>461.3333333333333</ele><time>2026-05-04T07:06:47.999Z</time></trkpt><trkpt lat="43.84446442920045" lon="12.470945277188475"><ele>459.0</ele><time>2026-05-04T07:06:48.999Z</time></trkpt><trkpt lat="43.84437149104864" lon="12.471040649791933"><ele>458.25</ele><time>2026-05-04T07:06:49.999Z</time></trkpt><trkpt lat="43.8442679636399" lon="12.47111783326275"><ele>457.5</ele><time>2026-05-04T07:06:50.999Z</time></trkpt><trkpt lat="43.844153225468624" lon="12.471183013568629"><ele>456.75</ele><time>2026-05-04T07:06:51.999Z</time></trkpt><trkpt lat="43.84404075876595" lon="12.47121953904966"><ele>456.0</ele><time>2026-05-04T07:06:52.999Z</time></trkpt><trkpt lat="43.84394332877624" lon="12.471211402231864"><ele>456.0</ele><time>2026-05-04T07:06:53.999Z</time></trkpt><trkpt lat="43.843852258579545" lon="12.471127868064508"><ele>456.0</ele><time>2026-05-04T07:06:54.999Z</time></trkpt><trkpt lat="43.84375578763154" lon="12.47103249916123"><ele>456.0</ele><time>2026-05-04T07:06:55.999Z</time></trkpt><trkpt lat="43.8436466436462" lon="12.470941037778578"><ele>456.0</ele><time>2026-05-04T07:06:56.999Z</time></trkpt><trkpt lat="43.84357468509035" lon="12.470804273009392"><ele>456.0</ele><time>2026-05-04T07:06:57.999Z</time></trkpt><trkpt lat="43.84351231512948" lon="12.470662164716147"><ele>456.0</ele><time>2026-05-04T07:06:58.999Z</time></trkpt><trkpt lat="43.8434719475904" lon="12.470508692373032"><ele>456.0</ele><time>2026-05-04T07:06:59.999Z</time></trkpt><trkpt lat="43.843422244848" lon="12.470362383250187"><ele>456.0</ele><time>2026-05-04T07:07:00.999Z</time></trkpt><trkpt lat="43.84340380713376" lon="12.470217998828769"><ele>452.8</ele><time>2026-05-04T07:07:01.999Z</time></trkpt><trkpt lat="43.843376299593764" lon="12.470095163487624"><ele>449.6</ele><time>2026-05-04T07:07:03Z</time></trkpt><trkpt lat="43.84335441135675" lon="12.469995895316284"><ele>446.4</ele><time>2026-05-04T07:07:04Z</time></trkpt><trkpt lat="43.843334141062535" lon="12.469901424743805"><ele>443.2</ele><time>2026-05-04T07:07:05Z</time></trkpt><trkpt lat="43.84330313426184" lon="12.469753696300353"><ele>440.0</ele><time>2026-05-04T07:07:07Z</time></trkpt><trkpt lat="43.84313956229231" lon="12.469626295135917"><ele>439.66666666666663</ele><time>2026-05-04T07:07:09Z</time></trkpt><trkpt lat="43.843058064114956" lon="12.469527515321026"><ele>439.3333333333333</ele><time>2026-05-04T07:07:11Z</time></trkpt><trkpt lat="43.84299610845495" lon="12.469454837357787"><ele>439.0</ele><time>2026-05-04T07:07:12Z</time></trkpt><trkpt lat="43.842925319446934" lon="12.469380294309477"><ele>438.66666666666663</ele><time>2026-05-04T07:07:13Z</time></trkpt><trkpt lat="43.84286760486427" lon="12.469321550592554"><ele>438.3333333333333</ele><time>2026-05-04T07:07:14Z</time></trkpt><trkpt lat="43.84281159963239" lon="12.469265345724605"><ele>438.0</ele><time>2026-05-04T07:07:15Z</time></trkpt><trkpt lat="43.84271048109432" lon="12.469192092546706"><ele>438.0</ele><time>2026-05-04T07:07:17Z</time></trkpt><trkpt lat="43.84266932221991" lon="12.469119370045687"><ele>438.0</ele><time>2026-05-04T07:07:18Z</time></trkpt><trkpt lat="43.84261242407786" lon="12.469028013289607"><ele>438.0</ele><time>2026-05-04T07:07:19Z</time></trkpt><trkpt lat="43.84255544596467" lon="12.46895688828626"><ele>438.0</ele><time>2026-05-04T07:07:20Z</time></trkpt><trkpt lat="43.842482372528124" lon="12.468903065509052"><ele>438.0</ele><time>2026-05-04T07:07:21Z</time></trkpt><trkpt lat="43.84240668920505" lon="12.46888842702134"><ele>438.0</ele><time>2026-05-04T07:07:22Z</time></trkpt><trkpt lat="43.842342135148" lon="12.468888871000383"><ele>437.79999999999995</ele><time>2026-05-04T07:07:23Z</time></trkpt><trkpt lat="43.842228558791106" lon="12.468875497657255"><ele>437.59999999999997</ele><time>2026-05-04T07:07:25Z</time></trkpt><trkpt lat="43.84213538302774" lon="12.468814786561877"><ele>437.40000000000003</ele><time>2026-05-04T07:07:27Z</time></trkpt><trkpt lat="43.84203111146292" lon="12.46869235810462"><ele>437.20000000000005</ele><time>2026-05-04T07:07:29Z</time></trkpt><trkpt lat="43.841950062640485" lon="12.468624062332522"><ele>437.0</ele><time>2026-05-04T07:07:30Z</time></trkpt><trkpt lat="43.84187226056138" lon="12.46856391158466"><ele>437.49999999999994</ele><time>2026-05-04T07:07:31Z</time></trkpt><trkpt lat="43.84176087555577" lon="12.468505608631897"><ele>438.0</ele><time>2026-05-04T07:07:32Z</time></trkpt><trkpt lat="43.84167133538256" lon="12.468470660071974"><ele>438.5</ele><time>2026-05-04T07:07:33Z</time></trkpt><trkpt lat="43.84160944608369" lon="12.468414745355783"><ele>439.0</ele><time>2026-05-04T07:07:34Z</time></trkpt><trkpt lat="43.84155590203592" lon="12.468340540344942"><ele>439.49999999999994</ele><time>2026-05-04T07:07:35Z</time></trkpt><trkpt lat="43.84149536244727" lon="12.468265268335639"><ele>440.0</ele><time>2026-05-04T07:07:36Z</time></trkpt><trkpt lat="43.84140274948729" lon="12.468156490752008"><ele>439.99999999999994</ele><time>2026-05-04T07:07:37Z</time></trkpt><trkpt lat="43.841338624419016" lon="12.468101703028417"><ele>440.0</ele><time>2026-05-04T07:07:38Z</time></trkpt><trkpt lat="43.841256791729144" lon="12.468043216542561"><ele>440.0</ele><time>2026-05-04T07:07:39Z</time></trkpt><trkpt lat="43.84118450119769" lon="12.467998381517969"><ele>440.0</ele><time>2026-05-04T07:07:40Z</time></trkpt><trkpt lat="43.84110129965042" lon="12.467954463864269"><ele>439.99999999999994</ele><time>2026-05-04T07:07:41Z</time></trkpt><trkpt lat="43.84101504772298" lon="12.467944173127878"><ele>440.0</ele><time>2026-05-04T07:07:42Z</time></trkpt><trkpt lat="43.84091886196663" lon="12.467856165250954"><ele>439.6</ele><time>2026-05-04T07:07:43Z</time></trkpt><trkpt lat="43.84083268795964" lon="12.467752336234657"><ele>439.2</ele><time>2026-05-04T07:07:44Z</time></trkpt><trkpt lat="43.840779020254466" lon="12.467627744502472"><ele>438.79999999999995</ele><time>2026-05-04T07:07:45Z</time></trkpt><trkpt lat="43.84071205334671" lon="12.467551107349509"><ele>438.4</ele><time>2026-05-04T07:07:46Z</time></trkpt><trkpt lat="43.84065048683362" lon="12.467482491996664"><ele>438.0</ele><time>2026-05-04T07:07:47Z</time></trkpt><trkpt lat="43.84058663246985" lon="12.467409033953494"><ele>438.0</ele><time>2026-05-04T07:07:48Z</time></trkpt><trkpt lat="43.84052054846216" lon="12.467318975508256"><ele>438.0</ele><time>2026-05-04T07:07:49Z</time></trkpt><trkpt lat="43.84044063145324" lon="12.467242206713639"><ele>438.0</ele><time>2026-05-04T07:07:50Z</time></trkpt><trkpt lat="43.840401832510096" lon="12.467147439879547"><ele>438.0</ele><time>2026-05-04T07:07:51Z</time></trkpt><trkpt lat="43.840371154964274" lon="12.467056698367962"><ele>438.0</ele><time>2026-05-04T07:07:52Z</time></trkpt><trkpt lat="43.840351950211016" lon="12.466951227663316"><ele>438.0</ele><time>2026-05-04T07:07:53Z</time></trkpt><trkpt lat="43.840326805887706" lon="12.46684104013855"><ele>437.3333333333333</ele><time>2026-05-04T07:07:54Z</time></trkpt><trkpt lat="43.840289471042965" lon="12.466733190762952"><ele>436.66666666666663</ele><time>2026-05-04T07:07:55Z</time></trkpt><trkpt lat="43.84025064991399" lon="12.46662816501878"><ele>436.0</ele><time>2026-05-04T07:07:56Z</time></trkpt><trkpt lat="43.84021583029495" lon="12.466529563784027"><ele>435.3333333333333</ele><time>2026-05-04T07:07:57Z</time></trkpt><trkpt lat="43.840179516024605" lon="12.466424518117385"><ele>434.66666666666663</ele><time>2026-05-04T07:07:58Z</time></trkpt><trkpt lat="43.84015516280594" lon="12.466314816498166"><ele>434.0</ele><time>2026-05-04T07:07:59Z</time></trkpt><trkpt lat="43.840154544702294" lon="12.466189782123745"><ele>433.8333333333333</ele><time>2026-05-04T07:08:00Z</time></trkpt><trkpt lat="43.84012870310706" lon="12.46608679035959"><ele>433.66666666666663</ele><time>2026-05-04T07:08:01Z</time></trkpt><trkpt lat="43.84010302801542" lon="12.465969871463434"><ele>433.5</ele><time>2026-05-04T07:08:02Z</time></trkpt><trkpt lat="43.84008641812916" lon="12.465850304662881"><ele>433.33333333333337</ele><time>2026-05-04T07:08:03Z</time></trkpt><trkpt lat="43.8400781157997" lon="12.465726388988209"><ele>433.1666666666667</ele><time>2026-05-04T07:08:04Z</time></trkpt><trkpt lat="43.840068001648895" lon="12.46558663256789"><ele>433.0</ele><time>2026-05-04T07:08:05Z</time></trkpt><trkpt lat="43.840034589849246" lon="12.465448729002008"><ele>433.4</ele><time>2026-05-04T07:08:06Z</time></trkpt><trkpt lat="43.83999190767139" lon="12.465313353211016"><ele>433.79999999999995</ele><time>2026-05-04T07:08:07Z</time></trkpt><trkpt lat="43.83994387596726" lon="12.465165001304419"><ele>434.2</ele><time>2026-05-04T07:08:08Z</time></trkpt><trkpt lat="43.83989570108512" lon="12.465017867594229"><ele>434.6</ele><time>2026-05-04T07:08:09Z</time></trkpt><trkpt lat="43.83985058294465" lon="12.464882394915163"><ele>435.0</ele><time>2026-05-04T07:08:10Z</time></trkpt><trkpt lat="43.83981372569133" lon="12.464760492774577"><ele>434.6</ele><time>2026-05-04T07:08:11Z</time></trkpt><trkpt lat="43.8397829490468" lon="12.464612744883516"><ele>434.2</ele><time>2026-05-04T07:08:12Z</time></trkpt><trkpt lat="43.8397544519303" lon="12.46445467533033"><ele>433.79999999999995</ele><time>2026-05-04T07:08:12.999Z</time></trkpt><trkpt lat="43.83970277359575" lon="12.46431426494883"><ele>433.4</ele><time>2026-05-04T07:08:13.999Z</time></trkpt><trkpt lat="43.839665172186564" lon="12.464180010928416"><ele>433.0</ele><time>2026-05-04T07:08:14.999Z</time></trkpt><trkpt lat="43.839614607212816" lon="12.46405315843715"><ele>433.0</ele><time>2026-05-04T07:08:15.999Z</time></trkpt><trkpt lat="43.83958287306452" lon="12.463915394898205"><ele>432.99999999999994</ele><time>2026-05-04T07:08:16.999Z</time></trkpt><trkpt lat="43.83956933587066" lon="12.463803444239698"><ele>432.99999999999994</ele><time>2026-05-04T07:08:17.999Z</time></trkpt><trkpt lat="43.83956872242887" lon="12.463713303779333"><ele>433.0</ele><time>2026-05-04T07:08:18.999Z</time></trkpt><trkpt lat="43.83959348156358" lon="12.46355531735253"><ele>433.0</ele><time>2026-05-04T07:08:20.999Z</time></trkpt><trkpt lat="43.839584642010564" lon="12.463364648721155"><ele>433.0</ele><time>2026-05-04T07:08:22.999Z</time></trkpt><trkpt lat="43.83959855167122" lon="12.463260465122652"><ele>432.99999999999994</ele><time>2026-05-04T07:08:23.999Z</time></trkpt><trkpt lat="43.83958799114856" lon="12.463147825415387"><ele>432.99999999999994</ele><time>2026-05-04T07:08:24.999Z</time></trkpt><trkpt lat="43.8395538438045" lon="12.463008024678572"><ele>433.0</ele><time>2026-05-04T07:08:25.999Z</time></trkpt><trkpt lat="43.83951168469751" lon="12.462864938017827"><ele>433.0</ele><time>2026-05-04T07:08:26.999Z</time></trkpt><trkpt lat="43.83947915525257" lon="12.462733160939425"><ele>433.00000000000006</ele><time>2026-05-04T07:08:27.999Z</time></trkpt><trkpt lat="43.839457810773474" lon="12.462624557683236"><ele>433.0</ele><time>2026-05-04T07:08:28.999Z</time></trkpt><trkpt lat="43.83943798420794" lon="12.462539667674907"><ele>433.0</ele><time>2026-05-04T07:08:29.999Z</time></trkpt><trkpt lat="43.83935867250322" lon="12.462413143143813"><ele>433.0</ele><time>2026-05-04T07:08:31.999Z</time></trkpt><trkpt lat="43.839324945958346" lon="12.462323218520453"><ele>433.00000000000006</ele><time>2026-05-04T07:08:32.999Z</time></trkpt><trkpt lat="43.839264664497435" lon="12.462231302128787"><ele>433.0</ele><time>2026-05-04T07:08:34Z</time></trkpt><trkpt lat="43.839202972576146" lon="12.462143061093192"><ele>431.83333333333337</ele><time>2026-05-04T07:08:34.999Z</time></trkpt><trkpt lat="43.83915305402791" lon="12.462079733818037"><ele>430.6666666666667</ele><time>2026-05-04T07:08:35.999Z</time></trkpt><trkpt lat="43.839089864825276" lon="12.461950432136705"><ele>429.5</ele><time>2026-05-04T07:08:37.999Z</time></trkpt><trkpt lat="43.839043398116445" lon="12.461783432723895"><ele>428.33333333333337</ele><time>2026-05-04T07:08:39.999Z</time></trkpt><trkpt lat="43.839013524252884" lon="12.461699067136802"><ele>427.1666666666667</ele><time>2026-05-04T07:08:40.999Z</time></trkpt><trkpt lat="43.839004859342026" lon="12.461607271488623"><ele>426.0</ele><time>2026-05-04T07:08:41.999Z</time></trkpt><trkpt lat="43.83902220265822" lon="12.46152092311586"><ele>426.0</ele><time>2026-05-04T07:08:42.999Z</time></trkpt><trkpt lat="43.83897550375139" lon="12.461354191230708"><ele>426.0</ele><time>2026-05-04T07:08:44.999Z</time></trkpt><trkpt lat="43.8389259112123" lon="12.461284816965266"><ele>426.0</ele><time>2026-05-04T07:08:45.999Z</time></trkpt><trkpt lat="43.83888058649785" lon="12.461220666282742"><ele>426.0</ele><time>2026-05-04T07:08:46.999Z</time></trkpt><trkpt lat="43.8388347322264" lon="12.461062035310677"><ele>426.0</ele><time>2026-05-04T07:08:48.999Z</time></trkpt><trkpt lat="43.8388109615203" lon="12.460970641073326"><ele>424.5</ele><time>2026-05-04T07:08:49.999Z</time></trkpt><trkpt lat="43.83879091978332" lon="12.460882147703558"><ele>423.0</ele><time>2026-05-04T07:08:50.999Z</time></trkpt><trkpt lat="43.83877215245495" lon="12.46079068836708"><ele>421.5</ele><time>2026-05-04T07:08:51.999Z</time></trkpt><trkpt lat="43.838753523532745" lon="12.460695656561661"><ele>420.0</ele><time>2026-05-04T07:08:52.999Z</time></trkpt><trkpt lat="43.838733915699365" lon="12.460589081907012"><ele>418.5</ele><time>2026-05-04T07:08:53.999Z</time></trkpt><trkpt lat="43.83872782844683" lon="12.460485652073736"><ele>417.0</ele><time>2026-05-04T07:08:54.999Z</time></trkpt><trkpt lat="43.83872545509236" lon="12.46035275702115"><ele>415.6666666666667</ele><time>2026-05-04T07:08:55.999Z</time></trkpt><trkpt lat="43.838714682097425" lon="12.460216458595895"><ele>414.33333333333337</ele><time>2026-05-04T07:08:56.999Z</time></trkpt><trkpt lat="43.838693427278095" lon="12.460108789646805"><ele>413.0</ele><time>2026-05-04T07:08:57.999Z</time></trkpt><trkpt lat="43.83864854552828" lon="12.459993322256135"><ele>411.6666666666667</ele><time>2026-05-04T07:08:58.999Z</time></trkpt><trkpt lat="43.8386123746555" lon="12.459884792028769"><ele>410.33333333333337</ele><time>2026-05-04T07:08:59.999Z</time></trkpt><trkpt lat="43.838589379205494" lon="12.459796362246639"><ele>409.0</ele><time>2026-05-04T07:09:00.999Z</time></trkpt><trkpt lat="43.83856816377108" lon="12.459670735940419"><ele>408.83333333333337</ele><time>2026-05-04T07:09:02.999Z</time></trkpt><trkpt lat="43.83858244982911" lon="12.45956550866948"><ele>408.6666666666667</ele><time>2026-05-04T07:09:04.999Z</time></trkpt><trkpt lat="43.838567611670385" lon="12.459415544826818"><ele>408.5</ele><time>2026-05-04T07:09:12Z</time></trkpt><trkpt lat="43.8385484985487" lon="12.459328141328465"><ele>408.33333333333337</ele><time>2026-05-04T07:09:13Z</time></trkpt><trkpt lat="43.83852418214284" lon="12.459243768717801"><ele>408.1666666666667</ele><time>2026-05-04T07:09:14Z</time></trkpt><trkpt lat="43.838477029024524" lon="12.459111199626056"><ele>408.0</ele><time>2026-05-04T07:09:16Z</time></trkpt><trkpt lat="43.8384291699554" lon="12.458978295428967"><ele>408.0</ele><time>2026-05-04T07:09:18Z</time></trkpt><trkpt lat="43.83840080184861" lon="12.458851421184686"><ele>408.0</ele><time>2026-05-04T07:09:20Z</time></trkpt><trkpt lat="43.838383272880165" lon="12.458687281948306"><ele>408.0</ele><time>2026-05-04T07:09:22Z</time></trkpt><trkpt lat="43.83837682345572" lon="12.458595965209028"><ele>408.0</ele><time>2026-05-04T07:09:23Z</time></trkpt><trkpt lat="43.83836907603773" lon="12.458504071626784"><ele>408.0</ele><time>2026-05-04T07:09:24Z</time></trkpt><trkpt lat="43.838357008619326" lon="12.458414870154733"><ele>408.0</ele><time>2026-05-04T07:09:25Z</time></trkpt><trkpt lat="43.838361245729" lon="12.458269311897467"><ele>407.3333333333333</ele><time>2026-05-04T07:09:27Z</time></trkpt><trkpt lat="43.8383992934594" lon="12.458115716253586"><ele>406.66666666666663</ele><time>2026-05-04T07:09:29Z</time></trkpt><trkpt lat="43.838418356487026" lon="12.458031281139325"><ele>406.0</ele><time>2026-05-04T07:09:30Z</time></trkpt><trkpt lat="43.838437520355356" lon="12.457927147964845"><ele>405.3333333333333</ele><time>2026-05-04T07:09:31Z</time></trkpt><trkpt lat="43.83846561953195" lon="12.457832869688124"><ele>404.66666666666663</ele><time>2026-05-04T07:09:32Z</time></trkpt><trkpt lat="43.83847837022493" lon="12.457745362987135"><ele>404.0</ele><time>2026-05-04T07:09:33Z</time></trkpt><trkpt lat="43.83849691068667" lon="12.457661386179467"><ele>401.49999999999994</ele><time>2026-05-04T07:09:34Z</time></trkpt><trkpt lat="43.83851159239603" lon="12.457569371179144"><ele>399.0</ele><time>2026-05-04T07:09:35Z</time></trkpt><trkpt lat="43.83852535695319" lon="12.457469805539809"><ele>396.5</ele><time>2026-05-04T07:09:36Z</time></trkpt><trkpt lat="43.83854012782483" lon="12.45736296099485"><ele>394.0</ele><time>2026-05-04T07:09:37Z</time></trkpt><trkpt lat="43.83855607312295" lon="12.45724810999798"><ele>391.49999999999994</ele><time>2026-05-04T07:09:38Z</time></trkpt><trkpt lat="43.83856618871686" lon="12.457135701012993"><ele>389.0</ele><time>2026-05-04T07:09:39Z</time></trkpt><trkpt lat="43.83856810038794" lon="12.45702159355276"><ele>389.0</ele><time>2026-05-04T07:09:40Z</time></trkpt><trkpt lat="43.838560471529604" lon="12.456922406559404"><ele>389.0</ele><time>2026-05-04T07:09:41Z</time></trkpt><trkpt lat="43.83854368044632" lon="12.456808673352896"><ele>389.0</ele><time>2026-05-04T07:09:42Z</time></trkpt><trkpt lat="43.83852505355635" lon="12.45671765077165"><ele>389.0</ele><time>2026-05-04T07:09:43Z</time></trkpt><trkpt lat="43.838501995430995" lon="12.45662356101331"><ele>389.0</ele><time>2026-05-04T07:09:44Z</time></trkpt><trkpt lat="43.8384778101663" lon="12.456539644987219"><ele>389.0</ele><time>2026-05-04T07:09:45Z</time></trkpt><trkpt lat="43.838442938960206" lon="12.456435581910135"><ele>389.0</ele><time>2026-05-04T07:09:46Z</time></trkpt><trkpt lat="43.838395854856294" lon="12.456315885532977"><ele>388.16666666666663</ele><time>2026-05-04T07:09:47Z</time></trkpt><trkpt lat="43.838351578204886" lon="12.456223589744567"><ele>387.3333333333333</ele><time>2026-05-04T07:09:48Z</time></trkpt><trkpt lat="43.83830923215041" lon="12.456144491358268"><ele>386.5</ele><time>2026-05-04T07:09:49Z</time></trkpt><trkpt lat="43.83826014806227" lon="12.456055259754871"><ele>385.66666666666663</ele><time>2026-05-04T07:09:50Z</time></trkpt><trkpt lat="43.83821098333644" lon="12.455965881664653"><ele>384.8333333333333</ele><time>2026-05-04T07:09:51Z</time></trkpt><trkpt lat="43.838167520803395" lon="12.455887575752682"><ele>384.0</ele><time>2026-05-04T07:09:52Z</time></trkpt><trkpt lat="43.83810360750253" lon="12.455788629788817"><ele>384.0</ele><time>2026-05-04T07:09:53Z</time></trkpt><trkpt lat="43.83806683209827" lon="12.455663903058836"><ele>384.0</ele><time>2026-05-04T07:09:54Z</time></trkpt><trkpt lat="43.838020467309434" lon="12.455549693161853"><ele>384.0</ele><time>2026-05-04T07:09:55Z</time></trkpt><trkpt lat="43.8379755202667" lon="12.455429312244513"><ele>384.0</ele><time>2026-05-04T07:09:56Z</time></trkpt><trkpt lat="43.83793618327289" lon="12.455317177514472"><ele>384.0</ele><time>2026-05-04T07:09:57Z</time></trkpt><trkpt lat="43.837896553314515" lon="12.455195286063324"><ele>383.2</ele><time>2026-05-04T07:09:58Z</time></trkpt><trkpt lat="43.83785304195023" lon="12.455081050818178"><ele>382.4</ele><time>2026-05-04T07:09:59Z</time></trkpt><trkpt lat="43.837824373558234" lon="12.454953170897966"><ele>381.6</ele><time>2026-05-04T07:10:00Z</time></trkpt><trkpt lat="43.83778863801603" lon="12.454836008480624"><ele>380.8</ele><time>2026-05-04T07:10:01Z</time></trkpt><trkpt lat="43.83774910290447" lon="12.454713761990906"><ele>380.0</ele><time>2026-05-04T07:10:02Z</time></trkpt><trkpt lat="43.83771589848133" lon="12.454610886417958"><ele>380.0</ele><time>2026-05-04T07:10:03Z</time></trkpt><trkpt lat="43.83770694245165" lon="12.454522117955543"><ele>380.0</ele><time>2026-05-04T07:10:04Z</time></trkpt><trkpt lat="43.83767758218723" lon="12.454413241812745"><ele>380.0</ele><time>2026-05-04T07:10:06Z</time></trkpt><trkpt lat="43.837614364883656" lon="12.454277461024873"><ele>380.0</ele><time>2026-05-04T07:10:08Z</time></trkpt><trkpt lat="43.83757856573766" lon="12.454200569688371"><ele>380.0</ele><time>2026-05-04T07:10:09Z</time></trkpt><trkpt lat="43.83753872424869" lon="12.454115481427474"><ele>380.0</ele><time>2026-05-04T07:10:10Z</time></trkpt><trkpt lat="43.83748380591508" lon="12.454034907535489"><ele>383.0</ele><time>2026-05-04T07:10:11Z</time></trkpt><trkpt lat="43.83745978833194" lon="12.453940735495896"><ele>386.0</ele><time>2026-05-04T07:10:12Z</time></trkpt><trkpt lat="43.837415760190915" lon="12.453839358873068"><ele>389.0</ele><time>2026-05-04T07:10:13Z</time></trkpt><trkpt lat="43.83737769377764" lon="12.453750377195727"><ele>392.0</ele><time>2026-05-04T07:10:14Z</time></trkpt><trkpt lat="43.83734163459753" lon="12.453656445649765"><ele>395.0</ele><time>2026-05-04T07:10:15Z</time></trkpt><trkpt lat="43.83727436261555" lon="12.453479677574368"><ele>395.2</ele><time>2026-05-04T07:10:17Z</time></trkpt><trkpt lat="43.83723448147664" lon="12.45337461939487"><ele>395.4</ele><time>2026-05-04T07:10:18Z</time></trkpt><trkpt lat="43.83719015261799" lon="12.453257653154791"><ele>395.6</ele><time>2026-05-04T07:10:19Z</time></trkpt><trkpt lat="43.837147708767866" lon="12.453143400785274"><ele>395.8</ele><time>2026-05-04T07:10:20Z</time></trkpt><trkpt lat="43.837103698649535" lon="12.453019015995624"><ele>396.0</ele><time>2026-05-04T07:10:21Z</time></trkpt><trkpt lat="43.83707072091301" lon="12.452915941988836"><ele>397.0</ele><time>2026-05-04T07:10:22Z</time></trkpt><trkpt lat="43.83704401931779" lon="12.452832918514906"><ele>398.0</ele><time>2026-05-04T07:10:23Z</time></trkpt><trkpt lat="43.83701292598807" lon="12.452710255346542"><ele>399.0</ele><time>2026-05-04T07:10:25Z</time></trkpt><trkpt lat="43.83702464320871" lon="12.452554774772858"><ele>400.0</ele><time>2026-05-04T07:10:26.999Z</time></trkpt><trkpt lat="43.83707778020204" lon="12.452388986179102"><ele>401.0</ele><time>2026-05-04T07:10:28.999Z</time></trkpt><trkpt lat="43.837102769468395" lon="12.45227694357538"><ele>400.99999999999994</ele><time>2026-05-04T07:10:29.999Z</time></trkpt><trkpt lat="43.83712458912822" lon="12.452129769092924"><ele>401.0</ele><time>2026-05-04T07:10:30.999Z</time></trkpt><trkpt lat="43.837141064093245" lon="12.45200410023975"><ele>401.0</ele><time>2026-05-04T07:10:31.999Z</time></trkpt><trkpt lat="43.837157945122044" lon="12.451863452687805"><ele>401.0</ele><time>2026-05-04T07:10:32.999Z</time></trkpt><trkpt lat="43.83716852728299" lon="12.45177442191802"><ele>400.99999999999994</ele><time>2026-05-04T07:10:33.999Z</time></trkpt><trkpt lat="43.837183050451706" lon="12.451664872857672"><ele>401.0</ele><time>2026-05-04T07:10:34.999Z</time></trkpt><trkpt lat="43.83719466368206" lon="12.451578330072204"><ele>402.0</ele><time>2026-05-04T07:10:35.999Z</time></trkpt><trkpt lat="43.83720404922054" lon="12.451423206189126"><ele>403.0</ele><time>2026-05-04T07:10:37.999Z</time></trkpt><trkpt lat="43.837182772929964" lon="12.451312401907085"><ele>404.0</ele><time>2026-05-04T07:10:39.999Z</time></trkpt><trkpt lat="43.837081135929566" lon="12.451222668718371"><ele>405.0</ele><time>2026-05-04T07:10:41.999Z</time></trkpt><trkpt lat="43.83699001130635" lon="12.451218049775916"><ele>406.0</ele><time>2026-05-04T07:10:42.999Z</time></trkpt><trkpt lat="43.836880582586225" lon="12.45112609369541"><ele>407.50000000000006</ele><time>2026-05-04T07:10:44.999Z</time></trkpt><trkpt lat="43.83682331184887" lon="12.45105535220054"><ele>409.0</ele><time>2026-05-04T07:10:45.999Z</time></trkpt><trkpt lat="43.836772787792974" lon="12.45098210978309"><ele>410.5</ele><time>2026-05-04T07:10:46.999Z</time></trkpt><trkpt lat="43.8367272153916" lon="12.45090366066589"><ele>412.0</ele><time>2026-05-04T07:10:47.999Z</time></trkpt><trkpt lat="43.836685761300075" lon="12.450822940761265"><ele>413.50000000000006</ele><time>2026-05-04T07:10:48.999Z</time></trkpt><trkpt lat="43.83664651033699" lon="12.450724964978413"><ele>415.0</ele><time>2026-05-04T07:10:49.999Z</time></trkpt><trkpt lat="43.83662092080994" lon="12.45062488878228"><ele>415.0</ele><time>2026-05-04T07:10:50.999Z</time></trkpt><trkpt lat="43.83659244768692" lon="12.450488344488019"><ele>415.0</ele><time>2026-05-04T07:10:51.999Z</time></trkpt><trkpt lat="43.83656132410057" lon="12.450297474877539"><ele>415.0</ele><time>2026-05-04T07:10:53.999Z</time></trkpt><trkpt lat="43.83655054001186" lon="12.450169279566328"><ele>415.0</ele><time>2026-05-04T07:10:54.999Z</time></trkpt><trkpt lat="43.836545076950436" lon="12.45004632955591"><ele>415.0</ele><time>2026-05-04T07:10:55.999Z</time></trkpt><trkpt lat="43.83653706295793" lon="12.449928915247728"><ele>417.1666666666667</ele><time>2026-05-04T07:10:56.999Z</time></trkpt><trkpt lat="43.83652530891969" lon="12.44980441020978"><ele>419.33333333333337</ele><time>2026-05-04T07:10:57.999Z</time></trkpt><trkpt lat="43.83651565238771" lon="12.449703183134943"><ele>421.5</ele><time>2026-05-04T07:10:58.999Z</time></trkpt><trkpt lat="43.8364883035137" lon="12.449589139608909"><ele>423.66666666666663</ele><time>2026-05-04T07:10:59.999Z</time></trkpt><trkpt lat="43.836477849076836" lon="12.449473738848459"><ele>425.8333333333333</ele><time>2026-05-04T07:11:00.999Z</time></trkpt><trkpt lat="43.83645651927748" lon="12.449370817048024"><ele>428.0</ele><time>2026-05-04T07:11:01.999Z</time></trkpt><trkpt lat="43.83644937884906" lon="12.449257836007918"><ele>429.66666666666663</ele><time>2026-05-04T07:11:02.999Z</time></trkpt><trkpt lat="43.83642345985048" lon="12.449149757061525"><ele>431.3333333333333</ele><time>2026-05-04T07:11:03.999Z</time></trkpt><trkpt lat="43.836394934682644" lon="12.449029612307617"><ele>433.0</ele><time>2026-05-04T07:11:04.999Z</time></trkpt><trkpt lat="43.836370259560496" lon="12.448924042665993"><ele>434.66666666666663</ele><time>2026-05-04T07:11:05.999Z</time></trkpt><trkpt lat="43.83635250970922" lon="12.4488375305835"><ele>436.3333333333333</ele><time>2026-05-04T07:11:06.999Z</time></trkpt><trkpt lat="43.83632691183418" lon="12.448750024690083"><ele>438.0</ele><time>2026-05-04T07:11:07.999Z</time></trkpt><trkpt lat="43.83631395679758" lon="12.448653223785035"><ele>438.5</ele><time>2026-05-04T07:11:08.999Z</time></trkpt><trkpt lat="43.83629748742816" lon="12.448558720240486"><ele>439.0</ele><time>2026-05-04T07:11:09.999Z</time></trkpt><trkpt lat="43.83628801969994" lon="12.44846532713654"><ele>439.5</ele><time>2026-05-04T07:11:10.999Z</time></trkpt><trkpt lat="43.83627418778573" lon="12.448354828614118"><ele>440.0</ele><time>2026-05-04T07:11:11.999Z</time></trkpt><trkpt lat="43.8362846537421" lon="12.44823152290482"><ele>440.5</ele><time>2026-05-04T07:11:12.999Z</time></trkpt><trkpt lat="43.836283111581395" lon="12.448132585380291"><ele>441.0</ele><time>2026-05-04T07:11:13.999Z</time></trkpt><trkpt lat="43.83628382739214" lon="12.448033731309907"><ele>441.4</ele><time>2026-05-04T07:11:15Z</time></trkpt><trkpt lat="43.83627034872808" lon="12.44791013244624"><ele>441.8</ele><time>2026-05-04T07:11:16Z</time></trkpt><trkpt lat="43.83629811098114" lon="12.447790026920881"><ele>442.19999999999993</ele><time>2026-05-04T07:11:17Z</time></trkpt><trkpt lat="43.836309188572635" lon="12.447689397020014"><ele>442.59999999999997</ele><time>2026-05-04T07:11:18Z</time></trkpt><trkpt lat="43.83631041320143" lon="12.44758697573231"><ele>443.0</ele><time>2026-05-04T07:11:19Z</time></trkpt><trkpt lat="43.836275768888264" lon="12.447423589619525"><ele>443.0</ele><time>2026-05-04T07:11:21Z</time></trkpt><trkpt lat="43.836269409516106" lon="12.447330748558198"><ele>443.0</ele><time>2026-05-04T07:11:22Z</time></trkpt><trkpt lat="43.83624592014676" lon="12.447239987888116"><ele>443.0</ele><time>2026-05-04T07:11:23Z</time></trkpt><trkpt lat="43.836214542641876" lon="12.447145643578887"><ele>443.0</ele><time>2026-05-04T07:11:24Z</time></trkpt><trkpt lat="43.83618214454878" lon="12.447059445631211"><ele>443.0</ele><time>2026-05-04T07:11:25Z</time></trkpt><trkpt lat="43.836144458289056" lon="12.446963510684009"><ele>443.0</ele><time>2026-05-04T07:11:26Z</time></trkpt><trkpt lat="43.836111512850295" lon="12.446879644129382"><ele>443.0</ele><time>2026-05-04T07:11:27Z</time></trkpt><trkpt lat="43.836074709124325" lon="12.446785955763723"><ele>442.99999999999994</ele><time>2026-05-04T07:11:28Z</time></trkpt><trkpt lat="43.836035835967294" lon="12.446686999731332"><ele>443.0</ele><time>2026-05-04T07:11:29Z</time></trkpt><trkpt lat="43.83599681166761" lon="12.446590333645707"><ele>443.0</ele><time>2026-05-04T07:11:30Z</time></trkpt><trkpt lat="43.83595938077423" lon="12.446499545545349"><ele>443.0</ele><time>2026-05-04T07:11:31Z</time></trkpt><trkpt lat="43.835916269417304" lon="12.446391673821584"><ele>442.99999999999994</ele><time>2026-05-04T07:11:32Z</time></trkpt><trkpt lat="43.83589436395314" lon="12.446309020341662"><ele>443.0</ele><time>2026-05-04T07:11:33Z</time></trkpt><trkpt lat="43.83588351444141" lon="12.446214084140411"><ele>443.79999999999995</ele><time>2026-05-04T07:11:34Z</time></trkpt><trkpt lat="43.835927951896466" lon="12.446131775387887"><ele>444.59999999999997</ele><time>2026-05-04T07:11:35Z</time></trkpt><trkpt lat="43.835957762481584" lon="12.446033166465153"><ele>445.40000000000003</ele><time>2026-05-04T07:11:36Z</time></trkpt><trkpt lat="43.835977595704676" lon="12.445883409161535"><ele>446.20000000000005</ele><time>2026-05-04T07:11:38Z</time></trkpt><trkpt lat="43.83599045340613" lon="12.445705794199203"><ele>447.0</ele><time>2026-05-04T07:11:40Z</time></trkpt><trkpt lat="43.83598089545288" lon="12.445603013082463"><ele>447.0</ele><time>2026-05-04T07:11:41Z</time></trkpt><trkpt lat="43.83595018315953" lon="12.445489070706126"><ele>447.0</ele><time>2026-05-04T07:11:42Z</time></trkpt><trkpt lat="43.835935557374306" lon="12.445381208179796"><ele>447.0</ele><time>2026-05-04T07:11:43Z</time></trkpt><trkpt lat="43.83591118784303" lon="12.445291357058258"><ele>447.0</ele><time>2026-05-04T07:11:44Z</time></trkpt><trkpt lat="43.835869863288856" lon="12.445208635081526"><ele>447.0</ele><time>2026-05-04T07:11:45Z</time></trkpt><trkpt lat="43.835812960619315" lon="12.44513538222966"><ele>447.0</ele><time>2026-05-04T07:11:46Z</time></trkpt><trkpt lat="43.83575505567633" lon="12.445031393016988"><ele>447.6</ele><time>2026-05-04T07:11:47Z</time></trkpt><trkpt lat="43.83570127730714" lon="12.44493939906256"><ele>448.20000000000005</ele><time>2026-05-04T07:11:48Z</time></trkpt><trkpt lat="43.83565680311534" lon="12.444856023197524"><ele>448.8</ele><time>2026-05-04T07:11:49Z</time></trkpt><trkpt lat="43.83559159719724" lon="12.444718370660437"><ele>449.4</ele><time>2026-05-04T07:11:51Z</time></trkpt><trkpt lat="43.83550464416937" lon="12.444557839975257"><ele>450.0</ele><time>2026-05-04T07:11:53Z</time></trkpt><trkpt lat="43.83547551483339" lon="12.444439860442593"><ele>451.6666666666667</ele><time>2026-05-04T07:11:54Z</time></trkpt><trkpt lat="43.835429436259375" lon="12.444312485798669"><ele>453.33333333333337</ele><time>2026-05-04T07:11:55Z</time></trkpt><trkpt lat="43.83538078129953" lon="12.444175270357166"><ele>455.0</ele><time>2026-05-04T07:11:56Z</time></trkpt><trkpt lat="43.83534629170738" lon="12.444058635646895"><ele>456.6666666666667</ele><time>2026-05-04T07:11:57Z</time></trkpt><trkpt lat="43.835325795932455" lon="12.443968709139236"><ele>458.33333333333337</ele><time>2026-05-04T07:11:58Z</time></trkpt><trkpt lat="43.83529270703326" lon="12.443871627843555"><ele>460.0</ele><time>2026-05-04T07:11:59Z</time></trkpt><trkpt lat="43.8353058336562" lon="12.443781398901788"><ele>461.6</ele><time>2026-05-04T07:12:00Z</time></trkpt><trkpt lat="43.83530870956415" lon="12.443680497366058"><ele>463.2</ele><time>2026-05-04T07:12:01Z</time></trkpt><trkpt lat="43.83533041055275" lon="12.443519621996252"><ele>464.79999999999995</ele><time>2026-05-04T07:12:03Z</time></trkpt><trkpt lat="43.835347499151105" lon="12.443329428690426"><ele>466.4</ele><time>2026-05-04T07:12:05Z</time></trkpt><trkpt lat="43.83532857458318" lon="12.443210926503484"><ele>468.0</ele><time>2026-05-04T07:12:06Z</time></trkpt><trkpt lat="43.83529687620793" lon="12.44308334317101"><ele>468.0</ele><time>2026-05-04T07:12:07Z</time></trkpt><trkpt lat="43.83526901357154" lon="12.44296706190757"><ele>467.99999999999994</ele><time>2026-05-04T07:12:08Z</time></trkpt><trkpt lat="43.83525278114527" lon="12.442859320596906"><ele>467.99999999999994</ele><time>2026-05-04T07:12:09Z</time></trkpt><trkpt lat="43.8352559174077" lon="12.442715212157651"><ele>468.0</ele><time>2026-05-04T07:12:11Z</time></trkpt><trkpt lat="43.83525997313216" lon="12.442524108526438"><ele>468.0</ele><time>2026-05-04T07:12:14Z</time></trkpt><trkpt lat="43.83526091990662" lon="12.442414208464273"><ele>469.1666666666667</ele><time>2026-05-04T07:12:15Z</time></trkpt><trkpt lat="43.83525321987256" lon="12.442292736294887"><ele>470.33333333333337</ele><time>2026-05-04T07:12:16Z</time></trkpt><trkpt lat="43.83521048413777" lon="12.442187874789779"><ele>471.5</ele><time>2026-05-04T07:12:17Z</time></trkpt><trkpt lat="43.83515981832074" lon="12.442093813458534"><ele>472.6666666666667</ele><time>2026-05-04T07:12:18Z</time></trkpt><trkpt lat="43.83511366565172" lon="12.442008572403948"><ele>473.83333333333337</ele><time>2026-05-04T07:12:19Z</time></trkpt><trkpt lat="43.8350790419118" lon="12.44192704067392"><ele>475.0</ele><time>2026-05-04T07:12:20Z</time></trkpt><trkpt lat="43.83505292513044" lon="12.441789406118007"><ele>477.50000000000006</ele><time>2026-05-04T07:12:22Z</time></trkpt><trkpt lat="43.83503533568098" lon="12.44169600190369"><ele>480.0</ele><time>2026-05-04T07:12:23Z</time></trkpt><trkpt lat="43.83497326524956" lon="12.44161930946641"><ele>482.5</ele><time>2026-05-04T07:12:24Z</time></trkpt><trkpt lat="43.83492889941597" lon="12.4415212727793"><ele>485.0</ele><time>2026-05-04T07:12:25Z</time></trkpt><trkpt lat="43.83486322719881" lon="12.441427373342451"><ele>487.50000000000006</ele><time>2026-05-04T07:12:26Z</time></trkpt><trkpt lat="43.83477004420486" lon="12.441325319732115"><ele>490.0</ele><time>2026-05-04T07:12:27Z</time></trkpt><trkpt lat="43.834690511396055" lon="12.441205408973904"><ele>490.00000000000006</ele><time>2026-05-04T07:12:28Z</time></trkpt><trkpt lat="43.83463414146388" lon="12.441086737169018"><ele>490.0</ele><time>2026-05-04T07:12:29Z</time></trkpt><trkpt lat="43.834560330655904" lon="12.440973542208555"><ele>490.0</ele><time>2026-05-04T07:12:30Z</time></trkpt><trkpt lat="43.834513392361224" lon="12.440907716029798"><ele>490.0</ele><time>2026-05-04T07:12:31Z</time></trkpt><trkpt lat="43.83446371797439" lon="12.4408451080144"><ele>490.00000000000006</ele><time>2026-05-04T07:12:32Z</time></trkpt><trkpt lat="43.8344019014862" lon="12.440777982174803"><ele>490.0</ele><time>2026-05-04T07:12:33Z</time></trkpt><trkpt lat="43.83432708760776" lon="12.440710493471997"><ele>491.8</ele><time>2026-05-04T07:12:34Z</time></trkpt><trkpt lat="43.834251165978955" lon="12.440634672585634"><ele>493.6</ele><time>2026-05-04T07:12:35Z</time></trkpt><trkpt lat="43.83417489804632" lon="12.44055580013352"><ele>495.4</ele><time>2026-05-04T07:12:36Z</time></trkpt><trkpt lat="43.83410210725906" lon="12.440477087020785"><ele>497.2</ele><time>2026-05-04T07:12:36.999Z</time></trkpt><trkpt lat="43.83403388203867" lon="12.440396198397778"><ele>499.0</ele><time>2026-05-04T07:12:37.999Z</time></trkpt><trkpt lat="43.8339667112787" lon="12.440311145528854"><ele>500.4</ele><time>2026-05-04T07:12:38.999Z</time></trkpt><trkpt lat="43.83391545218418" lon="12.440236173848952"><ele>501.79999999999995</ele><time>2026-05-04T07:12:39.999Z</time></trkpt><trkpt lat="43.83387514144256" lon="12.440157562668018"><ele>503.20000000000005</ele><time>2026-05-04T07:12:40.999Z</time></trkpt><trkpt lat="43.8338451305577" lon="12.439983722062044"><ele>504.6</ele><time>2026-05-04T07:12:42.999Z</time></trkpt><trkpt lat="43.83379980289441" lon="12.439871101925267"><ele>506.0</ele><time>2026-05-04T07:12:43.999Z</time></trkpt><trkpt lat="43.833764753587616" lon="12.439722291001347"><ele>508.8</ele><time>2026-05-04T07:12:44.999Z</time></trkpt><trkpt lat="43.833704253779985" lon="12.439589573375832"><ele>511.6</ele><time>2026-05-04T07:12:45.999Z</time></trkpt><trkpt lat="43.83364834936378" lon="12.439471613620556"><ele>514.4</ele><time>2026-05-04T07:12:46.999Z</time></trkpt><trkpt lat="43.8336061508181" lon="12.439366630216426"><ele>517.2</ele><time>2026-05-04T07:12:47.999Z</time></trkpt><trkpt lat="43.833569585027256" lon="12.43925294773975"><ele>520.0</ele><time>2026-05-04T07:12:48.999Z</time></trkpt><trkpt lat="43.83364496149852" lon="12.439159004869571"><ele>520.0</ele><time>2026-05-04T07:12:50.999Z</time></trkpt><trkpt lat="43.83372110928143" lon="12.43904720019634"><ele>520.0</ele><time>2026-05-04T07:12:51.999Z</time></trkpt><trkpt lat="43.833796359447845" lon="12.438952815741397"><ele>520.0</ele><time>2026-05-04T07:12:52.999Z</time></trkpt><trkpt lat="43.83383760573699" lon="12.438803081078447"><ele>520.0</ele><time>2026-05-04T07:12:54.999Z</time></trkpt><trkpt lat="43.83383745572506" lon="12.438669808264121"><ele>520.0</ele><time>2026-05-04T07:12:55.999Z</time></trkpt><trkpt lat="43.833856036675904" lon="12.438519370677998"><ele>521.0</ele><time>2026-05-04T07:12:56.999Z</time></trkpt><trkpt lat="43.833843146543636" lon="12.438427510329111"><ele>522.0</ele><time>2026-05-04T07:12:57.999Z</time></trkpt><trkpt lat="43.83378385438" lon="12.438280733363394"><ele>523.0</ele><time>2026-05-04T07:12:59.999Z</time></trkpt><trkpt lat="43.83373009455467" lon="12.438197352137486"><ele>524.0</ele><time>2026-05-04T07:13:00.999Z</time></trkpt><trkpt lat="43.833666573288156" lon="12.438123752568456"><ele>525.0</ele><time>2026-05-04T07:13:01.999Z</time></trkpt><trkpt lat="43.83359079894336" lon="12.438076270837382"><ele>526.0</ele><time>2026-05-04T07:13:02.999Z</time></trkpt><trkpt lat="43.83351799577096" lon="12.438015198508323"><ele>529.4</ele><time>2026-05-04T07:13:03.999Z</time></trkpt><trkpt lat="43.83345693324389" lon="12.437903378936111"><ele>532.8</ele><time>2026-05-04T07:13:04.999Z</time></trkpt><trkpt lat="43.83338221381045" lon="12.437811400673986"><ele>536.1999999999999</ele><time>2026-05-04T07:13:05.999Z</time></trkpt><trkpt lat="43.83330284055488" lon="12.437751407527589"><ele>539.6</ele><time>2026-05-04T07:13:06.999Z</time></trkpt><trkpt lat="43.833242638733346" lon="12.437702869312446"><ele>543.0</ele><time>2026-05-04T07:13:07.999Z</time></trkpt><trkpt lat="43.83310895482737" lon="12.437686825948365"><ele>543.0</ele><time>2026-05-04T07:13:09.999Z</time></trkpt><trkpt lat="43.833048446724355" lon="12.437649470400832"><ele>543.0</ele><time>2026-05-04T07:13:10.999Z</time></trkpt><trkpt lat="43.83299173997566" lon="12.437579585780508"><ele>543.0</ele><time>2026-05-04T07:13:11.999Z</time></trkpt><trkpt lat="43.832930100182416" lon="12.437491178941876"><ele>543.0</ele><time>2026-05-04T07:13:13.999Z</time></trkpt><trkpt lat="43.832918424346" lon="12.437384604487237"><ele>543.0</ele><time>2026-05-04T07:14:28Z</time></trkpt><trkpt lat="43.832865555953" lon="12.437291373556832"><ele>543.0</ele><time>2026-05-04T07:14:31Z</time></trkpt><trkpt lat="43.83280190767431" lon="12.43719106026312"><ele>544.6</ele><time>2026-05-04T07:14:33Z</time></trkpt><trkpt lat="43.83273267732789" lon="12.437108239561333"><ele>546.1999999999999</ele><time>2026-05-04T07:14:34.999Z</time></trkpt><trkpt lat="43.83263957114401" lon="12.437020231010212"><ele>547.8</ele><time>2026-05-04T07:14:36.999Z</time></trkpt><trkpt lat="43.83254414048972" lon="12.436947392146681"><ele>549.4</ele><time>2026-05-04T07:14:38.999Z</time></trkpt><trkpt lat="43.83246353787832" lon="12.436845557901345"><ele>551.0</ele><time>2026-05-04T07:14:40.999Z</time></trkpt><trkpt lat="43.83240624757754" lon="12.43670777617964"><ele>552.0</ele><time>2026-05-04T07:14:42.999Z</time></trkpt><trkpt lat="43.832369525051504" lon="12.436618165473234"><ele>553.0</ele><time>2026-05-04T07:14:43.999Z</time></trkpt><trkpt lat="43.8323366458748" lon="12.436522130799176"><ele>554.0</ele><time>2026-05-04T07:14:44.999Z</time></trkpt><trkpt lat="43.83230544250872" lon="12.436415565737478"><ele>555.0</ele><time>2026-05-04T07:14:45.999Z</time></trkpt><trkpt lat="43.83227948740605" lon="12.436305431518573"><ele>556.0</ele><time>2026-05-04T07:14:46.999Z</time></trkpt><trkpt lat="43.83225167155283" lon="12.436179364205762"><ele>557.0</ele><time>2026-05-04T07:14:47.999Z</time></trkpt><trkpt lat="43.83222637535679" lon="12.436054587646575"><ele>557.5</ele><time>2026-05-04T07:14:48.999Z</time></trkpt><trkpt lat="43.832202333805476" lon="12.435933465209686"><ele>558.0</ele><time>2026-05-04T07:14:49.999Z</time></trkpt><trkpt lat="43.8321840780477" lon="12.435835588603496"><ele>558.5</ele><time>2026-05-04T07:14:50.999Z</time></trkpt><trkpt lat="43.83216842950175" lon="12.435743589078514"><ele>559.0</ele><time>2026-05-04T07:14:51.999Z</time></trkpt><trkpt lat="43.832152914849715" lon="12.435650970958456"><ele>559.5</ele><time>2026-05-04T07:14:52.999Z</time></trkpt><trkpt lat="43.832129223274734" lon="12.435542682814118"><ele>560.0</ele><time>2026-05-04T07:14:53.999Z</time></trkpt><trkpt lat="43.83209689636803" lon="12.435440905988182"><ele>560.5</ele><time>2026-05-04T07:14:54.999Z</time></trkpt><trkpt lat="43.83205986770065" lon="12.43535986389583"><ele>561.0</ele><time>2026-05-04T07:14:55.999Z</time></trkpt><trkpt lat="43.83200985739241" lon="12.435281555165169"><ele>561.5</ele><time>2026-05-04T07:14:56.999Z</time></trkpt><trkpt lat="43.83193781997487" lon="12.435207311476004"><ele>562.0</ele><time>2026-05-04T07:14:57.999Z</time></trkpt><trkpt lat="43.831863951627746" lon="12.435145837431804"><ele>562.5</ele><time>2026-05-04T07:14:58.999Z</time></trkpt><trkpt lat="43.83178470054711" lon="12.435088068321923"><ele>563.0</ele><time>2026-05-04T07:14:59.999Z</time></trkpt><trkpt lat="43.83169727668203" lon="12.435034293867812"><ele>563.0</ele><time>2026-05-04T07:15:00.999Z</time></trkpt><trkpt lat="43.831615403984905" lon="12.434992872549225"><ele>563.0</ele><time>2026-05-04T07:15:01.999Z</time></trkpt><trkpt lat="43.831523853387985" lon="12.43494560598118"><ele>563.0</ele><time>2026-05-04T07:15:02.999Z</time></trkpt><trkpt lat="43.83143463227472" lon="12.434900956664803"><ele>563.0</ele><time>2026-05-04T07:15:03.999Z</time></trkpt><trkpt lat="43.83135320958368" lon="12.434850066857004"><ele>563.0</ele><time>2026-05-04T07:15:04.999Z</time></trkpt><trkpt lat="43.83128367291352" lon="12.434790037799711"><ele>563.0</ele><time>2026-05-04T07:15:05.999Z</time></trkpt><trkpt lat="43.83121427314019" lon="12.434716569530309"><ele>563.0</ele><time>2026-05-04T07:15:06.999Z</time></trkpt><trkpt lat="43.831149325210816" lon="12.43463967747297"><ele>563.0</ele><time>2026-05-04T07:15:07.999Z</time></trkpt><trkpt lat="43.83106413560927" lon="12.43456719594777"><ele>563.0</ele><time>2026-05-04T07:15:08.999Z</time></trkpt><trkpt lat="43.831000754746455" lon="12.43445399098721"><ele>563.0</ele><time>2026-05-04T07:15:09.999Z</time></trkpt><trkpt lat="43.83091300791159" lon="12.434357931984808"><ele>566.75</ele><time>2026-05-04T07:15:10.999Z</time></trkpt><trkpt lat="43.83082241787368" lon="12.434255785534468"><ele>570.5</ele><time>2026-05-04T07:15:11.999Z</time></trkpt><trkpt lat="43.830715415271875" lon="12.434141043419887"><ele>574.25</ele><time>2026-05-04T07:15:12.999Z</time></trkpt><trkpt lat="43.83061332368046" lon="12.433998671339802"><ele>578.0</ele><time>2026-05-04T07:15:13.999Z</time></trkpt><trkpt lat="43.830540196552576" lon="12.433912823822707"><ele>578.0</ele><time>2026-05-04T07:15:14.999Z</time></trkpt><trkpt lat="43.830468083272144" lon="12.433870187722599"><ele>578.0</ele><time>2026-05-04T07:15:16.999Z</time></trkpt><trkpt lat="43.83037600670229" lon="12.433899460571055"><ele>578.0</ele><time>2026-05-04T07:15:19.999Z</time></trkpt><trkpt lat="43.830350047839616" lon="12.433985804253037"><ele>578.0</ele><time>2026-05-04T07:15:21.999Z</time></trkpt><trkpt lat="43.83031469940517" lon="12.434074120944068"><ele>578.0</ele><time>2026-05-04T07:15:22.999Z</time></trkpt><trkpt lat="43.830248153909544" lon="12.434171075875197"><ele>578.0</ele><time>2026-05-04T07:15:24.999Z</time></trkpt><trkpt lat="43.83016539342478" lon="12.434186690327845"><ele>579.4</ele><time>2026-05-04T07:15:27Z</time></trkpt><trkpt lat="43.83008528155157" lon="12.434186663357114"><ele>580.8</ele><time>2026-05-04T07:15:29Z</time></trkpt><trkpt lat="43.83001818451362" lon="12.434122529835355"><ele>582.2</ele><time>2026-05-04T07:15:31Z</time></trkpt><trkpt lat="43.829928703391225" lon="12.434005619564132"><ele>583.6</ele><time>2026-05-04T07:15:33Z</time></trkpt><trkpt lat="43.82986319378554" lon="12.433884278369662"><ele>585.0</ele><time>2026-05-04T07:15:35Z</time></trkpt><trkpt lat="43.82981989682407" lon="12.433784330343984"><ele>584.6</ele><time>2026-05-04T07:15:37Z</time></trkpt><trkpt lat="43.82995741460701" lon="12.433697913358996"><ele>584.2</ele><time>2026-05-04T07:15:42Z</time></trkpt><trkpt lat="43.83007757802364" lon="12.433623384268628"><ele>583.8</ele><time>2026-05-04T07:15:44Z</time></trkpt><trkpt lat="43.83013295209795" lon="12.433556968819707"><ele>583.4</ele><time>2026-05-04T07:15:45Z</time></trkpt><trkpt lat="43.83016146553118" lon="12.433464873293037"><ele>583.0</ele><time>2026-05-04T07:15:46Z</time></trkpt><trkpt lat="43.830182366267294" lon="12.433279670119505"><ele>583.0</ele><time>2026-05-04T07:15:48Z</time></trkpt><trkpt lat="43.830172469536706" lon="12.433161546646316"><ele>583.0</ele><time>2026-05-04T07:15:49Z</time></trkpt><trkpt lat="43.83015495494492" lon="12.433044392340145"><ele>583.0</ele><time>2026-05-04T07:15:50Z</time></trkpt><trkpt lat="43.83014045476318" lon="12.432922779474074"><ele>583.0</ele><time>2026-05-04T07:15:51Z</time></trkpt><trkpt lat="43.83012390389931" lon="12.432784586739919"><ele>583.0</ele><time>2026-05-04T07:15:52Z</time></trkpt><trkpt lat="43.83010987656083" lon="12.432632134283953"><ele>585.1999999999999</ele><time>2026-05-04T07:15:53Z</time></trkpt><trkpt lat="43.83009424411834" lon="12.43247217461792"><ele>587.4</ele><time>2026-05-04T07:15:54Z</time></trkpt><trkpt lat="43.83008119006646" lon="12.432321272527199"><ele>589.5999999999999</ele><time>2026-05-04T07:15:55Z</time></trkpt><trkpt lat="43.83007360851569" lon="12.43219058139184"><ele>591.8</ele><time>2026-05-04T07:15:56Z</time></trkpt><trkpt lat="43.83007665391845" lon="12.43205350727432"><ele>594.0</ele><time>2026-05-04T07:15:57Z</time></trkpt><trkpt lat="43.83009015488653" lon="12.431917168983642"><ele>593.8</ele><time>2026-05-04T07:15:58Z</time></trkpt><trkpt lat="43.830105952192305" lon="12.431777616677639"><ele>593.5999999999999</ele><time>2026-05-04T07:15:59Z</time></trkpt><trkpt lat="43.830126090249955" lon="12.431636597016578"><ele>593.4</ele><time>2026-05-04T07:16:00Z</time></trkpt><trkpt lat="43.83014622302233" lon="12.431496910286388"><ele>593.1999999999999</ele><time>2026-05-04T07:16:01Z</time></trkpt><trkpt lat="43.83017000796087" lon="12.431354920393492"><ele>593.0</ele><time>2026-05-04T07:16:02Z</time></trkpt><trkpt lat="43.830201406034796" lon="12.431207065270534"><ele>593.75</ele><time>2026-05-04T07:16:03Z</time></trkpt><trkpt lat="43.83022904993216" lon="12.43105056459387"><ele>594.5</ele><time>2026-05-04T07:16:04Z</time></trkpt><trkpt lat="43.83025787410001" lon="12.430879238281173"><ele>595.25</ele><time>2026-05-04T07:16:05Z</time></trkpt><trkpt lat="43.83029099641118" lon="12.430706161126098"><ele>596.0</ele><time>2026-05-04T07:16:06Z</time></trkpt><trkpt lat="43.830320732589456" lon="12.43052683262819"><ele>597.0</ele><time>2026-05-04T07:16:07Z</time></trkpt><trkpt lat="43.83034181857572" lon="12.430356139838203"><ele>598.0</ele><time>2026-05-04T07:16:08Z</time></trkpt><trkpt lat="43.83034474909844" lon="12.430190558742542"><ele>599.0</ele><time>2026-05-04T07:16:09Z</time></trkpt><trkpt lat="43.830329732230226" lon="12.430017851368955"><ele>600.0</ele><time>2026-05-04T07:16:10Z</time></trkpt><trkpt lat="43.830307932774915" lon="12.429840557989312"><ele>600.0</ele><time>2026-05-04T07:16:11Z</time></trkpt><trkpt lat="43.830275697201955" lon="12.429667400509954"><ele>600.0</ele><time>2026-05-04T07:16:12Z</time></trkpt><trkpt lat="43.83024801078159" lon="12.429506863126148"><ele>600.0</ele><time>2026-05-04T07:16:13Z</time></trkpt><trkpt lat="43.83023205408703" lon="12.42936329286209"><ele>600.0</ele><time>2026-05-04T07:16:14Z</time></trkpt><trkpt lat="43.83021603411008" lon="12.429220957360561"><ele>600.6</ele><time>2026-05-04T07:16:15Z</time></trkpt><trkpt lat="43.83020887610183" lon="12.429092180768242"><ele>601.2</ele><time>2026-05-04T07:16:16Z</time></trkpt><trkpt lat="43.83020949823765" lon="12.428980291288136"><ele>601.8</ele><time>2026-05-04T07:16:17Z</time></trkpt><trkpt lat="43.83022020743987" lon="12.428884084655829"><ele>602.4</ele><time>2026-05-04T07:16:18Z</time></trkpt><trkpt lat="43.83023630290737" lon="12.42875067540431"><ele>603.0</ele><time>2026-05-04T07:16:20Z</time></trkpt><trkpt lat="43.83008799887698" lon="12.428610807308443"><ele>606.1666666666666</ele><time>2026-05-04T07:16:24Z</time></trkpt><trkpt lat="43.830013994679405" lon="12.428572007661886"><ele>609.3333333333334</ele><time>2026-05-04T07:16:25Z</time></trkpt><trkpt lat="43.82995778173525" lon="12.428530933198848"><ele>612.5</ele><time>2026-05-04T07:16:26Z</time></trkpt><trkpt lat="43.82990047965477" lon="12.428474451481964"><ele>615.6666666666667</ele><time>2026-05-04T07:16:27Z</time></trkpt><trkpt lat="43.829825229381456" lon="12.428394597139269"><ele>618.8333333333334</ele><time>2026-05-04T07:16:28Z</time></trkpt><trkpt lat="43.829722480482516" lon="12.428315180874849"><ele>622.0</ele><time>2026-05-04T07:16:29Z</time></trkpt><trkpt lat="43.82963155235247" lon="12.428196397789701"><ele>622.0</ele><time>2026-05-04T07:16:30Z</time></trkpt><trkpt lat="43.829553970812476" lon="12.42810722288689"><ele>622.0</ele><time>2026-05-04T07:16:31Z</time></trkpt><trkpt lat="43.82950095215372" lon="12.428029257385711"><ele>622.0</ele><time>2026-05-04T07:16:31.999Z</time></trkpt><trkpt lat="43.82945483580082" lon="12.427945375398673"><ele>622.0</ele><time>2026-05-04T07:16:32.999Z</time></trkpt><trkpt lat="43.82941634122847" lon="12.427869549804434"><ele>622.0</ele><time>2026-05-04T07:16:33.999Z</time></trkpt><trkpt lat="43.82934367929122" lon="12.427744125977945"><ele>622.0</ele><time>2026-05-04T07:16:35.999Z</time></trkpt><trkpt lat="43.82931828401257" lon="12.427607432181057"><ele>623.2</ele><time>2026-05-04T07:16:37.999Z</time></trkpt><trkpt lat="43.82929149554652" lon="12.427508289209955"><ele>624.4000000000001</ele><time>2026-05-04T07:16:39.999Z</time></trkpt><trkpt lat="43.82925863072304" lon="12.427377047747147"><ele>625.5999999999999</ele><time>2026-05-04T07:16:41.999Z</time></trkpt><trkpt lat="43.829215650010916" lon="12.427205960816918"><ele>626.8</ele><time>2026-05-04T07:16:43.999Z</time></trkpt><trkpt lat="43.829192760742124" lon="12.427115216547044"><ele>628.0</ele><time>2026-05-04T07:16:44.999Z</time></trkpt><trkpt lat="43.82916810641811" lon="12.427020060095206"><ele>630.3333333333334</ele><time>2026-05-04T07:16:45.999Z</time></trkpt><trkpt lat="43.82914589733823" lon="12.426934341314476"><ele>632.6666666666667</ele><time>2026-05-04T07:16:46.999Z</time></trkpt><trkpt lat="43.829120932793884" lon="12.426837987507014"><ele>635.0</ele><time>2026-05-04T07:16:47.999Z</time></trkpt><trkpt lat="43.82909870399754" lon="12.426752491200892"><ele>637.3333333333334</ele><time>2026-05-04T07:16:48.999Z</time></trkpt><trkpt lat="43.82906875988492" lon="12.426642019488563"><ele>639.6666666666666</ele><time>2026-05-04T07:16:49.999Z</time></trkpt><trkpt lat="43.82903428010661" lon="12.426524102209664"><ele>642.0</ele><time>2026-05-04T07:16:50.999Z</time></trkpt><trkpt lat="43.82899890976131" lon="12.426408076181986"><ele>645.5</ele><time>2026-05-04T07:16:51.999Z</time></trkpt><trkpt lat="43.828962551509974" lon="12.426303586315182"><ele>649.0</ele><time>2026-05-04T07:16:52.999Z</time></trkpt><trkpt lat="43.828923414962865" lon="12.426204497813348"><ele>652.5</ele><time>2026-05-04T07:16:53.999Z</time></trkpt><trkpt lat="43.82888273763799" lon="12.426112098866872"><ele>656.0</ele><time>2026-05-04T07:16:54.999Z</time></trkpt><trkpt lat="43.82883251662093" lon="12.426016472536826"><ele>659.5</ele><time>2026-05-04T07:16:55.999Z</time></trkpt><trkpt lat="43.8287725554794" lon="12.425910268046419"><ele>663.0</ele><time>2026-05-04T07:16:56.999Z</time></trkpt><trkpt lat="43.828713346092876" lon="12.425807930799042"><ele>663.0</ele><time>2026-05-04T07:16:57.999Z</time></trkpt><trkpt lat="43.82865469165695" lon="12.425708685176556"><ele>663.0</ele><time>2026-05-04T07:16:58.999Z</time></trkpt><trkpt lat="43.82859728475817" lon="12.425631462912653"><ele>663.0</ele><time>2026-05-04T07:16:59.999Z</time></trkpt><trkpt lat="43.82853632565008" lon="12.425560659686395"><ele>663.0</ele><time>2026-05-04T07:17:00.999Z</time></trkpt><trkpt lat="43.82845822228397" lon="12.425484017824566"><ele>663.0</ele><time>2026-05-04T07:17:01.999Z</time></trkpt><trkpt lat="43.828386974857054" lon="12.425424368623984"><ele>663.0</ele><time>2026-05-04T07:17:02.999Z</time></trkpt><trkpt lat="43.828307954013034" lon="12.425384774310082"><ele>663.0</ele><time>2026-05-04T07:17:03.999Z</time></trkpt><trkpt lat="43.82822181782462" lon="12.425356778914058"><ele>663.0</ele><time>2026-05-04T07:17:04.999Z</time></trkpt><trkpt lat="43.82812890983213" lon="12.425330418876143"><ele>663.0</ele><time>2026-05-04T07:17:05.999Z</time></trkpt><trkpt lat="43.828029131030284" lon="12.425312145738882"><ele>663.0</ele><time>2026-05-04T07:17:06.999Z</time></trkpt><trkpt lat="43.827928482877745" lon="12.425305447962359"><ele>663.0</ele><time>2026-05-04T07:17:07.999Z</time></trkpt><trkpt lat="43.82782306511377" lon="12.425329135129918"><ele>663.0</ele><time>2026-05-04T07:17:08.999Z</time></trkpt><trkpt lat="43.827756442434236" lon="12.425383445981018"><ele>663.0</ele><time>2026-05-04T07:17:09.999Z</time></trkpt><trkpt lat="43.82768291393388" lon="12.425408056373126"><ele>663.0</ele><time>2026-05-04T07:17:10.999Z</time></trkpt><trkpt lat="43.82757420482461" lon="12.42539581458383"><ele>663.0</ele><time>2026-05-04T07:17:12.999Z</time></trkpt><trkpt lat="43.82750365379205" lon="12.425357024732842"><ele>663.0</ele><time>2026-05-04T07:17:13.999Z</time></trkpt><trkpt lat="43.82742522492394" lon="12.425310026772348"><ele>663.0</ele><time>2026-05-04T07:17:14.999Z</time></trkpt><trkpt lat="43.827336895820366" lon="12.425265301900982"><ele>661.8</ele><time>2026-05-04T07:17:15.999Z</time></trkpt><trkpt lat="43.82724949163589" lon="12.425227882176248"><ele>660.5999999999999</ele><time>2026-05-04T07:17:16.999Z</time></trkpt><trkpt lat="43.827172656256884" lon="12.425144821302476"><ele>659.4000000000001</ele><time>2026-05-04T07:17:17.999Z</time></trkpt><trkpt lat="43.82707825060158" lon="12.425061348946953"><ele>658.2</ele><time>2026-05-04T07:17:18.999Z</time></trkpt><trkpt lat="43.82697734870688" lon="12.424971142569584"><ele>657.0</ele><time>2026-05-04T07:17:19.999Z</time></trkpt><trkpt lat="43.826896945715" lon="12.424907102892462"><ele>657.0</ele><time>2026-05-04T07:17:20.999Z</time></trkpt><trkpt lat="43.82681481140715" lon="12.42484626835762"><ele>657.0</ele><time>2026-05-04T07:17:21.999Z</time></trkpt><trkpt lat="43.82665866690024" lon="12.424775598718472"><ele>657.0</ele><time>2026-05-04T07:17:23.999Z</time></trkpt><trkpt lat="43.826574505392905" lon="12.42475066505529"><ele>657.0</ele><time>2026-05-04T07:17:24.999Z</time></trkpt><trkpt lat="43.826488157802416" lon="12.424725437262678"><ele>657.0</ele><time>2026-05-04T07:17:25.999Z</time></trkpt><trkpt lat="43.82639217871315" lon="12.424699811781254"><ele>655.1666666666666</ele><time>2026-05-04T07:17:26.999Z</time></trkpt><trkpt lat="43.826300261486175" lon="12.424688981188137"><ele>653.3333333333334</ele><time>2026-05-04T07:17:27.999Z</time></trkpt><trkpt lat="43.82620190883536" lon="12.424699672124431"><ele>651.5</ele><time>2026-05-04T07:17:28.999Z</time></trkpt><trkpt lat="43.826123962965454" lon="12.424710116916268"><ele>649.6666666666667</ele><time>2026-05-04T07:17:29.999Z</time></trkpt><trkpt lat="43.82605004335841" lon="12.42471070227245"><ele>647.8333333333334</ele><time>2026-05-04T07:17:30.999Z</time></trkpt><trkpt lat="43.82598109942153" lon="12.424690683489313"><ele>646.0</ele><time>2026-05-04T07:17:31.999Z</time></trkpt><trkpt lat="43.82590887613038" lon="12.4246516016488"><ele>647.4285714285714</ele><time>2026-05-04T07:17:33Z</time></trkpt><trkpt lat="43.825845858800434" lon="12.424592110231092"><ele>648.8571428571429</ele><time>2026-05-04T07:17:34Z</time></trkpt><trkpt lat="43.82581090040545" lon="12.424506057877545"><ele>650.2857142857142</ele><time>2026-05-04T07:17:35Z</time></trkpt><trkpt lat="43.82576987856493" lon="12.424412156576665"><ele>651.7142857142858</ele><time>2026-05-04T07:17:36Z</time></trkpt><trkpt lat="43.825739689654505" lon="12.42433140761432"><ele>653.1428571428571</ele><time>2026-05-04T07:17:37Z</time></trkpt><trkpt lat="43.82570932120222" lon="12.42423767751046"><ele>654.5714285714286</ele><time>2026-05-04T07:17:38Z</time></trkpt><trkpt lat="43.82568319589062" lon="12.424134279362713"><ele>656.0</ele><time>2026-05-04T07:17:39Z</time></trkpt><trkpt lat="43.8256638218138" lon="12.424026570234663"><ele>656.0</ele><time>2026-05-04T07:17:40Z</time></trkpt><trkpt lat="43.82564206534954" lon="12.423911093623888"><ele>656.0</ele><time>2026-05-04T07:17:41Z</time></trkpt><trkpt lat="43.82561514264449" lon="12.423803696400828"><ele>656.0</ele><time>2026-05-04T07:17:42Z</time></trkpt><trkpt lat="43.82557486072623" lon="12.423680625181076"><ele>656.0</ele><time>2026-05-04T07:17:43Z</time></trkpt><trkpt lat="43.82551553089064" lon="12.423602539128389"><ele>656.0</ele><time>2026-05-04T07:17:44Z</time></trkpt><trkpt lat="43.82546416457848" lon="12.423510866346598"><ele>656.0</ele><time>2026-05-04T07:17:45Z</time></trkpt><trkpt lat="43.82541278271154" lon="12.423445348141367"><ele>655.5</ele><time>2026-05-04T07:17:46Z</time></trkpt><trkpt lat="43.82532376372909" lon="12.423329857364491"><ele>655.0</ele><time>2026-05-04T07:17:48Z</time></trkpt><trkpt lat="43.82524809473025" lon="12.423239648371002"><ele>654.5</ele><time>2026-05-04T07:17:50Z</time></trkpt><trkpt lat="43.825160583932124" lon="12.423141202020343"><ele>654.0</ele><time>2026-05-04T07:17:52Z</time></trkpt><trkpt lat="43.825065867057205" lon="12.423021451710838"><ele>656.4000000000001</ele><time>2026-05-04T07:17:54Z</time></trkpt><trkpt lat="43.82501862930524" lon="12.422934586703105"><ele>658.8</ele><time>2026-05-04T07:17:55Z</time></trkpt><trkpt lat="43.8249650413987" lon="12.42287801011378"><ele>661.2</ele><time>2026-05-04T07:17:56Z</time></trkpt><trkpt lat="43.82491023096732" lon="12.422829097057724"><ele>663.5999999999999</ele><time>2026-05-04T07:17:57Z</time></trkpt><trkpt lat="43.8247812708825" lon="12.42278944285778"><ele>666.0</ele><time>2026-05-04T07:17:59Z</time></trkpt><trkpt lat="43.82466189145744" lon="12.422745369063307"><ele>666.0</ele><time>2026-05-04T07:18:00.999Z</time></trkpt><trkpt lat="43.824540713211455" lon="12.422719051025469"><ele>666.0</ele><time>2026-05-04T07:18:02.999Z</time></trkpt><trkpt lat="43.824419949290714" lon="12.422689848999287"><ele>666.0</ele><time>2026-05-04T07:18:04.999Z</time></trkpt><trkpt lat="43.82435757353882" lon="12.422655813539498"><ele>666.0</ele><time>2026-05-04T07:18:05.999Z</time></trkpt><trkpt lat="43.82427969095906" lon="12.42263500387324"><ele>666.0</ele><time>2026-05-04T07:18:06.999Z</time></trkpt><trkpt lat="43.82421042343528" lon="12.422616894660184"><ele>664.8333333333334</ele><time>2026-05-04T07:18:07.999Z</time></trkpt><trkpt lat="43.824127197763175" lon="12.422596468657657"><ele>663.6666666666666</ele><time>2026-05-04T07:18:08.999Z</time></trkpt><trkpt lat="43.824051410630965" lon="12.422578702013388"><ele>662.5</ele><time>2026-05-04T07:18:09.999Z</time></trkpt><trkpt lat="43.82396901617493" lon="12.42256045030479"><ele>661.3333333333333</ele><time>2026-05-04T07:18:10.999Z</time></trkpt><trkpt lat="43.823888648994576" lon="12.422542647670305"><ele>660.1666666666666</ele><time>2026-05-04T07:18:11.999Z</time></trkpt><trkpt lat="43.82382511394328" lon="12.42252779030575"><ele>659.0</ele><time>2026-05-04T07:18:12.999Z</time></trkpt><trkpt lat="43.823762344723924" lon="12.422511927330422"><ele>659.0</ele><time>2026-05-04T07:18:13.999Z</time></trkpt><trkpt lat="43.82365465428636" lon="12.422480836379789"><ele>659.0</ele><time>2026-05-04T07:18:15.999Z</time></trkpt><trkpt lat="43.82357936824421" lon="12.422465685629849"><ele>659.0</ele><time>2026-05-04T07:18:17.999Z</time></trkpt><trkpt lat="43.823608922221744" lon="12.422275460673658"><ele>659.0</ele><time>2026-05-04T07:18:18.999Z</time></trkpt><trkpt lat="43.82360915744582" lon="12.422173282379601"><ele>659.0</ele><time>2026-05-04T07:18:19.999Z</time></trkpt><trkpt lat="43.82360778619464" lon="12.422051858401304"><ele>660.8333333333333</ele><time>2026-05-04T07:18:20.999Z</time></trkpt><trkpt lat="43.823609548609895" lon="12.421928934454165"><ele>662.6666666666666</ele><time>2026-05-04T07:18:21.999Z</time></trkpt><trkpt lat="43.82360954860635" lon="12.421824113085465"><ele>664.5</ele><time>2026-05-04T07:18:22.999Z</time></trkpt><trkpt lat="43.82361311331563" lon="12.421735254705032"><ele>666.3333333333334</ele><time>2026-05-04T07:18:23.999Z</time></trkpt><trkpt lat="43.82361318892373" lon="12.421616971426229"><ele>668.1666666666667</ele><time>2026-05-04T07:18:24.999Z</time></trkpt><trkpt lat="43.82365857537218" lon="12.421526691905346"><ele>670.0</ele><time>2026-05-04T07:18:25.999Z</time></trkpt><trkpt lat="43.823708921123" lon="12.421410392295632"><ele>670.0</ele><time>2026-05-04T07:18:26.999Z</time></trkpt><trkpt lat="43.82373795709681" lon="12.421318042317974"><ele>670.0</ele><time>2026-05-04T07:18:27.999Z</time></trkpt><trkpt lat="43.82377471549966" lon="12.421245929629144"><ele>670.0</ele><time>2026-05-04T07:18:28.999Z</time></trkpt><trkpt lat="43.82382473083574" lon="12.421191799266612"><ele>670.0</ele><time>2026-05-04T07:18:29.999Z</time></trkpt><trkpt lat="43.823895354800975" lon="12.421045710417882"><ele>670.0</ele><time>2026-05-04T07:18:31.999Z</time></trkpt><trkpt lat="43.82394508601631" lon="12.420988657243422"><ele>670.0</ele><time>2026-05-04T07:18:32.999Z</time></trkpt><trkpt lat="43.82402424445705" lon="12.420826294671349"><ele>671.0</ele><time>2026-05-04T07:18:34.999Z</time></trkpt><trkpt lat="43.82406203086705" lon="12.42071267660321"><ele>672.0</ele><time>2026-05-04T07:18:35.999Z</time></trkpt><trkpt lat="43.824103118968374" lon="12.420581977538554"><ele>673.0</ele><time>2026-05-04T07:18:36.999Z</time></trkpt><trkpt lat="43.824148365169854" lon="12.42044960975069"><ele>674.0</ele><time>2026-05-04T07:18:37.999Z</time></trkpt><trkpt lat="43.82418667806613" lon="12.420303626978674"><ele>675.0</ele><time>2026-05-04T07:18:38.999Z</time></trkpt><trkpt lat="43.824232710504724" lon="12.420143388706311"><ele>675.0</ele><time>2026-05-04T07:18:39.999Z</time></trkpt><trkpt lat="43.82426243450292" lon="12.419990085749431"><ele>675.0</ele><time>2026-05-04T07:18:40.999Z</time></trkpt><trkpt lat="43.824297753068784" lon="12.4198383367061"><ele>675.0</ele><time>2026-05-04T07:18:41.999Z</time></trkpt><trkpt lat="43.82434230254769" lon="12.419687933875036"><ele>675.0</ele><time>2026-05-04T07:18:42.999Z</time></trkpt><trkpt lat="43.824390622742754" lon="12.419548245799175"><ele>678.6</ele><time>2026-05-04T07:18:43.999Z</time></trkpt><trkpt lat="43.824429632884836" lon="12.419407938025529"><ele>682.2</ele><time>2026-05-04T07:18:44.999Z</time></trkpt><trkpt lat="43.824476630328974" lon="12.419275096048825"><ele>685.8</ele><time>2026-05-04T07:18:45.999Z</time></trkpt><trkpt lat="43.82452322463703" lon="12.419130295234512"><ele>689.4</ele><time>2026-05-04T07:18:46.999Z</time></trkpt><trkpt lat="43.82456045134478" lon="12.418991410036552"><ele>693.0</ele><time>2026-05-04T07:18:47.999Z</time></trkpt><trkpt lat="43.824588120475184" lon="12.418847171951661"><ele>692.4</ele><time>2026-05-04T07:18:48.999Z</time></trkpt><trkpt lat="43.82460005197177" lon="12.418721698913574"><ele>691.8</ele><time>2026-05-04T07:18:49.999Z</time></trkpt><trkpt lat="43.82460631050004" lon="12.418606847877"><ele>691.2</ele><time>2026-05-04T07:18:50.999Z</time></trkpt><trkpt lat="43.82460038538906" lon="12.418486120457784"><ele>690.6</ele><time>2026-05-04T07:18:51.999Z</time></trkpt><trkpt lat="43.82457059366957" lon="12.418348166904446"><ele>690.0</ele><time>2026-05-04T07:18:52.999Z</time></trkpt><trkpt lat="43.82452862745268" lon="12.418207838174288"><ele>690.0</ele><time>2026-05-04T07:18:53.999Z</time></trkpt><trkpt lat="43.824473365677356" lon="12.418081667698038"><ele>690.0</ele><time>2026-05-04T07:18:54.999Z</time></trkpt><trkpt lat="43.82444400937675" lon="12.41794402673538"><ele>690.0</ele><time>2026-05-04T07:18:55.999Z</time></trkpt><trkpt lat="43.82444333126738" lon="12.417834233868836"><ele>690.0</ele><time>2026-05-04T07:18:56.999Z</time></trkpt><trkpt lat="43.82444179434403" lon="12.417722614548842"><ele>690.0</ele><time>2026-05-04T07:18:57.999Z</time></trkpt><trkpt lat="43.824438791830936" lon="12.417608755382513"><ele>690.0</ele><time>2026-05-04T07:18:58.999Z</time></trkpt><trkpt lat="43.824449595044214" lon="12.417475127746927"><ele>690.0</ele><time>2026-05-04T07:18:59.999Z</time></trkpt><trkpt lat="43.82445009803423" lon="12.417330782132211"><ele>690.0</ele><time>2026-05-04T07:19:00.999Z</time></trkpt><trkpt lat="43.82444604211678" lon="12.417181916460104"><ele>690.0</ele><time>2026-05-04T07:19:01.999Z</time></trkpt><trkpt lat="43.824442132193106" lon="12.4170418399371"><ele>690.0</ele><time>2026-05-04T07:19:02.999Z</time></trkpt><trkpt lat="43.82444655653078" lon="12.416885216239873"><ele>690.5</ele><time>2026-05-04T07:19:03.999Z</time></trkpt><trkpt lat="43.82445007563558" lon="12.416736072645222"><ele>691.0</ele><time>2026-05-04T07:19:04.999Z</time></trkpt><trkpt lat="43.824455740227215" lon="12.416576599787167"><ele>691.5</ele><time>2026-05-04T07:19:05.999Z</time></trkpt><trkpt lat="43.824459923828776" lon="12.416410583400538"><ele>692.0</ele><time>2026-05-04T07:19:06.999Z</time></trkpt><trkpt lat="43.82446101391769" lon="12.416244850204292"><ele>692.8</ele><time>2026-05-04T07:19:07.999Z</time></trkpt><trkpt lat="43.82446882747391" lon="12.416074133013154"><ele>693.6</ele><time>2026-05-04T07:19:08.999Z</time></trkpt><trkpt lat="43.824467199674146" lon="12.415919337615403"><ele>694.4</ele><time>2026-05-04T07:19:09.999Z</time></trkpt><trkpt lat="43.82446066885468" lon="12.415772537164397"><ele>695.1999999999999</ele><time>2026-05-04T07:19:10.999Z</time></trkpt><trkpt lat="43.824458699857495" lon="12.415637663475692"><ele>696.0</ele><time>2026-05-04T07:19:11.999Z</time></trkpt><trkpt lat="43.82445093648058" lon="12.415526986243828"><ele>697.6666666666666</ele><time>2026-05-04T07:19:12.999Z</time></trkpt><trkpt lat="43.8244494956909" lon="12.415428208431003"><ele>699.3333333333334</ele><time>2026-05-04T07:19:13.999Z</time></trkpt><trkpt lat="43.824417175857555" lon="12.415324728249013"><ele>701.0</ele><time>2026-05-04T07:19:14.999Z</time></trkpt><trkpt lat="43.824364330666214" lon="12.41524553445008"><ele>702.6666666666667</ele><time>2026-05-04T07:19:15.999Z</time></trkpt><trkpt lat="43.824277537730225" lon="12.415227885627905"><ele>704.3333333333334</ele><time>2026-05-04T07:19:16.999Z</time></trkpt><trkpt lat="43.82420711051768" lon="12.415221183058057"><ele>706.0</ele><time>2026-05-04T07:19:17.999Z</time></trkpt><trkpt lat="43.824117163350834" lon="12.41523722374937"><ele>701.5999999999999</ele><time>2026-05-04T07:19:18.999Z</time></trkpt><trkpt lat="43.824017591389826" lon="12.415210634897106"><ele>697.2</ele><time>2026-05-04T07:19:19.999Z</time></trkpt><trkpt lat="43.82393778079226" lon="12.41518985308731"><ele>692.8</ele><time>2026-05-04T07:19:20.999Z</time></trkpt><trkpt lat="43.82384942027071" lon="12.415160283992659"><ele>688.4000000000001</ele><time>2026-05-04T07:19:21.999Z</time></trkpt><trkpt lat="43.82377096594759" lon="12.41512877417718"><ele>684.0</ele><time>2026-05-04T07:19:22.999Z</time></trkpt><trkpt lat="43.823665431144214" lon="12.415082028271572"><ele>684.0</ele><time>2026-05-04T07:19:23.999Z</time></trkpt><trkpt lat="43.82357256590656" lon="12.415037414406791"><ele>684.0</ele><time>2026-05-04T07:19:24.999Z</time></trkpt><trkpt lat="43.82348753946202" lon="12.414992677220505"><ele>684.0</ele><time>2026-05-04T07:19:25.999Z</time></trkpt><trkpt lat="43.82341004775085" lon="12.414944852829732"><ele>684.0</ele><time>2026-05-04T07:19:26.999Z</time></trkpt><trkpt lat="43.82332891727755" lon="12.414888000944828"><ele>684.0</ele><time>2026-05-04T07:19:27.999Z</time></trkpt><trkpt lat="43.823268976229116" lon="12.41483812285316"><ele>684.0</ele><time>2026-05-04T07:19:28.999Z</time></trkpt><trkpt lat="43.82324220746191" lon="12.414744793162502"><ele>680.5</ele><time>2026-05-04T07:19:31.999Z</time></trkpt><trkpt lat="43.823278822757686" lon="12.414610476940565"><ele>677.0</ele><time>2026-05-04T07:19:33.999Z</time></trkpt><trkpt lat="43.82332276211972" lon="12.41452773642074"><ele>673.5</ele><time>2026-05-04T07:19:34.999Z</time></trkpt><trkpt lat="43.82335254708964" lon="12.414437575478518"><ele>670.0</ele><time>2026-05-04T07:19:35.999Z</time></trkpt><trkpt lat="43.82338337541289" lon="12.414352681985262"><ele>666.5</ele><time>2026-05-04T07:19:36.999Z</time></trkpt><trkpt lat="43.8234146309337" lon="12.414269663213137"><ele>663.0</ele><time>2026-05-04T07:19:37.999Z</time></trkpt><trkpt lat="43.823452757495595" lon="12.414172705936346"><ele>666.0</ele><time>2026-05-04T07:19:39Z</time></trkpt><trkpt lat="43.823489852011626" lon="12.414071541744613"><ele>669.0</ele><time>2026-05-04T07:19:40Z</time></trkpt><trkpt lat="43.82353440016708" lon="12.413956715874397"><ele>672.0</ele><time>2026-05-04T07:19:41Z</time></trkpt><trkpt lat="43.82358505362497" lon="12.413832183897377"><ele>675.0</ele><time>2026-05-04T07:19:42Z</time></trkpt><trkpt lat="43.82363426314908" lon="12.41369610694466"><ele>678.0</ele><time>2026-05-04T07:19:43Z</time></trkpt><trkpt lat="43.8236864530392" lon="12.413556972376627"><ele>678.0</ele><time>2026-05-04T07:19:44Z</time></trkpt><trkpt lat="43.82374137266085" lon="12.41342174244832"><ele>678.0</ele><time>2026-05-04T07:19:45Z</time></trkpt><trkpt lat="43.82379511310053" lon="12.413285770539883"><ele>678.0</ele><time>2026-05-04T07:19:46Z</time></trkpt><trkpt lat="43.82384784966802" lon="12.41315163195631"><ele>678.0</ele><time>2026-05-04T07:19:47Z</time></trkpt><trkpt lat="43.823893671257224" lon="12.413014611824948"><ele>678.0</ele><time>2026-05-04T07:19:48Z</time></trkpt><trkpt lat="43.823949016741054" lon="12.412870258336108"><ele>676.8</ele><time>2026-05-04T07:19:49.001Z</time></trkpt><trkpt lat="43.824002368969076" lon="12.412731907031073"><ele>675.5999999999999</ele><time>2026-05-04T07:19:50.001Z</time></trkpt><trkpt lat="43.824048440589145" lon="12.412594216033058"><ele>674.4000000000001</ele><time>2026-05-04T07:19:51.001Z</time></trkpt><trkpt lat="43.82409195843183" lon="12.412464072217055"><ele>673.2</ele><time>2026-05-04T07:19:52.001Z</time></trkpt><trkpt lat="43.824140053101246" lon="12.41234511547947"><ele>672.0</ele><time>2026-05-04T07:19:53.001Z</time></trkpt><trkpt lat="43.8241830518379" lon="12.412226827701787"><ele>671.0</ele><time>2026-05-04T07:19:54.001Z</time></trkpt><trkpt lat="43.82422724116879" lon="12.412109673993198"><ele>670.0</ele><time>2026-05-04T07:19:55.001Z</time></trkpt><trkpt lat="43.82426796478957" lon="12.412016240864679"><ele>669.0</ele><time>2026-05-04T07:19:56.001Z</time></trkpt><trkpt lat="43.824319278842104" lon="12.411894279664505"><ele>668.0</ele><time>2026-05-04T07:19:57Z</time></trkpt><trkpt lat="43.82436201628771" lon="12.411784890297978"><ele>667.0</ele><time>2026-05-04T07:19:58Z</time></trkpt><trkpt lat="43.8243872356849" lon="12.411694763001218"><ele>666.0</ele><time>2026-05-04T07:19:59Z</time></trkpt><trkpt lat="43.824396246622335" lon="12.411586358202337"><ele>665.8</ele><time>2026-05-04T07:20:00Z</time></trkpt><trkpt lat="43.82440443744289" lon="12.411471263997424"><ele>665.5999999999999</ele><time>2026-05-04T07:20:01Z</time></trkpt><trkpt lat="43.82437623307522" lon="12.411342830053325"><ele>665.4</ele><time>2026-05-04T07:20:02Z</time></trkpt><trkpt lat="43.82434585442593" lon="12.411219220316049"><ele>665.2</ele><time>2026-05-04T07:20:03Z</time></trkpt><trkpt lat="43.82430397888031" lon="12.411085399940875"><ele>665.0</ele><time>2026-05-04T07:20:04Z</time></trkpt><trkpt lat="43.824258832739886" lon="12.41094659727822"><ele>664.75</ele><time>2026-05-04T07:20:05Z</time></trkpt><trkpt lat="43.82421631213316" lon="12.410798614234286"><ele>664.5</ele><time>2026-05-04T07:20:06Z</time></trkpt><trkpt lat="43.824179587248906" lon="12.410642581895203"><ele>664.25</ele><time>2026-05-04T07:20:07Z</time></trkpt><trkpt lat="43.82413136599339" lon="12.41048659629366"><ele>664.0</ele><time>2026-05-04T07:20:08Z</time></trkpt><trkpt lat="43.824091233684925" lon="12.41032592412196"><ele>664.0</ele><time>2026-05-04T07:20:09Z</time></trkpt><trkpt lat="43.82405123553689" lon="12.410170198516717"><ele>664.0</ele><time>2026-05-04T07:20:10Z</time></trkpt><trkpt lat="43.82402531160035" lon="12.41001242328972"><ele>664.0</ele><time>2026-05-04T07:20:11Z</time></trkpt><trkpt lat="43.82398384015806" lon="12.40985695205686"><ele>664.0</ele><time>2026-05-04T07:20:12Z</time></trkpt><trkpt lat="43.82394306283494" lon="12.409704837940227"><ele>663.0</ele><time>2026-05-04T07:20:13Z</time></trkpt><trkpt lat="43.8239012177145" lon="12.40954874050471"><ele>662.0</ele><time>2026-05-04T07:20:14Z</time></trkpt><trkpt lat="43.823849115624135" lon="12.409397723843401"><ele>661.0</ele><time>2026-05-04T07:20:15Z</time></trkpt><trkpt lat="43.82380687939686" lon="12.409237671670928"><ele>660.0</ele><time>2026-05-04T07:20:16Z</time></trkpt><trkpt lat="43.82376799679275" lon="12.40908791493409"><ele>660.0</ele><time>2026-05-04T07:20:17Z</time></trkpt><trkpt lat="43.82375480964595" lon="12.40894614800348"><ele>660.0</ele><time>2026-05-04T07:20:18Z</time></trkpt><trkpt lat="43.823726110684966" lon="12.408828795024077"><ele>660.0</ele><time>2026-05-04T07:20:19Z</time></trkpt><trkpt lat="43.82372754539631" lon="12.408738486156318"><ele>660.0</ele><time>2026-05-04T07:20:20Z</time></trkpt><trkpt lat="43.82373232312195" lon="12.408606239879985"><ele>660.0</ele><time>2026-05-04T07:20:22Z</time></trkpt><trkpt lat="43.82374248444359" lon="12.408516719190047"><ele>660.0</ele><time>2026-05-04T07:20:38Z</time></trkpt><trkpt lat="43.82379041924584" lon="12.408351982961035"><ele>660.3333333333334</ele><time>2026-05-04T07:20:41Z</time></trkpt><trkpt lat="43.823842630863055" lon="12.408253750556197"><ele>660.6666666666666</ele><time>2026-05-04T07:20:42Z</time></trkpt><trkpt lat="43.823899478627766" lon="12.408166679073457"><ele>661.0</ele><time>2026-05-04T07:20:43Z</time></trkpt><trkpt lat="43.823957878511656" lon="12.408094784629961"><ele>661.3333333333333</ele><time>2026-05-04T07:20:44Z</time></trkpt><trkpt lat="43.82403260943451" lon="12.408010720690152"><ele>661.6666666666666</ele><time>2026-05-04T07:20:46Z</time></trkpt><trkpt lat="43.82408681415903" lon="12.40792544893389"><ele>662.0</ele><time>2026-05-04T07:20:48Z</time></trkpt><trkpt lat="43.82395715657352" lon="12.407871926260551"><ele>662.0</ele><time>2026-05-04T07:20:50Z</time></trkpt><trkpt lat="43.82412831510307" lon="12.407671337770037"><ele>662.0</ele><time>2026-05-04T07:20:51Z</time></trkpt><trkpt lat="43.8241574493717" lon="12.407540953817461"><ele>662.0</ele><time>2026-05-04T07:20:53Z</time></trkpt><trkpt lat="43.82421159999147" lon="12.407477886044601"><ele>662.0</ele><time>2026-05-04T07:20:55Z</time></trkpt><trkpt lat="43.82429634501728" lon="12.407468339824149"><ele>658.6666666666666</ele><time>2026-05-04T07:20:58Z</time></trkpt><trkpt lat="43.82434188914824" lon="12.407579400728633"><ele>655.3333333333333</ele><time>2026-05-04T07:21:00Z</time></trkpt><trkpt lat="43.8244244953046" lon="12.407666173475564"><ele>652.0</ele><time>2026-05-04T07:21:01Z</time></trkpt><trkpt lat="43.82448303328263" lon="12.407730080203546"><ele>648.6666666666666</ele><time>2026-05-04T07:21:02Z</time></trkpt><trkpt lat="43.82455206028909" lon="12.407783623891419"><ele>645.3333333333334</ele><time>2026-05-04T07:21:03Z</time></trkpt><trkpt lat="43.82461652043389" lon="12.407805035509606"><ele>642.0</ele><time>2026-05-04T07:21:04Z</time></trkpt><trkpt lat="43.82472237694634" lon="12.407806831831351"><ele>642.0</ele><time>2026-05-04T07:21:06Z</time></trkpt><trkpt lat="43.82480762946617" lon="12.407707689114543"><ele>642.0</ele><time>2026-05-04T07:21:08Z</time></trkpt><trkpt lat="43.82479846046591" lon="12.407577419363443"><ele>642.0</ele><time>2026-05-04T07:21:09Z</time></trkpt><trkpt lat="43.82477244257115" lon="12.407477217492287"><ele>642.0</ele><time>2026-05-04T07:21:10Z</time></trkpt><trkpt lat="43.82474530397351" lon="12.40737374034386"><ele>642.0</ele><time>2026-05-04T07:21:11Z</time></trkpt><trkpt lat="43.824717354700894" lon="12.407260579318303"><ele>642.0</ele><time>2026-05-04T07:21:12Z</time></trkpt><trkpt lat="43.82467077022752" lon="12.407133960974052"><ele>639.75</ele><time>2026-05-04T07:21:13Z</time></trkpt><trkpt lat="43.82459195847793" lon="12.407024814709615"><ele>637.5</ele><time>2026-05-04T07:21:14Z</time></trkpt><trkpt lat="43.824488309370636" lon="12.406946989589816"><ele>635.25</ele><time>2026-05-04T07:21:15Z</time></trkpt><trkpt lat="43.82441565659334" lon="12.406834236658034"><ele>633.0</ele><time>2026-05-04T07:21:16Z</time></trkpt><trkpt lat="43.82433411439284" lon="12.406728111884624"><ele>632.4</ele><time>2026-05-04T07:21:17Z</time></trkpt><trkpt lat="43.824238401615055" lon="12.406622009440571"><ele>631.8</ele><time>2026-05-04T07:21:18Z</time></trkpt><trkpt lat="43.82416230883491" lon="12.406523308167365"><ele>631.2</ele><time>2026-05-04T07:21:19Z</time></trkpt><trkpt lat="43.82409424860577" lon="12.40642649498997"><ele>630.6</ele><time>2026-05-04T07:21:20Z</time></trkpt><trkpt lat="43.824033509862815" lon="12.406337802858154"><ele>630.0</ele><time>2026-05-04T07:21:21Z</time></trkpt><trkpt lat="43.823989794948886" lon="12.40624364385486"><ele>630.0</ele><time>2026-05-04T07:21:22Z</time></trkpt><trkpt lat="43.82395010571791" lon="12.40617290774036"><ele>630.0</ele><time>2026-05-04T07:21:23Z</time></trkpt><trkpt lat="43.823892303726645" lon="12.406056794837612"><ele>630.0</ele><time>2026-05-04T07:21:25Z</time></trkpt><trkpt lat="43.82385461490712" lon="12.405975072322386"><ele>630.0</ele><time>2026-05-04T07:21:27Z</time></trkpt><trkpt lat="43.82378930600482" lon="12.405870245643602"><ele>630.0</ele><time>2026-05-04T07:21:36Z</time></trkpt><trkpt lat="43.82371902519839" lon="12.40573792942631"><ele>630.0</ele><time>2026-05-04T07:21:38Z</time></trkpt><trkpt lat="43.82366524625198" lon="12.405648019889181"><ele>630.0</ele><time>2026-05-04T07:21:39Z</time></trkpt><trkpt lat="43.82361991443259" lon="12.405541603120476"><ele>630.0</ele><time>2026-05-04T07:21:40Z</time></trkpt><trkpt lat="43.82359378228154" lon="12.405410476157279"><ele>630.0</ele><time>2026-05-04T07:21:41Z</time></trkpt><trkpt lat="43.8235671377162" lon="12.405268484452298"><ele>630.0</ele><time>2026-05-04T07:21:42Z</time></trkpt><trkpt lat="43.82354788048995" lon="12.405124607262946"><ele>630.0</ele><time>2026-05-04T07:21:43Z</time></trkpt><trkpt lat="43.82351240314393" lon="12.404977957803807"><ele>630.0</ele><time>2026-05-04T07:21:44.001Z</time></trkpt><trkpt lat="43.823489639233024" lon="12.404832524479357"><ele>630.0</ele><time>2026-05-04T07:21:45.001Z</time></trkpt><trkpt lat="43.82346489173629" lon="12.404677217812237"><ele>630.0</ele><time>2026-05-04T07:21:46.001Z</time></trkpt><trkpt lat="43.82343770550427" lon="12.404529325117853"><ele>630.0</ele><time>2026-05-04T07:21:47.001Z</time></trkpt><trkpt lat="43.82340101206526" lon="12.40440477745715"><ele>630.0</ele><time>2026-05-04T07:21:48.001Z</time></trkpt><trkpt lat="43.823352975545234" lon="12.404295407598358"><ele>630.0</ele><time>2026-05-04T07:21:49.001Z</time></trkpt><trkpt lat="43.82329001341779" lon="12.404190633153343"><ele>630.0</ele><time>2026-05-04T07:21:50.001Z</time></trkpt><trkpt lat="43.82322352965293" lon="12.404098236258111"><ele>630.0</ele><time>2026-05-04T07:21:51.001Z</time></trkpt><trkpt lat="43.82314831389804" lon="12.404003463725259"><ele>630.0</ele><time>2026-05-04T07:21:52.001Z</time></trkpt><trkpt lat="43.82307124051546" lon="12.4039069390377"><ele>628.5</ele><time>2026-05-04T07:21:53.001Z</time></trkpt><trkpt lat="43.82299834092921" lon="12.403797121210232"><ele>627.0</ele><time>2026-05-04T07:21:54.001Z</time></trkpt><trkpt lat="43.822932036551855" lon="12.40366584685894"><ele>625.5</ele><time>2026-05-04T07:21:55.001Z</time></trkpt><trkpt lat="43.822868536889196" lon="12.40352372984535"><ele>624.0</ele><time>2026-05-04T07:21:56.001Z</time></trkpt><trkpt lat="43.822808970381466" lon="12.403376957607648"><ele>624.0</ele><time>2026-05-04T07:21:57.001Z</time></trkpt><trkpt lat="43.82275011841773" lon="12.403229297221548"><ele>624.0</ele><time>2026-05-04T07:21:58.001Z</time></trkpt><trkpt lat="43.82269392301022" lon="12.403080175797427"><ele>624.0</ele><time>2026-05-04T07:21:59.001Z</time></trkpt><trkpt lat="43.82264207381942" lon="12.402928982174902"><ele>624.0</ele><time>2026-05-04T07:22:00.001Z</time></trkpt><trkpt lat="43.8225986172217" lon="12.40277240185823"><ele>626.0</ele><time>2026-05-04T07:22:01.001Z</time></trkpt><trkpt lat="43.82255769069162" lon="12.402631449875402"><ele>628.0</ele><time>2026-05-04T07:22:02.001Z</time></trkpt><trkpt lat="43.8224971674537" lon="12.402464269510146"><ele>630.0</ele><time>2026-05-04T07:22:03.001Z</time></trkpt><trkpt lat="43.8224523102709" lon="12.402311208924791"><ele>632.0</ele><time>2026-05-04T07:22:04.001Z</time></trkpt><trkpt lat="43.822411187170125" lon="12.402161007072857"><ele>632.0</ele><time>2026-05-04T07:22:05.001Z</time></trkpt><trkpt lat="43.82238187868655" lon="12.40199201983364"><ele>632.0</ele><time>2026-05-04T07:22:06.001Z</time></trkpt><trkpt lat="43.82233815352504" lon="12.401830936145126"><ele>632.0</ele><time>2026-05-04T07:22:07Z</time></trkpt><trkpt lat="43.82229474322806" lon="12.40166873192603"><ele>632.0</ele><time>2026-05-04T07:22:08Z</time></trkpt><trkpt lat="43.82224008704208" lon="12.401510583212582"><ele>632.0</ele><time>2026-05-04T07:22:09Z</time></trkpt><trkpt lat="43.822192601099424" lon="12.40133928648943"><ele>632.0</ele><time>2026-05-04T07:22:10Z</time></trkpt><trkpt lat="43.82215871187802" lon="12.401161487024156"><ele>632.0</ele><time>2026-05-04T07:22:11Z</time></trkpt><trkpt lat="43.8221012703583" lon="12.40100122351608"><ele>632.0</ele><time>2026-05-04T07:22:12Z</time></trkpt><trkpt lat="43.82207531169163" lon="12.40081777145763"><ele>630.75</ele><time>2026-05-04T07:22:13Z</time></trkpt><trkpt lat="43.82204985419007" lon="12.400663447623836"><ele>629.5</ele><time>2026-05-04T07:22:14Z</time></trkpt><trkpt lat="43.82201363706146" lon="12.400510152344864"><ele>628.25</ele><time>2026-05-04T07:22:15Z</time></trkpt><trkpt lat="43.82199199066282" lon="12.400328496822148"><ele>627.0</ele><time>2026-05-04T07:22:16Z</time></trkpt><trkpt lat="43.82197247665476" lon="12.400150975114073"><ele>626.75</ele><time>2026-05-04T07:22:17Z</time></trkpt><trkpt lat="43.821976169923744" lon="12.39998291659075"><ele>626.5</ele><time>2026-05-04T07:22:18Z</time></trkpt><trkpt lat="43.82196765707464" lon="12.399804800695847"><ele>626.25</ele><time>2026-05-04T07:22:19Z</time></trkpt><trkpt lat="43.82194919797267" lon="12.3996234941054"><ele>626.0</ele><time>2026-05-04T07:22:20Z</time></trkpt><trkpt lat="43.821948652118245" lon="12.399432743829328"><ele>627.0</ele><time>2026-05-04T07:22:21Z</time></trkpt><trkpt lat="43.82195139532175" lon="12.399246883906846"><ele>628.0</ele><time>2026-05-04T07:22:22Z</time></trkpt><trkpt lat="43.82197380461963" lon="12.399064553825527"><ele>629.0</ele><time>2026-05-04T07:22:23Z</time></trkpt><trkpt lat="43.821986184320096" lon="12.398885368701135"><ele>630.0</ele><time>2026-05-04T07:22:24Z</time></trkpt><trkpt lat="43.822006498684516" lon="12.398708385116652"><ele>631.5</ele><time>2026-05-04T07:22:25Z</time></trkpt><trkpt lat="43.82202863496215" lon="12.398534626476366"><ele>633.0</ele><time>2026-05-04T07:22:26Z</time></trkpt><trkpt lat="43.82208067570649" lon="12.398356299886812"><ele>634.5</ele><time>2026-05-04T07:22:27Z</time></trkpt><trkpt lat="43.82213101167619" lon="12.398190043582902"><ele>636.0</ele><time>2026-05-04T07:22:28Z</time></trkpt><trkpt lat="43.82219002285593" lon="12.398018564407595"><ele>636.0</ele><time>2026-05-04T07:22:29Z</time></trkpt><trkpt lat="43.822251342108004" lon="12.397842386810835"><ele>636.0</ele><time>2026-05-04T07:22:30Z</time></trkpt><trkpt lat="43.822316857974116" lon="12.39765780569697"><ele>636.0</ele><time>2026-05-04T07:22:31Z</time></trkpt><trkpt lat="43.82238141271699" lon="12.397470868030863"><ele>636.0</ele><time>2026-05-04T07:22:32Z</time></trkpt><trkpt lat="43.82244586191726" lon="12.39728314587833"><ele>637.5</ele><time>2026-05-04T07:22:33Z</time></trkpt><trkpt lat="43.822502515072756" lon="12.397098632011932"><ele>639.0</ele><time>2026-05-04T07:22:34Z</time></trkpt><trkpt lat="43.82254409886689" lon="12.396930746978441"><ele>640.5</ele><time>2026-05-04T07:22:35Z</time></trkpt><trkpt lat="43.82258299506604" lon="12.396777947350774"><ele>642.0</ele><time>2026-05-04T07:22:36Z</time></trkpt><trkpt lat="43.822612351911594" lon="12.396636863244472"><ele>642.0</ele><time>2026-05-04T07:22:37Z</time></trkpt><trkpt lat="43.82261533359816" lon="12.396493218126578"><ele>642.0</ele><time>2026-05-04T07:22:38Z</time></trkpt><trkpt lat="43.82258280783856" lon="12.396346285128658"><ele>642.0</ele><time>2026-05-04T07:22:39Z</time></trkpt><trkpt lat="43.82253510065008" lon="12.396198646583146"><ele>642.0</ele><time>2026-05-04T07:22:40Z</time></trkpt><trkpt lat="43.82243505297012" lon="12.396086880218022"><ele>643.5</ele><time>2026-05-04T07:22:41Z</time></trkpt><trkpt lat="43.82233772849001" lon="12.395972435499225"><ele>645.0</ele><time>2026-05-04T07:22:42Z</time></trkpt><trkpt lat="43.82223328887628" lon="12.39585643503229"><ele>646.5</ele><time>2026-05-04T07:22:43Z</time></trkpt><trkpt lat="43.82213893882455" lon="12.395729363504472"><ele>648.0</ele><time>2026-05-04T07:22:44Z</time></trkpt><trkpt lat="43.822037826035874" lon="12.395612790467135"><ele>648.75</ele><time>2026-05-04T07:22:45Z</time></trkpt><trkpt lat="43.8219344932572" lon="12.395488332415317"><ele>649.5</ele><time>2026-05-04T07:22:46Z</time></trkpt><trkpt lat="43.82183703022523" lon="12.395363111160986"><ele>650.25</ele><time>2026-05-04T07:22:47Z</time></trkpt><trkpt lat="43.821744616545296" lon="12.395235022329054"><ele>651.0</ele><time>2026-05-04T07:22:48Z</time></trkpt><trkpt lat="43.82164427946987" lon="12.395107262340149"><ele>652.5</ele><time>2026-05-04T07:22:49Z</time></trkpt><trkpt lat="43.821561749988135" lon="12.394957834741554"><ele>654.0</ele><time>2026-05-04T07:22:50Z</time></trkpt><trkpt lat="43.821490031132996" lon="12.394811701554872"><ele>655.5</ele><time>2026-05-04T07:22:51Z</time></trkpt><trkpt lat="43.82142562768628" lon="12.39465914715829"><ele>657.0</ele><time>2026-05-04T07:22:52Z</time></trkpt><trkpt lat="43.82137319249279" lon="12.394509351273504"><ele>657.0</ele><time>2026-05-04T07:22:53Z</time></trkpt><trkpt lat="43.821331262915564" lon="12.394360175449004"><ele>657.0</ele><time>2026-05-04T07:22:54Z</time></trkpt><trkpt lat="43.821303835265795" lon="12.394210194270046"><ele>657.0</ele><time>2026-05-04T07:22:55Z</time></trkpt><trkpt lat="43.82130176611946" lon="12.394061554071182"><ele>657.0</ele><time>2026-05-04T07:22:56Z</time></trkpt><trkpt lat="43.82131312220481" lon="12.393913390731079"><ele>657.0</ele><time>2026-05-04T07:22:57Z</time></trkpt><trkpt lat="43.82130632059355" lon="12.393764230509156"><ele>657.0</ele><time>2026-05-04T07:22:58Z</time></trkpt><trkpt lat="43.8212706848569" lon="12.3936181103038"><ele>657.0</ele><time>2026-05-04T07:22:59Z</time></trkpt><trkpt lat="43.82122652319024" lon="12.393502044982219"><ele>657.0</ele><time>2026-05-04T07:23:00Z</time></trkpt><trkpt lat="43.82118731204789" lon="12.393419137460537"><ele>657.0</ele><time>2026-05-04T07:23:01Z</time></trkpt><trkpt lat="43.8211458320634" lon="12.393300631470142"><ele>657.0</ele><time>2026-05-04T07:23:03Z</time></trkpt><trkpt lat="43.82111209761326" lon="12.393216864576468"><ele>657.0</ele><time>2026-05-04T07:23:05Z</time></trkpt><trkpt lat="43.82108105099952" lon="12.393122719926259"><ele>657.0</ele><time>2026-05-04T07:39:47Z</time></trkpt><trkpt lat="43.82101454047854" lon="12.393043682413653"><ele>657.0</ele><time>2026-05-04T07:39:49Z</time></trkpt><trkpt lat="43.82093195360067" lon="12.392925433231795"><ele>657.0</ele><time>2026-05-04T07:39:51Z</time></trkpt><trkpt lat="43.820873614766995" lon="12.392833527343727"><ele>657.0</ele><time>2026-05-04T07:39:52Z</time></trkpt><trkpt lat="43.82080496489761" lon="12.392737033721552"><ele>657.0</ele><time>2026-05-04T07:39:53Z</time></trkpt><trkpt lat="43.82072738296508" lon="12.392643733802673"><ele>656.4000000000001</ele><time>2026-05-04T07:39:54Z</time></trkpt><trkpt lat="43.820646399461246" lon="12.392542006943433"><ele>655.8000000000001</ele><time>2026-05-04T07:39:55Z</time></trkpt><trkpt lat="43.82056881268525" lon="12.392437515731247"><ele>655.2</ele><time>2026-05-04T07:39:56Z</time></trkpt><trkpt lat="43.82049139123041" lon="12.392333582267707"><ele>654.6</ele><time>2026-05-04T07:39:57Z</time></trkpt><trkpt lat="43.820413449592905" lon="12.392219073886945"><ele>654.0</ele><time>2026-05-04T07:39:58Z</time></trkpt><trkpt lat="43.820336039480594" lon="12.39209686695616"><ele>653.75</ele><time>2026-05-04T07:39:59Z</time></trkpt><trkpt lat="43.8202624199741" lon="12.39196712989111"><ele>653.5</ele><time>2026-05-04T07:40:00Z</time></trkpt><trkpt lat="43.82019418365677" lon="12.391840506522191"><ele>653.25</ele><time>2026-05-04T07:40:01Z</time></trkpt><trkpt lat="43.82013453902465" lon="12.391707871080605"><ele>653.0</ele><time>2026-05-04T07:40:02Z</time></trkpt><trkpt lat="43.82008383274502" lon="12.391579245094963"><ele>653.6666666666666</ele><time>2026-05-04T07:40:03Z</time></trkpt><trkpt lat="43.820036791059565" lon="12.391448688368484"><ele>654.3333333333333</ele><time>2026-05-04T07:40:04Z</time></trkpt><trkpt lat="43.81999497747442" lon="12.391319299493887"><ele>655.0</ele><time>2026-05-04T07:40:05Z</time></trkpt><trkpt lat="43.81996828236656" lon="12.391202819954325"><ele>655.6666666666666</ele><time>2026-05-04T07:40:06Z</time></trkpt><trkpt lat="43.81998303303097" lon="12.391105176149713"><ele>656.3333333333334</ele><time>2026-05-04T07:40:07Z</time></trkpt><trkpt lat="43.820023777660005" lon="12.391026409956385"><ele>657.0</ele><time>2026-05-04T07:40:08Z</time></trkpt><trkpt lat="43.82006960090767" lon="12.390931463770013"><ele>656.2</ele><time>2026-05-04T07:40:09Z</time></trkpt><trkpt lat="43.82010540673803" lon="12.390818116187523"><ele>655.4000000000001</ele><time>2026-05-04T07:40:10Z</time></trkpt><trkpt lat="43.82016354064786" lon="12.390713241257581"><ele>654.5999999999999</ele><time>2026-05-04T07:40:11Z</time></trkpt><trkpt lat="43.82023454089012" lon="12.390609810363793"><ele>653.8</ele><time>2026-05-04T07:40:12Z</time></trkpt><trkpt lat="43.82030056631874" lon="12.390507396377897"><ele>653.0</ele><time>2026-05-04T07:40:13Z</time></trkpt><trkpt lat="43.82036866067913" lon="12.390393267500947"><ele>654.3333333333333</ele><time>2026-05-04T07:40:14Z</time></trkpt><trkpt lat="43.820425658850084" lon="12.390279409690725"><ele>655.6666666666666</ele><time>2026-05-04T07:40:15Z</time></trkpt><trkpt lat="43.82047380573785" lon="12.39017325130104"><ele>657.0</ele><time>2026-05-04T07:40:16Z</time></trkpt><trkpt lat="43.82051612762869" lon="12.390069805319147"><ele>658.3333333333334</ele><time>2026-05-04T07:40:17Z</time></trkpt><trkpt lat="43.82054961265859" lon="12.389966509033123"><ele>659.6666666666667</ele><time>2026-05-04T07:40:18Z</time></trkpt><trkpt lat="43.820574941132506" lon="12.38986690477601"><ele>661.0</ele><time>2026-05-04T07:40:19Z</time></trkpt><trkpt lat="43.820587544907454" lon="12.389758180825355"><ele>661.4</ele><time>2026-05-04T07:40:20Z</time></trkpt><trkpt lat="43.820589004604834" lon="12.389625489751081"><ele>661.8</ele><time>2026-05-04T07:40:21Z</time></trkpt><trkpt lat="43.820583359899494" lon="12.389478272813374"><ele>662.1999999999999</ele><time>2026-05-04T07:40:22Z</time></trkpt><trkpt lat="43.82059238252163" lon="12.389314671122824"><ele>662.5999999999999</ele><time>2026-05-04T07:40:23Z</time></trkpt><trkpt lat="43.82060529783202" lon="12.389149087100268"><ele>663.0</ele><time>2026-05-04T07:40:24Z</time></trkpt><trkpt lat="43.82062735069458" lon="12.388973010910947"><ele>663.0</ele><time>2026-05-04T07:40:25Z</time></trkpt><trkpt lat="43.820632019701875" lon="12.388850795342197"><ele>663.0</ele><time>2026-05-04T07:40:26Z</time></trkpt><trkpt lat="43.82065699134299" lon="12.388710789710302"><ele>663.0</ele><time>2026-05-04T07:40:27Z</time></trkpt><trkpt lat="43.82067614289373" lon="12.388555132172588"><ele>663.0</ele><time>2026-05-04T07:40:28Z</time></trkpt><trkpt lat="43.82068252583167" lon="12.388422509971106"><ele>663.0</ele><time>2026-05-04T07:40:29Z</time></trkpt><trkpt lat="43.820707250049736" lon="12.388291701667677"><ele>663.5999999999999</ele><time>2026-05-04T07:40:30Z</time></trkpt><trkpt lat="43.8207301511859" lon="12.388173880765265"><ele>664.1999999999999</ele><time>2026-05-04T07:40:31Z</time></trkpt><trkpt lat="43.82076930608022" lon="12.388051679387113"><ele>664.8</ele><time>2026-05-04T07:40:32Z</time></trkpt><trkpt lat="43.82080894517114" lon="12.387952053797104"><ele>665.4</ele><time>2026-05-04T07:40:33Z</time></trkpt><trkpt lat="43.820878631874045" lon="12.387865796246043"><ele>666.0</ele><time>2026-05-04T07:40:34Z</time></trkpt><trkpt lat="43.82095230763757" lon="12.387745757533605"><ele>665.5</ele><time>2026-05-04T07:40:35Z</time></trkpt><trkpt lat="43.82100093011207" lon="12.387655710704264"><ele>665.0</ele><time>2026-05-04T07:40:36Z</time></trkpt><trkpt lat="43.82103364611479" lon="12.387568375355315"><ele>664.5</ele><time>2026-05-04T07:40:37Z</time></trkpt><trkpt lat="43.82104102196199" lon="12.387467761716627"><ele>664.0</ele><time>2026-05-04T07:40:37.999Z</time></trkpt><trkpt lat="43.821020370814104" lon="12.387354377024723"><ele>663.5</ele><time>2026-05-04T07:40:38.999Z</time></trkpt><trkpt lat="43.820978477915915" lon="12.387239177568551"><ele>663.0</ele><time>2026-05-04T07:40:39.999Z</time></trkpt><trkpt lat="43.82092264772078" lon="12.387125887500893"><ele>663.0</ele><time>2026-05-04T07:40:40.999Z</time></trkpt><trkpt lat="43.82088639944492" lon="12.386989925310113"><ele>663.0</ele><time>2026-05-04T07:40:41.999Z</time></trkpt><trkpt lat="43.820854324101795" lon="12.386847945565023"><ele>663.0</ele><time>2026-05-04T07:40:42.999Z</time></trkpt><trkpt lat="43.82083915741489" lon="12.386698206262825"><ele>663.0</ele><time>2026-05-04T07:40:43.999Z</time></trkpt><trkpt lat="43.82082554142007" lon="12.38654899047213"><ele>663.0</ele><time>2026-05-04T07:40:44.999Z</time></trkpt><trkpt lat="43.82081534015292" lon="12.386418582262463"><ele>661.25</ele><time>2026-05-04T07:40:45.999Z</time></trkpt><trkpt lat="43.820806927182325" lon="12.38627283215466"><ele>659.5</ele><time>2026-05-04T07:40:46.999Z</time></trkpt><trkpt lat="43.82079255785214" lon="12.386095895606255"><ele>657.75</ele><time>2026-05-04T07:40:47.999Z</time></trkpt><trkpt lat="43.820800538096925" lon="12.38592292852687"><ele>656.0</ele><time>2026-05-04T07:40:48.999Z</time></trkpt><trkpt lat="43.82081445727682" lon="12.385760362855844"><ele>656.0</ele><time>2026-05-04T07:40:49.999Z</time></trkpt><trkpt lat="43.8208553010098" lon="12.385604753304035"><ele>656.0</ele><time>2026-05-04T07:40:50.999Z</time></trkpt><trkpt lat="43.82087604972473" lon="12.38544103383783"><ele>656.0</ele><time>2026-05-04T07:40:51.999Z</time></trkpt><trkpt lat="43.820912827974084" lon="12.385307368002833"><ele>656.0</ele><time>2026-05-04T07:40:52.999Z</time></trkpt><trkpt lat="43.82095929856095" lon="12.385189025386751"><ele>656.0</ele><time>2026-05-04T07:40:53.999Z</time></trkpt><trkpt lat="43.82098206881737" lon="12.385075940825171"><ele>655.1999999999999</ele><time>2026-05-04T07:40:54.999Z</time></trkpt><trkpt lat="43.8210059684235" lon="12.384986531636054"><ele>654.4</ele><time>2026-05-04T07:40:55.999Z</time></trkpt><trkpt lat="43.82100988612513" lon="12.384887347575523"><ele>653.6</ele><time>2026-05-04T07:40:56.999Z</time></trkpt><trkpt lat="43.8209759158091" lon="12.384770547374623"><ele>652.8</ele><time>2026-05-04T07:40:57.999Z</time></trkpt><trkpt lat="43.82091205256325" lon="12.384652626512109"><ele>652.0</ele><time>2026-05-04T07:40:58.999Z</time></trkpt><trkpt lat="43.820839464335755" lon="12.384519438230566"><ele>649.6</ele><time>2026-05-04T07:40:59.999Z</time></trkpt><trkpt lat="43.82078885503973" lon="12.384379392355502"><ele>647.2</ele><time>2026-05-04T07:41:00.999Z</time></trkpt><trkpt lat="43.820727788250956" lon="12.38426059954774"><ele>644.8</ele><time>2026-05-04T07:41:01.999Z</time></trkpt><trkpt lat="43.82069931071381" lon="12.384121500700635"><ele>642.4</ele><time>2026-05-04T07:41:02.999Z</time></trkpt><trkpt lat="43.82071489132856" lon="12.38397844409652"><ele>640.0</ele><time>2026-05-04T07:41:03.999Z</time></trkpt><trkpt lat="43.82074187322254" lon="12.383838994236088"><ele>638.6</ele><time>2026-05-04T07:41:04.999Z</time></trkpt><trkpt lat="43.82077438105863" lon="12.383697620817168"><ele>637.2</ele><time>2026-05-04T07:41:05.999Z</time></trkpt><trkpt lat="43.82082686701717" lon="12.383564197869708"><ele>635.8</ele><time>2026-05-04T07:41:06.999Z</time></trkpt><trkpt lat="43.82087475094369" lon="12.383427398454982"><ele>634.4</ele><time>2026-05-04T07:41:08Z</time></trkpt><trkpt lat="43.82092551598462" lon="12.383291423934596"><ele>633.0</ele><time>2026-05-04T07:41:09Z</time></trkpt><trkpt lat="43.820977530518114" lon="12.383185959210136"><ele>630.1999999999999</ele><time>2026-05-04T07:41:10Z</time></trkpt><trkpt lat="43.82104260325454" lon="12.383092500399508"><ele>627.4</ele><time>2026-05-04T07:41:11Z</time></trkpt><trkpt lat="43.82111431655593" lon="12.38300207702611"><ele>624.5999999999999</ele><time>2026-05-04T07:41:12Z</time></trkpt><trkpt lat="43.821189199010966" lon="12.38288412538988"><ele>621.8</ele><time>2026-05-04T07:41:13Z</time></trkpt><trkpt lat="43.821252160144944" lon="12.382752002245596"><ele>619.0</ele><time>2026-05-04T07:41:14Z</time></trkpt><trkpt lat="43.82130024416225" lon="12.38260931331728"><ele>618.75</ele><time>2026-05-04T07:41:15Z</time></trkpt><trkpt lat="43.82134468049429" lon="12.382465939664572"><ele>618.5</ele><time>2026-05-04T07:41:16Z</time></trkpt><trkpt lat="43.82139188196465" lon="12.382315357756433"><ele>618.25</ele><time>2026-05-04T07:41:17Z</time></trkpt><trkpt lat="43.821427697350465" lon="12.382170507070807"><ele>618.0</ele><time>2026-05-04T07:41:18Z</time></trkpt><trkpt lat="43.82146395353222" lon="12.382025818259379"><ele>617.5</ele><time>2026-05-04T07:41:19Z</time></trkpt><trkpt lat="43.821510586629195" lon="12.381872497277895"><ele>617.0</ele><time>2026-05-04T07:41:20Z</time></trkpt><trkpt lat="43.8215540638476" lon="12.381725511143186"><ele>616.5</ele><time>2026-05-04T07:41:21Z</time></trkpt><trkpt lat="43.821600870186565" lon="12.381581120936863"><ele>616.0</ele><time>2026-05-04T07:41:22Z</time></trkpt><trkpt lat="43.821635956977346" lon="12.381445571209051"><ele>617.25</ele><time>2026-05-04T07:41:23Z</time></trkpt><trkpt lat="43.82168608401781" lon="12.381300138883775"><ele>618.5</ele><time>2026-05-04T07:41:24Z</time></trkpt><trkpt lat="43.82173409287738" lon="12.381146271665456"><ele>619.75</ele><time>2026-05-04T07:41:25Z</time></trkpt><trkpt lat="43.82178452066792" lon="12.380996591158514"><ele>621.0</ele><time>2026-05-04T07:41:26Z</time></trkpt><trkpt lat="43.82185024497496" lon="12.380876673711485"><ele>621.0</ele><time>2026-05-04T07:41:27Z</time></trkpt><trkpt lat="43.82190209940099" lon="12.380747588040505"><ele>621.0</ele><time>2026-05-04T07:41:28Z</time></trkpt><trkpt lat="43.82197096025957" lon="12.380643067299925"><ele>621.0</ele><time>2026-05-04T07:41:29Z</time></trkpt><trkpt lat="43.82203830044867" lon="12.380548524472568"><ele>621.0</ele><time>2026-05-04T07:41:30Z</time></trkpt><trkpt lat="43.82207911440243" lon="12.380479194880936"><ele>621.0</ele><time>2026-05-04T07:41:31Z</time></trkpt><trkpt lat="43.822135160750484" lon="12.380378426928921"><ele>623.2</ele><time>2026-05-04T07:41:33Z</time></trkpt><trkpt lat="43.821972131243314" lon="12.380297460936026"><ele>625.4000000000001</ele><time>2026-05-04T07:41:39Z</time></trkpt><trkpt lat="43.82190964548341" lon="12.380279709698744"><ele>627.6</ele><time>2026-05-04T07:41:40Z</time></trkpt><trkpt lat="43.8218008024895" lon="12.38019897178661"><ele>629.8000000000001</ele><time>2026-05-04T07:41:42Z</time></trkpt><trkpt lat="43.82172688634812" lon="12.38013603662818"><ele>632.0</ele><time>2026-05-04T07:41:44Z</time></trkpt><trkpt lat="43.82171410569124" lon="12.380015525209497"><ele>632.4</ele><time>2026-05-04T07:41:46Z</time></trkpt><trkpt lat="43.8217137634154" lon="12.379914096348344"><ele>632.8000000000001</ele><time>2026-05-04T07:41:47Z</time></trkpt><trkpt lat="43.82168993469663" lon="12.379750983763113"><ele>633.2</ele><time>2026-05-04T07:41:49Z</time></trkpt><trkpt lat="43.82164522068091" lon="12.379581262686296"><ele>633.6</ele><time>2026-05-04T07:41:51Z</time></trkpt><trkpt lat="43.8216048382227" lon="12.379499959582446"><ele>634.0</ele><time>2026-05-04T07:41:52Z</time></trkpt><trkpt lat="43.8215795903459" lon="12.379402192486586"><ele>636.0</ele><time>2026-05-04T07:41:53Z</time></trkpt><trkpt lat="43.82157104112183" lon="12.379298013953886"><ele>638.0</ele><time>2026-05-04T07:41:54Z</time></trkpt><trkpt lat="43.821572474518106" lon="12.379203314650532"><ele>640.0</ele><time>2026-05-04T07:41:55Z</time></trkpt><trkpt lat="43.82157240749621" lon="12.37902723290094"><ele>642.0</ele><time>2026-05-04T07:41:57Z</time></trkpt><trkpt lat="43.82156050062549" lon="12.378930567320348"><ele>644.0</ele><time>2026-05-04T07:41:58Z</time></trkpt><trkpt lat="43.82154043085232" lon="12.37883807761944"><ele>646.0</ele><time>2026-05-04T07:41:59Z</time></trkpt><trkpt lat="43.821520356532666" lon="12.378751907824817"><ele>647.0</ele><time>2026-05-04T07:42:00Z</time></trkpt><trkpt lat="43.82153029823581" lon="12.37861362203246"><ele>648.0</ele><time>2026-05-04T07:42:02Z</time></trkpt><trkpt lat="43.821534208943596" lon="12.37852097814775"><ele>649.0</ele><time>2026-05-04T07:42:03Z</time></trkpt><trkpt lat="43.821551996672" lon="12.378430590094906"><ele>650.0</ele><time>2026-05-04T07:42:04Z</time></trkpt><trkpt lat="43.82157552083149" lon="12.378301212847385"><ele>651.0</ele><time>2026-05-04T07:42:06Z</time></trkpt><trkpt lat="43.821561497543634" lon="12.378198065032798"><ele>652.0</ele><time>2026-05-04T07:42:07Z</time></trkpt><trkpt lat="43.82152961793156" lon="12.378096828205917"><ele>652.6</ele><time>2026-05-04T07:42:08Z</time></trkpt><trkpt lat="43.82150262726756" lon="12.378002821818784"><ele>653.2</ele><time>2026-05-04T07:42:09Z</time></trkpt><trkpt lat="43.82149833427539" lon="12.377879808658879"><ele>653.8</ele><time>2026-05-04T07:42:11Z</time></trkpt><trkpt lat="43.82154632052025" lon="12.377733810636412"><ele>654.4</ele><time>2026-05-04T07:42:13Z</time></trkpt><trkpt lat="43.821646713073214" lon="12.377606557315229"><ele>655.0</ele><time>2026-05-04T07:42:15Z</time></trkpt><trkpt lat="43.821720599925676" lon="12.377545755608574"><ele>655.0</ele><time>2026-05-04T07:42:16Z</time></trkpt><trkpt lat="43.82179574370443" lon="12.377462346832566"><ele>655.0</ele><time>2026-05-04T07:42:17Z</time></trkpt><trkpt lat="43.821873467008906" lon="12.37740205863825"><ele>655.0</ele><time>2026-05-04T07:42:18Z</time></trkpt><trkpt lat="43.82194034097622" lon="12.377349875768989"><ele>655.0</ele><time>2026-05-04T07:42:19Z</time></trkpt><trkpt lat="43.82198409022739" lon="12.377286649442478"><ele>655.0</ele><time>2026-05-04T07:42:20Z</time></trkpt><trkpt lat="43.82200325825997" lon="12.377198885055508"><ele>655.0</ele><time>2026-05-04T07:42:21Z</time></trkpt><trkpt lat="43.82197207372949" lon="12.37703298119857"><ele>657.5</ele><time>2026-05-04T07:42:23Z</time></trkpt><trkpt lat="43.82193913406902" lon="12.376944243263221"><ele>660.0</ele><time>2026-05-04T07:42:24Z</time></trkpt><trkpt lat="43.821896136305405" lon="12.376846400126537"><ele>662.5</ele><time>2026-05-04T07:42:25Z</time></trkpt><trkpt lat="43.82186566452503" lon="12.376769708426089"><ele>665.0</ele><time>2026-05-04T07:42:26Z</time></trkpt><trkpt lat="43.821851408060375" lon="12.376600171456987"><ele>667.5</ele><time>2026-05-04T07:42:28Z</time></trkpt><trkpt lat="43.82189338436679" lon="12.376462176762008"><ele>670.0</ele><time>2026-05-04T07:42:30Z</time></trkpt><trkpt lat="43.82193505575302" lon="12.376394060433142"><ele>670.8</ele><time>2026-05-04T07:42:31Z</time></trkpt><trkpt lat="43.8219945866225" lon="12.376341186417271"><ele>671.6</ele><time>2026-05-04T07:42:32Z</time></trkpt><trkpt lat="43.82209647836137" lon="12.3762004957454"><ele>672.4000000000001</ele><time>2026-05-04T07:42:34Z</time></trkpt><trkpt lat="43.82214178518796" lon="12.376089239297801"><ele>673.2</ele><time>2026-05-04T07:42:35Z</time></trkpt><trkpt lat="43.82217675184839" lon="12.375984399233902"><ele>674.0</ele><time>2026-05-04T07:42:36Z</time></trkpt><trkpt lat="43.822210225387536" lon="12.375877800625636"><ele>674.0</ele><time>2026-05-04T07:42:37Z</time></trkpt><trkpt lat="43.822240595559364" lon="12.37575218613465"><ele>674.0</ele><time>2026-05-04T07:42:39Z</time></trkpt><trkpt lat="43.82226552853279" lon="12.375668085649515"><ele>674.0</ele><time>2026-05-04T07:42:40Z</time></trkpt><trkpt lat="43.822277576951095" lon="12.375577945930539"><ele>674.0</ele><time>2026-05-04T07:42:41Z</time></trkpt><trkpt lat="43.82228047510556" lon="12.37546448893857"><ele>674.0</ele><time>2026-05-04T07:42:42Z</time></trkpt><trkpt lat="43.82231740253011" lon="12.375346785843831"><ele>674.0</ele><time>2026-05-04T07:42:43.999Z</time></trkpt><trkpt lat="43.822371556395666" lon="12.375296873968047"><ele>673.8333333333333</ele><time>2026-05-04T07:42:45.999Z</time></trkpt><trkpt lat="43.82244454378396" lon="12.375262825517193"><ele>673.6666666666666</ele><time>2026-05-04T07:42:56.999Z</time></trkpt><trkpt lat="43.82255895213099" lon="12.37527565846127"><ele>673.5</ele><time>2026-05-04T07:42:58.999Z</time></trkpt><trkpt lat="43.82262312955878" lon="12.375273890814366"><ele>673.3333333333334</ele><time>2026-05-04T07:42:59.999Z</time></trkpt><trkpt lat="43.8226927506452" lon="12.375270296280497"><ele>673.1666666666667</ele><time>2026-05-04T07:43:00.999Z</time></trkpt><trkpt lat="43.822782602148756" lon="12.375269051219114"><ele>673.0</ele><time>2026-05-04T07:43:02Z</time></trkpt><trkpt lat="43.822893108444084" lon="12.375265870498831"><ele>675.8</ele><time>2026-05-04T07:43:03Z</time></trkpt><trkpt lat="43.82297165415443" lon="12.375254479226955"><ele>678.5999999999999</ele><time>2026-05-04T07:43:04Z</time></trkpt><trkpt lat="43.82307973819198" lon="12.375203662880454"><ele>681.4000000000001</ele><time>2026-05-04T07:43:06Z</time></trkpt><trkpt lat="43.82317147302354" lon="12.375161255151855"><ele>684.2</ele><time>2026-05-04T07:43:07Z</time></trkpt><trkpt lat="43.8232671829848" lon="12.37514234102915"><ele>687.0</ele><time>2026-05-04T07:43:08Z</time></trkpt><trkpt lat="43.823331710608684" lon="12.37514829194621"><ele>687.0</ele><time>2026-05-04T07:43:09Z</time></trkpt><trkpt lat="43.8233997831941" lon="12.375152668249353"><ele>687.0</ele><time>2026-05-04T07:43:10Z</time></trkpt><trkpt lat="43.82348234784934" lon="12.37514432277034"><ele>687.0</ele><time>2026-05-04T07:43:11Z</time></trkpt><trkpt lat="43.8235630271476" lon="12.375111800429483"><ele>687.0</ele><time>2026-05-04T07:43:12Z</time></trkpt><trkpt lat="43.82364867211604" lon="12.375057247035004"><ele>687.0</ele><time>2026-05-04T07:43:14Z</time></trkpt><trkpt lat="43.823706438489886" lon="12.375006408346694"><ele>687.0</ele><time>2026-05-04T07:43:17Z</time></trkpt><trkpt lat="43.823731983250745" lon="12.374905108657074"><ele>687.0</ele><time>2026-05-04T07:43:20Z</time></trkpt><trkpt lat="43.823705739268526" lon="12.37501104326045"><ele>687.0</ele><time>2026-05-04T07:43:48Z</time></trkpt><trkpt lat="43.82364173981465" lon="12.375060641078372"><ele>687.0</ele><time>2026-05-04T07:44:03Z</time></trkpt><trkpt lat="43.823560837046195" lon="12.375102470118753"><ele>687.0</ele><time>2026-05-04T07:44:05Z</time></trkpt><trkpt lat="43.82343773690096" lon="12.375127785089656"><ele>687.0</ele><time>2026-05-04T07:44:07Z</time></trkpt><trkpt lat="43.82336890480943" lon="12.375138227766827"><ele>687.0</ele><time>2026-05-04T07:44:08Z</time></trkpt><trkpt lat="43.8233030378699" lon="12.375132446402288"><ele>687.0</ele><time>2026-05-04T07:44:09Z</time></trkpt><trkpt lat="43.82322915615632" lon="12.375148783472277"><ele>687.0</ele><time>2026-05-04T07:44:11Z</time></trkpt><trkpt lat="43.82313191994612" lon="12.375176306469408"><ele>687.0</ele><time>2026-05-04T07:44:13Z</time></trkpt><trkpt lat="43.82303399423812" lon="12.375202855382934"><ele>687.0</ele><time>2026-05-04T07:44:15Z</time></trkpt><trkpt lat="43.82292941255416" lon="12.375230543646158"><ele>687.0</ele><time>2026-05-04T07:44:17Z</time></trkpt><trkpt lat="43.82285867971741" lon="12.375239655364188"><ele>687.0</ele><time>2026-05-04T07:44:18Z</time></trkpt><trkpt lat="43.822782008715215" lon="12.375238653593252"><ele>687.0</ele><time>2026-05-04T07:44:19Z</time></trkpt><trkpt lat="43.82270289107164" lon="12.375245448862819"><ele>687.0</ele><time>2026-05-04T07:44:20Z</time></trkpt><trkpt lat="43.822634253463534" lon="12.37526378984886"><ele>687.0</ele><time>2026-05-04T07:44:21Z</time></trkpt><trkpt lat="43.8225143388332" lon="12.375254370578448"><ele>687.0</ele><time>2026-05-04T07:44:23Z</time></trkpt><trkpt lat="43.82240457588484" lon="12.375262324913823"><ele>685.0</ele><time>2026-05-04T07:44:25Z</time></trkpt><trkpt lat="43.8223410921224" lon="12.375251047007643"><ele>683.0</ele><time>2026-05-04T07:45:12Z</time></trkpt><trkpt lat="43.82231241799386" lon="12.375148435458117"><ele>681.0</ele><time>2026-05-04T07:45:14Z</time></trkpt><trkpt lat="43.82229508409615" lon="12.375058956118503"><ele>679.0</ele><time>2026-05-04T07:45:15Z</time></trkpt><trkpt lat="43.822279853110444" lon="12.374960894950734"><ele>677.0</ele><time>2026-05-04T07:45:17Z</time></trkpt><trkpt lat="43.82226982349818" lon="12.37485125323582"><ele>675.0</ele><time>2026-05-04T07:45:19.999Z</time></trkpt><trkpt lat="43.822289101290515" lon="12.374742045524231"><ele>673.0</ele><time>2026-05-04T07:45:22.999Z</time></trkpt><trkpt lat="43.82230297336212" lon="12.374626188273362"><ele>672.5</ele><time>2026-05-04T07:45:24.999Z</time></trkpt><trkpt lat="43.82233406752019" lon="12.374508094701982"><ele>672.0</ele><time>2026-05-04T07:45:26.999Z</time></trkpt><trkpt lat="43.82236223714066" lon="12.374377632056426"><ele>671.5</ele><time>2026-05-04T07:45:28.999Z</time></trkpt><trkpt lat="43.82240075863194" lon="12.374257122804686"><ele>671.0</ele><time>2026-05-04T07:45:30.999Z</time></trkpt><trkpt lat="43.82243517913069" lon="12.37416491040208"><ele>670.5</ele><time>2026-05-04T07:45:32.999Z</time></trkpt><trkpt lat="43.82245453987172" lon="12.374065810241992"><ele>670.0</ele><time>2026-05-04T07:45:36.999Z</time></trkpt><trkpt lat="43.82247629423908" lon="12.373970637306533"><ele>670.0</ele><time>2026-05-04T07:45:39.999Z</time></trkpt><trkpt lat="43.8224970053571" lon="12.373856156854886"><ele>670.0</ele><time>2026-05-04T07:45:41.999Z</time></trkpt><trkpt lat="43.82251806209588" lon="12.373764142765541"><ele>670.0</ele><time>2026-05-04T07:45:43.999Z</time></trkpt><trkpt lat="43.822530343613494" lon="12.373657805601844"><ele>670.0</ele><time>2026-05-04T07:45:45.999Z</time></trkpt><trkpt lat="43.82256269560819" lon="12.373523897611562"><ele>670.0</ele><time>2026-05-04T07:45:47.999Z</time></trkpt><trkpt lat="43.82261616250527" lon="12.373432187685102"><ele>670.0</ele><time>2026-05-04T07:45:49.999Z</time></trkpt><trkpt lat="43.82267262350091" lon="12.373320425984854"><ele>671.7142857142857</ele><time>2026-05-04T07:45:52.999Z</time></trkpt><trkpt lat="43.82269129034471" lon="12.37321253514348"><ele>673.4285714285714</ele><time>2026-05-04T07:45:54.999Z</time></trkpt><trkpt lat="43.82269193991591" lon="12.373117798222607"><ele>675.1428571428571</ele><time>2026-05-04T07:45:56.999Z</time></trkpt><trkpt lat="43.82267870646033" lon="12.373023262903365"><ele>676.8571428571429</ele><time>2026-05-04T07:45:59.999Z</time></trkpt><trkpt lat="43.822662322920024" lon="12.372936259160229"><ele>678.5714285714286</ele><time>2026-05-04T07:46:09.999Z</time></trkpt><trkpt lat="43.82259740478768" lon="12.37293962943118"><ele>680.2857142857142</ele><time>2026-05-04T07:46:23.999Z</time></trkpt><trkpt lat="43.82253335643821" lon="12.373015297523239"><ele>682.0</ele><time>2026-05-04T07:46:25.999Z</time></trkpt><trkpt lat="43.8224696381699" lon="12.373011165112478"><ele>682.1666666666667</ele><time>2026-05-04T07:46:30Z</time></trkpt><trkpt lat="43.8224257310005" lon="12.372941953102409"><ele>682.3333333333334</ele><time>2026-05-04T07:46:33Z</time></trkpt><trkpt lat="43.82239076694292" lon="12.37286903937782"><ele>682.5</ele><time>2026-05-04T07:46:35Z</time></trkpt><trkpt lat="43.8223919179056" lon="12.372764046393938"><ele>682.6666666666666</ele><time>2026-05-04T07:46:37Z</time></trkpt><trkpt lat="43.822347710138025" lon="12.372658918571151"><ele>682.8333333333333</ele><time>2026-05-04T07:46:40Z</time></trkpt><trkpt lat="43.82233559964314" lon="12.372529089123615"><ele>683.0</ele><time>2026-05-04T07:46:44Z</time></trkpt><trkpt lat="43.822362198758356" lon="12.372420314312617"><ele>683.0</ele><time>2026-05-04T07:46:47Z</time></trkpt><trkpt lat="43.82237041141887" lon="12.372311732377174"><ele>683.0</ele><time>2026-05-04T07:46:50Z</time></trkpt><trkpt lat="43.82240731599348" lon="12.372179765106491"><ele>683.0</ele><time>2026-05-04T07:46:53Z</time></trkpt><trkpt lat="43.82244231361736" lon="12.372071425110011"><ele>683.0</ele><time>2026-05-04T07:46:55Z</time></trkpt><trkpt lat="43.82247184359183" lon="12.371934769473118"><ele>683.0</ele><time>2026-05-04T07:46:58Z</time></trkpt><trkpt lat="43.822449878213035" lon="12.371799533125355"><ele>684.3333333333333</ele><time>2026-05-04T07:47:01Z</time></trkpt><trkpt lat="43.8223676134233" lon="12.371703013036676"><ele>685.6666666666666</ele><time>2026-05-04T07:47:13Z</time></trkpt><trkpt lat="43.822320082745094" lon="12.371641759012235"><ele>687.0</ele><time>2026-05-04T07:47:15Z</time></trkpt><trkpt lat="43.822269041027944" lon="12.371579686618613"><ele>688.3333333333334</ele><time>2026-05-04T07:47:17Z</time></trkpt><trkpt lat="43.82220693543713" lon="12.37152430976551"><ele>689.6666666666667</ele><time>2026-05-04T07:47:19Z</time></trkpt><trkpt lat="43.82216809979508" lon="12.371441833402162"><ele>691.0</ele><time>2026-05-04T07:47:22.001Z</time></trkpt><trkpt lat="43.82216638749508" lon="12.371350913739505"><ele>692.3333333333334</ele><time>2026-05-04T07:47:24.001Z</time></trkpt><trkpt lat="43.82216999441504" lon="12.371244887653637"><ele>693.6666666666667</ele><time>2026-05-04T07:47:26.001Z</time></trkpt><trkpt lat="43.822183150304355" lon="12.371106907534104"><ele>695.0</ele><time>2026-05-04T07:47:28.001Z</time></trkpt><trkpt lat="43.822212443539215" lon="12.370975450098754"><ele>696.3333333333334</ele><time>2026-05-04T07:47:30.001Z</time></trkpt><trkpt lat="43.822243443071486" lon="12.370859579978147"><ele>697.6666666666666</ele><time>2026-05-04T07:47:32.001Z</time></trkpt><trkpt lat="43.82227662403483" lon="12.370754931131216"><ele>699.0</ele><time>2026-05-04T07:47:34.001Z</time></trkpt><trkpt lat="43.8223320127286" lon="12.370636629939002"><ele>698.4000000000001</ele><time>2026-05-04T07:47:36.001Z</time></trkpt><trkpt lat="43.82240036052322" lon="12.370522177509647"><ele>697.8</ele><time>2026-05-04T07:47:38.001Z</time></trkpt><trkpt lat="43.82246856515645" lon="12.370412788681628"><ele>697.2</ele><time>2026-05-04T07:47:40.001Z</time></trkpt><trkpt lat="43.82250703242408" lon="12.370296574638072"><ele>696.5999999999999</ele><time>2026-05-04T07:47:42.001Z</time></trkpt><trkpt lat="43.822520074311036" lon="12.370156604189644"><ele>696.0</ele><time>2026-05-04T07:47:44.001Z</time></trkpt><trkpt lat="43.82252859480343" lon="12.370015359574047"><ele>696.0</ele><time>2026-05-04T07:47:46.001Z</time></trkpt><trkpt lat="43.82256600121357" lon="12.369862815746206"><ele>696.0</ele><time>2026-05-04T07:47:48.001Z</time></trkpt><trkpt lat="43.82261811029314" lon="12.369725198349077"><ele>696.0</ele><time>2026-05-04T07:47:50.001Z</time></trkpt><trkpt lat="43.82265821896645" lon="12.369631179692309"><ele>696.0</ele><time>2026-05-04T07:47:52.001Z</time></trkpt><trkpt lat="43.82272431573198" lon="12.36949566407713"><ele>696.0</ele><time>2026-05-04T07:47:54.001Z</time></trkpt><trkpt lat="43.82278335390887" lon="12.369372061418357"><ele>697.0</ele><time>2026-05-04T07:47:56.001Z</time></trkpt><trkpt lat="43.82282720482974" lon="12.36920673059547"><ele>698.0</ele><time>2026-05-04T07:47:58.001Z</time></trkpt><trkpt lat="43.82283255466644" lon="12.369115874778794"><ele>699.0</ele><time>2026-05-04T07:47:59.001Z</time></trkpt><trkpt lat="43.822830867662944" lon="12.369016207889437"><ele>700.0</ele><time>2026-05-04T07:48:00.001Z</time></trkpt><trkpt lat="43.822832786587384" lon="12.368901182015621"><ele>701.0</ele><time>2026-05-04T07:48:01.001Z</time></trkpt><trkpt lat="43.82284569898941" lon="12.368795841192798"><ele>702.0</ele><time>2026-05-04T07:48:02.001Z</time></trkpt><trkpt lat="43.82286784806689" lon="12.368705872116816"><ele>702.4000000000001</ele><time>2026-05-04T07:48:03.001Z</time></trkpt><trkpt lat="43.8229087612296" lon="12.368549589043175"><ele>702.8000000000001</ele><time>2026-05-04T07:48:05.001Z</time></trkpt><trkpt lat="43.822938015578714" lon="12.368405514435219"><ele>703.2</ele><time>2026-05-04T07:48:07.001Z</time></trkpt><trkpt lat="43.82295220599312" lon="12.368231895259463"><ele>703.6</ele><time>2026-05-04T07:48:09.001Z</time></trkpt><trkpt lat="43.82295023852233" lon="12.368126211286532"><ele>704.0</ele><time>2026-05-04T07:48:10.001Z</time></trkpt><trkpt lat="43.82294485283277" lon="12.368018797118566"><ele>704.0</ele><time>2026-05-04T07:48:11.001Z</time></trkpt><trkpt lat="43.82293725170675" lon="12.367897490018482"><ele>704.0</ele><time>2026-05-04T07:48:12.001Z</time></trkpt><trkpt lat="43.822934441149364" lon="12.367770433106708"><ele>704.0</ele><time>2026-05-04T07:48:13.001Z</time></trkpt><trkpt lat="43.8229375547782" lon="12.367658443854271"><ele>704.0</ele><time>2026-05-04T07:48:14.001Z</time></trkpt><trkpt lat="43.822942114523684" lon="12.367559159436562"><ele>704.0</ele><time>2026-05-04T07:48:15.001Z</time></trkpt><trkpt lat="43.82295500211367" lon="12.367454690063083"><ele>704.0</ele><time>2026-05-04T07:48:16.001Z</time></trkpt><trkpt lat="43.82296386371072" lon="12.367355421371066"><ele>704.0</ele><time>2026-05-04T07:48:17.001Z</time></trkpt><trkpt lat="43.82297950814149" lon="12.367259129942429"><ele>704.0</ele><time>2026-05-04T07:48:18.001Z</time></trkpt><trkpt lat="43.82299869040439" lon="12.36716850928724"><ele>704.0</ele><time>2026-05-04T07:48:19.001Z</time></trkpt><trkpt lat="43.82301937573016" lon="12.367081942252176"><ele>704.0</ele><time>2026-05-04T07:48:20.001Z</time></trkpt><trkpt lat="43.82303897649751" lon="12.366995092218836"><ele>704.0</ele><time>2026-05-04T07:48:21.001Z</time></trkpt><trkpt lat="43.82304187339014" lon="12.366826426390016"><ele>704.0</ele><time>2026-05-04T07:48:23.001Z</time></trkpt><trkpt lat="43.82302743671564" lon="12.36671830578229"><ele>704.5714285714286</ele><time>2026-05-04T07:48:24.001Z</time></trkpt><trkpt lat="43.823013864388024" lon="12.366612274975905"><ele>705.1428571428571</ele><time>2026-05-04T07:48:25.001Z</time></trkpt><trkpt lat="43.82300633293114" lon="12.366510201078531"><ele>705.7142857142858</ele><time>2026-05-04T07:48:26.001Z</time></trkpt><trkpt lat="43.8230136785114" lon="12.36641680888415"><ele>706.2857142857142</ele><time>2026-05-04T07:48:27.001Z</time></trkpt><trkpt lat="43.823033241197315" lon="12.366316980020809"><ele>706.8571428571428</ele><time>2026-05-04T07:48:28.001Z</time></trkpt><trkpt lat="43.823066479232445" lon="12.366227582787124"><ele>707.4285714285714</ele><time>2026-05-04T07:48:29.001Z</time></trkpt><trkpt lat="43.82310792901137" lon="12.366151475701738"><ele>708.0</ele><time>2026-05-04T07:48:30.001Z</time></trkpt><trkpt lat="43.82315602619881" lon="12.366070228389956"><ele>709.0</ele><time>2026-05-04T07:48:31.001Z</time></trkpt><trkpt lat="43.82320854844085" lon="12.365987541032526"><ele>710.0</ele><time>2026-05-04T07:48:32.001Z</time></trkpt><trkpt lat="43.8232604646062" lon="12.365913600778349"><ele>711.0</ele><time>2026-05-04T07:48:33.001Z</time></trkpt><trkpt lat="43.82331200512822" lon="12.365835397515099"><ele>712.0</ele><time>2026-05-04T07:48:34.001Z</time></trkpt><trkpt lat="43.82336411829636" lon="12.365760227732506"><ele>713.0</ele><time>2026-05-04T07:48:35.001Z</time></trkpt><trkpt lat="43.8234143657021" lon="12.365676380995824"><ele>714.0</ele><time>2026-05-04T07:48:36.001Z</time></trkpt><trkpt lat="43.823456548008544" lon="12.365588744402451"><ele>716.6</ele><time>2026-05-04T07:48:37.001Z</time></trkpt><trkpt lat="43.82348457531488" lon="12.365481732891512"><ele>719.2</ele><time>2026-05-04T07:48:38.001Z</time></trkpt><trkpt lat="43.823510703766544" lon="12.365351555296591"><ele>721.8000000000001</ele><time>2026-05-04T07:48:39.001Z</time></trkpt><trkpt lat="43.82354253763008" lon="12.3652670399459"><ele>724.4000000000001</ele><time>2026-05-04T07:48:40.001Z</time></trkpt><trkpt lat="43.82360073564123" lon="12.365156840836002"><ele>727.0</ele><time>2026-05-04T07:48:42.001Z</time></trkpt><trkpt lat="43.82365952392651" lon="12.365026624039524"><ele>727.0</ele><time>2026-05-04T07:48:44.001Z</time></trkpt><trkpt lat="43.82371659984985" lon="12.364901643852889"><ele>727.0</ele><time>2026-05-04T07:48:46.001Z</time></trkpt><trkpt lat="43.823731546581605" lon="12.364764844938293"><ele>727.0</ele><time>2026-05-04T07:48:48.001Z</time></trkpt><trkpt lat="43.82373970124287" lon="12.364616494622645"><ele>727.0</ele><time>2026-05-04T07:48:50.001Z</time></trkpt><trkpt lat="43.82376071980007" lon="12.364529328178465"><ele>727.0</ele><time>2026-05-04T07:48:51.001Z</time></trkpt><trkpt lat="43.82378988054632" lon="12.364447403977245"><ele>727.0</ele><time>2026-05-04T07:48:52.001Z</time></trkpt><trkpt lat="43.82381244691429" lon="12.364364375268437"><ele>729.25</ele><time>2026-05-04T07:48:53.001Z</time></trkpt><trkpt lat="43.82386891395944" lon="12.364212814985766"><ele>731.5</ele><time>2026-05-04T07:48:55.001Z</time></trkpt><trkpt lat="43.82389448951368" lon="12.364056603272358"><ele>733.75</ele><time>2026-05-04T07:48:57.001Z</time></trkpt><trkpt lat="43.82389979504005" lon="12.36387278206693"><ele>736.0</ele><time>2026-05-04T07:48:59.001Z</time></trkpt><trkpt lat="43.82394064675935" lon="12.363773873880653"><ele>737.5999999999999</ele><time>2026-05-04T07:49:00.001Z</time></trkpt><trkpt lat="43.82399158457667" lon="12.363669406924059"><ele>739.2</ele><time>2026-05-04T07:49:01.001Z</time></trkpt><trkpt lat="43.82402912752546" lon="12.363527888745635"><ele>740.8</ele><time>2026-05-04T07:49:02.001Z</time></trkpt><trkpt lat="43.82406088800601" lon="12.363364569265174"><ele>742.4000000000001</ele><time>2026-05-04T07:49:03.001Z</time></trkpt><trkpt lat="43.824081824245916" lon="12.36321139719812"><ele>744.0</ele><time>2026-05-04T07:49:04.001Z</time></trkpt><trkpt lat="43.82408979113729" lon="12.363092614569737"><ele>745.0</ele><time>2026-05-04T07:49:05.001Z</time></trkpt><trkpt lat="43.82417103816613" lon="12.363021413830559"><ele>746.0</ele><time>2026-05-04T07:49:07.001Z</time></trkpt><trkpt lat="43.82417058896772" lon="12.362896542133127"><ele>747.0</ele><time>2026-05-04T07:49:15.001Z</time></trkpt><trkpt lat="43.82419089511907" lon="12.362813163380316"><ele>748.0</ele><time>2026-05-04T07:49:19.001Z</time></trkpt><trkpt lat="43.82422951505545" lon="12.362730064052977"><ele>749.0</ele><time>2026-05-04T07:49:27.001Z</time></trkpt><trkpt lat="43.824274341419404" lon="12.362662600796003"><ele>750.0</ele><time>2026-05-04T07:49:29.001Z</time></trkpt><trkpt lat="43.824316447501204" lon="12.36257966622792"><ele>750.0</ele><time>2026-05-04T07:49:33.001Z</time></trkpt><trkpt lat="43.8242157280208" lon="12.362650642194252"><ele>750.0</ele><time>2026-05-04T07:50:05.001Z</time></trkpt><trkpt lat="43.82415676760767" lon="12.362784561646441"><ele>750.0</ele><time>2026-05-04T07:50:07.001Z</time></trkpt><trkpt lat="43.82413081102185" lon="12.362938303635417"><ele>750.0</ele><time>2026-05-04T07:50:09.001Z</time></trkpt><trkpt lat="43.82417713283404" lon="12.363086512151812"><ele>748.8</ele><time>2026-05-04T07:50:11.001Z</time></trkpt><trkpt lat="43.82426983217357" lon="12.363157972489638"><ele>747.6</ele><time>2026-05-04T07:50:13.001Z</time></trkpt><trkpt lat="43.8243697263773" lon="12.36317721794571"><ele>746.4000000000001</ele><time>2026-05-04T07:50:15.001Z</time></trkpt><trkpt lat="43.82440681098499" lon="12.363059285318451"><ele>745.2</ele><time>2026-05-04T07:50:19.001Z</time></trkpt><trkpt lat="43.82440663417009" lon="12.362931774269677"><ele>744.0</ele><time>2026-05-04T07:50:21.001Z</time></trkpt><trkpt lat="43.82444898940628" lon="12.362818246587652"><ele>752.0</ele><time>2026-05-04T07:50:23.001Z</time></trkpt><trkpt lat="43.82451437683749" lon="12.362807656427101"><ele>760.0</ele><time>2026-05-04T07:50:26.001Z</time></trkpt><trkpt lat="43.8246014178852" lon="12.362651035027712"><ele>768.0</ele><time>2026-05-04T07:50:27.001Z</time></trkpt><trkpt lat="43.8246642185071" lon="12.36251130159446"><ele>776.0</ele><time>2026-05-04T07:50:29.001Z</time></trkpt><trkpt lat="43.82473672806337" lon="12.362395331405002"><ele>784.0</ele><time>2026-05-04T07:50:31.001Z</time></trkpt><trkpt lat="43.82468576789469" lon="12.36228200806088"><ele>785.9999999999999</ele><time>2026-05-04T07:50:33.001Z</time></trkpt><trkpt lat="43.824650125513664" lon="12.362173663424606"><ele>788.0</ele><time>2026-05-04T07:50:34.001Z</time></trkpt><trkpt lat="43.82463283515004" lon="12.36206003697571"><ele>790.0</ele><time>2026-05-04T07:50:35.001Z</time></trkpt><trkpt lat="43.824613389211486" lon="12.361964089877604"><ele>792.0</ele><time>2026-05-04T07:50:36.001Z</time></trkpt><trkpt lat="43.8246576835148" lon="12.361857554385406"><ele>793.9999999999999</ele><time>2026-05-04T07:50:38.001Z</time></trkpt><trkpt lat="43.824688136462115" lon="12.36174996351258"><ele>796.0</ele><time>2026-05-04T07:50:40.001Z</time></trkpt><trkpt lat="43.824728146725285" lon="12.36160294629474"><ele>796.0</ele><time>2026-05-04T07:50:42.001Z</time></trkpt><trkpt lat="43.82474907491405" lon="12.361456158146378"><ele>796.0</ele><time>2026-05-04T07:50:44.001Z</time></trkpt><trkpt lat="43.824814224190895" lon="12.361352594205796"><ele>796.0</ele><time>2026-05-04T07:50:46.001Z</time></trkpt><trkpt lat="43.824931648326285" lon="12.361254779654525"><ele>796.0</ele><time>2026-05-04T07:50:48.001Z</time></trkpt><trkpt lat="43.82503354514267" lon="12.361143162092777"><ele>795.8333333333333</ele><time>2026-05-04T07:50:50.001Z</time></trkpt><trkpt lat="43.825095121656666" lon="12.361037552499509"><ele>795.6666666666666</ele><time>2026-05-04T07:50:52.001Z</time></trkpt><trkpt lat="43.82515860375735" lon="12.360896199214523"><ele>795.5</ele><time>2026-05-04T07:50:54.001Z</time></trkpt><trkpt lat="43.82519763012083" lon="12.360822346965715"><ele>795.3333333333333</ele><time>2026-05-04T07:50:56.001Z</time></trkpt><trkpt lat="43.82524843265016" lon="12.360754388935172"><ele>795.1666666666666</ele><time>2026-05-04T07:50:58.001Z</time></trkpt><trkpt lat="43.825262078468235" lon="12.360643425902952"><ele>795.0</ele><time>2026-05-04T07:51:11.001Z</time></trkpt><trkpt lat="43.82520692829288" lon="12.36056101631667"><ele>800.6666666666666</ele><time>2026-05-04T07:51:28.001Z</time></trkpt><trkpt lat="43.82528680467032" lon="12.360527816801428"><ele>806.3333333333333</ele><time>2026-05-04T07:51:29.001Z</time></trkpt><trkpt lat="43.82524181176953" lon="12.360593831965193"><ele>812.0</ele><time>2026-05-04T07:51:32.001Z</time></trkpt><trkpt lat="43.82525134207097" lon="12.360710076983862"><ele>817.6666666666666</ele><time>2026-05-04T07:51:35.001Z</time></trkpt><trkpt lat="43.82533493837687" lon="12.36077589184426"><ele>823.3333333333333</ele><time>2026-05-04T07:51:38.001Z</time></trkpt><trkpt lat="43.8254321539835" lon="12.360824967175851"><ele>829.0</ele><time>2026-05-04T07:51:40.001Z</time></trkpt><trkpt lat="43.82549686555646" lon="12.360843001988496"><ele>829.0</ele><time>2026-05-04T07:51:42.001Z</time></trkpt><trkpt lat="43.82558665241152" lon="12.360857628071441"><ele>829.0</ele><time>2026-05-04T07:51:44.001Z</time></trkpt><trkpt lat="43.82550620511621" lon="12.360856771671951"><ele>829.0</ele><time>2026-05-04T07:52:01.001Z</time></trkpt><trkpt lat="43.82544197944487" lon="12.360839024657498"><ele>829.0</ele><time>2026-05-04T07:52:03.001Z</time></trkpt><trkpt lat="43.82536998594039" lon="12.360808065065552"><ele>829.0</ele><time>2026-05-04T07:52:07.001Z</time></trkpt><trkpt lat="43.82530594283407" lon="12.360783297526408"><ele>829.0</ele><time>2026-05-04T07:52:10.001Z</time></trkpt><trkpt lat="43.82528169604978" lon="12.36070045192909"><ele>829.0</ele><time>2026-05-04T07:52:28.001Z</time></trkpt><trkpt lat="43.825359822425845" lon="12.360609024033966"><ele>829.2</ele><time>2026-05-04T07:52:31.001Z</time></trkpt><trkpt lat="43.82545261638524" lon="12.36046349213442"><ele>829.4000000000001</ele><time>2026-05-04T07:52:33.001Z</time></trkpt><trkpt lat="43.825501660525774" lon="12.360397372041593"><ele>829.6</ele><time>2026-05-04T07:52:34.001Z</time></trkpt><trkpt lat="43.825516606064326" lon="12.360311172616358"><ele>829.8</ele><time>2026-05-04T07:52:36.001Z</time></trkpt><trkpt lat="43.82555556160136" lon="12.360213185760951"><ele>830.0</ele><time>2026-05-04T07:52:38.001Z</time></trkpt><trkpt lat="43.82561437008165" lon="12.360102660346863"><ele>830.0000000000001</ele><time>2026-05-04T07:52:40.001Z</time></trkpt><trkpt lat="43.825651791002" lon="12.360005110789608"><ele>830.0</ele><time>2026-05-04T07:52:42.001Z</time></trkpt><trkpt lat="43.82563663516855" lon="12.359904035662778"><ele>830.0</ele><time>2026-05-04T07:52:44.001Z</time></trkpt><trkpt lat="43.82565355628052" lon="12.359812938389696"><ele>830.0</ele><time>2026-05-04T07:52:47.001Z</time></trkpt><trkpt lat="43.8256778406318" lon="12.359681341857856"><ele>830.0000000000001</ele><time>2026-05-04T07:52:49.001Z</time></trkpt><trkpt lat="43.825673739725836" lon="12.359569810138133"><ele>830.0</ele><time>2026-05-04T07:52:51.001Z</time></trkpt><trkpt lat="43.82564032811927" lon="12.359440399400016"><ele>832.5</ele><time>2026-05-04T07:52:53.001Z</time></trkpt><trkpt lat="43.82561753661232" lon="12.359316021966862"><ele>835.0</ele><time>2026-05-04T07:52:55.001Z</time></trkpt><trkpt lat="43.82586203344121" lon="12.359157820759679"><ele>837.5</ele><time>2026-05-04T07:52:57.001Z</time></trkpt><trkpt lat="43.825856002099954" lon="12.35906625345879"><ele>840.0</ele><time>2026-05-04T07:52:58.001Z</time></trkpt><trkpt lat="43.825852697306004" lon="12.358944776274685"><ele>842.1666666666666</ele><time>2026-05-04T07:53:00.001Z</time></trkpt><trkpt lat="43.82585564654763" lon="12.358810850993741"><ele>844.3333333333333</ele><time>2026-05-04T07:53:03.001Z</time></trkpt><trkpt lat="43.825808667200775" lon="12.358731813893264"><ele>846.5</ele><time>2026-05-04T07:53:06.001Z</time></trkpt><trkpt lat="43.825863729336156" lon="12.358662294616213"><ele>848.6666666666666</ele><time>2026-05-04T07:53:09.001Z</time></trkpt><trkpt lat="43.825863811438" lon="12.35854247068375"><ele>850.8333333333333</ele><time>2026-05-04T07:53:21.001Z</time></trkpt><trkpt lat="43.82583186184282" lon="12.358410265325988"><ele>853.0</ele><time>2026-05-04T07:53:23.001Z</time></trkpt><trkpt lat="43.82579247661095" lon="12.358300184386785"><ele>853.0</ele><time>2026-05-04T07:53:24.001Z</time></trkpt><trkpt lat="43.825747451534546" lon="12.358212802851115"><ele>853.0</ele><time>2026-05-04T07:53:25.001Z</time></trkpt><trkpt lat="43.825699812612804" lon="12.3581146397089"><ele>853.0</ele><time>2026-05-04T07:53:26.001Z</time></trkpt><trkpt lat="43.8256452338192" lon="12.358009453451034"><ele>853.0</ele><time>2026-05-04T07:53:27.001Z</time></trkpt><trkpt lat="43.82559239214559" lon="12.35789229377426"><ele>853.0</ele><time>2026-05-04T07:53:28.001Z</time></trkpt><trkpt lat="43.82554202142595" lon="12.35776619144358"><ele>855.2</ele><time>2026-05-04T07:53:29.001Z</time></trkpt><trkpt lat="43.82549150004771" lon="12.35763582454176"><ele>857.4</ele><time>2026-05-04T07:53:30.001Z</time></trkpt><trkpt lat="43.825445162246055" lon="12.357503724619644"><ele>859.6000000000001</ele><time>2026-05-04T07:53:31.001Z</time></trkpt><trkpt lat="43.82540113485086" lon="12.357364591973734"><ele>861.8000000000001</ele><time>2026-05-04T07:53:32.001Z</time></trkpt><trkpt lat="43.82536114863918" lon="12.357220980905444"><ele>864.0</ele><time>2026-05-04T07:53:33.001Z</time></trkpt><trkpt lat="43.825327118017114" lon="12.357073384985918"><ele>867.25</ele><time>2026-05-04T07:53:34.001Z</time></trkpt><trkpt lat="43.82529087191458" lon="12.356924497490084"><ele>870.5</ele><time>2026-05-04T07:53:35.001Z</time></trkpt><trkpt lat="43.82525238430133" lon="12.356769677482598"><ele>873.75</ele><time>2026-05-04T07:53:36.001Z</time></trkpt><trkpt lat="43.825216243190184" lon="12.356615514941234"><ele>877.0</ele><time>2026-05-04T07:53:37.001Z</time></trkpt><trkpt lat="43.825179195067086" lon="12.356472757550991"><ele>875.8</ele><time>2026-05-04T07:53:38.001Z</time></trkpt><trkpt lat="43.825138514559946" lon="12.356323875024215"><ele>874.6</ele><time>2026-05-04T07:53:39.001Z</time></trkpt><trkpt lat="43.825108079980545" lon="12.356179060651312"><ele>873.3999999999999</ele><time>2026-05-04T07:53:40.001Z</time></trkpt><trkpt lat="43.825074994829805" lon="12.35603761465104"><ele>872.1999999999999</ele><time>2026-05-04T07:53:41.001Z</time></trkpt><trkpt lat="43.825037707700396" lon="12.355893067558897"><ele>871.0</ele><time>2026-05-04T07:53:42.001Z</time></trkpt><trkpt lat="43.8250026507959" lon="12.355747915156572"><ele>871.0</ele><time>2026-05-04T07:53:43.001Z</time></trkpt><trkpt lat="43.82496855715231" lon="12.355600181609324"><ele>871.0</ele><time>2026-05-04T07:53:44.001Z</time></trkpt><trkpt lat="43.824939307510334" lon="12.355446734807112"><ele>871.0</ele><time>2026-05-04T07:53:45.001Z</time></trkpt><trkpt lat="43.82492066150859" lon="12.355286325981368"><ele>871.0</ele><time>2026-05-04T07:53:46.001Z</time></trkpt><trkpt lat="43.824910384480084" lon="12.355128482217593"><ele>872.8</ele><time>2026-05-04T07:53:47.001Z</time></trkpt><trkpt lat="43.82490189638617" lon="12.354973366002081"><ele>874.5999999999999</ele><time>2026-05-04T07:53:48.001Z</time></trkpt><trkpt lat="43.82489749048035" lon="12.354815045572495"><ele>876.4</ele><time>2026-05-04T07:53:49.001Z</time></trkpt><trkpt lat="43.82490135211934" lon="12.354654935463307"><ele>878.2</ele><time>2026-05-04T07:53:50.001Z</time></trkpt><trkpt lat="43.82491141520021" lon="12.354517328876641"><ele>880.0</ele><time>2026-05-04T07:53:51.001Z</time></trkpt><trkpt lat="43.824926189252096" lon="12.354405777623656"><ele>881.0</ele><time>2026-05-04T07:53:52.001Z</time></trkpt><trkpt lat="43.82493751063697" lon="12.354314389532261"><ele>882.0</ele><time>2026-05-04T07:53:53.001Z</time></trkpt><trkpt lat="43.824952481414094" lon="12.35417547836687"><ele>883.0</ele><time>2026-05-04T07:53:55.001Z</time></trkpt><trkpt lat="43.82499244509489" lon="12.354061290791677"><ele>884.0</ele><time>2026-05-04T07:53:57.001Z</time></trkpt><trkpt lat="43.82511970006581" lon="12.354213918274413"><ele>885.0</ele><time>2026-05-04T07:53:59.001Z</time></trkpt><trkpt lat="43.82520466502494" lon="12.354291508141833"><ele>887.6</ele><time>2026-05-04T07:54:00.001Z</time></trkpt><trkpt lat="43.82526784314425" lon="12.354347944923717"><ele>890.2</ele><time>2026-05-04T07:54:01.001Z</time></trkpt><trkpt lat="43.82528844279529" lon="12.354436712918172"><ele>892.8</ele><time>2026-05-04T07:54:03.001Z</time></trkpt><trkpt lat="43.825386434283686" lon="12.354569931966692"><ele>895.4</ele><time>2026-05-04T07:54:05.001Z</time></trkpt><trkpt lat="43.825469912551675" lon="12.35468367101389"><ele>898.0</ele><time>2026-05-04T07:54:07.001Z</time></trkpt><trkpt lat="43.82569571653543" lon="12.354523959846464"><ele>898.0</ele><time>2026-05-04T07:54:10.001Z</time></trkpt><trkpt lat="43.8257916897572" lon="12.354483193606551"><ele>898.0</ele><time>2026-05-04T07:54:11.001Z</time></trkpt><trkpt lat="43.825872571014685" lon="12.354441792684728"><ele>898.0</ele><time>2026-05-04T07:54:12.001Z</time></trkpt><trkpt lat="43.825955554536456" lon="12.35440309498569"><ele>898.0</ele><time>2026-05-04T07:54:14.001Z</time></trkpt><trkpt lat="43.82604015492261" lon="12.354343132405143"><ele>898.0</ele><time>2026-05-04T07:54:17.001Z</time></trkpt><trkpt lat="43.826135891738275" lon="12.354344278399532"><ele>899.3333333333333</ele><time>2026-05-04T07:54:19.001Z</time></trkpt><trkpt lat="43.82619317956724" lon="12.35439086893406"><ele>900.6666666666666</ele><time>2026-05-04T07:54:20.001Z</time></trkpt><trkpt lat="43.8262522991121" lon="12.354457394669106"><ele>902.0</ele><time>2026-05-04T07:54:21.001Z</time></trkpt><trkpt lat="43.8263180077381" lon="12.354522179613703"><ele>903.3333333333333</ele><time>2026-05-04T07:54:22.001Z</time></trkpt><trkpt lat="43.826375977620884" lon="12.354590621784448"><ele>904.6666666666666</ele><time>2026-05-04T07:54:23.001Z</time></trkpt><trkpt lat="43.82642845528478" lon="12.354656130731403"><ele>906.0</ele><time>2026-05-04T07:54:24.001Z</time></trkpt><trkpt lat="43.82649226729294" lon="12.354741252743473"><ele>906.0</ele><time>2026-05-04T07:54:26.001Z</time></trkpt><trkpt lat="43.826523949926106" lon="12.354939443739358"><ele>905.9999999999999</ele><time>2026-05-04T07:54:28.001Z</time></trkpt><trkpt lat="43.826533642007355" lon="12.355037893934814"><ele>905.9999999999999</ele><time>2026-05-04T07:54:29.001Z</time></trkpt><trkpt lat="43.826557425449245" lon="12.355172764774853"><ele>906.0</ele><time>2026-05-04T07:54:31.001Z</time></trkpt><trkpt lat="43.82661156518461" lon="12.355312037732645"><ele>906.0</ele><time>2026-05-04T07:54:33.001Z</time></trkpt><trkpt lat="43.826630751291475" lon="12.355399076222305"><ele>905.9999999999999</ele><time>2026-05-04T07:54:34.001Z</time></trkpt><trkpt lat="43.82665412861257" lon="12.355504833643831"><ele>906.0</ele><time>2026-05-04T07:54:35.001Z</time></trkpt><trkpt lat="43.82666910473971" lon="12.355611469748483"><ele>905.9999999999999</ele><time>2026-05-04T07:54:36.001Z</time></trkpt><trkpt lat="43.826703247002605" lon="12.355688529303837"><ele>905.9999999999999</ele><time>2026-05-04T07:54:37.001Z</time></trkpt><trkpt lat="43.82675536032098" lon="12.355742855615901"><ele>906.0</ele><time>2026-05-04T07:54:38.001Z</time></trkpt><trkpt lat="43.82682366097501" lon="12.355775590401466"><ele>905.9999999999999</ele><time>2026-05-04T07:54:39.001Z</time></trkpt><trkpt lat="43.826899036585225" lon="12.355791152298789"><ele>905.9999999999999</ele><time>2026-05-04T07:54:41.001Z</time></trkpt><trkpt lat="43.82696114849447" lon="12.355756958042548"><ele>906.0</ele><time>2026-05-04T07:54:53.001Z</time></trkpt><trkpt lat="43.82688510142776" lon="12.355735040021472"><ele>906.0</ele><time>2026-05-04T07:54:58.001Z</time></trkpt><trkpt lat="43.82680336168351" lon="12.355788884600505"><ele>906.0</ele><time>2026-05-04T07:55:08.001Z</time></trkpt><trkpt lat="43.82672750637102" lon="12.355754728466767"><ele>906.0</ele><time>2026-05-04T07:55:10.001Z</time></trkpt><trkpt lat="43.82667742531773" lon="12.355674019243825"><ele>906.0</ele><time>2026-05-04T07:55:12.001Z</time></trkpt><trkpt lat="43.82664901289391" lon="12.355556210083904"><ele>906.0</ele><time>2026-05-04T07:55:15.001Z</time></trkpt><trkpt lat="43.826619864522314" lon="12.355431702116478"><ele>906.0</ele><time>2026-05-04T07:55:17.001Z</time></trkpt><trkpt lat="43.82660481237366" lon="12.35534135264238"><ele>905.9999999999999</ele><time>2026-05-04T07:55:18.001Z</time></trkpt><trkpt lat="43.826578131267574" lon="12.355208594617988"><ele>905.9999999999999</ele><time>2026-05-04T07:55:20.001Z</time></trkpt><trkpt lat="43.8264951252597" lon="12.355118281859383"><ele>906.0</ele><time>2026-05-04T07:55:22.001Z</time></trkpt><trkpt lat="43.826522492639604" lon="12.354952870497932"><ele>906.0</ele><time>2026-05-04T07:55:24.001Z</time></trkpt><trkpt lat="43.82649551850366" lon="12.354805154412066"><ele>907.5</ele><time>2026-05-04T07:55:26.001Z</time></trkpt><trkpt lat="43.82646325655621" lon="12.354690322186844"><ele>909.0</ele><time>2026-05-04T07:55:28.001Z</time></trkpt><trkpt lat="43.82641900233379" lon="12.35462658025388"><ele>910.5</ele><time>2026-05-04T07:55:30.001Z</time></trkpt><trkpt lat="43.8263242579187" lon="12.354575938604446"><ele>912.0</ele><time>2026-05-04T07:55:32Z</time></trkpt><trkpt lat="43.826251958329074" lon="12.354502313700179"><ele>913.5</ele><time>2026-05-04T07:55:33Z</time></trkpt><trkpt lat="43.82620359611701" lon="12.35443181738256"><ele>915.0</ele><time>2026-05-04T07:55:34Z</time></trkpt><trkpt lat="43.82615262050462" lon="12.354368767611538"><ele>915.0</ele><time>2026-05-04T07:55:35Z</time></trkpt><trkpt lat="43.82607843930121" lon="12.354315281173966"><ele>915.0</ele><time>2026-05-04T07:55:36Z</time></trkpt><trkpt lat="43.825919101515495" lon="12.354417939074844"><ele>915.0</ele><time>2026-05-04T07:55:39Z</time></trkpt><trkpt lat="43.82586222765172" lon="12.354370925833482"><ele>915.0</ele><time>2026-05-04T07:55:40Z</time></trkpt><trkpt lat="43.8259229525283" lon="12.354331381378682"><ele>915.0</ele><time>2026-05-04T07:55:47Z</time></trkpt><trkpt lat="43.82594654837531" lon="12.354238799316503"><ele>913.6666666666666</ele><time>2026-05-04T07:56:19Z</time></trkpt><trkpt lat="43.82588268913276" lon="12.354216852814934"><ele>912.3333333333333</ele><time>2026-05-04T07:56:21Z</time></trkpt><trkpt lat="43.82583544094363" lon="12.354132138281399"><ele>911.0</ele><time>2026-05-04T07:56:26Z</time></trkpt><trkpt lat="43.82578054388265" lon="12.354021874498853"><ele>909.6666666666666</ele><time>2026-05-04T07:56:28Z</time></trkpt><trkpt lat="43.82574429428421" lon="12.353943109677934"><ele>908.3333333333333</ele><time>2026-05-04T07:56:29Z</time></trkpt><trkpt lat="43.825714924683844" lon="12.353855275357262"><ele>907.0</ele><time>2026-05-04T07:56:30Z</time></trkpt><trkpt lat="43.82572331590094" lon="12.35370615576887"><ele>906.9999999999999</ele><time>2026-05-04T07:56:32Z</time></trkpt><trkpt lat="43.82573165223795" lon="12.3536151053044"><ele>907.0</ele><time>2026-05-04T07:56:33Z</time></trkpt><trkpt lat="43.82573124661005" lon="12.353500302430236"><ele>907.0</ele><time>2026-05-04T07:56:34Z</time></trkpt><trkpt lat="43.82572442706182" lon="12.353374572806532"><ele>907.0</ele><time>2026-05-04T07:56:36Z</time></trkpt><trkpt lat="43.8257280010543" lon="12.353280913777235"><ele>906.9999999999999</ele><time>2026-05-04T07:56:37Z</time></trkpt><trkpt lat="43.82579517954745" lon="12.353204612883816"><ele>907.0</ele><time>2026-05-04T07:56:39Z</time></trkpt><trkpt lat="43.82586840306718" lon="12.353177527251965"><ele>907.0</ele><time>2026-05-04T07:56:40Z</time></trkpt><trkpt lat="43.825964465727104" lon="12.353132839147039"><ele>907.0</ele><time>2026-05-04T07:56:42Z</time></trkpt><trkpt lat="43.82605521788992" lon="12.353103094046014"><ele>907.0</ele><time>2026-05-04T07:56:44Z</time></trkpt><trkpt lat="43.82611256268211" lon="12.352981785469945"><ele>907.0</ele><time>2026-05-04T07:56:46Z</time></trkpt><trkpt lat="43.82614302154462" lon="12.352846148629569"><ele>907.0</ele><time>2026-05-04T07:56:48Z</time></trkpt><trkpt lat="43.826259610825645" lon="12.352810763746632"><ele>910.4000000000001</ele><time>2026-05-04T07:56:50Z</time></trkpt><trkpt lat="43.82635060735267" lon="12.352848436764237"><ele>913.8000000000001</ele><time>2026-05-04T07:56:52Z</time></trkpt><trkpt lat="43.82634517173678" lon="12.352954099132512"><ele>917.2</ele><time>2026-05-04T07:56:54Z</time></trkpt><trkpt lat="43.82642790430525" lon="12.353020620036368"><ele>920.6</ele><time>2026-05-04T07:56:56Z</time></trkpt><trkpt lat="43.82654550468497" lon="12.352997285294334"><ele>924.0</ele><time>2026-05-04T07:56:58Z</time></trkpt><trkpt lat="43.82669233970387" lon="12.353010436220357"><ele>924.0</ele><time>2026-05-04T07:57:00.001Z</time></trkpt><trkpt lat="43.82676295081824" lon="12.353011793015101"><ele>924.0000000000001</ele><time>2026-05-04T07:57:01.001Z</time></trkpt><trkpt lat="43.82683309745705" lon="12.353007534763586"><ele>924.0000000000001</ele><time>2026-05-04T07:57:02.001Z</time></trkpt><trkpt lat="43.826947506120064" lon="12.353000332189513"><ele>924.0</ele><time>2026-05-04T07:57:04.001Z</time></trkpt><trkpt lat="43.827037882229824" lon="12.352885880503212"><ele>924.0</ele><time>2026-05-04T07:57:06.001Z</time></trkpt><trkpt lat="43.82710856368146" lon="12.352808013385538"><ele>927.3333333333334</ele><time>2026-05-04T07:57:07.001Z</time></trkpt><trkpt lat="43.8271781194097" lon="12.352747049365512"><ele>930.6666666666667</ele><time>2026-05-04T07:57:08.001Z</time></trkpt><trkpt lat="43.827223935495404" lon="12.352672819299135"><ele>934.0</ele><time>2026-05-04T07:57:09.001Z</time></trkpt><trkpt lat="43.82725324426335" lon="12.35253424794932"><ele>937.3333333333334</ele><time>2026-05-04T07:57:11.001Z</time></trkpt><trkpt lat="43.82727497160564" lon="12.352423558288894"><ele>940.6666666666667</ele><time>2026-05-04T07:57:12.001Z</time></trkpt><trkpt lat="43.82730520639234" lon="12.352329192372496"><ele>944.0</ele><time>2026-05-04T07:57:13.001Z</time></trkpt><trkpt lat="43.82734039436296" lon="12.352225234515837"><ele>944.1666666666667</ele><time>2026-05-04T07:57:14.001Z</time></trkpt><trkpt lat="43.82737962784001" lon="12.352106449270282"><ele>944.3333333333334</ele><time>2026-05-04T07:57:15.001Z</time></trkpt><trkpt lat="43.8274119766484" lon="12.35203129142649"><ele>944.5</ele><time>2026-05-04T07:57:16.001Z</time></trkpt><trkpt lat="43.82746489570399" lon="12.351959812788897"><ele>944.6666666666667</ele><time>2026-05-04T07:57:17.001Z</time></trkpt><trkpt lat="43.82750150211634" lon="12.351877991799421"><ele>944.8333333333334</ele><time>2026-05-04T07:57:18.001Z</time></trkpt><trkpt lat="43.82755967980991" lon="12.35178746712171"><ele>945.0</ele><time>2026-05-04T07:57:20.001Z</time></trkpt><trkpt lat="43.82764888833535" lon="12.351662523302174"><ele>946.8571428571429</ele><time>2026-05-04T08:09:00.999Z</time></trkpt><trkpt lat="43.827696295970775" lon="12.351583947590658"><ele>948.7142857142858</ele><time>2026-05-04T08:09:01.999Z</time></trkpt><trkpt lat="43.82774238899298" lon="12.351498016571073"><ele>950.5714285714286</ele><time>2026-05-04T08:09:02.999Z</time></trkpt><trkpt lat="43.82778913815296" lon="12.351420496966663"><ele>952.4285714285714</ele><time>2026-05-04T08:09:03.999Z</time></trkpt><trkpt lat="43.8278323274047" lon="12.35134549434352"><ele>954.2857142857143</ele><time>2026-05-04T08:09:04.999Z</time></trkpt><trkpt lat="43.82786748402815" lon="12.351258093154247"><ele>956.1428571428571</ele><time>2026-05-04T08:09:05.999Z</time></trkpt><trkpt lat="43.82789828640692" lon="12.351161991392075"><ele>958.0</ele><time>2026-05-04T08:09:06.999Z</time></trkpt><trkpt lat="43.82792323085595" lon="12.351057329040351"><ele>957.9999999999999</ele><time>2026-05-04T08:09:07.999Z</time></trkpt><trkpt lat="43.82794985187217" lon="12.350973317506222"><ele>958.0</ele><time>2026-05-04T08:09:08.999Z</time></trkpt><trkpt lat="43.82799424971744" lon="12.350902058569512"><ele>958.0</ele><time>2026-05-04T08:09:09.999Z</time></trkpt><trkpt lat="43.828050497083524" lon="12.350830754746413"><ele>958.0</ele><time>2026-05-04T08:09:10.999Z</time></trkpt><trkpt lat="43.82811748424854" lon="12.350742008405781"><ele>957.9999999999999</ele><time>2026-05-04T08:09:11.999Z</time></trkpt><trkpt lat="43.82818275946258" lon="12.350657705626457"><ele>958.0</ele><time>2026-05-04T08:09:12.999Z</time></trkpt><trkpt lat="43.82824597659726" lon="12.350573223505501"><ele>958.3333333333333</ele><time>2026-05-04T08:09:13.999Z</time></trkpt><trkpt lat="43.82830801276565" lon="12.350484897032747"><ele>958.6666666666666</ele><time>2026-05-04T08:09:14.999Z</time></trkpt><trkpt lat="43.82836341669344" lon="12.350389113758805"><ele>959.0</ele><time>2026-05-04T08:09:15.999Z</time></trkpt><trkpt lat="43.82839824179833" lon="12.350292544321698"><ele>959.3333333333333</ele><time>2026-05-04T08:09:16.999Z</time></trkpt><trkpt lat="43.82841851364021" lon="12.35018975082843"><ele>959.6666666666666</ele><time>2026-05-04T08:09:17.999Z</time></trkpt><trkpt lat="43.82842033348086" lon="12.350077234555684"><ele>960.0</ele><time>2026-05-04T08:09:18.999Z</time></trkpt><trkpt lat="43.82840736316124" lon="12.3499537437836"><ele>960.0</ele><time>2026-05-04T08:09:19.999Z</time></trkpt><trkpt lat="43.82837530972491" lon="12.349820765597086"><ele>960.0</ele><time>2026-05-04T08:09:20.999Z</time></trkpt><trkpt lat="43.82834812079694" lon="12.34970271058959"><ele>960.0</ele><time>2026-05-04T08:09:21.999Z</time></trkpt><trkpt lat="43.82831991922148" lon="12.349589870363872"><ele>960.0</ele><time>2026-05-04T08:09:22.999Z</time></trkpt><trkpt lat="43.82830944066077" lon="12.349456135457057"><ele>960.0</ele><time>2026-05-04T08:09:24.999Z</time></trkpt><trkpt lat="43.82837681918189" lon="12.349411370628415"><ele>960.0</ele><time>2026-05-04T08:09:26.999Z</time></trkpt><trkpt lat="43.82848685125963" lon="12.349439218977528"><ele>962.4</ele><time>2026-05-04T08:09:28.999Z</time></trkpt><trkpt lat="43.82855156692951" lon="12.349478681143063"><ele>964.8</ele><time>2026-05-04T08:09:29.999Z</time></trkpt><trkpt lat="43.82862297485621" lon="12.349511638780278"><ele>967.2</ele><time>2026-05-04T08:09:30.999Z</time></trkpt><trkpt lat="43.8286841361882" lon="12.34953995833427"><ele>969.6</ele><time>2026-05-04T08:09:31.999Z</time></trkpt><trkpt lat="43.82879278010505" lon="12.34951615914668"><ele>972.0</ele><time>2026-05-04T08:09:33.999Z</time></trkpt><trkpt lat="43.82889571981011" lon="12.349397806900548"><ele>972.0</ele><time>2026-05-04T08:09:36Z</time></trkpt><trkpt lat="43.828952888008786" lon="12.349335701442968"><ele>972.0</ele><time>2026-05-04T08:09:37Z</time></trkpt><trkpt lat="43.829058374730124" lon="12.349334218896502"><ele>972.0</ele><time>2026-05-04T08:09:39Z</time></trkpt><trkpt lat="43.82916512334358" lon="12.34939870170661"><ele>972.0</ele><time>2026-05-04T08:09:41Z</time></trkpt><trkpt lat="43.829253725008805" lon="12.349482491263696"><ele>972.0</ele><time>2026-05-04T08:09:43Z</time></trkpt><trkpt lat="43.82927125347262" lon="12.349396691183768"><ele>972.0</ele><time>2026-05-04T08:10:13.998Z</time></trkpt><trkpt lat="43.82923495338516" lon="12.34931114833164"><ele>972.0</ele><time>2026-05-04T08:10:16.998Z</time></trkpt><trkpt lat="43.82920056938936" lon="12.349193154502888"><ele>972.0</ele><time>2026-05-04T08:10:19.998Z</time></trkpt><trkpt lat="43.82918895924868" lon="12.349103394798025"><ele>972.0</ele><time>2026-05-04T08:10:22.998Z</time></trkpt><trkpt lat="43.82917057193828" lon="12.348948658182465"><ele>972.0</ele><time>2026-05-04T08:10:24.998Z</time></trkpt><trkpt lat="43.82914580412009" lon="12.348868385216093"><ele>972.0</ele><time>2026-05-04T08:10:26.998Z</time></trkpt><trkpt lat="43.82910063928653" lon="12.348790250934501"><ele>972.6666666666666</ele><time>2026-05-04T08:10:28.999Z</time></trkpt><trkpt lat="43.829024593682036" lon="12.348718765173242"><ele>973.3333333333333</ele><time>2026-05-04T08:10:30.999Z</time></trkpt><trkpt lat="43.82896715752467" lon="12.348659155671644"><ele>974.0</ele><time>2026-05-04T08:10:32.999Z</time></trkpt><trkpt lat="43.828890644650876" lon="12.348584833856311"><ele>974.6666666666666</ele><time>2026-05-04T08:10:34.999Z</time></trkpt><trkpt lat="43.82882637583542" lon="12.348500536768457"><ele>975.3333333333333</ele><time>2026-05-04T08:10:36.999Z</time></trkpt><trkpt lat="43.828762182569" lon="12.34843147378175"><ele>976.0</ele><time>2026-05-04T08:10:40.999Z</time></trkpt><trkpt lat="43.828707197478415" lon="12.34837136702402"><ele>976.0</ele><time>2026-05-04T08:10:42.999Z</time></trkpt><trkpt lat="43.82860856892058" lon="12.348261858307223"><ele>975.9999999999999</ele><time>2026-05-04T08:10:44.999Z</time></trkpt><trkpt lat="43.82854847565826" lon="12.34818809566784"><ele>975.9999999999999</ele><time>2026-05-04T08:10:45.999Z</time></trkpt><trkpt lat="43.828485327892196" lon="12.3480664583432"><ele>976.0</ele><time>2026-05-04T08:10:47.999Z</time></trkpt><trkpt lat="43.82845424591627" lon="12.347937681023234"><ele>976.0</ele><time>2026-05-04T08:10:49.999Z</time></trkpt><trkpt lat="43.82838970594985" lon="12.347796690084111"><ele>976.4999999999999</ele><time>2026-05-04T08:10:51.999Z</time></trkpt><trkpt lat="43.82834819024571" lon="12.34764827559729"><ele>977.0</ele><time>2026-05-04T08:10:53.999Z</time></trkpt><trkpt lat="43.828307686391184" lon="12.347563893353794"><ele>977.5</ele><time>2026-05-04T08:10:54.999Z</time></trkpt><trkpt lat="43.82822605136532" lon="12.34743477456118"><ele>978.0</ele><time>2026-05-04T08:10:56.999Z</time></trkpt><trkpt lat="43.8281803621212" lon="12.347365426842648"><ele>978.4999999999999</ele><time>2026-05-04T08:10:57.999Z</time></trkpt><trkpt lat="43.82813661420779" lon="12.347296736187605"><ele>979.0</ele><time>2026-05-04T08:10:58.999Z</time></trkpt><trkpt lat="43.82804603741217" lon="12.347185796331468"><ele>979.0</ele><time>2026-05-04T08:11:00.999Z</time></trkpt><trkpt lat="43.82796734866328" lon="12.347070479993718"><ele>979.0000000000001</ele><time>2026-05-04T08:11:02.999Z</time></trkpt><trkpt lat="43.827967359692394" lon="12.346931316144822"><ele>979.0000000000001</ele><time>2026-05-04T08:11:04.999Z</time></trkpt><trkpt lat="43.82795895363842" lon="12.346835663157748"><ele>979.0</ele><time>2026-05-04T08:11:05.999Z</time></trkpt><trkpt lat="43.82793719718511" lon="12.346676829504789"><ele>979.0</ele><time>2026-05-04T08:11:07.999Z</time></trkpt><trkpt lat="43.82791921157147" lon="12.346514207044006"><ele>979.4999999999999</ele><time>2026-05-04T08:11:10Z</time></trkpt><trkpt lat="43.827939252872184" lon="12.346374032746017"><ele>980.0</ele><time>2026-05-04T08:11:12Z</time></trkpt><trkpt lat="43.827930064832294" lon="12.346286933630651"><ele>980.5</ele><time>2026-05-04T08:11:14Z</time></trkpt><trkpt lat="43.8278739335327" lon="12.346214907711529"><ele>981.0</ele><time>2026-05-04T08:11:16Z</time></trkpt><trkpt lat="43.82780431863008" lon="12.346124842179927"><ele>981.4999999999999</ele><time>2026-05-04T08:11:18Z</time></trkpt><trkpt lat="43.827784310657535" lon="12.34597721911947"><ele>982.0</ele><time>2026-05-04T08:11:20Z</time></trkpt><trkpt lat="43.827766143684336" lon="12.345884353851512"><ele>981.9999999999999</ele><time>2026-05-04T08:11:21Z</time></trkpt><trkpt lat="43.82775355104313" lon="12.345777202671204"><ele>982.0</ele><time>2026-05-04T08:11:22Z</time></trkpt><trkpt lat="43.82774842009165" lon="12.34567518961021"><ele>982.0</ele><time>2026-05-04T08:11:23Z</time></trkpt><trkpt lat="43.8277175011916" lon="12.345578797819453"><ele>982.0</ele><time>2026-05-04T08:11:24Z</time></trkpt><trkpt lat="43.82767323011155" lon="12.345489920190996"><ele>981.9999999999999</ele><time>2026-05-04T08:11:25Z</time></trkpt><trkpt lat="43.82761600868988" lon="12.345403413042254"><ele>982.0</ele><time>2026-05-04T08:11:26Z</time></trkpt><trkpt lat="43.82755524244695" lon="12.345325747699517"><ele>983.1666666666666</ele><time>2026-05-04T08:11:27Z</time></trkpt><trkpt lat="43.82749793437596" lon="12.345255527661639"><ele>984.3333333333333</ele><time>2026-05-04T08:11:28Z</time></trkpt><trkpt lat="43.827438547352074" lon="12.345210849214464"><ele>985.5</ele><time>2026-05-04T08:11:29Z</time></trkpt><trkpt lat="43.8273185788935" lon="12.345144576197368"><ele>986.6666666666667</ele><time>2026-05-04T08:11:31Z</time></trkpt><trkpt lat="43.82725898659319" lon="12.345057586130249"><ele>987.8333333333334</ele><time>2026-05-04T08:11:32Z</time></trkpt><trkpt lat="43.82721062328518" lon="12.344964415125293"><ele>989.0</ele><time>2026-05-04T08:11:33Z</time></trkpt><trkpt lat="43.82716116553447" lon="12.344893469921862"><ele>989.0</ele><time>2026-05-04T08:11:34Z</time></trkpt><trkpt lat="43.827119384557946" lon="12.344756198038647"><ele>989.0000000000001</ele><time>2026-05-04T08:11:36Z</time></trkpt><trkpt lat="43.827057297766764" lon="12.344579436782254"><ele>989.0000000000001</ele><time>2026-05-04T08:11:38Z</time></trkpt><trkpt lat="43.8270239697546" lon="12.344473599637137"><ele>989.0</ele><time>2026-05-04T08:11:39Z</time></trkpt><trkpt lat="43.82705720882773" lon="12.344332043679403"><ele>989.0</ele><time>2026-05-04T08:11:41Z</time></trkpt><trkpt lat="43.8270952729447" lon="12.34424067432762"><ele>991.1666666666667</ele><time>2026-05-04T08:11:42Z</time></trkpt><trkpt lat="43.827135127973314" lon="12.344152626392773"><ele>993.3333333333334</ele><time>2026-05-04T08:11:43Z</time></trkpt><trkpt lat="43.82715836861009" lon="12.344068039096529"><ele>995.5</ele><time>2026-05-04T08:11:44Z</time></trkpt><trkpt lat="43.82712239831092" lon="12.343906495253277"><ele>997.6666666666667</ele><time>2026-05-04T08:11:46Z</time></trkpt><trkpt lat="43.827075157432986" lon="12.3438375567091"><ele>999.8333333333334</ele><time>2026-05-04T08:11:47Z</time></trkpt><trkpt lat="43.82703115561924" lon="12.343745771794046"><ele>1002.0</ele><time>2026-05-04T08:11:48Z</time></trkpt><trkpt lat="43.82696667292751" lon="12.34361770921129"><ele>1001.6666666666666</ele><time>2026-05-04T08:11:49Z</time></trkpt><trkpt lat="43.826919651570655" lon="12.343516580291539"><ele>1001.3333333333333</ele><time>2026-05-04T08:11:50Z</time></trkpt><trkpt lat="43.82687557710952" lon="12.343413733403247"><ele>1001.0</ele><time>2026-05-04T08:11:51Z</time></trkpt><trkpt lat="43.82683380220739" lon="12.343332627979166"><ele>1000.6666666666666</ele><time>2026-05-04T08:11:52Z</time></trkpt><trkpt lat="43.82676753146192" lon="12.343202152970026"><ele>1000.3333333333333</ele><time>2026-05-04T08:11:54Z</time></trkpt><trkpt lat="43.82674637323065" lon="12.343097322924578"><ele>1000.0</ele><time>2026-05-04T08:11:56Z</time></trkpt><trkpt lat="43.82671711636279" lon="12.342946681419269"><ele>1001.2</ele><time>2026-05-04T08:12:07.999Z</time></trkpt><trkpt lat="43.826729359672356" lon="12.342795970811734"><ele>1002.4</ele><time>2026-05-04T08:12:09.999Z</time></trkpt><trkpt lat="43.826730924791235" lon="12.342673048126947"><ele>1003.5999999999999</ele><time>2026-05-04T08:12:11.999Z</time></trkpt><trkpt lat="43.82672329809856" lon="12.342551936887851"><ele>1004.8</ele><time>2026-05-04T08:12:35.999Z</time></trkpt><trkpt lat="43.826723275669984" lon="12.342424441154922"><ele>1006.0</ele><time>2026-05-04T08:12:38Z</time></trkpt><trkpt lat="43.82673278451975" lon="12.34226696392948"><ele>1007.4999999999999</ele><time>2026-05-04T08:12:40Z</time></trkpt><trkpt lat="43.82672491560279" lon="12.34217669862831"><ele>1009.0</ele><time>2026-05-04T08:12:41Z</time></trkpt><trkpt lat="43.82669644756666" lon="12.342018025008905"><ele>1010.5</ele><time>2026-05-04T08:12:43Z</time></trkpt><trkpt lat="43.82668990659584" lon="12.341917451701153"><ele>1012.0</ele><time>2026-05-04T08:12:46Z</time></trkpt><trkpt lat="43.826711313466916" lon="12.341808759107206"><ele>1013.4999999999999</ele><time>2026-05-04T08:12:52Z</time></trkpt><trkpt lat="43.826681990284534" lon="12.341695152659993"><ele>1015.0</ele><time>2026-05-04T08:12:55Z</time></trkpt><trkpt lat="43.826665996856235" lon="12.341587074895717"><ele>1015.0</ele><time>2026-05-04T08:12:57Z</time></trkpt><trkpt lat="43.826648629628025" lon="12.341467400735572"><ele>1015.0</ele><time>2026-05-04T08:13:00Z</time></trkpt><trkpt lat="43.82659835345761" lon="12.341339616908353"><ele>1015.0</ele><time>2026-05-04T08:13:02Z</time></trkpt><trkpt lat="43.82653634097253" lon="12.341217915307553"><ele>1015.0</ele><time>2026-05-04T08:13:04Z</time></trkpt><trkpt lat="43.82649903399357" lon="12.341096775353218"><ele>1015.0</ele><time>2026-05-04T08:13:06Z</time></trkpt><trkpt lat="43.82644644316545" lon="12.341027168674998"><ele>1016.1666666666666</ele><time>2026-05-04T08:13:07Z</time></trkpt><trkpt lat="43.82639632039941" lon="12.340962891861357"><ele>1017.3333333333333</ele><time>2026-05-04T08:13:08Z</time></trkpt><trkpt lat="43.826340526393615" lon="12.340863927638177"><ele>1018.5</ele><time>2026-05-04T08:13:10Z</time></trkpt><trkpt lat="43.826289170527005" lon="12.340771285533357"><ele>1019.6666666666667</ele><time>2026-05-04T08:13:13Z</time></trkpt><trkpt lat="43.826252035522685" lon="12.340651721685367"><ele>1020.8333333333334</ele><time>2026-05-04T08:13:16Z</time></trkpt><trkpt lat="43.826220878745154" lon="12.34053786906045"><ele>1022.0</ele><time>2026-05-04T08:13:18Z</time></trkpt><trkpt lat="43.82621838281521" lon="12.34044276965632"><ele>1023.8</ele><time>2026-05-04T08:13:19Z</time></trkpt><trkpt lat="43.82621869138281" lon="12.340310807570791"><ele>1025.6</ele><time>2026-05-04T08:13:21Z</time></trkpt><trkpt lat="43.82619963783204" lon="12.340193399608609"><ele>1027.3999999999999</ele><time>2026-05-04T08:13:24.001Z</time></trkpt><trkpt lat="43.82618360765149" lon="12.340056621486198"><ele>1029.2</ele><time>2026-05-04T08:13:26.001Z</time></trkpt><trkpt lat="43.82615732073107" lon="12.33991451457437"><ele>1031.0</ele><time>2026-05-04T08:13:28.001Z</time></trkpt><trkpt lat="43.82610604688114" lon="12.339798431996893"><ele>1032.3999999999999</ele><time>2026-05-04T08:13:30.001Z</time></trkpt><trkpt lat="43.82609716610347" lon="12.339686965992652"><ele>1033.8</ele><time>2026-05-04T08:13:32.001Z</time></trkpt><trkpt lat="43.82609297916592" lon="12.339598783393479"><ele>1035.1999999999998</ele><time>2026-05-04T08:13:33.001Z</time></trkpt><trkpt lat="43.8261040875736" lon="12.339436450207083"><ele>1036.6</ele><time>2026-05-04T08:13:35.001Z</time></trkpt><trkpt lat="43.826116143077364" lon="12.339316684358703"><ele>1038.0</ele><time>2026-05-04T08:13:37.001Z</time></trkpt><trkpt lat="43.82614027476562" lon="12.339176410765571"><ele>1038.0</ele><time>2026-05-04T08:13:58.001Z</time></trkpt><trkpt lat="43.826120538937424" lon="12.338989494422487"><ele>1038.0</ele><time>2026-05-04T08:14:00.001Z</time></trkpt><trkpt lat="43.826095451795375" lon="12.338885831753213"><ele>1038.0</ele><time>2026-05-04T08:14:01.001Z</time></trkpt><trkpt lat="43.82604796804129" lon="12.338792989348413"><ele>1038.0</ele><time>2026-05-04T08:14:02.001Z</time></trkpt><trkpt lat="43.82597887692962" lon="12.338698892178057"><ele>1038.0</ele><time>2026-05-04T08:14:03.001Z</time></trkpt><trkpt lat="43.82591077768435" lon="12.338610164652895"><ele>1039.5</ele><time>2026-05-04T08:14:04.001Z</time></trkpt><trkpt lat="43.8258524387348" lon="12.33851410974334"><ele>1041.0</ele><time>2026-05-04T08:14:05.001Z</time></trkpt><trkpt lat="43.825798296370046" lon="12.338419040810624"><ele>1042.5</ele><time>2026-05-04T08:14:06.001Z</time></trkpt><trkpt lat="43.825749920570296" lon="12.3383308485872"><ele>1044.0</ele><time>2026-05-04T08:14:07.001Z</time></trkpt><trkpt lat="43.82570313928595" lon="12.338252805233234"><ele>1045.5</ele><time>2026-05-04T08:14:08.001Z</time></trkpt><trkpt lat="43.825657031385" lon="12.338164393574251"><ele>1047.0</ele><time>2026-05-04T08:14:09.001Z</time></trkpt><trkpt lat="43.82562767004854" lon="12.338061520289262"><ele>1047.6666666666667</ele><time>2026-05-04T08:14:10.001Z</time></trkpt><trkpt lat="43.82560220899971" lon="12.337943885164563"><ele>1048.3333333333333</ele><time>2026-05-04T08:14:11.001Z</time></trkpt><trkpt lat="43.82556776576705" lon="12.33782160173861"><ele>1049.0</ele><time>2026-05-04T08:14:12.001Z</time></trkpt><trkpt lat="43.825546085301696" lon="12.337717813108155"><ele>1049.6666666666665</ele><time>2026-05-04T08:14:13.001Z</time></trkpt><trkpt lat="43.82552415036937" lon="12.337591542276567"><ele>1050.3333333333333</ele><time>2026-05-04T08:14:14Z</time></trkpt><trkpt lat="43.825502894694566" lon="12.337474692702076"><ele>1051.0</ele><time>2026-05-04T08:14:15Z</time></trkpt><trkpt lat="43.825482726573824" lon="12.337354471571494"><ele>1051.0</ele><time>2026-05-04T08:14:16Z</time></trkpt><trkpt lat="43.8254615602814" lon="12.337252049769281"><ele>1051.0</ele><time>2026-05-04T08:14:17Z</time></trkpt><trkpt lat="43.82544794266915" lon="12.337142077796768"><ele>1051.0</ele><time>2026-05-04T08:14:18Z</time></trkpt><trkpt lat="43.82542884169189" lon="12.337029056841688"><ele>1051.0</ele><time>2026-05-04T08:14:19Z</time></trkpt><trkpt lat="43.825409256372126" lon="12.33692756271752"><ele>1051.0</ele><time>2026-05-04T08:14:20Z</time></trkpt><trkpt lat="43.82537643610121" lon="12.336822059363568"><ele>1051.0</ele><time>2026-05-04T08:14:21Z</time></trkpt><trkpt lat="43.82535081836414" lon="12.336729853088771"><ele>1050.6666666666665</ele><time>2026-05-04T08:14:22Z</time></trkpt><trkpt lat="43.82532818985266" lon="12.336640246618034"><ele>1050.3333333333333</ele><time>2026-05-04T08:14:23Z</time></trkpt><trkpt lat="43.82529843285812" lon="12.33655037613007"><ele>1050.0</ele><time>2026-05-04T08:14:24Z</time></trkpt><trkpt lat="43.82526388693822" lon="12.336465873248782"><ele>1049.6666666666667</ele><time>2026-05-04T08:14:25Z</time></trkpt><trkpt lat="43.82520310747515" lon="12.336355528829724"><ele>1049.3333333333335</ele><time>2026-05-04T08:14:27Z</time></trkpt><trkpt lat="43.825142779983295" lon="12.336283372554835"><ele>1049.0</ele><time>2026-05-04T08:14:29Z</time></trkpt><trkpt lat="43.82508657393172" lon="12.336187921767431"><ele>1046.4</ele><time>2026-05-04T08:14:31Z</time></trkpt><trkpt lat="43.82504484121745" lon="12.336067255694763"><ele>1043.8000000000002</ele><time>2026-05-04T08:14:33Z</time></trkpt><trkpt lat="43.82501337583315" lon="12.335912974592679"><ele>1041.1999999999998</ele><time>2026-05-04T08:14:35Z</time></trkpt><trkpt lat="43.82495183662253" lon="12.335817234575392"><ele>1038.6</ele><time>2026-05-04T08:14:37Z</time></trkpt><trkpt lat="43.8248405353419" lon="12.335770944551076"><ele>1036.0</ele><time>2026-05-04T08:14:39Z</time></trkpt><trkpt lat="43.824729986640534" lon="12.33579318850246"><ele>1036.0</ele><time>2026-05-04T08:14:41Z</time></trkpt><trkpt lat="43.824646637490176" lon="12.33580152704953"><ele>1036.0</ele><time>2026-05-04T08:14:43Z</time></trkpt><trkpt lat="43.82460106607346" lon="12.335712900611611"><ele>1036.0</ele><time>2026-05-04T08:14:45Z</time></trkpt><trkpt lat="43.82458513523225" lon="12.335623172422581"><ele>1036.0</ele><time>2026-05-04T08:14:47Z</time></trkpt><trkpt lat="43.824534136621004" lon="12.335525411558589"><ele>1036.0</ele><time>2026-05-04T08:14:49Z</time></trkpt><trkpt lat="43.82444788044168" lon="12.33536981819964"><ele>1035.2</ele><time>2026-05-04T08:14:51Z</time></trkpt><trkpt lat="43.82441182016055" lon="12.33528505557481"><ele>1034.3999999999999</ele><time>2026-05-04T08:14:52Z</time></trkpt><trkpt lat="43.824374483849965" lon="12.335176450695043"><ele>1033.6</ele><time>2026-05-04T08:14:53Z</time></trkpt><trkpt lat="43.82434697988364" lon="12.335090502744459"><ele>1032.8</ele><time>2026-05-04T08:14:54Z</time></trkpt><trkpt lat="43.82426891979175" lon="12.334962897850808"><ele>1032.0</ele><time>2026-05-04T08:14:56Z</time></trkpt><trkpt lat="43.82418347317384" lon="12.33487635644495"><ele>1032.0</ele><time>2026-05-04T08:14:58Z</time></trkpt><trkpt lat="43.82414416730741" lon="12.334775936328414"><ele>1032.0</ele><time>2026-05-04T08:15:01.001Z</time></trkpt><trkpt lat="43.82418404193512" lon="12.33470103468048"><ele>1032.0</ele><time>2026-05-04T08:15:04.001Z</time></trkpt><trkpt lat="43.824245091933314" lon="12.334670391641474"><ele>1032.0</ele><time>2026-05-04T08:15:06.001Z</time></trkpt><trkpt lat="43.82430694424312" lon="12.334625181792306"><ele>1032.0</ele><time>2026-05-04T08:15:08.001Z</time></trkpt><trkpt lat="43.82438554118995" lon="12.334548413477563"><ele>1032.0</ele><time>2026-05-04T08:15:10.001Z</time></trkpt><trkpt lat="43.82449003150632" lon="12.334499627972631"><ele>1031.2</ele><time>2026-05-04T08:15:12.001Z</time></trkpt><trkpt lat="43.824607939060755" lon="12.334458073873321"><ele>1030.4</ele><time>2026-05-04T08:15:14.001Z</time></trkpt><trkpt lat="43.82472271179615" lon="12.334411042212084"><ele>1029.6</ele><time>2026-05-04T08:15:16.001Z</time></trkpt><trkpt lat="43.82480523515033" lon="12.334286209721817"><ele>1028.8</ele><time>2026-05-04T08:15:18.001Z</time></trkpt><trkpt lat="43.824841864581735" lon="12.334194912523733"><ele>1028.0</ele><time>2026-05-04T08:15:19.001Z</time></trkpt><trkpt lat="43.82486694825655" lon="12.334101722489516"><ele>1028.0</ele><time>2026-05-04T08:15:20.001Z</time></trkpt><trkpt lat="43.82487615401846" lon="12.333994803843119"><ele>1028.0</ele><time>2026-05-04T08:15:21.001Z</time></trkpt><trkpt lat="43.824877609143115" lon="12.333865291493996"><ele>1028.0</ele><time>2026-05-04T08:15:22.001Z</time></trkpt><trkpt lat="43.82488525820331" lon="12.333768770031586"><ele>1028.0</ele><time>2026-05-04T08:15:23.001Z</time></trkpt><trkpt lat="43.82492360824306" lon="12.33362750626565"><ele>1028.0</ele><time>2026-05-04T08:15:25.001Z</time></trkpt><trkpt lat="43.82495514859616" lon="12.333550672660708"><ele>1028.0</ele><time>2026-05-04T08:15:26.001Z</time></trkpt><trkpt lat="43.82500078791558" lon="12.333482077387583"><ele>1029.5</ele><time>2026-05-04T08:15:27.001Z</time></trkpt><trkpt lat="43.82504640420154" lon="12.333415051328137"><ele>1031.0</ele><time>2026-05-04T08:15:28.001Z</time></trkpt><trkpt lat="43.82508514462821" lon="12.33333841958103"><ele>1032.5</ele><time>2026-05-04T08:15:29.001Z</time></trkpt><trkpt lat="43.82510953671005" lon="12.333249436419734"><ele>1034.0</ele><time>2026-05-04T08:15:30.001Z</time></trkpt><trkpt lat="43.825129618727864" lon="12.333158565947453"><ele>1035.5</ele><time>2026-05-04T08:15:31.001Z</time></trkpt><trkpt lat="43.825188635907764" lon="12.332998996596604"><ele>1037.0</ele><time>2026-05-04T08:15:33.001Z</time></trkpt><trkpt lat="43.82527000868321" lon="12.33291683512445"><ele>1037.0</ele><time>2026-05-04T08:15:35.001Z</time></trkpt><trkpt lat="43.82536645521234" lon="12.332844543354954"><ele>1037.0</ele><time>2026-05-04T08:15:37.001Z</time></trkpt><trkpt lat="43.825393374664934" lon="12.332710467668242"><ele>1037.0</ele><time>2026-05-04T08:15:39.001Z</time></trkpt><trkpt lat="43.825406918763" lon="12.332588363266646"><ele>1037.0</ele><time>2026-05-04T08:15:41.001Z</time></trkpt><trkpt lat="43.825456054369305" lon="12.332485415249165"><ele>1037.0</ele><time>2026-05-04T08:15:43.001Z</time></trkpt><trkpt lat="43.82549220093163" lon="12.332409205103389"><ele>1037.0</ele><time>2026-05-04T08:15:44.001Z</time></trkpt><trkpt lat="43.82555372456202" lon="12.332284071487514"><ele>1037.0</ele><time>2026-05-04T08:15:46.001Z</time></trkpt><trkpt lat="43.825596602240566" lon="12.332184489372406"><ele>1037.0</ele><time>2026-05-04T08:15:48.001Z</time></trkpt><trkpt lat="43.825616326457045" lon="12.332066342901056"><ele>1037.0</ele><time>2026-05-04T08:15:50.001Z</time></trkpt><trkpt lat="43.825619851244234" lon="12.331910832077062"><ele>1037.0</ele><time>2026-05-04T08:15:52.001Z</time></trkpt><trkpt lat="43.82564775069107" lon="12.331764829188895"><ele>1038.6666666666667</ele><time>2026-05-04T08:15:54.002Z</time></trkpt><trkpt lat="43.8256754920308" lon="12.331655136310879"><ele>1040.3333333333335</ele><time>2026-05-04T08:15:56.002Z</time></trkpt><trkpt lat="43.825719367216806" lon="12.33153507001299"><ele>1042.0</ele><time>2026-05-04T08:15:59.002Z</time></trkpt><trkpt lat="43.82573758642751" lon="12.33142738433992"><ele>1043.6666666666667</ele><time>2026-05-04T08:16:01.002Z</time></trkpt><trkpt lat="43.82574383059711" lon="12.331308214542762"><ele>1045.3333333333333</ele><time>2026-05-04T08:16:03.002Z</time></trkpt><trkpt lat="43.82575159062146" lon="12.331210062995238"><ele>1047.0</ele><time>2026-05-04T08:16:05.002Z</time></trkpt><trkpt lat="43.8257648587792" lon="12.331122049046812"><ele>1048.6666666666667</ele><time>2026-05-04T08:16:07.002Z</time></trkpt><trkpt lat="43.825788752195784" lon="12.331041090216372"><ele>1050.3333333333333</ele><time>2026-05-04T08:16:08.002Z</time></trkpt><trkpt lat="43.825807956127925" lon="12.330954378406283"><ele>1052.0</ele><time>2026-05-04T08:16:09.002Z</time></trkpt><trkpt lat="43.825849440311416" lon="12.330807626559388"><ele>1053.6666666666665</ele><time>2026-05-04T08:16:11.002Z</time></trkpt><trkpt lat="43.8258659775099" lon="12.330684625562599"><ele>1055.3333333333333</ele><time>2026-05-04T08:16:13.002Z</time></trkpt><trkpt lat="43.825839933519525" lon="12.330557568335221"><ele>1057.0</ele><time>2026-05-04T08:16:15.002Z</time></trkpt><trkpt lat="43.82579054048548" lon="12.330421918420683"><ele>1060.0</ele><time>2026-05-04T08:16:17.002Z</time></trkpt><trkpt lat="43.82576893376641" lon="12.330275587560772"><ele>1063.0</ele><time>2026-05-04T08:16:19.001Z</time></trkpt><trkpt lat="43.825745439944214" lon="12.33010833894286"><ele>1066.0</ele><time>2026-05-04T08:16:21.001Z</time></trkpt><trkpt lat="43.82573417087062" lon="12.33001452704066"><ele>1069.0</ele><time>2026-05-04T08:16:22.001Z</time></trkpt><trkpt lat="43.82572356143795" lon="12.329917154295996"><ele>1072.0</ele><time>2026-05-04T08:16:23.001Z</time></trkpt><trkpt lat="43.825701665278096" lon="12.329763188641673"><ele>1075.0</ele><time>2026-05-04T08:16:25.001Z</time></trkpt><trkpt lat="43.82568415705143" lon="12.329613330563447"><ele>1078.0</ele><time>2026-05-04T08:16:27.001Z</time></trkpt><trkpt lat="43.82566528836876" lon="12.329461334413642"><ele>1081.0</ele><time>2026-05-04T08:16:29Z</time></trkpt><trkpt lat="43.82566753472843" lon="12.329373282512774"><ele>1084.0</ele><time>2026-05-04T08:16:30Z</time></trkpt><trkpt lat="43.825669345823876" lon="12.329264597297529"><ele>1087.0</ele><time>2026-05-04T08:16:31Z</time></trkpt><trkpt lat="43.82569084542103" lon="12.3291096183984"><ele>1087.0</ele><time>2026-05-04T08:16:33Z</time></trkpt><trkpt lat="43.82575361454477" lon="12.329020970932605"><ele>1087.0</ele><time>2026-05-04T08:16:35Z</time></trkpt><trkpt lat="43.82580922380915" lon="12.328963368350374"><ele>1087.0</ele><time>2026-05-04T08:16:36Z</time></trkpt><trkpt lat="43.82585932603499" lon="12.328896716947854"><ele>1087.0</ele><time>2026-05-04T08:16:37Z</time></trkpt><trkpt lat="43.82593398906435" lon="12.328781319066024"><ele>1087.0</ele><time>2026-05-04T08:16:39Z</time></trkpt><trkpt lat="43.82595894978012" lon="12.328679521281162"><ele>1087.0</ele><time>2026-05-04T08:16:41.001Z</time></trkpt><trkpt lat="43.82600280825004" lon="12.328587570607619"><ele>1086.6666666666665</ele><time>2026-05-04T08:16:43.001Z</time></trkpt><trkpt lat="43.826060290236384" lon="12.328545101621312"><ele>1086.3333333333333</ele><time>2026-05-04T08:16:55.001Z</time></trkpt><trkpt lat="43.82611853935944" lon="12.328483996339838"><ele>1086.0</ele><time>2026-05-04T08:16:57.001Z</time></trkpt><trkpt lat="43.826176024387166" lon="12.32838799383801"><ele>1085.6666666666667</ele><time>2026-05-04T08:16:59.001Z</time></trkpt><trkpt lat="43.82626333190821" lon="12.328270350377572"><ele>1085.3333333333335</ele><time>2026-05-04T08:17:01.001Z</time></trkpt><trkpt lat="43.826336854601976" lon="12.328202136119577"><ele>1085.0</ele><time>2026-05-04T08:17:03.001Z</time></trkpt><trkpt lat="43.82640963520033" lon="12.3281671622447"><ele>1085.0</ele><time>2026-05-04T08:17:10.001Z</time></trkpt><trkpt lat="43.82647972781281" lon="12.328085851488037"><ele>1085.0</ele><time>2026-05-04T08:17:12.001Z</time></trkpt><trkpt lat="43.82648545600527" lon="12.327991735869247"><ele>1085.0</ele><time>2026-05-04T08:17:14.001Z</time></trkpt><trkpt lat="43.82644442280869" lon="12.32789634116515"><ele>1085.0</ele><time>2026-05-04T08:17:16.001Z</time></trkpt><trkpt lat="43.82641544094522" lon="12.327792035091678"><ele>1085.0</ele><time>2026-05-04T08:17:18.001Z</time></trkpt><trkpt lat="43.82644562390534" lon="12.327689457872552"><ele>1085.0</ele><time>2026-05-04T08:17:20.001Z</time></trkpt><trkpt lat="43.82652442243644" lon="12.327620379928403"><ele>1088.4</ele><time>2026-05-04T08:17:22.001Z</time></trkpt><trkpt lat="43.82656190339098" lon="12.327516882024408"><ele>1091.8</ele><time>2026-05-04T08:17:24.001Z</time></trkpt><trkpt lat="43.826537116371384" lon="12.327348031421403"><ele>1095.2</ele><time>2026-05-04T08:17:26.001Z</time></trkpt><trkpt lat="43.82645843521065" lon="12.327254842702038"><ele>1098.6</ele><time>2026-05-04T08:17:28.001Z</time></trkpt><trkpt lat="43.8264698170403" lon="12.327116812178575"><ele>1102.0</ele><time>2026-05-04T08:17:31.001Z</time></trkpt><trkpt lat="43.82652106302737" lon="12.327017896273526"><ele>1100.8333333333333</ele><time>2026-05-04T08:17:33.001Z</time></trkpt><trkpt lat="43.8265888782736" lon="12.326903762859084"><ele>1099.6666666666665</ele><time>2026-05-04T08:17:35.001Z</time></trkpt><trkpt lat="43.82662523583593" lon="12.326801486384365"><ele>1098.5</ele><time>2026-05-04T08:17:37.002Z</time></trkpt><trkpt lat="43.82666839912424" lon="12.32673440186928"><ele>1097.3333333333333</ele><time>2026-05-04T08:17:38.002Z</time></trkpt><trkpt lat="43.82674151903155" lon="12.326612074840526"><ele>1096.1666666666667</ele><time>2026-05-04T08:17:40.002Z</time></trkpt><trkpt lat="43.826781123108866" lon="12.326541890258994"><ele>1095.0</ele><time>2026-05-04T08:17:41.002Z</time></trkpt><trkpt lat="43.826869703644476" lon="12.326435866341438"><ele>1096.0</ele><time>2026-05-04T08:17:43.002Z</time></trkpt><trkpt lat="43.82689291002662" lon="12.326340439554247"><ele>1097.0</ele><time>2026-05-04T08:17:46.002Z</time></trkpt><trkpt lat="43.82684160787103" lon="12.326272428971157"><ele>1098.0</ele><time>2026-05-04T08:17:58.002Z</time></trkpt><trkpt lat="43.826805111939834" lon="12.32618726916557"><ele>1099.0</ele><time>2026-05-04T08:18:00.002Z</time></trkpt><trkpt lat="43.826830263796715" lon="12.326067051029325"><ele>1100.0</ele><time>2026-05-04T08:18:02.002Z</time></trkpt><trkpt lat="43.826758263509745" lon="12.325981746236332"><ele>1101.0</ele><time>2026-05-04T08:18:04.002Z</time></trkpt><trkpt lat="43.82662594446025" lon="12.326078756884108"><ele>1105.8</ele><time>2026-05-04T08:18:06.002Z</time></trkpt><trkpt lat="43.82656795718997" lon="12.326141118830838"><ele>1110.6</ele><time>2026-05-04T08:18:07.002Z</time></trkpt><trkpt lat="43.82646305246069" lon="12.32616002873542"><ele>1115.4</ele><time>2026-05-04T08:18:09.002Z</time></trkpt><trkpt lat="43.82637818536405" lon="12.326081593738964"><ele>1120.2</ele><time>2026-05-04T08:18:11.002Z</time></trkpt><trkpt lat="43.82635138242683" lon="12.325961865983238"><ele>1125.0</ele><time>2026-05-04T08:18:13.002Z</time></trkpt><trkpt lat="43.826337741450075" lon="12.325787957781836"><ele>1125.0</ele><time>2026-05-04T08:18:15.002Z</time></trkpt><trkpt lat="43.82630424082695" lon="12.325679713546185"><ele>1125.0</ele><time>2026-05-04T08:18:16.002Z</time></trkpt><trkpt lat="43.82624383543564" lon="12.325584809746887"><ele>1125.0</ele><time>2026-05-04T08:18:17.002Z</time></trkpt><trkpt lat="43.826176285224534" lon="12.325496466032181"><ele>1125.0</ele><time>2026-05-04T08:18:18.002Z</time></trkpt><trkpt lat="43.82611695417021" lon="12.32538931527472"><ele>1125.0</ele><time>2026-05-04T08:18:19.002Z</time></trkpt><trkpt lat="43.82605346247054" lon="12.325270645656516"><ele>1123.0</ele><time>2026-05-04T08:18:20.002Z</time></trkpt><trkpt lat="43.82598835496427" lon="12.325145781078923"><ele>1121.0</ele><time>2026-05-04T08:18:21.002Z</time></trkpt><trkpt lat="43.8259272675945" lon="12.325017264776722"><ele>1119.0</ele><time>2026-05-04T08:18:22.002Z</time></trkpt><trkpt lat="43.825882899232646" lon="12.324935094736936"><ele>1117.0</ele><time>2026-05-04T08:18:23.002Z</time></trkpt><trkpt lat="43.82583965216286" lon="12.324855831751062"><ele>1115.0</ele><time>2026-05-04T08:18:24.002Z</time></trkpt><trkpt lat="43.825790928310724" lon="12.324762345800691"><ele>1118.1666666666667</ele><time>2026-05-04T08:18:25.002Z</time></trkpt><trkpt lat="43.82575573987634" lon="12.324679503028857"><ele>1121.3333333333335</ele><time>2026-05-04T08:18:26.002Z</time></trkpt><trkpt lat="43.825724983570225" lon="12.32459601442574"><ele>1124.5</ele><time>2026-05-04T08:18:27.002Z</time></trkpt><trkpt lat="43.82567546447924" lon="12.324447048579657"><ele>1127.6666666666667</ele><time>2026-05-04T08:18:29.002Z</time></trkpt><trkpt lat="43.825641168923994" lon="12.324358226636507"><ele>1130.8333333333333</ele><time>2026-05-04T08:18:30.002Z</time></trkpt><trkpt lat="43.82559241818141" lon="12.324261618338731"><ele>1134.0</ele><time>2026-05-04T08:18:32.001Z</time></trkpt><trkpt lat="43.82554283111725" lon="12.324160927268014"><ele>1134.0</ele><time>2026-05-04T08:18:41.001Z</time></trkpt><trkpt lat="43.82547932841089" lon="12.324034228759025"><ele>1134.0</ele><time>2026-05-04T08:18:43.001Z</time></trkpt><trkpt lat="43.825424222804216" lon="12.323880498884408"><ele>1134.0</ele><time>2026-05-04T08:18:45.001Z</time></trkpt><trkpt lat="43.825394019574084" lon="12.323799208136283"><ele>1134.0</ele><time>2026-05-04T08:18:46.001Z</time></trkpt><trkpt lat="43.82542360244065" lon="12.323879813489688"><ele>1134.0</ele><time>2026-05-04T08:24:43Z</time></trkpt><trkpt lat="43.82546038317843" lon="12.323979696677569"><ele>1134.0</ele><time>2026-05-04T08:24:45Z</time></trkpt><trkpt lat="43.82547165040392" lon="12.3240950277983"><ele>1134.0</ele><time>2026-05-04T08:24:48Z</time></trkpt><trkpt lat="43.825415484156714" lon="12.32414257108574"><ele>1134.0</ele><time>2026-05-04T08:24:57Z</time></trkpt><trkpt lat="43.82535183325469" lon="12.324130946171913"><ele>1134.0</ele><time>2026-05-04T08:25:30Z</time></trkpt><trkpt lat="43.82537952205205" lon="12.324233139620905"><ele>1134.0</ele><time>2026-05-04T08:25:34Z</time></trkpt><trkpt lat="43.825467638007396" lon="12.324251943628138"><ele>1134.0</ele><time>2026-05-04T08:25:38Z</time></trkpt><trkpt lat="43.82556473118499" lon="12.32425982578505"><ele>1134.0</ele><time>2026-05-04T08:25:40Z</time></trkpt><trkpt lat="43.825615239724264" lon="12.324339317832607"><ele>1134.0</ele><time>2026-05-04T08:25:42Z</time></trkpt><trkpt lat="43.82566444297258" lon="12.324442320259596"><ele>1134.0</ele><time>2026-05-04T08:25:44Z</time></trkpt><trkpt lat="43.825705418244276" lon="12.324547767961505"><ele>1134.0</ele><time>2026-05-04T08:25:46Z</time></trkpt><trkpt lat="43.825747527713084" lon="12.324654285233903"><ele>1134.0</ele><time>2026-05-04T08:25:48Z</time></trkpt><trkpt lat="43.82578645307467" lon="12.324754218360868"><ele>1134.0</ele><time>2026-05-04T08:25:50Z</time></trkpt><trkpt lat="43.82583611845961" lon="12.324857080290185"><ele>1134.0</ele><time>2026-05-04T08:25:52Z</time></trkpt><trkpt lat="43.825881122700544" lon="12.324941683821807"><ele>1135.6000000000001</ele><time>2026-05-04T08:25:54Z</time></trkpt><trkpt lat="43.82593871853881" lon="12.325036249968155"><ele>1137.2</ele><time>2026-05-04T08:25:56Z</time></trkpt><trkpt lat="43.82599448783237" lon="12.325140159047445"><ele>1138.8000000000002</ele><time>2026-05-04T08:25:58Z</time></trkpt><trkpt lat="43.82605457326431" lon="12.325282030828626"><ele>1140.4</ele><time>2026-05-04T08:26:00Z</time></trkpt><trkpt lat="43.82608844694511" lon="12.325356939305731"><ele>1142.0</ele><time>2026-05-04T08:26:01Z</time></trkpt><trkpt lat="43.826160532807464" lon="12.325495215283846"><ele>1139.1666666666667</ele><time>2026-05-04T08:26:03Z</time></trkpt><trkpt lat="43.82620321307391" lon="12.325560396684866"><ele>1136.3333333333335</ele><time>2026-05-04T08:26:04Z</time></trkpt><trkpt lat="43.826247725274584" lon="12.32562662968547"><ele>1133.5</ele><time>2026-05-04T08:26:05Z</time></trkpt><trkpt lat="43.826304456266236" lon="12.325775473072081"><ele>1130.6666666666667</ele><time>2026-05-04T08:26:07Z</time></trkpt><trkpt lat="43.82633259931207" lon="12.325863347568236"><ele>1127.8333333333333</ele><time>2026-05-04T08:26:08Z</time></trkpt><trkpt lat="43.826346491526145" lon="12.325950304969668"><ele>1125.0</ele><time>2026-05-04T08:26:09Z</time></trkpt><trkpt lat="43.82636656603542" lon="12.326093467231715"><ele>1125.0</ele><time>2026-05-04T08:26:11Z</time></trkpt><trkpt lat="43.82643481250241" lon="12.32613578593568"><ele>1125.0</ele><time>2026-05-04T08:26:13Z</time></trkpt><trkpt lat="43.8265239425411" lon="12.326109011163792"><ele>1125.0</ele><time>2026-05-04T08:26:15.001Z</time></trkpt><trkpt lat="43.826620180750815" lon="12.326052080514875"><ele>1125.0</ele><time>2026-05-04T08:26:17.001Z</time></trkpt><trkpt lat="43.82670102496911" lon="12.325985547459698"><ele>1125.0</ele><time>2026-05-04T08:26:19.001Z</time></trkpt><trkpt lat="43.82676748552057" lon="12.325963039793326"><ele>1125.0</ele><time>2026-05-04T08:26:21.001Z</time></trkpt><trkpt lat="43.826820377455334" lon="12.326047096314634"><ele>1121.0</ele><time>2026-05-04T08:26:23.001Z</time></trkpt><trkpt lat="43.82682021951698" lon="12.326189913366772"><ele>1117.0</ele><time>2026-05-04T08:26:25.001Z</time></trkpt><trkpt lat="43.826846590134096" lon="12.326276772767134"><ele>1113.0</ele><time>2026-05-04T08:26:27.001Z</time></trkpt><trkpt lat="43.826919949855586" lon="12.326269743346034"><ele>1109.0</ele><time>2026-05-04T08:26:29.001Z</time></trkpt><trkpt lat="43.82701526472254" lon="12.326198994659956"><ele>1105.0</ele><time>2026-05-04T08:26:31.001Z</time></trkpt><trkpt lat="43.82707016646878" lon="12.326139606133607"><ele>1101.0</ele><time>2026-05-04T08:26:32.001Z</time></trkpt><trkpt lat="43.8271165720979" lon="12.32607802148982"><ele>1101.0</ele><time>2026-05-04T08:26:33.001Z</time></trkpt><trkpt lat="43.82719228044451" lon="12.325985786386468"><ele>1101.0</ele><time>2026-05-04T08:26:35.001Z</time></trkpt><trkpt lat="43.8272364257319" lon="12.325910781761232"><ele>1101.0</ele><time>2026-05-04T08:26:37.001Z</time></trkpt><trkpt lat="43.82729514262526" lon="12.3258222375287"><ele>1101.0</ele><time>2026-05-04T08:26:39.001Z</time></trkpt><trkpt lat="43.82724813660524" lon="12.325679402673666"><ele>1101.0</ele><time>2026-05-04T08:26:42.001Z</time></trkpt><trkpt lat="43.827223999870526" lon="12.325587729858745"><ele>1101.0</ele><time>2026-05-04T08:26:43.001Z</time></trkpt><trkpt lat="43.82720392791819" lon="12.325492036067525"><ele>1100.7142857142858</ele><time>2026-05-04T08:26:44.001Z</time></trkpt><trkpt lat="43.82716223180261" lon="12.325406372939275"><ele>1100.4285714285713</ele><time>2026-05-04T08:26:45.001Z</time></trkpt><trkpt lat="43.827115748337775" lon="12.325344041566895"><ele>1100.142857142857</ele><time>2026-05-04T08:26:46.001Z</time></trkpt><trkpt lat="43.82705058897503" lon="12.325295100771196"><ele>1099.857142857143</ele><time>2026-05-04T08:26:47.001Z</time></trkpt><trkpt lat="43.826989320031565" lon="12.325226218573999"><ele>1099.5714285714284</ele><time>2026-05-04T08:26:48.001Z</time></trkpt><trkpt lat="43.82693124811646" lon="12.325168920467815"><ele>1099.2857142857142</ele><time>2026-05-04T08:26:48.999Z</time></trkpt><trkpt lat="43.82686242778559" lon="12.325101260832403"><ele>1099.0</ele><time>2026-05-04T08:26:49.999Z</time></trkpt><trkpt lat="43.826799205526456" lon="12.325044370006044"><ele>1100.857142857143</ele><time>2026-05-04T08:26:50.999Z</time></trkpt><trkpt lat="43.826735225521425" lon="12.325007929738032"><ele>1102.7142857142858</ele><time>2026-05-04T08:26:51.999Z</time></trkpt><trkpt lat="43.82667609802089" lon="12.324946803157372"><ele>1104.5714285714284</ele><time>2026-05-04T08:26:52.999Z</time></trkpt><trkpt lat="43.826622643853696" lon="12.324891481194125"><ele>1106.4285714285716</ele><time>2026-05-04T08:26:53.999Z</time></trkpt><trkpt lat="43.826573173038106" lon="12.32483697794932"><ele>1108.2857142857142</ele><time>2026-05-04T08:26:54.999Z</time></trkpt><trkpt lat="43.82650807693249" lon="12.3247824361413"><ele>1110.142857142857</ele><time>2026-05-04T08:26:55.999Z</time></trkpt><trkpt lat="43.82644647880178" lon="12.324711237008241"><ele>1112.0</ele><time>2026-05-04T08:26:56.999Z</time></trkpt><trkpt lat="43.826389451670465" lon="12.32464785762194"><ele>1112.0</ele><time>2026-05-04T08:26:57.999Z</time></trkpt><trkpt lat="43.82634118620931" lon="12.324578021347616"><ele>1112.0</ele><time>2026-05-04T08:26:58.999Z</time></trkpt><trkpt lat="43.826294671065035" lon="12.324498495529095"><ele>1112.0</ele><time>2026-05-04T08:26:59.999Z</time></trkpt><trkpt lat="43.826247523664996" lon="12.324415527650117"><ele>1112.0</ele><time>2026-05-04T08:27:00.999Z</time></trkpt><trkpt lat="43.8262090191925" lon="12.324331486324501"><ele>1112.0</ele><time>2026-05-04T08:27:01.999Z</time></trkpt><trkpt lat="43.826171641998066" lon="12.324234468037007"><ele>1112.0</ele><time>2026-05-04T08:27:02.999Z</time></trkpt><trkpt lat="43.826132371797605" lon="12.324137093095205"><ele>1112.0</ele><time>2026-05-04T08:27:03.999Z</time></trkpt><trkpt lat="43.82610186504856" lon="12.324024006827004"><ele>1112.0</ele><time>2026-05-04T08:27:04.999Z</time></trkpt><trkpt lat="43.82605367584074" lon="12.323917917893079"><ele>1112.0</ele><time>2026-05-04T08:27:05.999Z</time></trkpt><trkpt lat="43.826016397186386" lon="12.323827642518884"><ele>1112.0</ele><time>2026-05-04T08:27:06.999Z</time></trkpt><trkpt lat="43.825988388162116" lon="12.323741723313352"><ele>1112.0</ele><time>2026-05-04T08:27:07.999Z</time></trkpt><trkpt lat="43.8259461416221" lon="12.32367546757052"><ele>1112.0</ele><time>2026-05-04T08:27:08.999Z</time></trkpt><trkpt lat="43.82591416891651" lon="12.323584182776989"><ele>1111.5</ele><time>2026-05-04T08:27:09.999Z</time></trkpt><trkpt lat="43.8258919600775" lon="12.323496072007522"><ele>1111.0</ele><time>2026-05-04T08:27:10.999Z</time></trkpt><trkpt lat="43.82585754258987" lon="12.323396091257717"><ele>1110.5</ele><time>2026-05-04T08:27:11.999Z</time></trkpt><trkpt lat="43.82581156434709" lon="12.323305222404523"><ele>1110.0</ele><time>2026-05-04T08:27:12.999Z</time></trkpt><trkpt lat="43.82577893928321" lon="12.323205788604428"><ele>1109.5</ele><time>2026-05-04T08:27:13.999Z</time></trkpt><trkpt lat="43.82574060580049" lon="12.32311151982489"><ele>1109.0</ele><time>2026-05-04T08:27:14.999Z</time></trkpt><trkpt lat="43.82566894475788" lon="12.322945757025387"><ele>1108.9999999999998</ele><time>2026-05-04T08:27:16.999Z</time></trkpt><trkpt lat="43.82562362461364" lon="12.322868909128518"><ele>1109.0</ele><time>2026-05-04T08:27:17.999Z</time></trkpt><trkpt lat="43.82559004929683" lon="12.322788831727713"><ele>1109.0</ele><time>2026-05-04T08:27:18.999Z</time></trkpt><trkpt lat="43.825557937911796" lon="12.322693191730615"><ele>1109.0</ele><time>2026-05-04T08:27:19.999Z</time></trkpt><trkpt lat="43.82552088008271" lon="12.322611076312667"><ele>1109.0</ele><time>2026-05-04T08:27:20.999Z</time></trkpt><trkpt lat="43.825473352212285" lon="12.322510478461535"><ele>1108.9999999999998</ele><time>2026-05-04T08:27:21.999Z</time></trkpt><trkpt lat="43.82543768050563" lon="12.322420529988085"><ele>1109.0</ele><time>2026-05-04T08:27:22.999Z</time></trkpt><trkpt lat="43.825415026085594" lon="12.322331133927577"><ele>1109.0</ele><time>2026-05-04T08:27:23.999Z</time></trkpt><trkpt lat="43.825403645641124" lon="12.322234309769724"><ele>1109.0</ele><time>2026-05-04T08:27:24.999Z</time></trkpt><trkpt lat="43.82540282143484" lon="12.322135164206522"><ele>1109.0</ele><time>2026-05-04T08:27:25.999Z</time></trkpt><trkpt lat="43.825407228389096" lon="12.322035890091325"><ele>1109.0</ele><time>2026-05-04T08:27:26.999Z</time></trkpt><trkpt lat="43.82539645429403" lon="12.321935580572262"><ele>1109.0</ele><time>2026-05-04T08:27:27.999Z</time></trkpt><trkpt lat="43.82537758041279" lon="12.321821678008654"><ele>1109.0</ele><time>2026-05-04T08:27:29Z</time></trkpt><trkpt lat="43.82536225668931" lon="12.321715616391293"><ele>1108.8571428571427</ele><time>2026-05-04T08:27:30Z</time></trkpt><trkpt lat="43.82534470125556" lon="12.321614870885963"><ele>1108.7142857142858</ele><time>2026-05-04T08:27:31Z</time></trkpt><trkpt lat="43.82533004634742" lon="12.321523810909875"><ele>1108.5714285714284</ele><time>2026-05-04T08:27:32Z</time></trkpt><trkpt lat="43.82531664203481" lon="12.321434092989405"><ele>1108.4285714285713</ele><time>2026-05-04T08:27:33Z</time></trkpt><trkpt lat="43.82529423666224" lon="12.32134378803342"><ele>1108.2857142857142</ele><time>2026-05-04T08:27:34Z</time></trkpt><trkpt lat="43.82526492297341" lon="12.321245580627279"><ele>1108.142857142857</ele><time>2026-05-04T08:27:35Z</time></trkpt><trkpt lat="43.82523259666237" lon="12.321144864797008"><ele>1108.0</ele><time>2026-05-04T08:27:36Z</time></trkpt><trkpt lat="43.82520447058787" lon="12.321059746418204"><ele>1107.2</ele><time>2026-05-04T08:27:37Z</time></trkpt><trkpt lat="43.82516055497526" lon="12.320926745419479"><ele>1106.4</ele><time>2026-05-04T08:27:39Z</time></trkpt><trkpt lat="43.82512346767989" lon="12.32079323686141"><ele>1105.6000000000001</ele><time>2026-05-04T08:27:41Z</time></trkpt><trkpt lat="43.82507027613484" lon="12.320664641999347"><ele>1104.8</ele><time>2026-05-04T08:27:43Z</time></trkpt><trkpt lat="43.82501077365879" lon="12.320517013505862"><ele>1104.0</ele><time>2026-05-04T08:27:45Z</time></trkpt><trkpt lat="43.82498022575039" lon="12.320344098211478"><ele>1102.8</ele><time>2026-05-04T08:27:47Z</time></trkpt><trkpt lat="43.8250135275148" lon="12.320168285276637"><ele>1101.6000000000001</ele><time>2026-05-04T08:27:49Z</time></trkpt><trkpt lat="43.82501831099435" lon="12.320052074270809"><ele>1100.4</ele><time>2026-05-04T08:27:50Z</time></trkpt><trkpt lat="43.82502559274032" lon="12.319960688462904"><ele>1099.2</ele><time>2026-05-04T08:27:51Z</time></trkpt><trkpt lat="43.82503864355153" lon="12.319863552120898"><ele>1098.0</ele><time>2026-05-04T08:27:52Z</time></trkpt><trkpt lat="43.825067011707155" lon="12.319699107274753"><ele>1096.8333333333333</ele><time>2026-05-04T08:27:54Z</time></trkpt><trkpt lat="43.825071392106494" lon="12.319552807014848"><ele>1095.6666666666667</ele><time>2026-05-04T08:27:56Z</time></trkpt><trkpt lat="43.82509848923127" lon="12.319447466083647"><ele>1094.5</ele><time>2026-05-04T08:27:57Z</time></trkpt><trkpt lat="43.825104891387184" lon="12.319351917716467"><ele>1093.3333333333335</ele><time>2026-05-04T08:27:58Z</time></trkpt><trkpt lat="43.82509091726347" lon="12.319254228135133"><ele>1092.1666666666667</ele><time>2026-05-04T08:27:59Z</time></trkpt><trkpt lat="43.825073136103526" lon="12.319111578876443"><ele>1091.0</ele><time>2026-05-04T08:28:01Z</time></trkpt><trkpt lat="43.825113350540065" lon="12.319018436619062"><ele>1087.8</ele><time>2026-05-04T08:28:03Z</time></trkpt><trkpt lat="43.825225652410346" lon="12.319043693909558"><ele>1084.6</ele><time>2026-05-04T08:28:05Z</time></trkpt><trkpt lat="43.82529987508808" lon="12.31907340945528"><ele>1081.4</ele><time>2026-05-04T08:28:06Z</time></trkpt><trkpt lat="43.825381509981995" lon="12.319015614219683"><ele>1078.2</ele><time>2026-05-04T08:28:08Z</time></trkpt><trkpt lat="43.825413683047394" lon="12.318878726759785"><ele>1075.0</ele><time>2026-05-04T08:28:10Z</time></trkpt><trkpt lat="43.82535151260175" lon="12.31875427858467"><ele>1073.8333333333333</ele><time>2026-05-04T08:28:12Z</time></trkpt><trkpt lat="43.8252898222233" lon="12.318701199328418"><ele>1072.6666666666665</ele><time>2026-05-04T08:28:13Z</time></trkpt><trkpt lat="43.825225157283214" lon="12.31864697162336"><ele>1071.5</ele><time>2026-05-04T08:28:14Z</time></trkpt><trkpt lat="43.82517077829495" lon="12.318595741030844"><ele>1070.3333333333333</ele><time>2026-05-04T08:28:15Z</time></trkpt><trkpt lat="43.825111252088746" lon="12.318536248306318"><ele>1069.1666666666667</ele><time>2026-05-04T08:28:16Z</time></trkpt><trkpt lat="43.8250482161266" lon="12.31845600272285"><ele>1068.0</ele><time>2026-05-04T08:28:17Z</time></trkpt><trkpt lat="43.8249790736911" lon="12.318355771384892"><ele>1068.0</ele><time>2026-05-04T08:28:18Z</time></trkpt><trkpt lat="43.82491348277471" lon="12.318281516716523"><ele>1068.0</ele><time>2026-05-04T08:28:19Z</time></trkpt><trkpt lat="43.824851603599996" lon="12.318244399379484"><ele>1068.0</ele><time>2026-05-04T08:28:20Z</time></trkpt><trkpt lat="43.82478237256009" lon="12.318214007798026"><ele>1068.0</ele><time>2026-05-04T08:28:21Z</time></trkpt><trkpt lat="43.82473125608432" lon="12.318148966548726"><ele>1068.0</ele><time>2026-05-04T08:28:22Z</time></trkpt><trkpt lat="43.8246577588417" lon="12.318101436278054"><ele>1068.0</ele><time>2026-05-04T08:28:23Z</time></trkpt><trkpt lat="43.82457224781336" lon="12.318082741170244"><ele>1066.0</ele><time>2026-05-04T08:28:24Z</time></trkpt><trkpt lat="43.82450442120685" lon="12.318045648873687"><ele>1064.0</ele><time>2026-05-04T08:28:25Z</time></trkpt><trkpt lat="43.82444739722394" lon="12.317985443800948"><ele>1062.0</ele><time>2026-05-04T08:28:26Z</time></trkpt><trkpt lat="43.824391445177596" lon="12.317939349767316"><ele>1060.0</ele><time>2026-05-04T08:28:27Z</time></trkpt><trkpt lat="43.824316626716666" lon="12.31785704308144"><ele>1058.0</ele><time>2026-05-04T08:28:28Z</time></trkpt><trkpt lat="43.82424921150843" lon="12.317772223530612"><ele>1056.0</ele><time>2026-05-04T08:28:29Z</time></trkpt><trkpt lat="43.8241815660866" lon="12.317682716304928"><ele>1056.0</ele><time>2026-05-04T08:28:30Z</time></trkpt><trkpt lat="43.8241092938209" lon="12.317574394934889"><ele>1056.0</ele><time>2026-05-04T08:28:31Z</time></trkpt><trkpt lat="43.82404822754406" lon="12.31748333604066"><ele>1056.0</ele><time>2026-05-04T08:28:32Z</time></trkpt><trkpt lat="43.82398438565385" lon="12.31738171674473"><ele>1056.0</ele><time>2026-05-04T08:28:33Z</time></trkpt><trkpt lat="43.82392972487669" lon="12.317286980558068"><ele>1056.0</ele><time>2026-05-04T08:28:34Z</time></trkpt><trkpt lat="43.82388217925583" lon="12.317178322267148"><ele>1053.2</ele><time>2026-05-04T08:28:35Z</time></trkpt><trkpt lat="43.823861298936194" lon="12.317062629714167"><ele>1050.3999999999999</ele><time>2026-05-04T08:28:36Z</time></trkpt><trkpt lat="43.82385825507286" lon="12.316939471334335"><ele>1047.6</ele><time>2026-05-04T08:28:37Z</time></trkpt><trkpt lat="43.82385910832315" lon="12.31680569315069"><ele>1044.8</ele><time>2026-05-04T08:28:38Z</time></trkpt><trkpt lat="43.82386154414212" lon="12.316666022762657"><ele>1042.0</ele><time>2026-05-04T08:28:39Z</time></trkpt><trkpt lat="43.823865287932875" lon="12.31654046785665"><ele>1042.0</ele><time>2026-05-04T08:28:40Z</time></trkpt><trkpt lat="43.82387704822591" lon="12.316421002216297"><ele>1042.0</ele><time>2026-05-04T08:28:41Z</time></trkpt><trkpt lat="43.82388247602251" lon="12.31630010997807"><ele>1042.0</ele><time>2026-05-04T08:28:42Z</time></trkpt><trkpt lat="43.82388276802709" lon="12.316186428692303"><ele>1042.0</ele><time>2026-05-04T08:28:43Z</time></trkpt><trkpt lat="43.82387442264642" lon="12.316077066101561"><ele>1042.0</ele><time>2026-05-04T08:28:44Z</time></trkpt><trkpt lat="43.82387413481211" lon="12.315954177546262"><ele>1042.0</ele><time>2026-05-04T08:28:45Z</time></trkpt><trkpt lat="43.82387485552177" lon="12.315840717134137"><ele>1039.6</ele><time>2026-05-04T08:28:46Z</time></trkpt><trkpt lat="43.82388138654218" lon="12.315749308763397"><ele>1037.2</ele><time>2026-05-04T08:28:47Z</time></trkpt><trkpt lat="43.8238356957879" lon="12.315646180212159"><ele>1034.8</ele><time>2026-05-04T08:28:49Z</time></trkpt><trkpt lat="43.82370829021582" lon="12.315617342048785"><ele>1032.4</ele><time>2026-05-04T08:28:51.001Z</time></trkpt><trkpt lat="43.82362101921172" lon="12.315620106707787"><ele>1030.0</ele><time>2026-05-04T08:28:52.001Z</time></trkpt><trkpt lat="43.823541508805775" lon="12.315624228919503"><ele>1030.1666666666665</ele><time>2026-05-04T08:28:53.001Z</time></trkpt><trkpt lat="43.82345848426803" lon="12.31558571129355"><ele>1030.3333333333333</ele><time>2026-05-04T08:28:54.001Z</time></trkpt><trkpt lat="43.823388023110994" lon="12.315510235120856"><ele>1030.5</ele><time>2026-05-04T08:28:54.999Z</time></trkpt><trkpt lat="43.82333165157201" lon="12.315415667297058"><ele>1030.6666666666667</ele><time>2026-05-04T08:28:55.999Z</time></trkpt><trkpt lat="43.823280737935384" lon="12.315339224603132"><ele>1030.8333333333335</ele><time>2026-05-04T08:28:56.999Z</time></trkpt><trkpt lat="43.82320800319749" lon="12.315262232514547"><ele>1031.0</ele><time>2026-05-04T08:28:57.999Z</time></trkpt><trkpt lat="43.8231320017875" lon="12.315197610229255"><ele>1031.0</ele><time>2026-05-04T08:28:58.999Z</time></trkpt><trkpt lat="43.823045326697304" lon="12.315136643979727"><ele>1031.0</ele><time>2026-05-04T08:28:59.999Z</time></trkpt><trkpt lat="43.822945942870824" lon="12.315116824392911"><ele>1031.0</ele><time>2026-05-04T08:29:00.999Z</time></trkpt><trkpt lat="43.82281764371413" lon="12.315079299779645"><ele>1031.0</ele><time>2026-05-04T08:29:01.999Z</time></trkpt><trkpt lat="43.82269745419961" lon="12.315063902104056"><ele>1031.0</ele><time>2026-05-04T08:29:02.999Z</time></trkpt><trkpt lat="43.82259612338918" lon="12.31504616506772"><ele>1032.3333333333335</ele><time>2026-05-04T08:29:03.999Z</time></trkpt><trkpt lat="43.82250668652724" lon="12.315037412773526"><ele>1033.6666666666667</ele><time>2026-05-04T08:29:04.999Z</time></trkpt><trkpt lat="43.822418297389106" lon="12.315027271783041"><ele>1035.0</ele><time>2026-05-04T08:29:05.999Z</time></trkpt><trkpt lat="43.822337473806535" lon="12.315014275835171"><ele>1036.3333333333333</ele><time>2026-05-04T08:29:06.999Z</time></trkpt><trkpt lat="43.822251708385714" lon="12.31500192323006"><ele>1037.6666666666665</ele><time>2026-05-04T08:29:07.999Z</time></trkpt><trkpt lat="43.82217758629191" lon="12.315004001462718"><ele>1039.0</ele><time>2026-05-04T08:29:08.999Z</time></trkpt><trkpt lat="43.8221069321734" lon="12.315030173727365"><ele>1039.0</ele><time>2026-05-04T08:29:10Z</time></trkpt><trkpt lat="43.82201420446385" lon="12.315077490949706"><ele>1039.0</ele><time>2026-05-04T08:29:11Z</time></trkpt><trkpt lat="43.82190961763427" lon="12.315115983233335"><ele>1039.0</ele><time>2026-05-04T08:29:12Z</time></trkpt><trkpt lat="43.82182319177398" lon="12.315150814528064"><ele>1039.0</ele><time>2026-05-04T08:29:13Z</time></trkpt><trkpt lat="43.82172955659458" lon="12.315168588570534"><ele>1039.0</ele><time>2026-05-04T08:29:14Z</time></trkpt><trkpt lat="43.82163761358679" lon="12.315166670392701"><ele>1038.5</ele><time>2026-05-04T08:29:15Z</time></trkpt><trkpt lat="43.82155142213321" lon="12.315131934762636"><ele>1038.0</ele><time>2026-05-04T08:29:16Z</time></trkpt><trkpt lat="43.821473806357986" lon="12.315088232807254"><ele>1037.5</ele><time>2026-05-04T08:29:17Z</time></trkpt><trkpt lat="43.82139982073411" lon="12.315030325405624"><ele>1037.0</ele><time>2026-05-04T08:29:18Z</time></trkpt><trkpt lat="43.82130933616751" lon="12.314966739024328"><ele>1036.5</ele><time>2026-05-04T08:29:19Z</time></trkpt><trkpt lat="43.82122221575281" lon="12.314940893862193"><ele>1036.0</ele><time>2026-05-04T08:29:20Z</time></trkpt><trkpt lat="43.821149883837265" lon="12.314918503411539"><ele>1036.0</ele><time>2026-05-04T08:29:21Z</time></trkpt><trkpt lat="43.82106448441285" lon="12.314877853218942"><ele>1036.0</ele><time>2026-05-04T08:29:22Z</time></trkpt><trkpt lat="43.82097201395357" lon="12.314804737091215"><ele>1036.0</ele><time>2026-05-04T08:29:23Z</time></trkpt><trkpt lat="43.820869353041545" lon="12.314717719024392"><ele>1036.0</ele><time>2026-05-04T08:29:24Z</time></trkpt><trkpt lat="43.820781315021385" lon="12.31464579461549"><ele>1036.0</ele><time>2026-05-04T08:29:25Z</time></trkpt><trkpt lat="43.82070298636908" lon="12.31458724484684"><ele>1035.0</ele><time>2026-05-04T08:29:26Z</time></trkpt><trkpt lat="43.82062779923132" lon="12.314508389694849"><ele>1034.0</ele><time>2026-05-04T08:29:27Z</time></trkpt><trkpt lat="43.820555740233175" lon="12.314429525659664"><ele>1033.0</ele><time>2026-05-04T08:29:28Z</time></trkpt><trkpt lat="43.82049062300154" lon="12.314345773714589"><ele>1032.0</ele><time>2026-05-04T08:29:29Z</time></trkpt><trkpt lat="43.8204312000279" lon="12.314250129258333"><ele>1031.0</ele><time>2026-05-04T08:29:30Z</time></trkpt><trkpt lat="43.82037736965447" lon="12.31415717614812"><ele>1031.0</ele><time>2026-05-04T08:29:31Z</time></trkpt><trkpt lat="43.820311258834394" lon="12.314077758158474"><ele>1031.0</ele><time>2026-05-04T08:29:32Z</time></trkpt><trkpt lat="43.820239011492646" lon="12.314014558305308"><ele>1031.0</ele><time>2026-05-04T08:29:33Z</time></trkpt><trkpt lat="43.82015441090079" lon="12.31394528226268"><ele>1031.0</ele><time>2026-05-04T08:29:34Z</time></trkpt><trkpt lat="43.82008178805304" lon="12.313897666559043"><ele>1031.0</ele><time>2026-05-04T08:29:35Z</time></trkpt><trkpt lat="43.819968065716715" lon="12.3138937816553"><ele>1028.2</ele><time>2026-05-04T08:29:37Z</time></trkpt><trkpt lat="43.819888786345416" lon="12.313912630753904"><ele>1025.3999999999999</ele><time>2026-05-04T08:29:38Z</time></trkpt><trkpt lat="43.81979885546316" lon="12.313922787959793"><ele>1022.6</ele><time>2026-05-04T08:29:39Z</time></trkpt><trkpt lat="43.819712038834744" lon="12.313881735794581"><ele>1019.8</ele><time>2026-05-04T08:29:40Z</time></trkpt><trkpt lat="43.81964004298391" lon="12.31378420740614"><ele>1017.0</ele><time>2026-05-04T08:29:41Z</time></trkpt><trkpt lat="43.81955083803512" lon="12.313671267571616"><ele>1015.5</ele><time>2026-05-04T08:29:42Z</time></trkpt><trkpt lat="43.81946775788256" lon="12.313593583490837"><ele>1014.0</ele><time>2026-05-04T08:29:43Z</time></trkpt><trkpt lat="43.81937964920252" lon="12.31353328455079"><ele>1012.5</ele><time>2026-05-04T08:29:44Z</time></trkpt><trkpt lat="43.81931164181164" lon="12.313477120896447"><ele>1011.0</ele><time>2026-05-04T08:29:45Z</time></trkpt><trkpt lat="43.81926245145778" lon="12.313395443062042"><ele>1009.5</ele><time>2026-05-04T08:29:46Z</time></trkpt><trkpt lat="43.819228829442864" lon="12.313273676996548"><ele>1008.0</ele><time>2026-05-04T08:29:47Z</time></trkpt><trkpt lat="43.819217166718154" lon="12.313158180439904"><ele>1006.8333333333334</ele><time>2026-05-04T08:29:48Z</time></trkpt><trkpt lat="43.81913426394667" lon="12.313072721292562"><ele>1005.6666666666667</ele><time>2026-05-04T08:29:50Z</time></trkpt><trkpt lat="43.819076682227475" lon="12.313017251242165"><ele>1004.5</ele><time>2026-05-04T08:29:51Z</time></trkpt><trkpt lat="43.81900709599909" lon="12.312967437123527"><ele>1003.3333333333334</ele><time>2026-05-04T08:29:52Z</time></trkpt><trkpt lat="43.8189547000893" lon="12.312918400857951"><ele>1002.1666666666667</ele><time>2026-05-04T08:29:53Z</time></trkpt><trkpt lat="43.81890276941126" lon="12.312865648309959"><ele>1001.0</ele><time>2026-05-04T08:29:54Z</time></trkpt><trkpt lat="43.81884620304064" lon="12.312714172781922"><ele>997.8333333333334</ele><time>2026-05-04T08:29:56Z</time></trkpt><trkpt lat="43.818824630301656" lon="12.31261963825327"><ele>994.6666666666667</ele><time>2026-05-04T08:29:57Z</time></trkpt><trkpt lat="43.81883457678703" lon="12.312512961326421"><ele>991.5</ele><time>2026-05-04T08:29:58Z</time></trkpt><trkpt lat="43.81886648236872" lon="12.312406442652563"><ele>988.3333333333333</ele><time>2026-05-04T08:29:59Z</time></trkpt><trkpt lat="43.818908631864005" lon="12.312308498472223"><ele>985.1666666666666</ele><time>2026-05-04T08:30:00Z</time></trkpt><trkpt lat="43.81895761018794" lon="12.312209904316484"><ele>982.0</ele><time>2026-05-04T08:30:01Z</time></trkpt><trkpt lat="43.818998432562104" lon="12.312099253089265"><ele>978.8</ele><time>2026-05-04T08:30:02Z</time></trkpt><trkpt lat="43.81902129216823" lon="12.311993335828653"><ele>975.6</ele><time>2026-05-04T08:30:03Z</time></trkpt><trkpt lat="43.81900954858481" lon="12.31187121219764"><ele>972.3999999999999</ele><time>2026-05-04T08:30:04Z</time></trkpt><trkpt lat="43.818973274946934" lon="12.311743669865695"><ele>969.1999999999999</ele><time>2026-05-04T08:30:05Z</time></trkpt><trkpt lat="43.81891932879702" lon="12.311604594724837"><ele>966.0</ele><time>2026-05-04T08:30:06Z</time></trkpt><trkpt lat="43.818851023714906" lon="12.311451648368013"><ele>963.4</ele><time>2026-05-04T08:30:07Z</time></trkpt><trkpt lat="43.81877856921233" lon="12.311337870479992"><ele>960.8</ele><time>2026-05-04T08:30:08Z</time></trkpt><trkpt lat="43.818711060482705" lon="12.311210878353316"><ele>958.1999999999999</ele><time>2026-05-04T08:30:09Z</time></trkpt><trkpt lat="43.818685263931776" lon="12.311124051666486"><ele>955.5999999999999</ele><time>2026-05-04T08:30:10Z</time></trkpt><trkpt lat="43.8186424006154" lon="12.310960755485024"><ele>953.0</ele><time>2026-05-04T08:30:12Z</time></trkpt><trkpt lat="43.81862612323081" lon="12.310851474218785"><ele>953.0000000000001</ele><time>2026-05-04T08:30:13Z</time></trkpt><trkpt lat="43.8186323147364" lon="12.310750937798925"><ele>953.0</ele><time>2026-05-04T08:30:14Z</time></trkpt><trkpt lat="43.81869572560208" lon="12.310654431057406"><ele>953.0</ele><time>2026-05-04T08:30:16Z</time></trkpt><trkpt lat="43.818761739126934" lon="12.310650382031445"><ele>953.0</ele><time>2026-05-04T08:30:18Z</time></trkpt><trkpt lat="43.81884083324718" lon="12.31068309815209"><ele>953.0000000000001</ele><time>2026-05-04T08:30:20Z</time></trkpt><trkpt lat="43.818899367178034" lon="12.31072530287597"><ele>953.0</ele><time>2026-05-04T08:30:21Z</time></trkpt><trkpt lat="43.818969877871844" lon="12.310785882961467"><ele>953.0</ele><time>2026-05-04T08:30:22Z</time></trkpt><trkpt lat="43.81903162331644" lon="12.310835397044194"><ele>953.0</ele><time>2026-05-04T08:30:23.001Z</time></trkpt><trkpt lat="43.81908429671294" lon="12.310888289332125"><ele>953.0</ele><time>2026-05-04T08:30:24.001Z</time></trkpt><trkpt lat="43.81913114123255" lon="12.310964646515343"><ele>953.0</ele><time>2026-05-04T08:30:25.001Z</time></trkpt><trkpt lat="43.81917049257596" lon="12.311063709695432"><ele>953.0</ele><time>2026-05-04T08:30:26.001Z</time></trkpt><trkpt lat="43.819212331867426" lon="12.31115751770002"><ele>953.0</ele><time>2026-05-04T08:30:27.001Z</time></trkpt><trkpt lat="43.819254499856854" lon="12.311236793874492"><ele>953.0</ele><time>2026-05-04T08:30:28.001Z</time></trkpt><trkpt lat="43.81930334547017" lon="12.311309402888115"><ele>951.5999999999999</ele><time>2026-05-04T08:30:29.001Z</time></trkpt><trkpt lat="43.8194040000377" lon="12.311368958128234"><ele>950.1999999999999</ele><time>2026-05-04T08:30:31.001Z</time></trkpt><trkpt lat="43.819467491522204" lon="12.311349618406528"><ele>948.8</ele><time>2026-05-04T08:30:32.001Z</time></trkpt><trkpt lat="43.819558443814906" lon="12.311225190488967"><ele>947.4</ele><time>2026-05-04T08:30:34.001Z</time></trkpt><trkpt lat="43.819622820883936" lon="12.311119232427542"><ele>946.0</ele><time>2026-05-04T08:30:35.001Z</time></trkpt><trkpt lat="43.81970780085608" lon="12.31099830696486"><ele>946.0</ele><time>2026-05-04T08:30:36.001Z</time></trkpt><trkpt lat="43.81977439375248" lon="12.31089588469941"><ele>945.9999999999999</ele><time>2026-05-04T08:30:37.001Z</time></trkpt><trkpt lat="43.81983265496878" lon="12.31078279257491"><ele>945.9999999999999</ele><time>2026-05-04T08:30:38.001Z</time></trkpt><trkpt lat="43.81988895413307" lon="12.31067463277249"><ele>946.0</ele><time>2026-05-04T08:30:39.001Z</time></trkpt><trkpt lat="43.81993867647702" lon="12.31059436937714"><ele>946.0</ele><time>2026-05-04T08:30:40.001Z</time></trkpt><trkpt lat="43.819992405702344" lon="12.310515690126076"><ele>940.8</ele><time>2026-05-04T08:30:41.001Z</time></trkpt><trkpt lat="43.820038146637415" lon="12.310455201379748"><ele>935.5999999999999</ele><time>2026-05-04T08:30:42.001Z</time></trkpt><trkpt lat="43.82012330544661" lon="12.310371723763037"><ele>930.4</ele><time>2026-05-04T08:30:44.001Z</time></trkpt><trkpt lat="43.820233104458154" lon="12.310349800810286"><ele>925.2</ele><time>2026-05-04T08:30:46.001Z</time></trkpt><trkpt lat="43.82034307554136" lon="12.310280167166075"><ele>920.0</ele><time>2026-05-04T08:30:48.001Z</time></trkpt><trkpt lat="43.820427626635094" lon="12.310187446528696"><ele>920.0000000000001</ele><time>2026-05-04T08:30:50.001Z</time></trkpt><trkpt lat="43.82048564128602" lon="12.310093806512125"><ele>920.0</ele><time>2026-05-04T08:30:52.001Z</time></trkpt><trkpt lat="43.82051821568334" lon="12.30998336169679"><ele>920.0</ele><time>2026-05-04T08:30:54.001Z</time></trkpt><trkpt lat="43.82058435007474" lon="12.30992301026375"><ele>920.0</ele><time>2026-05-04T08:30:57.001Z</time></trkpt><trkpt lat="43.820660965010624" lon="12.309885108721542"><ele>920.0000000000001</ele><time>2026-05-04T08:31:00.001Z</time></trkpt><trkpt lat="43.820763725170984" lon="12.309841957194497"><ele>920.0</ele><time>2026-05-04T08:31:02Z</time></trkpt><trkpt lat="43.82087748081442" lon="12.309811941003321"><ele>920.0000000000001</ele><time>2026-05-04T08:31:04Z</time></trkpt><trkpt lat="43.820943872202115" lon="12.309794064385947"><ele>920.0</ele><time>2026-05-04T08:31:05Z</time></trkpt><trkpt lat="43.82104574438481" lon="12.309742737133377"><ele>920.0</ele><time>2026-05-04T08:31:07Z</time></trkpt><trkpt lat="43.82111847841835" lon="12.309689409003624"><ele>920.0</ele><time>2026-05-04T08:31:09Z</time></trkpt><trkpt lat="43.821160731911796" lon="12.309620601232847"><ele>920.0000000000001</ele><time>2026-05-04T08:31:18Z</time></trkpt><trkpt lat="43.82125397986103" lon="12.309572448244833"><ele>920.0</ele><time>2026-05-04T08:31:33Z</time></trkpt><trkpt lat="43.82134020108128" lon="12.30954860228402"><ele>915.5000000000001</ele><time>2026-05-04T08:31:35Z</time></trkpt><trkpt lat="43.82141091231686" lon="12.309523977887881"><ele>911.0</ele><time>2026-05-04T08:31:37Z</time></trkpt><trkpt lat="43.82147584009935" lon="12.309492305248378"><ele>906.5</ele><time>2026-05-04T08:31:42Z</time></trkpt><trkpt lat="43.82141657774041" lon="12.309407090011677"><ele>902.0</ele><time>2026-05-04T08:31:45Z</time></trkpt><trkpt lat="43.82132898581597" lon="12.30936308479718"><ele>897.5000000000001</ele><time>2026-05-04T08:31:47Z</time></trkpt><trkpt lat="43.8212334143385" lon="12.309249903071763"><ele>893.0</ele><time>2026-05-04T08:31:49.001Z</time></trkpt><trkpt lat="43.82115531271965" lon="12.30912835800683"><ele>893.0000000000001</ele><time>2026-05-04T08:31:51.001Z</time></trkpt><trkpt lat="43.82107830037822" lon="12.309078558789741"><ele>893.0</ele><time>2026-05-04T08:31:53.001Z</time></trkpt><trkpt lat="43.820984686754834" lon="12.309054590216336"><ele>893.0</ele><time>2026-05-04T08:31:55.001Z</time></trkpt><trkpt lat="43.82093135695321" lon="12.308979337908312"><ele>893.0</ele><time>2026-05-04T08:32:07.001Z</time></trkpt><trkpt lat="43.82096050290879" lon="12.308889061740047"><ele>893.0000000000001</ele><time>2026-05-04T08:32:09.001Z</time></trkpt><trkpt lat="43.82097466895996" lon="12.308791064920774"><ele>893.0</ele><time>2026-05-04T08:32:12.001Z</time></trkpt><trkpt lat="43.820985253362736" lon="12.308686295210908"><ele>889.6666666666667</ele><time>2026-05-04T08:32:15.001Z</time></trkpt><trkpt lat="43.82098906307353" lon="12.30857841698214"><ele>886.3333333333334</ele><time>2026-05-04T08:32:18.001Z</time></trkpt><trkpt lat="43.82099478427338" lon="12.308480722492344"><ele>883.0</ele><time>2026-05-04T08:32:20.001Z</time></trkpt><trkpt lat="43.82101063107195" lon="12.308368921076031"><ele>879.6666666666667</ele><time>2026-05-04T08:32:23.001Z</time></trkpt><trkpt lat="43.82105018653982" lon="12.30827445626295"><ele>876.3333333333334</ele><time>2026-05-04T08:32:26.001Z</time></trkpt><trkpt lat="43.82106206401739" lon="12.3081818663106"><ele>873.0</ele><time>2026-05-04T08:32:28.001Z</time></trkpt><trkpt lat="43.821100576754255" lon="12.308067844983622"><ele>869.8333333333334</ele><time>2026-05-04T08:32:31.001Z</time></trkpt><trkpt lat="43.82115188174952" lon="12.307984299463767"><ele>866.6666666666667</ele><time>2026-05-04T08:32:33.001Z</time></trkpt><trkpt lat="43.82119321936258" lon="12.307908879457534"><ele>863.5</ele><time>2026-05-04T08:32:35.001Z</time></trkpt><trkpt lat="43.82127411982525" lon="12.307832257471862"><ele>860.3333333333334</ele><time>2026-05-04T08:32:38.001Z</time></trkpt><trkpt lat="43.82135227054136" lon="12.30778258118628"><ele>857.1666666666667</ele><time>2026-05-04T08:32:41.001Z</time></trkpt><trkpt lat="43.821429225284874" lon="12.307722416056674"><ele>854.0</ele><time>2026-05-04T08:32:43.001Z</time></trkpt><trkpt lat="43.82150533169706" lon="12.307679949411542"><ele>854.0</ele><time>2026-05-04T08:32:45.001Z</time></trkpt><trkpt lat="43.82159892997161" lon="12.307619994691617"><ele>854.0000000000001</ele><time>2026-05-04T08:32:47.001Z</time></trkpt><trkpt lat="43.821681639963224" lon="12.307583308617097"><ele>854.0000000000001</ele><time>2026-05-04T08:32:49.001Z</time></trkpt><trkpt lat="43.82177886841575" lon="12.307536333051052"><ele>854.0</ele><time>2026-05-04T08:32:51.001Z</time></trkpt><trkpt lat="43.821871742424754" lon="12.30748955000726"><ele>854.0</ele><time>2026-05-04T08:32:53.001Z</time></trkpt><trkpt lat="43.82197285134829" lon="12.30745807993378"><ele>852.4000000000001</ele><time>2026-05-04T08:32:55.001Z</time></trkpt><trkpt lat="43.82205419074597" lon="12.307399227666398"><ele>850.8000000000001</ele><time>2026-05-04T08:32:57.001Z</time></trkpt><trkpt lat="43.82212742950722" lon="12.307347456137645"><ele>849.2</ele><time>2026-05-04T08:32:59.001Z</time></trkpt><trkpt lat="43.82222152562963" lon="12.307283577028628"><ele>847.5999999999999</ele><time>2026-05-04T08:33:02.001Z</time></trkpt><trkpt lat="43.822317660580765" lon="12.307270808806326"><ele>846.0</ele><time>2026-05-04T08:33:05.001Z</time></trkpt><trkpt lat="43.82239637828032" lon="12.307242006060157"><ele>843.5</ele><time>2026-05-04T08:33:07.001Z</time></trkpt><trkpt lat="43.82249122091581" lon="12.307162085569043"><ele>841.0</ele><time>2026-05-04T08:33:09.001Z</time></trkpt><trkpt lat="43.82254960565352" lon="12.307116765045162"><ele>838.5</ele><time>2026-05-04T08:33:10.001Z</time></trkpt><trkpt lat="43.82260427113605" lon="12.307067229890858"><ele>836.0</ele><time>2026-05-04T08:33:11.001Z</time></trkpt><trkpt lat="43.82265602419009" lon="12.307015788074896"><ele>833.5</ele><time>2026-05-04T08:33:12.001Z</time></trkpt><trkpt lat="43.822711135520564" lon="12.30695712768116"><ele>831.0</ele><time>2026-05-04T08:33:13.001Z</time></trkpt><trkpt lat="43.82279217533457" lon="12.306855803284403"><ele>830.0</ele><time>2026-05-04T08:33:15.001Z</time></trkpt><trkpt lat="43.82285791431218" lon="12.306725873794024"><ele>829.0</ele><time>2026-05-04T08:33:17.001Z</time></trkpt><trkpt lat="43.822929373820585" lon="12.306652135409525"><ele>828.0</ele><time>2026-05-04T08:33:19.001Z</time></trkpt><trkpt lat="43.82301620285402" lon="12.30656037119147"><ele>827.0</ele><time>2026-05-04T08:33:21.001Z</time></trkpt><trkpt lat="43.8230848979381" lon="12.306471085489875"><ele>826.0</ele><time>2026-05-04T08:33:22.001Z</time></trkpt><trkpt lat="43.823151365945776" lon="12.30637637333497"><ele>822.4</ele><time>2026-05-04T08:33:23.001Z</time></trkpt><trkpt lat="43.82319853242825" lon="12.306292502228356"><ele>818.8</ele><time>2026-05-04T08:33:24.001Z</time></trkpt><trkpt lat="43.82328150316996" lon="12.306209809355128"><ele>815.1999999999999</ele><time>2026-05-04T08:33:26.001Z</time></trkpt><trkpt lat="43.82338923774711" lon="12.306099291535189"><ele>811.5999999999999</ele><time>2026-05-04T08:33:28.001Z</time></trkpt><trkpt lat="43.82345735700262" lon="12.306060597099433"><ele>808.0</ele><time>2026-05-04T08:33:29.001Z</time></trkpt><trkpt lat="43.8235246236964" lon="12.306031930170152"><ele>807.3333333333333</ele><time>2026-05-04T08:33:30.001Z</time></trkpt><trkpt lat="43.82358867322839" lon="12.305997972871504"><ele>806.6666666666666</ele><time>2026-05-04T08:33:31.001Z</time></trkpt><trkpt lat="43.823654961882" lon="12.30596293967318"><ele>806.0</ele><time>2026-05-04T08:33:32.001Z</time></trkpt><trkpt lat="43.823749507623255" lon="12.30588153073608"><ele>805.3333333333333</ele><time>2026-05-04T08:33:34.001Z</time></trkpt><trkpt lat="43.82381928102459" lon="12.30579354851395"><ele>804.6666666666666</ele><time>2026-05-04T08:33:36.001Z</time></trkpt><trkpt lat="43.82383478765951" lon="12.305691993980558"><ele>804.0</ele><time>2026-05-04T08:33:38.001Z</time></trkpt><trkpt lat="43.82378611300928" lon="12.305557273793651"><ele>802.8333333333334</ele><time>2026-05-04T08:33:40.001Z</time></trkpt><trkpt lat="43.82374172055111" lon="12.305490904522877"><ele>801.6666666666667</ele><time>2026-05-04T08:33:41.001Z</time></trkpt><trkpt lat="43.82369435095194" lon="12.305427312707668"><ele>800.5</ele><time>2026-05-04T08:33:42.001Z</time></trkpt><trkpt lat="43.8236563512098" lon="12.305336244361811"><ele>799.3333333333334</ele><time>2026-05-04T08:33:43.001Z</time></trkpt><trkpt lat="43.823603081461805" lon="12.305273530947517"><ele>798.1666666666667</ele><time>2026-05-04T08:33:44.001Z</time></trkpt><trkpt lat="43.82351056181777" lon="12.30515291183854"><ele>797.0</ele><time>2026-05-04T08:33:46.001Z</time></trkpt><trkpt lat="43.82346592462972" lon="12.305086050429926"><ele>797.0</ele><time>2026-05-04T08:33:47.001Z</time></trkpt><trkpt lat="43.82341808785726" lon="12.304991084772217"><ele>797.0</ele><time>2026-05-04T08:33:48.001Z</time></trkpt><trkpt lat="43.82337361685282" lon="12.304877533624945"><ele>797.0</ele><time>2026-05-04T08:33:49.001Z</time></trkpt><trkpt lat="43.82334527111327" lon="12.304761014979613"><ele>797.0</ele><time>2026-05-04T08:33:50.001Z</time></trkpt><trkpt lat="43.823339348292755" lon="12.30463583330283"><ele>797.0</ele><time>2026-05-04T08:33:51.001Z</time></trkpt><trkpt lat="43.823333725131135" lon="12.304499232523938"><ele>794.6</ele><time>2026-05-04T08:33:52.001Z</time></trkpt><trkpt lat="43.82331470108454" lon="12.304369926316074"><ele>792.2</ele><time>2026-05-04T08:33:53.001Z</time></trkpt><trkpt lat="43.82332794828701" lon="12.304242700852013"><ele>789.8</ele><time>2026-05-04T08:33:54.001Z</time></trkpt><trkpt lat="43.8233213780532" lon="12.304117867581857"><ele>787.4</ele><time>2026-05-04T08:33:55.001Z</time></trkpt><trkpt lat="43.823350353026875" lon="12.303983264515603"><ele>785.0</ele><time>2026-05-04T08:33:56.001Z</time></trkpt><trkpt lat="43.82338269844937" lon="12.303850559031817"><ele>783.2</ele><time>2026-05-04T08:33:57.001Z</time></trkpt><trkpt lat="43.82340876438738" lon="12.30371795442163"><ele>781.4</ele><time>2026-05-04T08:33:58.001Z</time></trkpt><trkpt lat="43.823423727473724" lon="12.303593439449102"><ele>779.5999999999999</ele><time>2026-05-04T08:33:59.001Z</time></trkpt><trkpt lat="43.82342234533632" lon="12.303472448101571"><ele>777.8</ele><time>2026-05-04T08:34:00.001Z</time></trkpt><trkpt lat="43.823396793674355" lon="12.303339075075609"><ele>776.0</ele><time>2026-05-04T08:34:01.001Z</time></trkpt><trkpt lat="43.82335002321855" lon="12.303195874393179"><ele>774.8</ele><time>2026-05-04T08:34:02.001Z</time></trkpt><trkpt lat="43.82332816123355" lon="12.303049152920204"><ele>773.5999999999999</ele><time>2026-05-04T08:34:03.001Z</time></trkpt><trkpt lat="43.82330556666179" lon="12.302902289629458"><ele>772.4</ele><time>2026-05-04T08:34:04.001Z</time></trkpt><trkpt lat="43.8232761269137" lon="12.302748954594364"><ele>771.2</ele><time>2026-05-04T08:34:05.001Z</time></trkpt><trkpt lat="43.82326739314865" lon="12.302604945195991"><ele>770.0</ele><time>2026-05-04T08:34:06.001Z</time></trkpt><trkpt lat="43.823274687127366" lon="12.302452548868064"><ele>770.0</ele><time>2026-05-04T08:34:07.001Z</time></trkpt><trkpt lat="43.82327648196103" lon="12.302329924623946"><ele>770.0</ele><time>2026-05-04T08:34:08.001Z</time></trkpt><trkpt lat="43.823264119069265" lon="12.302228609424198"><ele>770.0</ele><time>2026-05-04T08:34:09.001Z</time></trkpt><trkpt lat="43.82327117773826" lon="12.302115052678658"><ele>770.0</ele><time>2026-05-04T08:34:11.001Z</time></trkpt><trkpt lat="43.82328359725949" lon="12.302021382133892"><ele>770.0</ele><time>2026-05-04T08:34:14.001Z</time></trkpt><trkpt lat="43.82314771087583" lon="12.302008619025548"><ele>768.8333333333334</ele><time>2026-05-04T08:34:15.001Z</time></trkpt><trkpt lat="43.82302323551912" lon="12.301973259684877"><ele>767.6666666666667</ele><time>2026-05-04T08:34:17.001Z</time></trkpt><trkpt lat="43.822956148476315" lon="12.301985426098248"><ele>766.5</ele><time>2026-05-04T08:34:18.001Z</time></trkpt><trkpt lat="43.8229029675332" lon="12.302034639726514"><ele>765.3333333333334</ele><time>2026-05-04T08:34:19.001Z</time></trkpt><trkpt lat="43.82283749791047" lon="12.302056502273897"><ele>764.1666666666667</ele><time>2026-05-04T08:34:20.001Z</time></trkpt><trkpt lat="43.822767365138574" lon="12.302058970807058"><ele>763.0</ele><time>2026-05-04T08:34:21.001Z</time></trkpt><trkpt lat="43.8226992809749" lon="12.302038359835285"><ele>762.8333333333334</ele><time>2026-05-04T08:34:22.001Z</time></trkpt><trkpt lat="43.822643220371944" lon="12.30208055984182"><ele>762.6666666666667</ele><time>2026-05-04T08:34:23.001Z</time></trkpt><trkpt lat="43.822579428058475" lon="12.302103505767302"><ele>762.5</ele><time>2026-05-04T08:34:24.001Z</time></trkpt><trkpt lat="43.822514773259385" lon="12.3021267619246"><ele>762.3333333333334</ele><time>2026-05-04T08:34:25.001Z</time></trkpt><trkpt lat="43.8224269711425" lon="12.302023681990695"><ele>762.1666666666666</ele><time>2026-05-04T08:34:26.001Z</time></trkpt><trkpt lat="43.82235644362546" lon="12.302043204496462"><ele>762.0</ele><time>2026-05-04T08:34:27.001Z</time></trkpt><trkpt lat="43.82228006397144" lon="12.302071519187177"><ele>762.0</ele><time>2026-05-04T08:34:28.001Z</time></trkpt><trkpt lat="43.82219194001222" lon="12.3021050596776"><ele>762.0</ele><time>2026-05-04T08:34:29.001Z</time></trkpt><trkpt lat="43.822097410080005" lon="12.302146716281117"><ele>762.0</ele><time>2026-05-04T08:34:30.001Z</time></trkpt><trkpt lat="43.82201427299364" lon="12.302191081005446"><ele>762.0</ele><time>2026-05-04T08:34:31.001Z</time></trkpt><trkpt lat="43.82192614645613" lon="12.302240111215514"><ele>762.0</ele><time>2026-05-04T08:34:32.001Z</time></trkpt><trkpt lat="43.82185949349827" lon="12.302287980657812"><ele>763.0</ele><time>2026-05-04T08:34:33.001Z</time></trkpt><trkpt lat="43.82177659735197" lon="12.30233313304719"><ele>764.0</ele><time>2026-05-04T08:34:34.001Z</time></trkpt><trkpt lat="43.82170424184993" lon="12.30236938971084"><ele>765.0</ele><time>2026-05-04T08:34:35.001Z</time></trkpt><trkpt lat="43.82162193504804" lon="12.302417576479753"><ele>766.0</ele><time>2026-05-04T08:34:36.001Z</time></trkpt><trkpt lat="43.821549695179165" lon="12.302463607494815"><ele>767.0</ele><time>2026-05-04T08:34:37.001Z</time></trkpt><trkpt lat="43.82146737657984" lon="12.30249589281828"><ele>768.0</ele><time>2026-05-04T08:34:38.001Z</time></trkpt><trkpt lat="43.8213972154367" lon="12.302508646643611"><ele>768.0</ele><time>2026-05-04T08:34:39.001Z</time></trkpt><trkpt lat="43.8213153346641" lon="12.302511955169717"><ele>768.0</ele><time>2026-05-04T08:34:40.001Z</time></trkpt><trkpt lat="43.821235623765254" lon="12.302488481584046"><ele>768.0</ele><time>2026-05-04T08:34:41.001Z</time></trkpt><trkpt lat="43.82116031567834" lon="12.30245537694544"><ele>768.0</ele><time>2026-05-04T08:34:42.001Z</time></trkpt><trkpt lat="43.821077715613846" lon="12.302401627549274"><ele>768.0</ele><time>2026-05-04T08:34:43.001Z</time></trkpt><trkpt lat="43.82101336149074" lon="12.302338038442578"><ele>768.0</ele><time>2026-05-04T08:34:44.001Z</time></trkpt><trkpt lat="43.82094266230306" lon="12.302265896802306"><ele>767.5999999999999</ele><time>2026-05-04T08:34:45.001Z</time></trkpt><trkpt lat="43.82085490523308" lon="12.302207145451979"><ele>767.1999999999999</ele><time>2026-05-04T08:34:47.001Z</time></trkpt><trkpt lat="43.820760661359685" lon="12.302201133146353"><ele>766.8</ele><time>2026-05-04T08:34:49.001Z</time></trkpt><trkpt lat="43.8206712298959" lon="12.302223186649039"><ele>766.4</ele><time>2026-05-04T08:34:51.001Z</time></trkpt><trkpt lat="43.82057667356373" lon="12.30230485104357"><ele>766.0</ele><time>2026-05-04T08:34:53.001Z</time></trkpt><trkpt lat="43.82052312964024" lon="12.302376969469941"><ele>766.0</ele><time>2026-05-04T08:34:54.001Z</time></trkpt><trkpt lat="43.82046438634625" lon="12.302454403309218"><ele>766.0</ele><time>2026-05-04T08:34:55.001Z</time></trkpt><trkpt lat="43.8204046448837" lon="12.302542352664306"><ele>766.0</ele><time>2026-05-04T08:34:56.001Z</time></trkpt><trkpt lat="43.8203366796908" lon="12.302620701802093"><ele>766.0</ele><time>2026-05-04T08:34:57.001Z</time></trkpt><trkpt lat="43.82028181753521" lon="12.302683061699101"><ele>766.0</ele><time>2026-05-04T08:34:58.001Z</time></trkpt><trkpt lat="43.82023405107589" lon="12.302750867655424"><ele>766.0</ele><time>2026-05-04T08:34:59.001Z</time></trkpt><trkpt lat="43.8201818255772" lon="12.30287228451537"><ele>764.4</ele><time>2026-05-04T08:35:01.001Z</time></trkpt><trkpt lat="43.82014027974763" lon="12.30296685094576"><ele>762.8</ele><time>2026-05-04T08:35:03.001Z</time></trkpt><trkpt lat="43.820070289287536" lon="12.30294165111474"><ele>761.1999999999999</ele><time>2026-05-04T08:35:36.001Z</time></trkpt><trkpt lat="43.820027987398596" lon="12.302869563041575"><ele>759.5999999999999</ele><time>2026-05-04T08:35:39.001Z</time></trkpt><trkpt lat="43.820074673211494" lon="12.302629364685146"><ele>758.0</ele><time>2026-05-04T08:35:42.001Z</time></trkpt><trkpt lat="43.820050436412835" lon="12.302517862762793"><ele>758.0</ele><time>2026-05-04T08:35:44.001Z</time></trkpt><trkpt lat="43.82002123913124" lon="12.302433525307663"><ele>758.0</ele><time>2026-05-04T08:35:46.001Z</time></trkpt><trkpt lat="43.819956335834064" lon="12.302340615744372"><ele>758.0</ele><time>2026-05-04T08:35:49.001Z</time></trkpt><trkpt lat="43.81989604201333" lon="12.302258620811815"><ele>758.0</ele><time>2026-05-04T08:35:51.001Z</time></trkpt><trkpt lat="43.819836736297795" lon="12.302160608432983"><ele>758.0</ele><time>2026-05-04T08:35:53.001Z</time></trkpt><trkpt lat="43.81979770626283" lon="12.302079937116511"><ele>758.0</ele><time>2026-05-04T08:35:54.001Z</time></trkpt><trkpt lat="43.81974420427329" lon="12.30202523041899"><ele>756.5</ele><time>2026-05-04T08:35:55.001Z</time></trkpt><trkpt lat="43.8196915947888" lon="12.301972080388264"><ele>755.0</ele><time>2026-05-04T08:35:56.001Z</time></trkpt><trkpt lat="43.819640807781575" lon="12.301910939841152"><ele>753.5</ele><time>2026-05-04T08:35:57.001Z</time></trkpt><trkpt lat="43.81960668218968" lon="12.301788924004603"><ele>752.0</ele><time>2026-05-04T08:35:59.001Z</time></trkpt><trkpt lat="43.81953732820264" lon="12.301658709858458"><ele>750.5</ele><time>2026-05-04T08:36:01.001Z</time></trkpt><trkpt lat="43.81947655018204" lon="12.301619738243593"><ele>749.0</ele><time>2026-05-04T08:36:02.001Z</time></trkpt><trkpt lat="43.81941740505756" lon="12.301566111443496"><ele>749.0</ele><time>2026-05-04T08:36:03.001Z</time></trkpt><trkpt lat="43.819373666951755" lon="12.301500205601993"><ele>749.0</ele><time>2026-05-04T08:36:04.001Z</time></trkpt><trkpt lat="43.81932974442169" lon="12.301425742878376"><ele>749.0</ele><time>2026-05-04T08:36:05.001Z</time></trkpt><trkpt lat="43.819278448400695" lon="12.301371843480675"><ele>749.0</ele><time>2026-05-04T08:36:06.001Z</time></trkpt><trkpt lat="43.819261542141064" lon="12.301231931398718"><ele>749.0</ele><time>2026-05-04T08:36:08.001Z</time></trkpt><trkpt lat="43.81924795753498" lon="12.301146138100503"><ele>749.0</ele><time>2026-05-04T08:36:09.001Z</time></trkpt><trkpt lat="43.819232010281794" lon="12.30104860493695"><ele>749.0</ele><time>2026-05-04T08:36:10.001Z</time></trkpt><trkpt lat="43.81920981935019" lon="12.300953579150555"><ele>745.0</ele><time>2026-05-04T08:36:11.001Z</time></trkpt><trkpt lat="43.81918430387843" lon="12.300859348914518"><ele>741.0</ele><time>2026-05-04T08:36:12.001Z</time></trkpt><trkpt lat="43.81914882790611" lon="12.300704792728814"><ele>737.0</ele><time>2026-05-04T08:36:14.001Z</time></trkpt><trkpt lat="43.819231224615194" lon="12.30048650354191"><ele>733.0</ele><time>2026-05-04T08:36:16.001Z</time></trkpt><trkpt lat="43.819151843632724" lon="12.300328771084123"><ele>733.0</ele><time>2026-05-04T08:36:18.001Z</time></trkpt><trkpt lat="43.81904235800078" lon="12.30026579353122"><ele>733.0</ele><time>2026-05-04T08:36:20.001Z</time></trkpt><trkpt lat="43.81881766671418" lon="12.300552042422064"><ele>733.0</ele><time>2026-05-04T08:36:25.001Z</time></trkpt><trkpt lat="43.81873972367539" lon="12.300607938499503"><ele>733.0</ele><time>2026-05-04T08:36:27.001Z</time></trkpt><trkpt lat="43.818666994775874" lon="12.300719038161409"><ele>733.0</ele><time>2026-05-04T08:36:29.001Z</time></trkpt><trkpt lat="43.818618991932" lon="12.300782198894042"><ele>733.0</ele><time>2026-05-04T08:36:31.001Z</time></trkpt><trkpt lat="43.81851559258046" lon="12.300810496253698"><ele>733.0</ele><time>2026-05-04T08:36:34.001Z</time></trkpt><trkpt lat="43.81841704381885" lon="12.300816555075164"><ele>733.0</ele><time>2026-05-04T08:36:36.001Z</time></trkpt><trkpt lat="43.81829488335482" lon="12.300816504480066"><ele>732.5</ele><time>2026-05-04T08:36:38.001Z</time></trkpt><trkpt lat="43.81821690511928" lon="12.300829034628384"><ele>732.0</ele><time>2026-05-04T08:36:39.001Z</time></trkpt><trkpt lat="43.81814815261046" lon="12.300843550870187"><ele>731.5</ele><time>2026-05-04T08:36:40.001Z</time></trkpt><trkpt lat="43.818038040856" lon="12.300853515286876"><ele>731.0</ele><time>2026-05-04T08:36:42.001Z</time></trkpt><trkpt lat="43.81792378051852" lon="12.300862078526613"><ele>730.5</ele><time>2026-05-04T08:36:44.001Z</time></trkpt><trkpt lat="43.81784902530033" lon="12.300853424374818"><ele>730.0</ele><time>2026-05-04T08:36:45.001Z</time></trkpt><trkpt lat="43.817782844749395" lon="12.30083316717246"><ele>730.0</ele><time>2026-05-04T08:36:46.001Z</time></trkpt><trkpt lat="43.81771648168893" lon="12.300786802263463"><ele>730.0</ele><time>2026-05-04T08:36:47.001Z</time></trkpt><trkpt lat="43.81765754305121" lon="12.300732503354887"><ele>730.0</ele><time>2026-05-04T08:36:48.001Z</time></trkpt><trkpt lat="43.81760450526856" lon="12.300682681269064"><ele>730.0</ele><time>2026-05-04T08:36:49.001Z</time></trkpt><trkpt lat="43.81750305604872" lon="12.30062385158961"><ele>730.0</ele><time>2026-05-04T08:36:51.001Z</time></trkpt><trkpt lat="43.81737731411257" lon="12.300586182164635"><ele>730.0</ele><time>2026-05-04T08:36:53.001Z</time></trkpt><trkpt lat="43.81730636447688" lon="12.300572896364745"><ele>728.0</ele><time>2026-05-04T08:36:54.001Z</time></trkpt><trkpt lat="43.81723665933431" lon="12.30057007566331"><ele>726.0</ele><time>2026-05-04T08:36:55.001Z</time></trkpt><trkpt lat="43.817171765599475" lon="12.300563772314058"><ele>724.0</ele><time>2026-05-04T08:36:56.001Z</time></trkpt><trkpt lat="43.8171008038806" lon="12.300533445082127"><ele>722.0</ele><time>2026-05-04T08:36:57.001Z</time></trkpt><trkpt lat="43.81702807809423" lon="12.300481225137599"><ele>720.0</ele><time>2026-05-04T08:36:58.001Z</time></trkpt><trkpt lat="43.81695245025919" lon="12.300404324574908"><ele>718.0</ele><time>2026-05-04T08:36:59.001Z</time></trkpt><trkpt lat="43.816886228163554" lon="12.300335439736633"><ele>718.3333333333334</ele><time>2026-05-04T08:37:00.001Z</time></trkpt><trkpt lat="43.81680745309449" lon="12.30027969030331"><ele>718.6666666666667</ele><time>2026-05-04T08:37:01.001Z</time></trkpt><trkpt lat="43.81672179663074" lon="12.300250061087777"><ele>719.0</ele><time>2026-05-04T08:37:02.001Z</time></trkpt><trkpt lat="43.816655446187" lon="12.300216567173493"><ele>719.3333333333334</ele><time>2026-05-04T08:37:03.001Z</time></trkpt><trkpt lat="43.81659180437935" lon="12.300188935687665"><ele>719.6666666666666</ele><time>2026-05-04T08:37:04.001Z</time></trkpt><trkpt lat="43.81652437957817" lon="12.300196830165518"><ele>720.0</ele><time>2026-05-04T08:37:05.001Z</time></trkpt><trkpt lat="43.8164537867874" lon="12.300233911993583"><ele>720.0</ele><time>2026-05-04T08:37:06.001Z</time></trkpt><trkpt lat="43.81636594031186" lon="12.300290970838748"><ele>720.0</ele><time>2026-05-04T08:37:07.001Z</time></trkpt><trkpt lat="43.81628742540042" lon="12.30030804820643"><ele>720.0</ele><time>2026-05-04T08:37:08.001Z</time></trkpt><trkpt lat="43.816204593027635" lon="12.300301251577597"><ele>720.0</ele><time>2026-05-04T08:37:09.001Z</time></trkpt><trkpt lat="43.8161226015107" lon="12.300291783208257"><ele>720.0</ele><time>2026-05-04T08:37:11.001Z</time></trkpt><trkpt lat="43.81603875024761" lon="12.300304983541503"><ele>720.0</ele><time>2026-05-04T08:37:13.001Z</time></trkpt><trkpt lat="43.8159611776547" lon="12.300254505850845"><ele>720.4</ele><time>2026-05-04T08:37:15.001Z</time></trkpt><trkpt lat="43.81593914942703" lon="12.300140672706485"><ele>720.8</ele><time>2026-05-04T08:37:17.001Z</time></trkpt><trkpt lat="43.815904010066205" lon="12.300006397525348"><ele>721.2</ele><time>2026-05-04T08:37:19.001Z</time></trkpt><trkpt lat="43.81588078725767" lon="12.299886589486194"><ele>721.6</ele><time>2026-05-04T08:37:20.001Z</time></trkpt><trkpt lat="43.815846214866866" lon="12.299783236036648"><ele>722.0</ele><time>2026-05-04T08:37:21.001Z</time></trkpt><trkpt lat="43.815794876691875" lon="12.299670724272197"><ele>722.0</ele><time>2026-05-04T08:37:22.001Z</time></trkpt><trkpt lat="43.8157427412568" lon="12.299556940968484"><ele>722.0</ele><time>2026-05-04T08:37:23.001Z</time></trkpt><trkpt lat="43.815699342481935" lon="12.2994618137386"><ele>722.0</ele><time>2026-05-04T08:37:24.001Z</time></trkpt><trkpt lat="43.815585023421164" lon="12.29935262752301"><ele>722.0</ele><time>2026-05-04T08:37:26.001Z</time></trkpt><trkpt lat="43.81547817232963" lon="12.299322257780002"><ele>722.0</ele><time>2026-05-04T08:37:27.001Z</time></trkpt><trkpt lat="43.81536625343799" lon="12.299288085249234"><ele>722.0</ele><time>2026-05-04T08:37:28.001Z</time></trkpt><trkpt lat="43.81527442844626" lon="12.299248980949924"><ele>722.0</ele><time>2026-05-04T08:37:29.001Z</time></trkpt><trkpt lat="43.815186488908395" lon="12.299198916777396"><ele>722.0</ele><time>2026-05-04T08:37:30.001Z</time></trkpt><trkpt lat="43.81509320944632" lon="12.299151793287267"><ele>722.0</ele><time>2026-05-04T08:37:31.001Z</time></trkpt><trkpt lat="43.81500653475998" lon="12.299121637505051"><ele>722.0</ele><time>2026-05-04T08:37:32.001Z</time></trkpt><trkpt lat="43.814906032361144" lon="12.299084629276884"><ele>722.4000000000001</ele><time>2026-05-04T08:37:33.001Z</time></trkpt><trkpt lat="43.81480536733703" lon="12.299042189889956"><ele>722.8000000000001</ele><time>2026-05-04T08:37:34.001Z</time></trkpt><trkpt lat="43.81471702754675" lon="12.298984175541019"><ele>723.2</ele><time>2026-05-04T08:37:35.001Z</time></trkpt><trkpt lat="43.81463292669008" lon="12.298903921817606"><ele>723.6</ele><time>2026-05-04T08:37:36.001Z</time></trkpt><trkpt lat="43.814556170369514" lon="12.298817549217004"><ele>724.0</ele><time>2026-05-04T08:37:37.001Z</time></trkpt><trkpt lat="43.81448985032516" lon="12.298719137291993"><ele>724.0</ele><time>2026-05-04T08:37:38.001Z</time></trkpt><trkpt lat="43.81442805277389" lon="12.298610826959871"><ele>724.0</ele><time>2026-05-04T08:37:39.001Z</time></trkpt><trkpt lat="43.81438260910997" lon="12.298519866830626"><ele>724.0</ele><time>2026-05-04T08:37:40.001Z</time></trkpt><trkpt lat="43.8143343867658" lon="12.298424066333085"><ele>724.0</ele><time>2026-05-04T08:37:41.001Z</time></trkpt><trkpt lat="43.81428928429209" lon="12.298339887794432"><ele>724.0</ele><time>2026-05-04T08:37:42.001Z</time></trkpt><trkpt lat="43.81425200325815" lon="12.298249958158502"><ele>724.0</ele><time>2026-05-04T08:37:44Z</time></trkpt><trkpt lat="43.814175068364634" lon="12.298190000100151"><ele>727.8000000000001</ele><time>2026-05-04T08:37:49Z</time></trkpt><trkpt lat="43.81409121475875" lon="12.298232494272005"><ele>731.6</ele><time>2026-05-04T08:37:51Z</time></trkpt><trkpt lat="43.81402738344536" lon="12.2982917273633"><ele>735.4</ele><time>2026-05-04T08:37:53Z</time></trkpt><trkpt lat="43.8139397992741" lon="12.298367645791355"><ele>739.2</ele><time>2026-05-04T08:37:55Z</time></trkpt><trkpt lat="43.81382811395614" lon="12.29837150331746"><ele>743.0</ele><time>2026-05-04T08:37:57Z</time></trkpt><trkpt lat="43.81371309142578" lon="12.29837855543073"><ele>743.0</ele><time>2026-05-04T08:37:59Z</time></trkpt><trkpt lat="43.8136469656199" lon="12.298396833833937"><ele>743.0</ele><time>2026-05-04T08:38:00Z</time></trkpt><trkpt lat="43.81354270471495" lon="12.29845399600437"><ele>743.0</ele><time>2026-05-04T08:38:02Z</time></trkpt><trkpt lat="43.813461049189726" lon="12.29853948951482"><ele>743.0</ele><time>2026-05-04T08:38:04Z</time></trkpt><trkpt lat="43.81338754554684" lon="12.298631170590594"><ele>743.0</ele><time>2026-05-04T08:38:06Z</time></trkpt><trkpt lat="43.81333102194901" lon="12.298686421668979"><ele>745.1666666666666</ele><time>2026-05-04T08:38:07Z</time></trkpt><trkpt lat="43.81327370028114" lon="12.298742692821207"><ele>747.3333333333333</ele><time>2026-05-04T08:38:08Z</time></trkpt><trkpt lat="43.81320289804165" lon="12.298803605095765"><ele>749.5</ele><time>2026-05-04T08:38:09Z</time></trkpt><trkpt lat="43.813118921349506" lon="12.298873816731934"><ele>751.6666666666666</ele><time>2026-05-04T08:38:10Z</time></trkpt><trkpt lat="43.81305203286993" lon="12.298910526627925"><ele>753.8333333333334</ele><time>2026-05-04T08:38:11Z</time></trkpt><trkpt lat="43.81298896621799" lon="12.29894995714684"><ele>756.0</ele><time>2026-05-04T08:38:12Z</time></trkpt><trkpt lat="43.81290761786876" lon="12.299009220460318"><ele>758.0</ele><time>2026-05-04T08:38:14Z</time></trkpt><trkpt lat="43.812842876550114" lon="12.29910189062904"><ele>760.0</ele><time>2026-05-04T08:38:16Z</time></trkpt><trkpt lat="43.81278125419326" lon="12.299141392494006"><ele>762.0</ele><time>2026-05-04T08:38:18Z</time></trkpt><trkpt lat="43.81268750087651" lon="12.299241610835201"><ele>764.0</ele><time>2026-05-04T08:38:20Z</time></trkpt><trkpt lat="43.81261371365007" lon="12.299322996357292"><ele>766.0</ele><time>2026-05-04T08:38:21Z</time></trkpt><trkpt lat="43.81255187059961" lon="12.299388718652432"><ele>768.5</ele><time>2026-05-04T08:38:22Z</time></trkpt><trkpt lat="43.8125001082988" lon="12.299454361956911"><ele>771.0</ele><time>2026-05-04T08:38:23Z</time></trkpt><trkpt lat="43.81240824558846" lon="12.29949209821512"><ele>773.5</ele><time>2026-05-04T08:38:26Z</time></trkpt><trkpt lat="43.81236335742691" lon="12.299572194387146"><ele>776.0</ele><time>2026-05-04T08:38:28Z</time></trkpt><trkpt lat="43.81242083091828" lon="12.299491097990279"><ele>778.4999999999999</ele><time>2026-05-04T08:39:50Z</time></trkpt><trkpt lat="43.81248921739163" lon="12.299439313061928"><ele>781.0</ele><time>2026-05-04T08:40:22Z</time></trkpt><trkpt lat="43.8125509046222" lon="12.299361149421706"><ele>781.0</ele><time>2026-05-04T08:40:24Z</time></trkpt><trkpt lat="43.8126255047562" lon="12.29927255146475"><ele>781.0</ele><time>2026-05-04T08:40:26Z</time></trkpt><trkpt lat="43.81270408339755" lon="12.299210786680103"><ele>781.0</ele><time>2026-05-04T08:40:28Z</time></trkpt><trkpt lat="43.81277304352286" lon="12.299148540694055"><ele>781.0</ele><time>2026-05-04T08:40:31Z</time></trkpt><trkpt lat="43.81284708246507" lon="12.299093104078013"><ele>781.0</ele><time>2026-05-04T08:40:34Z</time></trkpt><trkpt lat="43.81292833078414" lon="12.299017006197987"><ele>778.0</ele><time>2026-05-04T08:40:36Z</time></trkpt><trkpt lat="43.81301691726238" lon="12.298933963263137"><ele>775.0</ele><time>2026-05-04T08:40:38Z</time></trkpt><trkpt lat="43.81310384838292" lon="12.298848232846646"><ele>772.0</ele><time>2026-05-04T08:40:40Z</time></trkpt><trkpt lat="43.81319631867085" lon="12.298805802170559"><ele>769.0</ele><time>2026-05-04T08:40:42Z</time></trkpt><trkpt lat="43.81324870848504" lon="12.298756591128326"><ele>766.0</ele><time>2026-05-04T08:40:43Z</time></trkpt><trkpt lat="43.81331467879334" lon="12.298688533206784"><ele>764.0</ele><time>2026-05-04T08:40:45Z</time></trkpt><trkpt lat="43.81337962397052" lon="12.298618654755987"><ele>762.0</ele><time>2026-05-04T08:40:47Z</time></trkpt><trkpt lat="43.813426866494915" lon="12.29854034246575"><ele>760.0</ele><time>2026-05-04T08:40:49Z</time></trkpt><trkpt lat="43.81352051543806" lon="12.298461962012741"><ele>758.0</ele><time>2026-05-04T08:40:51Z</time></trkpt><trkpt lat="43.813622087366504" lon="12.298397393404878"><ele>756.0</ele><time>2026-05-04T08:40:53Z</time></trkpt><trkpt lat="43.813697716603" lon="12.298394678003866"><ele>753.8333333333334</ele><time>2026-05-04T08:40:55Z</time></trkpt><trkpt lat="43.813798109848975" lon="12.298377698698308"><ele>751.6666666666666</ele><time>2026-05-04T08:40:57Z</time></trkpt><trkpt lat="43.813865164752634" lon="12.298370123820149"><ele>749.5</ele><time>2026-05-04T08:40:58Z</time></trkpt><trkpt lat="43.81397069237948" lon="12.298346159706174"><ele>747.3333333333333</ele><time>2026-05-04T08:41:00Z</time></trkpt><trkpt lat="43.81403786025313" lon="12.298302251447943"><ele>745.1666666666666</ele><time>2026-05-04T08:41:02Z</time></trkpt><trkpt lat="43.814102876410224" lon="12.298233788210739"><ele>743.0</ele><time>2026-05-04T08:41:04Z</time></trkpt><trkpt lat="43.814174193087034" lon="12.298195610783555"><ele>743.0</ele><time>2026-05-04T08:41:06Z</time></trkpt><trkpt lat="43.81418506011244" lon="12.298106880783823"><ele>743.0</ele><time>2026-05-04T08:41:10Z</time></trkpt><trkpt lat="43.814135773802754" lon="12.297993035595237"><ele>743.0</ele><time>2026-05-04T08:41:13Z</time></trkpt><trkpt lat="43.81404884186988" lon="12.297901062143522"><ele>743.0</ele><time>2026-05-04T08:41:15Z</time></trkpt><trkpt lat="43.813948509874464" lon="12.297819368015109"><ele>743.0</ele><time>2026-05-04T08:41:17Z</time></trkpt><trkpt lat="43.81383054418423" lon="12.297711589403216"><ele>743.5999999999999</ele><time>2026-05-04T08:41:19Z</time></trkpt><trkpt lat="43.81376225496877" lon="12.297649737282255"><ele>744.1999999999999</ele><time>2026-05-04T08:41:20Z</time></trkpt><trkpt lat="43.81369886250281" lon="12.297589750475572"><ele>744.8</ele><time>2026-05-04T08:41:21Z</time></trkpt><trkpt lat="43.81360606658791" lon="12.29749897702628"><ele>745.4</ele><time>2026-05-04T08:41:23Z</time></trkpt><trkpt lat="43.81352457051982" lon="12.29744449965933"><ele>746.0</ele><time>2026-05-04T08:41:25Z</time></trkpt><trkpt lat="43.81345707206864" lon="12.297348766742052"><ele>746.0</ele><time>2026-05-04T08:41:28Z</time></trkpt><trkpt lat="43.813470162487356" lon="12.297258868265322"><ele>746.0</ele><time>2026-05-04T08:41:30Z</time></trkpt><trkpt lat="43.81349313810865" lon="12.297167776011415"><ele>746.0</ele><time>2026-05-04T08:41:32Z</time></trkpt><trkpt lat="43.813488437500595" lon="12.297067502885122"><ele>746.0</ele><time>2026-05-04T08:41:34Z</time></trkpt><trkpt lat="43.81346764228729" lon="12.2969786502515"><ele>746.0</ele><time>2026-05-04T08:41:36Z</time></trkpt><trkpt lat="43.81344066598439" lon="12.296860117766084"><ele>746.0</ele><time>2026-05-04T08:41:38Z</time></trkpt><trkpt lat="43.81339003523682" lon="12.296761134202786"><ele>744.8</ele><time>2026-05-04T08:41:40Z</time></trkpt><trkpt lat="43.81332333719017" lon="12.296691556174407"><ele>743.5999999999999</ele><time>2026-05-04T08:41:42Z</time></trkpt><trkpt lat="43.81324283707654" lon="12.296612942665726"><ele>742.4</ele><time>2026-05-04T08:41:44Z</time></trkpt><trkpt lat="43.81315378287314" lon="12.296523582539345"><ele>741.2</ele><time>2026-05-04T08:41:46Z</time></trkpt><trkpt lat="43.81309221522525" lon="12.296405342766032"><ele>740.0</ele><time>2026-05-04T08:41:48Z</time></trkpt><trkpt lat="43.81306410091228" lon="12.296261323096278"><ele>738.5</ele><time>2026-05-04T08:41:50Z</time></trkpt><trkpt lat="43.813050185764304" lon="12.296141118553399"><ele>737.0</ele><time>2026-05-04T08:41:52Z</time></trkpt><trkpt lat="43.81296412349574" lon="12.29608348451145"><ele>735.5</ele><time>2026-05-04T08:41:54Z</time></trkpt><trkpt lat="43.81290714850656" lon="12.29604150995217"><ele>734.0</ele><time>2026-05-04T08:41:55Z</time></trkpt><trkpt lat="43.812857004585965" lon="12.295967368440458"><ele>732.5</ele><time>2026-05-04T08:41:56Z</time></trkpt><trkpt lat="43.81280792025204" lon="12.295886324165519"><ele>731.0</ele><time>2026-05-04T08:41:57Z</time></trkpt><trkpt lat="43.812768670926204" lon="12.295787191854687"><ele>731.0</ele><time>2026-05-04T08:41:58Z</time></trkpt><trkpt lat="43.81274560148357" lon="12.295651409349347"><ele>731.0</ele><time>2026-05-04T08:42:00Z</time></trkpt><trkpt lat="43.81271197708097" lon="12.295542527522448"><ele>731.0</ele><time>2026-05-04T08:42:01Z</time></trkpt><trkpt lat="43.81266946246798" lon="12.295464986111442"><ele>731.0</ele><time>2026-05-04T08:42:02Z</time></trkpt><trkpt lat="43.81263625499387" lon="12.295384816645877"><ele>731.0</ele><time>2026-05-04T08:42:03Z</time></trkpt><trkpt lat="43.812601569841874" lon="12.29530015492329"><ele>731.0</ele><time>2026-05-04T08:42:04Z</time></trkpt><trkpt lat="43.812572868848505" lon="12.295202635584413"><ele>730.8333333333333</ele><time>2026-05-04T08:42:05Z</time></trkpt><trkpt lat="43.81251279314731" lon="12.295142771734227"><ele>730.6666666666666</ele><time>2026-05-04T08:42:06Z</time></trkpt><trkpt lat="43.812454334581325" lon="12.295077049733564"><ele>730.5</ele><time>2026-05-04T08:42:07Z</time></trkpt><trkpt lat="43.812378486691486" lon="12.294971260737727"><ele>730.3333333333334</ele><time>2026-05-04T08:42:09Z</time></trkpt><trkpt lat="43.81232519713088" lon="12.29489598576173"><ele>730.1666666666667</ele><time>2026-05-04T08:42:10Z</time></trkpt><trkpt lat="43.812269676403695" lon="12.294790981504027"><ele>730.0</ele><time>2026-05-04T08:42:11Z</time></trkpt><trkpt lat="43.81222271483641" lon="12.294684971034968"><ele>728.5</ele><time>2026-05-04T08:42:12Z</time></trkpt><trkpt lat="43.81216831084433" lon="12.29459776144863"><ele>727.0</ele><time>2026-05-04T08:42:13Z</time></trkpt><trkpt lat="43.812121665461184" lon="12.294514130680021"><ele>725.5</ele><time>2026-05-04T08:42:14Z</time></trkpt><trkpt lat="43.81209187992152" lon="12.294424956575885"><ele>724.0</ele><time>2026-05-04T08:42:15Z</time></trkpt><trkpt lat="43.8120632799712" lon="12.294329962664536"><ele>722.5</ele><time>2026-05-04T08:42:16Z</time></trkpt><trkpt lat="43.81203465479821" lon="12.294235882564639"><ele>721.0</ele><time>2026-05-04T08:42:17Z</time></trkpt><trkpt lat="43.81200602519133" lon="12.294141467803056"><ele>721.0</ele><time>2026-05-04T08:42:18Z</time></trkpt><trkpt lat="43.811948154814004" lon="12.294068306889963"><ele>721.0</ele><time>2026-05-04T08:42:20Z</time></trkpt><trkpt lat="43.811871115696256" lon="12.294110435307507"><ele>721.0</ele><time>2026-05-04T08:42:22Z</time></trkpt><trkpt lat="43.81177043494147" lon="12.294154117623904"><ele>721.0</ele><time>2026-05-04T08:42:24Z</time></trkpt><trkpt lat="43.81165387237892" lon="12.294171052461882"><ele>721.0</ele><time>2026-05-04T08:42:26Z</time></trkpt><trkpt lat="43.811587540507254" lon="12.294199498482367"><ele>722.0</ele><time>2026-05-04T08:42:27Z</time></trkpt><trkpt lat="43.81150291769117" lon="12.294214547164179"><ele>723.0</ele><time>2026-05-04T08:42:29Z</time></trkpt><trkpt lat="43.8114363647898" lon="12.294075896828582"><ele>724.0</ele><time>2026-05-04T08:42:32Z</time></trkpt><trkpt lat="43.811391307649366" lon="12.293998316585464"><ele>725.0</ele><time>2026-05-04T08:42:33Z</time></trkpt><trkpt lat="43.811357056875266" lon="12.293921381021423"><ele>726.0</ele><time>2026-05-04T08:42:34Z</time></trkpt><trkpt lat="43.81134444163058" lon="12.293810809163693"><ele>727.0</ele><time>2026-05-04T08:42:36Z</time></trkpt><trkpt lat="43.811314636124926" lon="12.293660009646517"><ele>727.0</ele><time>2026-05-04T08:42:38Z</time></trkpt><trkpt lat="43.81121447187912" lon="12.293547745213804"><ele>727.0</ele><time>2026-05-04T08:42:40Z</time></trkpt><trkpt lat="43.81113641811654" lon="12.293479431020184"><ele>727.0</ele><time>2026-05-04T08:42:41Z</time></trkpt><trkpt lat="43.811065223628006" lon="12.293401630410964"><ele>727.0</ele><time>2026-05-04T08:42:42Z</time></trkpt><trkpt lat="43.8109321704812" lon="12.293287147688794"><ele>728.2</ele><time>2026-05-04T08:42:44Z</time></trkpt><trkpt lat="43.81090200233762" lon="12.293176489378405"><ele>729.4000000000001</ele><time>2026-05-04T08:42:46Z</time></trkpt><trkpt lat="43.81093947162546" lon="12.293070725179806"><ele>730.5999999999999</ele><time>2026-05-04T08:42:48Z</time></trkpt><trkpt lat="43.81099451670595" lon="12.292910449898077"><ele>731.8</ele><time>2026-05-04T08:42:50Z</time></trkpt><trkpt lat="43.81098304494595" lon="12.292784656199785"><ele>733.0</ele><time>2026-05-04T08:42:51Z</time></trkpt><trkpt lat="43.81094798073801" lon="12.292686272599093"><ele>733.0</ele><time>2026-05-04T08:42:52Z</time></trkpt><trkpt lat="43.81090623736584" lon="12.292589174896806"><ele>733.0</ele><time>2026-05-04T08:42:53Z</time></trkpt><trkpt lat="43.810857692762774" lon="12.292498828423543"><ele>733.0</ele><time>2026-05-04T08:42:54Z</time></trkpt><trkpt lat="43.810800172107456" lon="12.292411912207218"><ele>733.0</ele><time>2026-05-04T08:42:55Z</time></trkpt><trkpt lat="43.81075063309705" lon="12.292336780273443"><ele>733.0</ele><time>2026-05-04T08:42:56Z</time></trkpt><trkpt lat="43.81071607801327" lon="12.292245530758352"><ele>733.0</ele><time>2026-05-04T08:42:57Z</time></trkpt><trkpt lat="43.810695582971725" lon="12.292154868022031"><ele>732.2857142857142</ele><time>2026-05-04T08:42:58Z</time></trkpt><trkpt lat="43.81070036050238" lon="12.292048217134655"><ele>731.5714285714286</ele><time>2026-05-04T08:42:59Z</time></trkpt><trkpt lat="43.810694498043" lon="12.291948433495053"><ele>730.8571428571429</ele><time>2026-05-04T08:43:00Z</time></trkpt><trkpt lat="43.81067594978319" lon="12.291848126611967"><ele>730.1428571428571</ele><time>2026-05-04T08:43:01Z</time></trkpt><trkpt lat="43.810657897903674" lon="12.291763023444956"><ele>729.4285714285714</ele><time>2026-05-04T08:43:02Z</time></trkpt><trkpt lat="43.81062812166985" lon="12.291682875028265"><ele>728.7142857142857</ele><time>2026-05-04T08:43:03Z</time></trkpt><trkpt lat="43.81057568144765" lon="12.29158362420432"><ele>728.0</ele><time>2026-05-04T08:43:04Z</time></trkpt><trkpt lat="43.81051490548537" lon="12.291486381244418"><ele>728.3333333333333</ele><time>2026-05-04T08:43:05Z</time></trkpt><trkpt lat="43.81045493023427" lon="12.291399324232101"><ele>728.6666666666666</ele><time>2026-05-04T08:43:06Z</time></trkpt><trkpt lat="43.810385575952814" lon="12.291320139502988"><ele>729.0</ele><time>2026-05-04T08:43:07Z</time></trkpt><trkpt lat="43.810317455853166" lon="12.291254778386389"><ele>729.3333333333334</ele><time>2026-05-04T08:43:08Z</time></trkpt><trkpt lat="43.8102487227762" lon="12.29119907634719"><ele>729.6666666666667</ele><time>2026-05-04T08:43:09Z</time></trkpt><trkpt lat="43.810177356252375" lon="12.291164471346177"><ele>730.0</ele><time>2026-05-04T08:43:10Z</time></trkpt><trkpt lat="43.81006050825685" lon="12.291113141210506"><ele>730.0</ele><time>2026-05-04T08:43:12Z</time></trkpt><trkpt lat="43.80999018108746" lon="12.29111968278732"><ele>730.0</ele><time>2026-05-04T08:43:13Z</time></trkpt><trkpt lat="43.80990431032595" lon="12.291143270208819"><ele>730.0</ele><time>2026-05-04T08:43:14Z</time></trkpt><trkpt lat="43.80980343062327" lon="12.291162722005877"><ele>730.0</ele><time>2026-05-04T08:43:15Z</time></trkpt><trkpt lat="43.809711474681244" lon="12.291163965357253"><ele>730.0</ele><time>2026-05-04T08:43:16Z</time></trkpt><trkpt lat="43.809648356659075" lon="12.291140844690776"><ele>730.0</ele><time>2026-05-04T08:43:17Z</time></trkpt><trkpt lat="43.809551947017596" lon="12.291045195319786"><ele>730.0</ele><time>2026-05-04T08:43:19Z</time></trkpt><trkpt lat="43.80951803464085" lon="12.290951486159862"><ele>730.0</ele><time>2026-05-04T08:43:20Z</time></trkpt><trkpt lat="43.809503206150545" lon="12.290842191853022"><ele>730.0</ele><time>2026-05-04T08:43:21Z</time></trkpt><trkpt lat="43.80950302584622" lon="12.290732883511804"><ele>730.0</ele><time>2026-05-04T08:43:22Z</time></trkpt><trkpt lat="43.80950525702132" lon="12.290640471522067"><ele>730.0</ele><time>2026-05-04T08:43:23Z</time></trkpt><trkpt lat="43.809508960986676" lon="12.290533916895201"><ele>730.0</ele><time>2026-05-04T08:43:24Z</time></trkpt><trkpt lat="43.80948874931822" lon="12.290422897042493"><ele>727.75</ele><time>2026-05-04T08:43:25Z</time></trkpt><trkpt lat="43.80945210685672" lon="12.290299614699848"><ele>725.5</ele><time>2026-05-04T08:43:26Z</time></trkpt><trkpt lat="43.80938503159128" lon="12.290162726209655"><ele>723.25</ele><time>2026-05-04T08:43:27Z</time></trkpt><trkpt lat="43.80930501860707" lon="12.290032551936036"><ele>721.0</ele><time>2026-05-04T08:43:28Z</time></trkpt><trkpt lat="43.80924441712411" lon="12.28990411745511"><ele>723.5999999999999</ele><time>2026-05-04T08:43:29Z</time></trkpt><trkpt lat="43.809204708927886" lon="12.28976689486037"><ele>726.2</ele><time>2026-05-04T08:43:30Z</time></trkpt><trkpt lat="43.80916903622691" lon="12.289652279978714"><ele>728.8</ele><time>2026-05-04T08:43:31Z</time></trkpt><trkpt lat="43.80910893638832" lon="12.289526863624655"><ele>731.4000000000001</ele><time>2026-05-04T08:43:32Z</time></trkpt><trkpt lat="43.809052498001385" lon="12.289407640557414"><ele>734.0</ele><time>2026-05-04T08:43:33Z</time></trkpt><trkpt lat="43.80900097129571" lon="12.289290699378892"><ele>734.0</ele><time>2026-05-04T08:43:34Z</time></trkpt><trkpt lat="43.80896079475567" lon="12.289172513642686"><ele>734.0</ele><time>2026-05-04T08:43:35Z</time></trkpt><trkpt lat="43.80893012466434" lon="12.2890551173949"><ele>734.0</ele><time>2026-05-04T08:43:36Z</time></trkpt><trkpt lat="43.80891443414436" lon="12.288937679402078"><ele>734.0</ele><time>2026-05-04T08:43:37Z</time></trkpt><trkpt lat="43.80891301419293" lon="12.288839331336943"><ele>734.0</ele><time>2026-05-04T08:43:38Z</time></trkpt><trkpt lat="43.80891658180493" lon="12.288733452047541"><ele>734.0</ele><time>2026-05-04T08:43:39Z</time></trkpt><trkpt lat="43.808913127734115" lon="12.288609146086612"><ele>734.6666666666666</ele><time>2026-05-04T08:43:41Z</time></trkpt><trkpt lat="43.80891583899508" lon="12.288487906949678"><ele>735.3333333333333</ele><time>2026-05-04T08:43:43Z</time></trkpt><trkpt lat="43.808885163483495" lon="12.288408104265791"><ele>736.0</ele><time>2026-05-04T08:43:48Z</time></trkpt><trkpt lat="43.808811400049386" lon="12.288433550157778"><ele>736.6666666666666</ele><time>2026-05-04T08:43:50Z</time></trkpt><trkpt lat="43.8087666556091" lon="12.288506199601239"><ele>737.3333333333334</ele><time>2026-05-04T08:43:51Z</time></trkpt><trkpt lat="43.80873385740886" lon="12.288585333834897"><ele>738.0</ele><time>2026-05-04T08:43:52Z</time></trkpt><trkpt lat="43.80868198965066" lon="12.288772636085204"><ele>738.0</ele><time>2026-05-04T08:43:54Z</time></trkpt><trkpt lat="43.808652035892855" lon="12.288895599994524"><ele>738.0</ele><time>2026-05-04T08:43:55Z</time></trkpt><trkpt lat="43.808620928080465" lon="12.288991167194347"><ele>738.0</ele><time>2026-05-04T08:43:56Z</time></trkpt><trkpt lat="43.80858060238713" lon="12.289058403893996"><ele>738.0</ele><time>2026-05-04T08:43:57Z</time></trkpt><trkpt lat="43.80854048467427" lon="12.289134934070962"><ele>738.0</ele><time>2026-05-04T08:44:00Z</time></trkpt><trkpt lat="43.80860530118478" lon="12.28912575313663"><ele>738.0</ele><time>2026-05-04T08:44:06Z</time></trkpt><trkpt lat="43.8086499254521" lon="12.288946011089408"><ele>738.0</ele><time>2026-05-04T08:44:08Z</time></trkpt><trkpt lat="43.80867842582401" lon="12.288856185939103"><ele>738.0</ele><time>2026-05-04T08:44:09Z</time></trkpt><trkpt lat="43.80870971432324" lon="12.288755606326582"><ele>738.0</ele><time>2026-05-04T08:44:10Z</time></trkpt><trkpt lat="43.808740172491085" lon="12.288659509971994"><ele>738.0</ele><time>2026-05-04T08:44:11Z</time></trkpt><trkpt lat="43.80877131552055" lon="12.288575154631914"><ele>738.0</ele><time>2026-05-04T08:44:12Z</time></trkpt><trkpt lat="43.808814654904886" lon="12.288489901000382"><ele>738.0</ele><time>2026-05-04T08:44:14Z</time></trkpt><trkpt lat="43.808933553310325" lon="12.288336602524808"><ele>738.0</ele><time>2026-05-04T08:44:16Z</time></trkpt><trkpt lat="43.80883312126414" lon="12.288137326565296"><ele>738.0</ele><time>2026-05-04T08:44:26Z</time></trkpt><trkpt lat="43.80877707597451" lon="12.288067941515148"><ele>738.0</ele><time>2026-05-04T08:44:27Z</time></trkpt><trkpt lat="43.80870571795362" lon="12.288017345201261"><ele>738.0</ele><time>2026-05-04T08:44:28Z</time></trkpt><trkpt lat="43.80859038950776" lon="12.28796159402551"><ele>737.7142857142857</ele><time>2026-05-04T08:44:30Z</time></trkpt><trkpt lat="43.808517440833974" lon="12.287946097555713"><ele>737.4285714285713</ele><time>2026-05-04T08:44:31Z</time></trkpt><trkpt lat="43.808449576300134" lon="12.287915557667644"><ele>737.1428571428571</ele><time>2026-05-04T08:44:32Z</time></trkpt><trkpt lat="43.80838568862305" lon="12.28789415387549"><ele>736.8571428571429</ele><time>2026-05-04T08:44:33Z</time></trkpt><trkpt lat="43.808309640041806" lon="12.28788568726161"><ele>736.5714285714286</ele><time>2026-05-04T08:44:34Z</time></trkpt><trkpt lat="43.8082281483374" lon="12.28788513539732"><ele>736.2857142857143</ele><time>2026-05-04T08:44:35Z</time></trkpt><trkpt lat="43.80815514491258" lon="12.287884322650354"><ele>736.0</ele><time>2026-05-04T08:44:36Z</time></trkpt><trkpt lat="43.808083331126944" lon="12.28788073248755"><ele>733.5999999999999</ele><time>2026-05-04T08:44:37Z</time></trkpt><trkpt lat="43.807967654825674" lon="12.287819774880948"><ele>731.2</ele><time>2026-05-04T08:44:39Z</time></trkpt><trkpt lat="43.80790438213593" lon="12.28777874905021"><ele>728.8</ele><time>2026-05-04T08:44:40Z</time></trkpt><trkpt lat="43.80780188411284" lon="12.287720400550919"><ele>726.4000000000001</ele><time>2026-05-04T08:44:42Z</time></trkpt><trkpt lat="43.80765932532953" lon="12.287738006387096"><ele>724.0</ele><time>2026-05-04T08:44:44Z</time></trkpt><trkpt lat="43.80757229321699" lon="12.2877556200349"><ele>723.7142857142857</ele><time>2026-05-04T08:44:45Z</time></trkpt><trkpt lat="43.807502849648785" lon="12.287767824537454"><ele>723.4285714285713</ele><time>2026-05-04T08:44:46Z</time></trkpt><trkpt lat="43.80743663692958" lon="12.287777745976003"><ele>723.1428571428571</ele><time>2026-05-04T08:44:47Z</time></trkpt><trkpt lat="43.80737032628851" lon="12.287792628690081"><ele>722.8571428571429</ele><time>2026-05-04T08:44:48Z</time></trkpt><trkpt lat="43.807294084502544" lon="12.28781831213973"><ele>722.5714285714286</ele><time>2026-05-04T08:44:49Z</time></trkpt><trkpt lat="43.807212260924615" lon="12.287834059098682"><ele>722.2857142857143</ele><time>2026-05-04T08:44:50Z</time></trkpt><trkpt lat="43.8071377406647" lon="12.287825910486346"><ele>722.0</ele><time>2026-05-04T08:44:51Z</time></trkpt><trkpt lat="43.80701366705744" lon="12.287752985321024"><ele>722.0</ele><time>2026-05-04T08:44:53Z</time></trkpt><trkpt lat="43.806921611803695" lon="12.287717353789503"><ele>722.0</ele><time>2026-05-04T08:44:54Z</time></trkpt><trkpt lat="43.80683426997333" lon="12.287706176566891"><ele>722.0</ele><time>2026-05-04T08:44:55Z</time></trkpt><trkpt lat="43.80672796882723" lon="12.28770846991563"><ele>722.0</ele><time>2026-05-04T08:44:56Z</time></trkpt><trkpt lat="43.80661469328393" lon="12.287718564734126"><ele>722.0</ele><time>2026-05-04T08:44:57Z</time></trkpt><trkpt lat="43.80651775030037" lon="12.28773061271507"><ele>722.2</ele><time>2026-05-04T08:44:58Z</time></trkpt><trkpt lat="43.806424613726655" lon="12.287747389464991"><ele>722.4000000000001</ele><time>2026-05-04T08:44:59Z</time></trkpt><trkpt lat="43.806354237506405" lon="12.28775888084579"><ele>722.5999999999999</ele><time>2026-05-04T08:45:00.001Z</time></trkpt><trkpt lat="43.806257814258664" lon="12.28778482051648"><ele>722.8</ele><time>2026-05-04T08:45:02.001Z</time></trkpt><trkpt lat="43.80616942495703" lon="12.287770365690154"><ele>723.0</ele><time>2026-05-04T08:45:04.001Z</time></trkpt><trkpt lat="43.80606518867249" lon="12.287698091063023"><ele>722.4</ele><time>2026-05-04T08:45:06.001Z</time></trkpt><trkpt lat="43.80590315949731" lon="12.287675179314297"><ele>721.8</ele><time>2026-05-04T08:45:08.001Z</time></trkpt><trkpt lat="43.805803054095" lon="12.287672038392973"><ele>721.2</ele><time>2026-05-04T08:45:09.001Z</time></trkpt><trkpt lat="43.80571992589478" lon="12.287655701305772"><ele>720.6</ele><time>2026-05-04T08:45:10.001Z</time></trkpt><trkpt lat="43.80564254436751" lon="12.2876190434839"><ele>720.0</ele><time>2026-05-04T08:45:11.001Z</time></trkpt><trkpt lat="43.805563383622825" lon="12.287565725713362"><ele>720.0</ele><time>2026-05-04T08:45:12.001Z</time></trkpt><trkpt lat="43.80548287585618" lon="12.287506545006961"><ele>720.0</ele><time>2026-05-04T08:45:13.001Z</time></trkpt><trkpt lat="43.80541392318752" lon="12.287472170072398"><ele>720.0</ele><time>2026-05-04T08:45:14.001Z</time></trkpt><trkpt lat="43.80533364449128" lon="12.2874488393536"><ele>720.0</ele><time>2026-05-04T08:45:15.001Z</time></trkpt><trkpt lat="43.805268083610514" lon="12.287455271161749"><ele>720.0</ele><time>2026-05-04T08:45:16.001Z</time></trkpt><trkpt lat="43.80520790643314" lon="12.287426928364583"><ele>720.0</ele><time>2026-05-04T08:45:18.001Z</time></trkpt><trkpt lat="43.80522876925999" lon="12.28734377680455"><ele>720.0</ele><time>2026-05-04T08:45:20.001Z</time></trkpt><trkpt lat="43.80527590770891" lon="12.287283313461721"><ele>717.8333333333334</ele><time>2026-05-04T08:45:23.001Z</time></trkpt><trkpt lat="43.805313070506564" lon="12.287212665045118"><ele>715.6666666666666</ele><time>2026-05-04T08:45:26.001Z</time></trkpt><trkpt lat="43.805353922199664" lon="12.287118671976767"><ele>713.5</ele><time>2026-05-04T08:45:28.001Z</time></trkpt><trkpt lat="43.80537904927064" lon="12.287003243840541"><ele>711.3333333333333</ele><time>2026-05-04T08:45:30.001Z</time></trkpt><trkpt lat="43.80539525210325" lon="12.286916758589717"><ele>709.1666666666666</ele><time>2026-05-04T08:45:31.001Z</time></trkpt><trkpt lat="43.80541130747747" lon="12.286825282600509"><ele>707.0</ele><time>2026-05-04T08:45:32.001Z</time></trkpt><trkpt lat="43.80550070326863" lon="12.286704919963274"><ele>707.0</ele><time>2026-05-04T08:45:34.001Z</time></trkpt><trkpt lat="43.805563862628055" lon="12.286648873246687"><ele>707.0</ele><time>2026-05-04T08:45:35.001Z</time></trkpt><trkpt lat="43.80560573473591" lon="12.286571426440068"><ele>707.0</ele><time>2026-05-04T08:45:36.001Z</time></trkpt><trkpt lat="43.80564112332694" lon="12.286483627763081"><ele>707.0</ele><time>2026-05-04T08:45:37.001Z</time></trkpt><trkpt lat="43.80565528761983" lon="12.28638243961227"><ele>707.0</ele><time>2026-05-04T08:45:38.001Z</time></trkpt><trkpt lat="43.805665893526616" lon="12.286261630247434"><ele>707.0</ele><time>2026-05-04T08:45:39.001Z</time></trkpt><trkpt lat="43.80567435252293" lon="12.286154096066365"><ele>705.1666666666666</ele><time>2026-05-04T08:45:40.001Z</time></trkpt><trkpt lat="43.8056863173629" lon="12.28602395267179"><ele>703.3333333333333</ele><time>2026-05-04T08:45:41.001Z</time></trkpt><trkpt lat="43.805704345800585" lon="12.285913256565095"><ele>701.5</ele><time>2026-05-04T08:45:42.001Z</time></trkpt><trkpt lat="43.8057203935469" lon="12.285804487001775"><ele>699.6666666666666</ele><time>2026-05-04T08:45:43Z</time></trkpt><trkpt lat="43.80575211615044" lon="12.285707378447974"><ele>697.8333333333334</ele><time>2026-05-04T08:45:44Z</time></trkpt><trkpt lat="43.80579391288941" lon="12.285614923785136"><ele>696.0</ele><time>2026-05-04T08:45:45Z</time></trkpt><trkpt lat="43.80583739147166" lon="12.28554094820225"><ele>693.8333333333334</ele><time>2026-05-04T08:45:46Z</time></trkpt><trkpt lat="43.805941977696605" lon="12.285461192945334"><ele>691.6666666666666</ele><time>2026-05-04T08:45:48Z</time></trkpt><trkpt lat="43.80601142776734" lon="12.285443316473167"><ele>689.5</ele><time>2026-05-04T08:45:49Z</time></trkpt><trkpt lat="43.80608543949262" lon="12.285422508312413"><ele>687.3333333333333</ele><time>2026-05-04T08:45:50Z</time></trkpt><trkpt lat="43.80615259052115" lon="12.285398354077719"><ele>685.1666666666666</ele><time>2026-05-04T08:45:52Z</time></trkpt><trkpt lat="43.80614966468763" lon="12.285256555241356"><ele>683.0</ele><time>2026-05-04T08:45:56Z</time></trkpt><trkpt lat="43.80613809522277" lon="12.285061547163926"><ele>682.1666666666666</ele><time>2026-05-04T08:45:58Z</time></trkpt><trkpt lat="43.80616172544018" lon="12.284959550662764"><ele>681.3333333333333</ele><time>2026-05-04T08:45:59Z</time></trkpt><trkpt lat="43.80619351551866" lon="12.284852129814361"><ele>680.5</ele><time>2026-05-04T08:46:00Z</time></trkpt><trkpt lat="43.80620705050004" lon="12.284745448302115"><ele>679.6666666666666</ele><time>2026-05-04T08:46:01Z</time></trkpt><trkpt lat="43.806229715811845" lon="12.284622091571668"><ele>678.8333333333334</ele><time>2026-05-04T08:46:02Z</time></trkpt><trkpt lat="43.80623107181149" lon="12.28451926517368"><ele>678.0</ele><time>2026-05-04T08:46:03Z</time></trkpt><trkpt lat="43.806220026029976" lon="12.284431543672252"><ele>675.8</ele><time>2026-05-04T08:46:04Z</time></trkpt><trkpt lat="43.806203158816125" lon="12.284313897227618"><ele>673.5999999999999</ele><time>2026-05-04T08:46:05Z</time></trkpt><trkpt lat="43.80617424968119" lon="12.284189186111343"><ele>671.4000000000001</ele><time>2026-05-04T08:46:06Z</time></trkpt><trkpt lat="43.80615541773849" lon="12.284068740266305"><ele>669.2</ele><time>2026-05-04T08:46:07Z</time></trkpt><trkpt lat="43.80614397844938" lon="12.283951877292587"><ele>667.0</ele><time>2026-05-04T08:46:08Z</time></trkpt><trkpt lat="43.80613641152892" lon="12.283811706184068"><ele>665.6666666666667</ele><time>2026-05-04T08:46:09Z</time></trkpt><trkpt lat="43.8061216421383" lon="12.283684803902664"><ele>664.3333333333334</ele><time>2026-05-04T08:46:10Z</time></trkpt><trkpt lat="43.80610681617695" lon="12.28356109347176"><ele>663.0</ele><time>2026-05-04T08:46:11Z</time></trkpt><trkpt lat="43.80608549111111" lon="12.283459072588487"><ele>661.6666666666666</ele><time>2026-05-04T08:46:12Z</time></trkpt><trkpt lat="43.80607470146692" lon="12.283356271552886"><ele>660.3333333333333</ele><time>2026-05-04T08:46:13Z</time></trkpt><trkpt lat="43.806058333317175" lon="12.28325345339166"><ele>659.0</ele><time>2026-05-04T08:46:14Z</time></trkpt><trkpt lat="43.806044902152195" lon="12.283121952165631"><ele>657.5</ele><time>2026-05-04T08:46:16Z</time></trkpt><trkpt lat="43.80602046643482" lon="12.282944713820614"><ele>656.0</ele><time>2026-05-04T08:46:18Z</time></trkpt><trkpt lat="43.80601271147067" lon="12.282858128756537"><ele>654.5</ele><time>2026-05-04T08:46:19Z</time></trkpt><trkpt lat="43.80602184086074" lon="12.282767275585718"><ele>653.0</ele><time>2026-05-04T08:46:20Z</time></trkpt><trkpt lat="43.80601361557572" lon="12.282628225075715"><ele>651.5</ele><time>2026-05-04T08:46:22Z</time></trkpt><trkpt lat="43.805997214604304" lon="12.282541092321168"><ele>650.0</ele><time>2026-05-04T08:46:23Z</time></trkpt><trkpt lat="43.805974272420606" lon="12.282457594145217"><ele>650.0</ele><time>2026-05-04T08:46:24Z</time></trkpt><trkpt lat="43.80596692835964" lon="12.282364528343932"><ele>650.0</ele><time>2026-05-04T08:46:25Z</time></trkpt><trkpt lat="43.80594890250042" lon="12.282195318594312"><ele>650.0</ele><time>2026-05-04T08:46:27Z</time></trkpt><trkpt lat="43.8059307207428" lon="12.282110149842156"><ele>650.0</ele><time>2026-05-04T08:46:28Z</time></trkpt><trkpt lat="43.80590067042484" lon="12.28195306627035"><ele>650.0</ele><time>2026-05-04T08:46:30Z</time></trkpt><trkpt lat="43.805901988026925" lon="12.281759327979643"><ele>648.5</ele><time>2026-05-04T08:46:32Z</time></trkpt><trkpt lat="43.80591923258456" lon="12.281669490093746"><ele>647.0</ele><time>2026-05-04T08:46:33Z</time></trkpt><trkpt lat="43.80597919725834" lon="12.28151945130131"><ele>645.5</ele><time>2026-05-04T08:46:35Z</time></trkpt><trkpt lat="43.80602920608616" lon="12.281446262784439"><ele>644.0</ele><time>2026-05-04T08:46:36Z</time></trkpt><trkpt lat="43.80608875471767" lon="12.281363379522652"><ele>642.5</ele><time>2026-05-04T08:46:37Z</time></trkpt><trkpt lat="43.80614838265237" lon="12.28127888045502"><ele>641.0</ele><time>2026-05-04T08:46:38Z</time></trkpt><trkpt lat="43.8062206491441" lon="12.28119500067811"><ele>638.8333333333333</ele><time>2026-05-04T08:46:39Z</time></trkpt><trkpt lat="43.80629516585517" lon="12.281121491788891"><ele>636.6666666666666</ele><time>2026-05-04T08:46:40Z</time></trkpt><trkpt lat="43.80636352745048" lon="12.281069115174478"><ele>634.5</ele><time>2026-05-04T08:46:41Z</time></trkpt><trkpt lat="43.806424868654524" lon="12.281030857631938"><ele>632.3333333333334</ele><time>2026-05-04T08:46:42Z</time></trkpt><trkpt lat="43.80648790477754" lon="12.280976079467118"><ele>630.1666666666667</ele><time>2026-05-04T08:46:44Z</time></trkpt><trkpt lat="43.80644543737799" lon="12.28089398842175"><ele>628.0</ele><time>2026-05-04T08:46:47Z</time></trkpt><trkpt lat="43.806379426995306" lon="12.280833370579025"><ele>628.0</ele><time>2026-05-04T08:46:50Z</time></trkpt><trkpt lat="43.80630449650099" lon="12.280812679851227"><ele>628.0</ele><time>2026-05-04T08:46:53Z</time></trkpt><trkpt lat="43.80620752776252" lon="12.280802604080504"><ele>628.0</ele><time>2026-05-04T08:46:56Z</time></trkpt><trkpt lat="43.806132078284016" lon="12.28078471028329"><ele>628.0</ele><time>2026-05-04T08:46:58Z</time></trkpt><trkpt lat="43.80600374073432" lon="12.280742296597792"><ele>628.0</ele><time>2026-05-04T08:47:01Z</time></trkpt><trkpt lat="43.80590893702609" lon="12.280706482022895"><ele>628.0</ele><time>2026-05-04T08:47:03Z</time></trkpt><trkpt lat="43.805779480794236" lon="12.28065068494028"><ele>628.0</ele><time>2026-05-04T08:47:05Z</time></trkpt><trkpt lat="43.80570262707762" lon="12.280635765923925"><ele>628.0</ele><time>2026-05-04T08:47:06Z</time></trkpt><trkpt lat="43.80563068264944" lon="12.280582575079205"><ele>628.0</ele><time>2026-05-04T08:47:07Z</time></trkpt><trkpt lat="43.80555879978603" lon="12.28057371228898"><ele>628.0</ele><time>2026-05-04T08:47:08Z</time></trkpt><trkpt lat="43.80549569610055" lon="12.280545683666633"><ele>628.0</ele><time>2026-05-04T08:47:09Z</time></trkpt><trkpt lat="43.80541346378274" lon="12.280511009310592"><ele>626.0</ele><time>2026-05-04T08:47:10Z</time></trkpt><trkpt lat="43.80531682221774" lon="12.280472041813118"><ele>624.0</ele><time>2026-05-04T08:47:11Z</time></trkpt><trkpt lat="43.80523787098858" lon="12.280420001524881"><ele>622.0</ele><time>2026-05-04T08:47:12Z</time></trkpt><trkpt lat="43.80516079223657" lon="12.280395639182153"><ele>620.0</ele><time>2026-05-04T08:47:13Z</time></trkpt><trkpt lat="43.805089560558" lon="12.280376724608471"><ele>618.0</ele><time>2026-05-04T08:47:14Z</time></trkpt><trkpt lat="43.805015197301586" lon="12.280361271429742"><ele>616.0</ele><time>2026-05-04T08:47:15Z</time></trkpt><trkpt lat="43.80492805421463" lon="12.280370801912687"><ele>615.2</ele><time>2026-05-04T08:47:16Z</time></trkpt><trkpt lat="43.80484597219227" lon="12.280406216788032"><ele>614.4000000000001</ele><time>2026-05-04T08:47:17Z</time></trkpt><trkpt lat="43.804750135407396" lon="12.280452750171781"><ele>613.6</ele><time>2026-05-04T08:47:18Z</time></trkpt><trkpt lat="43.80466141505636" lon="12.28050045255083"><ele>612.8000000000001</ele><time>2026-05-04T08:47:19Z</time></trkpt><trkpt lat="43.804566041330155" lon="12.280551805355222"><ele>612.0</ele><time>2026-05-04T08:47:20Z</time></trkpt><trkpt lat="43.80447895529707" lon="12.280598697453968"><ele>613.5</ele><time>2026-05-04T08:47:21Z</time></trkpt><trkpt lat="43.80439489252658" lon="12.280642862223312"><ele>615.0</ele><time>2026-05-04T08:47:22Z</time></trkpt><trkpt lat="43.80432675509166" lon="12.280677257177373"><ele>616.5</ele><time>2026-05-04T08:47:23Z</time></trkpt><trkpt lat="43.8042461627545" lon="12.28071793928287"><ele>618.0</ele><time>2026-05-04T08:47:24Z</time></trkpt><trkpt lat="43.80417759344653" lon="12.280716375007167"><ele>619.5</ele><time>2026-05-04T08:47:25Z</time></trkpt><trkpt lat="43.80410673906966" lon="12.280694137188291"><ele>621.0</ele><time>2026-05-04T08:47:26Z</time></trkpt><trkpt lat="43.80403334076529" lon="12.280688653384955"><ele>621.0</ele><time>2026-05-04T08:47:27Z</time></trkpt><trkpt lat="43.80395410660122" lon="12.280682733572595"><ele>621.0</ele><time>2026-05-04T08:47:28Z</time></trkpt><trkpt lat="43.80385073094334" lon="12.280847452846215"><ele>621.0</ele><time>2026-05-04T08:47:29Z</time></trkpt><trkpt lat="43.8037663001399" lon="12.280870261712652"><ele>621.0</ele><time>2026-05-04T08:47:30Z</time></trkpt><trkpt lat="43.80369394182176" lon="12.280894862741848"><ele>621.0</ele><time>2026-05-04T08:47:31Z</time></trkpt><trkpt lat="43.803624683080585" lon="12.280924415777836"><ele>621.0</ele><time>2026-05-04T08:47:32Z</time></trkpt><trkpt lat="43.80355582139386" lon="12.28095933895752"><ele>621.0</ele><time>2026-05-04T08:47:33Z</time></trkpt><trkpt lat="43.80349120409456" lon="12.281021930896955"><ele>621.0</ele><time>2026-05-04T08:47:34Z</time></trkpt><trkpt lat="43.80342489453073" lon="12.281068592727982"><ele>621.0</ele><time>2026-05-04T08:47:35Z</time></trkpt><trkpt lat="43.80335324951161" lon="12.281134279826063"><ele>621.0</ele><time>2026-05-04T08:47:36Z</time></trkpt><trkpt lat="43.803264928001184" lon="12.281210520549983"><ele>621.0</ele><time>2026-05-04T08:47:37Z</time></trkpt><trkpt lat="43.80319784677096" lon="12.281281529797962"><ele>620.5</ele><time>2026-05-04T08:47:38Z</time></trkpt><trkpt lat="43.80314455479481" lon="12.28135138219695"><ele>620.0</ele><time>2026-05-04T08:47:39Z</time></trkpt><trkpt lat="43.803089463083495" lon="12.281417109446414"><ele>619.5</ele><time>2026-05-04T08:47:40Z</time></trkpt><trkpt lat="43.80297698719854" lon="12.281480344247166"><ele>619.0</ele><time>2026-05-04T08:47:42Z</time></trkpt><trkpt lat="43.802901786780296" lon="12.281479375208436"><ele>618.5</ele><time>2026-05-04T08:47:43Z</time></trkpt><trkpt lat="43.80282127801189" lon="12.281501253857884"><ele>618.0</ele><time>2026-05-04T08:47:44Z</time></trkpt><trkpt lat="43.80275846391219" lon="12.281545064530677"><ele>618.6666666666666</ele><time>2026-05-04T08:47:45Z</time></trkpt><trkpt lat="43.80269261308071" lon="12.281609693616968"><ele>619.3333333333334</ele><time>2026-05-04T08:47:46Z</time></trkpt><trkpt lat="43.80263149207529" lon="12.28164576608575"><ele>620.0</ele><time>2026-05-04T08:47:47.001Z</time></trkpt><trkpt lat="43.802571280670016" lon="12.281679687244306"><ele>620.6666666666667</ele><time>2026-05-04T08:47:48.001Z</time></trkpt><trkpt lat="43.80249499631609" lon="12.281731050150013"><ele>621.3333333333334</ele><time>2026-05-04T08:47:49Z</time></trkpt><trkpt lat="43.80243753878642" lon="12.281827948443457"><ele>622.0</ele><time>2026-05-04T08:47:52Z</time></trkpt><trkpt lat="43.802433967141795" lon="12.281926478025813"><ele>622.0</ele><time>2026-05-04T08:47:53Z</time></trkpt><trkpt lat="43.80244338629236" lon="12.28204928766023"><ele>622.0</ele><time>2026-05-04T08:47:54Z</time></trkpt><trkpt lat="43.802451217448315" lon="12.28214915072416"><ele>622.0</ele><time>2026-05-04T08:47:55Z</time></trkpt><trkpt lat="43.80239399739683" lon="12.282221870429911"><ele>622.0</ele><time>2026-05-04T08:47:57Z</time></trkpt><trkpt lat="43.80230766503168" lon="12.282223452669443"><ele>622.0</ele><time>2026-05-04T08:47:58Z</time></trkpt><trkpt lat="43.802181385656354" lon="12.282243740715703"><ele>623.8000000000001</ele><time>2026-05-04T08:47:59Z</time></trkpt><trkpt lat="43.802051801811125" lon="12.28227547902704"><ele>625.6</ele><time>2026-05-04T08:48:00Z</time></trkpt><trkpt lat="43.80194864259829" lon="12.282289185304998"><ele>627.4000000000001</ele><time>2026-05-04T08:48:01Z</time></trkpt><trkpt lat="43.80184972658461" lon="12.282292721734308"><ele>629.2</ele><time>2026-05-04T08:48:02Z</time></trkpt><trkpt lat="43.801735369568696" lon="12.282285891178617"><ele>631.0</ele><time>2026-05-04T08:48:03Z</time></trkpt><trkpt lat="43.80160849224389" lon="12.282291131261285"><ele>632.4</ele><time>2026-05-04T08:48:04Z</time></trkpt><trkpt lat="43.80150627663001" lon="12.282298461906766"><ele>633.8</ele><time>2026-05-04T08:48:05Z</time></trkpt><trkpt lat="43.80143912950658" lon="12.282311081288835"><ele>635.1999999999999</ele><time>2026-05-04T08:48:06Z</time></trkpt><trkpt lat="43.80132387558304" lon="12.282334727527873"><ele>636.6</ele><time>2026-05-04T08:48:08Z</time></trkpt><trkpt lat="43.801257000107874" lon="12.282365353886137"><ele>638.0</ele><time>2026-05-04T08:48:09Z</time></trkpt><trkpt lat="43.80115825785609" lon="12.282388411074992"><ele>638.0</ele><time>2026-05-04T08:48:11Z</time></trkpt><trkpt lat="43.80106543266128" lon="12.282356684174568"><ele>638.0</ele><time>2026-05-04T08:48:17Z</time></trkpt><trkpt lat="43.801005804923655" lon="12.282325792821306"><ele>638.0</ele><time>2026-05-04T08:48:18Z</time></trkpt><trkpt lat="43.800930961273046" lon="12.282281362675041"><ele>638.0</ele><time>2026-05-04T08:48:19Z</time></trkpt><trkpt lat="43.80085318766239" lon="12.282238367987445"><ele>638.0</ele><time>2026-05-04T08:48:20Z</time></trkpt><trkpt lat="43.80077256177488" lon="12.282190093077306"><ele>638.0</ele><time>2026-05-04T08:48:21Z</time></trkpt><trkpt lat="43.80071396808248" lon="12.282139400524509"><ele>636.0</ele><time>2026-05-04T08:48:22Z</time></trkpt><trkpt lat="43.80065956908227" lon="12.28207491385652"><ele>634.0</ele><time>2026-05-04T08:48:23Z</time></trkpt><trkpt lat="43.80059551489111" lon="12.282000227079921"><ele>632.0</ele><time>2026-05-04T08:48:24Z</time></trkpt><trkpt lat="43.80053854787892" lon="12.281944286200755"><ele>630.0</ele><time>2026-05-04T08:48:25Z</time></trkpt><trkpt lat="43.80047881487289" lon="12.281811870291"><ele>628.0</ele><time>2026-05-04T08:48:27Z</time></trkpt><trkpt lat="43.800409503311414" lon="12.281746627936084"><ele>626.0</ele><time>2026-05-04T08:48:29Z</time></trkpt><trkpt lat="43.800282588367466" lon="12.281796597227897"><ele>626.0</ele><time>2026-05-04T08:48:31Z</time></trkpt><trkpt lat="43.80020513327188" lon="12.281848983809063"><ele>626.0</ele><time>2026-05-04T08:48:32.001Z</time></trkpt><trkpt lat="43.80012695880167" lon="12.281879662901535"><ele>626.0</ele><time>2026-05-04T08:48:34.001Z</time></trkpt><trkpt lat="43.800059739242386" lon="12.281886491335369"><ele>626.0</ele><time>2026-05-04T08:48:35.001Z</time></trkpt><trkpt lat="43.79994837775098" lon="12.281840204948097"><ele>626.0</ele><time>2026-05-04T08:48:37.001Z</time></trkpt><trkpt lat="43.799891711033865" lon="12.28177420568727"><ele>626.0</ele><time>2026-05-04T08:48:38.001Z</time></trkpt><trkpt lat="43.799820811019856" lon="12.281722263275318"><ele>626.1666666666666</ele><time>2026-05-04T08:48:39.001Z</time></trkpt><trkpt lat="43.79975125006489" lon="12.281696243093352"><ele>626.3333333333333</ele><time>2026-05-04T08:48:40.001Z</time></trkpt><trkpt lat="43.79968927338282" lon="12.281680498422292"><ele>626.5</ele><time>2026-05-04T08:48:41.001Z</time></trkpt><trkpt lat="43.79961303722647" lon="12.281631939930191"><ele>626.6666666666666</ele><time>2026-05-04T08:48:42.001Z</time></trkpt><trkpt lat="43.79953563422391" lon="12.281585550824405"><ele>626.8333333333334</ele><time>2026-05-04T08:48:43.001Z</time></trkpt><trkpt lat="43.799470228875634" lon="12.281553859167804"><ele>627.0</ele><time>2026-05-04T08:48:44.001Z</time></trkpt><trkpt lat="43.79934717781358" lon="12.281523405492814"><ele>627.0</ele><time>2026-05-04T08:48:46.001Z</time></trkpt><trkpt lat="43.79922122199373" lon="12.28149152206844"><ele>627.0</ele><time>2026-05-04T08:48:48.001Z</time></trkpt><trkpt lat="43.79915555833497" lon="12.281475262095464"><ele>627.0</ele><time>2026-05-04T08:48:49.001Z</time></trkpt><trkpt lat="43.79908017295123" lon="12.281453952079328"><ele>627.0</ele><time>2026-05-04T08:48:50.001Z</time></trkpt><trkpt lat="43.7989970292043" lon="12.28143107350615"><ele>627.0</ele><time>2026-05-04T08:48:52.001Z</time></trkpt><trkpt lat="43.798888741443044" lon="12.281426932901493"><ele>624.1666666666666</ele><time>2026-05-04T08:48:54.001Z</time></trkpt><trkpt lat="43.79882904233276" lon="12.28138889106022"><ele>621.3333333333334</ele><time>2026-05-04T08:48:55.001Z</time></trkpt><trkpt lat="43.79872272593412" lon="12.281423930522402"><ele>618.5</ele><time>2026-05-04T08:48:57.001Z</time></trkpt><trkpt lat="43.79865138106786" lon="12.281404238717599"><ele>615.6666666666667</ele><time>2026-05-04T08:48:59.001Z</time></trkpt><trkpt lat="43.79858291374915" lon="12.281301540973523"><ele>612.8333333333334</ele><time>2026-05-04T08:49:03.001Z</time></trkpt><trkpt lat="43.798558929168735" lon="12.281205611120887"><ele>610.0</ele><time>2026-05-04T08:49:06.001Z</time></trkpt><trkpt lat="43.79858699995716" lon="12.281086442206671"><ele>610.0</ele><time>2026-05-04T08:49:10.001Z</time></trkpt><trkpt lat="43.79864891944548" lon="12.28098902727471"><ele>610.0</ele><time>2026-05-04T08:49:12.001Z</time></trkpt><trkpt lat="43.79864744692051" lon="12.280838040130106"><ele>610.0</ele><time>2026-05-04T08:49:14.001Z</time></trkpt><trkpt lat="43.79865104568037" lon="12.280704105972436"><ele>610.0</ele><time>2026-05-04T08:49:16.001Z</time></trkpt><trkpt lat="43.79872000470507" lon="12.280604058042124"><ele>610.0</ele><time>2026-05-04T08:49:18.001Z</time></trkpt><trkpt lat="43.79876775697222" lon="12.280528260764425"><ele>607.8333333333334</ele><time>2026-05-04T08:49:19.001Z</time></trkpt><trkpt lat="43.798825388411714" lon="12.28044808279657"><ele>605.6666666666667</ele><time>2026-05-04T08:49:20.001Z</time></trkpt><trkpt lat="43.79888999455449" lon="12.280376715003186"><ele>603.5</ele><time>2026-05-04T08:49:21.001Z</time></trkpt><trkpt lat="43.798954684265304" lon="12.28027801675307"><ele>601.3333333333334</ele><time>2026-05-04T08:49:24.001Z</time></trkpt><trkpt lat="43.799006259173055" lon="12.28013353097882"><ele>599.1666666666666</ele><time>2026-05-04T08:49:26.001Z</time></trkpt><trkpt lat="43.799006326836135" lon="12.28004085336977"><ele>597.0</ele><time>2026-05-04T08:49:27.001Z</time></trkpt><trkpt lat="43.79899782497558" lon="12.279899666504624"><ele>594.6</ele><time>2026-05-04T08:49:29.001Z</time></trkpt><trkpt lat="43.79898071497666" lon="12.279717738409445"><ele>592.2</ele><time>2026-05-04T08:49:31.001Z</time></trkpt><trkpt lat="43.79898498904599" lon="12.2796182160083"><ele>589.8</ele><time>2026-05-04T08:49:32.001Z</time></trkpt><trkpt lat="43.79899828769185" lon="12.279508251421195"><ele>587.4</ele><time>2026-05-04T08:49:33.001Z</time></trkpt><trkpt lat="43.7989690738363" lon="12.279399370954819"><ele>585.0</ele><time>2026-05-04T08:49:36.001Z</time></trkpt><trkpt lat="43.79889233194672" lon="12.279305060240802"><ele>585.0</ele><time>2026-05-04T08:49:38.001Z</time></trkpt><trkpt lat="43.798809206831244" lon="12.279310865519786"><ele>585.0</ele><time>2026-05-04T08:49:40.001Z</time></trkpt><trkpt lat="43.79874632411803" lon="12.279299276318122"><ele>585.0</ele><time>2026-05-04T08:49:41.001Z</time></trkpt><trkpt lat="43.79868443946442" lon="12.27927236772688"><ele>585.0</ele><time>2026-05-04T08:49:42.001Z</time></trkpt><trkpt lat="43.79861750789583" lon="12.27934951639214"><ele>585.0</ele><time>2026-05-04T08:49:45.001Z</time></trkpt><trkpt lat="43.79859220368006" lon="12.27943176923454"><ele>585.0</ele><time>2026-05-04T08:49:53.001Z</time></trkpt><trkpt lat="43.798567362484796" lon="12.279583679370518"><ele>585.0</ele><time>2026-05-04T08:49:59.001Z</time></trkpt><trkpt lat="43.798539680063605" lon="12.279665741922285"><ele>585.0</ele><time>2026-05-04T08:50:01.001Z</time></trkpt><trkpt lat="43.79846775649766" lon="12.279695456420905"><ele>585.0</ele><time>2026-05-04T08:50:03.001Z</time></trkpt><trkpt lat="43.798402276742905" lon="12.279711872413333"><ele>585.0</ele><time>2026-05-04T08:54:08.001Z</time></trkpt><trkpt lat="43.79831732263876" lon="12.27975762027898"><ele>585.0</ele><time>2026-05-04T08:54:11.001Z</time></trkpt><trkpt lat="43.79826882931695" lon="12.279815111104691"><ele>585.0</ele><time>2026-05-04T08:54:14.001Z</time></trkpt><trkpt lat="43.798204056627654" lon="12.279839149409563"><ele>585.0</ele><time>2026-05-04T08:54:18.001Z</time></trkpt><trkpt lat="43.79812177806652" lon="12.279870088618663"><ele>586.5</ele><time>2026-05-04T08:54:22Z</time></trkpt><trkpt lat="43.79806150932336" lon="12.27982870496046"><ele>588.0</ele><time>2026-05-04T08:54:24Z</time></trkpt><trkpt lat="43.79801710085849" lon="12.279763895511987"><ele>589.5</ele><time>2026-05-04T08:54:26Z</time></trkpt><trkpt lat="43.79796878397906" lon="12.279700829763792"><ele>591.0</ele><time>2026-05-04T08:54:28Z</time></trkpt><trkpt lat="43.797869229021295" lon="12.279685929540237"><ele>592.5</ele><time>2026-05-04T08:54:30Z</time></trkpt><trkpt lat="43.79780007770534" lon="12.279675511814327"><ele>594.0</ele><time>2026-05-04T08:54:37Z</time></trkpt><trkpt lat="43.797717997651" lon="12.279687866969812"><ele>598.4</ele><time>2026-05-04T08:54:39Z</time></trkpt><trkpt lat="43.79762220645627" lon="12.279665299460465"><ele>602.8</ele><time>2026-05-04T08:54:41Z</time></trkpt><trkpt lat="43.797566850287936" lon="12.279621783120886"><ele>607.2</ele><time>2026-05-04T08:54:43Z</time></trkpt><trkpt lat="43.79746322653881" lon="12.27961843004122"><ele>611.6</ele><time>2026-05-04T08:54:45Z</time></trkpt><trkpt lat="43.7974068631307" lon="12.279523499284759"><ele>616.0</ele><time>2026-05-04T08:54:47Z</time></trkpt><trkpt lat="43.79731371024873" lon="12.279468604595403"><ele>616.0</ele><time>2026-05-04T08:54:49Z</time></trkpt><trkpt lat="43.79727335854177" lon="12.279333461045242"><ele>616.0</ele><time>2026-05-04T08:54:51Z</time></trkpt><trkpt lat="43.79723911574313" lon="12.279233186551995"><ele>616.0</ele><time>2026-05-04T08:54:52Z</time></trkpt><trkpt lat="43.79720068761519" lon="12.279116580145848"><ele>616.0</ele><time>2026-05-04T08:54:53Z</time></trkpt><trkpt lat="43.79717361424209" lon="12.278949029805476"><ele>616.0</ele><time>2026-05-04T08:54:55Z</time></trkpt><trkpt lat="43.79714354662145" lon="12.278853911400143"><ele>617.3333333333334</ele><time>2026-05-04T08:54:57Z</time></trkpt><trkpt lat="43.797109285744185" lon="12.27876453436425"><ele>618.6666666666667</ele><time>2026-05-04T08:55:26Z</time></trkpt><trkpt lat="43.79715091490224" lon="12.278617175485394"><ele>620.0</ele><time>2026-05-04T08:55:28Z</time></trkpt><trkpt lat="43.79717205133898" lon="12.278520844915159"><ele>621.3333333333334</ele><time>2026-05-04T08:55:29Z</time></trkpt><trkpt lat="43.79720055500319" lon="12.278406204791725"><ele>622.6666666666666</ele><time>2026-05-04T08:55:30Z</time></trkpt><trkpt lat="43.79725562490225" lon="12.278338252240065"><ele>624.0</ele><time>2026-05-04T08:55:32Z</time></trkpt><trkpt lat="43.79727010873726" lon="12.278192132055104"><ele>624.0</ele><time>2026-05-04T08:55:36Z</time></trkpt><trkpt lat="43.79727639600176" lon="12.278104899577983"><ele>624.0</ele><time>2026-05-04T08:55:37Z</time></trkpt><trkpt lat="43.79725370241141" lon="12.277944678054938"><ele>624.0</ele><time>2026-05-04T08:55:39Z</time></trkpt><trkpt lat="43.797249477139935" lon="12.277829643459492"><ele>624.0</ele><time>2026-05-04T08:55:41Z</time></trkpt><trkpt lat="43.797192167629966" lon="12.277723505964717"><ele>624.0</ele><time>2026-05-04T08:55:43Z</time></trkpt><trkpt lat="43.797099164369854" lon="12.277548027563176"><ele>624.8</ele><time>2026-05-04T08:55:45Z</time></trkpt><trkpt lat="43.797031648090176" lon="12.277483126291415"><ele>625.5999999999999</ele><time>2026-05-04T08:55:46Z</time></trkpt><trkpt lat="43.796980377339494" lon="12.277429380073727"><ele>626.4</ele><time>2026-05-04T08:55:47Z</time></trkpt><trkpt lat="43.79688325666196" lon="12.277365598496425"><ele>627.1999999999999</ele><time>2026-05-04T08:55:49Z</time></trkpt><trkpt lat="43.796785254563325" lon="12.277337941213588"><ele>628.0</ele><time>2026-05-04T08:55:51Z</time></trkpt><trkpt lat="43.796711182320465" lon="12.277423617019632"><ele>631.1666666666667</ele><time>2026-05-04T08:55:53Z</time></trkpt><trkpt lat="43.79669017161251" lon="12.277553576251455"><ele>634.3333333333334</ele><time>2026-05-04T08:55:55Z</time></trkpt><trkpt lat="43.796629529525404" lon="12.277490407934026"><ele>637.5</ele><time>2026-05-04T08:55:57Z</time></trkpt><trkpt lat="43.796579904842766" lon="12.27734620690943"><ele>640.6666666666666</ele><time>2026-05-04T08:55:59Z</time></trkpt><trkpt lat="43.796542353096086" lon="12.27726578715686"><ele>643.8333333333333</ele><time>2026-05-04T08:56:00.001Z</time></trkpt><trkpt lat="43.796513809012616" lon="12.277152347654045"><ele>647.0</ele><time>2026-05-04T08:56:02.001Z</time></trkpt><trkpt lat="43.79642173762891" lon="12.277002012274954"><ele>647.5</ele><time>2026-05-04T08:56:06.001Z</time></trkpt><trkpt lat="43.796366180452615" lon="12.276954245938308"><ele>648.0</ele><time>2026-05-04T08:56:08.001Z</time></trkpt><trkpt lat="43.796309948156065" lon="12.276843445852203"><ele>648.5</ele><time>2026-05-04T08:56:10.001Z</time></trkpt><trkpt lat="43.79622711650464" lon="12.276706567585416"><ele>649.0</ele><time>2026-05-04T08:56:12.001Z</time></trkpt><trkpt lat="43.79618613463248" lon="12.276618865252647"><ele>649.5</ele><time>2026-05-04T08:56:13Z</time></trkpt><trkpt lat="43.796162276890314" lon="12.2765280722024"><ele>650.0</ele><time>2026-05-04T08:56:14Z</time></trkpt><trkpt lat="43.79616530121489" lon="12.276436909328309"><ele>650.1666666666666</ele><time>2026-05-04T08:56:15Z</time></trkpt><trkpt lat="43.79618544916673" lon="12.276261247014867"><ele>650.3333333333333</ele><time>2026-05-04T08:56:17Z</time></trkpt><trkpt lat="43.79613516083764" lon="12.276145257125075"><ele>650.5</ele><time>2026-05-04T08:56:18Z</time></trkpt><trkpt lat="43.79612917438928" lon="12.276049314982098"><ele>650.6666666666666</ele><time>2026-05-04T08:56:19Z</time></trkpt><trkpt lat="43.796124240574464" lon="12.27596018187295"><ele>650.8333333333334</ele><time>2026-05-04T08:56:20Z</time></trkpt><trkpt lat="43.79610989067081" lon="12.275865495114486"><ele>651.0</ele><time>2026-05-04T08:56:21Z</time></trkpt><trkpt lat="43.7961118061767" lon="12.275756480913797"><ele>651.0</ele><time>2026-05-04T08:56:22Z</time></trkpt><trkpt lat="43.796114684062665" lon="12.275668958254682"><ele>651.0</ele><time>2026-05-04T08:56:23Z</time></trkpt><trkpt lat="43.796132468926004" lon="12.275553598659945"><ele>651.0</ele><time>2026-05-04T08:56:25Z</time></trkpt><trkpt lat="43.79613598630268" lon="12.275442013038477"><ele>651.0</ele><time>2026-05-04T08:56:26Z</time></trkpt><trkpt lat="43.796129070229014" lon="12.275349960223938"><ele>651.0</ele><time>2026-05-04T08:56:27Z</time></trkpt><trkpt lat="43.79614441019191" lon="12.27524227021101"><ele>651.0</ele><time>2026-05-04T08:56:29Z</time></trkpt><trkpt lat="43.79622405337261" lon="12.275193123136136"><ele>652.3333333333334</ele><time>2026-05-04T08:56:31Z</time></trkpt><trkpt lat="43.796253085489504" lon="12.275080351914148"><ele>653.6666666666666</ele><time>2026-05-04T08:56:33Z</time></trkpt><trkpt lat="43.796200197110075" lon="12.274925269448293"><ele>655.0</ele><time>2026-05-04T08:56:35Z</time></trkpt><trkpt lat="43.7961556043744" lon="12.274847601380566"><ele>656.3333333333333</ele><time>2026-05-04T08:56:36Z</time></trkpt><trkpt lat="43.796116106243375" lon="12.274765556032719"><ele>657.6666666666666</ele><time>2026-05-04T08:56:37Z</time></trkpt><trkpt lat="43.79609281401898" lon="12.274678181199038"><ele>659.0</ele><time>2026-05-04T08:56:38Z</time></trkpt><trkpt lat="43.79607995460113" lon="12.274574262209688"><ele>660.2857142857143</ele><time>2026-05-04T08:56:39Z</time></trkpt><trkpt lat="43.79606952804961" lon="12.274454038285"><ele>661.5714285714286</ele><time>2026-05-04T08:56:40Z</time></trkpt><trkpt lat="43.79605932284116" lon="12.274355222923113"><ele>662.8571428571429</ele><time>2026-05-04T08:56:41Z</time></trkpt><trkpt lat="43.796051992262626" lon="12.274244466657283"><ele>664.1428571428571</ele><time>2026-05-04T08:56:42Z</time></trkpt><trkpt lat="43.79606045096607" lon="12.274150339873383"><ele>665.4285714285714</ele><time>2026-05-04T08:56:43Z</time></trkpt><trkpt lat="43.796078046410635" lon="12.274065831903016"><ele>666.7142857142857</ele><time>2026-05-04T08:56:44Z</time></trkpt><trkpt lat="43.796048815066484" lon="12.273967436619252"><ele>668.0</ele><time>2026-05-04T08:56:47Z</time></trkpt><trkpt lat="43.79598925517671" lon="12.273812038247929"><ele>668.3333333333333</ele><time>2026-05-04T08:56:51Z</time></trkpt><trkpt lat="43.79596190836497" lon="12.27370824478893"><ele>668.6666666666666</ele><time>2026-05-04T08:56:52Z</time></trkpt><trkpt lat="43.79594368462979" lon="12.273610506259573"><ele>669.0</ele><time>2026-05-04T08:56:53Z</time></trkpt><trkpt lat="43.795939116736484" lon="12.273511586512607"><ele>669.3333333333334</ele><time>2026-05-04T08:56:54Z</time></trkpt><trkpt lat="43.79589334162342" lon="12.27335445835139"><ele>669.6666666666667</ele><time>2026-05-04T08:56:56Z</time></trkpt><trkpt lat="43.79584896693775" lon="12.273287319531091"><ele>670.0</ele><time>2026-05-04T08:56:57Z</time></trkpt><trkpt lat="43.79579986905326" lon="12.273215919597025"><ele>670.0</ele><time>2026-05-04T08:56:58Z</time></trkpt><trkpt lat="43.795747056752155" lon="12.273149237101707"><ele>670.0</ele><time>2026-05-04T08:56:59Z</time></trkpt><trkpt lat="43.795697293365194" lon="12.273077798349583"><ele>670.0</ele><time>2026-05-04T08:57:00Z</time></trkpt><trkpt lat="43.79565303491589" lon="12.273005872731677"><ele>670.0</ele><time>2026-05-04T08:57:01Z</time></trkpt><trkpt lat="43.79560474305714" lon="12.272919739921011"><ele>670.0</ele><time>2026-05-04T08:57:02Z</time></trkpt><trkpt lat="43.795572462263515" lon="12.272833355350487"><ele>670.0</ele><time>2026-05-04T08:57:03Z</time></trkpt><trkpt lat="43.79548794948612" lon="12.272749164099942"><ele>667.6666666666667</ele><time>2026-05-04T08:57:04Z</time></trkpt><trkpt lat="43.795422213662626" lon="12.272685992540183"><ele>665.3333333333334</ele><time>2026-05-04T08:57:05Z</time></trkpt><trkpt lat="43.79535528293765" lon="12.27264068662247"><ele>663.0</ele><time>2026-05-04T08:57:06Z</time></trkpt><trkpt lat="43.795314204458954" lon="12.272567798175388"><ele>660.6666666666666</ele><time>2026-05-04T08:57:08Z</time></trkpt><trkpt lat="43.795313314669414" lon="12.272419029086242"><ele>658.3333333333333</ele><time>2026-05-04T08:57:10Z</time></trkpt><trkpt lat="43.79534967473327" lon="12.272338266764947"><ele>656.0</ele><time>2026-05-04T08:57:11Z</time></trkpt><trkpt lat="43.795401136481104" lon="12.272256628068433"><ele>655.0</ele><time>2026-05-04T08:57:12Z</time></trkpt><trkpt lat="43.79544904066961" lon="12.272154111056063"><ele>654.0</ele><time>2026-05-04T08:57:13Z</time></trkpt><trkpt lat="43.79549255544472" lon="12.272061893254339"><ele>653.0</ele><time>2026-05-04T08:57:14Z</time></trkpt><trkpt lat="43.795533212757086" lon="12.271962377105707"><ele>652.0</ele><time>2026-05-04T08:57:15Z</time></trkpt><trkpt lat="43.79557207312909" lon="12.27184671978422"><ele>651.0</ele><time>2026-05-04T08:57:16Z</time></trkpt><trkpt lat="43.79560861197586" lon="12.271739560374426"><ele>650.0</ele><time>2026-05-04T08:57:17Z</time></trkpt><trkpt lat="43.795642446891335" lon="12.271618838779059"><ele>650.0</ele><time>2026-05-04T08:57:18Z</time></trkpt><trkpt lat="43.79565724492549" lon="12.271529727727454"><ele>650.0</ele><time>2026-05-04T08:57:19Z</time></trkpt><trkpt lat="43.79567412265876" lon="12.271407641338776"><ele>650.0</ele><time>2026-05-04T08:57:20Z</time></trkpt><trkpt lat="43.79569340210378" lon="12.271295963900837"><ele>650.0</ele><time>2026-05-04T08:57:21Z</time></trkpt><trkpt lat="43.795710856581564" lon="12.271185920543742"><ele>650.0</ele><time>2026-05-04T08:57:22Z</time></trkpt><trkpt lat="43.79573005288811" lon="12.270995959837919"><ele>649.6666666666666</ele><time>2026-05-04T08:57:24Z</time></trkpt><trkpt lat="43.795750388523096" lon="12.270867544445613"><ele>649.3333333333333</ele><time>2026-05-04T08:57:25Z</time></trkpt><trkpt lat="43.795772092815234" lon="12.270769283302783"><ele>649.0</ele><time>2026-05-04T08:57:26Z</time></trkpt><trkpt lat="43.79579707994054" lon="12.270666153353654"><ele>648.6666666666666</ele><time>2026-05-04T08:57:27Z</time></trkpt><trkpt lat="43.79582799555281" lon="12.270570626621527"><ele>648.3333333333334</ele><time>2026-05-04T08:57:28Z</time></trkpt><trkpt lat="43.79587333552881" lon="12.27046326162745"><ele>648.0</ele><time>2026-05-04T08:57:29Z</time></trkpt><trkpt lat="43.7959322945605" lon="12.270369512459137"><ele>646.4</ele><time>2026-05-04T08:57:30Z</time></trkpt><trkpt lat="43.79600821376465" lon="12.270310159504028"><ele>644.8</ele><time>2026-05-04T08:57:31Z</time></trkpt><trkpt lat="43.79608616690299" lon="12.270246396504705"><ele>643.2</ele><time>2026-05-04T08:57:32Z</time></trkpt><trkpt lat="43.79616262485921" lon="12.270174085438308"><ele>641.6</ele><time>2026-05-04T08:57:33Z</time></trkpt><trkpt lat="43.79624171775621" lon="12.270086829553271"><ele>640.0</ele><time>2026-05-04T08:57:34Z</time></trkpt><trkpt lat="43.79630347202726" lon="12.27000932328083"><ele>640.0</ele><time>2026-05-04T08:57:35Z</time></trkpt><trkpt lat="43.796348397365605" lon="12.269931310724871"><ele>640.0</ele><time>2026-05-04T08:57:36Z</time></trkpt><trkpt lat="43.79638607520675" lon="12.269835461117614"><ele>640.0</ele><time>2026-05-04T08:57:37Z</time></trkpt><trkpt lat="43.79641974449456" lon="12.269729045944908"><ele>640.0</ele><time>2026-05-04T08:57:38Z</time></trkpt><trkpt lat="43.79645483909178" lon="12.269620636191155"><ele>640.0</ele><time>2026-05-04T08:57:39Z</time></trkpt><trkpt lat="43.79648962736863" lon="12.269489513924132"><ele>640.0</ele><time>2026-05-04T08:57:40Z</time></trkpt><trkpt lat="43.796523926310726" lon="12.269385212195438"><ele>639.5</ele><time>2026-05-04T08:57:41Z</time></trkpt><trkpt lat="43.79657674433856" lon="12.269283804719358"><ele>639.0</ele><time>2026-05-04T08:57:42Z</time></trkpt><trkpt lat="43.796625744152166" lon="12.269196268544938"><ele>638.5</ele><time>2026-05-04T08:57:43Z</time></trkpt><trkpt lat="43.796727620053815" lon="12.269163468119716"><ele>638.0</ele><time>2026-05-04T08:57:45Z</time></trkpt><trkpt lat="43.79679223474531" lon="12.269166488657717"><ele>637.5</ele><time>2026-05-04T08:57:46Z</time></trkpt><trkpt lat="43.79687097131441" lon="12.269162418533908"><ele>637.0</ele><time>2026-05-04T08:57:47Z</time></trkpt><trkpt lat="43.7969504667761" lon="12.269164798633009"><ele>637.0</ele><time>2026-05-04T08:57:48Z</time></trkpt><trkpt lat="43.79702470135009" lon="12.269145547873364"><ele>637.0</ele><time>2026-05-04T08:57:49Z</time></trkpt><trkpt lat="43.79712285696112" lon="12.269101595986916"><ele>637.0</ele><time>2026-05-04T08:57:51Z</time></trkpt><trkpt lat="43.797158683436855" lon="12.269027108696458"><ele>637.0</ele><time>2026-05-04T08:58:13Z</time></trkpt><trkpt lat="43.797100544539525" lon="12.268983758908382"><ele>637.0</ele><time>2026-05-04T08:58:15Z</time></trkpt><trkpt lat="43.79701406368578" lon="12.268918473290475"><ele>637.0</ele><time>2026-05-04T08:58:17Z</time></trkpt><trkpt lat="43.796926380871035" lon="12.268856898363882"><ele>636.8333333333334</ele><time>2026-05-04T08:58:19Z</time></trkpt><trkpt lat="43.796858020861144" lon="12.268782717390916"><ele>636.6666666666667</ele><time>2026-05-04T08:58:21Z</time></trkpt><trkpt lat="43.79676753070013" lon="12.268709501313616"><ele>636.5</ele><time>2026-05-04T08:58:23Z</time></trkpt><trkpt lat="43.79670376760014" lon="12.268650506213596"><ele>636.3333333333334</ele><time>2026-05-04T08:58:25Z</time></trkpt><trkpt lat="43.796654541432105" lon="12.268587111747372"><ele>636.1666666666666</ele><time>2026-05-04T08:58:26Z</time></trkpt><trkpt lat="43.79660539812039" lon="12.26852382402917"><ele>636.0</ele><time>2026-05-04T08:58:27Z</time></trkpt><trkpt lat="43.79656378211663" lon="12.26840501744635"><ele>650.0</ele><time>2026-05-04T08:58:29Z</time></trkpt><trkpt lat="43.79610696784244" lon="12.268284490047654"><ele>650.0</ele><time>2026-05-04T08:58:35Z</time></trkpt><trkpt lat="43.79600927233327" lon="12.268223599611083"><ele>650.0</ele><time>2026-05-04T08:58:36Z</time></trkpt><trkpt lat="43.795943902720126" lon="12.268183267044657"><ele>650.0</ele><time>2026-05-04T08:58:37Z</time></trkpt><trkpt lat="43.795813656912365" lon="12.268099210666824"><ele>650.0</ele><time>2026-05-04T08:58:39Z</time></trkpt><trkpt lat="43.79576237103292" lon="12.268044982966366"><ele>650.0</ele><time>2026-05-04T08:58:40Z</time></trkpt><trkpt lat="43.79571936590006" lon="12.26797157715623"><ele>653.2</ele><time>2026-05-04T08:58:41Z</time></trkpt><trkpt lat="43.79568855168419" lon="12.267873274851256"><ele>656.4</ele><time>2026-05-04T08:58:42Z</time></trkpt><trkpt lat="43.79565094136013" lon="12.267758463985185"><ele>659.5999999999999</ele><time>2026-05-04T08:58:43Z</time></trkpt><trkpt lat="43.795608806850026" lon="12.267662898624433"><ele>662.8</ele><time>2026-05-04T08:58:44Z</time></trkpt><trkpt lat="43.795559230952115" lon="12.267557689902592"><ele>666.0</ele><time>2026-05-04T08:58:45Z</time></trkpt><trkpt lat="43.795472463764824" lon="12.267419567403882"><ele>666.0</ele><time>2026-05-04T08:58:47Z</time></trkpt><trkpt lat="43.79541648741017" lon="12.267328683926863"><ele>666.0</ele><time>2026-05-04T08:58:48Z</time></trkpt><trkpt lat="43.7953735671053" lon="12.2672506775029"><ele>666.0</ele><time>2026-05-04T08:58:49Z</time></trkpt><trkpt lat="43.795247050347726" lon="12.267172636439808"><ele>666.0</ele><time>2026-05-04T08:58:51Z</time></trkpt><trkpt lat="43.79515620159101" lon="12.267119461496998"><ele>666.0</ele><time>2026-05-04T08:58:52Z</time></trkpt><trkpt lat="43.79508087155761" lon="12.267074277696041"><ele>669.0</ele><time>2026-05-04T08:58:53Z</time></trkpt><trkpt lat="43.795004921678576" lon="12.267051176642862"><ele>672.0</ele><time>2026-05-04T08:58:54Z</time></trkpt><trkpt lat="43.79488572728836" lon="12.267014835134955"><ele>675.0</ele><time>2026-05-04T08:58:56Z</time></trkpt><trkpt lat="43.794801195110054" lon="12.26699162749425"><ele>678.0</ele><time>2026-05-04T08:58:57Z</time></trkpt><trkpt lat="43.79471868137604" lon="12.266968242318033"><ele>681.0</ele><time>2026-05-04T08:58:58Z</time></trkpt><trkpt lat="43.79463589987439" lon="12.266941440165482"><ele>681.0</ele><time>2026-05-04T08:58:59Z</time></trkpt><trkpt lat="43.79456594776625" lon="12.26692481090633"><ele>681.0</ele><time>2026-05-04T08:59:00Z</time></trkpt><trkpt lat="43.79443641587887" lon="12.266889035251033"><ele>681.0</ele><time>2026-05-04T08:59:02Z</time></trkpt><trkpt lat="43.79435170387875" lon="12.266875343653572"><ele>681.0</ele><time>2026-05-04T08:59:03Z</time></trkpt><trkpt lat="43.79425649319235" lon="12.266845086518543"><ele>681.0</ele><time>2026-05-04T08:59:04Z</time></trkpt><trkpt lat="43.7941908956913" lon="12.266799987788444"><ele>683.6666666666666</ele><time>2026-05-04T08:59:05Z</time></trkpt><trkpt lat="43.794131426136396" lon="12.26675746461351"><ele>686.3333333333334</ele><time>2026-05-04T08:59:06Z</time></trkpt><trkpt lat="43.794018260059296" lon="12.266711769726003"><ele>689.0</ele><time>2026-05-04T08:59:08Z</time></trkpt><trkpt lat="43.793938366159004" lon="12.266676452486976"><ele>691.6666666666667</ele><time>2026-05-04T08:59:09Z</time></trkpt><trkpt lat="43.79387537802412" lon="12.26662944937983"><ele>694.3333333333334</ele><time>2026-05-04T08:59:10Z</time></trkpt><trkpt lat="43.79380612342702" lon="12.266566280268039"><ele>697.0</ele><time>2026-05-04T08:59:11Z</time></trkpt><trkpt lat="43.793725846546195" lon="12.266525932728475"><ele>697.0</ele><time>2026-05-04T08:59:12Z</time></trkpt><trkpt lat="43.79364847792884" lon="12.266507997550603"><ele>697.0</ele><time>2026-05-04T08:59:13Z</time></trkpt><trkpt lat="43.793582821902184" lon="12.266484618988583"><ele>697.0</ele><time>2026-05-04T08:59:14Z</time></trkpt><trkpt lat="43.79351167364081" lon="12.266472956595024"><ele>697.0</ele><time>2026-05-04T08:59:15Z</time></trkpt><trkpt lat="43.79338709443438" lon="12.26648795233058"><ele>697.0</ele><time>2026-05-04T08:59:17Z</time></trkpt><trkpt lat="43.793286603484376" lon="12.26652839303225"><ele>697.0</ele><time>2026-05-04T08:59:19Z</time></trkpt><trkpt lat="43.793184534546114" lon="12.266500402127821"><ele>699.8</ele><time>2026-05-04T08:59:21Z</time></trkpt><trkpt lat="43.793087393230934" lon="12.266507846799422"><ele>702.6</ele><time>2026-05-04T08:59:23Z</time></trkpt><trkpt lat="43.79298674514988" lon="12.266475178144328"><ele>705.4</ele><time>2026-05-04T08:59:25Z</time></trkpt><trkpt lat="43.79289088986194" lon="12.266470746992596"><ele>708.1999999999999</ele><time>2026-05-04T08:59:27Z</time></trkpt><trkpt lat="43.79280654549073" lon="12.266453799806118"><ele>711.0</ele><time>2026-05-04T08:59:29Z</time></trkpt><trkpt lat="43.792711413305355" lon="12.266432798712911"><ele>713.5</ele><time>2026-05-04T08:59:31Z</time></trkpt><trkpt lat="43.792626070827865" lon="12.266389677903447"><ele>716.0</ele><time>2026-05-04T08:59:33Z</time></trkpt><trkpt lat="43.7925494708526" lon="12.266326949437417"><ele>718.5</ele><time>2026-05-04T08:59:35Z</time></trkpt><trkpt lat="43.79246282461767" lon="12.26622296161462"><ele>721.0</ele><time>2026-05-04T08:59:37Z</time></trkpt><trkpt lat="43.79241302877005" lon="12.266144269906677"><ele>723.5</ele><time>2026-05-04T08:59:39Z</time></trkpt><trkpt lat="43.792383376950895" lon="12.2660606773379"><ele>726.0</ele><time>2026-05-04T08:59:42Z</time></trkpt><trkpt lat="43.79234392597934" lon="12.265974757567946"><ele>726.0</ele><time>2026-05-04T08:59:45Z</time></trkpt><trkpt lat="43.792286833894316" lon="12.265898024602057"><ele>726.0</ele><time>2026-05-04T08:59:49Z</time></trkpt><trkpt lat="43.792233396127884" lon="12.265813762437421"><ele>726.0</ele><time>2026-05-04T08:59:53Z</time></trkpt><trkpt lat="43.79217088069227" lon="12.26571547483122"><ele>726.0</ele><time>2026-05-04T08:59:55Z</time></trkpt><trkpt lat="43.792131908160556" lon="12.26564441335968"><ele>726.0</ele><time>2026-05-04T08:59:56Z</time></trkpt><trkpt lat="43.792092958462845" lon="12.26557035670024"><ele>726.0</ele><time>2026-05-04T08:59:57Z</time></trkpt><trkpt lat="43.79205015390764" lon="12.265492100638703"><ele>725.5</ele><time>2026-05-04T08:59:58Z</time></trkpt><trkpt lat="43.79198401588776" lon="12.265432919990545"><ele>725.0</ele><time>2026-05-04T08:59:59Z</time></trkpt><trkpt lat="43.79192427712796" lon="12.26536569917148"><ele>724.5</ele><time>2026-05-04T09:00:00Z</time></trkpt><trkpt lat="43.79186645713569" lon="12.265296048619266"><ele>724.0</ele><time>2026-05-04T09:00:01Z</time></trkpt><trkpt lat="43.791790413560925" lon="12.265209433487971"><ele>723.5</ele><time>2026-05-04T09:00:02Z</time></trkpt><trkpt lat="43.7917194836732" lon="12.265126202454873"><ele>723.0</ele><time>2026-05-04T09:00:03Z</time></trkpt><trkpt lat="43.79164781415306" lon="12.265055828699936"><ele>726.3333333333334</ele><time>2026-05-04T09:00:04Z</time></trkpt><trkpt lat="43.79158288117552" lon="12.26498904773468"><ele>729.6666666666666</ele><time>2026-05-04T09:00:05Z</time></trkpt><trkpt lat="43.791525228827844" lon="12.264931571377627"><ele>733.0</ele><time>2026-05-04T09:00:06Z</time></trkpt><trkpt lat="43.79146874983569" lon="12.264865084980858"><ele>736.3333333333333</ele><time>2026-05-04T09:00:07Z</time></trkpt><trkpt lat="43.79140567601369" lon="12.26479328787342"><ele>739.6666666666666</ele><time>2026-05-04T09:00:08Z</time></trkpt><trkpt lat="43.79134500088564" lon="12.264714903765686"><ele>743.0</ele><time>2026-05-04T09:00:09Z</time></trkpt><trkpt lat="43.79129869225318" lon="12.264648940484667"><ele>743.1666666666666</ele><time>2026-05-04T09:00:10Z</time></trkpt><trkpt lat="43.791244994309956" lon="12.264584640815043"><ele>743.3333333333333</ele><time>2026-05-04T09:00:11Z</time></trkpt><trkpt lat="43.791188791580794" lon="12.26453018402027"><ele>743.5</ele><time>2026-05-04T09:00:12Z</time></trkpt><trkpt lat="43.791082078682344" lon="12.264470023614642"><ele>743.6666666666666</ele><time>2026-05-04T09:00:14Z</time></trkpt><trkpt lat="43.79097878008588" lon="12.264392833918336"><ele>743.8333333333334</ele><time>2026-05-04T09:00:16Z</time></trkpt><trkpt lat="43.79091756729094" lon="12.26435798424851"><ele>744.0</ele><time>2026-05-04T09:00:17Z</time></trkpt><trkpt lat="43.790823884721654" lon="12.264255206332148"><ele>745.8571428571429</ele><time>2026-05-04T09:00:19Z</time></trkpt><trkpt lat="43.79075688879844" lon="12.264190145023672"><ele>747.7142857142858</ele><time>2026-05-04T09:00:20Z</time></trkpt><trkpt lat="43.79069969120813" lon="12.264133503556259"><ele>749.5714285714287</ele><time>2026-05-04T09:00:21Z</time></trkpt><trkpt lat="43.79063343568937" lon="12.264073523898244"><ele>751.4285714285714</ele><time>2026-05-04T09:00:22Z</time></trkpt><trkpt lat="43.79057537319952" lon="12.26402416228078"><ele>753.2857142857142</ele><time>2026-05-04T09:00:23Z</time></trkpt><trkpt lat="43.790507420769465" lon="12.26398935558943"><ele>755.1428571428572</ele><time>2026-05-04T09:00:24Z</time></trkpt><trkpt lat="43.79044902172477" lon="12.263942415015485"><ele>757.0</ele><time>2026-05-04T09:00:25Z</time></trkpt><trkpt lat="43.79038711312031" lon="12.263890366375717"><ele>757.0</ele><time>2026-05-04T09:00:26Z</time></trkpt><trkpt lat="43.790340203882074" lon="12.263786964484293"><ele>757.0</ele><time>2026-05-04T09:00:28Z</time></trkpt><trkpt lat="43.79030983295417" lon="12.263672641546618"><ele>757.0</ele><time>2026-05-04T09:00:30Z</time></trkpt><trkpt lat="43.790256436903334" lon="12.263536194862224"><ele>757.0</ele><time>2026-05-04T09:00:32Z</time></trkpt><trkpt lat="43.7901957549188" lon="12.263387280013507"><ele>757.0</ele><time>2026-05-04T09:00:34Z</time></trkpt><trkpt lat="43.79019465533935" lon="12.263295692115976"><ele>760.0</ele><time>2026-05-04T09:00:35Z</time></trkpt><trkpt lat="43.79016665824675" lon="12.263217499198738"><ele>763.0</ele><time>2026-05-04T09:00:36Z</time></trkpt><trkpt lat="43.79010742455525" lon="12.263133775905194"><ele>766.0</ele><time>2026-05-04T09:00:39Z</time></trkpt><trkpt lat="43.79010596867844" lon="12.263024975816922"><ele>769.0</ele><time>2026-05-04T09:00:41Z</time></trkpt><trkpt lat="43.790084964329196" lon="12.262909225156298"><ele>771.9999999999999</ele><time>2026-05-04T09:00:44Z</time></trkpt><trkpt lat="43.790031444194504" lon="12.262809005089057"><ele>775.0</ele><time>2026-05-04T09:00:58Z</time></trkpt><trkpt lat="43.79000075846358" lon="12.262713972307745"><ele>775.8</ele><time>2026-05-04T09:00:59Z</time></trkpt><trkpt lat="43.789983112611694" lon="12.26259081948665"><ele>776.6</ele><time>2026-05-04T09:01:00Z</time></trkpt><trkpt lat="43.78996472706975" lon="12.262452191726824"><ele>777.4000000000001</ele><time>2026-05-04T09:01:01Z</time></trkpt><trkpt lat="43.78994196574233" lon="12.262305039847611"><ele>778.2</ele><time>2026-05-04T09:01:02Z</time></trkpt><trkpt lat="43.78989406855471" lon="12.262140596756161"><ele>779.0</ele><time>2026-05-04T09:01:03Z</time></trkpt><trkpt lat="43.7898598639516" lon="12.261988661697217"><ele>780.1666666666667</ele><time>2026-05-04T09:01:04Z</time></trkpt><trkpt lat="43.78984006689171" lon="12.261893150291275"><ele>781.3333333333334</ele><time>2026-05-04T09:01:05Z</time></trkpt><trkpt lat="43.78975595818178" lon="12.2618108855961"><ele>782.5</ele><time>2026-05-04T09:01:07Z</time></trkpt><trkpt lat="43.78966844132016" lon="12.261790307449433"><ele>783.6666666666667</ele><time>2026-05-04T09:01:08Z</time></trkpt><trkpt lat="43.78960148742051" lon="12.261791046836038"><ele>784.8333333333334</ele><time>2026-05-04T09:01:09Z</time></trkpt><trkpt lat="43.78953022888713" lon="12.261760292394953"><ele>786.0</ele><time>2026-05-04T09:01:38Z</time></trkpt><trkpt lat="43.7894681583301" lon="12.261689764237628"><ele>786.0</ele><time>2026-05-04T09:01:40Z</time></trkpt><trkpt lat="43.78943814353674" lon="12.261589455050451"><ele>786.0</ele><time>2026-05-04T09:01:41Z</time></trkpt><trkpt lat="43.789392795189265" lon="12.261496494850272"><ele>786.0</ele><time>2026-05-04T09:01:42Z</time></trkpt><trkpt lat="43.78934189246433" lon="12.261412089828072"><ele>786.0</ele><time>2026-05-04T09:01:43Z</time></trkpt><trkpt lat="43.789284921573646" lon="12.261312278747619"><ele>786.0</ele><time>2026-05-04T09:01:44Z</time></trkpt><trkpt lat="43.78920497034655" lon="12.261177478011952"><ele>787.1999999999999</ele><time>2026-05-04T09:01:45Z</time></trkpt><trkpt lat="43.789153129792815" lon="12.26107035466595"><ele>788.4</ele><time>2026-05-04T09:01:46.001Z</time></trkpt><trkpt lat="43.789103080497824" lon="12.260985445870517"><ele>789.6</ele><time>2026-05-04T09:01:47Z</time></trkpt><trkpt lat="43.789020965742935" lon="12.260861024217338"><ele>790.8</ele><time>2026-05-04T09:01:49.001Z</time></trkpt><trkpt lat="43.78897436522827" lon="12.260801182275847"><ele>792.0</ele><time>2026-05-04T09:01:50.001Z</time></trkpt><trkpt lat="43.78890465877388" lon="12.260705840835787"><ele>792.0</ele><time>2026-05-04T09:01:52.001Z</time></trkpt><trkpt lat="43.788797626314995" lon="12.260653286805708"><ele>792.0</ele><time>2026-05-04T09:01:54.001Z</time></trkpt><trkpt lat="43.78870437161441" lon="12.260617125779627"><ele>792.0</ele><time>2026-05-04T09:01:55.001Z</time></trkpt><trkpt lat="43.788629455353146" lon="12.26057164171555"><ele>792.0</ele><time>2026-05-04T09:01:56.001Z</time></trkpt><trkpt lat="43.788526935502674" lon="12.260492694243762"><ele>792.0</ele><time>2026-05-04T09:01:58.001Z</time></trkpt><trkpt lat="43.788451410709484" lon="12.26044946533924"><ele>794.3333333333334</ele><time>2026-05-04T09:01:59.001Z</time></trkpt><trkpt lat="43.78838966331501" lon="12.260430484776503"><ele>796.6666666666667</ele><time>2026-05-04T09:02:00.001Z</time></trkpt><trkpt lat="43.78832438850961" lon="12.26040362419135"><ele>799.0</ele><time>2026-05-04T09:02:01.001Z</time></trkpt><trkpt lat="43.78826102771895" lon="12.26036930441286"><ele>801.3333333333334</ele><time>2026-05-04T09:02:02.001Z</time></trkpt><trkpt lat="43.788196209481775" lon="12.260334594611617"><ele>803.6666666666667</ele><time>2026-05-04T09:02:03.001Z</time></trkpt><trkpt lat="43.788134719782896" lon="12.260292082464082"><ele>806.0</ele><time>2026-05-04T09:02:04.001Z</time></trkpt><trkpt lat="43.78803898220994" lon="12.260178630138139"><ele>806.0</ele><time>2026-05-04T09:02:06.001Z</time></trkpt><trkpt lat="43.78798555762304" lon="12.260113153559942"><ele>806.0</ele><time>2026-05-04T09:02:07.001Z</time></trkpt><trkpt lat="43.78792608861261" lon="12.260007944043501"><ele>806.0</ele><time>2026-05-04T09:02:09.001Z</time></trkpt><trkpt lat="43.7878074002539" lon="12.260003317393767"><ele>806.0</ele><time>2026-05-04T09:02:12.001Z</time></trkpt><trkpt lat="43.78769972127876" lon="12.25996884236036"><ele>806.0</ele><time>2026-05-04T09:02:14.001Z</time></trkpt><trkpt lat="43.78763003218207" lon="12.259949554066358"><ele>808.5000000000001</ele><time>2026-05-04T09:02:15.001Z</time></trkpt><trkpt lat="43.78751014166686" lon="12.25990919181356"><ele>811.0</ele><time>2026-05-04T09:02:17.001Z</time></trkpt><trkpt lat="43.78744525937522" lon="12.259918043354707"><ele>813.5</ele><time>2026-05-04T09:02:18.001Z</time></trkpt><trkpt lat="43.78735924298461" lon="12.259908377659045"><ele>816.0</ele><time>2026-05-04T09:02:20.001Z</time></trkpt><trkpt lat="43.78729496022957" lon="12.259898874658326"><ele>818.5000000000001</ele><time>2026-05-04T09:02:21.001Z</time></trkpt><trkpt lat="43.78720977247183" lon="12.259872368613314"><ele>821.0</ele><time>2026-05-04T09:02:23.001Z</time></trkpt><trkpt lat="43.78711541168314" lon="12.259805076907288"><ele>821.0</ele><time>2026-05-04T09:02:25.001Z</time></trkpt><trkpt lat="43.78699467087893" lon="12.259814050798228"><ele>821.0</ele><time>2026-05-04T09:02:27.001Z</time></trkpt><trkpt lat="43.786880605579626" lon="12.259815572049833"><ele>821.0</ele><time>2026-05-04T09:02:29.001Z</time></trkpt><trkpt lat="43.786764331207095" lon="12.259797839354558"><ele>821.0</ele><time>2026-05-04T09:02:31.001Z</time></trkpt><trkpt lat="43.78664593027121" lon="12.25977006904134"><ele>821.8</ele><time>2026-05-04T09:02:33.001Z</time></trkpt><trkpt lat="43.78652608610445" lon="12.259763403732181"><ele>822.5999999999999</ele><time>2026-05-04T09:02:35.001Z</time></trkpt><trkpt lat="43.78642014015105" lon="12.259784814645434"><ele>823.4</ele><time>2026-05-04T09:02:37.001Z</time></trkpt><trkpt lat="43.78631143722056" lon="12.25982719881984"><ele>824.2</ele><time>2026-05-04T09:02:39.001Z</time></trkpt><trkpt lat="43.78624964891289" lon="12.25984623814554"><ele>825.0</ele><time>2026-05-04T09:02:40.001Z</time></trkpt><trkpt lat="43.78612544203101" lon="12.259876910279246"><ele>831.25</ele><time>2026-05-04T09:02:42.001Z</time></trkpt><trkpt lat="43.785994087554165" lon="12.259955393120789"><ele>837.5</ele><time>2026-05-04T09:02:44.001Z</time></trkpt><trkpt lat="43.785888954134904" lon="12.25996138905858"><ele>843.75</ele><time>2026-05-04T09:02:46.001Z</time></trkpt><trkpt lat="43.78579675827465" lon="12.259974509199726"><ele>850.0</ele><time>2026-05-04T09:02:48.001Z</time></trkpt><trkpt lat="43.78568114048297" lon="12.260006038519215"><ele>850.0</ele><time>2026-05-04T09:02:50.001Z</time></trkpt><trkpt lat="43.78559983119311" lon="12.260005082625785"><ele>850.0</ele><time>2026-05-04T09:02:52.001Z</time></trkpt><trkpt lat="43.78547408395806" lon="12.260013833768083"><ele>850.0</ele><time>2026-05-04T09:02:53.001Z</time></trkpt><trkpt lat="43.785388048738696" lon="12.259941247292442"><ele>850.0</ele><time>2026-05-04T09:02:55.001Z</time></trkpt><trkpt lat="43.78527790364596" lon="12.259934706187897"><ele>850.0</ele><time>2026-05-04T09:02:57.001Z</time></trkpt><trkpt lat="43.78518208202185" lon="12.259972088873644"><ele>851.8333333333333</ele><time>2026-05-04T09:02:59.001Z</time></trkpt><trkpt lat="43.7851383446759" lon="12.260045342251498"><ele>853.6666666666666</ele><time>2026-05-04T09:03:24.001Z</time></trkpt><trkpt lat="43.78507285708636" lon="12.26010556118841"><ele>855.5</ele><time>2026-05-04T09:03:25.001Z</time></trkpt><trkpt lat="43.78498734927902" lon="12.260183656133176"><ele>857.3333333333333</ele><time>2026-05-04T09:03:26.001Z</time></trkpt><trkpt lat="43.78491750280253" lon="12.260214597545437"><ele>859.1666666666666</ele><time>2026-05-04T09:03:27.001Z</time></trkpt><trkpt lat="43.78485270629182" lon="12.260264202957547"><ele>861.0</ele><time>2026-05-04T09:03:28.001Z</time></trkpt><trkpt lat="43.784795072395276" lon="12.260300244907784"><ele>861.0</ele><time>2026-05-04T09:03:29.001Z</time></trkpt><trkpt lat="43.78468471573741" lon="12.260280627652762"><ele>860.9999999999999</ele><time>2026-05-04T09:03:31.001Z</time></trkpt><trkpt lat="43.784613140057964" lon="12.260257903522072"><ele>860.9999999999999</ele><time>2026-05-04T09:03:32.001Z</time></trkpt><trkpt lat="43.78451750827961" lon="12.260243169980152"><ele>861.0</ele><time>2026-05-04T09:03:33.001Z</time></trkpt><trkpt lat="43.784427448276254" lon="12.260227779076958"><ele>861.0</ele><time>2026-05-04T09:03:34.001Z</time></trkpt><trkpt lat="43.78433807708018" lon="12.26021862364803"><ele>863.4</ele><time>2026-05-04T09:03:35.001Z</time></trkpt><trkpt lat="43.78426090702075" lon="12.260188747844317"><ele>865.8</ele><time>2026-05-04T09:03:36.001Z</time></trkpt><trkpt lat="43.784174542129215" lon="12.260141908399882"><ele>868.1999999999999</ele><time>2026-05-04T09:03:37.001Z</time></trkpt><trkpt lat="43.78409801304659" lon="12.260109158990769"><ele>870.5999999999999</ele><time>2026-05-04T09:03:38.001Z</time></trkpt><trkpt lat="43.78399808995495" lon="12.26006171692384"><ele>873.0</ele><time>2026-05-04T09:03:40.001Z</time></trkpt><trkpt lat="43.783906398301355" lon="12.259984062968535"><ele>873.0</ele><time>2026-05-04T09:03:42.001Z</time></trkpt><trkpt lat="43.783774902177846" lon="12.259972487835288"><ele>873.0</ele><time>2026-05-04T09:03:44.001Z</time></trkpt><trkpt lat="43.78370578041527" lon="12.259946247949392"><ele>873.0</ele><time>2026-05-04T09:03:45.001Z</time></trkpt><trkpt lat="43.7836359298608" lon="12.259916863293583"><ele>873.0</ele><time>2026-05-04T09:03:46.001Z</time></trkpt><trkpt lat="43.783567795852086" lon="12.259873534717146"><ele>873.0</ele><time>2026-05-04T09:03:47.001Z</time></trkpt><trkpt lat="43.78348708347372" lon="12.259721716128855"><ele>875.8</ele><time>2026-05-04T09:03:49.001Z</time></trkpt><trkpt lat="43.783444486074686" lon="12.259627477837416"><ele>878.5999999999999</ele><time>2026-05-04T09:03:50.001Z</time></trkpt><trkpt lat="43.78337570597671" lon="12.259518953970357"><ele>881.4000000000001</ele><time>2026-05-04T09:03:51.001Z</time></trkpt><trkpt lat="43.7832916307791" lon="12.259408520233153"><ele>884.2</ele><time>2026-05-04T09:03:52.001Z</time></trkpt><trkpt lat="43.783213267321365" lon="12.259276860824082"><ele>887.0</ele><time>2026-05-04T09:03:53.001Z</time></trkpt><trkpt lat="43.78316682654142" lon="12.259145534458035"><ele>887.0</ele><time>2026-05-04T09:03:54.001Z</time></trkpt><trkpt lat="43.78312554198491" lon="12.259045361896307"><ele>887.0</ele><time>2026-05-04T09:03:55.001Z</time></trkpt><trkpt lat="43.783028829531354" lon="12.25896005067042"><ele>887.0</ele><time>2026-05-04T09:03:57.001Z</time></trkpt><trkpt lat="43.782925682137176" lon="12.258967150189156"><ele>887.0</ele><time>2026-05-04T09:03:59.001Z</time></trkpt><trkpt lat="43.782857152461496" lon="12.258871141378425"><ele>887.0</ele><time>2026-05-04T09:05:23.001Z</time></trkpt><trkpt lat="43.78283405794393" lon="12.258735492675914"><ele>886.5000000000001</ele><time>2026-05-04T09:05:25.001Z</time></trkpt><trkpt lat="43.782822618291675" lon="12.25864176061764"><ele>886.0</ele><time>2026-05-04T09:05:29.001Z</time></trkpt><trkpt lat="43.78279997343472" lon="12.25851907987764"><ele>885.5</ele><time>2026-05-04T09:05:40.001Z</time></trkpt><trkpt lat="43.782790407248875" lon="12.258432851175048"><ele>885.0</ele><time>2026-05-04T09:05:41.001Z</time></trkpt><trkpt lat="43.78278128447864" lon="12.258340344354295"><ele>884.5000000000001</ele><time>2026-05-04T09:05:42.001Z</time></trkpt><trkpt lat="43.78274809349656" lon="12.258155742117808"><ele>884.0</ele><time>2026-05-04T09:05:44.001Z</time></trkpt><trkpt lat="43.78274259041128" lon="12.258033690390358"><ele>883.3333333333334</ele><time>2026-05-04T09:05:45.001Z</time></trkpt><trkpt lat="43.78273626974687" lon="12.257903060227898"><ele>882.6666666666667</ele><time>2026-05-04T09:05:46.001Z</time></trkpt><trkpt lat="43.78273617388456" lon="12.257783124741293"><ele>882.0</ele><time>2026-05-04T09:05:47.001Z</time></trkpt><trkpt lat="43.782736543781795" lon="12.257682390093711"><ele>881.3333333333333</ele><time>2026-05-04T09:05:48.001Z</time></trkpt><trkpt lat="43.78273944938059" lon="12.25757398953059"><ele>880.6666666666666</ele><time>2026-05-04T09:05:49.001Z</time></trkpt><trkpt lat="43.78274075122808" lon="12.25745222291661"><ele>880.0</ele><time>2026-05-04T09:05:50.001Z</time></trkpt><trkpt lat="43.78274756388171" lon="12.257325694783129"><ele>878.8</ele><time>2026-05-04T09:05:51.001Z</time></trkpt><trkpt lat="43.782755012864186" lon="12.257194272133603"><ele>877.6</ele><time>2026-05-04T09:05:52.001Z</time></trkpt><trkpt lat="43.78275994202603" lon="12.257057257450683"><ele>876.4000000000001</ele><time>2026-05-04T09:05:53.001Z</time></trkpt><trkpt lat="43.78276692558651" lon="12.256925055011646"><ele>875.2</ele><time>2026-05-04T09:05:54.001Z</time></trkpt><trkpt lat="43.7827735477713" lon="12.256794375089791"><ele>874.0</ele><time>2026-05-04T09:05:55.001Z</time></trkpt><trkpt lat="43.78278459353927" lon="12.256670388699058"><ele>874.0</ele><time>2026-05-04T09:05:56.001Z</time></trkpt><trkpt lat="43.78279104013242" lon="12.256546176261507"><ele>874.0000000000001</ele><time>2026-05-04T09:05:57.001Z</time></trkpt><trkpt lat="43.78280810888635" lon="12.25641551973303"><ele>874.0000000000001</ele><time>2026-05-04T09:05:58.001Z</time></trkpt><trkpt lat="43.78282858092201" lon="12.25627994220768"><ele>874.0</ele><time>2026-05-04T09:05:59.001Z</time></trkpt><trkpt lat="43.782849038339094" lon="12.256158599637391"><ele>874.0</ele><time>2026-05-04T09:06:00.001Z</time></trkpt><trkpt lat="43.78288007975238" lon="12.256001758794392"><ele>872.8000000000001</ele><time>2026-05-04T09:06:01.001Z</time></trkpt><trkpt lat="43.782910226040414" lon="12.255858563321606"><ele>871.6000000000001</ele><time>2026-05-04T09:06:02.001Z</time></trkpt><trkpt lat="43.7829415865399" lon="12.255724450046918"><ele>870.4</ele><time>2026-05-04T09:06:03.001Z</time></trkpt><trkpt lat="43.7829711898911" lon="12.25559556310965"><ele>869.2</ele><time>2026-05-04T09:06:04.001Z</time></trkpt><trkpt lat="43.782983290414194" lon="12.25547386152002"><ele>868.0</ele><time>2026-05-04T09:06:05.001Z</time></trkpt><trkpt lat="43.783002820009074" lon="12.25536884508182"><ele>866.4999999999999</ele><time>2026-05-04T09:06:06.001Z</time></trkpt><trkpt lat="43.78302724251409" lon="12.255256861522328"><ele>865.0</ele><time>2026-05-04T09:06:07.001Z</time></trkpt><trkpt lat="43.78304795520463" lon="12.255143252339723"><ele>863.5</ele><time>2026-05-04T09:06:08.001Z</time></trkpt><trkpt lat="43.78307126126217" lon="12.255030628915799"><ele>862.0</ele><time>2026-05-04T09:06:09.001Z</time></trkpt><trkpt lat="43.78309856764523" lon="12.254909637507332"><ele>860.4999999999999</ele><time>2026-05-04T09:06:10.001Z</time></trkpt><trkpt lat="43.78312240558884" lon="12.254782793164841"><ele>859.0</ele><time>2026-05-04T09:06:11.001Z</time></trkpt><trkpt lat="43.78314602111699" lon="12.254653842928944"><ele>858.4000000000001</ele><time>2026-05-04T09:06:12.001Z</time></trkpt><trkpt lat="43.78316939715339" lon="12.254528507105638"><ele>857.8000000000001</ele><time>2026-05-04T09:06:13.001Z</time></trkpt><trkpt lat="43.7831955123447" lon="12.254398394766385"><ele>857.1999999999999</ele><time>2026-05-04T09:06:14.001Z</time></trkpt><trkpt lat="43.78321629805103" lon="12.254275578090402"><ele>856.5999999999999</ele><time>2026-05-04T09:06:15.001Z</time></trkpt><trkpt lat="43.7832423648403" lon="12.254153889309496"><ele>856.0</ele><time>2026-05-04T09:06:16.001Z</time></trkpt><trkpt lat="43.783266868578785" lon="12.254034107362772"><ele>855.8</ele><time>2026-05-04T09:06:17.001Z</time></trkpt><trkpt lat="43.78328963954411" lon="12.253916245814517"><ele>855.5999999999999</ele><time>2026-05-04T09:06:18.001Z</time></trkpt><trkpt lat="43.78331399788486" lon="12.253792215765031"><ele>855.4</ele><time>2026-05-04T09:06:19.001Z</time></trkpt><trkpt lat="43.783336796128836" lon="12.25366005515981"><ele>855.2</ele><time>2026-05-04T09:06:20.001Z</time></trkpt><trkpt lat="43.78335393970935" lon="12.253535275194327"><ele>855.0</ele><time>2026-05-04T09:06:21.001Z</time></trkpt><trkpt lat="43.78336375345995" lon="12.253411518382705"><ele>855.0</ele><time>2026-05-04T09:06:22.001Z</time></trkpt><trkpt lat="43.78336774746501" lon="12.253290040895296"><ele>855.0</ele><time>2026-05-04T09:06:23.001Z</time></trkpt><trkpt lat="43.78336692534766" lon="12.253158164147077"><ele>855.0</ele><time>2026-05-04T09:06:24.001Z</time></trkpt><trkpt lat="43.7833609362863" lon="12.25302599126599"><ele>855.0</ele><time>2026-05-04T09:06:25.001Z</time></trkpt><trkpt lat="43.78335713661175" lon="12.252896973704425"><ele>855.0</ele><time>2026-05-04T09:06:26.001Z</time></trkpt><trkpt lat="43.783352926015404" lon="12.252774963458684"><ele>854.5</ele><time>2026-05-04T09:06:27.001Z</time></trkpt><trkpt lat="43.7833471859094" lon="12.252653913025203"><ele>854.0</ele><time>2026-05-04T09:06:28.001Z</time></trkpt><trkpt lat="43.783345527186114" lon="12.252528818427773"><ele>853.5</ele><time>2026-05-04T09:06:29.001Z</time></trkpt><trkpt lat="43.78334281644159" lon="12.252403403436658"><ele>853.0</ele><time>2026-05-04T09:06:30.001Z</time></trkpt><trkpt lat="43.7833411229492" lon="12.25227914042901"><ele>852.5</ele><time>2026-05-04T09:06:31.001Z</time></trkpt><trkpt lat="43.783339254565774" lon="12.25215674236757"><ele>852.0</ele><time>2026-05-04T09:06:32.001Z</time></trkpt><trkpt lat="43.78334233185874" lon="12.252025401488405"><ele>851.0</ele><time>2026-05-04T09:06:33.001Z</time></trkpt><trkpt lat="43.78334458118215" lon="12.251884534239135"><ele>850.0</ele><time>2026-05-04T09:06:34.001Z</time></trkpt><trkpt lat="43.783342722217114" lon="12.251727927143309"><ele>849.0</ele><time>2026-05-04T09:06:35.001Z</time></trkpt><trkpt lat="43.783335599238285" lon="12.251564059294116"><ele>848.0</ele><time>2026-05-04T09:06:36.001Z</time></trkpt><trkpt lat="43.78332383518708" lon="12.25140397790676"><ele>847.0</ele><time>2026-05-04T09:06:37.001Z</time></trkpt><trkpt lat="43.78331168549624" lon="12.251257092014468"><ele>846.0</ele><time>2026-05-04T09:06:38.001Z</time></trkpt><trkpt lat="43.78329997488969" lon="12.251117105461661"><ele>845.0</ele><time>2026-05-04T09:06:39.001Z</time></trkpt><trkpt lat="43.783283638891916" lon="12.250978383480286"><ele>844.0</ele><time>2026-05-04T09:06:40.001Z</time></trkpt><trkpt lat="43.78326518582609" lon="12.250836529210385"><ele>843.0</ele><time>2026-05-04T09:06:41.001Z</time></trkpt><trkpt lat="43.78324961457608" lon="12.250692078845015"><ele>842.0</ele><time>2026-05-04T09:06:42.001Z</time></trkpt><trkpt lat="43.783242603056955" lon="12.250541018475984"><ele>841.0</ele><time>2026-05-04T09:06:43Z</time></trkpt><trkpt lat="43.783240663950586" lon="12.250380770022716"><ele>840.0</ele><time>2026-05-04T09:06:44Z</time></trkpt><trkpt lat="43.78324554169409" lon="12.250219034876634"><ele>839.0</ele><time>2026-05-04T09:06:45Z</time></trkpt><trkpt lat="43.78325283189261" lon="12.250075013723036"><ele>838.0</ele><time>2026-05-04T09:06:46Z</time></trkpt><trkpt lat="43.78326005325825" lon="12.249938088875071"><ele>837.0</ele><time>2026-05-04T09:06:47Z</time></trkpt><trkpt lat="43.783263727411274" lon="12.2498055961948"><ele>836.2</ele><time>2026-05-04T09:06:48Z</time></trkpt><trkpt lat="43.78326492878276" lon="12.249676760640433"><ele>835.4000000000001</ele><time>2026-05-04T09:06:49Z</time></trkpt><trkpt lat="43.783268009564104" lon="12.249545296367515"><ele>834.5999999999999</ele><time>2026-05-04T09:06:50Z</time></trkpt><trkpt lat="43.78327064283481" lon="12.249408999108713"><ele>833.8</ele><time>2026-05-04T09:06:51Z</time></trkpt><trkpt lat="43.78327060361933" lon="12.24927453842998"><ele>833.0</ele><time>2026-05-04T09:06:52Z</time></trkpt><trkpt lat="43.783270347325484" lon="12.249150863977892"><ele>833.0000000000001</ele><time>2026-05-04T09:06:53Z</time></trkpt><trkpt lat="43.78327369625233" lon="12.249035847396954"><ele>833.0</ele><time>2026-05-04T09:06:54Z</time></trkpt><trkpt lat="43.78327506741838" lon="12.248925065235778"><ele>833.0</ele><time>2026-05-04T09:06:55Z</time></trkpt><trkpt lat="43.783279126823906" lon="12.248822595243178"><ele>833.0</ele><time>2026-05-04T09:06:56Z</time></trkpt><trkpt lat="43.78328400416657" lon="12.248680629493007"><ele>833.0000000000001</ele><time>2026-05-04T09:06:58Z</time></trkpt><trkpt lat="43.783274788368445" lon="12.248569799968895"><ele>833.0</ele><time>2026-05-04T09:07:00Z</time></trkpt><trkpt lat="43.783275566373774" lon="12.248431747723208"><ele>832.6666666666667</ele><time>2026-05-04T09:07:02Z</time></trkpt><trkpt lat="43.783280042040516" lon="12.248320701525541"><ele>832.3333333333333</ele><time>2026-05-04T09:07:04Z</time></trkpt><trkpt lat="43.78331462179995" lon="12.248031665150954"><ele>832.0</ele><time>2026-05-04T09:07:06Z</time></trkpt><trkpt lat="43.783045836474905" lon="12.2483420708411"><ele>831.9999999999999</ele><time>2026-05-04T09:07:08Z</time></trkpt><trkpt lat="43.78300528134201" lon="12.248415756294504"><ele>832.0</ele><time>2026-05-04T09:07:09Z</time></trkpt><trkpt lat="43.78296519600545" lon="12.248502086755245"><ele>832.0</ele><time>2026-05-04T09:07:10Z</time></trkpt><trkpt lat="43.78291457471188" lon="12.248588405700417"><ele>832.0</ele><time>2026-05-04T09:07:11Z</time></trkpt><trkpt lat="43.78285814470361" lon="12.248681242383181"><ele>831.9999999999999</ele><time>2026-05-04T09:07:12Z</time></trkpt><trkpt lat="43.78280365714116" lon="12.248781842352516"><ele>832.0</ele><time>2026-05-04T09:07:13Z</time></trkpt><trkpt lat="43.782741223731776" lon="12.248895699060974"><ele>832.4000000000001</ele><time>2026-05-04T09:07:14Z</time></trkpt><trkpt lat="43.78267207355855" lon="12.249012104571674"><ele>832.8000000000001</ele><time>2026-05-04T09:07:15Z</time></trkpt><trkpt lat="43.782600010483485" lon="12.249124726622448"><ele>833.2</ele><time>2026-05-04T09:07:16Z</time></trkpt><trkpt lat="43.78252245071138" lon="12.249231600093616"><ele>833.6</ele><time>2026-05-04T09:07:17Z</time></trkpt><trkpt lat="43.78244303123782" lon="12.249327629386379"><ele>834.0</ele><time>2026-05-04T09:07:18Z</time></trkpt><trkpt lat="43.78236287342811" lon="12.249421383625458"><ele>834.0</ele><time>2026-05-04T09:07:19Z</time></trkpt><trkpt lat="43.78228029023426" lon="12.249515164826732"><ele>834.0</ele><time>2026-05-04T09:07:20Z</time></trkpt><trkpt lat="43.78220065370418" lon="12.249607878857876"><ele>834.0</ele><time>2026-05-04T09:07:21Z</time></trkpt><trkpt lat="43.78213214594407" lon="12.24970156685319"><ele>834.0</ele><time>2026-05-04T09:07:22Z</time></trkpt><trkpt lat="43.78206993348961" lon="12.249804282238417"><ele>834.0</ele><time>2026-05-04T09:07:23Z</time></trkpt><trkpt lat="43.782020821398405" lon="12.249920733267174"><ele>835.8000000000001</ele><time>2026-05-04T09:07:24Z</time></trkpt><trkpt lat="43.78198199811255" lon="12.250055833808705"><ele>837.6</ele><time>2026-05-04T09:07:25Z</time></trkpt><trkpt lat="43.781950359038404" lon="12.250202151435914"><ele>839.4</ele><time>2026-05-04T09:07:26Z</time></trkpt><trkpt lat="43.78192589594508" lon="12.250351627040097"><ele>841.2</ele><time>2026-05-04T09:07:27Z</time></trkpt><trkpt lat="43.78189823311296" lon="12.250513124306107"><ele>843.0</ele><time>2026-05-04T09:07:28Z</time></trkpt><trkpt lat="43.7818640639885" lon="12.250683344537745"><ele>840.75</ele><time>2026-05-04T09:07:29Z</time></trkpt><trkpt lat="43.78182116937812" lon="12.250846923679843"><ele>838.5</ele><time>2026-05-04T09:07:30Z</time></trkpt><trkpt lat="43.78176299305551" lon="12.251008272366803"><ele>836.25</ele><time>2026-05-04T09:07:31Z</time></trkpt><trkpt lat="43.781702983012266" lon="12.251166784084896"><ele>834.0</ele><time>2026-05-04T09:07:32Z</time></trkpt><trkpt lat="43.781647283649356" lon="12.251328331119462"><ele>835.5</ele><time>2026-05-04T09:07:33Z</time></trkpt><trkpt lat="43.78159627452105" lon="12.251487309518092"><ele>837.0</ele><time>2026-05-04T09:07:34Z</time></trkpt><trkpt lat="43.78155536496246" lon="12.251642685827239"><ele>838.5</ele><time>2026-05-04T09:07:35Z</time></trkpt><trkpt lat="43.78151705998021" lon="12.251785438424903"><ele>840.0</ele><time>2026-05-04T09:07:36Z</time></trkpt><trkpt lat="43.78149198180552" lon="12.251928685154981"><ele>840.0</ele><time>2026-05-04T09:07:37Z</time></trkpt><trkpt lat="43.78148243905074" lon="12.252082313702413"><ele>840.0</ele><time>2026-05-04T09:07:38Z</time></trkpt><trkpt lat="43.78148557314205" lon="12.252247672350668"><ele>840.0</ele><time>2026-05-04T09:07:39Z</time></trkpt><trkpt lat="43.781495756227635" lon="12.252423097338134"><ele>840.0</ele><time>2026-05-04T09:07:40Z</time></trkpt><trkpt lat="43.781512689143185" lon="12.25259605868797"><ele>840.0</ele><time>2026-05-04T09:07:41Z</time></trkpt><trkpt lat="43.78152623715565" lon="12.25277793265605"><ele>840.0</ele><time>2026-05-04T09:07:42Z</time></trkpt><trkpt lat="43.78152272657025" lon="12.252942459493166"><ele>840.0</ele><time>2026-05-04T09:07:43Z</time></trkpt><trkpt lat="43.78149832596742" lon="12.253102350392576"><ele>840.0</ele><time>2026-05-04T09:07:44Z</time></trkpt><trkpt lat="43.781452926769056" lon="12.253243682996198"><ele>840.0</ele><time>2026-05-04T09:07:45Z</time></trkpt><trkpt lat="43.7813902391359" lon="12.253372808648383"><ele>840.0</ele><time>2026-05-04T09:07:46Z</time></trkpt><trkpt lat="43.781315712781534" lon="12.253504387790992"><ele>840.0</ele><time>2026-05-04T09:07:47Z</time></trkpt><trkpt lat="43.78124131913347" lon="12.253642881966773"><ele>840.0</ele><time>2026-05-04T09:07:48Z</time></trkpt><trkpt lat="43.78115044761353" lon="12.253769640418485"><ele>840.0</ele><time>2026-05-04T09:07:49Z</time></trkpt><trkpt lat="43.78108246019079" lon="12.253922778057436"><ele>840.0</ele><time>2026-05-04T09:07:50Z</time></trkpt><trkpt lat="43.78099633457361" lon="12.254068086074165"><ele>840.0</ele><time>2026-05-04T09:07:51Z</time></trkpt><trkpt lat="43.7809136550833" lon="12.254212611668425"><ele>840.0</ele><time>2026-05-04T09:07:52Z</time></trkpt><trkpt lat="43.780833595737384" lon="12.254360330938598"><ele>838.5</ele><time>2026-05-04T09:07:53Z</time></trkpt><trkpt lat="43.78075247173935" lon="12.254516592088882"><ele>837.0</ele><time>2026-05-04T09:07:54Z</time></trkpt><trkpt lat="43.780679453393226" lon="12.254674838402298"><ele>835.5</ele><time>2026-05-04T09:07:55Z</time></trkpt><trkpt lat="43.78059703750129" lon="12.254835713794078"><ele>834.0</ele><time>2026-05-04T09:07:56Z</time></trkpt><trkpt lat="43.780520447965735" lon="12.255006952777764"><ele>834.0</ele><time>2026-05-04T09:07:57Z</time></trkpt><trkpt lat="43.78043833763728" lon="12.255171790471385"><ele>834.0</ele><time>2026-05-04T09:07:58Z</time></trkpt><trkpt lat="43.78035817792373" lon="12.255327502375824"><ele>834.0</ele><time>2026-05-04T09:07:59Z</time></trkpt><trkpt lat="43.780281338036964" lon="12.255460727429226"><ele>834.0</ele><time>2026-05-04T09:08:00Z</time></trkpt><trkpt lat="43.780196057674374" lon="12.255589981477703"><ele>831.75</ele><time>2026-05-04T09:08:01Z</time></trkpt><trkpt lat="43.78010544001149" lon="12.255712706839939"><ele>829.5</ele><time>2026-05-04T09:08:02Z</time></trkpt><trkpt lat="43.78000903554597" lon="12.25583053854307"><ele>827.25</ele><time>2026-05-04T09:08:03Z</time></trkpt><trkpt lat="43.77991141456924" lon="12.25594664740864"><ele>825.0</ele><time>2026-05-04T09:08:04Z</time></trkpt><trkpt lat="43.77981858583995" lon="12.25605846626625"><ele>825.0</ele><time>2026-05-04T09:08:05Z</time></trkpt><trkpt lat="43.77973434047052" lon="12.256162435271237"><ele>825.0</ele><time>2026-05-04T09:08:06Z</time></trkpt><trkpt lat="43.779651957092995" lon="12.256263611344446"><ele>825.0</ele><time>2026-05-04T09:08:07Z</time></trkpt><trkpt lat="43.77956870097529" lon="12.256373975540257"><ele>825.0</ele><time>2026-05-04T09:08:08Z</time></trkpt><trkpt lat="43.77948704694523" lon="12.256482356188592"><ele>824.5</ele><time>2026-05-04T09:08:09Z</time></trkpt><trkpt lat="43.77939894264467" lon="12.256580295307812"><ele>824.0</ele><time>2026-05-04T09:08:10Z</time></trkpt><trkpt lat="43.779295510541495" lon="12.256665796472765"><ele>823.5</ele><time>2026-05-04T09:08:11Z</time></trkpt><trkpt lat="43.779190774086814" lon="12.256744423647918"><ele>823.0</ele><time>2026-05-04T09:08:12Z</time></trkpt><trkpt lat="43.77908494514034" lon="12.256838840243084"><ele>823.0</ele><time>2026-05-04T09:08:13Z</time></trkpt><trkpt lat="43.77897968974476" lon="12.256933597655427"><ele>823.0</ele><time>2026-05-04T09:08:14Z</time></trkpt><trkpt lat="43.778877297502326" lon="12.257019242500123"><ele>823.0</ele><time>2026-05-04T09:08:15Z</time></trkpt><trkpt lat="43.778777202002736" lon="12.25709694308245"><ele>823.0</ele><time>2026-05-04T09:08:16Z</time></trkpt><trkpt lat="43.77867547905592" lon="12.25717922975029"><ele>823.0</ele><time>2026-05-04T09:08:17Z</time></trkpt><trkpt lat="43.77858053755134" lon="12.25725782957205"><ele>823.0</ele><time>2026-05-04T09:08:18Z</time></trkpt><trkpt lat="43.7784818193203" lon="12.257327264211417"><ele>823.0</ele><time>2026-05-04T09:08:19Z</time></trkpt><trkpt lat="43.778392719367915" lon="12.257401686258685"><ele>823.0</ele><time>2026-05-04T09:08:20Z</time></trkpt><trkpt lat="43.778308310258545" lon="12.257462081098355"><ele>823.0</ele><time>2026-05-04T09:08:21Z</time></trkpt><trkpt lat="43.778240035956124" lon="12.257506774109125"><ele>821.5999999999999</ele><time>2026-05-04T09:08:22Z</time></trkpt><trkpt lat="43.77818231967584" lon="12.257543413775037"><ele>820.1999999999999</ele><time>2026-05-04T09:08:23Z</time></trkpt><trkpt lat="43.77806686253289" lon="12.257589127378647"><ele>818.8</ele><time>2026-05-04T09:08:25Z</time></trkpt><trkpt lat="43.77791912034701" lon="12.257546974680885"><ele>817.4</ele><time>2026-05-04T09:08:27Z</time></trkpt><trkpt lat="43.777829074510514" lon="12.257562787504256"><ele>816.0</ele><time>2026-05-04T09:08:28Z</time></trkpt><trkpt lat="43.777737816924606" lon="12.257562595151786"><ele>814.5999999999999</ele><time>2026-05-04T09:08:29Z</time></trkpt><trkpt lat="43.77763796550319" lon="12.257553280712374"><ele>813.2</ele><time>2026-05-04T09:08:30Z</time></trkpt><trkpt lat="43.777530134905426" lon="12.257554937616254"><ele>811.8</ele><time>2026-05-04T09:08:31Z</time></trkpt><trkpt lat="43.77741628393881" lon="12.257553504025932"><ele>810.4000000000001</ele><time>2026-05-04T09:08:32Z</time></trkpt><trkpt lat="43.777304956630054" lon="12.25755245416001"><ele>809.0</ele><time>2026-05-04T09:08:33Z</time></trkpt><trkpt lat="43.777186639576435" lon="12.257555099697989"><ele>809.0</ele><time>2026-05-04T09:08:34Z</time></trkpt><trkpt lat="43.77706170102124" lon="12.25755709168346"><ele>809.0</ele><time>2026-05-04T09:08:35Z</time></trkpt><trkpt lat="43.77692877837875" lon="12.257558745683435"><ele>809.0</ele><time>2026-05-04T09:08:36Z</time></trkpt><trkpt lat="43.77678829955855" lon="12.257559655277516"><ele>809.0</ele><time>2026-05-04T09:08:37Z</time></trkpt><trkpt lat="43.77664110285116" lon="12.25756349332209"><ele>806.0</ele><time>2026-05-04T09:08:38Z</time></trkpt><trkpt lat="43.77649826897157" lon="12.257572396677524"><ele>803.0</ele><time>2026-05-04T09:08:39Z</time></trkpt><trkpt lat="43.77636078244843" lon="12.257575178726777"><ele>800.0</ele><time>2026-05-04T09:08:40Z</time></trkpt><trkpt lat="43.77621722024898" lon="12.257577176725707"><ele>797.0</ele><time>2026-05-04T09:08:41Z</time></trkpt><trkpt lat="43.77609479192318" lon="12.257577603342657"><ele>795.4000000000001</ele><time>2026-05-04T09:08:42Z</time></trkpt><trkpt lat="43.775979367008006" lon="12.257577378268413"><ele>793.8000000000001</ele><time>2026-05-04T09:08:43Z</time></trkpt><trkpt lat="43.775883335560984" lon="12.257575156198028"><ele>792.2</ele><time>2026-05-04T09:08:44Z</time></trkpt><trkpt lat="43.77580015449763" lon="12.257552975970434"><ele>790.6</ele><time>2026-05-04T09:08:45Z</time></trkpt><trkpt lat="43.7757178880548" lon="12.257510707142373"><ele>789.0</ele><time>2026-05-04T09:08:46Z</time></trkpt><trkpt lat="43.775654429334644" lon="12.25743469604964"><ele>788.9999999999999</ele><time>2026-05-04T09:08:47Z</time></trkpt><trkpt lat="43.7756151596069" lon="12.25735407706345"><ele>789.0</ele><time>2026-05-04T09:08:48Z</time></trkpt><trkpt lat="43.77558217525009" lon="12.257277858891635"><ele>789.0</ele><time>2026-05-04T09:08:49Z</time></trkpt><trkpt lat="43.77557514113054" lon="12.257177139898111"><ele>789.0</ele><time>2026-05-04T09:08:50Z</time></trkpt><trkpt lat="43.77557592495015" lon="12.257082104134154"><ele>789.0</ele><time>2026-05-04T09:08:51Z</time></trkpt><trkpt lat="43.77558843357583" lon="12.256973754136505"><ele>788.9999999999999</ele><time>2026-05-04T09:08:53Z</time></trkpt><trkpt lat="43.77552444851809" lon="12.256882874365889"><ele>789.0</ele><time>2026-05-04T09:08:56Z</time></trkpt><trkpt lat="43.775433206530806" lon="12.256858317071005"><ele>788.3333333333334</ele><time>2026-05-04T09:08:58Z</time></trkpt><trkpt lat="43.77540466170187" lon="12.256695899938514"><ele>787.6666666666667</ele><time>2026-05-04T09:09:00Z</time></trkpt><trkpt lat="43.77537509690524" lon="12.256610704231472"><ele>787.0</ele><time>2026-05-04T09:09:01Z</time></trkpt><trkpt lat="43.7753429804057" lon="12.256526862082943"><ele>786.3333333333334</ele><time>2026-05-04T09:09:02Z</time></trkpt><trkpt lat="43.77528963516857" lon="12.256446168829216"><ele>785.6666666666667</ele><time>2026-05-04T09:09:03Z</time></trkpt><trkpt lat="43.775226888337286" lon="12.256354205413247"><ele>785.0</ele><time>2026-05-04T09:09:04Z</time></trkpt><trkpt lat="43.77517094273679" lon="12.256272761060247"><ele>784.8333333333334</ele><time>2026-05-04T09:09:05Z</time></trkpt><trkpt lat="43.775126061902974" lon="12.256185458820193"><ele>784.6666666666667</ele><time>2026-05-04T09:09:06Z</time></trkpt><trkpt lat="43.77506173874435" lon="12.256144757704705"><ele>784.5</ele><time>2026-05-04T09:09:07Z</time></trkpt><trkpt lat="43.774994520885" lon="12.25607793475423"><ele>784.3333333333333</ele><time>2026-05-04T09:09:09Z</time></trkpt><trkpt lat="43.77490146418792" lon="12.256009580031884"><ele>784.1666666666666</ele><time>2026-05-04T09:09:16Z</time></trkpt><trkpt lat="43.77483672587614" lon="12.25596956993932"><ele>784.0</ele><time>2026-05-04T09:09:18Z</time></trkpt><trkpt lat="43.774776723364376" lon="12.255916290914678"><ele>784.0</ele><time>2026-05-04T09:09:21Z</time></trkpt><trkpt lat="43.774713266991974" lon="12.255879260332927"><ele>784.0</ele><time>2026-05-04T09:09:38Z</time></trkpt><trkpt lat="43.77463678586793" lon="12.25583446095638"><ele>784.0</ele><time>2026-05-04T09:09:42Z</time></trkpt><trkpt lat="43.77457464795838" lon="12.255799287901176"><ele>784.0</ele><time>2026-05-04T09:09:44Z</time></trkpt><trkpt lat="43.77453463490711" lon="12.255711569708142"><ele>784.0</ele><time>2026-05-04T09:09:58Z</time></trkpt><trkpt lat="43.774488927209156" lon="12.255629305901408"><ele>784.0</ele><time>2026-05-04T09:10:15Z</time></trkpt><trkpt lat="43.77444255654353" lon="12.25554038179631"><ele>784.0</ele><time>2026-05-04T09:10:18Z</time></trkpt><trkpt lat="43.77437376927243" lon="12.255544757682737"><ele>784.0</ele><time>2026-05-04T09:10:19Z</time></trkpt><trkpt lat="43.77428386228977" lon="12.25547820883315"><ele>784.0</ele><time>2026-05-04T09:10:21Z</time></trkpt><trkpt lat="43.77421745475517" lon="12.255453424879015"><ele>784.0</ele><time>2026-05-04T09:10:23Z</time></trkpt><trkpt lat="43.77427932471637" lon="12.255471407809743"><ele>784.0</ele><time>2026-05-04T09:11:06Z</time></trkpt><trkpt lat="43.77444146385703" lon="12.255604838759195"><ele>784.0</ele><time>2026-05-04T09:11:10Z</time></trkpt><trkpt lat="43.77449691579807" lon="12.255666960475015"><ele>783.9999999999999</ele><time>2026-05-04T09:11:12Z</time></trkpt><trkpt lat="43.77451756929199" lon="12.255749797202457"><ele>784.0</ele><time>2026-05-04T09:11:15Z</time></trkpt><trkpt lat="43.77459015815114" lon="12.255810704477174"><ele>784.0</ele><time>2026-05-04T09:11:29Z</time></trkpt><trkpt lat="43.77466052235909" lon="12.255890267151964"><ele>784.0</ele><time>2026-05-04T09:11:31Z</time></trkpt><trkpt lat="43.77475573866931" lon="12.255947982128097"><ele>783.9999999999999</ele><time>2026-05-04T09:11:33Z</time></trkpt><trkpt lat="43.77484654117783" lon="12.256006927717536"><ele>784.0</ele><time>2026-05-04T09:11:35Z</time></trkpt><trkpt lat="43.77495066653157" lon="12.256079931064303"><ele>784.0</ele><time>2026-05-04T09:11:37Z</time></trkpt><trkpt lat="43.77501839989592" lon="12.256115478300487"><ele>784.0</ele><time>2026-05-04T09:11:38Z</time></trkpt><trkpt lat="43.77507958592517" lon="12.256178609804959"><ele>784.0</ele><time>2026-05-04T09:11:39Z</time></trkpt><trkpt lat="43.775140611919525" lon="12.256246821307345"><ele>784.0</ele><time>2026-05-04T09:11:40Z</time></trkpt><trkpt lat="43.77519737366938" lon="12.25632104653685"><ele>784.0</ele><time>2026-05-04T09:11:41Z</time></trkpt><trkpt lat="43.775240394503946" lon="12.256386593441107"><ele>784.0</ele><time>2026-05-04T09:11:42Z</time></trkpt><trkpt lat="43.77528912791527" lon="12.256471706097916"><ele>784.0</ele><time>2026-05-04T09:11:43Z</time></trkpt><trkpt lat="43.77533082995438" lon="12.256552918120434"><ele>784.2</ele><time>2026-05-04T09:11:44Z</time></trkpt><trkpt lat="43.7753512765765" lon="12.256635916740171"><ele>784.4000000000001</ele><time>2026-05-04T09:11:45Z</time></trkpt><trkpt lat="43.77539285970685" lon="12.256790141510558"><ele>784.6</ele><time>2026-05-04T09:11:47Z</time></trkpt><trkpt lat="43.775409972795494" lon="12.256892526225018"><ele>784.8</ele><time>2026-05-04T09:11:49Z</time></trkpt><trkpt lat="43.77552634648132" lon="12.256914733804742"><ele>785.0</ele><time>2026-05-04T09:11:52Z</time></trkpt><trkpt lat="43.775542569222964" lon="12.257065020995936"><ele>785.0000000000001</ele><time>2026-05-04T09:11:55Z</time></trkpt><trkpt lat="43.775550863988215" lon="12.257234925351797"><ele>785.0</ele><time>2026-05-04T09:11:57Z</time></trkpt><trkpt lat="43.77557205773771" lon="12.257331294099094"><ele>785.0</ele><time>2026-05-04T09:11:58Z</time></trkpt><trkpt lat="43.77561129951067" lon="12.257429681626295"><ele>785.0</ele><time>2026-05-04T09:11:59Z</time></trkpt><trkpt lat="43.77566121244692" lon="12.257514324677024"><ele>785.0000000000001</ele><time>2026-05-04T09:12:00Z</time></trkpt><trkpt lat="43.77573027657549" lon="12.257575225370385"><ele>785.0</ele><time>2026-05-04T09:12:01Z</time></trkpt><trkpt lat="43.77581317886862" lon="12.25760608329407"><ele>785.8</ele><time>2026-05-04T09:12:02Z</time></trkpt><trkpt lat="43.77590775357185" lon="12.25760914717162"><ele>786.6</ele><time>2026-05-04T09:12:03Z</time></trkpt><trkpt lat="43.77601196100262" lon="12.257597672504428"><ele>787.4000000000001</ele><time>2026-05-04T09:12:04Z</time></trkpt><trkpt lat="43.77612202829526" lon="12.257588212713975"><ele>788.2</ele><time>2026-05-04T09:12:05Z</time></trkpt><trkpt lat="43.776242363945464" lon="12.257585309355198"><ele>789.0</ele><time>2026-05-04T09:12:06Z</time></trkpt><trkpt lat="43.77636246858154" lon="12.257588046888461"><ele>791.0</ele><time>2026-05-04T09:12:07Z</time></trkpt><trkpt lat="43.776492400367516" lon="12.257589085577395"><ele>793.0</ele><time>2026-05-04T09:12:08Z</time></trkpt><trkpt lat="43.776623296091984" lon="12.257587601405525"><ele>795.0</ele><time>2026-05-04T09:12:09Z</time></trkpt><trkpt lat="43.776757573632366" lon="12.25758570762304"><ele>797.0</ele><time>2026-05-04T09:12:10Z</time></trkpt><trkpt lat="43.77689309911422" lon="12.257579406161437"><ele>800.0</ele><time>2026-05-04T09:12:11Z</time></trkpt><trkpt lat="43.7770275524781" lon="12.257576321384589"><ele>803.0</ele><time>2026-05-04T09:12:12Z</time></trkpt><trkpt lat="43.77717069315222" lon="12.257580024699958"><ele>806.0</ele><time>2026-05-04T09:12:13Z</time></trkpt><trkpt lat="43.777304147418725" lon="12.257582870058009"><ele>809.0</ele><time>2026-05-04T09:12:14Z</time></trkpt><trkpt lat="43.77743779540295" lon="12.257581118096944"><ele>809.0</ele><time>2026-05-04T09:12:15Z</time></trkpt><trkpt lat="43.77756978766273" lon="12.257579667408733"><ele>809.0</ele><time>2026-05-04T09:12:16Z</time></trkpt><trkpt lat="43.77770016895307" lon="12.257574840295819"><ele>809.0</ele><time>2026-05-04T09:12:17Z</time></trkpt><trkpt lat="43.7778158022813" lon="12.257572099910785"><ele>809.0</ele><time>2026-05-04T09:12:18Z</time></trkpt><trkpt lat="43.777911590864875" lon="12.257583288204597"><ele>810.4000000000001</ele><time>2026-05-04T09:12:19Z</time></trkpt><trkpt lat="43.77798927388205" lon="12.2576099755243"><ele>811.8</ele><time>2026-05-04T09:12:20Z</time></trkpt><trkpt lat="43.77792198913553" lon="12.257746046707684"><ele>813.2</ele><time>2026-05-04T09:12:24Z</time></trkpt><trkpt lat="43.77782673199842" lon="12.25784645711427"><ele>814.5999999999999</ele><time>2026-05-04T09:12:26Z</time></trkpt><trkpt lat="43.77775801580494" lon="12.257899995119914"><ele>816.0</ele><time>2026-05-04T09:12:27Z</time></trkpt><trkpt lat="43.77769073410127" lon="12.257944693848419"><ele>816.0</ele><time>2026-05-04T09:12:28Z</time></trkpt><trkpt lat="43.77762181862251" lon="12.257984334408533"><ele>816.0</ele><time>2026-05-04T09:12:29Z</time></trkpt><trkpt lat="43.77755865940597" lon="12.258037791452306"><ele>816.0</ele><time>2026-05-04T09:12:30Z</time></trkpt><trkpt lat="43.7774898624428" lon="12.25809995106378"><ele>816.0</ele><time>2026-05-04T09:12:31Z</time></trkpt><trkpt lat="43.77741577290967" lon="12.258161541269521"><ele>816.0</ele><time>2026-05-04T09:12:32Z</time></trkpt><trkpt lat="43.77735397661929" lon="12.258228008799254"><ele>816.0</ele><time>2026-05-04T09:12:33Z</time></trkpt><trkpt lat="43.777298505861054" lon="12.258289154347425"><ele>816.0</ele><time>2026-05-04T09:12:34Z</time></trkpt><trkpt lat="43.777217306390426" lon="12.258405048089928"><ele>816.0</ele><time>2026-05-04T09:12:36Z</time></trkpt><trkpt lat="43.77717811321657" lon="12.258528561568687"><ele>816.0</ele><time>2026-05-04T09:12:38Z</time></trkpt><trkpt lat="43.77713219856543" lon="12.258689667974515"><ele>816.0</ele><time>2026-05-04T09:12:40Z</time></trkpt><trkpt lat="43.77710104759597" lon="12.258797690625364"><ele>816.0</ele><time>2026-05-04T09:12:41Z</time></trkpt><trkpt lat="43.77707566043653" lon="12.25891633939825"><ele>817.5999999999999</ele><time>2026-05-04T09:12:42Z</time></trkpt><trkpt lat="43.77705376631213" lon="12.259043846481243"><ele>819.2</ele><time>2026-05-04T09:12:43Z</time></trkpt><trkpt lat="43.77702733895144" lon="12.259173350090375"><ele>820.8</ele><time>2026-05-04T09:12:44Z</time></trkpt><trkpt lat="43.77699885074905" lon="12.259298493644366"><ele>822.4000000000001</ele><time>2026-05-04T09:12:45Z</time></trkpt><trkpt lat="43.77694231241894" lon="12.259421100190002"><ele>824.0</ele><time>2026-05-04T09:12:46Z</time></trkpt><trkpt lat="43.77688534779673" lon="12.259532313667759"><ele>820.5</ele><time>2026-05-04T09:12:47Z</time></trkpt><trkpt lat="43.77680045755068" lon="12.259635202385821"><ele>817.0</ele><time>2026-05-04T09:12:48Z</time></trkpt><trkpt lat="43.77669121069024" lon="12.259692940608462"><ele>813.5</ele><time>2026-05-04T09:12:49Z</time></trkpt><trkpt lat="43.7765709252684" lon="12.259735490079262"><ele>810.0</ele><time>2026-05-04T09:12:50Z</time></trkpt><trkpt lat="43.77644383857691" lon="12.259769216773293"><ele>811.5</ele><time>2026-05-04T09:12:51Z</time></trkpt><trkpt lat="43.77631267395715" lon="12.259813567163855"><ele>813.0</ele><time>2026-05-04T09:12:52Z</time></trkpt><trkpt lat="43.77618463976764" lon="12.259855092855386"><ele>814.5</ele><time>2026-05-04T09:12:53Z</time></trkpt><trkpt lat="43.776049809117815" lon="12.259891844298513"><ele>816.0</ele><time>2026-05-04T09:12:54Z</time></trkpt><trkpt lat="43.775909127364095" lon="12.259934866641554"><ele>816.0</ele><time>2026-05-04T09:12:55Z</time></trkpt><trkpt lat="43.77577375875851" lon="12.259971537483855"><ele>816.0</ele><time>2026-05-04T09:12:56Z</time></trkpt><trkpt lat="43.775634657784366" lon="12.259987427325507"><ele>816.0</ele><time>2026-05-04T09:12:57Z</time></trkpt><trkpt lat="43.77550130230843" lon="12.259980115159093"><ele>816.0</ele><time>2026-05-04T09:12:58Z</time></trkpt><trkpt lat="43.77538565965168" lon="12.25993866725411"><ele>816.0</ele><time>2026-05-04T09:12:59Z</time></trkpt><trkpt lat="43.77525588016096" lon="12.259875028024753"><ele>816.0</ele><time>2026-05-04T09:13:00Z</time></trkpt><trkpt lat="43.77512647113451" lon="12.259822211085714"><ele>816.0</ele><time>2026-05-04T09:13:00.999Z</time></trkpt><trkpt lat="43.774999846717954" lon="12.259775042670121"><ele>816.0</ele><time>2026-05-04T09:13:01.999Z</time></trkpt><trkpt lat="43.77486855822478" lon="12.259725727398894"><ele>815.0</ele><time>2026-05-04T09:13:02.999Z</time></trkpt><trkpt lat="43.77472786185005" lon="12.259674792094392"><ele>814.0</ele><time>2026-05-04T09:13:03.999Z</time></trkpt><trkpt lat="43.77458713215566" lon="12.259620909279182"><ele>813.0</ele><time>2026-05-04T09:13:04.999Z</time></trkpt><trkpt lat="43.77444600873249" lon="12.259566972930918"><ele>812.0</ele><time>2026-05-04T09:13:05.999Z</time></trkpt><trkpt lat="43.7743037742868" lon="12.259508842407232"><ele>812.0</ele><time>2026-05-04T09:13:06.999Z</time></trkpt><trkpt lat="43.77416478464209" lon="12.259456549678253"><ele>812.0</ele><time>2026-05-04T09:13:07.999Z</time></trkpt><trkpt lat="43.77402633036207" lon="12.259398286681392"><ele>812.0</ele><time>2026-05-04T09:13:08.999Z</time></trkpt><trkpt lat="43.77390677323403" lon="12.259341893957028"><ele>812.0</ele><time>2026-05-04T09:13:09.999Z</time></trkpt><trkpt lat="43.773793588591715" lon="12.25929309935544"><ele>812.0</ele><time>2026-05-04T09:13:10.999Z</time></trkpt><trkpt lat="43.77368386387231" lon="12.259244844869388"><ele>812.0</ele><time>2026-05-04T09:13:11.999Z</time></trkpt><trkpt lat="43.77356174158011" lon="12.259188574493088"><ele>812.0</ele><time>2026-05-04T09:13:12.999Z</time></trkpt><trkpt lat="43.77343246373244" lon="12.259128217269076"><ele>812.0</ele><time>2026-05-04T09:13:13.999Z</time></trkpt><trkpt lat="43.77329334594199" lon="12.259060056685632"><ele>811.6666666666667</ele><time>2026-05-04T09:13:14.999Z</time></trkpt><trkpt lat="43.77315274260593" lon="12.258988746521258"><ele>811.3333333333333</ele><time>2026-05-04T09:13:15.999Z</time></trkpt><trkpt lat="43.773006900699144" lon="12.258908346026207"><ele>811.0</ele><time>2026-05-04T09:13:16.999Z</time></trkpt><trkpt lat="43.7728706151095" lon="12.258822735274325"><ele>811.0</ele><time>2026-05-04T09:13:17.999Z</time></trkpt><trkpt lat="43.772745681275" lon="12.258734241490757"><ele>811.0</ele><time>2026-05-04T09:13:19Z</time></trkpt><trkpt lat="43.7726335045648" lon="12.25862340810731"><ele>811.0</ele><time>2026-05-04T09:13:20Z</time></trkpt><trkpt lat="43.772532466973175" lon="12.258493146674953"><ele>811.0</ele><time>2026-05-04T09:13:21Z</time></trkpt><trkpt lat="43.772437538018984" lon="12.258346167502658"><ele>811.25</ele><time>2026-05-04T09:13:22Z</time></trkpt><trkpt lat="43.77235021741047" lon="12.258211801590166"><ele>811.5</ele><time>2026-05-04T09:13:23Z</time></trkpt><trkpt lat="43.772251506833555" lon="12.258107218315732"><ele>811.75</ele><time>2026-05-04T09:13:24Z</time></trkpt><trkpt lat="43.77214252755876" lon="12.258016269341399"><ele>812.0</ele><time>2026-05-04T09:13:25Z</time></trkpt><trkpt lat="43.77202789464726" lon="12.25794267665031"><ele>812.0</ele><time>2026-05-04T09:13:26Z</time></trkpt><trkpt lat="43.77190456746095" lon="12.257876940300907"><ele>812.0</ele><time>2026-05-04T09:13:27Z</time></trkpt><trkpt lat="43.77178294414232" lon="12.257812135086985"><ele>812.0</ele><time>2026-05-04T09:13:28Z</time></trkpt><trkpt lat="43.77167218971502" lon="12.257747505735844"><ele>812.0</ele><time>2026-05-04T09:13:29Z</time></trkpt><trkpt lat="43.77156622858145" lon="12.257689419184882"><ele>814.0</ele><time>2026-05-04T09:13:30Z</time></trkpt><trkpt lat="43.771448727564874" lon="12.257665340625806"><ele>816.0</ele><time>2026-05-04T09:13:31Z</time></trkpt><trkpt lat="43.771321870021985" lon="12.257665047624567"><ele>818.0</ele><time>2026-05-04T09:13:32Z</time></trkpt><trkpt lat="43.77119360400829" lon="12.257671042813843"><ele>820.0</ele><time>2026-05-04T09:13:33Z</time></trkpt><trkpt lat="43.77107040814398" lon="12.257655098749142"><ele>822.0</ele><time>2026-05-04T09:13:34Z</time></trkpt><trkpt lat="43.77094949677528" lon="12.25760020092546"><ele>824.0</ele><time>2026-05-04T09:13:35Z</time></trkpt><trkpt lat="43.77083520831714" lon="12.257492163770323"><ele>826.0</ele><time>2026-05-04T09:13:36Z</time></trkpt><trkpt lat="43.77070549803705" lon="12.2574248519483"><ele>828.0</ele><time>2026-05-04T09:13:37Z</time></trkpt><trkpt lat="43.77058463676195" lon="12.257318597578625"><ele>825.0</ele><time>2026-05-04T09:13:38Z</time></trkpt><trkpt lat="43.77048431115442" lon="12.257199261109548"><ele>822.0</ele><time>2026-05-04T09:13:39Z</time></trkpt><trkpt lat="43.770421670185804" lon="12.257034949561724"><ele>819.0</ele><time>2026-05-04T09:13:40Z</time></trkpt><trkpt lat="43.77034336363567" lon="12.256871785636447"><ele>816.0</ele><time>2026-05-04T09:13:41Z</time></trkpt><trkpt lat="43.770262341154734" lon="12.256713650849443"><ele>816.0</ele><time>2026-05-04T09:13:42Z</time></trkpt><trkpt lat="43.77020885007621" lon="12.25652441793369"><ele>816.0</ele><time>2026-05-04T09:13:43Z</time></trkpt><trkpt lat="43.770176258177514" lon="12.256332230248"><ele>816.0</ele><time>2026-05-04T09:13:44Z</time></trkpt><trkpt lat="43.77016359715372" lon="12.256139682000255"><ele>816.0</ele><time>2026-05-04T09:13:45Z</time></trkpt><trkpt lat="43.770155290511426" lon="12.255947353285526"><ele>817.5</ele><time>2026-05-04T09:13:46Z</time></trkpt><trkpt lat="43.77014379391426" lon="12.255761236258271"><ele>819.0</ele><time>2026-05-04T09:13:47Z</time></trkpt><trkpt lat="43.77011310299324" lon="12.255591027023767"><ele>820.5</ele><time>2026-05-04T09:13:48Z</time></trkpt><trkpt lat="43.77006244307863" lon="12.25542615968676"><ele>822.0</ele><time>2026-05-04T09:13:49Z</time></trkpt><trkpt lat="43.76999307690624" lon="12.255263773113892"><ele>822.0</ele><time>2026-05-04T09:13:50Z</time></trkpt><trkpt lat="43.76991467916992" lon="12.255105618408223"><ele>822.0</ele><time>2026-05-04T09:13:51Z</time></trkpt><trkpt lat="43.769838685111615" lon="12.254949353513245"><ele>822.0</ele><time>2026-05-04T09:13:52Z</time></trkpt><trkpt lat="43.76976772475401" lon="12.254804484611126"><ele>822.0</ele><time>2026-05-04T09:13:53Z</time></trkpt><trkpt lat="43.7697017168232" lon="12.254653899595215"><ele>820.5</ele><time>2026-05-04T09:13:54Z</time></trkpt><trkpt lat="43.769625888380006" lon="12.254542140455712"><ele>819.0</ele><time>2026-05-04T09:13:55Z</time></trkpt><trkpt lat="43.76954327048351" lon="12.254427116530323"><ele>817.5</ele><time>2026-05-04T09:13:56Z</time></trkpt><trkpt lat="43.76944256047284" lon="12.254331206203366"><ele>816.0</ele><time>2026-05-04T09:13:57Z</time></trkpt><trkpt lat="43.76932383169876" lon="12.254267864511721"><ele>816.0</ele><time>2026-05-04T09:13:58Z</time></trkpt><trkpt lat="43.7691935527444" lon="12.254234101819586"><ele>816.0</ele><time>2026-05-04T09:13:59Z</time></trkpt><trkpt lat="43.76892383434364" lon="12.254227581863457"><ele>816.0</ele><time>2026-05-04T09:14:01Z</time></trkpt><trkpt lat="43.76878860876734" lon="12.254252323155551"><ele>816.0</ele><time>2026-05-04T09:14:02Z</time></trkpt><trkpt lat="43.768650440889665" lon="12.25428811415394"><ele>816.0</ele><time>2026-05-04T09:14:03Z</time></trkpt><trkpt lat="43.76851721357378" lon="12.254339129491353"><ele>816.0</ele><time>2026-05-04T09:14:04Z</time></trkpt><trkpt lat="43.768375412140095" lon="12.254361578729613"><ele>816.0</ele><time>2026-05-04T09:14:05Z</time></trkpt><trkpt lat="43.76823265134226" lon="12.254332353181969"><ele>815.5</ele><time>2026-05-04T09:14:06Z</time></trkpt><trkpt lat="43.76808114802967" lon="12.254331775420006"><ele>815.0</ele><time>2026-05-04T09:14:07Z</time></trkpt><trkpt lat="43.7679391364066" lon="12.254306390648852"><ele>814.5</ele><time>2026-05-04T09:14:08Z</time></trkpt><trkpt lat="43.767802531381335" lon="12.254286032875275"><ele>814.0</ele><time>2026-05-04T09:14:09Z</time></trkpt><trkpt lat="43.76767205742293" lon="12.254276273659277"><ele>813.5</ele><time>2026-05-04T09:14:10Z</time></trkpt><trkpt lat="43.767542209887054" lon="12.254288268988452"><ele>813.0</ele><time>2026-05-04T09:14:11Z</time></trkpt><trkpt lat="43.76741133673268" lon="12.254324343154511"><ele>812.5</ele><time>2026-05-04T09:14:12Z</time></trkpt><trkpt lat="43.767290593471955" lon="12.254361050964071"><ele>812.0</ele><time>2026-05-04T09:14:13Z</time></trkpt><trkpt lat="43.76719349999947" lon="12.254367082193482"><ele>812.0</ele><time>2026-05-04T09:14:14Z</time></trkpt><trkpt lat="43.76710187578551" lon="12.254328301231597"><ele>812.0</ele><time>2026-05-04T09:14:15Z</time></trkpt><trkpt lat="43.767041305367236" lon="12.25422440029575"><ele>812.0</ele><time>2026-05-04T09:14:16Z</time></trkpt><trkpt lat="43.767007124543646" lon="12.254108265985078"><ele>812.0</ele><time>2026-05-04T09:14:17Z</time></trkpt><trkpt lat="43.7670046131138" lon="12.253975239109975"><ele>812.0</ele><time>2026-05-04T09:14:18Z</time></trkpt><trkpt lat="43.76699931679987" lon="12.253820086615155"><ele>809.75</ele><time>2026-05-04T09:14:19Z</time></trkpt><trkpt lat="43.76701208514683" lon="12.253641675478047"><ele>807.5</ele><time>2026-05-04T09:14:20Z</time></trkpt><trkpt lat="43.76701697781114" lon="12.25345049701047"><ele>805.25</ele><time>2026-05-04T09:14:21Z</time></trkpt><trkpt lat="43.76701225131721" lon="12.253255637604376"><ele>803.0</ele><time>2026-05-04T09:14:22Z</time></trkpt><trkpt lat="43.766992430271905" lon="12.253047324164188"><ele>801.6666666666667</ele><time>2026-05-04T09:14:23Z</time></trkpt><trkpt lat="43.76695424290728" lon="12.252849964690693"><ele>800.3333333333333</ele><time>2026-05-04T09:14:24Z</time></trkpt><trkpt lat="43.766905989529675" lon="12.252652356690339"><ele>799.0</ele><time>2026-05-04T09:14:25Z</time></trkpt><trkpt lat="43.76685828368327" lon="12.25245126468105"><ele>801.75</ele><time>2026-05-04T09:14:26Z</time></trkpt><trkpt lat="43.7668204111308" lon="12.252246917757832"><ele>804.5</ele><time>2026-05-04T09:14:27Z</time></trkpt><trkpt lat="43.76680083818012" lon="12.25204045254987"><ele>807.25</ele><time>2026-05-04T09:14:28Z</time></trkpt><trkpt lat="43.76679561393678" lon="12.251839582145609"><ele>810.0</ele><time>2026-05-04T09:14:29Z</time></trkpt><trkpt lat="43.766788067162565" lon="12.251657550599175"><ele>810.0</ele><time>2026-05-04T09:14:30Z</time></trkpt><trkpt lat="43.76677295262116" lon="12.251472833479074"><ele>810.0</ele><time>2026-05-04T09:14:31Z</time></trkpt><trkpt lat="43.76673952503447" lon="12.25128486901725"><ele>810.0</ele><time>2026-05-04T09:14:32Z</time></trkpt><trkpt lat="43.766685087930064" lon="12.251101465149596"><ele>810.0</ele><time>2026-05-04T09:14:33Z</time></trkpt><trkpt lat="43.76662122636725" lon="12.250928630822127"><ele>809.25</ele><time>2026-05-04T09:14:34Z</time></trkpt><trkpt lat="43.76654922993476" lon="12.250759055873194"><ele>808.5</ele><time>2026-05-04T09:14:35Z</time></trkpt><trkpt lat="43.766466901221094" lon="12.250594056038949"><ele>807.75</ele><time>2026-05-04T09:14:36Z</time></trkpt><trkpt lat="43.76638272378815" lon="12.250435296028733"><ele>807.0</ele><time>2026-05-04T09:14:37Z</time></trkpt><trkpt lat="43.7663007540388" lon="12.250275605983598"><ele>806.75</ele><time>2026-05-04T09:14:38Z</time></trkpt><trkpt lat="43.766231134019314" lon="12.250120972290617"><ele>806.5</ele><time>2026-05-04T09:14:39Z</time></trkpt><trkpt lat="43.766179562078406" lon="12.249977502879732"><ele>806.25</ele><time>2026-05-04T09:14:40Z</time></trkpt><trkpt lat="43.76615210262689" lon="12.24983149598507"><ele>806.0</ele><time>2026-05-04T09:14:41Z</time></trkpt><trkpt lat="43.76615634309351" lon="12.24967737064628"><ele>806.5</ele><time>2026-05-04T09:14:42Z</time></trkpt><trkpt lat="43.766197753033225" lon="12.249519405313615"><ele>807.0</ele><time>2026-05-04T09:14:43Z</time></trkpt><trkpt lat="43.76627854950622" lon="12.249376609539299"><ele>807.5</ele><time>2026-05-04T09:14:44Z</time></trkpt><trkpt lat="43.76640212353497" lon="12.249279518414683"><ele>808.0</ele><time>2026-05-04T09:14:45Z</time></trkpt><trkpt lat="43.76650950433054" lon="12.249146501995492"><ele>808.0</ele><time>2026-05-04T09:14:46Z</time></trkpt><trkpt lat="43.7666252561479" lon="12.249036597397648"><ele>808.0</ele><time>2026-05-04T09:14:47Z</time></trkpt><trkpt lat="43.766723332498245" lon="12.248933552153517"><ele>808.0</ele><time>2026-05-04T09:14:48Z</time></trkpt><trkpt lat="43.7668106652164" lon="12.248841557924283"><ele>808.0</ele><time>2026-05-04T09:14:49Z</time></trkpt><trkpt lat="43.76688696012302" lon="12.24877022500579"><ele>808.0</ele><time>2026-05-04T09:14:50Z</time></trkpt><trkpt lat="43.766943906833085" lon="12.248721585064066"><ele>808.0</ele><time>2026-05-04T09:14:51Z</time></trkpt><trkpt lat="43.767002688925544" lon="12.248654762551418"><ele>808.0</ele><time>2026-05-04T09:15:04Z</time></trkpt><trkpt lat="43.76690968899762" lon="12.24837401374242"><ele>808.0</ele><time>2026-05-04T09:15:06Z</time></trkpt><trkpt lat="43.76685911329377" lon="12.24824799797927"><ele>809.2</ele><time>2026-05-04T09:15:06.999Z</time></trkpt><trkpt lat="43.766814971068946" lon="12.248157483374051"><ele>810.4</ele><time>2026-05-04T09:15:07.999Z</time></trkpt><trkpt lat="43.76678018571816" lon="12.248052910685328"><ele>811.6</ele><time>2026-05-04T09:15:08.999Z</time></trkpt><trkpt lat="43.76680338233739" lon="12.247913671063838"><ele>812.8000000000001</ele><time>2026-05-04T09:15:10.999Z</time></trkpt><trkpt lat="43.76674756754699" lon="12.247772228293867"><ele>814.0</ele><time>2026-05-04T09:15:12.999Z</time></trkpt><trkpt lat="43.76668758418784" lon="12.247672081677075"><ele>816.1666666666666</ele><time>2026-05-04T09:15:13.999Z</time></trkpt><trkpt lat="43.76665092876494" lon="12.24759361208388"><ele>818.3333333333333</ele><time>2026-05-04T09:15:14.999Z</time></trkpt><trkpt lat="43.766633871940385" lon="12.247431838940633"><ele>820.5</ele><time>2026-05-04T09:15:16.999Z</time></trkpt><trkpt lat="43.76666468519685" lon="12.24731989807045"><ele>822.6666666666667</ele><time>2026-05-04T09:15:17.999Z</time></trkpt><trkpt lat="43.76669451488101" lon="12.247213579116522"><ele>824.8333333333334</ele><time>2026-05-04T09:15:18.999Z</time></trkpt><trkpt lat="43.76669439759266" lon="12.247120461006515"><ele>827.0</ele><time>2026-05-04T09:15:19.999Z</time></trkpt><trkpt lat="43.76666649853257" lon="12.247009668152092"><ele>827.0</ele><time>2026-05-04T09:15:20.999Z</time></trkpt><trkpt lat="43.76665655739824" lon="12.246892080356714"><ele>827.0</ele><time>2026-05-04T09:15:21.999Z</time></trkpt><trkpt lat="43.76666206578791" lon="12.246779469367054"><ele>827.0</ele><time>2026-05-04T09:15:22.999Z</time></trkpt><trkpt lat="43.76670186860542" lon="12.246639558916034"><ele>827.0</ele><time>2026-05-04T09:15:25Z</time></trkpt><trkpt lat="43.766767185878145" lon="12.246586351283453"><ele>827.0</ele><time>2026-05-04T09:15:27Z</time></trkpt><trkpt lat="43.76689191307044" lon="12.246505663305712"><ele>828.1666666666667</ele><time>2026-05-04T09:15:29Z</time></trkpt><trkpt lat="43.766957178855655" lon="12.246460888875067"><ele>829.3333333333334</ele><time>2026-05-04T09:15:30Z</time></trkpt><trkpt lat="43.76702825736078" lon="12.246426541099499"><ele>830.5</ele><time>2026-05-04T09:15:31Z</time></trkpt><trkpt lat="43.76711023613168" lon="12.246390406980998"><ele>831.6666666666667</ele><time>2026-05-04T09:15:32Z</time></trkpt><trkpt lat="43.76718390485961" lon="12.246345478151007"><ele>832.8333333333334</ele><time>2026-05-04T09:15:33Z</time></trkpt><trkpt lat="43.76727290509182" lon="12.246284270110943"><ele>834.0</ele><time>2026-05-04T09:15:35Z</time></trkpt><trkpt lat="43.767280687481716" lon="12.246168099020098"><ele>834.0</ele><time>2026-05-04T09:15:38Z</time></trkpt><trkpt lat="43.767275558257616" lon="12.246076820431954"><ele>834.0</ele><time>2026-05-04T09:15:39Z</time></trkpt><trkpt lat="43.76727026685948" lon="12.245985595023015"><ele>834.0</ele><time>2026-05-04T09:15:42Z</time></trkpt><trkpt lat="43.76726524070966" lon="12.245825207195624"><ele>834.0</ele><time>2026-05-04T09:15:45Z</time></trkpt><trkpt lat="43.767240582834916" lon="12.245705162792657"><ele>834.0</ele><time>2026-05-04T09:15:46Z</time></trkpt><trkpt lat="43.76721793600359" lon="12.24558477062256"><ele>834.0</ele><time>2026-05-04T09:15:47Z</time></trkpt><trkpt lat="43.76718971532144" lon="12.245487034575058"><ele>833.0</ele><time>2026-05-04T09:15:48Z</time></trkpt><trkpt lat="43.767172951310165" lon="12.245384425871025"><ele>832.0</ele><time>2026-05-04T09:15:49Z</time></trkpt><trkpt lat="43.76716545301847" lon="12.245289138287143"><ele>831.0</ele><time>2026-05-04T09:15:50Z</time></trkpt><trkpt lat="43.76715781849047" lon="12.245132950807875"><ele>830.0</ele><time>2026-05-04T09:15:52Z</time></trkpt><trkpt lat="43.76715693128148" lon="12.245024589076806"><ele>829.0</ele><time>2026-05-04T09:15:55Z</time></trkpt><trkpt lat="43.76718600085475" lon="12.244926267646576"><ele>828.0</ele><time>2026-05-04T09:16:07Z</time></trkpt><trkpt lat="43.76718006466755" lon="12.244795981733905"><ele>826.3333333333334</ele><time>2026-05-04T09:16:10Z</time></trkpt><trkpt lat="43.76716145769782" lon="12.244709303198954"><ele>824.6666666666667</ele><time>2026-05-04T09:16:11Z</time></trkpt><trkpt lat="43.767136882404095" lon="12.244590125407315"><ele>823.0</ele><time>2026-05-04T09:16:13Z</time></trkpt><trkpt lat="43.76708223318677" lon="12.244459563928627"><ele>821.3333333333334</ele><time>2026-05-04T09:16:15Z</time></trkpt><trkpt lat="43.76704426847032" lon="12.244388296861903"><ele>819.6666666666667</ele><time>2026-05-04T09:16:16Z</time></trkpt><trkpt lat="43.76693720606203" lon="12.24431266379544"><ele>818.0</ele><time>2026-05-04T09:16:18Z</time></trkpt><trkpt lat="43.766864948271014" lon="12.24425318525604"><ele>818.1666666666667</ele><time>2026-05-04T09:16:19Z</time></trkpt><trkpt lat="43.76678865726553" lon="12.244196742963283"><ele>818.3333333333334</ele><time>2026-05-04T09:16:20Z</time></trkpt><trkpt lat="43.766715017468194" lon="12.244144889301634"><ele>818.5</ele><time>2026-05-04T09:16:21Z</time></trkpt><trkpt lat="43.76663346365775" lon="12.244075794851547"><ele>818.6666666666667</ele><time>2026-05-04T09:16:22Z</time></trkpt><trkpt lat="43.76656418885505" lon="12.244011380102318"><ele>818.8333333333334</ele><time>2026-05-04T09:16:23Z</time></trkpt><trkpt lat="43.766498038203004" lon="12.243957367407575"><ele>819.0</ele><time>2026-05-04T09:16:24Z</time></trkpt><trkpt lat="43.766436983150385" lon="12.243920322476052"><ele>819.0</ele><time>2026-05-04T09:16:25Z</time></trkpt><trkpt lat="43.76636574479322" lon="12.243917423225945"><ele>819.0</ele><time>2026-05-04T09:16:26Z</time></trkpt><trkpt lat="43.76625925606977" lon="12.243845163057635"><ele>819.0</ele><time>2026-05-04T09:16:28Z</time></trkpt><trkpt lat="43.76619936874786" lon="12.243750454908884"><ele>819.0</ele><time>2026-05-04T09:16:29Z</time></trkpt><trkpt lat="43.766159556480545" lon="12.2436477122825"><ele>819.0</ele><time>2026-05-04T09:16:30Z</time></trkpt><trkpt lat="43.76613353857174" lon="12.243529996572684"><ele>819.0</ele><time>2026-05-04T09:16:31Z</time></trkpt><trkpt lat="43.76610415450683" lon="12.243408320867632"><ele>819.0</ele><time>2026-05-04T09:16:32Z</time></trkpt><trkpt lat="43.76606319602572" lon="12.24331040762546"><ele>819.0</ele><time>2026-05-04T09:16:33Z</time></trkpt><trkpt lat="43.76602589578506" lon="12.24319385879032"><ele>819.0</ele><time>2026-05-04T09:16:34Z</time></trkpt><trkpt lat="43.7659788885488" lon="12.243115255827101"><ele>819.0</ele><time>2026-05-04T09:16:35Z</time></trkpt><trkpt lat="43.765936493871585" lon="12.243044025590917"><ele>819.0</ele><time>2026-05-04T09:16:36Z</time></trkpt><trkpt lat="43.765842711723124" lon="12.243007115408675"><ele>820.8333333333334</ele><time>2026-05-04T09:16:38Z</time></trkpt><trkpt lat="43.76577148651776" lon="12.242983677584556"><ele>822.6666666666667</ele><time>2026-05-04T09:16:39Z</time></trkpt><trkpt lat="43.76569811610076" lon="12.242932918255923"><ele>824.5</ele><time>2026-05-04T09:16:40Z</time></trkpt><trkpt lat="43.76564212766169" lon="12.242864233263445"><ele>826.3333333333334</ele><time>2026-05-04T09:16:41Z</time></trkpt><trkpt lat="43.76559722275558" lon="12.242794549738536"><ele>828.1666666666667</ele><time>2026-05-04T09:16:42Z</time></trkpt><trkpt lat="43.76552144055266" lon="12.242676311982335"><ele>830.0</ele><time>2026-05-04T09:16:44Z</time></trkpt><trkpt lat="43.765485291371505" lon="12.242572619956661"><ele>830.0</ele><time>2026-05-04T09:16:45Z</time></trkpt><trkpt lat="43.76546393499632" lon="12.242468252735685"><ele>830.0</ele><time>2026-05-04T09:16:46Z</time></trkpt><trkpt lat="43.76544066494157" lon="12.242377218861971"><ele>830.0</ele><time>2026-05-04T09:16:47Z</time></trkpt><trkpt lat="43.76542230497325" lon="12.242271213061418"><ele>830.0</ele><time>2026-05-04T09:16:48Z</time></trkpt><trkpt lat="43.765396369795376" lon="12.242135220880222"><ele>830.0</ele><time>2026-05-04T09:16:49Z</time></trkpt><trkpt lat="43.765356861735704" lon="12.241958742634287"><ele>829.0</ele><time>2026-05-04T09:16:50Z</time></trkpt><trkpt lat="43.765345482234665" lon="12.241815824552976"><ele>828.0</ele><time>2026-05-04T09:16:51Z</time></trkpt><trkpt lat="43.76537498806449" lon="12.241720655194078"><ele>827.0</ele><time>2026-05-04T09:16:53Z</time></trkpt><trkpt lat="43.76533975630645" lon="12.24152957751427"><ele>826.0</ele><time>2026-05-04T09:16:55Z</time></trkpt><trkpt lat="43.76531429895647" lon="12.241439089895508"><ele>825.0</ele><time>2026-05-04T09:16:56Z</time></trkpt><trkpt lat="43.765277040093274" lon="12.241355162351496"><ele>824.1666666666666</ele><time>2026-05-04T09:16:57Z</time></trkpt><trkpt lat="43.76522960755258" lon="12.241264978780821"><ele>823.3333333333333</ele><time>2026-05-04T09:16:59Z</time></trkpt><trkpt lat="43.7651215018033" lon="12.241173369535609"><ele>822.5</ele><time>2026-05-04T09:17:01Z</time></trkpt><trkpt lat="43.76507309303491" lon="12.241110879370437"><ele>821.6666666666666</ele><time>2026-05-04T09:17:02Z</time></trkpt><trkpt lat="43.76498886747737" lon="12.241044044222477"><ele>820.8333333333333</ele><time>2026-05-04T09:17:04Z</time></trkpt><trkpt lat="43.76491495780486" lon="12.241028555813145"><ele>820.0</ele><time>2026-05-04T09:17:05Z</time></trkpt><trkpt lat="43.76483299772493" lon="12.241016042765358"><ele>824.2</ele><time>2026-05-04T09:17:06Z</time></trkpt><trkpt lat="43.764758527341506" lon="12.240975820515295"><ele>828.4</ele><time>2026-05-04T09:17:07Z</time></trkpt><trkpt lat="43.76467241464155" lon="12.240906732173443"><ele>832.5999999999999</ele><time>2026-05-04T09:17:08Z</time></trkpt><trkpt lat="43.76459393702286" lon="12.240845290118104"><ele>836.8</ele><time>2026-05-04T09:17:09Z</time></trkpt><trkpt lat="43.764512151622654" lon="12.240764716359948"><ele>841.0</ele><time>2026-05-04T09:17:10Z</time></trkpt><trkpt lat="43.76442782842856" lon="12.240702445989244"><ele>840.9999999999999</ele><time>2026-05-04T09:17:11Z</time></trkpt><trkpt lat="43.7643741720187" lon="12.240648368098785"><ele>841.0</ele><time>2026-05-04T09:17:12Z</time></trkpt><trkpt lat="43.76433932390709" lon="12.240753918987773"><ele>841.0</ele><time>2026-05-04T09:17:16Z</time></trkpt><trkpt lat="43.764375815447536" lon="12.240831967643253"><ele>841.0</ele><time>2026-05-04T09:17:18Z</time></trkpt><trkpt lat="43.76437282705557" lon="12.24099999450371"><ele>840.9999999999999</ele><time>2026-05-04T09:17:35Z</time></trkpt><trkpt lat="43.764352002750655" lon="12.24111156963476"><ele>841.0</ele><time>2026-05-04T09:17:36Z</time></trkpt><trkpt lat="43.76431248198652" lon="12.241213569839182"><ele>841.5999999999999</ele><time>2026-05-04T09:17:37Z</time></trkpt><trkpt lat="43.76425481722316" lon="12.24131355452413"><ele>842.2</ele><time>2026-05-04T09:17:38Z</time></trkpt><trkpt lat="43.76418449904745" lon="12.241423412678468"><ele>842.8</ele><time>2026-05-04T09:17:39Z</time></trkpt><trkpt lat="43.764104821546326" lon="12.241535798315935"><ele>843.4000000000001</ele><time>2026-05-04T09:17:40Z</time></trkpt><trkpt lat="43.76402824626742" lon="12.241654387949565"><ele>844.0</ele><time>2026-05-04T09:17:41Z</time></trkpt><trkpt lat="43.76395930578755" lon="12.241747831528679"><ele>844.4999999999999</ele><time>2026-05-04T09:17:42Z</time></trkpt><trkpt lat="43.7638982540679" lon="12.241833161710783"><ele>845.0</ele><time>2026-05-04T09:17:43Z</time></trkpt><trkpt lat="43.763848605035086" lon="12.241920032384046"><ele>845.5</ele><time>2026-05-04T09:17:44Z</time></trkpt><trkpt lat="43.7638062605513" lon="12.242004183255323"><ele>846.0</ele><time>2026-05-04T09:17:45Z</time></trkpt><trkpt lat="43.76377092300195" lon="12.242096860889243"><ele>846.4999999999999</ele><time>2026-05-04T09:17:46Z</time></trkpt><trkpt lat="43.76374749428198" lon="12.242192820552752"><ele>847.0</ele><time>2026-05-04T09:17:47Z</time></trkpt><trkpt lat="43.76373892011777" lon="12.242291699627959"><ele>848.6</ele><time>2026-05-04T09:17:48Z</time></trkpt><trkpt lat="43.76374440779404" lon="12.24239779500061"><ele>850.2</ele><time>2026-05-04T09:17:49Z</time></trkpt><trkpt lat="43.763758041634176" lon="12.242527863769753"><ele>851.8</ele><time>2026-05-04T09:17:50Z</time></trkpt><trkpt lat="43.76377725169121" lon="12.242664830090138"><ele>853.4</ele><time>2026-05-04T09:17:51Z</time></trkpt><trkpt lat="43.763791260876296" lon="12.242825350073792"><ele>855.0</ele><time>2026-05-04T09:17:52Z</time></trkpt><trkpt lat="43.763781674025076" lon="12.242958243790074"><ele>855.0</ele><time>2026-05-04T09:17:53Z</time></trkpt><trkpt lat="43.763731244918596" lon="12.243071422175351"><ele>855.0</ele><time>2026-05-04T09:17:54Z</time></trkpt><trkpt lat="43.76367485037907" lon="12.243169058225535"><ele>855.0</ele><time>2026-05-04T09:17:55Z</time></trkpt><trkpt lat="43.76363094756629" lon="12.243245176157744"><ele>855.0</ele><time>2026-05-04T09:17:56Z</time></trkpt><trkpt lat="43.76359117502015" lon="12.243316320470303"><ele>855.0</ele><time>2026-05-04T09:17:57Z</time></trkpt><trkpt lat="43.76351914184321" lon="12.243401451773755"><ele>855.0</ele><time>2026-05-04T09:17:59Z</time></trkpt><trkpt lat="43.76358168515872" lon="12.243358978791354"><ele>855.0</ele><time>2026-05-04T09:18:25Z</time></trkpt><trkpt lat="43.763635897856375" lon="12.243230270180971"><ele>855.0</ele><time>2026-05-04T09:18:27Z</time></trkpt><trkpt lat="43.76370359151269" lon="12.24310941205897"><ele>855.0</ele><time>2026-05-04T09:18:29Z</time></trkpt><trkpt lat="43.76373638803154" lon="12.243022589653119"><ele>855.0</ele><time>2026-05-04T09:18:30Z</time></trkpt><trkpt lat="43.76375976814535" lon="12.242928769999947"><ele>855.0</ele><time>2026-05-04T09:18:31Z</time></trkpt><trkpt lat="43.76377326382117" lon="12.24284146328657"><ele>855.0</ele><time>2026-05-04T09:18:32Z</time></trkpt><trkpt lat="43.76375984815008" lon="12.2426836619566"><ele>855.0</ele><time>2026-05-04T09:18:34Z</time></trkpt><trkpt lat="43.76374710163586" lon="12.242547104343625"><ele>855.0</ele><time>2026-05-04T09:18:36Z</time></trkpt><trkpt lat="43.76374740474049" lon="12.242425586758499"><ele>855.0</ele><time>2026-05-04T09:18:38.001Z</time></trkpt><trkpt lat="43.76373095804065" lon="12.242326270981364"><ele>855.0</ele><time>2026-05-04T09:18:41.001Z</time></trkpt><trkpt lat="43.763659378981885" lon="12.24238330415904"><ele>855.0</ele><time>2026-05-04T09:18:44.001Z</time></trkpt><trkpt lat="43.76359263131684" lon="12.242468301196695"><ele>855.0</ele><time>2026-05-04T09:18:46.001Z</time></trkpt><trkpt lat="43.76353917694317" lon="12.242543011330953"><ele>852.8571428571429</ele><time>2026-05-04T09:18:48.001Z</time></trkpt><trkpt lat="43.76350269145435" lon="12.242616938756752"><ele>850.7142857142857</ele><time>2026-05-04T09:18:57.001Z</time></trkpt><trkpt lat="43.763463993510165" lon="12.242686713299365"><ele>848.5714285714286</ele><time>2026-05-04T09:19:03.001Z</time></trkpt><trkpt lat="43.76342153300328" lon="12.24275566600741"><ele>846.4285714285714</ele><time>2026-05-04T09:19:05.001Z</time></trkpt><trkpt lat="43.763376842078564" lon="12.242821132824865"><ele>844.2857142857142</ele><time>2026-05-04T09:19:07.001Z</time></trkpt><trkpt lat="43.76330135745554" lon="12.242792281358042"><ele>842.1428571428571</ele><time>2026-05-04T09:19:10.001Z</time></trkpt><trkpt lat="43.763255859537416" lon="12.242730240674627"><ele>840.0</ele><time>2026-05-04T09:19:12.001Z</time></trkpt><trkpt lat="43.76318895739258" lon="12.242673670775185"><ele>840.0</ele><time>2026-05-04T09:19:15.001Z</time></trkpt><trkpt lat="43.76310340992749" lon="12.242646703438773"><ele>840.0</ele><time>2026-05-04T09:20:41.001Z</time></trkpt><trkpt lat="43.76303567192811" lon="12.242567807408566"><ele>840.0</ele><time>2026-05-04T09:20:44.001Z</time></trkpt><trkpt lat="43.762917123852645" lon="12.242459835999531"><ele>840.0</ele><time>2026-05-04T09:20:46.001Z</time></trkpt><trkpt lat="43.76282959268764" lon="12.242405593216132"><ele>840.0</ele><time>2026-05-04T09:20:47.001Z</time></trkpt><trkpt lat="43.762759668571135" lon="12.242376446206912"><ele>837.25</ele><time>2026-05-04T09:20:48.001Z</time></trkpt><trkpt lat="43.76267339574474" lon="12.242327904488894"><ele>834.5</ele><time>2026-05-04T09:20:50.001Z</time></trkpt><trkpt lat="43.76260668832941" lon="12.242278587077202"><ele>831.75</ele><time>2026-05-04T09:20:54.001Z</time></trkpt><trkpt lat="43.762518050138006" lon="12.242326180208584"><ele>829.0</ele><time>2026-05-04T09:20:56.001Z</time></trkpt><trkpt lat="43.76247674481812" lon="12.24205072165203"><ele>828.9999999999999</ele><time>2026-05-04T09:20:58.001Z</time></trkpt><trkpt lat="43.76239093400029" lon="12.242094146221813"><ele>829.0</ele><time>2026-05-04T09:21:01.001Z</time></trkpt><trkpt lat="43.76234566687338" lon="12.242165269635274"><ele>829.0</ele><time>2026-05-04T09:21:02.001Z</time></trkpt><trkpt lat="43.762305324586514" lon="12.242258137541118"><ele>829.0</ele><time>2026-05-04T09:21:03.001Z</time></trkpt><trkpt lat="43.76226239069646" lon="12.24234532335499"><ele>828.9999999999999</ele><time>2026-05-04T09:21:04.001Z</time></trkpt><trkpt lat="43.762211966019315" lon="12.242434361549053"><ele>829.0</ele><time>2026-05-04T09:21:05.001Z</time></trkpt><trkpt lat="43.76214714345826" lon="12.242515368172798"><ele>829.0</ele><time>2026-05-04T09:21:06.001Z</time></trkpt><trkpt lat="43.7620934289748" lon="12.24262452458837"><ele>829.0</ele><time>2026-05-04T09:21:07.001Z</time></trkpt><trkpt lat="43.76202107741388" lon="12.242722666861072"><ele>829.0</ele><time>2026-05-04T09:21:08.001Z</time></trkpt><trkpt lat="43.76195970466933" lon="12.242809232451917"><ele>829.0</ele><time>2026-05-04T09:21:09.001Z</time></trkpt><trkpt lat="43.76189580125061" lon="12.242889535675733"><ele>829.0</ele><time>2026-05-04T09:21:10.001Z</time></trkpt><trkpt lat="43.76183910319679" lon="12.242973367885075"><ele>828.6666666666666</ele><time>2026-05-04T09:21:11.001Z</time></trkpt><trkpt lat="43.76177492692287" lon="12.243053049435607"><ele>828.3333333333333</ele><time>2026-05-04T09:21:12.001Z</time></trkpt><trkpt lat="43.76171527938065" lon="12.243142959019893"><ele>828.0</ele><time>2026-05-04T09:21:13.001Z</time></trkpt><trkpt lat="43.76167147199366" lon="12.243253331421935"><ele>827.6666666666667</ele><time>2026-05-04T09:21:14.001Z</time></trkpt><trkpt lat="43.76164231600877" lon="12.243370339682512"><ele>827.3333333333334</ele><time>2026-05-04T09:21:15.001Z</time></trkpt><trkpt lat="43.7616152381484" lon="12.243495100305053"><ele>827.0</ele><time>2026-05-04T09:21:16.001Z</time></trkpt><trkpt lat="43.76157376829834" lon="12.243609878772027"><ele>827.0</ele><time>2026-05-04T09:21:17.001Z</time></trkpt><trkpt lat="43.76153452538358" lon="12.243727953499027"><ele>827.0</ele><time>2026-05-04T09:21:18.001Z</time></trkpt><trkpt lat="43.76149361190487" lon="12.243852762571901"><ele>827.0</ele><time>2026-05-04T09:21:19.001Z</time></trkpt><trkpt lat="43.76140222310293" lon="12.244065410863598"><ele>827.0</ele><time>2026-05-04T09:21:21.001Z</time></trkpt><trkpt lat="43.7613229252467" lon="12.244162995476769"><ele>829.0</ele><time>2026-05-04T09:21:23.001Z</time></trkpt><trkpt lat="43.761248111226514" lon="12.244204704178191"><ele>831.0</ele><time>2026-05-04T09:21:25Z</time></trkpt><trkpt lat="43.7615974882128" lon="12.24416061389743"><ele>833.0</ele><time>2026-05-04T09:21:31Z</time></trkpt><trkpt lat="43.761527175027126" lon="12.244462041758565"><ele>827.0</ele><time>2026-05-04T09:21:32Z</time></trkpt><trkpt lat="43.76139062369788" lon="12.24380716088016"><ele>827.0</ele><time>2026-05-04T09:21:36Z</time></trkpt><trkpt lat="43.761311916526" lon="12.243700382718998"><ele>827.0</ele><time>2026-05-04T09:21:38Z</time></trkpt><trkpt lat="43.76123419121849" lon="12.243607076366935"><ele>827.0</ele><time>2026-05-04T09:21:40Z</time></trkpt><trkpt lat="43.761158745188084" lon="12.243542173233546"><ele>827.0</ele><time>2026-05-04T09:21:42Z</time></trkpt><trkpt lat="43.761077988985306" lon="12.243521566340386"><ele>827.0</ele><time>2026-05-04T09:21:44Z</time></trkpt><trkpt lat="43.761015261405355" lon="12.243488063424843"><ele>824.6</ele><time>2026-05-04T09:21:47Z</time></trkpt><trkpt lat="43.76093491729717" lon="12.243494450737161"><ele>822.2</ele><time>2026-05-04T09:21:50Z</time></trkpt><trkpt lat="43.76086232701099" lon="12.243512677411465"><ele>819.8</ele><time>2026-05-04T09:21:54Z</time></trkpt><trkpt lat="43.760808223717234" lon="12.24345464945184"><ele>817.4</ele><time>2026-05-04T09:21:58Z</time></trkpt><trkpt lat="43.76074502086783" lon="12.243461221914664"><ele>815.0</ele><time>2026-05-04T09:22:01Z</time></trkpt><trkpt lat="43.760680040925536" lon="12.24310385569747"><ele>815.0</ele><time>2026-05-04T09:22:03Z</time></trkpt><trkpt lat="43.760609363304184" lon="12.243008145496923"><ele>815.0</ele><time>2026-05-04T09:22:05Z</time></trkpt><trkpt lat="43.76056719117746" lon="12.24293380289671"><ele>815.0</ele><time>2026-05-04T09:22:07Z</time></trkpt><trkpt lat="43.76058205451374" lon="12.243031219617194"><ele>815.0</ele><time>2026-05-04T09:22:14Z</time></trkpt><trkpt lat="43.760643772535616" lon="12.243074624977206"><ele>815.0</ele><time>2026-05-04T09:22:15Z</time></trkpt><trkpt lat="43.76069693414883" lon="12.243123671143783"><ele>815.0</ele><time>2026-05-04T09:22:16Z</time></trkpt><trkpt lat="43.76073762318548" lon="12.243191071739894"><ele>815.0</ele><time>2026-05-04T09:22:17Z</time></trkpt><trkpt lat="43.760804729155424" lon="12.243310829684104"><ele>815.0</ele><time>2026-05-04T09:22:19Z</time></trkpt><trkpt lat="43.76086135604758" lon="12.243419802329495"><ele>815.0</ele><time>2026-05-04T09:22:21Z</time></trkpt><trkpt lat="43.76094971546058" lon="12.243496557643072"><ele>815.0</ele><time>2026-05-04T09:22:23Z</time></trkpt><trkpt lat="43.760786177571376" lon="12.243614287278028"><ele>815.0</ele><time>2026-05-04T09:22:26Z</time></trkpt><trkpt lat="43.76069904501389" lon="12.243668550218143"><ele>815.0</ele><time>2026-05-04T09:22:28Z</time></trkpt><trkpt lat="43.760600896795964" lon="12.24374739587869"><ele>815.0</ele><time>2026-05-04T09:22:30Z</time></trkpt><trkpt lat="43.76051553028294" lon="12.243822028525813"><ele>815.0</ele><time>2026-05-04T09:22:32Z</time></trkpt><trkpt lat="43.760431860913464" lon="12.243876817542594"><ele>815.0</ele><time>2026-05-04T09:22:34Z</time></trkpt><trkpt lat="43.76030999652749" lon="12.243914872963453"><ele>815.0</ele><time>2026-05-04T09:22:36Z</time></trkpt><trkpt lat="43.76019175834045" lon="12.243880746918911"><ele>812.8333333333334</ele><time>2026-05-04T09:22:38Z</time></trkpt><trkpt lat="43.760130082955236" lon="12.243828733943475"><ele>810.6666666666667</ele><time>2026-05-04T09:22:39.001Z</time></trkpt><trkpt lat="43.76006625724316" lon="12.243775163338771"><ele>808.5</ele><time>2026-05-04T09:22:40.001Z</time></trkpt><trkpt lat="43.75999836673612" lon="12.243705451211408"><ele>806.3333333333333</ele><time>2026-05-04T09:22:41.001Z</time></trkpt><trkpt lat="43.759926323650745" lon="12.243611972338762"><ele>804.1666666666666</ele><time>2026-05-04T09:22:42.001Z</time></trkpt><trkpt lat="43.759874336820545" lon="12.243532933657747"><ele>802.0</ele><time>2026-05-04T09:22:43.001Z</time></trkpt><trkpt lat="43.75981891011285" lon="12.243445881001973"><ele>801.9999999999999</ele><time>2026-05-04T09:22:44.001Z</time></trkpt><trkpt lat="43.75975517496803" lon="12.243352612520393"><ele>802.0</ele><time>2026-05-04T09:22:45.001Z</time></trkpt><trkpt lat="43.759700676104295" lon="12.24325924164674"><ele>802.0</ele><time>2026-05-04T09:22:46.001Z</time></trkpt><trkpt lat="43.75964523529879" lon="12.243160394653987"><ele>802.0</ele><time>2026-05-04T09:22:47.001Z</time></trkpt><trkpt lat="43.75958750186986" lon="12.243064068724383"><ele>801.9999999999999</ele><time>2026-05-04T09:22:48.001Z</time></trkpt><trkpt lat="43.759531639832005" lon="12.242973957103573"><ele>802.0</ele><time>2026-05-04T09:22:49.001Z</time></trkpt><trkpt lat="43.759473009142056" lon="12.242876021651787"><ele>800.6</ele><time>2026-05-04T09:22:50.001Z</time></trkpt><trkpt lat="43.75941964710287" lon="12.242772248742966"><ele>799.2</ele><time>2026-05-04T09:22:51.001Z</time></trkpt><trkpt lat="43.75936560910539" lon="12.242672813051984"><ele>797.8</ele><time>2026-05-04T09:22:52.001Z</time></trkpt><trkpt lat="43.75931584433879" lon="12.242564862918371"><ele>796.4</ele><time>2026-05-04T09:22:53.001Z</time></trkpt><trkpt lat="43.759262195385766" lon="12.242456934300067"><ele>795.0</ele><time>2026-05-04T09:22:54.001Z</time></trkpt><trkpt lat="43.75921376270656" lon="12.24235289263135"><ele>792.4</ele><time>2026-05-04T09:22:55.001Z</time></trkpt><trkpt lat="43.75915950631553" lon="12.242241119907519"><ele>789.8</ele><time>2026-05-04T09:22:56.001Z</time></trkpt><trkpt lat="43.759097780389716" lon="12.242128878470446"><ele>787.2</ele><time>2026-05-04T09:22:57.001Z</time></trkpt><trkpt lat="43.75903457195705" lon="12.242012095232738"><ele>784.6</ele><time>2026-05-04T09:22:58.001Z</time></trkpt><trkpt lat="43.75897762256519" lon="12.241913105605557"><ele>782.0</ele><time>2026-05-04T09:22:59.001Z</time></trkpt><trkpt lat="43.758929378216195" lon="12.241823073957342"><ele>782.0</ele><time>2026-05-04T09:23:00.001Z</time></trkpt><trkpt lat="43.75889027138194" lon="12.241737624733915"><ele>782.0</ele><time>2026-05-04T09:23:01.001Z</time></trkpt><trkpt lat="43.75883639533586" lon="12.241642571322496"><ele>782.0</ele><time>2026-05-04T09:23:03.001Z</time></trkpt><trkpt lat="43.75874047952872" lon="12.241539266096385"><ele>782.0</ele><time>2026-05-04T09:23:05.001Z</time></trkpt><trkpt lat="43.75867503977187" lon="12.241466027506405"><ele>782.0</ele><time>2026-05-04T09:23:06.001Z</time></trkpt><trkpt lat="43.758607360766106" lon="12.241390266059204"><ele>780.3333333333334</ele><time>2026-05-04T09:23:07.001Z</time></trkpt><trkpt lat="43.75854432552045" lon="12.241314488507975"><ele>778.6666666666667</ele><time>2026-05-04T09:23:08.001Z</time></trkpt><trkpt lat="43.75847980456618" lon="12.241230841294628"><ele>777.0</ele><time>2026-05-04T09:23:09.001Z</time></trkpt><trkpt lat="43.758409992554554" lon="12.241133380670005"><ele>775.3333333333333</ele><time>2026-05-04T09:23:10.001Z</time></trkpt><trkpt lat="43.75835074002761" lon="12.241043075417076"><ele>773.6666666666666</ele><time>2026-05-04T09:23:11.001Z</time></trkpt><trkpt lat="43.75829052636295" lon="12.240950088084658"><ele>772.0</ele><time>2026-05-04T09:23:12.001Z</time></trkpt><trkpt lat="43.75822700093938" lon="12.240847201445824"><ele>771.0</ele><time>2026-05-04T09:23:13.001Z</time></trkpt><trkpt lat="43.758188594559236" lon="12.24076892170597"><ele>770.0</ele><time>2026-05-04T09:23:14.001Z</time></trkpt><trkpt lat="43.75815471516963" lon="12.240694606023636"><ele>769.0</ele><time>2026-05-04T09:23:15.001Z</time></trkpt><trkpt lat="43.7581027243243" lon="12.240564765612337"><ele>768.0</ele><time>2026-05-04T09:23:17.001Z</time></trkpt><trkpt lat="43.7580306531766" lon="12.240438930174024"><ele>767.0</ele><time>2026-05-04T09:23:19.001Z</time></trkpt><trkpt lat="43.75794151109105" lon="12.240326532170966"><ele>766.0</ele><time>2026-05-04T09:23:21.001Z</time></trkpt><trkpt lat="43.75788738785934" lon="12.240273516698673"><ele>765.0</ele><time>2026-05-04T09:23:22.001Z</time></trkpt><trkpt lat="43.75782666134634" lon="12.24022198249408"><ele>764.0</ele><time>2026-05-04T09:23:23.001Z</time></trkpt><trkpt lat="43.7577655601856" lon="12.240175178101245"><ele>763.0</ele><time>2026-05-04T09:23:24.001Z</time></trkpt><trkpt lat="43.75770292983152" lon="12.240111597583995"><ele>762.0</ele><time>2026-05-04T09:23:25.001Z</time></trkpt><trkpt lat="43.75764284748088" lon="12.240058962139988"><ele>761.0</ele><time>2026-05-04T09:23:26.001Z</time></trkpt><trkpt lat="43.75758166719835" lon="12.240014642742128"><ele>760.0</ele><time>2026-05-04T09:23:27.001Z</time></trkpt><trkpt lat="43.75752404371548" lon="12.239977687121415"><ele>758.2</ele><time>2026-05-04T09:23:28.001Z</time></trkpt><trkpt lat="43.75743986727994" lon="12.239890634047992"><ele>756.4</ele><time>2026-05-04T09:23:30Z</time></trkpt><trkpt lat="43.75736515547557" lon="12.23977288109078"><ele>754.5999999999999</ele><time>2026-05-04T09:23:32Z</time></trkpt><trkpt lat="43.75730945293415" lon="12.239728569001826"><ele>752.8</ele><time>2026-05-04T09:23:33Z</time></trkpt><trkpt lat="43.757205807889534" lon="12.239644957482659"><ele>751.0</ele><time>2026-05-04T09:23:35Z</time></trkpt><trkpt lat="43.75710685237894" lon="12.239519868018547"><ele>750.1428571428572</ele><time>2026-05-04T09:23:37Z</time></trkpt><trkpt lat="43.75706099978677" lon="12.2394563732206"><ele>749.2857142857143</ele><time>2026-05-04T09:23:38Z</time></trkpt><trkpt lat="43.75701370012843" lon="12.239363734384957"><ele>748.4285714285714</ele><time>2026-05-04T09:23:40Z</time></trkpt><trkpt lat="43.75701704416986" lon="12.239275068428917"><ele>747.5714285714287</ele><time>2026-05-04T09:23:49Z</time></trkpt><trkpt lat="43.757017568295666" lon="12.239176030427403"><ele>746.7142857142857</ele><time>2026-05-04T09:24:04Z</time></trkpt><trkpt lat="43.756958048454976" lon="12.23912880280846"><ele>745.8571428571429</ele><time>2026-05-04T09:24:07Z</time></trkpt><trkpt lat="43.75688653258474" lon="12.23906685212743"><ele>745.0</ele><time>2026-05-04T09:24:11Z</time></trkpt><trkpt lat="43.756820629771646" lon="12.239029495636535"><ele>742.3333333333334</ele><time>2026-05-04T09:24:28Z</time></trkpt><trkpt lat="43.7567318509907" lon="12.239016731355937"><ele>739.6666666666667</ele><time>2026-05-04T09:24:31Z</time></trkpt><trkpt lat="43.75666876086002" lon="12.239019793176313"><ele>737.0</ele><time>2026-05-04T09:24:33Z</time></trkpt><trkpt lat="43.75656391632428" lon="12.239036681534374"><ele>734.3333333333334</ele><time>2026-05-04T09:24:35Z</time></trkpt><trkpt lat="43.756484976903344" lon="12.239037345109578"><ele>731.6666666666666</ele><time>2026-05-04T09:24:37Z</time></trkpt><trkpt lat="43.75642033345293" lon="12.239028620152242"><ele>729.0</ele><time>2026-05-04T09:24:39Z</time></trkpt><trkpt lat="43.75635824763891" lon="12.239007912815074"><ele>727.6666666666666</ele><time>2026-05-04T09:24:41Z</time></trkpt><trkpt lat="43.75628746226285" lon="12.238931819764266"><ele>726.3333333333334</ele><time>2026-05-04T09:24:44Z</time></trkpt><trkpt lat="43.75623166743409" lon="12.238842926005095"><ele>725.0</ele><time>2026-05-04T09:24:46Z</time></trkpt><trkpt lat="43.7561726343249" lon="12.238775007650661"><ele>723.6666666666667</ele><time>2026-05-04T09:24:48Z</time></trkpt><trkpt lat="43.756103645009176" lon="12.238719648808855"><ele>722.3333333333334</ele><time>2026-05-04T09:24:50.001Z</time></trkpt><trkpt lat="43.756018151208146" lon="12.238657957584717"><ele>721.0</ele><time>2026-05-04T09:24:52.001Z</time></trkpt><trkpt lat="43.75592747196437" lon="12.238582817880904"><ele>718.0</ele><time>2026-05-04T09:24:54.001Z</time></trkpt><trkpt lat="43.75582851166767" lon="12.238521281782909"><ele>715.0</ele><time>2026-05-04T09:24:56.001Z</time></trkpt><trkpt lat="43.7557470129456" lon="12.238483184170265"><ele>712.0</ele><time>2026-05-04T09:24:59.001Z</time></trkpt><trkpt lat="43.75565568843494" lon="12.238488177185378"><ele>709.0</ele><time>2026-05-04T09:25:01.001Z</time></trkpt><trkpt lat="43.75557083192353" lon="12.23849221764931"><ele>706.0</ele><time>2026-05-04T09:25:03.001Z</time></trkpt><trkpt lat="43.75549955616033" lon="12.238471009581945"><ele>703.0</ele><time>2026-05-04T09:25:06.001Z</time></trkpt><trkpt lat="43.75547395942463" lon="12.238551070941385"><ele>703.0</ele><time>2026-05-04T09:25:15.001Z</time></trkpt><trkpt lat="43.75557381300424" lon="12.238550385915227"><ele>703.0</ele><time>2026-05-04T09:25:22.001Z</time></trkpt><trkpt lat="43.7556727005662" lon="12.23853160941658"><ele>703.0</ele><time>2026-05-04T09:25:24.001Z</time></trkpt><trkpt lat="43.7557564767751" lon="12.238462092964035"><ele>703.0</ele><time>2026-05-04T09:25:26.001Z</time></trkpt><trkpt lat="43.755774333003075" lon="12.23837423868557"><ele>703.0</ele><time>2026-05-04T09:25:29.001Z</time></trkpt><trkpt lat="43.755690063594024" lon="12.238305839339871"><ele>703.0</ele><time>2026-05-04T09:25:32.001Z</time></trkpt><trkpt lat="43.7556229181971" lon="12.238277875615362"><ele>703.0</ele><time>2026-05-04T09:25:34.001Z</time></trkpt><trkpt lat="43.75555087696097" lon="12.238222369252327"><ele>703.0</ele><time>2026-05-04T09:25:37Z</time></trkpt><trkpt lat="43.75545080759324" lon="12.23812003099267"><ele>703.0</ele><time>2026-05-04T09:25:39Z</time></trkpt><trkpt lat="43.755403728629354" lon="12.238059121843618"><ele>703.0</ele><time>2026-05-04T09:25:40Z</time></trkpt><trkpt lat="43.755353630438606" lon="12.237997040982822"><ele>703.0</ele><time>2026-05-04T09:25:41Z</time></trkpt><trkpt lat="43.75525430249881" lon="12.237901116627254"><ele>698.5999999999999</ele><time>2026-05-04T09:25:43Z</time></trkpt><trkpt lat="43.75513924876271" lon="12.237830678173761"><ele>694.1999999999999</ele><time>2026-05-04T09:25:45Z</time></trkpt><trkpt lat="43.755080111497485" lon="12.237777788005905"><ele>689.8</ele><time>2026-05-04T09:25:47Z</time></trkpt><trkpt lat="43.75503730855522" lon="12.237705406881506"><ele>685.4</ele><time>2026-05-04T09:25:49Z</time></trkpt><trkpt lat="43.75495935326763" lon="12.237570011157096"><ele>681.0</ele><time>2026-05-04T09:25:51Z</time></trkpt><trkpt lat="43.754885485331094" lon="12.237494929906275"><ele>681.0000000000001</ele><time>2026-05-04T09:25:53Z</time></trkpt><trkpt lat="43.7548083445078" lon="12.237494065018574"><ele>681.0</ele><time>2026-05-04T09:25:55Z</time></trkpt><trkpt lat="43.75474021182291" lon="12.237521650203709"><ele>681.0</ele><time>2026-05-04T09:25:58Z</time></trkpt><trkpt lat="43.75467989581677" lon="12.23745937014407"><ele>681.0</ele><time>2026-05-04T09:26:48Z</time></trkpt><trkpt lat="43.754636336200385" lon="12.237393557094732"><ele>681.0</ele><time>2026-05-04T09:26:51Z</time></trkpt><trkpt lat="43.754559933681314" lon="12.237339061780498"><ele>681.0000000000001</ele><time>2026-05-04T09:26:54Z</time></trkpt><trkpt lat="43.75449841572975" lon="12.237313575384515"><ele>681.0</ele><time>2026-05-04T09:26:58Z</time></trkpt><trkpt lat="43.75443020997851" lon="12.237305789024159"><ele>679.3333333333334</ele><time>2026-05-04T09:27:04Z</time></trkpt><trkpt lat="43.75435601062806" lon="12.237352190633075"><ele>677.6666666666666</ele><time>2026-05-04T09:27:06Z</time></trkpt><trkpt lat="43.75428741470722" lon="12.237414348333715"><ele>676.0</ele><time>2026-05-04T09:27:09Z</time></trkpt><trkpt lat="43.75420771940265" lon="12.237386717539016"><ele>674.3333333333333</ele><time>2026-05-04T09:27:16Z</time></trkpt><trkpt lat="43.75415576526334" lon="12.237321747792876"><ele>672.6666666666666</ele><time>2026-05-04T09:27:19Z</time></trkpt><trkpt lat="43.754147733542716" lon="12.237177090775893"><ele>671.0</ele><time>2026-05-04T09:27:22Z</time></trkpt><trkpt lat="43.75408048054795" lon="12.237024822047793"><ele>670.0</ele><time>2026-05-04T09:27:24Z</time></trkpt><trkpt lat="43.753987456337974" lon="12.236944760459204"><ele>669.0</ele><time>2026-05-04T09:27:26Z</time></trkpt><trkpt lat="43.75391278735274" lon="12.236827588237743"><ele>668.0</ele><time>2026-05-04T09:27:28Z</time></trkpt><trkpt lat="43.75387561772807" lon="12.236726365149204"><ele>667.0</ele><time>2026-05-04T09:27:29Z</time></trkpt><trkpt lat="43.75385040135128" lon="12.236620887413544"><ele>666.0</ele><time>2026-05-04T09:27:30Z</time></trkpt><trkpt lat="43.753834233241015" lon="12.236534525441824"><ele>665.0</ele><time>2026-05-04T09:27:31Z</time></trkpt><trkpt lat="43.7538179202392" lon="12.236441626110418"><ele>664.7142857142857</ele><time>2026-05-04T09:27:32Z</time></trkpt><trkpt lat="43.75378873344837" lon="12.23633793077712"><ele>664.4285714285714</ele><time>2026-05-04T09:27:33Z</time></trkpt><trkpt lat="43.753757860992295" lon="12.236248994941471"><ele>664.1428571428571</ele><time>2026-05-04T09:27:34Z</time></trkpt><trkpt lat="43.753724382050436" lon="12.236149034343084"><ele>663.8571428571429</ele><time>2026-05-04T09:27:35Z</time></trkpt><trkpt lat="43.753694212632155" lon="12.236051922701533"><ele>663.5714285714286</ele><time>2026-05-04T09:27:36Z</time></trkpt><trkpt lat="43.75367336122256" lon="12.235966036916807"><ele>663.2857142857142</ele><time>2026-05-04T09:27:37Z</time></trkpt><trkpt lat="43.75364955842686" lon="12.235872850370228"><ele>663.0</ele><time>2026-05-04T09:27:38Z</time></trkpt><trkpt lat="43.75365045356448" lon="12.23576984677519"><ele>663.0</ele><time>2026-05-04T09:27:40Z</time></trkpt><trkpt lat="43.7536019934795" lon="12.235679563589418"><ele>663.0</ele><time>2026-05-04T09:27:42.999Z</time></trkpt><trkpt lat="43.75351235066214" lon="12.235689014822306"><ele>663.0</ele><time>2026-05-04T09:27:46Z</time></trkpt><trkpt lat="43.75341898533074" lon="12.235713906441672"><ele>663.0</ele><time>2026-05-04T09:27:48Z</time></trkpt><trkpt lat="43.753319916136405" lon="12.235677093053955"><ele>663.0</ele><time>2026-05-04T09:27:50Z</time></trkpt><trkpt lat="43.75323382051806" lon="12.235621036054987"><ele>663.0</ele><time>2026-05-04T09:27:52Z</time></trkpt><trkpt lat="43.75316658556465" lon="12.235641640139491"><ele>663.0</ele><time>2026-05-04T09:27:57Z</time></trkpt><trkpt lat="43.753239378224585" lon="12.2356709581767"><ele>663.0</ele><time>2026-05-04T09:28:00Z</time></trkpt><trkpt lat="43.753330128868036" lon="12.235692998390103"><ele>663.0</ele><time>2026-05-04T09:28:02Z</time></trkpt><trkpt lat="43.75339430551048" lon="12.235707484231586"><ele>663.0</ele><time>2026-05-04T09:28:03Z</time></trkpt><trkpt lat="43.753501026333964" lon="12.235702843937803"><ele>663.0</ele><time>2026-05-04T09:28:05Z</time></trkpt><trkpt lat="43.75357108330567" lon="12.235668453037558"><ele>662.4</ele><time>2026-05-04T09:28:07Z</time></trkpt><trkpt lat="43.75358883995642" lon="12.235543599646412"><ele>661.8</ele><time>2026-05-04T09:28:10Z</time></trkpt><trkpt lat="43.75357826227104" lon="12.235395803890292"><ele>661.2</ele><time>2026-05-04T09:28:12Z</time></trkpt><trkpt lat="43.753508891960664" lon="12.235280442620025"><ele>660.6</ele><time>2026-05-04T09:28:14Z</time></trkpt><trkpt lat="43.75344305718803" lon="12.235210089219938"><ele>660.0</ele><time>2026-05-04T09:28:15Z</time></trkpt><trkpt lat="43.753376005130946" lon="12.2351719644832"><ele>660.0</ele><time>2026-05-04T09:28:16Z</time></trkpt><trkpt lat="43.75331158390264" lon="12.23515895809744"><ele>660.0</ele><time>2026-05-04T09:28:17Z</time></trkpt><trkpt lat="43.75315949637527" lon="12.23517868645932"><ele>660.0</ele><time>2026-05-04T09:28:19Z</time></trkpt><trkpt lat="43.7530567249254" lon="12.235197764551405"><ele>660.0</ele><time>2026-05-04T09:28:20Z</time></trkpt><trkpt lat="43.752940897842734" lon="12.235213584025548"><ele>660.0</ele><time>2026-05-04T09:28:21Z</time></trkpt><trkpt lat="43.7528634005366" lon="12.235205200218722"><ele>660.0</ele><time>2026-05-04T09:28:22Z</time></trkpt><trkpt lat="43.75279564677817" lon="12.235156375580729"><ele>660.0</ele><time>2026-05-04T09:28:23Z</time></trkpt><trkpt lat="43.752692191650524" lon="12.235094925485498"><ele>660.0</ele><time>2026-05-04T09:28:24Z</time></trkpt><trkpt lat="43.75258281314507" lon="12.235042732046846"><ele>660.0</ele><time>2026-05-04T09:28:25Z</time></trkpt><trkpt lat="43.75248461776567" lon="12.235021399219452"><ele>660.0</ele><time>2026-05-04T09:28:26Z</time></trkpt><trkpt lat="43.75237244812392" lon="12.23501093227509"><ele>661.4</ele><time>2026-05-04T09:28:27Z</time></trkpt><trkpt lat="43.75230621099794" lon="12.234998232907417"><ele>662.8</ele><time>2026-05-04T09:28:28Z</time></trkpt><trkpt lat="43.752196080320225" lon="12.234964115169298"><ele>664.2</ele><time>2026-05-04T09:28:30Z</time></trkpt><trkpt lat="43.7520500988976" lon="12.235037984860057"><ele>665.6</ele><time>2026-05-04T09:28:32Z</time></trkpt><trkpt lat="43.75194939351979" lon="12.23507428896913"><ele>667.0</ele><time>2026-05-04T09:28:33Z</time></trkpt><trkpt lat="43.75184172517277" lon="12.235086291777224"><ele>667.6</ele><time>2026-05-04T09:28:34Z</time></trkpt><trkpt lat="43.75172113714941" lon="12.235094282572584"><ele>668.2</ele><time>2026-05-04T09:28:35Z</time></trkpt><trkpt lat="43.751628141648325" lon="12.235095833203838"><ele>668.8</ele><time>2026-05-04T09:28:36Z</time></trkpt><trkpt lat="43.751541870450566" lon="12.235093913575401"><ele>669.4</ele><time>2026-05-04T09:28:37Z</time></trkpt><trkpt lat="43.75146597772099" lon="12.235043695298545"><ele>670.0</ele><time>2026-05-04T09:28:40Z</time></trkpt><trkpt lat="43.75151192560089" lon="12.234943555150817"><ele>670.0</ele><time>2026-05-04T09:28:42Z</time></trkpt><trkpt lat="43.75154347414715" lon="12.234863903644536"><ele>670.0</ele><time>2026-05-04T09:28:43Z</time></trkpt><trkpt lat="43.751577542682675" lon="12.234767719902324"><ele>670.0</ele><time>2026-05-04T09:28:44Z</time></trkpt><trkpt lat="43.75160404861674" lon="12.234652958087313"><ele>670.0</ele><time>2026-05-04T09:28:45Z</time></trkpt><trkpt lat="43.75162980000528" lon="12.234520627429351"><ele>670.0</ele><time>2026-05-04T09:28:46Z</time></trkpt><trkpt lat="43.75165468856045" lon="12.234377909226312"><ele>670.0</ele><time>2026-05-04T09:28:47Z</time></trkpt><trkpt lat="43.751685061349285" lon="12.234228597542225"><ele>669.25</ele><time>2026-05-04T09:28:48Z</time></trkpt><trkpt lat="43.751705902386284" lon="12.234071304908168"><ele>668.5</ele><time>2026-05-04T09:28:49Z</time></trkpt><trkpt lat="43.75171046070568" lon="12.233903512560552"><ele>667.75</ele><time>2026-05-04T09:28:50Z</time></trkpt><trkpt lat="43.7516959488607" lon="12.233726814266655"><ele>667.0</ele><time>2026-05-04T09:28:51Z</time></trkpt><trkpt lat="43.751685975228" lon="12.23356163739987"><ele>666.0</ele><time>2026-05-04T09:28:52Z</time></trkpt><trkpt lat="43.7516824419649" lon="12.233402246464617"><ele>665.0</ele><time>2026-05-04T09:28:53Z</time></trkpt><trkpt lat="43.75167734019796" lon="12.233248044654207"><ele>664.0</ele><time>2026-05-04T09:28:54Z</time></trkpt><trkpt lat="43.751670487557845" lon="12.23309328340997"><ele>663.0</ele><time>2026-05-04T09:28:55Z</time></trkpt><trkpt lat="43.751660347112185" lon="12.232942565750518"><ele>662.0</ele><time>2026-05-04T09:28:56Z</time></trkpt><trkpt lat="43.75165531532225" lon="12.232798516080049"><ele>661.6</ele><time>2026-05-04T09:28:57Z</time></trkpt><trkpt lat="43.75164739137939" lon="12.232665624829796"><ele>661.2</ele><time>2026-05-04T09:28:58Z</time></trkpt><trkpt lat="43.75163673212376" lon="12.232540040923729"><ele>660.8</ele><time>2026-05-04T09:28:59Z</time></trkpt><trkpt lat="43.75161296827808" lon="12.232427281681233"><ele>660.4</ele><time>2026-05-04T09:29:00Z</time></trkpt><trkpt lat="43.75155877197363" lon="12.232322771495145"><ele>660.0</ele><time>2026-05-04T09:29:01Z</time></trkpt><trkpt lat="43.75148065266914" lon="12.232227139375945"><ele>658.75</ele><time>2026-05-04T09:29:02Z</time></trkpt><trkpt lat="43.75137914711864" lon="12.232134908579164"><ele>657.5</ele><time>2026-05-04T09:29:03Z</time></trkpt><trkpt lat="43.75127053640115" lon="12.23205196579419"><ele>656.25</ele><time>2026-05-04T09:29:04Z</time></trkpt><trkpt lat="43.75116382884685" lon="12.231957883428517"><ele>655.0</ele><time>2026-05-04T09:29:05Z</time></trkpt><trkpt lat="43.751052389294884" lon="12.231866197548042"><ele>655.0</ele><time>2026-05-04T09:29:06Z</time></trkpt><trkpt lat="43.7509431911057" lon="12.231768655053992"><ele>655.0</ele><time>2026-05-04T09:29:07Z</time></trkpt><trkpt lat="43.75083933792502" lon="12.231682391423197"><ele>655.0</ele><time>2026-05-04T09:29:08Z</time></trkpt><trkpt lat="43.75073187487681" lon="12.231625458205162"><ele>655.0</ele><time>2026-05-04T09:29:09Z</time></trkpt><trkpt lat="43.75061647269443" lon="12.231596722693569"><ele>655.0</ele><time>2026-05-04T09:29:10Z</time></trkpt><trkpt lat="43.7505091818838" lon="12.231564352991452"><ele>655.0</ele><time>2026-05-04T09:29:11Z</time></trkpt><trkpt lat="43.75039523394779" lon="12.231560626005182"><ele>655.0</ele><time>2026-05-04T09:29:12Z</time></trkpt><trkpt lat="43.75029236307489" lon="12.231563499309885"><ele>655.0</ele><time>2026-05-04T09:29:13Z</time></trkpt><trkpt lat="43.75018186729485" lon="12.231559031459012"><ele>655.0</ele><time>2026-05-04T09:29:14Z</time></trkpt><trkpt lat="43.75002737444263" lon="12.231547893385454"><ele>654.0</ele><time>2026-05-04T09:29:15Z</time></trkpt><trkpt lat="43.74991736739166" lon="12.231509215385426"><ele>653.0</ele><time>2026-05-04T09:29:16Z</time></trkpt><trkpt lat="43.749813585829685" lon="12.231457572836518"><ele>652.0</ele><time>2026-05-04T09:29:17Z</time></trkpt><trkpt lat="43.74972673483384" lon="12.231364304642607"><ele>651.0</ele><time>2026-05-04T09:29:18Z</time></trkpt><trkpt lat="43.74963741286767" lon="12.231248553045862"><ele>649.5</ele><time>2026-05-04T09:29:19Z</time></trkpt><trkpt lat="43.74953686142807" lon="12.231106368497267"><ele>648.0</ele><time>2026-05-04T09:29:20Z</time></trkpt><trkpt lat="43.74942826373675" lon="12.230979791999133"><ele>646.5</ele><time>2026-05-04T09:29:21Z</time></trkpt><trkpt lat="43.749333122553" lon="12.230823901044127"><ele>645.0</ele><time>2026-05-04T09:29:22Z</time></trkpt><trkpt lat="43.74922647487581" lon="12.230691208983156"><ele>642.25</ele><time>2026-05-04T09:29:23Z</time></trkpt><trkpt lat="43.74910820540816" lon="12.230569755038909"><ele>639.5</ele><time>2026-05-04T09:29:24Z</time></trkpt><trkpt lat="43.749009227396705" lon="12.230409122276974"><ele>636.75</ele><time>2026-05-04T09:29:25Z</time></trkpt><trkpt lat="43.748932082296" lon="12.230298597077471"><ele>634.0</ele><time>2026-05-04T09:29:26Z</time></trkpt><trkpt lat="43.74884799043025" lon="12.23017003949434"><ele>634.0</ele><time>2026-05-04T09:29:27Z</time></trkpt><trkpt lat="43.74876306218871" lon="12.230033510041153"><ele>634.0</ele><time>2026-05-04T09:29:28Z</time></trkpt><trkpt lat="43.74867503129877" lon="12.229910958871924"><ele>634.0</ele><time>2026-05-04T09:29:29Z</time></trkpt><trkpt lat="43.74859451059217" lon="12.22976794572603"><ele>634.0</ele><time>2026-05-04T09:29:30Z</time></trkpt><trkpt lat="43.7485247832721" lon="12.229635290390611"><ele>635.2</ele><time>2026-05-04T09:29:31Z</time></trkpt><trkpt lat="43.748458062742" lon="12.229502850760461"><ele>636.4</ele><time>2026-05-04T09:29:32Z</time></trkpt><trkpt lat="43.748390561986476" lon="12.229382130376532"><ele>637.6</ele><time>2026-05-04T09:29:33Z</time></trkpt><trkpt lat="43.74833278485583" lon="12.2292856408154"><ele>638.8</ele><time>2026-05-04T09:29:34Z</time></trkpt><trkpt lat="43.7482794654421" lon="12.229215362982199"><ele>640.0</ele><time>2026-05-04T09:29:35Z</time></trkpt><trkpt lat="43.748185454815115" lon="12.229179470536776"><ele>640.0</ele><time>2026-05-04T09:29:37.001Z</time></trkpt><trkpt lat="43.748081860703884" lon="12.229255356368927"><ele>640.0</ele><time>2026-05-04T09:29:39.001Z</time></trkpt><trkpt lat="43.74801707728977" lon="12.229330057645285"><ele>640.0</ele><time>2026-05-04T09:29:40.001Z</time></trkpt><trkpt lat="43.747937842762134" lon="12.229375394660018"><ele>640.0</ele><time>2026-05-04T09:29:41.001Z</time></trkpt><trkpt lat="43.74786088340901" lon="12.229464845353846"><ele>640.0</ele><time>2026-05-04T09:29:42.001Z</time></trkpt><trkpt lat="43.747779742502196" lon="12.229562638463344"><ele>640.6666666666667</ele><time>2026-05-04T09:29:43.001Z</time></trkpt><trkpt lat="43.74769394336086" lon="12.229669066652757"><ele>641.3333333333334</ele><time>2026-05-04T09:29:44.001Z</time></trkpt><trkpt lat="43.74749836132214" lon="12.229915105290093"><ele>642.0</ele><time>2026-05-04T09:29:46.001Z</time></trkpt><trkpt lat="43.74739514584285" lon="12.230044948872287"><ele>642.0</ele><time>2026-05-04T09:29:47.001Z</time></trkpt><trkpt lat="43.747290693926715" lon="12.230177652360414"><ele>642.0</ele><time>2026-05-04T09:29:48Z</time></trkpt><trkpt lat="43.74718362354471" lon="12.230314931601345"><ele>642.0</ele><time>2026-05-04T09:29:49Z</time></trkpt><trkpt lat="43.74708279286945" lon="12.23044349683831"><ele>642.0</ele><time>2026-05-04T09:29:50Z</time></trkpt><trkpt lat="43.74699746800631" lon="12.230549585723711"><ele>642.0</ele><time>2026-05-04T09:29:51Z</time></trkpt><trkpt lat="43.74692399282302" lon="12.230638040197869"><ele>642.0</ele><time>2026-05-04T09:29:52Z</time></trkpt><trkpt lat="43.74686193571567" lon="12.230712017679679"><ele>642.0</ele><time>2026-05-04T09:29:53Z</time></trkpt><trkpt lat="43.746787235148986" lon="12.230800514358997"><ele>642.0</ele><time>2026-05-04T09:29:54Z</time></trkpt><trkpt lat="43.74671884250772" lon="12.230875142555155"><ele>642.0</ele><time>2026-05-04T09:29:55Z</time></trkpt><trkpt lat="43.746635666369365" lon="12.230947360273223"><ele>644.3333333333334</ele><time>2026-05-04T09:29:57Z</time></trkpt><trkpt lat="43.746564511711256" lon="12.23098141991747"><ele>646.6666666666666</ele><time>2026-05-04T09:29:59Z</time></trkpt><trkpt lat="43.74649312308395" lon="12.231012256204922"><ele>649.0</ele><time>2026-05-04T09:30:00Z</time></trkpt><trkpt lat="43.74640956096001" lon="12.230982279472178"><ele>651.3333333333333</ele><time>2026-05-04T09:30:01Z</time></trkpt><trkpt lat="43.746309860784855" lon="12.230978424191441"><ele>653.6666666666666</ele><time>2026-05-04T09:30:02Z</time></trkpt><trkpt lat="43.74624804558449" lon="12.231007335015022"><ele>656.0</ele><time>2026-05-04T09:30:03Z</time></trkpt><trkpt lat="43.74614738547811" lon="12.231106966754915"><ele>656.0</ele><time>2026-05-04T09:30:05Z</time></trkpt><trkpt lat="43.746148818664295" lon="12.231221384039408"><ele>656.0</ele><time>2026-05-04T09:30:06Z</time></trkpt><trkpt lat="43.74615419664039" lon="12.231326673467406"><ele>656.0</ele><time>2026-05-04T09:30:07Z</time></trkpt><trkpt lat="43.74615862121511" lon="12.23144677204964"><ele>656.0</ele><time>2026-05-04T09:30:08Z</time></trkpt><trkpt lat="43.74618096015706" lon="12.231580556796654"><ele>656.0</ele><time>2026-05-04T09:30:09Z</time></trkpt><trkpt lat="43.74621942521196" lon="12.231722759425285"><ele>657.0</ele><time>2026-05-04T09:30:10Z</time></trkpt><trkpt lat="43.746239205284" lon="12.231864201029916"><ele>658.0</ele><time>2026-05-04T09:30:11Z</time></trkpt><trkpt lat="43.74626644094282" lon="12.232014578633574"><ele>659.0</ele><time>2026-05-04T09:30:12Z</time></trkpt><trkpt lat="43.746288522955886" lon="12.232161798616215"><ele>660.0</ele><time>2026-05-04T09:30:13Z</time></trkpt><trkpt lat="43.74630208607509" lon="12.23229019759095"><ele>661.0</ele><time>2026-05-04T09:30:14Z</time></trkpt><trkpt lat="43.74627600672118" lon="12.232386335168085"><ele>661.5999999999999</ele><time>2026-05-04T09:30:15Z</time></trkpt><trkpt lat="43.74619329549315" lon="12.232461844061488"><ele>662.2</ele><time>2026-05-04T09:30:17Z</time></trkpt><trkpt lat="43.74608375694009" lon="12.232415705082785"><ele>662.8</ele><time>2026-05-04T09:30:19Z</time></trkpt><trkpt lat="43.74601675060934" lon="12.232391056280816"><ele>663.4000000000001</ele><time>2026-05-04T09:30:20Z</time></trkpt><trkpt lat="43.74593543505414" lon="12.232366958417668"><ele>664.0</ele><time>2026-05-04T09:30:21Z</time></trkpt><trkpt lat="43.745849216987786" lon="12.232356997144771"><ele>665.6666666666667</ele><time>2026-05-04T09:30:22Z</time></trkpt><trkpt lat="43.745781609801384" lon="12.232308368412545"><ele>667.3333333333334</ele><time>2026-05-04T09:30:23Z</time></trkpt><trkpt lat="43.745712641363305" lon="12.232286837792342"><ele>669.0</ele><time>2026-05-04T09:30:24Z</time></trkpt><trkpt lat="43.74564547578479" lon="12.232274190154094"><ele>670.6666666666666</ele><time>2026-05-04T09:30:25Z</time></trkpt><trkpt lat="43.74556867111614" lon="12.23228704457636"><ele>672.3333333333333</ele><time>2026-05-04T09:30:26Z</time></trkpt><trkpt lat="43.74548329533244" lon="12.232306017143573"><ele>674.0</ele><time>2026-05-04T09:30:28Z</time></trkpt><trkpt lat="43.7454966962109" lon="12.232194436990778"><ele>674.0</ele><time>2026-05-04T09:30:35Z</time></trkpt><trkpt lat="43.74547787743499" lon="12.23202515831539"><ele>674.0</ele><time>2026-05-04T09:30:37Z</time></trkpt><trkpt lat="43.74544684555802" lon="12.231887911434507"><ele>674.0</ele><time>2026-05-04T09:30:39Z</time></trkpt><trkpt lat="43.74540921740472" lon="12.231768090630906"><ele>674.0</ele><time>2026-05-04T09:30:41Z</time></trkpt><trkpt lat="43.745357662616215" lon="12.231696458466425"><ele>674.0</ele><time>2026-05-04T09:30:42Z</time></trkpt><trkpt lat="43.745317370444496" lon="12.23153588241915"><ele>674.0</ele><time>2026-05-04T09:30:44Z</time></trkpt><trkpt lat="43.745312520451364" lon="12.231442556947194"><ele>674.0</ele><time>2026-05-04T09:30:46Z</time></trkpt><trkpt lat="43.745265636172455" lon="12.231626439641461"><ele>674.0</ele><time>2026-05-04T09:30:47Z</time></trkpt><trkpt lat="43.745287517778166" lon="12.231458953809643"><ele>674.0</ele><time>2026-05-04T09:30:48Z</time></trkpt><trkpt lat="43.745265675192705" lon="12.231626469929845"><ele>675.4000000000001</ele><time>2026-05-04T09:30:49Z</time></trkpt><trkpt lat="43.74535550453548" lon="12.231393595053685"><ele>676.8</ele><time>2026-05-04T09:31:07Z</time></trkpt><trkpt lat="43.7453989231334" lon="12.231300163567274"><ele>678.2</ele><time>2026-05-04T09:44:45.999Z</time></trkpt><trkpt lat="43.74543288430091" lon="12.231216057185627"><ele>679.5999999999999</ele><time>2026-05-04T09:44:47.999Z</time></trkpt><trkpt lat="43.74546383461763" lon="12.231122020411835"><ele>681.0</ele><time>2026-05-04T09:44:49.999Z</time></trkpt><trkpt lat="43.74551677266206" lon="12.231004848079435"><ele>681.0</ele><time>2026-05-04T09:44:52.999Z</time></trkpt><trkpt lat="43.74554183863273" lon="12.230921019898537"><ele>681.0</ele><time>2026-05-04T09:44:54.999Z</time></trkpt><trkpt lat="43.745602212634026" lon="12.230832982142674"><ele>681.0</ele><time>2026-05-04T09:44:56.999Z</time></trkpt><trkpt lat="43.74563881284207" lon="12.230741552893898"><ele>681.0</ele><time>2026-05-04T09:44:59.999Z</time></trkpt><trkpt lat="43.745699149060684" lon="12.23066943507359"><ele>681.0</ele><time>2026-05-04T09:45:08.999Z</time></trkpt><trkpt lat="43.745748743767784" lon="12.230593245564464"><ele>681.0</ele><time>2026-05-04T09:45:11.999Z</time></trkpt><trkpt lat="43.74580861514032" lon="12.230533900652782"><ele>683.5999999999999</ele><time>2026-05-04T09:45:14Z</time></trkpt><trkpt lat="43.74584789823" lon="12.230445254015715"><ele>686.2</ele><time>2026-05-04T09:45:16Z</time></trkpt><trkpt lat="43.74588781668501" lon="12.230287983921894"><ele>688.8</ele><time>2026-05-04T09:45:18Z</time></trkpt><trkpt lat="43.74590211772306" lon="12.23015601937605"><ele>691.4000000000001</ele><time>2026-05-04T09:45:20Z</time></trkpt><trkpt lat="43.74589883415705" lon="12.23000520309485"><ele>694.0</ele><time>2026-05-04T09:45:22Z</time></trkpt><trkpt lat="43.74588844081181" lon="12.229857324937143"><ele>693.4000000000001</ele><time>2026-05-04T09:45:24Z</time></trkpt><trkpt lat="43.74586548999806" lon="12.229774871538975"><ele>692.8</ele><time>2026-05-04T09:45:25Z</time></trkpt><trkpt lat="43.745802960282646" lon="12.229647942759359"><ele>692.2</ele><time>2026-05-04T09:45:27Z</time></trkpt><trkpt lat="43.74574895918076" lon="12.229551644586074"><ele>691.5999999999999</ele><time>2026-05-04T09:45:29Z</time></trkpt><trkpt lat="43.74568104827126" lon="12.229413716341368"><ele>691.0</ele><time>2026-05-04T09:45:31Z</time></trkpt><trkpt lat="43.74561870514129" lon="12.229344581396242"><ele>691.0</ele><time>2026-05-04T09:45:32Z</time></trkpt><trkpt lat="43.74556128023541" lon="12.229277971387363"><ele>691.0</ele><time>2026-05-04T09:45:33Z</time></trkpt><trkpt lat="43.745489648615646" lon="12.229224892503932"><ele>691.0</ele><time>2026-05-04T09:45:35Z</time></trkpt><trkpt lat="43.745417785555894" lon="12.229183302379976"><ele>691.0</ele><time>2026-05-04T09:45:37Z</time></trkpt><trkpt lat="43.74535941250597" lon="12.229119067588227"><ele>691.0</ele><time>2026-05-04T09:45:39Z</time></trkpt><trkpt lat="43.745285503446276" lon="12.229077172013476"><ele>691.0</ele><time>2026-05-04T09:45:41Z</time></trkpt><trkpt lat="43.74520730763664" lon="12.229053194851373"><ele>696.8</ele><time>2026-05-04T09:45:43Z</time></trkpt><trkpt lat="43.745126366588316" lon="12.22906296539405"><ele>702.5999999999999</ele><time>2026-05-04T09:45:45Z</time></trkpt><trkpt lat="43.745024131389414" lon="12.229043484882798"><ele>708.4</ele><time>2026-05-04T09:45:47Z</time></trkpt><trkpt lat="43.744956540067626" lon="12.228951350427344"><ele>714.2</ele><time>2026-05-04T09:45:50Z</time></trkpt><trkpt lat="43.744823965897695" lon="12.228946642552145"><ele>720.0</ele><time>2026-05-04T09:45:52Z</time></trkpt><trkpt lat="43.74474233970046" lon="12.22895947550663"><ele>720.0</ele><time>2026-05-04T09:45:53Z</time></trkpt><trkpt lat="43.74468214442054" lon="12.228986884614864"><ele>720.0</ele><time>2026-05-04T09:45:54Z</time></trkpt><trkpt lat="43.744598031137166" lon="12.229018182995777"><ele>720.0</ele><time>2026-05-04T09:45:56Z</time></trkpt><trkpt lat="43.74451053382014" lon="12.228985939398836"><ele>720.0</ele><time>2026-05-04T09:45:58Z</time></trkpt><trkpt lat="43.74444323584414" lon="12.228953845200543"><ele>720.0</ele><time>2026-05-04T09:46:09Z</time></trkpt><trkpt lat="43.74438264323635" lon="12.22890715054327"><ele>720.0</ele><time>2026-05-04T09:46:11Z</time></trkpt><trkpt lat="43.744312324719104" lon="12.228891537753226"><ele>725.8333333333334</ele><time>2026-05-04T09:46:13Z</time></trkpt><trkpt lat="43.74423786217248" lon="12.22887254452067"><ele>731.6666666666666</ele><time>2026-05-04T09:46:15Z</time></trkpt><trkpt lat="43.74421601479757" lon="12.228750128960492"><ele>737.5</ele><time>2026-05-04T09:46:20Z</time></trkpt><trkpt lat="43.744258901896565" lon="12.2286707264108"><ele>743.3333333333333</ele><time>2026-05-04T09:46:22Z</time></trkpt><trkpt lat="43.74426709581031" lon="12.2285697002056"><ele>749.1666666666666</ele><time>2026-05-04T09:46:25Z</time></trkpt><trkpt lat="43.744220450286996" lon="12.228498129426264"><ele>755.0</ele><time>2026-05-04T09:46:39.999Z</time></trkpt><trkpt lat="43.7441280232602" lon="12.228379830675987"><ele>755.0</ele><time>2026-05-04T09:46:42.999Z</time></trkpt><trkpt lat="43.74404716290102" lon="12.228297508084676"><ele>755.0</ele><time>2026-05-04T09:46:44.999Z</time></trkpt><trkpt lat="43.74400646919057" lon="12.22822709162803"><ele>755.0</ele><time>2026-05-04T09:46:45.999Z</time></trkpt><trkpt lat="43.74395362352284" lon="12.228134785187347"><ele>755.0</ele><time>2026-05-04T09:46:46.999Z</time></trkpt><trkpt lat="43.74390494242812" lon="12.228070259419592"><ele>755.0</ele><time>2026-05-04T09:46:47.999Z</time></trkpt><trkpt lat="43.74384335334523" lon="12.227986775712289"><ele>755.0</ele><time>2026-05-04T09:46:48.999Z</time></trkpt><trkpt lat="43.74380263503474" lon="12.227915395613723"><ele>755.0</ele><time>2026-05-04T09:46:49.999Z</time></trkpt><trkpt lat="43.74373600602426" lon="12.227755281823555"><ele>755.0</ele><time>2026-05-04T09:46:51.999Z</time></trkpt><trkpt lat="43.74372237844967" lon="12.227653215125914"><ele>755.0</ele><time>2026-05-04T09:46:52.999Z</time></trkpt><trkpt lat="43.74372229249856" lon="12.227562965515634"><ele>755.0</ele><time>2026-05-04T09:46:53.999Z</time></trkpt><trkpt lat="43.74369785573509" lon="12.227409404003664"><ele>755.0</ele><time>2026-05-04T09:46:55.999Z</time></trkpt><trkpt lat="43.74362867270449" lon="12.227357504113815"><ele>754.6</ele><time>2026-05-04T09:46:57.999Z</time></trkpt><trkpt lat="43.74356917412731" lon="12.227309744408604"><ele>754.2</ele><time>2026-05-04T09:46:59.999Z</time></trkpt><trkpt lat="43.743527932129595" lon="12.2271807074955"><ele>753.8</ele><time>2026-05-04T09:47:01.999Z</time></trkpt><trkpt lat="43.743538883850576" lon="12.227014865842252"><ele>753.4</ele><time>2026-05-04T09:47:03.999Z</time></trkpt><trkpt lat="43.74352079439763" lon="12.22692304416376"><ele>753.0</ele><time>2026-05-04T09:47:04.999Z</time></trkpt><trkpt lat="43.74344095204372" lon="12.226776021792599"><ele>760.8</ele><time>2026-05-04T09:47:06.999Z</time></trkpt><trkpt lat="43.74339898556067" lon="12.226634600858501"><ele>768.5999999999999</ele><time>2026-05-04T09:47:08.999Z</time></trkpt><trkpt lat="43.74340112253505" lon="12.226524568583905"><ele>776.4000000000001</ele><time>2026-05-04T09:47:09.999Z</time></trkpt><trkpt lat="43.743405045423685" lon="12.226409448157186"><ele>784.2</ele><time>2026-05-04T09:47:10.999Z</time></trkpt><trkpt lat="43.743422327732574" lon="12.226316181054331"><ele>792.0</ele><time>2026-05-04T09:47:11.999Z</time></trkpt><trkpt lat="43.743444614715116" lon="12.226162181798538"><ele>792.0</ele><time>2026-05-04T09:47:13.999Z</time></trkpt><trkpt lat="43.74340855108895" lon="12.226018073620153"><ele>792.0</ele><time>2026-05-04T09:47:15.999Z</time></trkpt><trkpt lat="43.74335561742244" lon="12.225828058720765"><ele>792.0</ele><time>2026-05-04T09:47:17.999Z</time></trkpt><trkpt lat="43.74331297366594" lon="12.225691187140802"><ele>792.0</ele><time>2026-05-04T09:47:19.999Z</time></trkpt><trkpt lat="43.74322238906691" lon="12.225597890293239"><ele>789.4000000000001</ele><time>2026-05-04T09:47:21.999Z</time></trkpt><trkpt lat="43.74311473752131" lon="12.225496031029024"><ele>786.8000000000001</ele><time>2026-05-04T09:47:23.999Z</time></trkpt><trkpt lat="43.74303441738691" lon="12.22541278489688"><ele>784.2</ele><time>2026-05-04T09:47:25.999Z</time></trkpt><trkpt lat="43.742969360450076" lon="12.225412486747386"><ele>781.6</ele><time>2026-05-04T09:47:26.999Z</time></trkpt><trkpt lat="43.74286830252755" lon="12.225370630576604"><ele>779.0</ele><time>2026-05-04T09:47:28.999Z</time></trkpt><trkpt lat="43.74282423327035" lon="12.2252664689738"><ele>779.0</ele><time>2026-05-04T09:47:30.999Z</time></trkpt><trkpt lat="43.742792508953144" lon="12.225132968539503"><ele>779.0</ele><time>2026-05-04T09:47:32.999Z</time></trkpt><trkpt lat="43.7427041940588" lon="12.225011232188422"><ele>779.0</ele><time>2026-05-04T09:47:34.999Z</time></trkpt><trkpt lat="43.7426615944303" lon="12.224925956921442"><ele>779.0</ele><time>2026-05-04T09:47:35.999Z</time></trkpt><trkpt lat="43.74266186005456" lon="12.224822499227749"><ele>779.0</ele><time>2026-05-04T09:47:43Z</time></trkpt><trkpt lat="43.74263132653758" lon="12.224713199725032"><ele>782.5000000000001</ele><time>2026-05-04T09:47:45Z</time></trkpt><trkpt lat="43.74261799527396" lon="12.224563179705449"><ele>786.0</ele><time>2026-05-04T09:47:47Z</time></trkpt><trkpt lat="43.74258176373924" lon="12.224449500150342"><ele>789.5</ele><time>2026-05-04T09:47:49Z</time></trkpt><trkpt lat="43.74257291417398" lon="12.224362271816217"><ele>793.0</ele><time>2026-05-04T09:47:50Z</time></trkpt><trkpt lat="43.74257080389301" lon="12.22426348267774"><ele>796.5000000000001</ele><time>2026-05-04T09:47:51Z</time></trkpt><trkpt lat="43.74256974404159" lon="12.22417220024143"><ele>800.0</ele><time>2026-05-04T09:47:52Z</time></trkpt><trkpt lat="43.7425669089951" lon="12.224082600044225"><ele>799.8</ele><time>2026-05-04T09:47:53Z</time></trkpt><trkpt lat="43.74255930990814" lon="12.223928395722679"><ele>799.6</ele><time>2026-05-04T09:47:55Z</time></trkpt><trkpt lat="43.742565405008065" lon="12.22383975630219"><ele>799.4000000000001</ele><time>2026-05-04T09:47:56Z</time></trkpt><trkpt lat="43.74256357884937" lon="12.223677214358615"><ele>799.2</ele><time>2026-05-04T09:47:58Z</time></trkpt><trkpt lat="43.74255668532311" lon="12.223522079688863"><ele>799.0</ele><time>2026-05-04T09:48:00Z</time></trkpt><trkpt lat="43.74255276920423" lon="12.22338301731904"><ele>798.9999999999999</ele><time>2026-05-04T09:48:02Z</time></trkpt><trkpt lat="43.74255937569647" lon="12.223241784246937"><ele>799.0</ele><time>2026-05-04T09:48:04Z</time></trkpt><trkpt lat="43.742557611626964" lon="12.223125546129788"><ele>799.0</ele><time>2026-05-04T09:48:06Z</time></trkpt><trkpt lat="43.74253690098073" lon="12.223027936736257"><ele>799.0</ele><time>2026-05-04T09:48:17Z</time></trkpt><trkpt lat="43.74246967930027" lon="12.223045283820774"><ele>798.9999999999999</ele><time>2026-05-04T09:48:36Z</time></trkpt><trkpt lat="43.74255209772232" lon="12.223023825292822"><ele>799.0</ele><time>2026-05-04T09:48:39Z</time></trkpt><trkpt lat="43.74259851886235" lon="12.222963953784557"><ele>798.4000000000001</ele><time>2026-05-04T09:48:40Z</time></trkpt><trkpt lat="43.7426895821331" lon="12.222869828991806"><ele>797.8</ele><time>2026-05-04T09:48:41.999Z</time></trkpt><trkpt lat="43.742777560178595" lon="12.222818254481705"><ele>797.2</ele><time>2026-05-04T09:48:43.999Z</time></trkpt><trkpt lat="43.742833509962246" lon="12.222751919892097"><ele>796.5999999999999</ele><time>2026-05-04T09:48:47.999Z</time></trkpt><trkpt lat="43.74292258254485" lon="12.222685422223522"><ele>796.0</ele><time>2026-05-04T09:48:51.999Z</time></trkpt><trkpt lat="43.7430000221878" lon="12.222609059591122"><ele>795.1666666666666</ele><time>2026-05-04T09:48:53.999Z</time></trkpt><trkpt lat="43.7430838261439" lon="12.222519174537029"><ele>794.3333333333333</ele><time>2026-05-04T09:48:55.999Z</time></trkpt><trkpt lat="43.74316272687499" lon="12.22243409591318"><ele>793.5</ele><time>2026-05-04T09:48:57.999Z</time></trkpt><trkpt lat="43.74322142357809" lon="12.222388986317004"><ele>792.6666666666667</ele><time>2026-05-04T09:48:59.999Z</time></trkpt><trkpt lat="43.7432827913258" lon="12.222316480550482"><ele>791.8333333333334</ele><time>2026-05-04T09:49:01.999Z</time></trkpt><trkpt lat="43.74336451060717" lon="12.222277165735631"><ele>791.0</ele><time>2026-05-04T09:49:03.999Z</time></trkpt><trkpt lat="43.74343448280876" lon="12.222243536787936"><ele>791.0</ele><time>2026-05-04T09:49:05.999Z</time></trkpt><trkpt lat="43.74335388901137" lon="12.222244106326508"><ele>791.0</ele><time>2026-05-04T09:49:27Z</time></trkpt><trkpt lat="43.74324431294542" lon="12.222363053719759"><ele>791.0</ele><time>2026-05-04T09:49:29Z</time></trkpt><trkpt lat="43.74318979190794" lon="12.222414738691892"><ele>791.0</ele><time>2026-05-04T09:49:30Z</time></trkpt><trkpt lat="43.74312260733448" lon="12.222483533770344"><ele>791.0</ele><time>2026-05-04T09:49:31Z</time></trkpt><trkpt lat="43.74301039868965" lon="12.222585755510641"><ele>791.0</ele><time>2026-05-04T09:49:34Z</time></trkpt><trkpt lat="43.742951038021964" lon="12.222647589898369"><ele>791.0</ele><time>2026-05-04T09:49:35Z</time></trkpt><trkpt lat="43.74288572705255" lon="12.22269346519125"><ele>791.0</ele><time>2026-05-04T09:49:36Z</time></trkpt><trkpt lat="43.74282453075331" lon="12.222741059264123"><ele>791.0</ele><time>2026-05-04T09:49:37Z</time></trkpt><trkpt lat="43.74265488858809" lon="12.222883050683638"><ele>791.0</ele><time>2026-05-04T09:49:40Z</time></trkpt><trkpt lat="43.74257941432337" lon="12.222966066099723"><ele>792.0</ele><time>2026-05-04T09:49:41Z</time></trkpt><trkpt lat="43.742506341505894" lon="12.223048933533645"><ele>793.0</ele><time>2026-05-04T09:49:42Z</time></trkpt><trkpt lat="43.74243375932376" lon="12.223127135838435"><ele>794.0</ele><time>2026-05-04T09:49:43Z</time></trkpt><trkpt lat="43.74235481037386" lon="12.223204494374976"><ele>795.0</ele><time>2026-05-04T09:49:44Z</time></trkpt><trkpt lat="43.74226638719778" lon="12.223288203411023"><ele>796.0</ele><time>2026-05-04T09:49:45Z</time></trkpt><trkpt lat="43.74216741296605" lon="12.223369667973737"><ele>796.5999999999999</ele><time>2026-05-04T09:49:46Z</time></trkpt><trkpt lat="43.742087945141165" lon="12.223451124546687"><ele>797.2</ele><time>2026-05-04T09:49:47Z</time></trkpt><trkpt lat="43.742014116832635" lon="12.223562809111094"><ele>797.8</ele><time>2026-05-04T09:49:48Z</time></trkpt><trkpt lat="43.74192933183882" lon="12.223654443994256"><ele>798.4000000000001</ele><time>2026-05-04T09:49:49Z</time></trkpt><trkpt lat="43.7418462188248" lon="12.223744117096862"><ele>799.0</ele><time>2026-05-04T09:49:50Z</time></trkpt><trkpt lat="43.74176446438678" lon="12.223840827543647"><ele>800.4000000000001</ele><time>2026-05-04T09:49:51Z</time></trkpt><trkpt lat="43.7416871206643" lon="12.223936725757444"><ele>801.8</ele><time>2026-05-04T09:49:52Z</time></trkpt><trkpt lat="43.74161445646958" lon="12.224024337046409"><ele>803.2</ele><time>2026-05-04T09:49:53Z</time></trkpt><trkpt lat="43.74154924818713" lon="12.224103278913237"><ele>804.5999999999999</ele><time>2026-05-04T09:49:54Z</time></trkpt><trkpt lat="43.74148888431021" lon="12.224190346744875"><ele>806.0</ele><time>2026-05-04T09:49:55Z</time></trkpt><trkpt lat="43.7414272622458" lon="12.224276513436315"><ele>806.5999999999999</ele><time>2026-05-04T09:49:56Z</time></trkpt><trkpt lat="43.741408710538316" lon="12.224381688861227"><ele>807.2</ele><time>2026-05-04T09:49:57Z</time></trkpt><trkpt lat="43.741461372718256" lon="12.224510750246347"><ele>807.8</ele><time>2026-05-04T09:49:58Z</time></trkpt><trkpt lat="43.74148595570463" lon="12.224635106390794"><ele>808.4000000000001</ele><time>2026-05-04T09:49:59Z</time></trkpt><trkpt lat="43.74151115994719" lon="12.224770854659145"><ele>809.0</ele><time>2026-05-04T09:50:00Z</time></trkpt><trkpt lat="43.741525539883405" lon="12.224909576848818"><ele>810.0</ele><time>2026-05-04T09:50:01Z</time></trkpt><trkpt lat="43.74151965746904" lon="12.225042859431635"><ele>811.0</ele><time>2026-05-04T09:50:02Z</time></trkpt><trkpt lat="43.741482451668546" lon="12.225165589971207"><ele>812.0</ele><time>2026-05-04T09:50:03Z</time></trkpt><trkpt lat="43.74146856098434" lon="12.225284117198614"><ele>813.0</ele><time>2026-05-04T09:50:04Z</time></trkpt><trkpt lat="43.7414230864345" lon="12.225394010707891"><ele>814.0</ele><time>2026-05-04T09:50:05Z</time></trkpt><trkpt lat="43.741364484198215" lon="12.225492281863229"><ele>814.0</ele><time>2026-05-04T09:50:06Z</time></trkpt><trkpt lat="43.741290954529106" lon="12.225567340282145"><ele>814.0</ele><time>2026-05-04T09:50:07Z</time></trkpt><trkpt lat="43.74119731901004" lon="12.225564882034293"><ele>814.0</ele><time>2026-05-04T09:50:08Z</time></trkpt><trkpt lat="43.74110338660131" lon="12.225569850911965"><ele>814.0</ele><time>2026-05-04T09:50:09Z</time></trkpt><trkpt lat="43.74100297569676" lon="12.22557777299113"><ele>814.0</ele><time>2026-05-04T09:50:10Z</time></trkpt><trkpt lat="43.740919139676315" lon="12.225593547637292"><ele>817.4000000000001</ele><time>2026-05-04T09:50:11Z</time></trkpt><trkpt lat="43.740835708539805" lon="12.225648260643704"><ele>820.8</ele><time>2026-05-04T09:50:12Z</time></trkpt><trkpt lat="43.740774393206806" lon="12.2257584081339"><ele>824.2</ele><time>2026-05-04T09:50:13Z</time></trkpt><trkpt lat="43.740700495299805" lon="12.225841014638293"><ele>827.5999999999999</ele><time>2026-05-04T09:50:14Z</time></trkpt><trkpt lat="43.740622504564385" lon="12.225911166898095"><ele>831.0</ele><time>2026-05-04T09:50:15Z</time></trkpt><trkpt lat="43.74054562544579" lon="12.225959337172071"><ele>831.0</ele><time>2026-05-04T09:50:16Z</time></trkpt><trkpt lat="43.74046583402358" lon="12.225991013687663"><ele>831.0</ele><time>2026-05-04T09:50:17Z</time></trkpt><trkpt lat="43.740382511389" lon="12.22601028126289"><ele>831.0</ele><time>2026-05-04T09:50:18Z</time></trkpt><trkpt lat="43.740279018555356" lon="12.225994927898402"><ele>831.0</ele><time>2026-05-04T09:50:19Z</time></trkpt><trkpt lat="43.74018295553936" lon="12.22598075880318"><ele>831.0</ele><time>2026-05-04T09:50:20Z</time></trkpt><trkpt lat="43.740084503181876" lon="12.225970891085586"><ele>832.5999999999999</ele><time>2026-05-04T09:50:21Z</time></trkpt><trkpt lat="43.73999208183847" lon="12.225981783279346"><ele>834.2</ele><time>2026-05-04T09:50:22Z</time></trkpt><trkpt lat="43.73988622113556" lon="12.226065040072118"><ele>835.8</ele><time>2026-05-04T09:50:23Z</time></trkpt><trkpt lat="43.73979211708479" lon="12.22613758376789"><ele>837.4000000000001</ele><time>2026-05-04T09:50:24Z</time></trkpt><trkpt lat="43.73968755552845" lon="12.226191063066167"><ele>839.0</ele><time>2026-05-04T09:50:25Z</time></trkpt><trkpt lat="43.73959742094588" lon="12.226224551418785"><ele>839.0</ele><time>2026-05-04T09:50:26Z</time></trkpt><trkpt lat="43.73951215660821" lon="12.226255485900788"><ele>839.0</ele><time>2026-05-04T09:50:27Z</time></trkpt><trkpt lat="43.739417311384145" lon="12.226289896383143"><ele>839.0</ele><time>2026-05-04T09:50:28Z</time></trkpt><trkpt lat="43.739326060423004" lon="12.226335234947202"><ele>839.0</ele><time>2026-05-04T09:50:29Z</time></trkpt><trkpt lat="43.73922508390597" lon="12.2263711818265"><ele>839.0</ele><time>2026-05-04T09:50:30Z</time></trkpt><trkpt lat="43.73911780311698" lon="12.22643523497315"><ele>839.8000000000001</ele><time>2026-05-04T09:50:31Z</time></trkpt><trkpt lat="43.738996999765924" lon="12.226451084735261"><ele>840.6</ele><time>2026-05-04T09:50:32Z</time></trkpt><trkpt lat="43.73889994687559" lon="12.226473328411258"><ele>841.4</ele><time>2026-05-04T09:50:33Z</time></trkpt><trkpt lat="43.73880043334004" lon="12.2265029835421"><ele>842.2</ele><time>2026-05-04T09:50:34Z</time></trkpt><trkpt lat="43.73870184716636" lon="12.226491220169759"><ele>843.0</ele><time>2026-05-04T09:50:35Z</time></trkpt><trkpt lat="43.73862019725355" lon="12.226472212483985"><ele>844.0</ele><time>2026-05-04T09:50:36Z</time></trkpt><trkpt lat="43.73854856245169" lon="12.226433728523697"><ele>845.0</ele><time>2026-05-04T09:50:37Z</time></trkpt><trkpt lat="43.73849297071294" lon="12.226367289933632"><ele>846.0</ele><time>2026-05-04T09:50:38Z</time></trkpt><trkpt lat="43.73838760022813" lon="12.226269492811138"><ele>847.0</ele><time>2026-05-04T09:50:40Z</time></trkpt><trkpt lat="43.73832253808167" lon="12.226231053047378"><ele>848.0</ele><time>2026-05-04T09:50:41Z</time></trkpt><trkpt lat="43.73824703101038" lon="12.226195969398018"><ele>849.0</ele><time>2026-05-04T09:50:42Z</time></trkpt><trkpt lat="43.738181993815594" lon="12.22614346289951"><ele>849.0</ele><time>2026-05-04T09:50:43Z</time></trkpt><trkpt lat="43.738118876443856" lon="12.22606043720554"><ele>849.0</ele><time>2026-05-04T09:50:44Z</time></trkpt><trkpt lat="43.73803431337111" lon="12.226014569842626"><ele>849.0</ele><time>2026-05-04T09:50:45Z</time></trkpt><trkpt lat="43.73793598118759" lon="12.225996233146548"><ele>849.0</ele><time>2026-05-04T09:50:46Z</time></trkpt><trkpt lat="43.737846566674335" lon="12.226005964768044"><ele>849.0</ele><time>2026-05-04T09:50:47Z</time></trkpt><trkpt lat="43.73774103903667" lon="12.226046432447909"><ele>850.3333333333334</ele><time>2026-05-04T09:50:47.999Z</time></trkpt><trkpt lat="43.7376528176102" lon="12.226108752039872"><ele>851.6666666666667</ele><time>2026-05-04T09:50:48.999Z</time></trkpt><trkpt lat="43.73757241438779" lon="12.226170522072177"><ele>853.0</ele><time>2026-05-04T09:50:49.999Z</time></trkpt><trkpt lat="43.737494299675134" lon="12.226236353154189"><ele>854.3333333333334</ele><time>2026-05-04T09:50:50.999Z</time></trkpt><trkpt lat="43.73741640391136" lon="12.226312168288672"><ele>855.6666666666667</ele><time>2026-05-04T09:50:51.999Z</time></trkpt><trkpt lat="43.73736233619549" lon="12.226373482425121"><ele>857.0</ele><time>2026-05-04T09:50:52.999Z</time></trkpt><trkpt lat="43.7373035614271" lon="12.226432695975815"><ele>857.0</ele><time>2026-05-04T09:50:54.999Z</time></trkpt><trkpt lat="43.73729924755267" lon="12.22631874748732"><ele>857.0</ele><time>2026-05-04T09:53:40Z</time></trkpt><trkpt lat="43.73731317553042" lon="12.226183693035583"><ele>857.0</ele><time>2026-05-04T09:53:42Z</time></trkpt><trkpt lat="43.73729758514416" lon="12.226036589609226"><ele>857.0</ele><time>2026-05-04T09:53:44Z</time></trkpt><trkpt lat="43.73724290647269" lon="12.22590422638064"><ele>857.0</ele><time>2026-05-04T09:53:46Z</time></trkpt><trkpt lat="43.7371701140714" lon="12.225772159971857"><ele>857.0</ele><time>2026-05-04T09:53:48Z</time></trkpt><trkpt lat="43.737134895467264" lon="12.225698828465374"><ele>857.0</ele><time>2026-05-04T09:53:49Z</time></trkpt><trkpt lat="43.73709093459214" lon="12.22563578388527"><ele>857.0</ele><time>2026-05-04T09:53:50Z</time></trkpt><trkpt lat="43.73700786759399" lon="12.225513382115032"><ele>857.0</ele><time>2026-05-04T09:53:52Z</time></trkpt><trkpt lat="43.73696493893385" lon="12.22544622898605"><ele>857.0</ele><time>2026-05-04T09:53:53Z</time></trkpt><trkpt lat="43.736920432184355" lon="12.225381048197315"><ele>857.0</ele><time>2026-05-04T09:53:54Z</time></trkpt><trkpt lat="43.73687719251121" lon="12.225311178904649"><ele>857.0</ele><time>2026-05-04T09:53:55Z</time></trkpt><trkpt lat="43.736806674471026" lon="12.225172007460882"><ele>859.5000000000001</ele><time>2026-05-04T09:53:57Z</time></trkpt><trkpt lat="43.736749690484714" lon="12.225099234228045"><ele>862.0</ele><time>2026-05-04T09:53:58Z</time></trkpt><trkpt lat="43.73671843672694" lon="12.225006046786211"><ele>864.5</ele><time>2026-05-04T09:53:59Z</time></trkpt><trkpt lat="43.73669331351832" lon="12.22492226407944"><ele>867.0</ele><time>2026-05-04T09:54:00Z</time></trkpt><trkpt lat="43.73666740600201" lon="12.224838753816925"><ele>869.5000000000001</ele><time>2026-05-04T09:54:01Z</time></trkpt><trkpt lat="43.73667023380019" lon="12.224728892242082"><ele>872.0</ele><time>2026-05-04T09:54:03Z</time></trkpt><trkpt lat="43.73670010843606" lon="12.224577289595127"><ele>873.8333333333334</ele><time>2026-05-04T09:54:05Z</time></trkpt><trkpt lat="43.73673576783145" lon="12.224407355322818"><ele>875.6666666666667</ele><time>2026-05-04T09:54:07Z</time></trkpt><trkpt lat="43.73674595187697" lon="12.224317563357134"><ele>877.5</ele><time>2026-05-04T09:54:08Z</time></trkpt><trkpt lat="43.73675231214497" lon="12.224225898881784"><ele>879.3333333333333</ele><time>2026-05-04T09:54:09Z</time></trkpt><trkpt lat="43.73675592390447" lon="12.224129912487264"><ele>881.1666666666666</ele><time>2026-05-04T09:54:10Z</time></trkpt><trkpt lat="43.73674694354806" lon="12.224041941577136"><ele>883.0</ele><time>2026-05-04T09:54:11Z</time></trkpt><trkpt lat="43.73673893594166" lon="12.223953126888125"><ele>883.4999999999999</ele><time>2026-05-04T09:54:12Z</time></trkpt><trkpt lat="43.73672407982672" lon="12.22386433524124"><ele>884.0</ele><time>2026-05-04T09:54:13Z</time></trkpt><trkpt lat="43.736705021970614" lon="12.22376505838445"><ele>884.5</ele><time>2026-05-04T09:54:14Z</time></trkpt><trkpt lat="43.73668929199476" lon="12.223663363491436"><ele>885.0</ele><time>2026-05-04T09:54:15Z</time></trkpt><trkpt lat="43.73667147128382" lon="12.223564892873908"><ele>885.4999999999999</ele><time>2026-05-04T09:54:16Z</time></trkpt><trkpt lat="43.73662562099176" lon="12.223420011348821"><ele>886.0</ele><time>2026-05-04T09:54:18Z</time></trkpt><trkpt lat="43.736573410092944" lon="12.22334757712956"><ele>886.0</ele><time>2026-05-04T09:54:19Z</time></trkpt><trkpt lat="43.73651442717103" lon="12.223266415657859"><ele>885.9999999999999</ele><time>2026-05-04T09:54:20Z</time></trkpt><trkpt lat="43.73644412262575" lon="12.223206449850005"><ele>885.9999999999999</ele><time>2026-05-04T09:54:21Z</time></trkpt><trkpt lat="43.736377247649756" lon="12.223117326395114"><ele>886.0</ele><time>2026-05-04T09:54:22Z</time></trkpt><trkpt lat="43.73627795363663" lon="12.223037674096153"><ele>886.0</ele><time>2026-05-04T09:54:23Z</time></trkpt><trkpt lat="43.736173569241835" lon="12.222976823180597"><ele>886.4</ele><time>2026-05-04T09:54:24Z</time></trkpt><trkpt lat="43.73608450580561" lon="12.222932860378176"><ele>886.8</ele><time>2026-05-04T09:54:25Z</time></trkpt><trkpt lat="43.73598486530775" lon="12.222909504230751"><ele>887.1999999999999</ele><time>2026-05-04T09:54:26Z</time></trkpt><trkpt lat="43.73590037524126" lon="12.222854062586913"><ele>887.5999999999999</ele><time>2026-05-04T09:54:27Z</time></trkpt><trkpt lat="43.73582555540012" lon="12.222855388887856"><ele>888.0</ele><time>2026-05-04T09:54:28Z</time></trkpt><trkpt lat="43.735725979137335" lon="12.222816270289835"><ele>888.0</ele><time>2026-05-04T09:54:30Z</time></trkpt><trkpt lat="43.73563296752836" lon="12.222810193163848"><ele>888.0</ele><time>2026-05-04T09:54:32Z</time></trkpt><trkpt lat="43.735521544743804" lon="12.222793077883946"><ele>888.0</ele><time>2026-05-04T09:54:34Z</time></trkpt><trkpt lat="43.7354259846096" lon="12.222784196054869"><ele>888.0</ele><time>2026-05-04T09:54:36Z</time></trkpt><trkpt lat="43.73539845104124" lon="12.222518882194862"><ele>888.0</ele><time>2026-05-04T09:54:37Z</time></trkpt><trkpt lat="43.735362607198326" lon="12.222440325205726"><ele>888.0</ele><time>2026-05-04T09:54:38Z</time></trkpt><trkpt lat="43.73532174060811" lon="12.222363466377683"><ele>888.0</ele><time>2026-05-04T09:54:39Z</time></trkpt><trkpt lat="43.73528098892953" lon="12.222286898333063"><ele>888.0</ele><time>2026-05-04T09:54:40Z</time></trkpt><trkpt lat="43.73523831546844" lon="12.222203850801458"><ele>888.0</ele><time>2026-05-04T09:54:41Z</time></trkpt><trkpt lat="43.735192902476044" lon="12.222114424725408"><ele>888.0</ele><time>2026-05-04T09:54:42Z</time></trkpt><trkpt lat="43.73515282223714" lon="12.222046304926241"><ele>888.0</ele><time>2026-05-04T09:54:43Z</time></trkpt><trkpt lat="43.735082111998636" lon="12.221885637237285"><ele>887.0</ele><time>2026-05-04T09:54:45Z</time></trkpt><trkpt lat="43.73503987223611" lon="12.221798433741109"><ele>886.0</ele><time>2026-05-04T09:54:46Z</time></trkpt><trkpt lat="43.73499977344927" lon="12.221717085359435"><ele>885.0</ele><time>2026-05-04T09:54:47Z</time></trkpt><trkpt lat="43.734964924840014" lon="12.221621944883411"><ele>884.0</ele><time>2026-05-04T09:54:48Z</time></trkpt><trkpt lat="43.734925611772944" lon="12.221517955443945"><ele>883.0</ele><time>2026-05-04T09:54:49Z</time></trkpt><trkpt lat="43.734890572982" lon="12.221421724717553"><ele>882.0</ele><time>2026-05-04T09:54:50Z</time></trkpt><trkpt lat="43.734853796654946" lon="12.22132902815086"><ele>879.6666666666666</ele><time>2026-05-04T09:54:51Z</time></trkpt><trkpt lat="43.73481444879829" lon="12.22124338743116"><ele>877.3333333333333</ele><time>2026-05-04T09:54:52Z</time></trkpt><trkpt lat="43.73478036021381" lon="12.221144628016019"><ele>875.0</ele><time>2026-05-04T09:54:53Z</time></trkpt><trkpt lat="43.73474368037973" lon="12.221039881913974"><ele>872.6666666666666</ele><time>2026-05-04T09:54:54Z</time></trkpt><trkpt lat="43.73470705917338" lon="12.220951537088684"><ele>870.3333333333333</ele><time>2026-05-04T09:54:55Z</time></trkpt><trkpt lat="43.73466510653714" lon="12.220853984008398"><ele>868.0</ele><time>2026-05-04T09:54:56Z</time></trkpt><trkpt lat="43.734619403505285" lon="12.220754062363357"><ele>868.0</ele><time>2026-05-04T09:54:57Z</time></trkpt><trkpt lat="43.734575662547336" lon="12.220664092807846"><ele>868.0</ele><time>2026-05-04T09:54:58Z</time></trkpt><trkpt lat="43.734530645997985" lon="12.220560642671742"><ele>868.0</ele><time>2026-05-04T09:54:59Z</time></trkpt><trkpt lat="43.73450466162513" lon="12.220416842890998"><ele>868.0</ele><time>2026-05-04T09:55:00Z</time></trkpt><trkpt lat="43.73447455277264" lon="12.220268871634815"><ele>868.0</ele><time>2026-05-04T09:55:01Z</time></trkpt><trkpt lat="43.73443784106641" lon="12.22017667187726"><ele>867.8</ele><time>2026-05-04T09:55:02Z</time></trkpt><trkpt lat="43.73439875069593" lon="12.2200803661847"><ele>867.5999999999999</ele><time>2026-05-04T09:55:03Z</time></trkpt><trkpt lat="43.73437584263217" lon="12.21999683701316"><ele>867.4000000000001</ele><time>2026-05-04T09:55:04Z</time></trkpt><trkpt lat="43.73437111344019" lon="12.219845982086195"><ele>867.2</ele><time>2026-05-04T09:55:06Z</time></trkpt><trkpt lat="43.73438713218789" lon="12.219727608256612"><ele>867.0</ele><time>2026-05-04T09:55:08Z</time></trkpt><trkpt lat="43.73439282756476" lon="12.219569477584145"><ele>865.1666666666666</ele><time>2026-05-04T09:55:10Z</time></trkpt><trkpt lat="43.73438877837206" lon="12.219435070770045"><ele>863.3333333333333</ele><time>2026-05-04T09:55:12Z</time></trkpt><trkpt lat="43.7344085048453" lon="12.219327483659026"><ele>861.5</ele><time>2026-05-04T09:55:14Z</time></trkpt><trkpt lat="43.734425648839206" lon="12.219220819439148"><ele>859.6666666666666</ele><time>2026-05-04T09:55:25Z</time></trkpt><trkpt lat="43.734400923470375" lon="12.219091537274815"><ele>857.8333333333333</ele><time>2026-05-04T09:55:27Z</time></trkpt><trkpt lat="43.734385893417084" lon="12.21900678886991"><ele>856.0</ele><time>2026-05-04T09:55:28Z</time></trkpt><trkpt lat="43.73435675544538" lon="12.218846154841161"><ele>854.1666666666666</ele><time>2026-05-04T09:55:30Z</time></trkpt><trkpt lat="43.73434189725884" lon="12.218751854831053"><ele>852.3333333333333</ele><time>2026-05-04T09:55:31Z</time></trkpt><trkpt lat="43.73432860095698" lon="12.218666062415206"><ele>850.5</ele><time>2026-05-04T09:55:32Z</time></trkpt><trkpt lat="43.7343135498052" lon="12.218577163427268"><ele>848.6666666666667</ele><time>2026-05-04T09:55:33Z</time></trkpt><trkpt lat="43.73428884425736" lon="12.218405500736393"><ele>846.8333333333334</ele><time>2026-05-04T09:55:35Z</time></trkpt><trkpt lat="43.73427920957964" lon="12.218314616667898"><ele>845.0</ele><time>2026-05-04T09:55:36Z</time></trkpt><trkpt lat="43.734261783511926" lon="12.21820329557301"><ele>843.0000000000001</ele><time>2026-05-04T09:55:37Z</time></trkpt><trkpt lat="43.734235880793435" lon="12.218085847455098"><ele>841.0</ele><time>2026-05-04T09:55:38Z</time></trkpt><trkpt lat="43.73421803696733" lon="12.21799891480005"><ele>839.0</ele><time>2026-05-04T09:55:39Z</time></trkpt><trkpt lat="43.73419991224762" lon="12.217911783739941"><ele>837.0</ele><time>2026-05-04T09:55:40Z</time></trkpt><trkpt lat="43.734178522923365" lon="12.217813327620942"><ele>835.0000000000001</ele><time>2026-05-04T09:55:41Z</time></trkpt><trkpt lat="43.73415103822256" lon="12.217686766629722"><ele>833.0</ele><time>2026-05-04T09:55:42Z</time></trkpt><trkpt lat="43.734125897577556" lon="12.217523129557419"><ele>833.0</ele><time>2026-05-04T09:55:44Z</time></trkpt><trkpt lat="43.7341064059276" lon="12.217434197322351"><ele>833.0</ele><time>2026-05-04T09:55:45Z</time></trkpt><trkpt lat="43.73407920992213" lon="12.217288693850879"><ele>833.0</ele><time>2026-05-04T09:55:47Z</time></trkpt><trkpt lat="43.73405011928814" lon="12.217207109226619"><ele>833.0</ele><time>2026-05-04T09:55:48Z</time></trkpt><trkpt lat="43.73399970481691" lon="12.217076276284596"><ele>833.0</ele><time>2026-05-04T09:55:50Z</time></trkpt><trkpt lat="43.73394717182362" lon="12.216916414256614"><ele>831.3333333333334</ele><time>2026-05-04T09:55:52Z</time></trkpt><trkpt lat="43.73391472435862" lon="12.216819842453873"><ele>829.6666666666667</ele><time>2026-05-04T09:55:53Z</time></trkpt><trkpt lat="43.73388621445519" lon="12.216735489887109"><ele>828.0</ele><time>2026-05-04T09:55:54Z</time></trkpt><trkpt lat="43.733841050745475" lon="12.21663886961173"><ele>826.3333333333333</ele><time>2026-05-04T09:55:55Z</time></trkpt><trkpt lat="43.73380875468813" lon="12.2165439810681"><ele>824.6666666666666</ele><time>2026-05-04T09:55:56Z</time></trkpt><trkpt lat="43.73376563477081" lon="12.216433864277315"><ele>823.0</ele><time>2026-05-04T09:55:57Z</time></trkpt><trkpt lat="43.73373553173334" lon="12.21632230772592"><ele>821.1666666666666</ele><time>2026-05-04T09:55:58Z</time></trkpt><trkpt lat="43.73371716559772" lon="12.216212456516372"><ele>819.3333333333333</ele><time>2026-05-04T09:55:59Z</time></trkpt><trkpt lat="43.733695504349605" lon="12.21609321297776"><ele>817.5</ele><time>2026-05-04T09:56:00Z</time></trkpt><trkpt lat="43.73367665487495" lon="12.215996476411368"><ele>815.6666666666667</ele><time>2026-05-04T09:56:01Z</time></trkpt><trkpt lat="43.73365902405032" lon="12.215893793552182"><ele>813.8333333333334</ele><time>2026-05-04T09:56:02Z</time></trkpt><trkpt lat="43.733636858120875" lon="12.215787746142336"><ele>812.0</ele><time>2026-05-04T09:56:03Z</time></trkpt><trkpt lat="43.733609448515395" lon="12.215658212946366"><ele>811.3333333333334</ele><time>2026-05-04T09:56:05Z</time></trkpt><trkpt lat="43.73358004252246" lon="12.21557827241968"><ele>810.6666666666667</ele><time>2026-05-04T09:56:06Z</time></trkpt><trkpt lat="43.73354157265994" lon="12.215468092495003"><ele>810.0</ele><time>2026-05-04T09:56:07Z</time></trkpt><trkpt lat="43.73350125220529" lon="12.215354331297702"><ele>809.3333333333333</ele><time>2026-05-04T09:56:08Z</time></trkpt><trkpt lat="43.7334745899864" lon="12.21525723222237"><ele>808.6666666666666</ele><time>2026-05-04T09:56:09Z</time></trkpt><trkpt lat="43.73345961227737" lon="12.215159130975719"><ele>808.0</ele><time>2026-05-04T09:56:10Z</time></trkpt><trkpt lat="43.7334549266986" lon="12.215028566127021"><ele>807.9999999999999</ele><time>2026-05-04T09:56:12Z</time></trkpt><trkpt lat="43.73345927433155" lon="12.214872351489014"><ele>808.0</ele><time>2026-05-04T09:56:14Z</time></trkpt><trkpt lat="43.733449473508465" lon="12.214774051135917"><ele>808.0</ele><time>2026-05-04T09:56:15Z</time></trkpt><trkpt lat="43.73343912753594" lon="12.214662046072197"><ele>808.0</ele><time>2026-05-04T09:56:16Z</time></trkpt><trkpt lat="43.733429400935954" lon="12.214556227111094"><ele>807.9999999999999</ele><time>2026-05-04T09:56:17Z</time></trkpt><trkpt lat="43.733415416179064" lon="12.214437814319023"><ele>808.0</ele><time>2026-05-04T09:56:18Z</time></trkpt><trkpt lat="43.7333948485901" lon="12.214314777779453"><ele>806.5999999999999</ele><time>2026-05-04T09:56:19Z</time></trkpt><trkpt lat="43.73337269961795" lon="12.214199878510286"><ele>805.1999999999999</ele><time>2026-05-04T09:56:20Z</time></trkpt><trkpt lat="43.733341452333306" lon="12.214087293831266"><ele>803.8</ele><time>2026-05-04T09:56:21Z</time></trkpt><trkpt lat="43.733305685736674" lon="12.21398517910937"><ele>802.4</ele><time>2026-05-04T09:56:22Z</time></trkpt><trkpt lat="43.733230750486015" lon="12.213884802845936"><ele>801.0</ele><time>2026-05-04T09:56:24Z</time></trkpt><trkpt lat="43.73313276279171" lon="12.213800732758425"><ele>799.8333333333334</ele><time>2026-05-04T09:56:26Z</time></trkpt><trkpt lat="43.73303539804682" lon="12.213714228064326"><ele>798.6666666666667</ele><time>2026-05-04T09:56:28Z</time></trkpt><trkpt lat="43.73297894801301" lon="12.213665899287287"><ele>797.5</ele><time>2026-05-04T09:56:29Z</time></trkpt><trkpt lat="43.73291790257929" lon="12.213621954971721"><ele>796.3333333333334</ele><time>2026-05-04T09:56:30Z</time></trkpt><trkpt lat="43.73286275477492" lon="12.213575046588545"><ele>795.1666666666667</ele><time>2026-05-04T09:56:31Z</time></trkpt><trkpt lat="43.732769253343754" lon="12.21347270082944"><ele>794.0</ele><time>2026-05-04T09:56:33Z</time></trkpt><trkpt lat="43.73266555835403" lon="12.213360225982072"><ele>793.3333333333334</ele><time>2026-05-04T09:56:35Z</time></trkpt><trkpt lat="43.732609611060646" lon="12.21329934017308"><ele>792.6666666666667</ele><time>2026-05-04T09:56:36Z</time></trkpt><trkpt lat="43.7325488585255" lon="12.213218944695342"><ele>792.0</ele><time>2026-05-04T09:56:37Z</time></trkpt><trkpt lat="43.732479483991526" lon="12.213126913475024"><ele>791.3333333333333</ele><time>2026-05-04T09:56:38Z</time></trkpt><trkpt lat="43.732414993617326" lon="12.213023518012646"><ele>790.6666666666666</ele><time>2026-05-04T09:56:39Z</time></trkpt><trkpt lat="43.73236410707744" lon="12.212931424260725"><ele>790.0</ele><time>2026-05-04T09:56:40Z</time></trkpt><trkpt lat="43.73232524139759" lon="12.212847136033432"><ele>789.4999999999999</ele><time>2026-05-04T09:56:41Z</time></trkpt><trkpt lat="43.73229632735002" lon="12.212763280158992"><ele>789.0</ele><time>2026-05-04T09:56:42Z</time></trkpt><trkpt lat="43.7322717491605" lon="12.212613378884607"><ele>788.5</ele><time>2026-05-04T09:56:44Z</time></trkpt><trkpt lat="43.73227589951349" lon="12.212522474948184"><ele>788.0</ele><time>2026-05-04T09:56:45Z</time></trkpt><trkpt lat="43.73228802856577" lon="12.212400668626247"><ele>787.4999999999999</ele><time>2026-05-04T09:56:46Z</time></trkpt><trkpt lat="43.73230916918827" lon="12.212252554850838"><ele>787.0</ele><time>2026-05-04T09:56:47Z</time></trkpt><trkpt lat="43.73232200609717" lon="12.212122332569665"><ele>785.8333333333333</ele><time>2026-05-04T09:56:48Z</time></trkpt><trkpt lat="43.732334339776514" lon="12.211995905672373"><ele>784.6666666666666</ele><time>2026-05-04T09:56:49Z</time></trkpt><trkpt lat="43.73234219063573" lon="12.211885790150067"><ele>783.5</ele><time>2026-05-04T09:56:50Z</time></trkpt><trkpt lat="43.73234322336079" lon="12.211765603368374"><ele>782.3333333333333</ele><time>2026-05-04T09:56:51Z</time></trkpt><trkpt lat="43.73233840159761" lon="12.211674262622152"><ele>781.1666666666666</ele><time>2026-05-04T09:56:52Z</time></trkpt><trkpt lat="43.732315046188866" lon="12.211582167177413"><ele>780.0</ele><time>2026-05-04T09:56:53Z</time></trkpt><trkpt lat="43.73228108608862" lon="12.21149014282203"><ele>778.3333333333334</ele><time>2026-05-04T09:56:54Z</time></trkpt><trkpt lat="43.732246186298646" lon="12.211410452458715"><ele>776.6666666666667</ele><time>2026-05-04T09:56:55Z</time></trkpt><trkpt lat="43.73221193790209" lon="12.211332497398242"><ele>775.0</ele><time>2026-05-04T09:56:56Z</time></trkpt><trkpt lat="43.732173832228476" lon="12.21125218014087"><ele>773.3333333333334</ele><time>2026-05-04T09:56:57Z</time></trkpt><trkpt lat="43.732088759580115" lon="12.211090170169093"><ele>771.6666666666667</ele><time>2026-05-04T09:56:59Z</time></trkpt><trkpt lat="43.732042774177366" lon="12.210986038410097"><ele>770.0</ele><time>2026-05-04T09:57:00Z</time></trkpt><trkpt lat="43.73199679832929" lon="12.210874167161563"><ele>770.0000000000001</ele><time>2026-05-04T09:57:01Z</time></trkpt><trkpt lat="43.731951534198515" lon="12.210768912969822"><ele>770.0</ele><time>2026-05-04T09:57:02Z</time></trkpt><trkpt lat="43.73191177992568" lon="12.210669929332237"><ele>770.0</ele><time>2026-05-04T09:57:03Z</time></trkpt><trkpt lat="43.73188345375205" lon="12.210585332541173"><ele>770.0</ele><time>2026-05-04T09:57:04Z</time></trkpt><trkpt lat="43.731826610134895" lon="12.210434071340234"><ele>770.0000000000001</ele><time>2026-05-04T09:57:06Z</time></trkpt><trkpt lat="43.73179523673861" lon="12.210336522964198"><ele>770.0</ele><time>2026-05-04T09:57:07Z</time></trkpt><trkpt lat="43.73177417702002" lon="12.210235614650857"><ele>769.0</ele><time>2026-05-04T09:57:08Z</time></trkpt><trkpt lat="43.731735082554444" lon="12.210060174472503"><ele>768.0</ele><time>2026-05-04T09:57:10Z</time></trkpt><trkpt lat="43.73171703503369" lon="12.209959409845903"><ele>767.0</ele><time>2026-05-04T09:57:11Z</time></trkpt><trkpt lat="43.73170070315456" lon="12.209853199044844"><ele>766.0</ele><time>2026-05-04T09:57:12Z</time></trkpt><trkpt lat="43.73168201897703" lon="12.209747282885992"><ele>765.0</ele><time>2026-05-04T09:57:13Z</time></trkpt><trkpt lat="43.731652224089906" lon="12.209628555000183"><ele>763.3333333333334</ele><time>2026-05-04T09:57:14Z</time></trkpt><trkpt lat="43.73161716233516" lon="12.209518722147712"><ele>761.6666666666666</ele><time>2026-05-04T09:57:15Z</time></trkpt><trkpt lat="43.73157668356501" lon="12.209415397156025"><ele>760.0</ele><time>2026-05-04T09:57:16Z</time></trkpt><trkpt lat="43.73154531706297" lon="12.209336021001493"><ele>758.3333333333333</ele><time>2026-05-04T09:57:17Z</time></trkpt><trkpt lat="43.73151293516433" lon="12.209246914615637"><ele>756.6666666666666</ele><time>2026-05-04T09:57:18Z</time></trkpt><trkpt lat="43.731479247299546" lon="12.20915903974837"><ele>755.0</ele><time>2026-05-04T09:57:19Z</time></trkpt><trkpt lat="43.73143354793398" lon="12.20905788529879"><ele>754.5</ele><time>2026-05-04T09:57:20Z</time></trkpt><trkpt lat="43.731380048542846" lon="12.208961552657335"><ele>754.0</ele><time>2026-05-04T09:57:21Z</time></trkpt><trkpt lat="43.73133537020018" lon="12.208895292953152"><ele>753.5</ele><time>2026-05-04T09:57:22Z</time></trkpt><trkpt lat="43.731277109870014" lon="12.208846218035504"><ele>753.0</ele><time>2026-05-04T09:57:23Z</time></trkpt><trkpt lat="43.73120604255531" lon="12.208800801224731"><ele>752.5</ele><time>2026-05-04T09:57:24Z</time></trkpt><trkpt lat="43.73112130160827" lon="12.208754643205"><ele>752.0</ele><time>2026-05-04T09:57:25Z</time></trkpt><trkpt lat="43.7310533540454" lon="12.208708737960315"><ele>750.2</ele><time>2026-05-04T09:57:26Z</time></trkpt><trkpt lat="43.73099008791614" lon="12.20864794318652"><ele>748.4000000000001</ele><time>2026-05-04T09:57:27Z</time></trkpt><trkpt lat="43.730896969962885" lon="12.2085830098705"><ele>746.5999999999999</ele><time>2026-05-04T09:57:29Z</time></trkpt><trkpt lat="43.730797061041095" lon="12.208483179392095"><ele>744.8</ele><time>2026-05-04T09:57:31Z</time></trkpt><trkpt lat="43.730730151479726" lon="12.20844863622221"><ele>743.0</ele><time>2026-05-04T09:57:32Z</time></trkpt><trkpt lat="43.73065204593594" lon="12.20840411212586"><ele>743.0</ele><time>2026-05-04T09:57:33Z</time></trkpt><trkpt lat="43.730579873589" lon="12.208350718690578"><ele>743.0</ele><time>2026-05-04T09:57:34Z</time></trkpt><trkpt lat="43.73050142267229" lon="12.208278194594476"><ele>743.0</ele><time>2026-05-04T09:57:35Z</time></trkpt><trkpt lat="43.73042245421704" lon="12.2082121846907"><ele>743.0</ele><time>2026-05-04T09:57:36Z</time></trkpt><trkpt lat="43.73033698711411" lon="12.208150047502613"><ele>743.0</ele><time>2026-05-04T09:57:37Z</time></trkpt><trkpt lat="43.73025632771506" lon="12.208101565972392"><ele>740.8</ele><time>2026-05-04T09:57:38Z</time></trkpt><trkpt lat="43.730170039711346" lon="12.208031790113296"><ele>738.5999999999999</ele><time>2026-05-04T09:57:39Z</time></trkpt><trkpt lat="43.73008782248089" lon="12.207974209203122"><ele>736.4000000000001</ele><time>2026-05-04T09:57:40Z</time></trkpt><trkpt lat="43.730001946480634" lon="12.207908419805817"><ele>734.2</ele><time>2026-05-04T09:57:41Z</time></trkpt><trkpt lat="43.72991771245494" lon="12.20784243069119"><ele>732.0</ele><time>2026-05-04T09:57:42Z</time></trkpt><trkpt lat="43.729834634921055" lon="12.207785475394068"><ele>732.0</ele><time>2026-05-04T09:57:43Z</time></trkpt><trkpt lat="43.72975331400272" lon="12.20773387715813"><ele>732.0</ele><time>2026-05-04T09:57:44Z</time></trkpt><trkpt lat="43.729678413384576" lon="12.207683861272521"><ele>732.0</ele><time>2026-05-04T09:57:45Z</time></trkpt><trkpt lat="43.729596850278746" lon="12.207634328059985"><ele>732.0</ele><time>2026-05-04T09:57:46Z</time></trkpt><trkpt lat="43.72952586940839" lon="12.20757825553388"><ele>732.0</ele><time>2026-05-04T09:57:47Z</time></trkpt><trkpt lat="43.72942784690352" lon="12.207524424415551"><ele>732.0</ele><time>2026-05-04T09:57:48Z</time></trkpt><trkpt lat="43.7293566266111" lon="12.207477061971284"><ele>730.3333333333334</ele><time>2026-05-04T09:57:49Z</time></trkpt><trkpt lat="43.72927206627889" lon="12.207417652473527"><ele>728.6666666666666</ele><time>2026-05-04T09:57:50Z</time></trkpt><trkpt lat="43.72919718999367" lon="12.207367990181302"><ele>727.0</ele><time>2026-05-04T09:57:51Z</time></trkpt><trkpt lat="43.7291232582414" lon="12.207316096120724"><ele>725.3333333333333</ele><time>2026-05-04T09:57:52Z</time></trkpt><trkpt lat="43.72904451544706" lon="12.207262426425373"><ele>723.6666666666666</ele><time>2026-05-04T09:57:53Z</time></trkpt><trkpt lat="43.72896255951755" lon="12.207204862069585"><ele>722.0</ele><time>2026-05-04T09:57:54Z</time></trkpt><trkpt lat="43.72888763463628" lon="12.20714675339387"><ele>722.0</ele><time>2026-05-04T09:57:55Z</time></trkpt><trkpt lat="43.72879277955694" lon="12.207084001507237"><ele>722.0</ele><time>2026-05-04T09:57:56Z</time></trkpt><trkpt lat="43.72871605062768" lon="12.207029722397907"><ele>722.0</ele><time>2026-05-04T09:57:57Z</time></trkpt><trkpt lat="43.72862478732218" lon="12.206975951652105"><ele>722.0</ele><time>2026-05-04T09:57:58Z</time></trkpt><trkpt lat="43.72853926078521" lon="12.206918590039724"><ele>722.0</ele><time>2026-05-04T09:57:59Z</time></trkpt><trkpt lat="43.728457213156766" lon="12.206857753435695"><ele>720.3333333333333</ele><time>2026-05-04T09:58:00Z</time></trkpt><trkpt lat="43.72837993296155" lon="12.20679352738591"><ele>718.6666666666666</ele><time>2026-05-04T09:58:01Z</time></trkpt><trkpt lat="43.728304217337566" lon="12.20673764032074"><ele>717.0</ele><time>2026-05-04T09:58:02Z</time></trkpt><trkpt lat="43.72823375263556" lon="12.206677186737924"><ele>715.3333333333334</ele><time>2026-05-04T09:58:03Z</time></trkpt><trkpt lat="43.72817276321896" lon="12.206611766228578"><ele>713.6666666666667</ele><time>2026-05-04T09:58:04Z</time></trkpt><trkpt lat="43.728132394220175" lon="12.206515438557814"><ele>712.0</ele><time>2026-05-04T09:58:06Z</time></trkpt><trkpt lat="43.72809195139582" lon="12.206440581198121"><ele>712.0</ele><time>2026-05-04T09:58:07Z</time></trkpt><trkpt lat="43.72803634710315" lon="12.206352682428403"><ele>712.0</ele><time>2026-05-04T09:58:54Z</time></trkpt><trkpt lat="43.72803297146154" lon="12.206226356769978"><ele>712.0</ele><time>2026-05-04T09:58:59.001Z</time></trkpt><trkpt lat="43.72813396389522" lon="12.206272655345927"><ele>712.0</ele><time>2026-05-04T09:59:00.001Z</time></trkpt><trkpt lat="43.7281655470433" lon="12.206146681571646"><ele>712.0</ele><time>2026-05-04T09:59:03.001Z</time></trkpt><trkpt lat="43.728163609246465" lon="12.205988699266186"><ele>712.0</ele><time>2026-05-04T09:59:05.001Z</time></trkpt><trkpt lat="43.72813916601077" lon="12.205870391669722"><ele>712.0</ele><time>2026-05-04T09:59:07.001Z</time></trkpt><trkpt lat="43.72812782443455" lon="12.20577673005476"><ele>712.0</ele><time>2026-05-04T09:59:09.001Z</time></trkpt><trkpt lat="43.72807417024109" lon="12.20568171504561"><ele>712.0</ele><time>2026-05-04T09:59:12Z</time></trkpt><trkpt lat="43.72804687305825" lon="12.205588197142177"><ele>712.0</ele><time>2026-05-04T09:59:14Z</time></trkpt><trkpt lat="43.72802797394494" lon="12.20547752462148"><ele>712.0</ele><time>2026-05-04T09:59:16Z</time></trkpt><trkpt lat="43.72798458882822" lon="12.205374276972758"><ele>713.1666666666667</ele><time>2026-05-04T09:59:18Z</time></trkpt><trkpt lat="43.72793118030579" lon="12.205307751950452"><ele>714.3333333333334</ele><time>2026-05-04T09:59:20Z</time></trkpt><trkpt lat="43.727860664673294" lon="12.205222790872558"><ele>715.5</ele><time>2026-05-04T09:59:22Z</time></trkpt><trkpt lat="43.72779472860352" lon="12.205151748984582"><ele>716.6666666666666</ele><time>2026-05-04T09:59:24Z</time></trkpt><trkpt lat="43.72774251092789" lon="12.205089335482894"><ele>717.8333333333333</ele><time>2026-05-04T09:59:26Z</time></trkpt><trkpt lat="43.72770041459207" lon="12.205008374896128"><ele>719.0</ele><time>2026-05-04T09:59:28Z</time></trkpt><trkpt lat="43.72764546141962" lon="12.204929427773438"><ele>717.3333333333333</ele><time>2026-05-04T09:59:31Z</time></trkpt><trkpt lat="43.72758575553874" lon="12.204841266114308"><ele>715.6666666666666</ele><time>2026-05-04T09:59:41Z</time></trkpt><trkpt lat="43.72753794127901" lon="12.20477596701807"><ele>714.0</ele><time>2026-05-04T09:59:43Z</time></trkpt><trkpt lat="43.727507003215116" lon="12.20469660607672"><ele>712.3333333333334</ele><time>2026-05-04T09:59:46Z</time></trkpt><trkpt lat="43.72746918486158" lon="12.204600477970938"><ele>710.6666666666667</ele><time>2026-05-04T09:59:54Z</time></trkpt><trkpt lat="43.72743622402739" lon="12.20448067646539"><ele>709.0</ele><time>2026-05-04T09:59:57Z</time></trkpt><trkpt lat="43.72742197610708" lon="12.204363415557378"><ele>709.0</ele><time>2026-05-04T10:00:00Z</time></trkpt><trkpt lat="43.72740848244459" lon="12.204252786455745"><ele>709.0</ele><time>2026-05-04T10:00:04Z</time></trkpt><trkpt lat="43.72738464179393" lon="12.204153312529142"><ele>709.0</ele><time>2026-05-04T10:00:12.001Z</time></trkpt><trkpt lat="43.72731613375044" lon="12.204095365200688"><ele>709.0</ele><time>2026-05-04T10:00:16.001Z</time></trkpt><trkpt lat="43.727235153351515" lon="12.204068608680656"><ele>709.0</ele><time>2026-05-04T10:00:20.001Z</time></trkpt><trkpt lat="43.727187097717426" lon="12.203986793265"><ele>709.0</ele><time>2026-05-04T10:00:28.001Z</time></trkpt><trkpt lat="43.727023414942316" lon="12.203914864499028"><ele>710.5</ele><time>2026-05-04T10:00:30.001Z</time></trkpt><trkpt lat="43.7270138506742" lon="12.203826636466996"><ele>712.0</ele><time>2026-05-04T10:00:32.001Z</time></trkpt><trkpt lat="43.727014713420125" lon="12.203634899044179"><ele>713.5</ele><time>2026-05-04T10:00:42.001Z</time></trkpt><trkpt lat="43.726946102645755" lon="12.203614262020704"><ele>715.0</ele><time>2026-05-04T10:00:47.001Z</time></trkpt><trkpt lat="43.726899175341465" lon="12.203518032449175"><ele>716.5</ele><time>2026-05-04T10:00:49.001Z</time></trkpt><trkpt lat="43.72684784963524" lon="12.203441973247084"><ele>718.0</ele><time>2026-05-04T10:00:51.001Z</time></trkpt><trkpt lat="43.72685959598644" lon="12.20332109152057"><ele>718.0</ele><time>2026-05-04T10:01:01.001Z</time></trkpt><trkpt lat="43.726859944537935" lon="12.203421679050098"><ele>718.0</ele><time>2026-05-04T10:01:25.001Z</time></trkpt><trkpt lat="43.726908518822974" lon="12.203531931079707"><ele>718.0</ele><time>2026-05-04T10:01:28Z</time></trkpt><trkpt lat="43.72695949799871" lon="12.20362134342548"><ele>718.0</ele><time>2026-05-04T10:01:30Z</time></trkpt><trkpt lat="43.72699009867776" lon="12.203741256826982"><ele>718.0</ele><time>2026-05-04T10:01:32Z</time></trkpt><trkpt lat="43.727001489030826" lon="12.203873350159807"><ele>718.0</ele><time>2026-05-04T10:01:34Z</time></trkpt><trkpt lat="43.72699398484315" lon="12.203959985054988"><ele>716.5</ele><time>2026-05-04T10:01:36Z</time></trkpt><trkpt lat="43.727020280959884" lon="12.204084156522715"><ele>715.0</ele><time>2026-05-04T10:01:38Z</time></trkpt><trkpt lat="43.72703083534109" lon="12.204182011636117"><ele>713.5</ele><time>2026-05-04T10:01:39Z</time></trkpt><trkpt lat="43.7270473989748" lon="12.20431989154603"><ele>712.0</ele><time>2026-05-04T10:01:41Z</time></trkpt><trkpt lat="43.727081458490495" lon="12.204399686158858"><ele>710.5</ele><time>2026-05-04T10:01:42Z</time></trkpt><trkpt lat="43.727108823080016" lon="12.204492332848124"><ele>709.0</ele><time>2026-05-04T10:01:43Z</time></trkpt><trkpt lat="43.72713578786198" lon="12.204595248063548"><ele>709.0</ele><time>2026-05-04T10:01:44Z</time></trkpt><trkpt lat="43.72716073964322" lon="12.204704613669277"><ele>709.0</ele><time>2026-05-04T10:01:45Z</time></trkpt><trkpt lat="43.727187148481605" lon="12.204807072110265"><ele>709.0</ele><time>2026-05-04T10:01:46Z</time></trkpt><trkpt lat="43.72721245159793" lon="12.204912947345022"><ele>709.0</ele><time>2026-05-04T10:01:47Z</time></trkpt><trkpt lat="43.72723253970838" lon="12.205001036667417"><ele>709.0</ele><time>2026-05-04T10:01:48Z</time></trkpt><trkpt lat="43.72723085169595" lon="12.205089171649346"><ele>709.0</ele><time>2026-05-04T10:01:49Z</time></trkpt><trkpt lat="43.72720777022872" lon="12.205209903755948"><ele>707.6</ele><time>2026-05-04T10:01:51Z</time></trkpt><trkpt lat="43.727140662673264" lon="12.205252760275433"><ele>706.2</ele><time>2026-05-04T10:01:53Z</time></trkpt><trkpt lat="43.72705164908866" lon="12.205118138887938"><ele>704.8000000000001</ele><time>2026-05-04T10:01:55Z</time></trkpt><trkpt lat="43.726990689692116" lon="12.205020296799097"><ele>703.4000000000001</ele><time>2026-05-04T10:01:56Z</time></trkpt><trkpt lat="43.72692050138129" lon="12.204907763048068"><ele>702.0</ele><time>2026-05-04T10:01:57Z</time></trkpt><trkpt lat="43.72683219811717" lon="12.204796047612781"><ele>698.5</ele><time>2026-05-04T10:01:58Z</time></trkpt><trkpt lat="43.726750017475794" lon="12.204662154938461"><ele>695.0</ele><time>2026-05-04T10:01:59Z</time></trkpt><trkpt lat="43.726664267812744" lon="12.204521856246423"><ele>691.5</ele><time>2026-05-04T10:02:00Z</time></trkpt><trkpt lat="43.726566154168275" lon="12.204371004266543"><ele>688.0</ele><time>2026-05-04T10:02:01Z</time></trkpt><trkpt lat="43.726493788047925" lon="12.204225911027414"><ele>688.0</ele><time>2026-05-04T10:02:02Z</time></trkpt><trkpt lat="43.726407831141834" lon="12.204091907895702"><ele>688.0</ele><time>2026-05-04T10:02:03Z</time></trkpt><trkpt lat="43.726316124052964" lon="12.203974199935747"><ele>688.0</ele><time>2026-05-04T10:02:04Z</time></trkpt><trkpt lat="43.72624694064309" lon="12.203843208804274"><ele>688.0</ele><time>2026-05-04T10:02:05Z</time></trkpt><trkpt lat="43.72616183683487" lon="12.20373637666571"><ele>689.2</ele><time>2026-05-04T10:02:06Z</time></trkpt><trkpt lat="43.72608175455098" lon="12.203636062863161"><ele>690.4</ele><time>2026-05-04T10:02:07Z</time></trkpt><trkpt lat="43.72601577523307" lon="12.203536732537163"><ele>691.6</ele><time>2026-05-04T10:02:08Z</time></trkpt><trkpt lat="43.725963100197724" lon="12.203424275173864"><ele>692.8000000000001</ele><time>2026-05-04T10:02:09Z</time></trkpt><trkpt lat="43.72590385407962" lon="12.203313457860189"><ele>694.0</ele><time>2026-05-04T10:02:10Z</time></trkpt><trkpt lat="43.725835349779885" lon="12.203208699423127"><ele>688.4000000000001</ele><time>2026-05-04T10:02:11Z</time></trkpt><trkpt lat="43.72579078371502" lon="12.203083520915758"><ele>682.8</ele><time>2026-05-04T10:02:12Z</time></trkpt><trkpt lat="43.725768089343255" lon="12.202941514217482"><ele>677.2</ele><time>2026-05-04T10:02:13Z</time></trkpt><trkpt lat="43.725742325716304" lon="12.202788849800768"><ele>671.5999999999999</ele><time>2026-05-04T10:02:14Z</time></trkpt><trkpt lat="43.72569753654457" lon="12.20264264910422"><ele>666.0</ele><time>2026-05-04T10:02:15Z</time></trkpt><trkpt lat="43.72566756183061" lon="12.202494568971701"><ele>666.0</ele><time>2026-05-04T10:02:16Z</time></trkpt><trkpt lat="43.725652586617976" lon="12.202346366673105"><ele>666.0</ele><time>2026-05-04T10:02:17Z</time></trkpt><trkpt lat="43.72563290488031" lon="12.202201444511688"><ele>666.0</ele><time>2026-05-04T10:02:18Z</time></trkpt><trkpt lat="43.72561953021659" lon="12.202049168270877"><ele>666.0</ele><time>2026-05-04T10:02:19Z</time></trkpt><trkpt lat="43.72561780442923" lon="12.201890515885047"><ele>666.0</ele><time>2026-05-04T10:02:20Z</time></trkpt><trkpt lat="43.7256304815011" lon="12.201729356580763"><ele>666.0</ele><time>2026-05-04T10:02:21Z</time></trkpt><trkpt lat="43.72564581019218" lon="12.201556895824277"><ele>666.0</ele><time>2026-05-04T10:02:22Z</time></trkpt><trkpt lat="43.72564156610629" lon="12.201396810718446"><ele>666.0</ele><time>2026-05-04T10:02:23Z</time></trkpt><trkpt lat="43.7256517084309" lon="12.201242797746614"><ele>666.0</ele><time>2026-05-04T10:02:24Z</time></trkpt><trkpt lat="43.725659514293305" lon="12.201093518372257"><ele>665.4</ele><time>2026-05-04T10:02:25Z</time></trkpt><trkpt lat="43.725657806435876" lon="12.200949166067359"><ele>664.8</ele><time>2026-05-04T10:02:26Z</time></trkpt><trkpt lat="43.72564621009916" lon="12.200808355905638"><ele>664.1999999999999</ele><time>2026-05-04T10:02:27Z</time></trkpt><trkpt lat="43.7256117109904" lon="12.20066325479124"><ele>663.5999999999999</ele><time>2026-05-04T10:02:28Z</time></trkpt><trkpt lat="43.7255634163094" lon="12.200515890219858"><ele>663.0</ele><time>2026-05-04T10:02:29Z</time></trkpt><trkpt lat="43.725522714879844" lon="12.200376956130825"><ele>663.0</ele><time>2026-05-04T10:02:30Z</time></trkpt><trkpt lat="43.725490810542794" lon="12.200238868043192"><ele>663.0</ele><time>2026-05-04T10:02:31Z</time></trkpt><trkpt lat="43.72545189358339" lon="12.200106403242323"><ele>663.0</ele><time>2026-05-04T10:02:32Z</time></trkpt><trkpt lat="43.72542260912947" lon="12.199953087508833"><ele>663.0</ele><time>2026-05-04T10:02:33Z</time></trkpt><trkpt lat="43.72539034469197" lon="12.199798676352472"><ele>663.0</ele><time>2026-05-04T10:02:34Z</time></trkpt><trkpt lat="43.72538427172368" lon="12.19963540573298"><ele>661.0</ele><time>2026-05-04T10:02:35Z</time></trkpt><trkpt lat="43.72540541515661" lon="12.199456552006815"><ele>659.0</ele><time>2026-05-04T10:02:36Z</time></trkpt><trkpt lat="43.72539933355914" lon="12.199280415322239"><ele>657.0</ele><time>2026-05-04T10:02:37Z</time></trkpt><trkpt lat="43.725406365859186" lon="12.1990984355441"><ele>655.0</ele><time>2026-05-04T10:02:38Z</time></trkpt><trkpt lat="43.72539336917599" lon="12.198910253903518"><ele>652.75</ele><time>2026-05-04T10:02:39Z</time></trkpt><trkpt lat="43.72537615756415" lon="12.198722240969868"><ele>650.5</ele><time>2026-05-04T10:02:40Z</time></trkpt><trkpt lat="43.72536204252788" lon="12.198547970483679"><ele>648.25</ele><time>2026-05-04T10:02:41Z</time></trkpt><trkpt lat="43.72535540400313" lon="12.198381232410622"><ele>646.0</ele><time>2026-05-04T10:02:42Z</time></trkpt><trkpt lat="43.725328804683706" lon="12.198213223285023"><ele>643.4</ele><time>2026-05-04T10:02:43Z</time></trkpt><trkpt lat="43.72532019561211" lon="12.198056356875657"><ele>640.8</ele><time>2026-05-04T10:02:44Z</time></trkpt><trkpt lat="43.7253403878862" lon="12.197908138192675"><ele>638.1999999999999</ele><time>2026-05-04T10:02:45Z</time></trkpt><trkpt lat="43.72535207963273" lon="12.19778273943273"><ele>635.5999999999999</ele><time>2026-05-04T10:02:46Z</time></trkpt><trkpt lat="43.725357242789535" lon="12.197681988850386"><ele>633.0</ele><time>2026-05-04T10:02:47Z</time></trkpt><trkpt lat="43.72534145879912" lon="12.197558555267666"><ele>633.0</ele><time>2026-05-04T10:02:49Z</time></trkpt><trkpt lat="43.72526686974085" lon="12.197486004750674"><ele>633.0</ele><time>2026-05-04T10:02:51Z</time></trkpt><trkpt lat="43.725216774613635" lon="12.197381086429967"><ele>633.0</ele><time>2026-05-04T10:02:53Z</time></trkpt><trkpt lat="43.72519297713375" lon="12.197220171877388"><ele>633.0</ele><time>2026-05-04T10:02:55Z</time></trkpt><trkpt lat="43.72519025193057" lon="12.197130059004289"><ele>633.0</ele><time>2026-05-04T10:02:56Z</time></trkpt><trkpt lat="43.72518415244676" lon="12.197029993420708"><ele>633.0</ele><time>2026-05-04T10:02:57Z</time></trkpt><trkpt lat="43.725174565086334" lon="12.1969349933353"><ele>626.6</ele><time>2026-05-04T10:02:58Z</time></trkpt><trkpt lat="43.72516786890132" lon="12.19684068204631"><ele>620.1999999999999</ele><time>2026-05-04T10:02:59Z</time></trkpt><trkpt lat="43.7251574213354" lon="12.196670852408342"><ele>613.8</ele><time>2026-05-04T10:03:01Z</time></trkpt><trkpt lat="43.7251525990754" lon="12.196580733607698"><ele>607.4</ele><time>2026-05-04T10:03:02Z</time></trkpt><trkpt lat="43.7251231963739" lon="12.196422205427428"><ele>601.0</ele><time>2026-05-04T10:03:04Z</time></trkpt><trkpt lat="43.7251244286827" lon="12.196311594429046"><ele>599.1428571428571</ele><time>2026-05-04T10:03:06Z</time></trkpt><trkpt lat="43.725128581105956" lon="12.196223534004517"><ele>597.2857142857143</ele><time>2026-05-04T10:03:08Z</time></trkpt><trkpt lat="43.725167702122846" lon="12.196142555489166"><ele>595.4285714285714</ele><time>2026-05-04T10:03:18Z</time></trkpt><trkpt lat="43.72524323808408" lon="12.196107294688442"><ele>593.5714285714286</ele><time>2026-05-04T10:03:22.001Z</time></trkpt><trkpt lat="43.725310391417935" lon="12.196168062093996"><ele>591.7142857142858</ele><time>2026-05-04T10:03:39Z</time></trkpt><trkpt lat="43.72537134808775" lon="12.196200923467954"><ele>589.8571428571429</ele><time>2026-05-04T10:03:40Z</time></trkpt><trkpt lat="43.72544262740868" lon="12.196234414258411"><ele>588.0</ele><time>2026-05-04T10:03:41Z</time></trkpt><trkpt lat="43.72553646883688" lon="12.196249284351508"><ele>586.75</ele><time>2026-05-04T10:03:42Z</time></trkpt><trkpt lat="43.725647322531906" lon="12.196276668059067"><ele>585.5</ele><time>2026-05-04T10:03:43Z</time></trkpt><trkpt lat="43.7257530785813" lon="12.196313089505567"><ele>584.25</ele><time>2026-05-04T10:03:44Z</time></trkpt><trkpt lat="43.72586836928156" lon="12.196350412573365"><ele>583.0</ele><time>2026-05-04T10:03:45Z</time></trkpt><trkpt lat="43.72597843183866" lon="12.196365338711528"><ele>580.0</ele><time>2026-05-04T10:03:46Z</time></trkpt><trkpt lat="43.72609166747905" lon="12.196391913869881"><ele>577.0</ele><time>2026-05-04T10:03:47Z</time></trkpt><trkpt lat="43.72620874741662" lon="12.196405737986751"><ele>574.0</ele><time>2026-05-04T10:03:48Z</time></trkpt><trkpt lat="43.726329738909065" lon="12.196403611063653"><ele>571.0</ele><time>2026-05-04T10:03:49Z</time></trkpt><trkpt lat="43.72644557350145" lon="12.196443863729353"><ele>571.0</ele><time>2026-05-04T10:03:50Z</time></trkpt><trkpt lat="43.72656994611391" lon="12.196470382708794"><ele>571.0</ele><time>2026-05-04T10:03:51Z</time></trkpt><trkpt lat="43.72669404856751" lon="12.196500036191011"><ele>571.0</ele><time>2026-05-04T10:03:52Z</time></trkpt><trkpt lat="43.726816302858154" lon="12.196536597934283"><ele>571.0</ele><time>2026-05-04T10:03:53Z</time></trkpt><trkpt lat="43.726947026571956" lon="12.196558385172706"><ele>571.5</ele><time>2026-05-04T10:03:54Z</time></trkpt><trkpt lat="43.72707308050866" lon="12.196615685487284"><ele>572.0</ele><time>2026-05-04T10:03:55Z</time></trkpt><trkpt lat="43.72720860696067" lon="12.196673480282275"><ele>572.5</ele><time>2026-05-04T10:03:56Z</time></trkpt><trkpt lat="43.72734316516042" lon="12.196727773020644"><ele>573.0</ele><time>2026-05-04T10:03:57Z</time></trkpt><trkpt lat="43.72746379579907" lon="12.196800316273814"><ele>573.0</ele><time>2026-05-04T10:03:58Z</time></trkpt><trkpt lat="43.72758068663217" lon="12.196829573232963"><ele>573.0</ele><time>2026-05-04T10:03:59Z</time></trkpt><trkpt lat="43.72766889966235" lon="12.196868775038668"><ele>573.0</ele><time>2026-05-04T10:04:00Z</time></trkpt><trkpt lat="43.72774799124835" lon="12.196901183088997"><ele>573.0</ele><time>2026-05-04T10:04:01Z</time></trkpt><trkpt lat="43.727811134481904" lon="12.196919957850993"><ele>573.0</ele><time>2026-05-04T10:04:02Z</time></trkpt><trkpt lat="43.72791998019453" lon="12.19684933737184"><ele>570.4</ele><time>2026-05-04T10:04:04Z</time></trkpt><trkpt lat="43.727948351356915" lon="12.196657634966277"><ele>567.8</ele><time>2026-05-04T10:04:06Z</time></trkpt><trkpt lat="43.72787251814326" lon="12.196575979092989"><ele>565.2</ele><time>2026-05-04T10:04:07Z</time></trkpt><trkpt lat="43.727806300712246" lon="12.196514862123749"><ele>562.6</ele><time>2026-05-04T10:04:08Z</time></trkpt><trkpt lat="43.727745982463915" lon="12.196432529238894"><ele>560.0</ele><time>2026-05-04T10:04:09Z</time></trkpt><trkpt lat="43.7276698172702" lon="12.196362224815086"><ele>559.2</ele><time>2026-05-04T10:04:10Z</time></trkpt><trkpt lat="43.72759131454885" lon="12.196292887136364"><ele>558.4</ele><time>2026-05-04T10:04:11Z</time></trkpt><trkpt lat="43.727512856894" lon="12.196225525827195"><ele>557.6</ele><time>2026-05-04T10:04:12Z</time></trkpt><trkpt lat="43.727432931416054" lon="12.196184701046667"><ele>556.8</ele><time>2026-05-04T10:04:13Z</time></trkpt><trkpt lat="43.72736553523359" lon="12.196120686836297"><ele>556.0</ele><time>2026-05-04T10:04:14Z</time></trkpt><trkpt lat="43.727288392471046" lon="12.196024300662344"><ele>556.0</ele><time>2026-05-04T10:04:16Z</time></trkpt><trkpt lat="43.72722109268349" lon="12.19589601148709"><ele>556.0</ele><time>2026-05-04T10:04:19Z</time></trkpt><trkpt lat="43.727102260605925" lon="12.195813606101618"><ele>556.0</ele><time>2026-05-04T10:04:21Z</time></trkpt><trkpt lat="43.72703678005135" lon="12.195786161093238"><ele>556.0</ele><time>2026-05-04T10:04:22Z</time></trkpt><trkpt lat="43.726916323614596" lon="12.19571723206609"><ele>556.0</ele><time>2026-05-04T10:04:24Z</time></trkpt><trkpt lat="43.72684493423235" lon="12.195676816261557"><ele>558.4</ele><time>2026-05-04T10:04:25Z</time></trkpt><trkpt lat="43.726765938451145" lon="12.195635620784136"><ele>560.8</ele><time>2026-05-04T10:04:26Z</time></trkpt><trkpt lat="43.726681287118" lon="12.195592377577459"><ele>563.1999999999999</ele><time>2026-05-04T10:04:27Z</time></trkpt><trkpt lat="43.72659341635427" lon="12.195547280464975"><ele>565.6</ele><time>2026-05-04T10:04:28Z</time></trkpt><trkpt lat="43.726494707483326" lon="12.195501121512264"><ele>568.0</ele><time>2026-05-04T10:04:29Z</time></trkpt><trkpt lat="43.72638984742723" lon="12.195442269365902"><ele>568.0</ele><time>2026-05-04T10:04:30Z</time></trkpt><trkpt lat="43.72627787952241" lon="12.195379272101027"><ele>568.0</ele><time>2026-05-04T10:04:31Z</time></trkpt><trkpt lat="43.72616817644829" lon="12.195296969892917"><ele>568.0</ele><time>2026-05-04T10:04:32Z</time></trkpt><trkpt lat="43.72605977361491" lon="12.195265381632574"><ele>568.0</ele><time>2026-05-04T10:04:33Z</time></trkpt><trkpt lat="43.72594653945742" lon="12.195187560917253"><ele>568.0</ele><time>2026-05-04T10:04:34Z</time></trkpt><trkpt lat="43.725839223977495" lon="12.19509325764301"><ele>568.0</ele><time>2026-05-04T10:04:35Z</time></trkpt><trkpt lat="43.72575449984323" lon="12.194960616638824"><ele>568.0</ele><time>2026-05-04T10:04:36Z</time></trkpt><trkpt lat="43.72565804192975" lon="12.194808126037602"><ele>568.0</ele><time>2026-05-04T10:04:37Z</time></trkpt><trkpt lat="43.72558167124844" lon="12.194667145042292"><ele>566.0</ele><time>2026-05-04T10:04:38Z</time></trkpt><trkpt lat="43.725494986757425" lon="12.19452720616317"><ele>564.0</ele><time>2026-05-04T10:04:39Z</time></trkpt><trkpt lat="43.7254218825289" lon="12.194364722534255"><ele>562.0</ele><time>2026-05-04T10:04:40Z</time></trkpt><trkpt lat="43.725358894620044" lon="12.194212115627485"><ele>560.0</ele><time>2026-05-04T10:04:41Z</time></trkpt><trkpt lat="43.72528998471706" lon="12.194077222661123"><ele>553.8</ele><time>2026-05-04T10:04:42Z</time></trkpt><trkpt lat="43.72522010936303" lon="12.193953268324961"><ele>547.6</ele><time>2026-05-04T10:04:43Z</time></trkpt><trkpt lat="43.72512826289867" lon="12.193885285176636"><ele>541.4</ele><time>2026-05-04T10:04:44Z</time></trkpt><trkpt lat="43.72502704097685" lon="12.19385726876896"><ele>535.2</ele><time>2026-05-04T10:04:45Z</time></trkpt><trkpt lat="43.724924220792325" lon="12.193890266965612"><ele>529.0</ele><time>2026-05-04T10:04:46Z</time></trkpt><trkpt lat="43.72483352126472" lon="12.193976186074467"><ele>535.5</ele><time>2026-05-04T10:04:47Z</time></trkpt><trkpt lat="43.724760541036446" lon="12.194115831853075"><ele>542.0</ele><time>2026-05-04T10:04:48Z</time></trkpt><trkpt lat="43.724715390653984" lon="12.194268379538219"><ele>548.5</ele><time>2026-05-04T10:04:49Z</time></trkpt><trkpt lat="43.72466173092455" lon="12.194418411988288"><ele>555.0</ele><time>2026-05-04T10:04:50Z</time></trkpt><trkpt lat="43.72458486544362" lon="12.194550031196698"><ele>555.0</ele><time>2026-05-04T10:04:51Z</time></trkpt><trkpt lat="43.7244744064697" lon="12.194633367092319"><ele>555.0</ele><time>2026-05-04T10:04:52Z</time></trkpt><trkpt lat="43.72436125073263" lon="12.194707182052312"><ele>555.0</ele><time>2026-05-04T10:04:53Z</time></trkpt><trkpt lat="43.72423666528065" lon="12.194761881209562"><ele>555.0</ele><time>2026-05-04T10:04:54Z</time></trkpt><trkpt lat="43.7241048126214" lon="12.194810398778122"><ele>555.75</ele><time>2026-05-04T10:04:55Z</time></trkpt><trkpt lat="43.72396976138232" lon="12.19486186672446"><ele>556.5</ele><time>2026-05-04T10:04:56Z</time></trkpt><trkpt lat="43.72382761758457" lon="12.194911980429373"><ele>557.25</ele><time>2026-05-04T10:04:57Z</time></trkpt><trkpt lat="43.72369361218864" lon="12.194952176552277"><ele>558.0</ele><time>2026-05-04T10:04:58Z</time></trkpt><trkpt lat="43.72356285130587" lon="12.194960841300505"><ele>555.75</ele><time>2026-05-04T10:04:59Z</time></trkpt><trkpt lat="43.72343248810861" lon="12.194944979157095"><ele>553.5</ele><time>2026-05-04T10:05:00Z</time></trkpt><trkpt lat="43.72330362707315" lon="12.19489934429228"><ele>551.25</ele><time>2026-05-04T10:05:01Z</time></trkpt><trkpt lat="43.72317181717048" lon="12.19485384078715"><ele>549.0</ele><time>2026-05-04T10:05:02Z</time></trkpt><trkpt lat="43.72303755976543" lon="12.194822208008434"><ele>549.25</ele><time>2026-05-04T10:05:03Z</time></trkpt><trkpt lat="43.722907532891924" lon="12.194774638728687"><ele>549.5</ele><time>2026-05-04T10:05:04Z</time></trkpt><trkpt lat="43.72278612531694" lon="12.194731190922775"><ele>549.75</ele><time>2026-05-04T10:05:05Z</time></trkpt><trkpt lat="43.72267901170985" lon="12.194681053251267"><ele>550.0</ele><time>2026-05-04T10:05:06Z</time></trkpt><trkpt lat="43.72259199668529" lon="12.194579233137944"><ele>550.0</ele><time>2026-05-04T10:05:07Z</time></trkpt><trkpt lat="43.72253496596962" lon="12.19446896811404"><ele>550.0</ele><time>2026-05-04T10:05:08Z</time></trkpt><trkpt lat="43.722464918455316" lon="12.194360918447128"><ele>550.0</ele><time>2026-05-04T10:05:09Z</time></trkpt><trkpt lat="43.72239579841702" lon="12.194254891423672"><ele>550.0</ele><time>2026-05-04T10:05:10Z</time></trkpt><trkpt lat="43.722325734068185" lon="12.194178960971108"><ele>550.0</ele><time>2026-05-04T10:05:11Z</time></trkpt><trkpt lat="43.72226799822273" lon="12.194110294559675"><ele>550.0</ele><time>2026-05-04T10:05:12Z</time></trkpt><trkpt lat="43.722205940567974" lon="12.194048596792669"><ele>550.0</ele><time>2026-05-04T10:05:14Z</time></trkpt><trkpt lat="43.722190244036824" lon="12.193957020684708"><ele>550.0</ele><time>2026-05-04T10:07:32Z</time></trkpt><trkpt lat="43.722160319814606" lon="12.193877496774892"><ele>550.0</ele><time>2026-05-04T10:07:34Z</time></trkpt><trkpt lat="43.7221095557629" lon="12.19378122317883"><ele>550.0</ele><time>2026-05-04T10:07:35.999Z</time></trkpt><trkpt lat="43.72204483586077" lon="12.193621935378081"><ele>550.0</ele><time>2026-05-04T10:07:37.999Z</time></trkpt><trkpt lat="43.72200949582243" lon="12.193527316753212"><ele>549.2857142857143</ele><time>2026-05-04T10:07:38.999Z</time></trkpt><trkpt lat="43.722000961785525" lon="12.193429234612243"><ele>548.5714285714286</ele><time>2026-05-04T10:07:39.999Z</time></trkpt><trkpt lat="43.721974828357084" lon="12.19334088061573"><ele>547.8571428571429</ele><time>2026-05-04T10:07:40.999Z</time></trkpt><trkpt lat="43.721973981395244" lon="12.193247136350893"><ele>547.1428571428571</ele><time>2026-05-04T10:07:41.999Z</time></trkpt><trkpt lat="43.721977929834644" lon="12.193153706424718"><ele>546.4285714285714</ele><time>2026-05-04T10:07:42.999Z</time></trkpt><trkpt lat="43.72199890362482" lon="12.193061388141633"><ele>545.7142857142858</ele><time>2026-05-04T10:07:43.999Z</time></trkpt><trkpt lat="43.72203405033214" lon="12.192981417961665"><ele>545.0</ele><time>2026-05-04T10:07:44.999Z</time></trkpt><trkpt lat="43.72208175218801" lon="12.192907346335893"><ele>544.3333333333333</ele><time>2026-05-04T10:07:45.999Z</time></trkpt><trkpt lat="43.72214860315702" lon="12.192849783597483"><ele>543.6666666666666</ele><time>2026-05-04T10:07:46.999Z</time></trkpt><trkpt lat="43.72221436172801" lon="12.192806080029971"><ele>543.0</ele><time>2026-05-04T10:07:47.999Z</time></trkpt><trkpt lat="43.72228903045703" lon="12.192787668041738"><ele>542.3333333333334</ele><time>2026-05-04T10:07:48.999Z</time></trkpt><trkpt lat="43.72237212142752" lon="12.192782457211838"><ele>541.6666666666667</ele><time>2026-05-04T10:07:49.999Z</time></trkpt><trkpt lat="43.722450163553006" lon="12.19278643295126"><ele>541.0</ele><time>2026-05-04T10:07:50.999Z</time></trkpt><trkpt lat="43.722519439246526" lon="12.192760377064594"><ele>541.0</ele><time>2026-05-04T10:07:51.999Z</time></trkpt><trkpt lat="43.722580951901975" lon="12.192736292413441"><ele>541.0</ele><time>2026-05-04T10:07:52.999Z</time></trkpt><trkpt lat="43.72270336027274" lon="12.192740731512014"><ele>541.0</ele><time>2026-05-04T10:07:54.999Z</time></trkpt><trkpt lat="43.7227719455788" lon="12.192713474113736"><ele>541.0</ele><time>2026-05-04T10:07:55.999Z</time></trkpt><trkpt lat="43.72284154005213" lon="12.192719093327623"><ele>541.0</ele><time>2026-05-04T10:07:56.999Z</time></trkpt><trkpt lat="43.722915617324766" lon="12.192691775038355"><ele>541.0</ele><time>2026-05-04T10:07:57.999Z</time></trkpt><trkpt lat="43.72297163694998" lon="12.192636262281535"><ele>539.6</ele><time>2026-05-04T10:07:58.999Z</time></trkpt><trkpt lat="43.72308487358301" lon="12.192546596348713"><ele>538.2</ele><time>2026-05-04T10:08:00.999Z</time></trkpt><trkpt lat="43.723162786804295" lon="12.192511586953824"><ele>536.8</ele><time>2026-05-04T10:08:01.999Z</time></trkpt><trkpt lat="43.72324502816475" lon="12.192460717418294"><ele>535.4</ele><time>2026-05-04T10:08:02.999Z</time></trkpt><trkpt lat="43.72331901224038" lon="12.19240705053915"><ele>534.0</ele><time>2026-05-04T10:08:03.999Z</time></trkpt><trkpt lat="43.72341132055629" lon="12.192355559067598"><ele>532.5</ele><time>2026-05-04T10:08:04.999Z</time></trkpt><trkpt lat="43.72348094951217" lon="12.192316334741863"><ele>531.0</ele><time>2026-05-04T10:08:05.999Z</time></trkpt><trkpt lat="43.72354907396477" lon="12.19229194322426"><ele>529.5</ele><time>2026-05-04T10:08:06.999Z</time></trkpt><trkpt lat="43.7236250613958" lon="12.192259070961379"><ele>528.0</ele><time>2026-05-04T10:08:08Z</time></trkpt><trkpt lat="43.723704648641274" lon="12.192249896778534"><ele>526.5</ele><time>2026-05-04T10:08:09Z</time></trkpt><trkpt lat="43.723778140326274" lon="12.192223930097573"><ele>525.0</ele><time>2026-05-04T10:08:10Z</time></trkpt><trkpt lat="43.72388246403109" lon="12.192188332372599"><ele>523.0</ele><time>2026-05-04T10:08:12Z</time></trkpt><trkpt lat="43.72401039422639" lon="12.19213780753259"><ele>521.0</ele><time>2026-05-04T10:08:14Z</time></trkpt><trkpt lat="43.724074863808404" lon="12.192102567934016"><ele>519.0</ele><time>2026-05-04T10:08:15Z</time></trkpt><trkpt lat="43.724135189983386" lon="12.192069593270976"><ele>517.0</ele><time>2026-05-04T10:08:16Z</time></trkpt><trkpt lat="43.72420303857755" lon="12.192024150085544"><ele>515.0</ele><time>2026-05-04T10:08:17Z</time></trkpt><trkpt lat="43.72429264431328" lon="12.192059369924031"><ele>513.0</ele><time>2026-05-04T10:08:18Z</time></trkpt><trkpt lat="43.72436574444581" lon="12.192056748994347"><ele>512.1666666666666</ele><time>2026-05-04T10:08:19Z</time></trkpt><trkpt lat="43.72444207791043" lon="12.192090224352013"><ele>511.33333333333337</ele><time>2026-05-04T10:08:20Z</time></trkpt><trkpt lat="43.7245204174551" lon="12.192127691606952"><ele>510.5</ele><time>2026-05-04T10:08:21Z</time></trkpt><trkpt lat="43.724579331873386" lon="12.192162711857"><ele>509.6666666666667</ele><time>2026-05-04T10:08:22Z</time></trkpt><trkpt lat="43.724632784743434" lon="12.1922162944148"><ele>508.83333333333337</ele><time>2026-05-04T10:08:23Z</time></trkpt><trkpt lat="43.72470005015073" lon="12.192363451531477"><ele>508.0</ele><time>2026-05-04T10:08:25Z</time></trkpt><trkpt lat="43.724723382848474" lon="12.192462812071966"><ele>508.00000000000006</ele><time>2026-05-04T10:08:26Z</time></trkpt><trkpt lat="43.72475248862216" lon="12.192574576104619"><ele>508.0</ele><time>2026-05-04T10:08:27Z</time></trkpt><trkpt lat="43.724771825679376" lon="12.192669427427388"><ele>508.0</ele><time>2026-05-04T10:08:28Z</time></trkpt><trkpt lat="43.72481348212653" lon="12.192797154621879"><ele>508.0</ele><time>2026-05-04T10:08:30Z</time></trkpt><trkpt lat="43.724903879350755" lon="12.192880281793052"><ele>508.00000000000006</ele><time>2026-05-04T10:08:32Z</time></trkpt><trkpt lat="43.724981981525666" lon="12.192874810989258"><ele>508.0</ele><time>2026-05-04T10:08:33Z</time></trkpt><trkpt lat="43.72506716939184" lon="12.192856322070524"><ele>508.00000000000006</ele><time>2026-05-04T10:08:34Z</time></trkpt><trkpt lat="43.725151467817454" lon="12.192859853401115"><ele>508.0</ele><time>2026-05-04T10:08:35Z</time></trkpt><trkpt lat="43.725233100559265" lon="12.192847621979777"><ele>508.0</ele><time>2026-05-04T10:08:36Z</time></trkpt><trkpt lat="43.725309591628175" lon="12.192865992434365"><ele>508.0</ele><time>2026-05-04T10:08:37Z</time></trkpt><trkpt lat="43.725386906158626" lon="12.192867457063784"><ele>508.00000000000006</ele><time>2026-05-04T10:08:38Z</time></trkpt><trkpt lat="43.72545974342789" lon="12.192863353509672"><ele>508.0</ele><time>2026-05-04T10:08:39Z</time></trkpt><trkpt lat="43.72553803726303" lon="12.192830429808907"><ele>507.0</ele><time>2026-05-04T10:08:40Z</time></trkpt><trkpt lat="43.72559967432921" lon="12.192746539176875"><ele>505.99999999999994</ele><time>2026-05-04T10:08:41Z</time></trkpt><trkpt lat="43.72566509670207" lon="12.192728632713896"><ele>504.99999999999994</ele><time>2026-05-04T10:08:42Z</time></trkpt><trkpt lat="43.72576561166715" lon="12.192614622637814"><ele>504.0</ele><time>2026-05-04T10:08:44Z</time></trkpt><trkpt lat="43.72576615095347" lon="12.19250836870872"><ele>503.0</ele><time>2026-05-04T10:08:45Z</time></trkpt><trkpt lat="43.72574367561142" lon="12.192332685271017"><ele>502.3333333333333</ele><time>2026-05-04T10:08:47Z</time></trkpt><trkpt lat="43.72572053604013" lon="12.192224995218863"><ele>501.66666666666663</ele><time>2026-05-04T10:08:48Z</time></trkpt><trkpt lat="43.725687730298" lon="12.192143447741635"><ele>501.0</ele><time>2026-05-04T10:08:49Z</time></trkpt><trkpt lat="43.72564152726374" lon="12.192053733508468"><ele>500.33333333333337</ele><time>2026-05-04T10:08:50Z</time></trkpt><trkpt lat="43.72559582616507" lon="12.19196772059361"><ele>499.6666666666667</ele><time>2026-05-04T10:08:51Z</time></trkpt><trkpt lat="43.725550551325384" lon="12.191892195911896"><ele>499.0</ele><time>2026-05-04T10:08:52Z</time></trkpt><trkpt lat="43.72550129976161" lon="12.19175748954849"><ele>499.0</ele><time>2026-05-04T10:08:54Z</time></trkpt><trkpt lat="43.7255093647099" lon="12.191657060978185"><ele>499.0</ele><time>2026-05-04T10:08:56Z</time></trkpt><trkpt lat="43.725578444689646" lon="12.191539716211837"><ele>499.0</ele><time>2026-05-04T10:08:58Z</time></trkpt><trkpt lat="43.72565055278552" lon="12.191433912337539"><ele>499.0</ele><time>2026-05-04T10:09:00Z</time></trkpt><trkpt lat="43.725700532254784" lon="12.191332763197815"><ele>499.0</ele><time>2026-05-04T10:09:02Z</time></trkpt><trkpt lat="43.725753554800185" lon="12.191259653199541"><ele>502.33333333333337</ele><time>2026-05-04T10:09:05Z</time></trkpt><trkpt lat="43.72552890788746" lon="12.191026059000004"><ele>505.66666666666663</ele><time>2026-05-04T10:10:19Z</time></trkpt><trkpt lat="43.725469943526214" lon="12.19099061910272"><ele>509.0</ele><time>2026-05-04T10:10:20Z</time></trkpt><trkpt lat="43.72535797031518" lon="12.190926597088469"><ele>509.0</ele><time>2026-05-04T10:10:22Z</time></trkpt><trkpt lat="43.72526471793265" lon="12.190875232155767"><ele>509.0</ele><time>2026-05-04T10:10:24Z</time></trkpt><trkpt lat="43.72514004547031" lon="12.190811493210987"><ele>509.0</ele><time>2026-05-04T10:10:26Z</time></trkpt><trkpt lat="43.725074615634966" lon="12.190782635232859"><ele>509.0</ele><time>2026-05-04T10:10:27Z</time></trkpt><trkpt lat="43.72500981739774" lon="12.190751577171037"><ele>509.0</ele><time>2026-05-04T10:10:28Z</time></trkpt><trkpt lat="43.72492615459239" lon="12.19071816974079"><ele>510.79999999999995</ele><time>2026-05-04T10:10:29Z</time></trkpt><trkpt lat="43.72481220220862" lon="12.19066401810803"><ele>512.5999999999999</ele><time>2026-05-04T10:10:31Z</time></trkpt><trkpt lat="43.7247185101219" lon="12.19054357387089"><ele>514.4</ele><time>2026-05-04T10:10:33Z</time></trkpt><trkpt lat="43.72466098073957" lon="12.190477402919267"><ele>516.1999999999999</ele><time>2026-05-04T10:10:34Z</time></trkpt><trkpt lat="43.724613253720506" lon="12.190420365006707"><ele>518.0</ele><time>2026-05-04T10:10:35Z</time></trkpt><trkpt lat="43.72456301046849" lon="12.190334655811986"><ele>518.0</ele><time>2026-05-04T10:10:37Z</time></trkpt><trkpt lat="43.72455656270925" lon="12.190247586727475"><ele>518.0</ele><time>2026-05-04T10:10:40.001Z</time></trkpt><trkpt lat="43.72456366066733" lon="12.190051267374844"><ele>518.0</ele><time>2026-05-04T10:10:42.001Z</time></trkpt><trkpt lat="43.72456426457658" lon="12.189958620415949"><ele>518.0</ele><time>2026-05-04T10:10:43.001Z</time></trkpt><trkpt lat="43.72457785591723" lon="12.18981434885364"><ele>518.0</ele><time>2026-05-04T10:10:45.001Z</time></trkpt><trkpt lat="43.72458269405141" lon="12.189641788676813"><ele>519.6</ele><time>2026-05-04T10:10:47.001Z</time></trkpt><trkpt lat="43.724563406438705" lon="12.189536948216745"><ele>521.1999999999999</ele><time>2026-05-04T10:10:48.001Z</time></trkpt><trkpt lat="43.724502605681174" lon="12.189430511933194"><ele>522.8</ele><time>2026-05-04T10:10:50.001Z</time></trkpt><trkpt lat="43.72440907531661" lon="12.189402947525133"><ele>524.4</ele><time>2026-05-04T10:10:52.001Z</time></trkpt><trkpt lat="43.72429278868692" lon="12.189419369483291"><ele>526.0</ele><time>2026-05-04T10:10:54.001Z</time></trkpt><trkpt lat="43.72422789785984" lon="12.189366672120816"><ele>526.0</ele><time>2026-05-04T10:11:00.001Z</time></trkpt><trkpt lat="43.724155373045534" lon="12.189319301132272"><ele>526.0</ele><time>2026-05-04T10:11:02.001Z</time></trkpt><trkpt lat="43.724107516286864" lon="12.189257628396097"><ele>526.0</ele><time>2026-05-04T10:11:04.001Z</time></trkpt><trkpt lat="43.72408080926912" lon="12.189161858743647"><ele>526.0</ele><time>2026-05-04T10:11:06.001Z</time></trkpt><trkpt lat="43.7240546808623" lon="12.18907410617878"><ele>526.0</ele><time>2026-05-04T10:11:07.001Z</time></trkpt><trkpt lat="43.724026976033194" lon="12.188980503338922"><ele>526.0</ele><time>2026-05-04T10:11:08.001Z</time></trkpt><trkpt lat="43.723973217248286" lon="12.188859093488102"><ele>530.1666666666667</ele><time>2026-05-04T10:11:10.001Z</time></trkpt><trkpt lat="43.72391541307635" lon="12.188770732859155"><ele>534.3333333333334</ele><time>2026-05-04T10:11:12.001Z</time></trkpt><trkpt lat="43.723845188409975" lon="12.18868389408483"><ele>538.5</ele><time>2026-05-04T10:11:14.001Z</time></trkpt><trkpt lat="43.723748348334524" lon="12.188617714051666"><ele>542.6666666666666</ele><time>2026-05-04T10:11:16.001Z</time></trkpt><trkpt lat="43.72370595057893" lon="12.188537505923218"><ele>546.8333333333333</ele><time>2026-05-04T10:11:18.001Z</time></trkpt><trkpt lat="43.72368752222362" lon="12.188431928669267"><ele>551.0</ele><time>2026-05-04T10:11:20.001Z</time></trkpt><trkpt lat="43.72365459908785" lon="12.188335049847092"><ele>551.0</ele><time>2026-05-04T10:11:21.001Z</time></trkpt><trkpt lat="43.72356517891841" lon="12.188200805056333"><ele>551.0</ele><time>2026-05-04T10:11:23.001Z</time></trkpt><trkpt lat="43.72353588811369" lon="12.188099185543988"><ele>551.0</ele><time>2026-05-04T10:11:25.001Z</time></trkpt><trkpt lat="43.723527862586984" lon="12.187951905157805"><ele>551.0</ele><time>2026-05-04T10:11:27.001Z</time></trkpt><trkpt lat="43.72347868843268" lon="12.187893444351497"><ele>551.0</ele><time>2026-05-04T10:11:29.001Z</time></trkpt><trkpt lat="43.72338910409159" lon="12.18795491833381"><ele>553.0</ele><time>2026-05-04T10:11:32.001Z</time></trkpt><trkpt lat="43.72333131664674" lon="12.188008097120438"><ele>555.0</ele><time>2026-05-04T10:11:34.001Z</time></trkpt><trkpt lat="43.723257283028" lon="12.18802410858681"><ele>557.0</ele><time>2026-05-04T10:11:36.001Z</time></trkpt><trkpt lat="43.72314621968719" lon="12.187993854008083"><ele>559.0</ele><time>2026-05-04T10:11:38.001Z</time></trkpt><trkpt lat="43.72302468155053" lon="12.188027555297705"><ele>561.0</ele><time>2026-05-04T10:11:40.001Z</time></trkpt><trkpt lat="43.722957258798445" lon="12.188058923267915"><ele>561.0</ele><time>2026-05-04T10:11:41.001Z</time></trkpt><trkpt lat="43.722874396203814" lon="12.188120565829735"><ele>561.0</ele><time>2026-05-04T10:11:43.001Z</time></trkpt><trkpt lat="43.72279856185472" lon="12.188141213424094"><ele>561.0</ele><time>2026-05-04T10:11:47.001Z</time></trkpt><trkpt lat="43.72271983083294" lon="12.188190689880516"><ele>561.0</ele><time>2026-05-04T10:11:49Z</time></trkpt><trkpt lat="43.72265455472721" lon="12.188195009974145"><ele>561.0</ele><time>2026-05-04T10:11:53Z</time></trkpt><trkpt lat="43.722591096729815" lon="12.18818161790859"><ele>561.0</ele><time>2026-05-04T10:11:57Z</time></trkpt><trkpt lat="43.722548621798836" lon="12.188291386524492"><ele>559.3333333333334</ele><time>2026-05-04T10:12:02Z</time></trkpt><trkpt lat="43.72248799528564" lon="12.188336523418402"><ele>557.6666666666666</ele><time>2026-05-04T10:12:12Z</time></trkpt><trkpt lat="43.722424040643155" lon="12.188292295337229"><ele>556.0</ele><time>2026-05-04T10:12:15Z</time></trkpt><trkpt lat="43.722380779103865" lon="12.188372105664998"><ele>554.3333333333333</ele><time>2026-05-04T10:12:41Z</time></trkpt><trkpt lat="43.72236467761492" lon="12.188525159899589"><ele>552.6666666666666</ele><time>2026-05-04T10:12:43Z</time></trkpt><trkpt lat="43.722312747563315" lon="12.18860389309931"><ele>551.0</ele><time>2026-05-04T10:12:46Z</time></trkpt><trkpt lat="43.72227323557461" lon="12.188720404285553"><ele>551.0</ele><time>2026-05-04T10:12:48Z</time></trkpt><trkpt lat="43.722214567890994" lon="12.188801049308069"><ele>551.0</ele><time>2026-05-04T10:12:52Z</time></trkpt><trkpt lat="43.72216123060118" lon="12.18885729280304"><ele>551.0</ele><time>2026-05-04T10:12:58.001Z</time></trkpt><trkpt lat="43.72211572038274" lon="12.188942615208013"><ele>551.0</ele><time>2026-05-04T10:13:04.001Z</time></trkpt><trkpt lat="43.72202430661596" lon="12.188909022163344"><ele>551.0</ele><time>2026-05-04T10:13:08.001Z</time></trkpt><trkpt lat="43.721956119494294" lon="12.188900021813945"><ele>551.0</ele><time>2026-05-04T10:13:23.001Z</time></trkpt><trkpt lat="43.72188837142843" lon="12.188892745215353"><ele>557.4</ele><time>2026-05-04T10:13:25.001Z</time></trkpt><trkpt lat="43.721784489646836" lon="12.188832590227435"><ele>563.8</ele><time>2026-05-04T10:13:27.001Z</time></trkpt><trkpt lat="43.72166709635546" lon="12.188864793375922"><ele>570.1999999999999</ele><time>2026-05-04T10:13:29.001Z</time></trkpt><trkpt lat="43.72157643889631" lon="12.18889090474397"><ele>576.6</ele><time>2026-05-04T10:13:31.001Z</time></trkpt><trkpt lat="43.72147016623011" lon="12.188839402557258"><ele>583.0</ele><time>2026-05-04T10:13:33.001Z</time></trkpt><trkpt lat="43.72140933690478" lon="12.188801724883584"><ele>583.0</ele><time>2026-05-04T10:13:34.001Z</time></trkpt><trkpt lat="43.721286414661876" lon="12.188766377571206"><ele>583.0</ele><time>2026-05-04T10:13:36.001Z</time></trkpt><trkpt lat="43.72122085231358" lon="12.18873774444877"><ele>583.0</ele><time>2026-05-04T10:13:37.001Z</time></trkpt><trkpt lat="43.72115396873512" lon="12.188713895102572"><ele>583.0</ele><time>2026-05-04T10:13:38.001Z</time></trkpt><trkpt lat="43.72105064898791" lon="12.188644535182883"><ele>583.0</ele><time>2026-05-04T10:13:40.001Z</time></trkpt><trkpt lat="43.72097539783817" lon="12.18857169673313"><ele>581.6</ele><time>2026-05-04T10:13:42.001Z</time></trkpt><trkpt lat="43.72089750997952" lon="12.188487831037108"><ele>580.1999999999999</ele><time>2026-05-04T10:13:44.001Z</time></trkpt><trkpt lat="43.72081194063969" lon="12.188405607207322"><ele>578.8</ele><time>2026-05-04T10:13:46.001Z</time></trkpt><trkpt lat="43.72076587123877" lon="12.188313489062985"><ele>577.4</ele><time>2026-05-04T10:13:47.001Z</time></trkpt><trkpt lat="43.720725055958106" lon="12.18814653013301"><ele>576.0</ele><time>2026-05-04T10:13:49.001Z</time></trkpt><trkpt lat="43.72070439021968" lon="12.188060485546108"><ele>579.0</ele><time>2026-05-04T10:13:50.001Z</time></trkpt><trkpt lat="43.72069180676076" lon="12.18796359037381"><ele>582.0</ele><time>2026-05-04T10:13:51.001Z</time></trkpt><trkpt lat="43.72069517494485" lon="12.187867467692875"><ele>585.0</ele><time>2026-05-04T10:13:52.001Z</time></trkpt><trkpt lat="43.720689135925525" lon="12.18772711758748"><ele>588.0</ele><time>2026-05-04T10:13:54Z</time></trkpt><trkpt lat="43.72068570024919" lon="12.187633454509522"><ele>591.0</ele><time>2026-05-04T10:13:58Z</time></trkpt><trkpt lat="43.72066003517416" lon="12.187503359658933"><ele>594.0</ele><time>2026-05-04T10:14:01Z</time></trkpt><trkpt lat="43.72062123541575" lon="12.187392952052024"><ele>596.8</ele><time>2026-05-04T10:14:04Z</time></trkpt><trkpt lat="43.72060441249978" lon="12.18725025876808"><ele>599.5999999999999</ele><time>2026-05-04T10:14:06Z</time></trkpt><trkpt lat="43.72054646064957" lon="12.18713355749115"><ele>602.4</ele><time>2026-05-04T10:14:08Z</time></trkpt><trkpt lat="43.72042479044087" lon="12.187057878220264"><ele>605.1999999999999</ele><time>2026-05-04T10:14:10Z</time></trkpt><trkpt lat="43.720352630959454" lon="12.187003704013886"><ele>608.0</ele><time>2026-05-04T10:14:12Z</time></trkpt><trkpt lat="43.72030684876269" lon="12.186862737814373"><ele>608.0</ele><time>2026-05-04T10:14:14Z</time></trkpt><trkpt lat="43.720281016699545" lon="12.18677595288991"><ele>608.0</ele><time>2026-05-04T10:14:15Z</time></trkpt><trkpt lat="43.72025199264238" lon="12.186665203808648"><ele>608.0</ele><time>2026-05-04T10:14:17Z</time></trkpt><trkpt lat="43.72020996847272" lon="12.186566145464822"><ele>608.0</ele><time>2026-05-04T10:14:20Z</time></trkpt><trkpt lat="43.72016018889958" lon="12.186409086140337"><ele>608.0</ele><time>2026-05-04T10:14:22Z</time></trkpt><trkpt lat="43.7201252421481" lon="12.186329506609887"><ele>608.0</ele><time>2026-05-04T10:14:23Z</time></trkpt><trkpt lat="43.720069347862726" lon="12.186201272009818"><ele>609.3333333333333</ele><time>2026-05-04T10:14:25Z</time></trkpt><trkpt lat="43.720021675085036" lon="12.1861163323098"><ele>610.6666666666666</ele><time>2026-05-04T10:14:27Z</time></trkpt><trkpt lat="43.719956923637056" lon="12.18608524152403"><ele>612.0</ele><time>2026-05-04T10:14:29Z</time></trkpt><trkpt lat="43.71987378650125" lon="12.186044454230146"><ele>613.3333333333334</ele><time>2026-05-04T10:14:32Z</time></trkpt><trkpt lat="43.719814811044586" lon="12.185990540494858"><ele>614.6666666666667</ele><time>2026-05-04T10:14:35Z</time></trkpt><trkpt lat="43.71973787983914" lon="12.185935762949653"><ele>616.0</ele><time>2026-05-04T10:14:48.001Z</time></trkpt><trkpt lat="43.7196858155181" lon="12.185880157751386"><ele>616.0</ele><time>2026-05-04T10:14:49.001Z</time></trkpt><trkpt lat="43.71962740354081" lon="12.185820278644892"><ele>616.0</ele><time>2026-05-04T10:14:50.001Z</time></trkpt><trkpt lat="43.719523835925706" lon="12.185786617899314"><ele>616.0</ele><time>2026-05-04T10:14:52.001Z</time></trkpt><trkpt lat="43.719434094061484" lon="12.185776511983738"><ele>616.0</ele><time>2026-05-04T10:14:54.001Z</time></trkpt><trkpt lat="43.719388006489226" lon="12.185712436956324"><ele>616.0</ele><time>2026-05-04T10:14:56.001Z</time></trkpt><trkpt lat="43.719338805827405" lon="12.185624631833576"><ele>616.0</ele><time>2026-05-04T10:14:58.001Z</time></trkpt><trkpt lat="43.719353732541066" lon="12.18551106993257"><ele>618.6666666666667</ele><time>2026-05-04T10:15:00.001Z</time></trkpt><trkpt lat="43.719396835320254" lon="12.185440571044918"><ele>621.3333333333334</ele><time>2026-05-04T10:15:02.001Z</time></trkpt><trkpt lat="43.71946430295777" lon="12.185360793363506"><ele>624.0</ele><time>2026-05-04T10:15:04.001Z</time></trkpt><trkpt lat="43.71951936663835" lon="12.185249546579335"><ele>626.6666666666666</ele><time>2026-05-04T10:15:06.001Z</time></trkpt><trkpt lat="43.719582669233176" lon="12.185168927338253"><ele>629.3333333333333</ele><time>2026-05-04T10:15:08.001Z</time></trkpt><trkpt lat="43.71965526781086" lon="12.18508475827281"><ele>632.0</ele><time>2026-05-04T10:15:10.001Z</time></trkpt><trkpt lat="43.71973650297369" lon="12.18500323653881"><ele>632.6666666666666</ele><time>2026-05-04T10:15:12.001Z</time></trkpt><trkpt lat="43.719787026991426" lon="12.18489942599071"><ele>633.3333333333333</ele><time>2026-05-04T10:15:14.001Z</time></trkpt><trkpt lat="43.71984315844663" lon="12.184803021832087"><ele>634.0</ele><time>2026-05-04T10:15:16.001Z</time></trkpt><trkpt lat="43.71987132020214" lon="12.184673714187229"><ele>634.6666666666666</ele><time>2026-05-04T10:15:18.001Z</time></trkpt><trkpt lat="43.71983629753396" lon="12.184578940896047"><ele>635.3333333333334</ele><time>2026-05-04T10:15:21.001Z</time></trkpt><trkpt lat="43.71977374188325" lon="12.184546940405175"><ele>636.0</ele><time>2026-05-04T10:15:23.001Z</time></trkpt><trkpt lat="43.71966402602663" lon="12.184490340366978"><ele>638.8333333333334</ele><time>2026-05-04T10:15:25.001Z</time></trkpt><trkpt lat="43.719592374322545" lon="12.184478402973214"><ele>641.6666666666666</ele><time>2026-05-04T10:15:26.001Z</time></trkpt><trkpt lat="43.719518755026655" lon="12.184461384185527"><ele>644.5</ele><time>2026-05-04T10:15:27.001Z</time></trkpt><trkpt lat="43.7194425377429" lon="12.184435273628257"><ele>647.3333333333333</ele><time>2026-05-04T10:15:28.001Z</time></trkpt><trkpt lat="43.71936988712541" lon="12.18440083259398"><ele>650.1666666666666</ele><time>2026-05-04T10:15:29.001Z</time></trkpt><trkpt lat="43.719292146935516" lon="12.184356861453614"><ele>653.0</ele><time>2026-05-04T10:15:30.001Z</time></trkpt><trkpt lat="43.71922939235553" lon="12.184335502804318"><ele>653.0</ele><time>2026-05-04T10:15:31.001Z</time></trkpt><trkpt lat="43.719176090006805" lon="12.184265613438303"><ele>653.0</ele><time>2026-05-04T10:15:33.001Z</time></trkpt><trkpt lat="43.719026981252654" lon="12.184210884551534"><ele>653.0</ele><time>2026-05-04T10:15:35.001Z</time></trkpt><trkpt lat="43.718944096914626" lon="12.184164489566395"><ele>653.0</ele><time>2026-05-04T10:15:36.001Z</time></trkpt><trkpt lat="43.71886530074229" lon="12.184103141277829"><ele>653.0</ele><time>2026-05-04T10:15:37.001Z</time></trkpt><trkpt lat="43.718783884310575" lon="12.184047778444478"><ele>657.0</ele><time>2026-05-04T10:15:38.001Z</time></trkpt><trkpt lat="43.71869196831785" lon="12.18400491476106"><ele>661.0</ele><time>2026-05-04T10:15:39.001Z</time></trkpt><trkpt lat="43.71860994280785" lon="12.183964100571686"><ele>665.0</ele><time>2026-05-04T10:15:40.001Z</time></trkpt><trkpt lat="43.718515381936456" lon="12.183933596683213"><ele>669.0</ele><time>2026-05-04T10:15:41.001Z</time></trkpt><trkpt lat="43.71842073725108" lon="12.183911837310855"><ele>673.0</ele><time>2026-05-04T10:15:42.001Z</time></trkpt><trkpt lat="43.718330900654735" lon="12.183883291984138"><ele>673.0</ele><time>2026-05-04T10:15:43.001Z</time></trkpt><trkpt lat="43.7182371889795" lon="12.183859667526447"><ele>673.0</ele><time>2026-05-04T10:15:44.001Z</time></trkpt><trkpt lat="43.718139293847706" lon="12.183835894604611"><ele>673.0</ele><time>2026-05-04T10:15:45.001Z</time></trkpt><trkpt lat="43.71803030850719" lon="12.18380622885519"><ele>673.0</ele><time>2026-05-04T10:15:46.001Z</time></trkpt><trkpt lat="43.717932690080175" lon="12.183774834034987"><ele>673.0</ele><time>2026-05-04T10:15:47.001Z</time></trkpt><trkpt lat="43.71783644384422" lon="12.183740337842343"><ele>673.0</ele><time>2026-05-04T10:15:48.001Z</time></trkpt><trkpt lat="43.717740809219094" lon="12.18369710561404"><ele>673.0</ele><time>2026-05-04T10:15:49.001Z</time></trkpt><trkpt lat="43.71764554744335" lon="12.183651522322917"><ele>673.0</ele><time>2026-05-04T10:15:50.001Z</time></trkpt><trkpt lat="43.717540005808296" lon="12.183614906574329"><ele>673.0</ele><time>2026-05-04T10:15:51.001Z</time></trkpt><trkpt lat="43.71742021459558" lon="12.18359480539125"><ele>673.0</ele><time>2026-05-04T10:15:52.001Z</time></trkpt><trkpt lat="43.717328476417954" lon="12.18361507671789"><ele>671.2</ele><time>2026-05-04T10:15:53.001Z</time></trkpt><trkpt lat="43.71723502702884" lon="12.183666929173913"><ele>669.4</ele><time>2026-05-04T10:15:54.001Z</time></trkpt><trkpt lat="43.71714914460885" lon="12.183743450402496"><ele>667.6</ele><time>2026-05-04T10:15:55.001Z</time></trkpt><trkpt lat="43.717062119345506" lon="12.183825034003362"><ele>665.8000000000001</ele><time>2026-05-04T10:15:56.001Z</time></trkpt><trkpt lat="43.71696508500253" lon="12.183879234508492"><ele>664.0</ele><time>2026-05-04T10:15:57.001Z</time></trkpt><trkpt lat="43.71686053404178" lon="12.183931681290336"><ele>664.0</ele><time>2026-05-04T10:15:58.001Z</time></trkpt><trkpt lat="43.716752540071276" lon="12.183952828049922"><ele>664.0</ele><time>2026-05-04T10:15:59.001Z</time></trkpt><trkpt lat="43.71664068672951" lon="12.183965950978504"><ele>664.0</ele><time>2026-05-04T10:16:00Z</time></trkpt><trkpt lat="43.71652860969507" lon="12.183977360376158"><ele>664.0</ele><time>2026-05-04T10:16:01Z</time></trkpt><trkpt lat="43.71640620821585" lon="12.183994647963585"><ele>664.0</ele><time>2026-05-04T10:16:02Z</time></trkpt><trkpt lat="43.716280064369336" lon="12.184008471937341"><ele>664.0</ele><time>2026-05-04T10:16:03Z</time></trkpt><trkpt lat="43.71615732986601" lon="12.184026535857779"><ele>664.0</ele><time>2026-05-04T10:16:04Z</time></trkpt><trkpt lat="43.716035802827086" lon="12.18403900330855"><ele>664.0</ele><time>2026-05-04T10:16:05Z</time></trkpt><trkpt lat="43.71591676077759" lon="12.18404296996571"><ele>663.5</ele><time>2026-05-04T10:16:06Z</time></trkpt><trkpt lat="43.71579419609232" lon="12.184048624621326"><ele>663.0</ele><time>2026-05-04T10:16:07Z</time></trkpt><trkpt lat="43.71566939167295" lon="12.18406299888644"><ele>662.5</ele><time>2026-05-04T10:16:08Z</time></trkpt><trkpt lat="43.71554931861366" lon="12.184079932610965"><ele>662.0</ele><time>2026-05-04T10:16:09Z</time></trkpt><trkpt lat="43.71543271570424" lon="12.184095371308427"><ele>662.0</ele><time>2026-05-04T10:16:10Z</time></trkpt><trkpt lat="43.71531594958707" lon="12.184111368120263"><ele>662.0</ele><time>2026-05-04T10:16:11Z</time></trkpt><trkpt lat="43.7151977690061" lon="12.184130564249202"><ele>662.0</ele><time>2026-05-04T10:16:12Z</time></trkpt><trkpt lat="43.7150792485366" lon="12.184151341076674"><ele>662.0</ele><time>2026-05-04T10:16:13Z</time></trkpt><trkpt lat="43.7149619091501" lon="12.184184919910958"><ele>664.25</ele><time>2026-05-04T10:16:14Z</time></trkpt><trkpt lat="43.71484539899507" lon="12.184220168454834"><ele>666.5</ele><time>2026-05-04T10:16:15Z</time></trkpt><trkpt lat="43.71473318468474" lon="12.184255523031629"><ele>668.75</ele><time>2026-05-04T10:16:16Z</time></trkpt><trkpt lat="43.71462151911453" lon="12.184278804061483"><ele>671.0</ele><time>2026-05-04T10:16:17Z</time></trkpt><trkpt lat="43.71450809583039" lon="12.18427713899598"><ele>672.5</ele><time>2026-05-04T10:16:18Z</time></trkpt><trkpt lat="43.7143940561481" lon="12.184256047412836"><ele>674.0</ele><time>2026-05-04T10:16:19.001Z</time></trkpt><trkpt lat="43.71428588570687" lon="12.18420502218274"><ele>675.5</ele><time>2026-05-04T10:16:20.001Z</time></trkpt><trkpt lat="43.71417547345815" lon="12.184135378890215"><ele>677.0</ele><time>2026-05-04T10:16:21.001Z</time></trkpt><trkpt lat="43.71406468524164" lon="12.184057135186164"><ele>681.5</ele><time>2026-05-04T10:16:22.001Z</time></trkpt><trkpt lat="43.71395017976487" lon="12.183997164953482"><ele>686.0</ele><time>2026-05-04T10:16:23.001Z</time></trkpt><trkpt lat="43.713837570135915" lon="12.183938990979781"><ele>690.5</ele><time>2026-05-04T10:16:24.001Z</time></trkpt><trkpt lat="43.71372732959888" lon="12.183877778769688"><ele>695.0</ele><time>2026-05-04T10:16:25.001Z</time></trkpt><trkpt lat="43.71362196749695" lon="12.183818777820479"><ele>693.8</ele><time>2026-05-04T10:16:26.001Z</time></trkpt><trkpt lat="43.71352058006872" lon="12.183768343192218"><ele>692.6</ele><time>2026-05-04T10:16:27.001Z</time></trkpt><trkpt lat="43.71341794411211" lon="12.183723984785109"><ele>691.4000000000001</ele><time>2026-05-04T10:16:28.001Z</time></trkpt><trkpt lat="43.71331527529344" lon="12.183694019373352"><ele>690.2</ele><time>2026-05-04T10:16:29.001Z</time></trkpt><trkpt lat="43.71321291451353" lon="12.183667730123132"><ele>689.0</ele><time>2026-05-04T10:16:30.001Z</time></trkpt><trkpt lat="43.713112605280244" lon="12.183621784473658"><ele>689.0</ele><time>2026-05-04T10:16:31.001Z</time></trkpt><trkpt lat="43.713021913206994" lon="12.183570881034056"><ele>689.0</ele><time>2026-05-04T10:16:32.001Z</time></trkpt><trkpt lat="43.712915707041624" lon="12.183451075901862"><ele>689.0</ele><time>2026-05-04T10:16:33.001Z</time></trkpt><trkpt lat="43.7128192195932" lon="12.183357332872188"><ele>689.0</ele><time>2026-05-04T10:16:34.001Z</time></trkpt><trkpt lat="43.71272969147085" lon="12.183240827702017"><ele>689.0</ele><time>2026-05-04T10:16:35.001Z</time></trkpt><trkpt lat="43.71263400363314" lon="12.183127496725243"><ele>689.0</ele><time>2026-05-04T10:16:36.001Z</time></trkpt><trkpt lat="43.712538446158554" lon="12.183015946338031"><ele>689.0</ele><time>2026-05-04T10:16:37.001Z</time></trkpt><trkpt lat="43.71244331769932" lon="12.182900861981333"><ele>689.0</ele><time>2026-05-04T10:16:38.001Z</time></trkpt><trkpt lat="43.7123489740858" lon="12.182789600079982"><ele>689.0</ele><time>2026-05-04T10:16:39.001Z</time></trkpt><trkpt lat="43.71225191443047" lon="12.18267768696219"><ele>689.0</ele><time>2026-05-04T10:16:40.001Z</time></trkpt><trkpt lat="43.712157444203385" lon="12.18256883123713"><ele>689.0</ele><time>2026-05-04T10:16:41.001Z</time></trkpt><trkpt lat="43.712060980140315" lon="12.182455940501063"><ele>689.0</ele><time>2026-05-04T10:16:42.001Z</time></trkpt><trkpt lat="43.71196059034671" lon="12.182345262122311"><ele>690.75</ele><time>2026-05-04T10:16:43.001Z</time></trkpt><trkpt lat="43.71186752446278" lon="12.182230979992044"><ele>692.5</ele><time>2026-05-04T10:16:44.001Z</time></trkpt><trkpt lat="43.71177377350352" lon="12.182123847626466"><ele>694.25</ele><time>2026-05-04T10:16:45.001Z</time></trkpt><trkpt lat="43.71167890645911" lon="12.182030619782001"><ele>696.0</ele><time>2026-05-04T10:16:46.001Z</time></trkpt><trkpt lat="43.71160610337297" lon="12.181912272186883"><ele>696.0</ele><time>2026-05-04T10:16:47.001Z</time></trkpt><trkpt lat="43.71152544459354" lon="12.18181671958887"><ele>696.0</ele><time>2026-05-04T10:16:48.001Z</time></trkpt><trkpt lat="43.71136546646448" lon="12.181917775435902"><ele>696.0</ele><time>2026-05-04T10:16:49.001Z</time></trkpt><trkpt lat="43.711249412384966" lon="12.18194477803715"><ele>696.0</ele><time>2026-05-04T10:16:50.001Z</time></trkpt><trkpt lat="43.71113682984969" lon="12.181994053153703"><ele>696.3333333333334</ele><time>2026-05-04T10:16:51.001Z</time></trkpt><trkpt lat="43.71103545759176" lon="12.18207256866685"><ele>696.6666666666666</ele><time>2026-05-04T10:16:52.001Z</time></trkpt><trkpt lat="43.710954261880204" lon="12.182161784228489"><ele>697.0</ele><time>2026-05-04T10:16:53.001Z</time></trkpt><trkpt lat="43.71089058788316" lon="12.182250034096866"><ele>697.3333333333333</ele><time>2026-05-04T10:16:54.001Z</time></trkpt><trkpt lat="43.7108418459898" lon="12.182312110572575"><ele>697.6666666666666</ele><time>2026-05-04T10:16:55.001Z</time></trkpt><trkpt lat="43.71077856488371" lon="12.182351504328777"><ele>698.0</ele><time>2026-05-04T10:16:56.001Z</time></trkpt><trkpt lat="43.710686463793714" lon="12.182437354652757"><ele>698.0</ele><time>2026-05-04T10:16:58.001Z</time></trkpt><trkpt lat="43.710626861664515" lon="12.182490636395329"><ele>698.0</ele><time>2026-05-04T10:16:59.001Z</time></trkpt><trkpt lat="43.71059281901164" lon="12.182607729460074"><ele>698.0</ele><time>2026-05-04T10:17:00.001Z</time></trkpt><trkpt lat="43.71054021968233" lon="12.182688292054152"><ele>698.0</ele><time>2026-05-04T10:17:01.001Z</time></trkpt><trkpt lat="43.71049452209654" lon="12.182766878941173"><ele>698.0</ele><time>2026-05-04T10:17:02.001Z</time></trkpt><trkpt lat="43.710444223043574" lon="12.18284414495719"><ele>698.0</ele><time>2026-05-04T10:17:03.001Z</time></trkpt><trkpt lat="43.710358253512" lon="12.182929125064577"><ele>698.0</ele><time>2026-05-04T10:17:05.001Z</time></trkpt><trkpt lat="43.71029546729818" lon="12.1829624917851"><ele>698.0</ele><time>2026-05-04T10:17:07.001Z</time></trkpt><trkpt lat="43.710219764889416" lon="12.18298557895267"><ele>698.0</ele><time>2026-05-04T10:17:09.001Z</time></trkpt><trkpt lat="43.71012469986003" lon="12.183003386956987"><ele>698.0</ele><time>2026-05-04T10:17:11.001Z</time></trkpt><trkpt lat="43.70999934130509" lon="12.183062740018759"><ele>698.0</ele><time>2026-05-04T10:17:13.001Z</time></trkpt><trkpt lat="43.70992210892556" lon="12.183060676354273"><ele>698.1666666666666</ele><time>2026-05-04T10:17:14.001Z</time></trkpt><trkpt lat="43.709855344377715" lon="12.183094471488815"><ele>698.3333333333333</ele><time>2026-05-04T10:17:15.001Z</time></trkpt><trkpt lat="43.709773925424024" lon="12.183124412339385"><ele>698.5</ele><time>2026-05-04T10:17:16.001Z</time></trkpt><trkpt lat="43.70967168365311" lon="12.18315566189639"><ele>698.6666666666666</ele><time>2026-05-04T10:17:18.001Z</time></trkpt><trkpt lat="43.70959505224371" lon="12.18314082167614"><ele>698.8333333333334</ele><time>2026-05-04T10:18:26.001Z</time></trkpt><trkpt lat="43.70953113145841" lon="12.183152413538451"><ele>699.0</ele><time>2026-05-04T10:18:28.001Z</time></trkpt><trkpt lat="43.70945592850827" lon="12.18320168479673"><ele>698.6</ele><time>2026-05-04T10:18:30.001Z</time></trkpt><trkpt lat="43.709392764065456" lon="12.183320035870429"><ele>698.2</ele><time>2026-05-04T10:18:32.001Z</time></trkpt><trkpt lat="43.70933295972135" lon="12.183447681183342"><ele>697.8000000000001</ele><time>2026-05-04T10:18:34.001Z</time></trkpt><trkpt lat="43.7092992367286" lon="12.183522965772374"><ele>697.4000000000001</ele><time>2026-05-04T10:18:35.001Z</time></trkpt><trkpt lat="43.70924909280194" lon="12.183644045068727"><ele>697.0</ele><time>2026-05-04T10:18:37.001Z</time></trkpt><trkpt lat="43.709210727096306" lon="12.183752064161663"><ele>697.0</ele><time>2026-05-04T10:18:39.001Z</time></trkpt><trkpt lat="43.7091864506157" lon="12.183836052131209"><ele>697.0</ele><time>2026-05-04T10:18:41.001Z</time></trkpt><trkpt lat="43.709183589064175" lon="12.18394642262352"><ele>697.0</ele><time>2026-05-04T10:18:44.001Z</time></trkpt><trkpt lat="43.70919390490421" lon="12.18404593209773"><ele>697.0</ele><time>2026-05-04T10:18:47.001Z</time></trkpt><trkpt lat="43.70909867026808" lon="12.184144700544369"><ele>697.0</ele><time>2026-05-04T10:19:59.001Z</time></trkpt><trkpt lat="43.70910018093459" lon="12.184232097433705"><ele>697.0</ele><time>2026-05-04T10:20:05.001Z</time></trkpt><trkpt lat="43.70911204365424" lon="12.184132435781882"><ele>699.0</ele><time>2026-05-04T10:20:36.001Z</time></trkpt><trkpt lat="43.70913105433458" lon="12.184042679328348"><ele>699.0</ele><time>2026-05-04T10:20:44.001Z</time></trkpt></trkseg><trkseg><trkpt lat="43.709055966324016" lon="12.184246301390255"><ele>699.0</ele><time>2026-05-04T11:01:43.062Z</time></trkpt><trkpt lat="43.709102173736966" lon="12.18417620169276"><ele>699.0</ele><time>2026-05-04T11:01:59Z</time></trkpt><trkpt lat="43.70911759946999" lon="12.184082278453138"><ele>699.0</ele><time>2026-05-04T11:02:24.999Z</time></trkpt><trkpt lat="43.70919488223438" lon="12.184062176035104"><ele>699.0</ele><time>2026-05-04T11:02:28.999Z</time></trkpt><trkpt lat="43.709221987525524" lon="12.183972230151001"><ele>699.0</ele><time>2026-05-04T11:02:36.999Z</time></trkpt><trkpt lat="43.70923860118793" lon="12.1838123985369"><ele>699.0</ele><time>2026-05-04T11:02:38.999Z</time></trkpt><trkpt lat="43.709260355565355" lon="12.183717531912412"><ele>699.0</ele><time>2026-05-04T11:02:39.999Z</time></trkpt><trkpt lat="43.70928147790134" lon="12.18362777036031"><ele>699.0</ele><time>2026-05-04T11:02:40.999Z</time></trkpt><trkpt lat="43.70932327443006" lon="12.183541391234163"><ele>699.0</ele><time>2026-05-04T11:02:41.999Z</time></trkpt><trkpt lat="43.70937812600089" lon="12.183456859671363"><ele>699.0</ele><time>2026-05-04T11:02:42.999Z</time></trkpt><trkpt lat="43.709420152851514" lon="12.18336592341436"><ele>699.0</ele><time>2026-05-04T11:02:43.999Z</time></trkpt><trkpt lat="43.70946202353507" lon="12.183285638955114"><ele>699.0</ele><time>2026-05-04T11:02:44.999Z</time></trkpt><trkpt lat="43.70950443244327" lon="12.183206197503138"><ele>699.0</ele><time>2026-05-04T11:02:45.999Z</time></trkpt><trkpt lat="43.709552469341084" lon="12.183128858979648"><ele>699.8333333333334</ele><time>2026-05-04T11:02:46.999Z</time></trkpt><trkpt lat="43.709603998838865" lon="12.183062189296358"><ele>700.6666666666666</ele><time>2026-05-04T11:02:47.999Z</time></trkpt><trkpt lat="43.70966083228132" lon="12.182988028265019"><ele>701.5</ele><time>2026-05-04T11:02:48.999Z</time></trkpt><trkpt lat="43.70971111494969" lon="12.182913376491602"><ele>702.3333333333333</ele><time>2026-05-04T11:02:49.999Z</time></trkpt><trkpt lat="43.70976283554007" lon="12.18282988933072"><ele>703.1666666666666</ele><time>2026-05-04T11:02:50.999Z</time></trkpt><trkpt lat="43.70980883460448" lon="12.182742672433376"><ele>704.0</ele><time>2026-05-04T11:02:51.999Z</time></trkpt><trkpt lat="43.709850866039076" lon="12.182654777074431"><ele>704.0</ele><time>2026-05-04T11:02:52.999Z</time></trkpt><trkpt lat="43.70988620765275" lon="12.182553549208128"><ele>704.0</ele><time>2026-05-04T11:02:53.999Z</time></trkpt><trkpt lat="43.709912522738556" lon="12.182438744993691"><ele>704.0</ele><time>2026-05-04T11:02:54.999Z</time></trkpt><trkpt lat="43.70992479297171" lon="12.182318917476433"><ele>704.0</ele><time>2026-05-04T11:02:55.999Z</time></trkpt><trkpt lat="43.70992786174833" lon="12.182189252946513"><ele>704.0</ele><time>2026-05-04T11:02:56.999Z</time></trkpt><trkpt lat="43.70993132831506" lon="12.182055148069258"><ele>704.0</ele><time>2026-05-04T11:02:57.999Z</time></trkpt><trkpt lat="43.70993351193841" lon="12.181929302233488"><ele>704.8000000000001</ele><time>2026-05-04T11:02:58.999Z</time></trkpt><trkpt lat="43.70993843326271" lon="12.181804339581168"><ele>705.6</ele><time>2026-05-04T11:02:59.999Z</time></trkpt><trkpt lat="43.70994321089328" lon="12.181682965703045"><ele>706.4</ele><time>2026-05-04T11:03:00.999Z</time></trkpt><trkpt lat="43.7099455829036" lon="12.181561387476082"><ele>707.2</ele><time>2026-05-04T11:03:01.999Z</time></trkpt><trkpt lat="43.7099474544266" lon="12.181457482860765"><ele>708.0</ele><time>2026-05-04T11:03:02.999Z</time></trkpt><trkpt lat="43.709952291696844" lon="12.181299984279306"><ele>708.0</ele><time>2026-05-04T11:03:04.999Z</time></trkpt><trkpt lat="43.70995343098294" lon="12.181192176255081"><ele>708.0</ele><time>2026-05-04T11:03:06.999Z</time></trkpt><trkpt lat="43.70988169274622" lon="12.18117776576741"><ele>708.0</ele><time>2026-05-04T11:03:09.999Z</time></trkpt><trkpt lat="43.70981441975889" lon="12.181269781477377"><ele>708.0</ele><time>2026-05-04T11:03:11.999Z</time></trkpt><trkpt lat="43.70977942357443" lon="12.181364958168238"><ele>708.0</ele><time>2026-05-04T11:03:12.999Z</time></trkpt><trkpt lat="43.70974612636341" lon="12.181469055562724"><ele>708.0</ele><time>2026-05-04T11:03:13.999Z</time></trkpt><trkpt lat="43.709707833387064" lon="12.181583244718466"><ele>708.0</ele><time>2026-05-04T11:03:14.999Z</time></trkpt><trkpt lat="43.70966604666031" lon="12.181711068837384"><ele>708.0</ele><time>2026-05-04T11:03:15.999Z</time></trkpt><trkpt lat="43.70962388180993" lon="12.18183884784735"><ele>708.0</ele><time>2026-05-04T11:03:16.999Z</time></trkpt><trkpt lat="43.70957595446384" lon="12.181973676694222"><ele>708.0</ele><time>2026-05-04T11:03:17.999Z</time></trkpt><trkpt lat="43.70952787552432" lon="12.182104400110195"><ele>708.0</ele><time>2026-05-04T11:03:18.999Z</time></trkpt><trkpt lat="43.70948101774391" lon="12.1822418228151"><ele>707.2</ele><time>2026-05-04T11:03:19.999Z</time></trkpt><trkpt lat="43.70943793752818" lon="12.182378230473033"><ele>706.4</ele><time>2026-05-04T11:03:20.999Z</time></trkpt><trkpt lat="43.70939068790077" lon="12.182508461485543"><ele>705.6</ele><time>2026-05-04T11:03:21.999Z</time></trkpt><trkpt lat="43.70934049811826" lon="12.18263431122092"><ele>704.8000000000001</ele><time>2026-05-04T11:03:22.999Z</time></trkpt><trkpt lat="43.7092891493166" lon="12.182759906971947"><ele>704.0</ele><time>2026-05-04T11:03:23.999Z</time></trkpt><trkpt lat="43.7092304036629" lon="12.182890494992826"><ele>702.6</ele><time>2026-05-04T11:03:24.999Z</time></trkpt><trkpt lat="43.709172487636806" lon="12.183017385553132"><ele>701.2</ele><time>2026-05-04T11:03:25.999Z</time></trkpt><trkpt lat="43.70911389781211" lon="12.18314348620584"><ele>699.8000000000001</ele><time>2026-05-04T11:03:26.999Z</time></trkpt><trkpt lat="43.70905067028304" lon="12.183267106092718"><ele>698.4000000000001</ele><time>2026-05-04T11:03:27.999Z</time></trkpt><trkpt lat="43.708984478056536" lon="12.183392682259122"><ele>697.0</ele><time>2026-05-04T11:03:28.999Z</time></trkpt><trkpt lat="43.70891472572098" lon="12.183519716058164"><ele>697.0</ele><time>2026-05-04T11:03:29.999Z</time></trkpt><trkpt lat="43.70884594730488" lon="12.183652320202917"><ele>697.0</ele><time>2026-05-04T11:03:30.999Z</time></trkpt><trkpt lat="43.70877909287056" lon="12.183785934034924"><ele>697.0</ele><time>2026-05-04T11:03:31.999Z</time></trkpt><trkpt lat="43.70870448773702" lon="12.183918235411221"><ele>697.0</ele><time>2026-05-04T11:03:32.999Z</time></trkpt><trkpt lat="43.708614836425205" lon="12.184033254282943"><ele>696.0</ele><time>2026-05-04T11:03:33.999Z</time></trkpt><trkpt lat="43.70852042986426" lon="12.184119987477532"><ele>695.0</ele><time>2026-05-04T11:03:34.999Z</time></trkpt><trkpt lat="43.70842258920944" lon="12.184186507001252"><ele>694.0</ele><time>2026-05-04T11:03:35.999Z</time></trkpt><trkpt lat="43.70832264535103" lon="12.184237019439069"><ele>693.0</ele><time>2026-05-04T11:03:36.999Z</time></trkpt><trkpt lat="43.708219709655665" lon="12.184269809635355"><ele>692.0</ele><time>2026-05-04T11:03:37.999Z</time></trkpt><trkpt lat="43.70811373610999" lon="12.184290323620449"><ele>692.0</ele><time>2026-05-04T11:03:38.999Z</time></trkpt><trkpt lat="43.70800657648087" lon="12.184293142834088"><ele>692.0</ele><time>2026-05-04T11:03:39.999Z</time></trkpt><trkpt lat="43.7078958943276" lon="12.18427539441842"><ele>692.0</ele><time>2026-05-04T11:03:40.999Z</time></trkpt><trkpt lat="43.70779402515243" lon="12.184259914604347"><ele>692.0</ele><time>2026-05-04T11:03:41.999Z</time></trkpt><trkpt lat="43.70768246175406" lon="12.184244877824373"><ele>692.0</ele><time>2026-05-04T11:03:42.999Z</time></trkpt><trkpt lat="43.70757350239383" lon="12.184229584518455"><ele>691.8</ele><time>2026-05-04T11:03:43.999Z</time></trkpt><trkpt lat="43.70746786808531" lon="12.18421874512541"><ele>691.6</ele><time>2026-05-04T11:03:44.999Z</time></trkpt><trkpt lat="43.70736477602525" lon="12.184205762955216"><ele>691.4</ele><time>2026-05-04T11:03:45.999Z</time></trkpt><trkpt lat="43.70726075467543" lon="12.1841949460355"><ele>691.1999999999999</ele><time>2026-05-04T11:03:46.999Z</time></trkpt><trkpt lat="43.707159919844976" lon="12.184195952183298"><ele>691.0</ele><time>2026-05-04T11:03:47.999Z</time></trkpt><trkpt lat="43.70705730798013" lon="12.184207038021787"><ele>691.0</ele><time>2026-05-04T11:03:48.999Z</time></trkpt><trkpt lat="43.70695961360737" lon="12.18423963291726"><ele>691.0</ele><time>2026-05-04T11:03:49.999Z</time></trkpt><trkpt lat="43.70685870742002" lon="12.184294694088354"><ele>691.0</ele><time>2026-05-04T11:03:50.999Z</time></trkpt><trkpt lat="43.70676331803404" lon="12.18436281381975"><ele>691.0</ele><time>2026-05-04T11:03:51.999Z</time></trkpt><trkpt lat="43.706677577165635" lon="12.184450681759715"><ele>691.0</ele><time>2026-05-04T11:03:52.999Z</time></trkpt><trkpt lat="43.70659413839326" lon="12.184552290817937"><ele>691.5</ele><time>2026-05-04T11:03:53.999Z</time></trkpt><trkpt lat="43.70651752564039" lon="12.18466243558155"><ele>692.0</ele><time>2026-05-04T11:03:54.999Z</time></trkpt><trkpt lat="43.706439933264676" lon="12.184775528446355"><ele>692.5</ele><time>2026-05-04T11:03:55.999Z</time></trkpt><trkpt lat="43.70635574384052" lon="12.184888917260185"><ele>693.0</ele><time>2026-05-04T11:03:56.999Z</time></trkpt><trkpt lat="43.706264482853065" lon="12.185000648761196"><ele>692.75</ele><time>2026-05-04T11:03:57.999Z</time></trkpt><trkpt lat="43.706184341887166" lon="12.185109145123274"><ele>692.5</ele><time>2026-05-04T11:03:58.999Z</time></trkpt><trkpt lat="43.706097566196014" lon="12.185226053511364"><ele>692.25</ele><time>2026-05-04T11:03:59.999Z</time></trkpt><trkpt lat="43.70600918953595" lon="12.18535054917441"><ele>692.0</ele><time>2026-05-04T11:04:00.999Z</time></trkpt><trkpt lat="43.70592345275658" lon="12.185467327154827"><ele>692.0</ele><time>2026-05-04T11:04:01.999Z</time></trkpt><trkpt lat="43.705831486992075" lon="12.185588687516866"><ele>692.0</ele><time>2026-05-04T11:04:02.999Z</time></trkpt><trkpt lat="43.70574112524549" lon="12.185705332140005"><ele>692.0</ele><time>2026-05-04T11:04:03.999Z</time></trkpt><trkpt lat="43.705647972687565" lon="12.185823927056145"><ele>692.0</ele><time>2026-05-04T11:04:04.999Z</time></trkpt><trkpt lat="43.70555736958842" lon="12.185948226359944"><ele>690.5</ele><time>2026-05-04T11:04:05.999Z</time></trkpt><trkpt lat="43.705468977724564" lon="12.186069241262805"><ele>689.0</ele><time>2026-05-04T11:04:06.999Z</time></trkpt><trkpt lat="43.70537888365902" lon="12.186192823643681"><ele>687.5</ele><time>2026-05-04T11:04:07.999Z</time></trkpt><trkpt lat="43.7052846178153" lon="12.18630749830703"><ele>686.0</ele><time>2026-05-04T11:04:08.999Z</time></trkpt><trkpt lat="43.705197939219865" lon="12.186432013585584"><ele>687.5</ele><time>2026-05-04T11:04:09.999Z</time></trkpt><trkpt lat="43.705109396628885" lon="12.18654444008084"><ele>689.0</ele><time>2026-05-04T11:04:10.999Z</time></trkpt><trkpt lat="43.70501110195388" lon="12.186654121600762"><ele>690.5</ele><time>2026-05-04T11:04:11.999Z</time></trkpt><trkpt lat="43.70491629879277" lon="12.186760568434053"><ele>692.0</ele><time>2026-05-04T11:04:12.999Z</time></trkpt><trkpt lat="43.7048255907854" lon="12.186863348730787"><ele>692.0</ele><time>2026-05-04T11:04:13.999Z</time></trkpt><trkpt lat="43.70473949055387" lon="12.186954400756"><ele>692.0</ele><time>2026-05-04T11:04:14.999Z</time></trkpt><trkpt lat="43.70465417337515" lon="12.18704248303961"><ele>692.0</ele><time>2026-05-04T11:04:15.999Z</time></trkpt><trkpt lat="43.70457234721575" lon="12.187127869503286"><ele>692.0</ele><time>2026-05-04T11:04:16.999Z</time></trkpt><trkpt lat="43.70450317920349" lon="12.187200730426015"><ele>692.0</ele><time>2026-05-04T11:04:17.999Z</time></trkpt><trkpt lat="43.70444033204543" lon="12.187261903873539"><ele>692.0</ele><time>2026-05-04T11:04:18.999Z</time></trkpt><trkpt lat="43.70437803855815" lon="12.18731369506115"><ele>692.0</ele><time>2026-05-04T11:04:19.999Z</time></trkpt><trkpt lat="43.704314961818056" lon="12.187342754801255"><ele>692.0</ele><time>2026-05-04T11:04:20.999Z</time></trkpt><trkpt lat="43.70420104431884" lon="12.187322729939572"><ele>692.0</ele><time>2026-05-04T11:04:22.999Z</time></trkpt><trkpt lat="43.70412562596027" lon="12.187289088802597"><ele>692.0</ele><time>2026-05-04T11:04:24.999Z</time></trkpt><trkpt lat="43.70419870241121" lon="12.187340199489313"><ele>692.0</ele><time>2026-05-04T11:16:36Z</time></trkpt><trkpt lat="43.70440234367126" lon="12.187453781872005"><ele>692.0</ele><time>2026-05-04T11:16:38Z</time></trkpt><trkpt lat="43.704519199408935" lon="12.187483343742214"><ele>692.0</ele><time>2026-05-04T11:16:39Z</time></trkpt><trkpt lat="43.70442647915027" lon="12.187351745778901"><ele>692.0</ele><time>2026-05-04T11:16:40Z</time></trkpt><trkpt lat="43.70449338814805" lon="12.18729873224269"><ele>692.0</ele><time>2026-05-04T11:16:41Z</time></trkpt><trkpt lat="43.70455905653443" lon="12.187228655955636"><ele>692.0</ele><time>2026-05-04T11:16:42Z</time></trkpt><trkpt lat="43.70461585944841" lon="12.187160153023967"><ele>692.0</ele><time>2026-05-04T11:16:43Z</time></trkpt><trkpt lat="43.704679838857466" lon="12.187088323642495"><ele>692.0</ele><time>2026-05-04T11:16:44Z</time></trkpt><trkpt lat="43.70474886849583" lon="12.187015509075977"><ele>692.0</ele><time>2026-05-04T11:16:45Z</time></trkpt><trkpt lat="43.704819488086066" lon="12.186936934526512"><ele>692.0</ele><time>2026-05-04T11:16:46Z</time></trkpt><trkpt lat="43.70489477963255" lon="12.186870667887849"><ele>692.0</ele><time>2026-05-04T11:16:47Z</time></trkpt><trkpt lat="43.7049669829055" lon="12.186793417805147"><ele>692.0</ele><time>2026-05-04T11:16:48Z</time></trkpt><trkpt lat="43.70503795054697" lon="12.186706319089108"><ele>692.0</ele><time>2026-05-04T11:16:49Z</time></trkpt><trkpt lat="43.705108271549825" lon="12.186620746473647"><ele>692.0</ele><time>2026-05-04T11:16:50Z</time></trkpt><trkpt lat="43.70518680955468" lon="12.186521004111889"><ele>692.0</ele><time>2026-05-04T11:16:51Z</time></trkpt><trkpt lat="43.70526450819476" lon="12.186413963232805"><ele>692.0</ele><time>2026-05-04T11:16:52Z</time></trkpt><trkpt lat="43.70534978496316" lon="12.186307209587552"><ele>692.0</ele><time>2026-05-04T11:16:53Z</time></trkpt><trkpt lat="43.70542955139475" lon="12.186191708391874"><ele>693.75</ele><time>2026-05-04T11:16:54Z</time></trkpt><trkpt lat="43.705513585905415" lon="12.186080982929543"><ele>695.5</ele><time>2026-05-04T11:16:55Z</time></trkpt><trkpt lat="43.705592416393564" lon="12.185970237747119"><ele>697.25</ele><time>2026-05-04T11:16:56Z</time></trkpt><trkpt lat="43.70567665547607" lon="12.185864538691742"><ele>699.0</ele><time>2026-05-04T11:16:57Z</time></trkpt><trkpt lat="43.70575704300424" lon="12.185752981881764"><ele>699.0</ele><time>2026-05-04T11:16:58Z</time></trkpt><trkpt lat="43.70583618378257" lon="12.185639901434852"><ele>699.0</ele><time>2026-05-04T11:16:59Z</time></trkpt><trkpt lat="43.705911905010794" lon="12.18553520609052"><ele>699.0</ele><time>2026-05-04T11:17:00Z</time></trkpt><trkpt lat="43.70598150098735" lon="12.18543053658603"><ele>699.0</ele><time>2026-05-04T11:17:01Z</time></trkpt><trkpt lat="43.706059623253616" lon="12.185331652716272"><ele>699.0</ele><time>2026-05-04T11:17:02Z</time></trkpt><trkpt lat="43.706139754150264" lon="12.18522676897544"><ele>699.0</ele><time>2026-05-04T11:17:03Z</time></trkpt><trkpt lat="43.70622463526031" lon="12.185122728942352"><ele>699.0</ele><time>2026-05-04T11:17:04Z</time></trkpt><trkpt lat="43.70630499272058" lon="12.185013373289916"><ele>699.0</ele><time>2026-05-04T11:17:05Z</time></trkpt><trkpt lat="43.7063845090462" lon="12.18490411088476"><ele>699.0</ele><time>2026-05-04T11:17:06Z</time></trkpt><trkpt lat="43.70646237690376" lon="12.184796477716718"><ele>699.0</ele><time>2026-05-04T11:17:07Z</time></trkpt><trkpt lat="43.70653495297242" lon="12.184696045185412"><ele>697.8000000000001</ele><time>2026-05-04T11:17:08Z</time></trkpt><trkpt lat="43.706600615993786" lon="12.184595638602268"><ele>696.6</ele><time>2026-05-04T11:17:09Z</time></trkpt><trkpt lat="43.706669348608685" lon="12.184523957873616"><ele>695.4</ele><time>2026-05-04T11:17:10Z</time></trkpt><trkpt lat="43.70674836024913" lon="12.184443059175221"><ele>694.2</ele><time>2026-05-04T11:17:11Z</time></trkpt><trkpt lat="43.70683433351127" lon="12.184376345689953"><ele>693.0</ele><time>2026-05-04T11:17:12Z</time></trkpt><trkpt lat="43.706921889650275" lon="12.184322237544302"><ele>692.5999999999999</ele><time>2026-05-04T11:17:13Z</time></trkpt><trkpt lat="43.70702130917379" lon="12.184285758092917"><ele>692.1999999999999</ele><time>2026-05-04T11:17:14Z</time></trkpt><trkpt lat="43.70712941028636" lon="12.184265344702956"><ele>691.8</ele><time>2026-05-04T11:17:15Z</time></trkpt><trkpt lat="43.70724008579149" lon="12.184258180814203"><ele>691.4</ele><time>2026-05-04T11:17:16Z</time></trkpt><trkpt lat="43.70735956914103" lon="12.184265795038883"><ele>691.0</ele><time>2026-05-04T11:17:17Z</time></trkpt><trkpt lat="43.70748449347204" lon="12.184279898409555"><ele>691.0</ele><time>2026-05-04T11:17:18Z</time></trkpt><trkpt lat="43.70761003379779" lon="12.184295933835308"><ele>691.0</ele><time>2026-05-04T11:17:19Z</time></trkpt><trkpt lat="43.70772901895496" lon="12.184309521291297"><ele>691.0</ele><time>2026-05-04T11:17:20Z</time></trkpt><trkpt lat="43.70784967888993" lon="12.184321240192414"><ele>691.0</ele><time>2026-05-04T11:17:21Z</time></trkpt><trkpt lat="43.7079620600547" lon="12.18432962229874"><ele>691.1999999999999</ele><time>2026-05-04T11:17:22Z</time></trkpt><trkpt lat="43.70806646672509" lon="12.184333660874891"><ele>691.4</ele><time>2026-05-04T11:17:23Z</time></trkpt><trkpt lat="43.70816775664688" lon="12.184320709678481"><ele>691.6</ele><time>2026-05-04T11:17:24Z</time></trkpt><trkpt lat="43.70827497886437" lon="12.184289124235123"><ele>691.8</ele><time>2026-05-04T11:17:25Z</time></trkpt><trkpt lat="43.708377785643364" lon="12.184246263900322"><ele>692.0</ele><time>2026-05-04T11:17:26Z</time></trkpt><trkpt lat="43.708476706923435" lon="12.184190819069785"><ele>692.0</ele><time>2026-05-04T11:17:27Z</time></trkpt><trkpt lat="43.70857514590222" lon="12.184115406088235"><ele>692.0</ele><time>2026-05-04T11:17:28Z</time></trkpt><trkpt lat="43.708665646092854" lon="12.184022591978724"><ele>692.0</ele><time>2026-05-04T11:17:29Z</time></trkpt><trkpt lat="43.70874711233614" lon="12.18390932213241"><ele>692.0</ele><time>2026-05-04T11:17:30Z</time></trkpt><trkpt lat="43.70881921309336" lon="12.183789885577962"><ele>693.25</ele><time>2026-05-04T11:17:31Z</time></trkpt><trkpt lat="43.70888528918941" lon="12.183665988957912"><ele>694.5</ele><time>2026-05-04T11:17:32Z</time></trkpt><trkpt lat="43.70895230571828" lon="12.183531769094538"><ele>695.75</ele><time>2026-05-04T11:17:33Z</time></trkpt><trkpt lat="43.709017357635716" lon="12.18340240246082"><ele>697.0</ele><time>2026-05-04T11:17:34Z</time></trkpt><trkpt lat="43.70908087764879" lon="12.183273213125398"><ele>696.0</ele><time>2026-05-04T11:17:35Z</time></trkpt><trkpt lat="43.70914289693992" lon="12.183143168998955"><ele>695.0</ele><time>2026-05-04T11:17:36Z</time></trkpt><trkpt lat="43.70920830452884" lon="12.183014542724424"><ele>694.0</ele><time>2026-05-04T11:17:37Z</time></trkpt><trkpt lat="43.70926941943264" lon="12.182879197836758"><ele>693.0</ele><time>2026-05-04T11:17:38Z</time></trkpt><trkpt lat="43.709334877008125" lon="12.182734103050619"><ele>693.0</ele><time>2026-05-04T11:17:39Z</time></trkpt><trkpt lat="43.70939509439873" lon="12.182581495545485"><ele>693.0</ele><time>2026-05-04T11:17:40Z</time></trkpt><trkpt lat="43.70944888700425" lon="12.182434088655436"><ele>693.0</ele><time>2026-05-04T11:17:41Z</time></trkpt><trkpt lat="43.70950080906245" lon="12.182288512342337"><ele>693.0</ele><time>2026-05-04T11:17:42Z</time></trkpt><trkpt lat="43.709547542494754" lon="12.182155840366867"><ele>696.0</ele><time>2026-05-04T11:17:43Z</time></trkpt><trkpt lat="43.70959429002425" lon="12.182016872476819"><ele>699.0</ele><time>2026-05-04T11:17:44Z</time></trkpt><trkpt lat="43.70963766573359" lon="12.181887295965838"><ele>702.0</ele><time>2026-05-04T11:17:45Z</time></trkpt><trkpt lat="43.709676106670585" lon="12.18176602528594"><ele>705.0</ele><time>2026-05-04T11:17:46Z</time></trkpt><trkpt lat="43.709708649748904" lon="12.181664469269238"><ele>708.0</ele><time>2026-05-04T11:17:47Z</time></trkpt><trkpt lat="43.70974542742115" lon="12.18155631648151"><ele>708.5</ele><time>2026-05-04T11:17:48Z</time></trkpt><trkpt lat="43.709775300175565" lon="12.18147351126609"><ele>709.0</ele><time>2026-05-04T11:17:49Z</time></trkpt><trkpt lat="43.70980994868623" lon="12.181398120433931"><ele>709.5</ele><time>2026-05-04T11:17:50Z</time></trkpt><trkpt lat="43.70988545925716" lon="12.181301106084828"><ele>710.0</ele><time>2026-05-04T11:17:52Z</time></trkpt><trkpt lat="43.7099570169577" lon="12.18123574786477"><ele>710.5</ele><time>2026-05-04T11:17:55Z</time></trkpt><trkpt lat="43.710024875125704" lon="12.181191784899651"><ele>711.0</ele><time>2026-05-04T11:17:57Z</time></trkpt><trkpt lat="43.7101162835588" lon="12.181091223026243"><ele>711.0</ele><time>2026-05-04T11:17:59Z</time></trkpt><trkpt lat="43.71018912637385" lon="12.180962643480873"><ele>711.0</ele><time>2026-05-04T11:18:01Z</time></trkpt><trkpt lat="43.71024086419387" lon="12.1808866580107"><ele>711.0</ele><time>2026-05-04T11:18:02Z</time></trkpt><trkpt lat="43.7103015926033" lon="12.180797920047327"><ele>711.0</ele><time>2026-05-04T11:18:03Z</time></trkpt><trkpt lat="43.71035301725829" lon="12.18070679044471"><ele>711.0</ele><time>2026-05-04T11:18:04Z</time></trkpt><trkpt lat="43.71042627528926" lon="12.180640755988117"><ele>713.4</ele><time>2026-05-04T11:18:05Z</time></trkpt><trkpt lat="43.710488003558616" lon="12.180540203298476"><ele>715.8</ele><time>2026-05-04T11:18:06Z</time></trkpt><trkpt lat="43.71056403407375" lon="12.180474727048937"><ele>718.1999999999999</ele><time>2026-05-04T11:18:07Z</time></trkpt><trkpt lat="43.71065126884361" lon="12.180420870143648"><ele>720.5999999999999</ele><time>2026-05-04T11:18:08Z</time></trkpt><trkpt lat="43.71074711472642" lon="12.180368097273107"><ele>723.0</ele><time>2026-05-04T11:18:09Z</time></trkpt><trkpt lat="43.71084022705729" lon="12.180327693219766"><ele>723.0</ele><time>2026-05-04T11:18:10Z</time></trkpt><trkpt lat="43.71093603780318" lon="12.180257791839574"><ele>723.0</ele><time>2026-05-04T11:18:11Z</time></trkpt><trkpt lat="43.71102975479304" lon="12.180194931146078"><ele>723.0</ele><time>2026-05-04T11:18:12Z</time></trkpt><trkpt lat="43.71112570756273" lon="12.180149174086706"><ele>723.0</ele><time>2026-05-04T11:18:13Z</time></trkpt><trkpt lat="43.71121833671884" lon="12.180110898812453"><ele>723.0</ele><time>2026-05-04T11:18:14Z</time></trkpt><trkpt lat="43.71131829419727" lon="12.180075916897753"><ele>721.5999999999999</ele><time>2026-05-04T11:18:15Z</time></trkpt><trkpt lat="43.711420470450285" lon="12.180047739722164"><ele>720.1999999999999</ele><time>2026-05-04T11:18:16Z</time></trkpt><trkpt lat="43.71152926406071" lon="12.1800143621052"><ele>718.8</ele><time>2026-05-04T11:18:17Z</time></trkpt><trkpt lat="43.71164169752554" lon="12.17998885495692"><ele>717.4</ele><time>2026-05-04T11:18:18Z</time></trkpt><trkpt lat="43.711756768629336" lon="12.179972614056146"><ele>716.0</ele><time>2026-05-04T11:18:19Z</time></trkpt><trkpt lat="43.711871181874415" lon="12.179967139208525"><ele>716.75</ele><time>2026-05-04T11:18:20Z</time></trkpt><trkpt lat="43.711988601209335" lon="12.179962794231852"><ele>717.5</ele><time>2026-05-04T11:18:21Z</time></trkpt><trkpt lat="43.712105003277266" lon="12.179956145330532"><ele>718.25</ele><time>2026-05-04T11:18:22Z</time></trkpt><trkpt lat="43.712216798553555" lon="12.179955611588708"><ele>719.0</ele><time>2026-05-04T11:18:23Z</time></trkpt><trkpt lat="43.71232626044897" lon="12.179958119731948"><ele>719.0</ele><time>2026-05-04T11:18:24Z</time></trkpt><trkpt lat="43.71243859055987" lon="12.179962213416891"><ele>719.0</ele><time>2026-05-04T11:18:25Z</time></trkpt><trkpt lat="43.71255072791792" lon="12.179968876430188"><ele>719.0</ele><time>2026-05-04T11:18:26Z</time></trkpt><trkpt lat="43.712659957373766" lon="12.179990827085165"><ele>719.0</ele><time>2026-05-04T11:18:27Z</time></trkpt><trkpt lat="43.71276843689426" lon="12.180032637504572"><ele>719.0</ele><time>2026-05-04T11:18:28Z</time></trkpt><trkpt lat="43.71286797006833" lon="12.180105058872643"><ele>721.6</ele><time>2026-05-04T11:18:29Z</time></trkpt><trkpt lat="43.71295984162927" lon="12.180186487385594"><ele>724.2</ele><time>2026-05-04T11:18:30Z</time></trkpt><trkpt lat="43.713049583645464" lon="12.180272353304861"><ele>726.8000000000001</ele><time>2026-05-04T11:18:31Z</time></trkpt><trkpt lat="43.71313789308634" lon="12.180353257404203"><ele>729.4000000000001</ele><time>2026-05-04T11:18:32Z</time></trkpt><trkpt lat="43.71321989561454" lon="12.180421500317816"><ele>732.0</ele><time>2026-05-04T11:18:33Z</time></trkpt><trkpt lat="43.713294716390585" lon="12.18048596410514"><ele>732.0</ele><time>2026-05-04T11:18:34Z</time></trkpt><trkpt lat="43.713367010134775" lon="12.180550085672076"><ele>732.0</ele><time>2026-05-04T11:18:35Z</time></trkpt><trkpt lat="43.71343513183687" lon="12.18060764922781"><ele>732.0</ele><time>2026-05-04T11:18:36Z</time></trkpt><trkpt lat="43.7134932068983" lon="12.180654830586661"><ele>732.0</ele><time>2026-05-04T11:18:37Z</time></trkpt><trkpt lat="43.7135797936169" lon="12.180698362123456"><ele>732.0</ele><time>2026-05-04T11:18:39Z</time></trkpt><trkpt lat="43.71369467962565" lon="12.18057253022851"><ele>731.8333333333334</ele><time>2026-05-04T11:18:42Z</time></trkpt><trkpt lat="43.7137100839299" lon="12.180484279722187"><ele>731.6666666666666</ele><time>2026-05-04T11:18:43Z</time></trkpt><trkpt lat="43.71372416846495" lon="12.180382877575841"><ele>731.5</ele><time>2026-05-04T11:18:44Z</time></trkpt><trkpt lat="43.713742749319664" lon="12.180270026098968"><ele>731.3333333333333</ele><time>2026-05-04T11:18:45Z</time></trkpt><trkpt lat="43.713761594461545" lon="12.180145425090643"><ele>731.1666666666666</ele><time>2026-05-04T11:18:46Z</time></trkpt><trkpt lat="43.713775171201334" lon="12.180016792660384"><ele>731.0</ele><time>2026-05-04T11:18:47Z</time></trkpt><trkpt lat="43.71378158183993" lon="12.179885816510948"><ele>731.5999999999999</ele><time>2026-05-04T11:18:48Z</time></trkpt><trkpt lat="43.71379175810506" lon="12.179753996989128"><ele>732.2</ele><time>2026-05-04T11:18:49Z</time></trkpt><trkpt lat="43.713785910991234" lon="12.179628268689664"><ele>732.8</ele><time>2026-05-04T11:18:50Z</time></trkpt><trkpt lat="43.71378560331022" lon="12.179509660706156"><ele>733.4000000000001</ele><time>2026-05-04T11:18:51Z</time></trkpt><trkpt lat="43.713774203321435" lon="12.179387954233881"><ele>734.0</ele><time>2026-05-04T11:18:52Z</time></trkpt><trkpt lat="43.71373914677126" lon="12.179259169451148"><ele>734.0</ele><time>2026-05-04T11:18:53Z</time></trkpt><trkpt lat="43.7136869578846" lon="12.179146246641917"><ele>734.0</ele><time>2026-05-04T11:18:54Z</time></trkpt><trkpt lat="43.713624585722634" lon="12.179032299917129"><ele>734.0</ele><time>2026-05-04T11:18:55Z</time></trkpt><trkpt lat="43.71356767390883" lon="12.178921865203261"><ele>734.0</ele><time>2026-05-04T11:18:56Z</time></trkpt><trkpt lat="43.713549127699906" lon="12.178790204986239"><ele>734.0</ele><time>2026-05-04T11:18:57Z</time></trkpt><trkpt lat="43.71350512401924" lon="12.178677956501398"><ele>736.8000000000001</ele><time>2026-05-04T11:18:58Z</time></trkpt><trkpt lat="43.71349216804549" lon="12.178545910727138"><ele>739.6</ele><time>2026-05-04T11:18:59Z</time></trkpt><trkpt lat="43.7134790502401" lon="12.178417552069805"><ele>742.4</ele><time>2026-05-04T11:19:00Z</time></trkpt><trkpt lat="43.713475875659995" lon="12.178276410242884"><ele>745.2</ele><time>2026-05-04T11:19:01Z</time></trkpt><trkpt lat="43.71346403015838" lon="12.178131350324419"><ele>748.0</ele><time>2026-05-04T11:19:02Z</time></trkpt><trkpt lat="43.713448573580735" lon="12.177983535633759"><ele>750.4</ele><time>2026-05-04T11:19:03Z</time></trkpt><trkpt lat="43.7134297961469" lon="12.177848441861416"><ele>752.8</ele><time>2026-05-04T11:19:04Z</time></trkpt><trkpt lat="43.71341304352098" lon="12.177737075328032"><ele>755.2</ele><time>2026-05-04T11:19:05Z</time></trkpt><trkpt lat="43.71338674264476" lon="12.177618750337096"><ele>757.6</ele><time>2026-05-04T11:19:06Z</time></trkpt><trkpt lat="43.713345639329525" lon="12.177511797386305"><ele>760.0</ele><time>2026-05-04T11:19:07Z</time></trkpt><trkpt lat="43.713294938902195" lon="12.17740626581685"><ele>761.8</ele><time>2026-05-04T11:19:08Z</time></trkpt><trkpt lat="43.71324407166295" lon="12.177300269738756"><ele>763.6</ele><time>2026-05-04T11:19:09Z</time></trkpt><trkpt lat="43.71319039432845" lon="12.177190818013234"><ele>765.4000000000001</ele><time>2026-05-04T11:19:10Z</time></trkpt><trkpt lat="43.713139027316245" lon="12.177083956203287"><ele>767.2</ele><time>2026-05-04T11:19:11Z</time></trkpt><trkpt lat="43.71310212278506" lon="12.176998123197194"><ele>769.0</ele><time>2026-05-04T11:19:12Z</time></trkpt><trkpt lat="43.71307386461667" lon="12.176825796456749"><ele>768.9999999999999</ele><time>2026-05-04T11:19:14Z</time></trkpt><trkpt lat="43.713076928892264" lon="12.176736528597598"><ele>769.0</ele><time>2026-05-04T11:19:16Z</time></trkpt><trkpt lat="43.713080936031645" lon="12.176632811603845"><ele>769.0</ele><time>2026-05-04T11:19:32Z</time></trkpt><trkpt lat="43.71300488131347" lon="12.17657066395175"><ele>769.0</ele><time>2026-05-04T11:19:35Z</time></trkpt><trkpt lat="43.7128946208048" lon="12.17667915455373"><ele>768.9999999999999</ele><time>2026-05-04T11:19:37Z</time></trkpt><trkpt lat="43.712958288003435" lon="12.17667017931875"><ele>769.0</ele><time>2026-05-04T11:19:40Z</time></trkpt><trkpt lat="43.71302042395208" lon="12.176688554615376"><ele>768.9999999999999</ele><time>2026-05-04T11:19:42Z</time></trkpt><trkpt lat="43.71309719071999" lon="12.17669710778237"><ele>769.0</ele><time>2026-05-04T11:19:46Z</time></trkpt><trkpt lat="43.71313140170401" lon="12.176620568698436"><ele>769.0</ele><time>2026-05-04T11:19:49Z</time></trkpt><trkpt lat="43.71316193316278" lon="12.176543194072076"><ele>769.0</ele><time>2026-05-04T11:19:51Z</time></trkpt><trkpt lat="43.71318698890763" lon="12.176460831983093"><ele>768.9999999999999</ele><time>2026-05-04T11:19:53Z</time></trkpt><trkpt lat="43.7131537814886" lon="12.1762665150297"><ele>769.0</ele><time>2026-05-04T11:19:55Z</time></trkpt><trkpt lat="43.71314959785422" lon="12.176107592535775"><ele>768.6</ele><time>2026-05-04T11:19:57Z</time></trkpt><trkpt lat="43.713165255174594" lon="12.17596194623472"><ele>768.2</ele><time>2026-05-04T11:19:59Z</time></trkpt><trkpt lat="43.71313312626565" lon="12.175823029692456"><ele>767.8000000000001</ele><time>2026-05-04T11:20:01Z</time></trkpt><trkpt lat="43.71309628354296" lon="12.175711800647719"><ele>767.4000000000001</ele><time>2026-05-04T11:20:03Z</time></trkpt><trkpt lat="43.71306575928107" lon="12.175622405411424"><ele>767.0</ele><time>2026-05-04T11:20:05Z</time></trkpt><trkpt lat="43.71299057696363" lon="12.175564278798396"><ele>766.3333333333333</ele><time>2026-05-04T11:20:08Z</time></trkpt><trkpt lat="43.7129194653124" lon="12.175545937306794"><ele>765.6666666666666</ele><time>2026-05-04T11:20:10Z</time></trkpt><trkpt lat="43.71284807391945" lon="12.175539434547488"><ele>765.0</ele><time>2026-05-04T11:20:12Z</time></trkpt><trkpt lat="43.712783937056955" lon="12.175541719487853"><ele>764.3333333333334</ele><time>2026-05-04T11:20:14Z</time></trkpt><trkpt lat="43.71270296113594" lon="12.17555654679558"><ele>763.6666666666667</ele><time>2026-05-04T11:20:16Z</time></trkpt><trkpt lat="43.71261828251686" lon="12.175566556995895"><ele>763.0</ele><time>2026-05-04T11:20:18Z</time></trkpt><trkpt lat="43.712539796583634" lon="12.1755898190654"><ele>766.3333333333334</ele><time>2026-05-04T11:20:20Z</time></trkpt><trkpt lat="43.71246044271097" lon="12.17559923596604"><ele>769.6666666666667</ele><time>2026-05-04T11:20:23Z</time></trkpt><trkpt lat="43.71237859638301" lon="12.175507037731874"><ele>773.0</ele><time>2026-05-04T11:20:26Z</time></trkpt><trkpt lat="43.712353078220126" lon="12.17541037783126"><ele>776.3333333333334</ele><time>2026-05-04T11:20:28Z</time></trkpt><trkpt lat="43.71233620062584" lon="12.175320469760846"><ele>779.6666666666666</ele><time>2026-05-04T11:20:31Z</time></trkpt><trkpt lat="43.7123335006558" lon="12.17520036122108"><ele>783.0</ele><time>2026-05-04T11:20:33Z</time></trkpt><trkpt lat="43.71237410687902" lon="12.17513082209416"><ele>783.0</ele><time>2026-05-04T11:20:35Z</time></trkpt><trkpt lat="43.71242036845365" lon="12.175067479978987"><ele>783.0</ele><time>2026-05-04T11:20:37Z</time></trkpt><trkpt lat="43.712423549646594" lon="12.17497390630219"><ele>783.0</ele><time>2026-05-04T11:20:41Z</time></trkpt><trkpt lat="43.71240821331453" lon="12.174861473895472"><ele>783.0</ele><time>2026-05-04T11:20:43Z</time></trkpt><trkpt lat="43.71239378975506" lon="12.174765545861717"><ele>783.0</ele><time>2026-05-04T11:20:45Z</time></trkpt><trkpt lat="43.712421838882655" lon="12.17465260032799"><ele>783.0</ele><time>2026-05-04T11:21:04Z</time></trkpt><trkpt lat="43.71244297473611" lon="12.174553171701186"><ele>783.0</ele><time>2026-05-04T11:21:06Z</time></trkpt><trkpt lat="43.71243726670102" lon="12.17445489450233"><ele>783.5</ele><time>2026-05-04T11:21:08Z</time></trkpt><trkpt lat="43.712487601598475" lon="12.174361897009558"><ele>784.0</ele><time>2026-05-04T11:21:11Z</time></trkpt><trkpt lat="43.712512626286575" lon="12.174268369954895"><ele>784.5</ele><time>2026-05-04T11:22:08Z</time></trkpt><trkpt lat="43.71246512089053" lon="12.174210036694356"><ele>785.0</ele><time>2026-05-04T11:22:11Z</time></trkpt><trkpt lat="43.712384972409424" lon="12.174234803948305"><ele>785.5</ele><time>2026-05-04T11:22:13Z</time></trkpt><trkpt lat="43.712318834710736" lon="12.174175693171609"><ele>786.0</ele><time>2026-05-04T11:22:16Z</time></trkpt><trkpt lat="43.712254497037755" lon="12.174071596349162"><ele>786.1666666666666</ele><time>2026-05-04T11:22:18Z</time></trkpt><trkpt lat="43.712220928327085" lon="12.173972858235762"><ele>786.3333333333333</ele><time>2026-05-04T11:22:20Z</time></trkpt><trkpt lat="43.71219816596735" lon="12.173882096290502"><ele>786.5</ele><time>2026-05-04T11:22:22Z</time></trkpt><trkpt lat="43.71217994859027" lon="12.173780024830814"><ele>786.6666666666666</ele><time>2026-05-04T11:22:24Z</time></trkpt><trkpt lat="43.71216769237482" lon="12.173667982267693"><ele>786.8333333333333</ele><time>2026-05-04T11:22:26Z</time></trkpt><trkpt lat="43.712133286524455" lon="12.17357856988245"><ele>787.0</ele><time>2026-05-04T11:22:28Z</time></trkpt><trkpt lat="43.71208642097056" lon="12.17349928072672"><ele>786.9999999999999</ele><time>2026-05-04T11:22:30Z</time></trkpt><trkpt lat="43.71201465994744" lon="12.173446739268309"><ele>787.0</ele><time>2026-05-04T11:22:32Z</time></trkpt><trkpt lat="43.71194221788855" lon="12.173435538079062"><ele>787.0</ele><time>2026-05-04T11:22:34Z</time></trkpt><trkpt lat="43.71186250731275" lon="12.1734213347867"><ele>787.0</ele><time>2026-05-04T11:22:36Z</time></trkpt><trkpt lat="43.711800517373305" lon="12.17332883849016"><ele>786.9999999999999</ele><time>2026-05-04T11:22:39Z</time></trkpt><trkpt lat="43.711743875494705" lon="12.173199326784578"><ele>787.0</ele><time>2026-05-04T11:22:41Z</time></trkpt><trkpt lat="43.71170528813188" lon="12.173077147000258"><ele>791.4000000000001</ele><time>2026-05-04T11:22:43Z</time></trkpt><trkpt lat="43.71167714376784" lon="12.17297571229383"><ele>795.8000000000001</ele><time>2026-05-04T11:22:45.999Z</time></trkpt><trkpt lat="43.711627212960316" lon="12.172859522422096"><ele>800.2</ele><time>2026-05-04T11:22:48.999Z</time></trkpt><trkpt lat="43.711606538757984" lon="12.17273403257008"><ele>804.6</ele><time>2026-05-04T11:22:50.999Z</time></trkpt><trkpt lat="43.71162057981516" lon="12.172605347364438"><ele>809.0</ele><time>2026-05-04T11:22:52.999Z</time></trkpt><trkpt lat="43.711673960885065" lon="12.172496371148233"><ele>809.0</ele><time>2026-05-04T11:22:54.999Z</time></trkpt><trkpt lat="43.711747809595806" lon="12.17239251830797"><ele>809.0</ele><time>2026-05-04T11:22:56.999Z</time></trkpt><trkpt lat="43.711835843633274" lon="12.172305815581108"><ele>809.0</ele><time>2026-05-04T11:22:58.999Z</time></trkpt><trkpt lat="43.711925107406095" lon="12.172269511932635"><ele>809.0</ele><time>2026-05-04T11:23:00.999Z</time></trkpt><trkpt lat="43.71200578888005" lon="12.172217850183479"><ele>809.0</ele><time>2026-05-04T11:23:03Z</time></trkpt><trkpt lat="43.71208419822358" lon="12.17214253055571"><ele>805.0</ele><time>2026-05-04T11:23:05Z</time></trkpt><trkpt lat="43.71213260262832" lon="12.172015566922477"><ele>801.0</ele><time>2026-05-04T11:23:07Z</time></trkpt><trkpt lat="43.71214002164753" lon="12.171848811666028"><ele>797.0</ele><time>2026-05-04T11:23:09Z</time></trkpt><trkpt lat="43.712134753915414" lon="12.171741147409593"><ele>793.0</ele><time>2026-05-04T11:23:10Z</time></trkpt><trkpt lat="43.71212683109102" lon="12.171606942837265"><ele>789.0</ele><time>2026-05-04T11:23:11Z</time></trkpt><trkpt lat="43.7121147670169" lon="12.171479879933518"><ele>789.0</ele><time>2026-05-04T11:23:12Z</time></trkpt><trkpt lat="43.712100054074845" lon="12.171387636444464"><ele>789.0</ele><time>2026-05-04T11:23:13Z</time></trkpt><trkpt lat="43.712095840102606" lon="12.17129169508481"><ele>789.0</ele><time>2026-05-04T11:23:14Z</time></trkpt><trkpt lat="43.71210620099695" lon="12.171167803852178"><ele>789.0</ele><time>2026-05-04T11:23:15Z</time></trkpt><trkpt lat="43.71212137845709" lon="12.17106388192097"><ele>789.0</ele><time>2026-05-04T11:23:16Z</time></trkpt><trkpt lat="43.71212668390729" lon="12.170954418605035"><ele>789.0</ele><time>2026-05-04T11:23:17Z</time></trkpt><trkpt lat="43.71210686922852" lon="12.170842385048353"><ele>789.0</ele><time>2026-05-04T11:23:18Z</time></trkpt><trkpt lat="43.71208140116415" lon="12.170731396764861"><ele>789.0</ele><time>2026-05-04T11:23:19Z</time></trkpt><trkpt lat="43.71205392990182" lon="12.170579395779294"><ele>789.0</ele><time>2026-05-04T11:23:20Z</time></trkpt><trkpt lat="43.712029691857815" lon="12.17044452513726"><ele>789.0</ele><time>2026-05-04T11:23:21Z</time></trkpt><trkpt lat="43.7120040074915" lon="12.170309645100177"><ele>789.0</ele><time>2026-05-04T11:23:22Z</time></trkpt><trkpt lat="43.711987283898154" lon="12.17018386238254"><ele>790.6666666666666</ele><time>2026-05-04T11:23:23Z</time></trkpt><trkpt lat="43.71197328909517" lon="12.170057447430018"><ele>792.3333333333333</ele><time>2026-05-04T11:23:24Z</time></trkpt><trkpt lat="43.71195342978326" lon="12.169947208170802"><ele>794.0</ele><time>2026-05-04T11:23:25Z</time></trkpt><trkpt lat="43.71193532547738" lon="12.169813251926657"><ele>795.6666666666666</ele><time>2026-05-04T11:23:26Z</time></trkpt><trkpt lat="43.711922543191505" lon="12.169709796129444"><ele>797.3333333333333</ele><time>2026-05-04T11:23:27Z</time></trkpt><trkpt lat="43.711912979823275" lon="12.169583618100955"><ele>799.0</ele><time>2026-05-04T11:23:28Z</time></trkpt><trkpt lat="43.711911336163475" lon="12.169482490247228"><ele>802.2</ele><time>2026-05-04T11:23:29Z</time></trkpt><trkpt lat="43.71188783978185" lon="12.16931702516413"><ele>805.4000000000001</ele><time>2026-05-04T11:23:31Z</time></trkpt><trkpt lat="43.71184556563161" lon="12.169161222517307"><ele>808.6</ele><time>2026-05-04T11:23:33Z</time></trkpt><trkpt lat="43.71176118486071" lon="12.169082239198499"><ele>811.8</ele><time>2026-05-04T11:23:35Z</time></trkpt><trkpt lat="43.71170275150662" lon="12.168975382685415"><ele>815.0</ele><time>2026-05-04T11:23:37Z</time></trkpt><trkpt lat="43.711684375968495" lon="12.168887307084383"><ele>815.0000000000001</ele><time>2026-05-04T11:23:38Z</time></trkpt><trkpt lat="43.71168819360375" lon="12.168764851373254"><ele>815.0</ele><time>2026-05-04T11:23:40Z</time></trkpt><trkpt lat="43.71169968312626" lon="12.168678016433311"><ele>815.0</ele><time>2026-05-04T11:23:42Z</time></trkpt><trkpt lat="43.71173413141191" lon="12.168531151791344"><ele>815.0</ele><time>2026-05-04T11:23:44Z</time></trkpt><trkpt lat="43.711758701261914" lon="12.168442747506935"><ele>815.0000000000001</ele><time>2026-05-04T11:23:45Z</time></trkpt><trkpt lat="43.71177901126411" lon="12.168346065056912"><ele>815.0</ele><time>2026-05-04T11:23:46Z</time></trkpt><trkpt lat="43.71180244336641" lon="12.168224745326393"><ele>815.2</ele><time>2026-05-04T11:23:47Z</time></trkpt><trkpt lat="43.71181881941225" lon="12.168099998467632"><ele>815.4</ele><time>2026-05-04T11:23:48Z</time></trkpt><trkpt lat="43.71182179973293" lon="12.16799657618029"><ele>815.5999999999999</ele><time>2026-05-04T11:23:49Z</time></trkpt><trkpt lat="43.711828432821925" lon="12.167899248492347"><ele>815.8</ele><time>2026-05-04T11:23:50Z</time></trkpt><trkpt lat="43.711832497147746" lon="12.167738702220479"><ele>816.0</ele><time>2026-05-04T11:23:52Z</time></trkpt><trkpt lat="43.71181094148037" lon="12.167583091825154"><ele>816.0</ele><time>2026-05-04T11:23:54Z</time></trkpt><trkpt lat="43.7118028153417" lon="12.1674691143292"><ele>816.0</ele><time>2026-05-04T11:23:55Z</time></trkpt><trkpt lat="43.71179891233838" lon="12.167377364847983"><ele>816.0</ele><time>2026-05-04T11:23:56Z</time></trkpt><trkpt lat="43.71180047067348" lon="12.167273994702084"><ele>816.0</ele><time>2026-05-04T11:23:57Z</time></trkpt><trkpt lat="43.7118054811118" lon="12.167168140521728"><ele>816.0</ele><time>2026-05-04T11:23:58Z</time></trkpt><trkpt lat="43.71183103641348" lon="12.16705959197323"><ele>816.0</ele><time>2026-05-04T11:23:59Z</time></trkpt><trkpt lat="43.71185816068114" lon="12.166961497797544"><ele>816.5999999999999</ele><time>2026-05-04T11:24:00Z</time></trkpt><trkpt lat="43.71186765236981" lon="12.166823100633971"><ele>817.2</ele><time>2026-05-04T11:24:01Z</time></trkpt><trkpt lat="43.711887090021136" lon="12.166699329157368"><ele>817.8</ele><time>2026-05-04T11:24:02Z</time></trkpt><trkpt lat="43.7119117772709" lon="12.166596482406414"><ele>818.4000000000001</ele><time>2026-05-04T11:24:03Z</time></trkpt><trkpt lat="43.71195684695098" lon="12.166425695272041"><ele>819.0</ele><time>2026-05-04T11:24:05Z</time></trkpt><trkpt lat="43.711990713472844" lon="12.16632117200649"><ele>819.0</ele><time>2026-05-04T11:24:06Z</time></trkpt><trkpt lat="43.71203030488451" lon="12.166224350186676"><ele>819.0</ele><time>2026-05-04T11:24:07Z</time></trkpt><trkpt lat="43.71207287858294" lon="12.166132850112747"><ele>819.0</ele><time>2026-05-04T11:24:08Z</time></trkpt><trkpt lat="43.71210509451458" lon="12.166030160734195"><ele>819.0</ele><time>2026-05-04T11:24:09Z</time></trkpt><trkpt lat="43.71210215005199" lon="12.165930231408321"><ele>819.0</ele><time>2026-05-04T11:24:10Z</time></trkpt><trkpt lat="43.712112225018814" lon="12.165831585846577"><ele>819.0</ele><time>2026-05-04T11:24:11Z</time></trkpt><trkpt lat="43.71212421899331" lon="12.16573943884063"><ele>816.5</ele><time>2026-05-04T11:24:12Z</time></trkpt><trkpt lat="43.71215117603552" lon="12.165624058804449"><ele>814.0</ele><time>2026-05-04T11:24:13Z</time></trkpt><trkpt lat="43.71219481822474" lon="12.165518469147921"><ele>811.5</ele><time>2026-05-04T11:24:14Z</time></trkpt><trkpt lat="43.71223877619541" lon="12.165423445711673"><ele>809.0</ele><time>2026-05-04T11:24:15Z</time></trkpt><trkpt lat="43.71228863107631" lon="12.165357549810192"><ele>806.5</ele><time>2026-05-04T11:24:16Z</time></trkpt><trkpt lat="43.71235096746843" lon="12.165310932113243"><ele>804.0</ele><time>2026-05-04T11:24:17Z</time></trkpt><trkpt lat="43.7124254273601" lon="12.165268207538967"><ele>804.0</ele><time>2026-05-04T11:24:18Z</time></trkpt><trkpt lat="43.71249817080208" lon="12.165227201784337"><ele>804.0</ele><time>2026-05-04T11:24:19Z</time></trkpt><trkpt lat="43.71256452492105" lon="12.16519607494162"><ele>804.0</ele><time>2026-05-04T11:24:20Z</time></trkpt><trkpt lat="43.71264036562146" lon="12.16521251333608"><ele>804.0</ele><time>2026-05-04T11:24:21Z</time></trkpt><trkpt lat="43.712711076317284" lon="12.165253111961404"><ele>804.0</ele><time>2026-05-04T11:24:22Z</time></trkpt><trkpt lat="43.71279283911219" lon="12.165298710704546"><ele>804.0</ele><time>2026-05-04T11:24:23Z</time></trkpt><trkpt lat="43.71286277141519" lon="12.165328238459457"><ele>804.2</ele><time>2026-05-04T11:24:24Z</time></trkpt><trkpt lat="43.7129808071702" lon="12.165312321026201"><ele>804.4000000000001</ele><time>2026-05-04T11:24:26Z</time></trkpt><trkpt lat="43.71304508371306" lon="12.165257999918616"><ele>804.6</ele><time>2026-05-04T11:24:27Z</time></trkpt><trkpt lat="43.7131035675236" lon="12.165172100228917"><ele>804.8</ele><time>2026-05-04T11:24:28Z</time></trkpt><trkpt lat="43.71315550400781" lon="12.165071211893961"><ele>805.0</ele><time>2026-05-04T11:24:29Z</time></trkpt><trkpt lat="43.71320977256669" lon="12.16496888753879"><ele>804.9999999999999</ele><time>2026-05-04T11:24:30Z</time></trkpt><trkpt lat="43.71325821075117" lon="12.164873600141584"><ele>805.0</ele><time>2026-05-04T11:24:31Z</time></trkpt><trkpt lat="43.71328597832793" lon="12.164777423631717"><ele>805.0</ele><time>2026-05-04T11:24:32Z</time></trkpt><trkpt lat="43.713288637949894" lon="12.16468762779403"><ele>805.0</ele><time>2026-05-04T11:24:33Z</time></trkpt><trkpt lat="43.713264698970605" lon="12.164546131808851"><ele>804.9999999999999</ele><time>2026-05-04T11:24:35Z</time></trkpt><trkpt lat="43.71326665211457" lon="12.164443290143614"><ele>805.0</ele><time>2026-05-04T11:24:36Z</time></trkpt><trkpt lat="43.71328094091243" lon="12.164315949221212"><ele>805.2</ele><time>2026-05-04T11:24:37Z</time></trkpt><trkpt lat="43.71330135464324" lon="12.164179778287256"><ele>805.4</ele><time>2026-05-04T11:24:38Z</time></trkpt><trkpt lat="43.71332624727081" lon="12.164033167580055"><ele>805.5999999999999</ele><time>2026-05-04T11:24:39Z</time></trkpt><trkpt lat="43.71335573005416" lon="12.163900297902272"><ele>805.8</ele><time>2026-05-04T11:24:40Z</time></trkpt><trkpt lat="43.71339315071236" lon="12.163798113197368"><ele>806.0</ele><time>2026-05-04T11:24:41Z</time></trkpt><trkpt lat="43.71345486350897" lon="12.163725728041904"><ele>805.4</ele><time>2026-05-04T11:24:42Z</time></trkpt><trkpt lat="43.71351272235742" lon="12.163651976520102"><ele>804.8</ele><time>2026-05-04T11:24:43Z</time></trkpt><trkpt lat="43.71359741620015" lon="12.163612464130301"><ele>804.1999999999999</ele><time>2026-05-04T11:24:46Z</time></trkpt><trkpt lat="43.7136982843271" lon="12.16357108668784"><ele>803.5999999999999</ele><time>2026-05-04T11:24:48Z</time></trkpt><trkpt lat="43.71378743546869" lon="12.163499881020494"><ele>803.0</ele><time>2026-05-04T11:24:50Z</time></trkpt><trkpt lat="43.713855407515325" lon="12.163433976211431"><ele>803.0</ele><time>2026-05-04T11:24:51.999Z</time></trkpt><trkpt lat="43.71393342738846" lon="12.163329623907618"><ele>803.0</ele><time>2026-05-04T11:24:53.999Z</time></trkpt><trkpt lat="43.71397838187568" lon="12.163255695000133"><ele>803.0</ele><time>2026-05-04T11:24:54.999Z</time></trkpt><trkpt lat="43.71403937926422" lon="12.163120061641104"><ele>803.0</ele><time>2026-05-04T11:24:56.999Z</time></trkpt><trkpt lat="43.71407521021593" lon="12.162998623989536"><ele>803.0</ele><time>2026-05-04T11:24:58.999Z</time></trkpt><trkpt lat="43.71410495246567" lon="12.162856588187061"><ele>803.0000000000001</ele><time>2026-05-04T11:25:00.999Z</time></trkpt><trkpt lat="43.71417511675835" lon="12.162738503821032"><ele>803.0</ele><time>2026-05-04T11:25:02.999Z</time></trkpt><trkpt lat="43.71425367372252" lon="12.162616782255576"><ele>803.0</ele><time>2026-05-04T11:25:04.999Z</time></trkpt><trkpt lat="43.71428882849093" lon="12.16252406532484"><ele>803.0</ele><time>2026-05-04T11:25:05.999Z</time></trkpt><trkpt lat="43.71431152973065" lon="12.162424806713311"><ele>803.0000000000001</ele><time>2026-05-04T11:25:06.999Z</time></trkpt><trkpt lat="43.71431393289393" lon="12.162328593696662"><ele>803.0</ele><time>2026-05-04T11:25:07.999Z</time></trkpt><trkpt lat="43.714301919734105" lon="12.162233716994928"><ele>803.1666666666667</ele><time>2026-05-04T11:25:08.999Z</time></trkpt><trkpt lat="43.71425463142329" lon="12.16205881881761"><ele>803.3333333333334</ele><time>2026-05-04T11:25:10.999Z</time></trkpt><trkpt lat="43.7142235606891" lon="12.161976838657006"><ele>803.5</ele><time>2026-05-04T11:25:11.999Z</time></trkpt><trkpt lat="43.714191032053925" lon="12.161899487698541"><ele>803.6666666666667</ele><time>2026-05-04T11:25:12.999Z</time></trkpt><trkpt lat="43.71414720579326" lon="12.1617937138352"><ele>803.8333333333334</ele><time>2026-05-04T11:25:13.999Z</time></trkpt><trkpt lat="43.7141044398092" lon="12.161712481229943"><ele>804.0</ele><time>2026-05-04T11:25:15Z</time></trkpt><trkpt lat="43.714062635648276" lon="12.16163002540811"><ele>807.75</ele><time>2026-05-04T11:25:16Z</time></trkpt><trkpt lat="43.71397793975385" lon="12.161501925019921"><ele>811.5</ele><time>2026-05-04T11:25:18Z</time></trkpt><trkpt lat="43.713937928343775" lon="12.161431215983322"><ele>815.25</ele><time>2026-05-04T11:25:19Z</time></trkpt><trkpt lat="43.71387955244386" lon="12.161262730773164"><ele>819.0</ele><time>2026-05-04T11:25:21Z</time></trkpt><trkpt lat="43.71378997166857" lon="12.161118768091356"><ele>819.0</ele><time>2026-05-04T11:25:23Z</time></trkpt><trkpt lat="43.71373336081325" lon="12.161067680229078"><ele>819.0</ele><time>2026-05-04T11:25:24Z</time></trkpt><trkpt lat="43.71367754796051" lon="12.160961840436316"><ele>819.0</ele><time>2026-05-04T11:25:26Z</time></trkpt><trkpt lat="43.713605159132314" lon="12.160825823510839"><ele>819.0</ele><time>2026-05-04T11:25:28Z</time></trkpt><trkpt lat="43.71356114103347" lon="12.160743582105894"><ele>819.0</ele><time>2026-05-04T11:25:29Z</time></trkpt><trkpt lat="43.713517243718215" lon="12.16067084109946"><ele>819.0</ele><time>2026-05-04T11:25:30Z</time></trkpt><trkpt lat="43.71346722426047" lon="12.160590098103123"><ele>822.0</ele><time>2026-05-04T11:25:31Z</time></trkpt><trkpt lat="43.713432010662665" lon="12.160513704669995"><ele>825.0</ele><time>2026-05-04T11:25:32Z</time></trkpt><trkpt lat="43.713408441204656" lon="12.160416838113095"><ele>828.0</ele><time>2026-05-04T11:25:33Z</time></trkpt><trkpt lat="43.713339455597364" lon="12.160277041771494"><ele>831.0</ele><time>2026-05-04T11:25:35Z</time></trkpt><trkpt lat="43.7132668137366" lon="12.160132883005348"><ele>834.0</ele><time>2026-05-04T11:25:37Z</time></trkpt><trkpt lat="43.71322702075937" lon="12.160055796018751"><ele>834.0</ele><time>2026-05-04T11:25:38Z</time></trkpt><trkpt lat="43.71316898236356" lon="12.15994394656205"><ele>834.0</ele><time>2026-05-04T11:25:40Z</time></trkpt><trkpt lat="43.71313325079043" lon="12.15986122774124"><ele>834.0</ele><time>2026-05-04T11:25:42Z</time></trkpt><trkpt lat="43.713080900017495" lon="12.159747987802966"><ele>834.0</ele><time>2026-05-04T11:25:44Z</time></trkpt><trkpt lat="43.713006859985036" lon="12.159637947074447"><ele>834.0</ele><time>2026-05-04T11:25:46Z</time></trkpt><trkpt lat="43.71294909952701" lon="12.159495359942866"><ele>839.5</ele><time>2026-05-04T11:25:48Z</time></trkpt><trkpt lat="43.71289722573324" lon="12.159373480815711"><ele>845.0</ele><time>2026-05-04T11:25:50Z</time></trkpt><trkpt lat="43.71284779907415" lon="12.159262202254087"><ele>850.5</ele><time>2026-05-04T11:25:52Z</time></trkpt><trkpt lat="43.712774760330234" lon="12.159121187851701"><ele>856.0</ele><time>2026-05-04T11:25:54Z</time></trkpt><trkpt lat="43.71270453742988" lon="12.158969224798257"><ele>858.5999999999999</ele><time>2026-05-04T11:25:56Z</time></trkpt><trkpt lat="43.71265194382273" lon="12.158839804279449"><ele>861.1999999999999</ele><time>2026-05-04T11:25:58Z</time></trkpt><trkpt lat="43.712593524415695" lon="12.158693452157186"><ele>863.8000000000001</ele><time>2026-05-04T11:26:00Z</time></trkpt><trkpt lat="43.712564102981304" lon="12.158606273691673"><ele>866.4000000000001</ele><time>2026-05-04T11:26:02Z</time></trkpt><trkpt lat="43.71255114576421" lon="12.158506838326925"><ele>869.0</ele><time>2026-05-04T11:26:28Z</time></trkpt><trkpt lat="43.71250959340543" lon="12.158402110801939"><ele>869.0000000000001</ele><time>2026-05-04T11:26:30Z</time></trkpt><trkpt lat="43.71251098767107" lon="12.158283205745917"><ele>869.0</ele><time>2026-05-04T11:26:32Z</time></trkpt><trkpt lat="43.712495375561" lon="12.158111149615634"><ele>869.0</ele><time>2026-05-04T11:26:34Z</time></trkpt><trkpt lat="43.71248141230501" lon="12.158024504965573"><ele>869.0</ele><time>2026-05-04T11:26:35Z</time></trkpt><trkpt lat="43.71247272140276" lon="12.157934650950011"><ele>869.0000000000001</ele><time>2026-05-04T11:26:36Z</time></trkpt><trkpt lat="43.71247211035721" lon="12.157804416395603"><ele>869.0</ele><time>2026-05-04T11:26:38Z</time></trkpt><trkpt lat="43.71256195024006" lon="12.157766757882685"><ele>872.1666666666667</ele><time>2026-05-04T11:26:40Z</time></trkpt><trkpt lat="43.71262742219519" lon="12.157768849181998"><ele>875.3333333333334</ele><time>2026-05-04T11:26:41Z</time></trkpt><trkpt lat="43.71269269257611" lon="12.157779044511035"><ele>878.5</ele><time>2026-05-04T11:26:42Z</time></trkpt><trkpt lat="43.712757441095334" lon="12.157792467055863"><ele>881.6666666666667</ele><time>2026-05-04T11:26:43Z</time></trkpt><trkpt lat="43.7128282274862" lon="12.157756930583682"><ele>884.8333333333334</ele><time>2026-05-04T11:26:45Z</time></trkpt><trkpt lat="43.712873221418874" lon="12.157612230975879"><ele>888.0</ele><time>2026-05-04T11:26:47Z</time></trkpt><trkpt lat="43.712870343090685" lon="12.157511754414717"><ele>890.5</ele><time>2026-05-04T11:26:48Z</time></trkpt><trkpt lat="43.71284982295052" lon="12.157388379327429"><ele>893.0</ele><time>2026-05-04T11:26:49Z</time></trkpt><trkpt lat="43.71283401931269" lon="12.157257294721665"><ele>895.5</ele><time>2026-05-04T11:26:50Z</time></trkpt><trkpt lat="43.71280239456385" lon="12.15715324106565"><ele>898.0</ele><time>2026-05-04T11:26:51Z</time></trkpt><trkpt lat="43.71278715983807" lon="12.157040446553822"><ele>900.5</ele><time>2026-05-04T11:26:52Z</time></trkpt><trkpt lat="43.712776709305075" lon="12.156946151366617"><ele>903.0</ele><time>2026-05-04T11:26:53Z</time></trkpt><trkpt lat="43.71277136168584" lon="12.156785128281596"><ele>902.8</ele><time>2026-05-04T11:26:55Z</time></trkpt><trkpt lat="43.712707164711034" lon="12.156663639635942"><ele>902.5999999999999</ele><time>2026-05-04T11:26:56.999Z</time></trkpt><trkpt lat="43.71264003650417" lon="12.156628699151968"><ele>902.4000000000001</ele><time>2026-05-04T11:26:57.999Z</time></trkpt><trkpt lat="43.71256643881322" lon="12.156607947047137"><ele>902.2</ele><time>2026-05-04T11:26:58.999Z</time></trkpt><trkpt lat="43.712491230392075" lon="12.156579943406372"><ele>902.0</ele><time>2026-05-04T11:26:59.999Z</time></trkpt><trkpt lat="43.71238844221427" lon="12.156479512047778"><ele>900.8571428571428</ele><time>2026-05-04T11:27:01.999Z</time></trkpt><trkpt lat="43.71234962428409" lon="12.156401712453437"><ele>899.7142857142858</ele><time>2026-05-04T11:27:02.999Z</time></trkpt><trkpt lat="43.71230152407732" lon="12.1563009831888"><ele>898.5714285714286</ele><time>2026-05-04T11:27:03.999Z</time></trkpt><trkpt lat="43.71225194434992" lon="12.156205088697094"><ele>897.4285714285713</ele><time>2026-05-04T11:27:04.999Z</time></trkpt><trkpt lat="43.71220821507062" lon="12.156130494928222"><ele>896.2857142857142</ele><time>2026-05-04T11:27:05.999Z</time></trkpt><trkpt lat="43.71216354901159" lon="12.156060451390012"><ele>895.1428571428571</ele><time>2026-05-04T11:27:06.999Z</time></trkpt><trkpt lat="43.712122611556055" lon="12.155986971049797"><ele>894.0</ele><time>2026-05-04T11:27:08Z</time></trkpt><trkpt lat="43.712077367871686" lon="12.155896947650808"><ele>894.0</ele><time>2026-05-04T11:27:09Z</time></trkpt><trkpt lat="43.712027988895" lon="12.155798306409709"><ele>894.0000000000001</ele><time>2026-05-04T11:27:10Z</time></trkpt><trkpt lat="43.711974370593076" lon="12.155694903581262"><ele>894.0000000000001</ele><time>2026-05-04T11:27:11Z</time></trkpt><trkpt lat="43.71192040957899" lon="12.155585579983159"><ele>894.0</ele><time>2026-05-04T11:27:12Z</time></trkpt><trkpt lat="43.7118621463009" lon="12.155477251206218"><ele>894.0</ele><time>2026-05-04T11:27:13Z</time></trkpt><trkpt lat="43.71181118411519" lon="12.15537045878336"><ele>893.8333333333334</ele><time>2026-05-04T11:27:14Z</time></trkpt><trkpt lat="43.71177602063096" lon="12.155274189419147"><ele>893.6666666666667</ele><time>2026-05-04T11:27:15Z</time></trkpt><trkpt lat="43.711739105110404" lon="12.155184052920589"><ele>893.5</ele><time>2026-05-04T11:27:16Z</time></trkpt><trkpt lat="43.71168717850556" lon="12.15505082703609"><ele>893.3333333333334</ele><time>2026-05-04T11:27:18Z</time></trkpt><trkpt lat="43.71165398885686" lon="12.154969090072136"><ele>893.1666666666667</ele><time>2026-05-04T11:27:19Z</time></trkpt><trkpt lat="43.71162142246818" lon="12.154886625623691"><ele>893.0</ele><time>2026-05-04T11:27:20Z</time></trkpt><trkpt lat="43.711582385011866" lon="12.154802595513802"><ele>892.0000000000001</ele><time>2026-05-04T11:27:21Z</time></trkpt><trkpt lat="43.71153893323442" lon="12.154715553703573"><ele>891.0</ele><time>2026-05-04T11:27:22Z</time></trkpt><trkpt lat="43.71149356111138" lon="12.15461678421369"><ele>890.0</ele><time>2026-05-04T11:27:23Z</time></trkpt><trkpt lat="43.71144327063712" lon="12.154507773893611"><ele>889.0</ele><time>2026-05-04T11:27:24Z</time></trkpt><trkpt lat="43.71139537263713" lon="12.154398809591067"><ele>888.0000000000001</ele><time>2026-05-04T11:27:25Z</time></trkpt><trkpt lat="43.71135186953327" lon="12.154279740977566"><ele>887.0</ele><time>2026-05-04T11:27:26Z</time></trkpt><trkpt lat="43.71131460824808" lon="12.154147532717447"><ele>885.8</ele><time>2026-05-04T11:27:27Z</time></trkpt><trkpt lat="43.71128581507591" lon="12.154007374922148"><ele>884.6</ele><time>2026-05-04T11:27:28Z</time></trkpt><trkpt lat="43.71126405583658" lon="12.153858730780652"><ele>883.3999999999999</ele><time>2026-05-04T11:27:29Z</time></trkpt><trkpt lat="43.71123887674077" lon="12.153700738624849"><ele>882.1999999999999</ele><time>2026-05-04T11:27:30Z</time></trkpt><trkpt lat="43.71121437095856" lon="12.153555278236816"><ele>881.0</ele><time>2026-05-04T11:27:31Z</time></trkpt><trkpt lat="43.71119257634052" lon="12.153428076071895"><ele>881.0000000000001</ele><time>2026-05-04T11:27:32Z</time></trkpt><trkpt lat="43.71116846722673" lon="12.153308805360732"><ele>881.0</ele><time>2026-05-04T11:27:33Z</time></trkpt><trkpt lat="43.711152780345536" lon="12.153195759291762"><ele>881.0</ele><time>2026-05-04T11:27:34Z</time></trkpt><trkpt lat="43.7111443477291" lon="12.153084415937224"><ele>881.0</ele><time>2026-05-04T11:27:35Z</time></trkpt><trkpt lat="43.71114102444955" lon="12.152959350468874"><ele>881.0000000000001</ele><time>2026-05-04T11:27:36Z</time></trkpt><trkpt lat="43.71113430725877" lon="12.152829215208662"><ele>881.0</ele><time>2026-05-04T11:27:37Z</time></trkpt><trkpt lat="43.71112201562213" lon="12.152700707638168"><ele>880.5999999999999</ele><time>2026-05-04T11:27:38Z</time></trkpt><trkpt lat="43.711113714886494" lon="12.152566885169342"><ele>880.1999999999999</ele><time>2026-05-04T11:27:39Z</time></trkpt><trkpt lat="43.71111603063231" lon="12.152442806513578"><ele>879.8000000000001</ele><time>2026-05-04T11:27:40Z</time></trkpt><trkpt lat="43.71113891613549" lon="12.15231776676986"><ele>879.4000000000001</ele><time>2026-05-04T11:27:41Z</time></trkpt><trkpt lat="43.7111624096639" lon="12.152191052703566"><ele>879.0</ele><time>2026-05-04T11:27:42Z</time></trkpt><trkpt lat="43.71116297589533" lon="12.152060410014691"><ele>879.4000000000001</ele><time>2026-05-04T11:27:43Z</time></trkpt><trkpt lat="43.711141383209764" lon="12.151935067997824"><ele>879.8000000000001</ele><time>2026-05-04T11:27:44Z</time></trkpt><trkpt lat="43.711107951157295" lon="12.15181737023632"><ele>880.1999999999999</ele><time>2026-05-04T11:27:45Z</time></trkpt><trkpt lat="43.711060093028934" lon="12.151697954470226"><ele>880.5999999999999</ele><time>2026-05-04T11:27:46Z</time></trkpt><trkpt lat="43.711006734328286" lon="12.15157774429969"><ele>881.0</ele><time>2026-05-04T11:27:47Z</time></trkpt><trkpt lat="43.71095310456993" lon="12.151460225419854"><ele>881.1999999999999</ele><time>2026-05-04T11:27:48Z</time></trkpt><trkpt lat="43.71089774527201" lon="12.15135021733073"><ele>881.3999999999999</ele><time>2026-05-04T11:27:49Z</time></trkpt><trkpt lat="43.71083929057171" lon="12.151241751616055"><ele>881.6</ele><time>2026-05-04T11:27:50Z</time></trkpt><trkpt lat="43.71077370740855" lon="12.151125482172418"><ele>881.8</ele><time>2026-05-04T11:27:51Z</time></trkpt><trkpt lat="43.71071446135483" lon="12.15100646415057"><ele>882.0</ele><time>2026-05-04T11:27:52Z</time></trkpt><trkpt lat="43.71064966273251" lon="12.150884627717787"><ele>882.0</ele><time>2026-05-04T11:27:53Z</time></trkpt><trkpt lat="43.710578400482724" lon="12.150774804100141"><ele>882.0</ele><time>2026-05-04T11:27:54Z</time></trkpt><trkpt lat="43.710505053212806" lon="12.150665203122463"><ele>882.0</ele><time>2026-05-04T11:27:55Z</time></trkpt><trkpt lat="43.710438250002376" lon="12.150555707552646"><ele>882.0</ele><time>2026-05-04T11:27:56Z</time></trkpt><trkpt lat="43.71038080248336" lon="12.150433362736957"><ele>882.0</ele><time>2026-05-04T11:27:57Z</time></trkpt><trkpt lat="43.71032953539942" lon="12.150308890345451"><ele>881.0</ele><time>2026-05-04T11:27:58Z</time></trkpt><trkpt lat="43.71027613051632" lon="12.150187897460247"><ele>880.0</ele><time>2026-05-04T11:27:59Z</time></trkpt><trkpt lat="43.71022800772982" lon="12.150082638238638"><ele>879.0</ele><time>2026-05-04T11:28:00Z</time></trkpt><trkpt lat="43.710176632126036" lon="12.149982622950859"><ele>878.0</ele><time>2026-05-04T11:28:01Z</time></trkpt><trkpt lat="43.710124494072026" lon="12.14987829873152"><ele>877.0</ele><time>2026-05-04T11:28:02Z</time></trkpt><trkpt lat="43.71007269263525" lon="12.149766405414438"><ele>876.4999999999999</ele><time>2026-05-04T11:28:03Z</time></trkpt><trkpt lat="43.710016055279084" lon="12.149646625888298"><ele>876.0</ele><time>2026-05-04T11:28:04Z</time></trkpt><trkpt lat="43.709962691346895" lon="12.14953293863036"><ele>875.5</ele><time>2026-05-04T11:28:05Z</time></trkpt><trkpt lat="43.709916623661854" lon="12.149432933492484"><ele>875.0</ele><time>2026-05-04T11:28:06Z</time></trkpt><trkpt lat="43.70987100861962" lon="12.14934488417228"><ele>874.4999999999999</ele><time>2026-05-04T11:28:07Z</time></trkpt><trkpt lat="43.7098328271842" lon="12.149241413725116"><ele>874.0</ele><time>2026-05-04T11:28:08Z</time></trkpt><trkpt lat="43.709809934640134" lon="12.149126346236505"><ele>873.4000000000001</ele><time>2026-05-04T11:28:09Z</time></trkpt><trkpt lat="43.70980279558149" lon="12.149008937274226"><ele>872.8000000000001</ele><time>2026-05-04T11:28:10Z</time></trkpt><trkpt lat="43.7098018620411" lon="12.148873020603455"><ele>872.1999999999999</ele><time>2026-05-04T11:28:11Z</time></trkpt><trkpt lat="43.70979818667376" lon="12.148741649426801"><ele>871.5999999999999</ele><time>2026-05-04T11:28:12Z</time></trkpt><trkpt lat="43.70979695684414" lon="12.148595625124273"><ele>871.0</ele><time>2026-05-04T11:28:13Z</time></trkpt><trkpt lat="43.70979260059395" lon="12.148451846349088"><ele>871.0</ele><time>2026-05-04T11:28:14Z</time></trkpt><trkpt lat="43.70978491369725" lon="12.148309892795515"><ele>870.9999999999999</ele><time>2026-05-04T11:28:15Z</time></trkpt><trkpt lat="43.709778107343894" lon="12.14818572385158"><ele>870.9999999999999</ele><time>2026-05-04T11:28:16Z</time></trkpt><trkpt lat="43.70976776988427" lon="12.148044698973248"><ele>871.0</ele><time>2026-05-04T11:28:17Z</time></trkpt><trkpt lat="43.70974835264243" lon="12.147920652050631"><ele>871.0</ele><time>2026-05-04T11:28:18Z</time></trkpt><trkpt lat="43.70972404310673" lon="12.14780974957797"><ele>871.8333333333333</ele><time>2026-05-04T11:28:19Z</time></trkpt><trkpt lat="43.709692135480836" lon="12.147713165603792"><ele>872.6666666666666</ele><time>2026-05-04T11:28:20Z</time></trkpt><trkpt lat="43.70965405592364" lon="12.147595736498149"><ele>873.5</ele><time>2026-05-04T11:28:21Z</time></trkpt><trkpt lat="43.70962737194711" lon="12.147464147012215"><ele>874.3333333333333</ele><time>2026-05-04T11:28:22Z</time></trkpt><trkpt lat="43.70962062955991" lon="12.147352175684366"><ele>875.1666666666666</ele><time>2026-05-04T11:28:23Z</time></trkpt><trkpt lat="43.70962597078312" lon="12.147250021635385"><ele>876.0</ele><time>2026-05-04T11:28:24Z</time></trkpt><trkpt lat="43.70965981532807" lon="12.147080040430597"><ele>877.1999999999999</ele><time>2026-05-04T11:28:26Z</time></trkpt><trkpt lat="43.709674568893085" lon="12.14698919916055"><ele>878.3999999999999</ele><time>2026-05-04T11:28:27Z</time></trkpt><trkpt lat="43.709730472645695" lon="12.146888144686528"><ele>879.6</ele><time>2026-05-04T11:28:29Z</time></trkpt><trkpt lat="43.70982870344725" lon="12.146838279101386"><ele>880.8</ele><time>2026-05-04T11:28:31Z</time></trkpt><trkpt lat="43.70995278245414" lon="12.146771556398795"><ele>882.0</ele><time>2026-05-04T11:28:33Z</time></trkpt><trkpt lat="43.71001864078309" lon="12.146714111503895"><ele>882.0</ele><time>2026-05-04T11:28:34Z</time></trkpt><trkpt lat="43.71005972409339" lon="12.146641402713259"><ele>882.0</ele><time>2026-05-04T11:28:35Z</time></trkpt><trkpt lat="43.71009049629917" lon="12.146546212911817"><ele>882.0</ele><time>2026-05-04T11:28:36Z</time></trkpt><trkpt lat="43.71012263347913" lon="12.146442028617892"><ele>882.0</ele><time>2026-05-04T11:28:37Z</time></trkpt><trkpt lat="43.71014926411864" lon="12.146309093188023"><ele>882.0</ele><time>2026-05-04T11:28:38Z</time></trkpt><trkpt lat="43.7101767679101" lon="12.14618325974977"><ele>882.0</ele><time>2026-05-04T11:28:39Z</time></trkpt><trkpt lat="43.71020762107438" lon="12.146037176491626"><ele>883.0</ele><time>2026-05-04T11:28:40Z</time></trkpt><trkpt lat="43.71023454232492" lon="12.145878861420373"><ele>884.0</ele><time>2026-05-04T11:28:41Z</time></trkpt><trkpt lat="43.710255674010135" lon="12.145736228820436"><ele>885.0</ele><time>2026-05-04T11:28:42Z</time></trkpt><trkpt lat="43.71027448165737" lon="12.145607881050884"><ele>886.0</ele><time>2026-05-04T11:28:43Z</time></trkpt><trkpt lat="43.71028759765041" lon="12.145488379109471"><ele>887.0</ele><time>2026-05-04T11:28:44Z</time></trkpt><trkpt lat="43.71030908547884" lon="12.14537328697905"><ele>884.1666666666667</ele><time>2026-05-04T11:28:45Z</time></trkpt><trkpt lat="43.71033994092013" lon="12.145268171410802"><ele>881.3333333333334</ele><time>2026-05-04T11:28:46Z</time></trkpt><trkpt lat="43.71037927849836" lon="12.145176888336335"><ele>878.5</ele><time>2026-05-04T11:28:47Z</time></trkpt><trkpt lat="43.71044060196155" lon="12.145091128250144"><ele>875.6666666666667</ele><time>2026-05-04T11:28:48Z</time></trkpt><trkpt lat="43.710485633422536" lon="12.14501064168911"><ele>872.8333333333334</ele><time>2026-05-04T11:28:49Z</time></trkpt><trkpt lat="43.71053462617883" lon="12.144866316187759"><ele>870.0</ele><time>2026-05-04T11:28:51Z</time></trkpt><trkpt lat="43.71052653026482" lon="12.14469946665124"><ele>870.0000000000001</ele><time>2026-05-04T11:28:53Z</time></trkpt><trkpt lat="43.71049365752125" lon="12.144609401586964"><ele>870.0</ele><time>2026-05-04T11:28:54Z</time></trkpt><trkpt lat="43.71044936868191" lon="12.144527560192133"><ele>870.0</ele><time>2026-05-04T11:28:55Z</time></trkpt><trkpt lat="43.71040204914967" lon="12.14443496232672"><ele>870.0</ele><time>2026-05-04T11:28:56Z</time></trkpt><trkpt lat="43.71035657245769" lon="12.144350244495957"><ele>870.0</ele><time>2026-05-04T11:28:57Z</time></trkpt><trkpt lat="43.710310420070975" lon="12.144261417817853"><ele>870.0000000000001</ele><time>2026-05-04T11:28:58Z</time></trkpt><trkpt lat="43.71027311231217" lon="12.14419052671541"><ele>870.0</ele><time>2026-05-04T11:28:59Z</time></trkpt><trkpt lat="43.710291299785865" lon="12.144051892000702"><ele>870.2</ele><time>2026-05-04T11:29:00Z</time></trkpt><trkpt lat="43.710217323304576" lon="12.143947853704473"><ele>870.4</ele><time>2026-05-04T11:29:02Z</time></trkpt><trkpt lat="43.71013164376768" lon="12.143798966951781"><ele>870.5999999999999</ele><time>2026-05-04T11:29:04Z</time></trkpt><trkpt lat="43.7100936966256" lon="12.14370315575407"><ele>870.8</ele><time>2026-05-04T11:29:05Z</time></trkpt><trkpt lat="43.71005878930661" lon="12.143596469858146"><ele>871.0</ele><time>2026-05-04T11:29:06Z</time></trkpt><trkpt lat="43.71001229174619" lon="12.143483537260616"><ele>871.0</ele><time>2026-05-04T11:29:07Z</time></trkpt><trkpt lat="43.7099879450286" lon="12.14335187713197"><ele>870.9999999999999</ele><time>2026-05-04T11:29:08Z</time></trkpt><trkpt lat="43.70995313608318" lon="12.14321517998842"><ele>870.9999999999999</ele><time>2026-05-04T11:29:09Z</time></trkpt><trkpt lat="43.70992417213016" lon="12.143075056006484"><ele>871.0</ele><time>2026-05-04T11:29:10Z</time></trkpt><trkpt lat="43.70990709178195" lon="12.142925768066162"><ele>871.0</ele><time>2026-05-04T11:29:11Z</time></trkpt><trkpt lat="43.70986991887423" lon="12.142761529010755"><ele>870.0</ele><time>2026-05-04T11:29:12Z</time></trkpt><trkpt lat="43.70983515778434" lon="12.142607945870585"><ele>869.0</ele><time>2026-05-04T11:29:13Z</time></trkpt><trkpt lat="43.70978824869892" lon="12.142464775040104"><ele>868.0</ele><time>2026-05-04T11:29:14Z</time></trkpt><trkpt lat="43.709758057354755" lon="12.14230241275704"><ele>867.0</ele><time>2026-05-04T11:29:15Z</time></trkpt><trkpt lat="43.70973267773049" lon="12.14214131551044"><ele>866.0</ele><time>2026-05-04T11:29:16Z</time></trkpt><trkpt lat="43.70971207114457" lon="12.141975142662615"><ele>865.0</ele><time>2026-05-04T11:29:17Z</time></trkpt><trkpt lat="43.709694626205035" lon="12.14180289287334"><ele>864.0</ele><time>2026-05-04T11:29:18Z</time></trkpt><trkpt lat="43.709670320670384" lon="12.141633669442017"><ele>863.0</ele><time>2026-05-04T11:29:19Z</time></trkpt><trkpt lat="43.70964368147908" lon="12.141474951616175"><ele>863.0</ele><time>2026-05-04T11:29:20Z</time></trkpt><trkpt lat="43.709611106531" lon="12.141280105527978"><ele>863.0</ele><time>2026-05-04T11:29:21Z</time></trkpt><trkpt lat="43.70957154334911" lon="12.141109365546395"><ele>863.0</ele><time>2026-05-04T11:29:22Z</time></trkpt><trkpt lat="43.70955758426093" lon="12.140929709934172"><ele>863.0</ele><time>2026-05-04T11:29:23Z</time></trkpt><trkpt lat="43.70954134602216" lon="12.14076993481328"><ele>863.4</ele><time>2026-05-04T11:29:24Z</time></trkpt><trkpt lat="43.709528202341275" lon="12.140624253406154"><ele>863.8</ele><time>2026-05-04T11:29:25Z</time></trkpt><trkpt lat="43.70950148726932" lon="12.140475196229652"><ele>864.2</ele><time>2026-05-04T11:29:26Z</time></trkpt><trkpt lat="43.7095020975088" lon="12.14032871094124"><ele>864.6</ele><time>2026-05-04T11:29:27Z</time></trkpt><trkpt lat="43.70948503001206" lon="12.140180235625206"><ele>865.0</ele><time>2026-05-04T11:29:28Z</time></trkpt><trkpt lat="43.70946350904824" lon="12.140030941670172"><ele>865.6</ele><time>2026-05-04T11:29:29Z</time></trkpt><trkpt lat="43.70944097225873" lon="12.13987897547624"><ele>866.2</ele><time>2026-05-04T11:29:30Z</time></trkpt><trkpt lat="43.709437010205335" lon="12.139731590836409"><ele>866.8</ele><time>2026-05-04T11:29:31Z</time></trkpt><trkpt lat="43.70945944904739" lon="12.139592271882405"><ele>867.4</ele><time>2026-05-04T11:29:32Z</time></trkpt><trkpt lat="43.709486494098506" lon="12.139443942733722"><ele>868.0</ele><time>2026-05-04T11:29:33Z</time></trkpt><trkpt lat="43.70950128795075" lon="12.139304387367305"><ele>867.9999999999999</ele><time>2026-05-04T11:29:34Z</time></trkpt><trkpt lat="43.70949913453978" lon="12.139181255682074"><ele>868.0</ele><time>2026-05-04T11:29:35Z</time></trkpt><trkpt lat="43.70949724500133" lon="12.139083143277517"><ele>868.0</ele><time>2026-05-04T11:29:36Z</time></trkpt><trkpt lat="43.70947300688955" lon="12.138999467003881"><ele>868.0</ele><time>2026-05-04T11:29:37Z</time></trkpt><trkpt lat="43.70941606481087" lon="12.13895047402311"><ele>867.9999999999999</ele><time>2026-05-04T11:29:38Z</time></trkpt><trkpt lat="43.70933175801017" lon="12.13893070568894"><ele>868.0</ele><time>2026-05-04T11:29:39Z</time></trkpt><trkpt lat="43.709236776335906" lon="12.138933900990065"><ele>870.5999999999999</ele><time>2026-05-04T11:29:40Z</time></trkpt><trkpt lat="43.70913517186719" lon="12.138965892518828"><ele>873.1999999999999</ele><time>2026-05-04T11:29:41Z</time></trkpt><trkpt lat="43.70903297448938" lon="12.13902255429318"><ele>875.8</ele><time>2026-05-04T11:29:42Z</time></trkpt><trkpt lat="43.7089304483272" lon="12.13911871046926"><ele>878.4</ele><time>2026-05-04T11:29:43Z</time></trkpt><trkpt lat="43.70883847639526" lon="12.139193428062622"><ele>881.0</ele><time>2026-05-04T11:29:44Z</time></trkpt><trkpt lat="43.708738073830105" lon="12.13922051539677"><ele>880.1999999999999</ele><time>2026-05-04T11:29:45Z</time></trkpt><trkpt lat="43.70865019214077" lon="12.139226510925436"><ele>879.3999999999999</ele><time>2026-05-04T11:29:46Z</time></trkpt><trkpt lat="43.708562861271595" lon="12.139214023730311"><ele>878.6</ele><time>2026-05-04T11:29:47Z</time></trkpt><trkpt lat="43.70849244134289" lon="12.139088517465073"><ele>877.8</ele><time>2026-05-04T11:29:48Z</time></trkpt><trkpt lat="43.708408019249475" lon="12.13898057979521"><ele>877.0</ele><time>2026-05-04T11:29:49Z</time></trkpt><trkpt lat="43.70831982888708" lon="12.13888619244558"><ele>874.5</ele><time>2026-05-04T11:29:50Z</time></trkpt><trkpt lat="43.70822633482304" lon="12.13877147696127"><ele>872.0</ele><time>2026-05-04T11:29:51Z</time></trkpt><trkpt lat="43.70812475604925" lon="12.138655247412435"><ele>869.5</ele><time>2026-05-04T11:29:52Z</time></trkpt><trkpt lat="43.708015448636125" lon="12.138552613289672"><ele>867.0</ele><time>2026-05-04T11:29:53Z</time></trkpt><trkpt lat="43.707893157940674" lon="12.138451281351454"><ele>867.0</ele><time>2026-05-04T11:29:54Z</time></trkpt><trkpt lat="43.707761006047875" lon="12.138367145074062"><ele>867.0</ele><time>2026-05-04T11:29:55Z</time></trkpt><trkpt lat="43.707634831461036" lon="12.138276448944664"><ele>867.0</ele><time>2026-05-04T11:29:56Z</time></trkpt><trkpt lat="43.70750333634076" lon="12.138188007131271"><ele>867.0</ele><time>2026-05-04T11:29:57Z</time></trkpt><trkpt lat="43.70737324486311" lon="12.138118930898388"><ele>864.25</ele><time>2026-05-04T11:29:58Z</time></trkpt><trkpt lat="43.70724475203564" lon="12.138069285281611"><ele>861.5</ele><time>2026-05-04T11:29:59Z</time></trkpt><trkpt lat="43.70711877460632" lon="12.138037509261071"><ele>858.75</ele><time>2026-05-04T11:30:00Z</time></trkpt><trkpt lat="43.70699696494193" lon="12.138011884950556"><ele>856.0</ele><time>2026-05-04T11:30:01Z</time></trkpt><trkpt lat="43.706877869334484" lon="12.137980079117678"><ele>854.5</ele><time>2026-05-04T11:30:02Z</time></trkpt><trkpt lat="43.70676604645101" lon="12.13794960523717"><ele>853.0</ele><time>2026-05-04T11:30:03Z</time></trkpt><trkpt lat="43.70664610540448" lon="12.137912639828961"><ele>851.5</ele><time>2026-05-04T11:30:04Z</time></trkpt><trkpt lat="43.706532889873344" lon="12.137836768174338"><ele>850.0</ele><time>2026-05-04T11:30:05Z</time></trkpt><trkpt lat="43.70641212579186" lon="12.137755568507728"><ele>850.0</ele><time>2026-05-04T11:30:06Z</time></trkpt><trkpt lat="43.706290951946485" lon="12.1376876556605"><ele>850.0</ele><time>2026-05-04T11:30:07Z</time></trkpt><trkpt lat="43.706184294121456" lon="12.137592709314701"><ele>850.0</ele><time>2026-05-04T11:30:08Z</time></trkpt><trkpt lat="43.706079774236365" lon="12.137503073438578"><ele>850.0</ele><time>2026-05-04T11:30:09Z</time></trkpt><trkpt lat="43.70599566213282" lon="12.137410532606893"><ele>848.8333333333333</ele><time>2026-05-04T11:30:10Z</time></trkpt><trkpt lat="43.70592948784008" lon="12.137321846044657"><ele>847.6666666666666</ele><time>2026-05-04T11:30:11Z</time></trkpt><trkpt lat="43.70586041463611" lon="12.137245728370559"><ele>846.5</ele><time>2026-05-04T11:30:12Z</time></trkpt><trkpt lat="43.70578749417283" lon="12.137185484629493"><ele>845.3333333333333</ele><time>2026-05-04T11:30:13Z</time></trkpt><trkpt lat="43.70569564783723" lon="12.137195712348868"><ele>844.1666666666666</ele><time>2026-05-04T11:30:14Z</time></trkpt><trkpt lat="43.705609844905666" lon="12.137175295084107"><ele>843.0</ele><time>2026-05-04T11:30:15Z</time></trkpt><trkpt lat="43.70552157255672" lon="12.137149623560473"><ele>843.0</ele><time>2026-05-04T11:30:16Z</time></trkpt><trkpt lat="43.705441985277396" lon="12.137113257967869"><ele>843.0</ele><time>2026-05-04T11:30:17Z</time></trkpt><trkpt lat="43.70536996571931" lon="12.137137884600037"><ele>843.0</ele><time>2026-05-04T11:30:18Z</time></trkpt><trkpt lat="43.705279807814705" lon="12.137149736067085"><ele>843.0</ele><time>2026-05-04T11:30:20Z</time></trkpt><trkpt lat="43.70530425299665" lon="12.136952612153134"><ele>843.0</ele><time>2026-05-04T11:30:23Z</time></trkpt><trkpt lat="43.70533119313875" lon="12.136799186222836"><ele>843.0</ele><time>2026-05-04T11:30:24Z</time></trkpt><trkpt lat="43.70533698166677" lon="12.136707056036679"><ele>843.0</ele><time>2026-05-04T11:30:25Z</time></trkpt><trkpt lat="43.7053431098912" lon="12.136573535688882"><ele>843.0</ele><time>2026-05-04T11:30:26Z</time></trkpt><trkpt lat="43.7053415092172" lon="12.136431737626674"><ele>843.0</ele><time>2026-05-04T11:30:27Z</time></trkpt><trkpt lat="43.70532795347241" lon="12.136294285405423"><ele>843.0</ele><time>2026-05-04T11:30:28Z</time></trkpt><trkpt lat="43.70529098049195" lon="12.136154559113521"><ele>841.2</ele><time>2026-05-04T11:30:29Z</time></trkpt><trkpt lat="43.7052107892948" lon="12.136034021511051"><ele>839.4</ele><time>2026-05-04T11:30:30Z</time></trkpt><trkpt lat="43.705118462324094" lon="12.135931486205317"><ele>837.6</ele><time>2026-05-04T11:30:31Z</time></trkpt><trkpt lat="43.70503602068538" lon="12.13583309776885"><ele>835.8000000000001</ele><time>2026-05-04T11:30:32Z</time></trkpt><trkpt lat="43.70497017688284" lon="12.135734776644853"><ele>834.0</ele><time>2026-05-04T11:30:33Z</time></trkpt><trkpt lat="43.70493287150104" lon="12.135630102716558"><ele>832.2</ele><time>2026-05-04T11:30:34Z</time></trkpt><trkpt lat="43.70491832393395" lon="12.135499196537607"><ele>830.4000000000001</ele><time>2026-05-04T11:30:35Z</time></trkpt><trkpt lat="43.70493544288233" lon="12.13536734950051"><ele>828.6</ele><time>2026-05-04T11:30:36Z</time></trkpt><trkpt lat="43.70499250912658" lon="12.135249880727782"><ele>826.8</ele><time>2026-05-04T11:30:37Z</time></trkpt><trkpt lat="43.70504890414128" lon="12.135132841948932"><ele>825.0</ele><time>2026-05-04T11:30:38Z</time></trkpt><trkpt lat="43.70514271883058" lon="12.135060015073542"><ele>824.8</ele><time>2026-05-04T11:30:39Z</time></trkpt><trkpt lat="43.705252000106384" lon="12.135016992940331"><ele>824.6</ele><time>2026-05-04T11:30:40Z</time></trkpt><trkpt lat="43.705362609635195" lon="12.135012261860107"><ele>824.4000000000001</ele><time>2026-05-04T11:30:41Z</time></trkpt><trkpt lat="43.70546245662971" lon="12.135078344398275"><ele>824.2</ele><time>2026-05-04T11:30:42Z</time></trkpt><trkpt lat="43.705557792243496" lon="12.135146799222449"><ele>824.0</ele><time>2026-05-04T11:30:43Z</time></trkpt><trkpt lat="43.70565901841311" lon="12.135197534286158"><ele>824.0000000000001</ele><time>2026-05-04T11:30:44Z</time></trkpt><trkpt lat="43.70574782974037" lon="12.135265404751044"><ele>824.0</ele><time>2026-05-04T11:30:45Z</time></trkpt><trkpt lat="43.70582794499906" lon="12.135319672884163"><ele>824.0</ele><time>2026-05-04T11:30:46Z</time></trkpt><trkpt lat="43.70589357272863" lon="12.135366537101007"><ele>824.0</ele><time>2026-05-04T11:30:47Z</time></trkpt><trkpt lat="43.705956961526255" lon="12.13540882917788"><ele>824.0000000000001</ele><time>2026-05-04T11:30:48Z</time></trkpt><trkpt lat="43.706020511260604" lon="12.13544391467248"><ele>824.0</ele><time>2026-05-04T11:30:49Z</time></trkpt><trkpt lat="43.70608507462667" lon="12.135470802950346"><ele>823.8000000000001</ele><time>2026-05-04T11:30:50Z</time></trkpt><trkpt lat="43.70619455696991" lon="12.135512343129927"><ele>823.6</ele><time>2026-05-04T11:30:52Z</time></trkpt><trkpt lat="43.706292777223055" lon="12.135534988968262"><ele>823.4</ele><time>2026-05-04T11:30:54Z</time></trkpt><trkpt lat="43.70638922107831" lon="12.13551465446037"><ele>823.2</ele><time>2026-05-04T11:30:56Z</time></trkpt><trkpt lat="43.70646254197179" lon="12.13547374790506"><ele>823.0</ele><time>2026-05-04T11:30:58Z</time></trkpt><trkpt lat="43.706574001510596" lon="12.135374375318658"><ele>823.0</ele><time>2026-05-04T11:31:00Z</time></trkpt><trkpt lat="43.70662574851986" lon="12.135271115320899"><ele>823.0</ele><time>2026-05-04T11:31:01Z</time></trkpt><trkpt lat="43.7066679800224" lon="12.13514420890241"><ele>823.0</ele><time>2026-05-04T11:31:02Z</time></trkpt><trkpt lat="43.706707544091365" lon="12.135007344863041"><ele>823.0</ele><time>2026-05-04T11:31:03Z</time></trkpt><trkpt lat="43.706746172649005" lon="12.134855398242168"><ele>823.0</ele><time>2026-05-04T11:31:04Z</time></trkpt><trkpt lat="43.706790342756726" lon="12.134703914292523"><ele>821.5</ele><time>2026-05-04T11:31:05Z</time></trkpt><trkpt lat="43.70684064084635" lon="12.134544837474293"><ele>820.0</ele><time>2026-05-04T11:31:06Z</time></trkpt><trkpt lat="43.706893812969795" lon="12.134380545450961"><ele>818.5</ele><time>2026-05-04T11:31:07Z</time></trkpt><trkpt lat="43.70694992614779" lon="12.134219002460734"><ele>817.0</ele><time>2026-05-04T11:31:08Z</time></trkpt><trkpt lat="43.70701696889858" lon="12.134071526528736"><ele>814.75</ele><time>2026-05-04T11:31:09Z</time></trkpt><trkpt lat="43.70710445396754" lon="12.133948110123246"><ele>812.5</ele><time>2026-05-04T11:31:10Z</time></trkpt><trkpt lat="43.70721109989998" lon="12.13384727809523"><ele>810.25</ele><time>2026-05-04T11:31:11Z</time></trkpt><trkpt lat="43.707341088357836" lon="12.133777452327058"><ele>808.0</ele><time>2026-05-04T11:31:12Z</time></trkpt><trkpt lat="43.70746793025753" lon="12.13367523531359"><ele>808.0</ele><time>2026-05-04T11:31:13Z</time></trkpt><trkpt lat="43.70760427410757" lon="12.13359491282063"><ele>808.0</ele><time>2026-05-04T11:31:14Z</time></trkpt><trkpt lat="43.70774673728286" lon="12.133502138260887"><ele>808.0</ele><time>2026-05-04T11:31:15Z</time></trkpt><trkpt lat="43.70788218574249" lon="12.133408680466871"><ele>809.25</ele><time>2026-05-04T11:31:16Z</time></trkpt><trkpt lat="43.70801089919214" lon="12.13332264373887"><ele>810.5</ele><time>2026-05-04T11:31:17Z</time></trkpt><trkpt lat="43.708138299677636" lon="12.133237979320038"><ele>811.75</ele><time>2026-05-04T11:31:18Z</time></trkpt><trkpt lat="43.70825122274354" lon="12.133159535831279"><ele>813.0</ele><time>2026-05-04T11:31:19Z</time></trkpt><trkpt lat="43.708359909090746" lon="12.133086649287309"><ele>811.4</ele><time>2026-05-04T11:31:20Z</time></trkpt><trkpt lat="43.7084603285546" lon="12.133008255679957"><ele>809.8</ele><time>2026-05-04T11:31:21Z</time></trkpt><trkpt lat="43.70852736928805" lon="12.13290189484761"><ele>808.2</ele><time>2026-05-04T11:31:22Z</time></trkpt><trkpt lat="43.70857348621412" lon="12.132764752390878"><ele>806.6</ele><time>2026-05-04T11:31:23Z</time></trkpt><trkpt lat="43.70858547703584" lon="12.132606965198795"><ele>805.0</ele><time>2026-05-04T11:31:24Z</time></trkpt><trkpt lat="43.70855890857215" lon="12.13244155334442"><ele>801.75</ele><time>2026-05-04T11:31:25Z</time></trkpt><trkpt lat="43.70850929931502" lon="12.132293878250051"><ele>798.5</ele><time>2026-05-04T11:31:26Z</time></trkpt><trkpt lat="43.70843100797497" lon="12.132178318107506"><ele>795.25</ele><time>2026-05-04T11:31:27Z</time></trkpt><trkpt lat="43.70832447770603" lon="12.132099298309168"><ele>792.0</ele><time>2026-05-04T11:31:28Z</time></trkpt><trkpt lat="43.70819459705592" lon="12.132057632963475"><ele>792.0</ele><time>2026-05-04T11:31:29Z</time></trkpt><trkpt lat="43.708053676738835" lon="12.132039541831304"><ele>792.0</ele><time>2026-05-04T11:31:30Z</time></trkpt><trkpt lat="43.70790765267464" lon="12.132016227522566"><ele>792.0</ele><time>2026-05-04T11:31:31Z</time></trkpt><trkpt lat="43.70775729932442" lon="12.131988364818575"><ele>792.0</ele><time>2026-05-04T11:31:32Z</time></trkpt><trkpt lat="43.70760015691306" lon="12.131953116042833"><ele>790.6666666666667</ele><time>2026-05-04T11:31:33Z</time></trkpt><trkpt lat="43.70744112937181" lon="12.131928413491176"><ele>789.3333333333334</ele><time>2026-05-04T11:31:34Z</time></trkpt><trkpt lat="43.707289104829066" lon="12.131887247418877"><ele>788.0</ele><time>2026-05-04T11:31:35Z</time></trkpt><trkpt lat="43.70715029245161" lon="12.13183205750753"><ele>788.0</ele><time>2026-05-04T11:31:36Z</time></trkpt><trkpt lat="43.70701903634968" lon="12.131761076263489"><ele>788.0</ele><time>2026-05-04T11:31:37Z</time></trkpt><trkpt lat="43.70689463316259" lon="12.131649359054999"><ele>788.0</ele><time>2026-05-04T11:31:38Z</time></trkpt><trkpt lat="43.70676970231693" lon="12.131516414862153"><ele>788.0</ele><time>2026-05-04T11:31:39Z</time></trkpt><trkpt lat="43.70664614928438" lon="12.131373666821137"><ele>784.3333333333334</ele><time>2026-05-04T11:31:40Z</time></trkpt><trkpt lat="43.70652419468943" lon="12.131234462876362"><ele>780.6666666666667</ele><time>2026-05-04T11:31:41Z</time></trkpt><trkpt lat="43.706394346368604" lon="12.131089147329645"><ele>777.0</ele><time>2026-05-04T11:31:42Z</time></trkpt><trkpt lat="43.706268991934195" lon="12.13095242842234"><ele>777.0</ele><time>2026-05-04T11:31:43Z</time></trkpt><trkpt lat="43.70614756565046" lon="12.130817399684462"><ele>777.0</ele><time>2026-05-04T11:31:44Z</time></trkpt><trkpt lat="43.70604303247593" lon="12.130700127347513"><ele>777.0</ele><time>2026-05-04T11:31:45Z</time></trkpt><trkpt lat="43.705939941878974" lon="12.130600447306941"><ele>777.0</ele><time>2026-05-04T11:31:46Z</time></trkpt><trkpt lat="43.70582974135526" lon="12.130531282476031"><ele>774.75</ele><time>2026-05-04T11:31:47Z</time></trkpt><trkpt lat="43.70570361580732" lon="12.130499279997403"><ele>772.5</ele><time>2026-05-04T11:31:48Z</time></trkpt><trkpt lat="43.70557089366304" lon="12.130501747290158"><ele>770.25</ele><time>2026-05-04T11:31:49Z</time></trkpt><trkpt lat="43.70543252870706" lon="12.130515380311664"><ele>768.0</ele><time>2026-05-04T11:31:50Z</time></trkpt><trkpt lat="43.70530556020355" lon="12.130527630969379"><ele>768.5</ele><time>2026-05-04T11:31:51Z</time></trkpt><trkpt lat="43.705190720176255" lon="12.130527352895347"><ele>769.0</ele><time>2026-05-04T11:31:52Z</time></trkpt><trkpt lat="43.70508758096613" lon="12.130517300245192"><ele>769.5</ele><time>2026-05-04T11:31:53Z</time></trkpt><trkpt lat="43.70499956660739" lon="12.130506849059143"><ele>770.0</ele><time>2026-05-04T11:31:54Z</time></trkpt><trkpt lat="43.70492238745963" lon="12.130491554252714"><ele>770.5</ele><time>2026-05-04T11:31:55Z</time></trkpt><trkpt lat="43.70485930011471" lon="12.13047435659721"><ele>771.0</ele><time>2026-05-04T11:31:56Z</time></trkpt><trkpt lat="43.70478578332118" lon="12.130386966332024"><ele>771.0</ele><time>2026-05-04T11:31:58Z</time></trkpt><trkpt lat="43.70470170559634" lon="12.130283170403171"><ele>771.0</ele><time>2026-05-04T11:32:00Z</time></trkpt><trkpt lat="43.7046346571118" lon="12.130218529453197"><ele>771.0</ele><time>2026-05-04T11:32:01Z</time></trkpt><trkpt lat="43.704375435905774" lon="12.130439491590721"><ele>771.7142857142858</ele><time>2026-05-04T11:32:03Z</time></trkpt><trkpt lat="43.70431777267396" lon="12.130483515100865"><ele>772.4285714285713</ele><time>2026-05-04T11:32:04Z</time></trkpt><trkpt lat="43.70425411815548" lon="12.130553884075862"><ele>773.1428571428571</ele><time>2026-05-04T11:32:05Z</time></trkpt><trkpt lat="43.70419351774414" lon="12.130633672729966"><ele>773.8571428571429</ele><time>2026-05-04T11:32:06Z</time></trkpt><trkpt lat="43.70414379275199" lon="12.1306993547591"><ele>774.5714285714287</ele><time>2026-05-04T11:32:07Z</time></trkpt><trkpt lat="43.70409413753906" lon="12.130761297276452"><ele>775.2857142857142</ele><time>2026-05-04T11:32:08Z</time></trkpt><trkpt lat="43.704030310675726" lon="12.130830365546561"><ele>776.0</ele><time>2026-05-04T11:32:09Z</time></trkpt><trkpt lat="43.703957108981044" lon="12.13088959762181"><ele>776.0000000000001</ele><time>2026-05-04T11:32:10Z</time></trkpt><trkpt lat="43.703878757347866" lon="12.130962850963856"><ele>776.0</ele><time>2026-05-04T11:32:11Z</time></trkpt><trkpt lat="43.70380964516659" lon="12.131046559829974"><ele>776.0</ele><time>2026-05-04T11:32:12Z</time></trkpt><trkpt lat="43.703747879561206" lon="12.131124777866225"><ele>776.0</ele><time>2026-05-04T11:32:13Z</time></trkpt><trkpt lat="43.703685267553205" lon="12.131192394590764"><ele>776.0000000000001</ele><time>2026-05-04T11:32:14Z</time></trkpt><trkpt lat="43.70360815454958" lon="12.131263521131645"><ele>776.0</ele><time>2026-05-04T11:32:16Z</time></trkpt><trkpt lat="43.703557209767155" lon="12.13118297167612"><ele>776.5000000000001</ele><time>2026-05-04T11:32:19Z</time></trkpt><trkpt lat="43.70350899816038" lon="12.1311178479175"><ele>777.0</ele><time>2026-05-04T11:32:23Z</time></trkpt><trkpt lat="43.703442764690074" lon="12.131168451393162"><ele>777.5</ele><time>2026-05-04T11:32:25Z</time></trkpt><trkpt lat="43.70336200976156" lon="12.131223041994366"><ele>778.0</ele><time>2026-05-04T11:32:27Z</time></trkpt><trkpt lat="43.703292780174536" lon="12.131303114658646"><ele>778.5000000000001</ele><time>2026-05-04T11:32:29Z</time></trkpt><trkpt lat="43.70323773790367" lon="12.131414839693235"><ele>779.0</ele><time>2026-05-04T11:32:31Z</time></trkpt><trkpt lat="43.70319354035188" lon="12.13150034611077"><ele>779.0000000000001</ele><time>2026-05-04T11:32:50.001Z</time></trkpt><trkpt lat="43.70325240803537" lon="12.131444893255257"><ele>779.0</ele><time>2026-05-04T11:32:53.001Z</time></trkpt><trkpt lat="43.703290388742616" lon="12.131315884583126"><ele>779.0</ele><time>2026-05-04T11:32:55.001Z</time></trkpt><trkpt lat="43.703340647284165" lon="12.131244521409734"><ele>779.0</ele><time>2026-05-04T11:32:57.001Z</time></trkpt><trkpt lat="43.7034009161238" lon="12.131184119612447"><ele>779.0000000000001</ele><time>2026-05-04T11:33:01.001Z</time></trkpt><trkpt lat="43.70348661771425" lon="12.131162363485005"><ele>779.0</ele><time>2026-05-04T11:33:04.001Z</time></trkpt><trkpt lat="43.703569708059405" lon="12.13120065705679"><ele>778.5000000000001</ele><time>2026-05-04T11:33:06.001Z</time></trkpt><trkpt lat="43.70362189954957" lon="12.131257644870765"><ele>778.0</ele><time>2026-05-04T11:33:08.001Z</time></trkpt><trkpt lat="43.70370579636944" lon="12.13119602960697"><ele>777.5</ele><time>2026-05-04T11:33:11.001Z</time></trkpt><trkpt lat="43.703707960953956" lon="12.131094475909014"><ele>777.0</ele><time>2026-05-04T11:33:14.001Z</time></trkpt><trkpt lat="43.70367972436038" lon="12.131012779370332"><ele>776.5000000000001</ele><time>2026-05-04T11:33:17Z</time></trkpt><trkpt lat="43.703654272354676" lon="12.13090009938353"><ele>776.0</ele><time>2026-05-04T11:33:20Z</time></trkpt><trkpt lat="43.703623582675284" lon="12.130811558418262"><ele>776.5000000000001</ele><time>2026-05-04T11:33:22Z</time></trkpt><trkpt lat="43.703562245840736" lon="12.130781445394335"><ele>777.0</ele><time>2026-05-04T11:33:24Z</time></trkpt><trkpt lat="43.70349082766345" lon="12.130809757178513"><ele>777.5</ele><time>2026-05-04T11:33:27Z</time></trkpt><trkpt lat="43.70342378857161" lon="12.130832729851049"><ele>778.0</ele><time>2026-05-04T11:33:32Z</time></trkpt><trkpt lat="43.70334511773981" lon="12.130829089377277"><ele>778.5000000000001</ele><time>2026-05-04T11:33:34Z</time></trkpt><trkpt lat="43.70328096443783" lon="12.130762639527545"><ele>779.0</ele><time>2026-05-04T11:33:36Z</time></trkpt><trkpt lat="43.70319384183741" lon="12.130675485234793"><ele>779.0000000000001</ele><time>2026-05-04T11:33:38Z</time></trkpt><trkpt lat="43.703112074569596" lon="12.130637832819778"><ele>779.0</ele><time>2026-05-04T11:33:41Z</time></trkpt><trkpt lat="43.70304145627918" lon="12.130683615091074"><ele>779.0</ele><time>2026-05-04T11:33:43Z</time></trkpt><trkpt lat="43.70296061032232" lon="12.130721232653219"><ele>779.0</ele><time>2026-05-04T11:33:45Z</time></trkpt><trkpt lat="43.702870924997264" lon="12.130776093073859"><ele>779.0000000000001</ele><time>2026-05-04T11:33:47Z</time></trkpt><trkpt lat="43.702797670522955" lon="12.130786044942484"><ele>779.0</ele><time>2026-05-04T11:33:49Z</time></trkpt><trkpt lat="43.702692723186914" lon="12.130723899136804"><ele>781.5000000000001</ele><time>2026-05-04T11:33:51Z</time></trkpt><trkpt lat="43.70262498108858" lon="12.130614111869091"><ele>784.0</ele><time>2026-05-04T11:33:53Z</time></trkpt><trkpt lat="43.702558579008624" lon="12.130505717499698"><ele>786.5</ele><time>2026-05-04T11:33:55Z</time></trkpt><trkpt lat="43.70252084681374" lon="12.130384530380013"><ele>789.0</ele><time>2026-05-04T11:33:57Z</time></trkpt><trkpt lat="43.70247438488867" lon="12.13030357131026"><ele>791.5000000000001</ele><time>2026-05-04T11:33:59Z</time></trkpt><trkpt lat="43.70241869334669" lon="12.13026066825854"><ele>794.0</ele><time>2026-05-04T11:34:00Z</time></trkpt><trkpt lat="43.70235232587317" lon="12.130164845993868"><ele>794.0</ele><time>2026-05-04T11:34:02Z</time></trkpt><trkpt lat="43.70228460255025" lon="12.130067204596521"><ele>794.0</ele><time>2026-05-04T11:34:04Z</time></trkpt><trkpt lat="43.70221739444872" lon="12.129951052213865"><ele>794.0</ele><time>2026-05-04T11:34:06Z</time></trkpt><trkpt lat="43.70216653924966" lon="12.129831498803302"><ele>794.0</ele><time>2026-05-04T11:34:08Z</time></trkpt><trkpt lat="43.70215664697925" lon="12.129685852311445"><ele>794.0</ele><time>2026-05-04T11:34:10Z</time></trkpt><trkpt lat="43.70211151191081" lon="12.129566967620924"><ele>797.0</ele><time>2026-05-04T11:34:12Z</time></trkpt><trkpt lat="43.702039189649405" lon="12.129478270114367"><ele>800.0</ele><time>2026-05-04T11:34:14Z</time></trkpt><trkpt lat="43.70196437712847" lon="12.129403938191844"><ele>803.0</ele><time>2026-05-04T11:34:16Z</time></trkpt><trkpt lat="43.70186031709969" lon="12.129381587353329"><ele>806.0</ele><time>2026-05-04T11:34:18Z</time></trkpt><trkpt lat="43.70179395263043" lon="12.129364159546647"><ele>809.0</ele><time>2026-05-04T11:34:19Z</time></trkpt><trkpt lat="43.70166913491381" lon="12.12930416420448"><ele>809.0</ele><time>2026-05-04T11:34:21.001Z</time></trkpt><trkpt lat="43.7015530424123" lon="12.129269481353264"><ele>809.0</ele><time>2026-05-04T11:34:23.001Z</time></trkpt><trkpt lat="43.70146452472965" lon="12.129221857572464"><ele>809.0</ele><time>2026-05-04T11:34:25.001Z</time></trkpt><trkpt lat="43.7014085036284" lon="12.129094593606162"><ele>809.0</ele><time>2026-05-04T11:34:27.001Z</time></trkpt><trkpt lat="43.70136335153418" lon="12.12895555634631"><ele>809.0</ele><time>2026-05-04T11:34:29.001Z</time></trkpt><trkpt lat="43.701329333808175" lon="12.12881739122002"><ele>812.5000000000001</ele><time>2026-05-04T11:34:31.001Z</time></trkpt><trkpt lat="43.70131491658206" lon="12.128680292377938"><ele>816.0</ele><time>2026-05-04T11:34:33.001Z</time></trkpt><trkpt lat="43.70131744768681" lon="12.128585142989971"><ele>819.5</ele><time>2026-05-04T11:34:34.001Z</time></trkpt><trkpt lat="43.70129359148064" lon="12.128441088556345"><ele>823.0</ele><time>2026-05-04T11:34:36.001Z</time></trkpt><trkpt lat="43.70124828443358" lon="12.128371942711672"><ele>826.5000000000001</ele><time>2026-05-04T11:34:38.001Z</time></trkpt><trkpt lat="43.70118347280829" lon="12.128322142299508"><ele>830.0</ele><time>2026-05-04T11:34:40.001Z</time></trkpt><trkpt lat="43.70114062522987" lon="12.128214953901173"><ele>831.0000000000001</ele><time>2026-05-04T11:34:42.001Z</time></trkpt><trkpt lat="43.70109428757812" lon="12.12811502098514"><ele>832.0</ele><time>2026-05-04T11:34:44.001Z</time></trkpt><trkpt lat="43.70108248817018" lon="12.127989244998666"><ele>833.0</ele><time>2026-05-04T11:34:46.001Z</time></trkpt><trkpt lat="43.70106219637813" lon="12.127874219958448"><ele>834.0</ele><time>2026-05-04T11:34:48.001Z</time></trkpt><trkpt lat="43.701019822899994" lon="12.127756668193404"><ele>835.0000000000001</ele><time>2026-05-04T11:34:51.001Z</time></trkpt><trkpt lat="43.70097939879358" lon="12.127651650275219"><ele>836.0</ele><time>2026-05-04T11:34:53.001Z</time></trkpt><trkpt lat="43.70091412676536" lon="12.127571324645237"><ele>836.0</ele><time>2026-05-04T11:34:55.001Z</time></trkpt><trkpt lat="43.700849199985264" lon="12.127510069789311"><ele>836.0</ele><time>2026-05-04T11:34:59.001Z</time></trkpt><trkpt lat="43.70078416845274" lon="12.127607969587073"><ele>836.0</ele><time>2026-05-04T11:35:02.001Z</time></trkpt><trkpt lat="43.70072600648497" lon="12.127722533996463"><ele>836.0</ele><time>2026-05-04T11:35:04.001Z</time></trkpt><trkpt lat="43.700608736278035" lon="12.127735906620636"><ele>836.0</ele><time>2026-05-04T11:35:06.001Z</time></trkpt><trkpt lat="43.70054703670031" lon="12.127718357505843"><ele>836.0000000000001</ele><time>2026-05-04T11:35:07.001Z</time></trkpt><trkpt lat="43.70049077134467" lon="12.127672024060917"><ele>836.0</ele><time>2026-05-04T11:35:08.001Z</time></trkpt><trkpt lat="43.70041151008748" lon="12.127556886519514"><ele>836.0</ele><time>2026-05-04T11:35:10.001Z</time></trkpt><trkpt lat="43.700409806611624" lon="12.127469249724413"><ele>836.0</ele><time>2026-05-04T11:35:11.001Z</time></trkpt><trkpt lat="43.70038901894539" lon="12.12731021085011"><ele>836.0000000000001</ele><time>2026-05-04T11:35:13.001Z</time></trkpt><trkpt lat="43.70037774407902" lon="12.12721787910524"><ele>836.0</ele><time>2026-05-04T11:35:15.001Z</time></trkpt><trkpt lat="43.700307097613006" lon="12.127090141137703"><ele>838.8333333333334</ele><time>2026-05-04T11:36:14Z</time></trkpt><trkpt lat="43.70026244184926" lon="12.127024350029496"><ele>841.6666666666667</ele><time>2026-05-04T11:36:15Z</time></trkpt><trkpt lat="43.7001990563332" lon="12.126969484797666"><ele>844.5</ele><time>2026-05-04T11:36:16Z</time></trkpt><trkpt lat="43.70013264271827" lon="12.12693456985465"><ele>847.3333333333333</ele><time>2026-05-04T11:36:17Z</time></trkpt><trkpt lat="43.700057555438775" lon="12.126888703890865"><ele>850.1666666666666</ele><time>2026-05-04T11:36:18Z</time></trkpt><trkpt lat="43.699966935049304" lon="12.126843265323618"><ele>853.0</ele><time>2026-05-04T11:36:19Z</time></trkpt><trkpt lat="43.699893521292296" lon="12.126788412297222"><ele>852.9999999999999</ele><time>2026-05-04T11:36:20Z</time></trkpt><trkpt lat="43.699815599789964" lon="12.12669223647438"><ele>853.0</ele><time>2026-05-04T11:36:22Z</time></trkpt><trkpt lat="43.6997859570278" lon="12.12661478383591"><ele>853.0</ele><time>2026-05-04T11:36:23Z</time></trkpt><trkpt lat="43.699768527670514" lon="12.126524429905384"><ele>853.0</ele><time>2026-05-04T11:36:24Z</time></trkpt><trkpt lat="43.69976595251521" lon="12.126412707088923"><ele>852.9999999999999</ele><time>2026-05-04T11:36:25Z</time></trkpt><trkpt lat="43.699747303312996" lon="12.12626436645219"><ele>853.0</ele><time>2026-05-04T11:36:26Z</time></trkpt><trkpt lat="43.6997247104068" lon="12.1261390030044"><ele>854.1428571428571</ele><time>2026-05-04T11:36:27.001Z</time></trkpt><trkpt lat="43.699736287625385" lon="12.1260430022422"><ele>855.2857142857143</ele><time>2026-05-04T11:36:28.001Z</time></trkpt><trkpt lat="43.69976337423657" lon="12.12595451568046"><ele>856.4285714285714</ele><time>2026-05-04T11:36:29.001Z</time></trkpt><trkpt lat="43.69978146788235" lon="12.125862014982314"><ele>857.5714285714286</ele><time>2026-05-04T11:36:30.001Z</time></trkpt><trkpt lat="43.69979904394695" lon="12.125751456945979"><ele>858.7142857142858</ele><time>2026-05-04T11:36:31.001Z</time></trkpt><trkpt lat="43.69981608073249" lon="12.125650985948527"><ele>859.8571428571429</ele><time>2026-05-04T11:36:32.001Z</time></trkpt><trkpt lat="43.69985133044403" lon="12.125562932494102"><ele>861.0</ele><time>2026-05-04T11:36:33.001Z</time></trkpt><trkpt lat="43.69996501995018" lon="12.125491481603548"><ele>861.0</ele><time>2026-05-04T11:36:35.001Z</time></trkpt><trkpt lat="43.69996092667462" lon="12.125392886360494"><ele>860.9999999999999</ele><time>2026-05-04T11:36:40.001Z</time></trkpt><trkpt lat="43.69988681069385" lon="12.125324119844134"><ele>860.9999999999999</ele><time>2026-05-04T11:37:11.001Z</time></trkpt><trkpt lat="43.699826248128666" lon="12.125236813450524"><ele>861.0</ele><time>2026-05-04T11:37:13.001Z</time></trkpt><trkpt lat="43.69974631587124" lon="12.125122565497264"><ele>861.0</ele><time>2026-05-04T11:37:15.001Z</time></trkpt><trkpt lat="43.69966868686607" lon="12.12501075399383"><ele>861.0</ele><time>2026-05-04T11:37:17.001Z</time></trkpt><trkpt lat="43.699594068074205" lon="12.124902792914467"><ele>860.9999999999999</ele><time>2026-05-04T11:37:19.001Z</time></trkpt><trkpt lat="43.69952735061699" lon="12.124799053353405"><ele>860.9999999999999</ele><time>2026-05-04T11:37:21.001Z</time></trkpt><trkpt lat="43.69945050950486" lon="12.12468706054986"><ele>861.0</ele><time>2026-05-04T11:37:23.001Z</time></trkpt><trkpt lat="43.699374297965306" lon="12.124598804997618"><ele>861.0</ele><time>2026-05-04T11:37:25.001Z</time></trkpt><trkpt lat="43.69927161996867" lon="12.124524260389741"><ele>863.8</ele><time>2026-05-04T11:37:27.001Z</time></trkpt><trkpt lat="43.6991994227699" lon="12.1244885581463"><ele>866.5999999999999</ele><time>2026-05-04T11:37:28.001Z</time></trkpt><trkpt lat="43.69908744069578" lon="12.124422645988377"><ele>869.4</ele><time>2026-05-04T11:37:30.001Z</time></trkpt><trkpt lat="43.699024282736254" lon="12.12430955150891"><ele>872.2</ele><time>2026-05-04T11:37:32.001Z</time></trkpt><trkpt lat="43.69894462977455" lon="12.124166799081227"><ele>875.0</ele><time>2026-05-04T11:37:34.001Z</time></trkpt><trkpt lat="43.698878489465265" lon="12.124084564231936"><ele>873.8</ele><time>2026-05-04T11:37:35.001Z</time></trkpt><trkpt lat="43.69880786619304" lon="12.123979931488034"><ele>872.6</ele><time>2026-05-04T11:37:37.001Z</time></trkpt><trkpt lat="43.69872247183194" lon="12.123889323625063"><ele>871.4000000000001</ele><time>2026-05-04T11:37:40.001Z</time></trkpt><trkpt lat="43.69866185485946" lon="12.123811206821037"><ele>870.2</ele><time>2026-05-04T11:37:42.001Z</time></trkpt><trkpt lat="43.69858443702368" lon="12.12374610477224"><ele>869.0</ele><time>2026-05-04T11:37:45.001Z</time></trkpt><trkpt lat="43.698728643600326" lon="12.123839429798783"><ele>869.0000000000001</ele><time>2026-05-04T11:38:16.001Z</time></trkpt><trkpt lat="43.69880802868647" lon="12.123938116612889"><ele>869.0</ele><time>2026-05-04T11:38:18.001Z</time></trkpt><trkpt lat="43.698871503844174" lon="12.124023115793134"><ele>869.0</ele><time>2026-05-04T11:38:20.001Z</time></trkpt><trkpt lat="43.698928933677955" lon="12.124108525188719"><ele>869.0</ele><time>2026-05-04T11:38:22.001Z</time></trkpt><trkpt lat="43.69898044855495" lon="12.124202401843055"><ele>869.0000000000001</ele><time>2026-05-04T11:38:24.001Z</time></trkpt><trkpt lat="43.69902618855605" lon="12.124267380007703"><ele>869.0</ele><time>2026-05-04T11:38:26.001Z</time></trkpt><trkpt lat="43.699072932845596" lon="12.1243427116552"><ele>869.8571428571429</ele><time>2026-05-04T11:38:28.001Z</time></trkpt><trkpt lat="43.699092621953845" lon="12.124431892590232"><ele>870.7142857142857</ele><time>2026-05-04T11:38:49.001Z</time></trkpt><trkpt lat="43.69915903800154" lon="12.12445639801627"><ele>871.5714285714286</ele><time>2026-05-04T11:38:53.001Z</time></trkpt><trkpt lat="43.69908400111411" lon="12.124409184592903"><ele>872.4285714285714</ele><time>2026-05-04T11:39:12.001Z</time></trkpt><trkpt lat="43.69904049662342" lon="12.12433051965149"><ele>873.2857142857142</ele><time>2026-05-04T11:39:14.001Z</time></trkpt><trkpt lat="43.69899413465039" lon="12.124233457532302"><ele>874.1428571428571</ele><time>2026-05-04T11:39:16.001Z</time></trkpt><trkpt lat="43.69894449035672" lon="12.124161108163628"><ele>875.0</ele><time>2026-05-04T11:39:17.001Z</time></trkpt><trkpt lat="43.698901440438554" lon="12.124091028197045"><ele>874.0000000000001</ele><time>2026-05-04T11:39:18.001Z</time></trkpt><trkpt lat="43.698856092994525" lon="12.12402562292674"><ele>873.0</ele><time>2026-05-04T11:39:19.001Z</time></trkpt><trkpt lat="43.6987685455624" lon="12.123927234394484"><ele>872.0</ele><time>2026-05-04T11:39:21.001Z</time></trkpt><trkpt lat="43.698718718582505" lon="12.12386658331052"><ele>871.0</ele><time>2026-05-04T11:39:22.001Z</time></trkpt><trkpt lat="43.69865924805395" lon="12.123809417554396"><ele>870.0000000000001</ele><time>2026-05-04T11:39:23.001Z</time></trkpt><trkpt lat="43.69860514774607" lon="12.123745442863212"><ele>869.0</ele><time>2026-05-04T11:39:24.001Z</time></trkpt><trkpt lat="43.6985601246916" lon="12.123674015065236"><ele>872.0</ele><time>2026-05-04T11:39:25.001Z</time></trkpt><trkpt lat="43.69850791693583" lon="12.123608822909366"><ele>875.0000000000001</ele><time>2026-05-04T11:39:26.001Z</time></trkpt><trkpt lat="43.69838843215907" lon="12.123558552457101"><ele>878.0000000000001</ele><time>2026-05-04T11:39:28.001Z</time></trkpt><trkpt lat="43.69826532818649" lon="12.123502864190968"><ele>881.0</ele><time>2026-05-04T11:39:30.001Z</time></trkpt><trkpt lat="43.698202318960405" lon="12.123474875178688"><ele>884.0</ele><time>2026-05-04T11:39:31.001Z</time></trkpt><trkpt lat="43.698132550945644" lon="12.123452423756957"><ele>884.0</ele><time>2026-05-04T11:39:32.001Z</time></trkpt><trkpt lat="43.6980084702832" lon="12.123440350261658"><ele>884.0000000000001</ele><time>2026-05-04T11:39:34.001Z</time></trkpt><trkpt lat="43.69790937871366" lon="12.123440715278706"><ele>884.0000000000001</ele><time>2026-05-04T11:39:36.001Z</time></trkpt><trkpt lat="43.697854399100336" lon="12.123357540646868"><ele>884.0</ele><time>2026-05-04T11:39:38.001Z</time></trkpt><trkpt lat="43.69779062180159" lon="12.123205849084675"><ele>884.0</ele><time>2026-05-04T11:39:40.001Z</time></trkpt><trkpt lat="43.697736467826935" lon="12.123107379852017"><ele>885.0000000000001</ele><time>2026-05-04T11:39:41.001Z</time></trkpt><trkpt lat="43.69768416248047" lon="12.123040330527656"><ele>886.0</ele><time>2026-05-04T11:39:42.001Z</time></trkpt><trkpt lat="43.69762203439534" lon="12.123020716451492"><ele>887.0</ele><time>2026-05-04T11:39:43.001Z</time></trkpt><trkpt lat="43.69755667194754" lon="12.123012740633525"><ele>888.0</ele><time>2026-05-04T11:39:44.001Z</time></trkpt><trkpt lat="43.697476704093745" lon="12.122983546922413"><ele>889.0000000000001</ele><time>2026-05-04T11:39:45.001Z</time></trkpt><trkpt lat="43.69736603454006" lon="12.122974316871716"><ele>890.0</ele><time>2026-05-04T11:39:47.001Z</time></trkpt><trkpt lat="43.697248259929886" lon="12.122961876997067"><ele>890.0</ele><time>2026-05-04T11:39:49.001Z</time></trkpt><trkpt lat="43.697172767193535" lon="12.122957608664363"><ele>890.0</ele><time>2026-05-04T11:39:50.001Z</time></trkpt><trkpt lat="43.69705122785305" lon="12.122960460328827"><ele>890.0</ele><time>2026-05-04T11:39:52.001Z</time></trkpt><trkpt lat="43.696979244823744" lon="12.12295092121434"><ele>890.0</ele><time>2026-05-04T11:39:54.001Z</time></trkpt><trkpt lat="43.69689892940167" lon="12.122937441438072"><ele>890.0</ele><time>2026-05-04T11:40:23Z</time></trkpt><trkpt lat="43.69678066481965" lon="12.122926304885798"><ele>891.0</ele><time>2026-05-04T11:40:25Z</time></trkpt><trkpt lat="43.696679422380036" lon="12.122916618829215"><ele>892.0</ele><time>2026-05-04T11:40:27Z</time></trkpt><trkpt lat="43.69654755594869" lon="12.12290617343907"><ele>893.0</ele><time>2026-05-04T11:40:29.001Z</time></trkpt><trkpt lat="43.696472215286256" lon="12.122900422807804"><ele>894.0</ele><time>2026-05-04T11:40:30.001Z</time></trkpt><trkpt lat="43.69640815259957" lon="12.122900514806977"><ele>895.0</ele><time>2026-05-04T11:40:31.001Z</time></trkpt><trkpt lat="43.69631392393093" lon="12.122898308151782"><ele>894.9999999999999</ele><time>2026-05-04T11:40:33.001Z</time></trkpt><trkpt lat="43.696194710817686" lon="12.122883671961826"><ele>895.0</ele><time>2026-05-04T11:40:35.001Z</time></trkpt><trkpt lat="43.69612213992812" lon="12.122870226215136"><ele>895.0</ele><time>2026-05-04T11:40:36.001Z</time></trkpt><trkpt lat="43.696048328756575" lon="12.122854620636952"><ele>895.0</ele><time>2026-05-04T11:40:37.001Z</time></trkpt><trkpt lat="43.69598459686191" lon="12.122843201084018"><ele>894.9999999999999</ele><time>2026-05-04T11:40:38.001Z</time></trkpt><trkpt lat="43.69587115031894" lon="12.1228284689525"><ele>895.0</ele><time>2026-05-04T11:40:40.001Z</time></trkpt><trkpt lat="43.695768810042544" lon="12.12278872457445"><ele>896.6</ele><time>2026-05-04T11:40:42.001Z</time></trkpt><trkpt lat="43.695655942285995" lon="12.122727812687415"><ele>898.2</ele><time>2026-05-04T11:40:44.001Z</time></trkpt><trkpt lat="43.69556343898909" lon="12.122684340510647"><ele>899.8</ele><time>2026-05-04T11:40:46.001Z</time></trkpt><trkpt lat="43.69545714014523" lon="12.12261517441973"><ele>901.4</ele><time>2026-05-04T11:40:48.001Z</time></trkpt><trkpt lat="43.69536528196016" lon="12.122529000232094"><ele>903.0</ele><time>2026-05-04T11:40:50.001Z</time></trkpt><trkpt lat="43.695279440443535" lon="12.122448146440872"><ele>903.8333333333334</ele><time>2026-05-04T11:40:52.001Z</time></trkpt><trkpt lat="43.695194635973465" lon="12.122387931086614"><ele>904.6666666666667</ele><time>2026-05-04T11:40:54.001Z</time></trkpt><trkpt lat="43.69510524018723" lon="12.122330412948976"><ele>905.5</ele><time>2026-05-04T11:40:56.001Z</time></trkpt><trkpt lat="43.69505364142872" lon="12.122269590539203"><ele>906.3333333333334</ele><time>2026-05-04T11:40:58.001Z</time></trkpt><trkpt lat="43.695000282019734" lon="12.122202997500322"><ele>907.1666666666667</ele><time>2026-05-04T11:41:01.001Z</time></trkpt><trkpt lat="43.69499480326715" lon="12.12211092526079"><ele>908.0</ele><time>2026-05-04T11:41:11.001Z</time></trkpt><trkpt lat="43.694953773073664" lon="12.122013840839834"><ele>908.0000000000001</ele><time>2026-05-04T11:41:14.001Z</time></trkpt><trkpt lat="43.694973724096265" lon="12.12190995145628"><ele>908.0</ele><time>2026-05-04T11:41:21.001Z</time></trkpt><trkpt lat="43.69503875236612" lon="12.121869074199392"><ele>908.0</ele><time>2026-05-04T11:41:25.001Z</time></trkpt><trkpt lat="43.695047112258614" lon="12.12196618277473"><ele>908.0</ele><time>2026-05-04T11:41:30.001Z</time></trkpt><trkpt lat="43.694966084140944" lon="12.12199405398818"><ele>908.0000000000001</ele><time>2026-05-04T11:41:33.001Z</time></trkpt><trkpt lat="43.6949036167232" lon="12.122053695261062"><ele>908.0</ele><time>2026-05-04T11:41:35.001Z</time></trkpt><trkpt lat="43.694832000162656" lon="12.122035978328684"><ele>908.0</ele><time>2026-05-04T11:47:23Z</time></trkpt><trkpt lat="43.69473698680983" lon="12.121974292541507"><ele>908.0</ele><time>2026-05-04T11:47:26Z</time></trkpt><trkpt lat="43.69466114370447" lon="12.12191430201245"><ele>908.0</ele><time>2026-05-04T11:47:28Z</time></trkpt><trkpt lat="43.69458595206035" lon="12.121866802778639"><ele>908.0</ele><time>2026-05-04T11:47:30Z</time></trkpt><trkpt lat="43.694503336541985" lon="12.121827676693561"><ele>908.0</ele><time>2026-05-04T11:47:32Z</time></trkpt><trkpt lat="43.694425508129136" lon="12.121730713173282"><ele>910.8333333333334</ele><time>2026-05-04T11:47:34Z</time></trkpt><trkpt lat="43.69435236315554" lon="12.121654932285725"><ele>913.6666666666667</ele><time>2026-05-04T11:47:36Z</time></trkpt><trkpt lat="43.694290561234254" lon="12.121591604682944"><ele>916.5</ele><time>2026-05-04T11:47:40Z</time></trkpt><trkpt lat="43.69422499454291" lon="12.12155015246508"><ele>919.3333333333333</ele><time>2026-05-04T11:47:43Z</time></trkpt><trkpt lat="43.69416275211754" lon="12.121505625361467"><ele>922.1666666666666</ele><time>2026-05-04T11:48:14Z</time></trkpt><trkpt lat="43.69410994703146" lon="12.121434714655237"><ele>925.0</ele><time>2026-05-04T11:48:34Z</time></trkpt><trkpt lat="43.694017346753526" lon="12.121388380268206"><ele>924.9999999999999</ele><time>2026-05-04T11:48:38Z</time></trkpt><trkpt lat="43.69395184886517" lon="12.121359400937296"><ele>925.0</ele><time>2026-05-04T11:48:40Z</time></trkpt><trkpt lat="43.693878690555174" lon="12.121347160749973"><ele>925.0</ele><time>2026-05-04T11:48:42Z</time></trkpt><trkpt lat="43.69380745497115" lon="12.121380706674916"><ele>925.0</ele><time>2026-05-04T11:48:44Z</time></trkpt><trkpt lat="43.693824164660064" lon="12.121488695593689"><ele>924.9999999999999</ele><time>2026-05-04T11:48:47Z</time></trkpt><trkpt lat="43.6938545900678" lon="12.121578014546362"><ele>925.0</ele><time>2026-05-04T11:48:49Z</time></trkpt><trkpt lat="43.69387402169241" lon="12.121691630739514"><ele>925.0</ele><time>2026-05-04T11:48:51Z</time></trkpt><trkpt lat="43.69382602559098" lon="12.121821028902799"><ele>925.0</ele><time>2026-05-04T11:48:53Z</time></trkpt><trkpt lat="43.69375681874736" lon="12.121880862381117"><ele>925.0</ele><time>2026-05-04T11:48:55Z</time></trkpt><trkpt lat="43.69365315751433" lon="12.12194751877421"><ele>925.0</ele><time>2026-05-04T11:48:57Z</time></trkpt><trkpt lat="43.69355980361934" lon="12.12192052764122"><ele>925.0</ele><time>2026-05-04T11:49:00Z</time></trkpt><trkpt lat="43.69349443997609" lon="12.121901637154323"><ele>928.6</ele><time>2026-05-04T11:49:01Z</time></trkpt><trkpt lat="43.69339379335283" lon="12.121923352938131"><ele>932.2</ele><time>2026-05-04T11:49:03Z</time></trkpt><trkpt lat="43.693323630404585" lon="12.122044326354958"><ele>935.8</ele><time>2026-05-04T11:49:05Z</time></trkpt><trkpt lat="43.69328841900438" lon="12.122121343496277"><ele>939.4</ele><time>2026-05-04T11:49:06Z</time></trkpt><trkpt lat="43.69324973024552" lon="12.122191051907247"><ele>943.0</ele><time>2026-05-04T11:49:08Z</time></trkpt><trkpt lat="43.69317006622096" lon="12.122290666909727"><ele>943.0</ele><time>2026-05-04T11:49:28Z</time></trkpt><trkpt lat="43.69308380483143" lon="12.122335726398402"><ele>943.0</ele><time>2026-05-04T11:49:30Z</time></trkpt><trkpt lat="43.69297938123393" lon="12.122387608001517"><ele>943.0</ele><time>2026-05-04T11:49:32Z</time></trkpt><trkpt lat="43.692843101144504" lon="12.122399855509107"><ele>943.0</ele><time>2026-05-04T11:49:34Z</time></trkpt><trkpt lat="43.69277154918037" lon="12.122408768125274"><ele>943.0</ele><time>2026-05-04T11:49:35Z</time></trkpt><trkpt lat="43.69266503454889" lon="12.122403655684804"><ele>945.8333333333333</ele><time>2026-05-04T11:49:37Z</time></trkpt><trkpt lat="43.69257541526112" lon="12.12242953879235"><ele>948.6666666666666</ele><time>2026-05-04T11:49:39Z</time></trkpt><trkpt lat="43.692479090853766" lon="12.122483963150774"><ele>951.5</ele><time>2026-05-04T11:49:41Z</time></trkpt><trkpt lat="43.69241140136255" lon="12.122481362921976"><ele>954.3333333333333</ele><time>2026-05-04T11:49:43Z</time></trkpt><trkpt lat="43.6923520714347" lon="12.122444066693529"><ele>957.1666666666666</ele><time>2026-05-04T11:49:45Z</time></trkpt><trkpt lat="43.69236452281143" lon="12.12232711922641"><ele>960.0</ele><time>2026-05-04T11:49:49Z</time></trkpt><trkpt lat="43.692377640418066" lon="12.12222761877524"><ele>960.0</ele><time>2026-05-04T11:49:51Z</time></trkpt><trkpt lat="43.69235165616333" lon="12.122122262997637"><ele>960.0</ele><time>2026-05-04T11:49:53Z</time></trkpt><trkpt lat="43.69230253260813" lon="12.122021921547002"><ele>960.0</ele><time>2026-05-04T11:49:55Z</time></trkpt><trkpt lat="43.69225070177698" lon="12.12194444142093"><ele>960.0</ele><time>2026-05-04T11:49:57Z</time></trkpt><trkpt lat="43.69216859666294" lon="12.121860227147813"><ele>960.0</ele><time>2026-05-04T11:50:47Z</time></trkpt><trkpt lat="43.692099911813" lon="12.121783077415003"><ele>960.0</ele><time>2026-05-04T11:50:48Z</time></trkpt><trkpt lat="43.6920400134137" lon="12.12169011766156"><ele>960.0</ele><time>2026-05-04T11:50:49Z</time></trkpt><trkpt lat="43.69197795575398" lon="12.12158628707403"><ele>960.0</ele><time>2026-05-04T11:50:50Z</time></trkpt><trkpt lat="43.69189981686827" lon="12.121466466890672"><ele>960.0</ele><time>2026-05-04T11:50:51Z</time></trkpt><trkpt lat="43.69182353765022" lon="12.121347208224694"><ele>960.0</ele><time>2026-05-04T11:50:52Z</time></trkpt><trkpt lat="43.69175820731889" lon="12.121242779992677"><ele>960.0</ele><time>2026-05-04T11:50:53Z</time></trkpt><trkpt lat="43.69169346135911" lon="12.121132416113669"><ele>962.8333333333334</ele><time>2026-05-04T11:50:54Z</time></trkpt><trkpt lat="43.69163260690905" lon="12.121025979865507"><ele>965.6666666666667</ele><time>2026-05-04T11:50:55Z</time></trkpt><trkpt lat="43.69157793253876" lon="12.120923051533534"><ele>968.5</ele><time>2026-05-04T11:50:56Z</time></trkpt><trkpt lat="43.69152573456106" lon="12.120817778594068"><ele>971.3333333333334</ele><time>2026-05-04T11:50:57Z</time></trkpt><trkpt lat="43.69148314091638" lon="12.120706586183813"><ele>974.1666666666667</ele><time>2026-05-04T11:50:58Z</time></trkpt><trkpt lat="43.691459480143486" lon="12.120614440901885"><ele>977.0</ele><time>2026-05-04T11:50:59Z</time></trkpt><trkpt lat="43.6914294973815" lon="12.120525203190764"><ele>978.3333333333334</ele><time>2026-05-04T11:51:00Z</time></trkpt><trkpt lat="43.69138552360142" lon="12.120425222413264"><ele>979.6666666666667</ele><time>2026-05-04T11:51:01Z</time></trkpt><trkpt lat="43.69133769802896" lon="12.120329566523877"><ele>981.0</ele><time>2026-05-04T11:51:02Z</time></trkpt><trkpt lat="43.69129773268316" lon="12.120242066626965"><ele>982.3333333333333</ele><time>2026-05-04T11:51:03Z</time></trkpt><trkpt lat="43.69125717250984" lon="12.12015920808776"><ele>983.6666666666666</ele><time>2026-05-04T11:51:04Z</time></trkpt><trkpt lat="43.691210208476406" lon="12.120067656833065"><ele>985.0</ele><time>2026-05-04T11:51:05Z</time></trkpt><trkpt lat="43.69116228972679" lon="12.119982470744972"><ele>985.0</ele><time>2026-05-04T11:51:06Z</time></trkpt><trkpt lat="43.69111317248017" lon="12.119901609367483"><ele>985.0</ele><time>2026-05-04T11:51:07Z</time></trkpt><trkpt lat="43.691074014384874" lon="12.119828800923393"><ele>985.0</ele><time>2026-05-04T11:51:08Z</time></trkpt><trkpt lat="43.69106986694332" lon="12.119635057375357"><ele>985.0</ele><time>2026-05-04T11:51:10Z</time></trkpt><trkpt lat="43.6910721047921" lon="12.11950709499422"><ele>985.0</ele><time>2026-05-04T11:51:11Z</time></trkpt><trkpt lat="43.691065173605345" lon="12.119378718087944"><ele>987.8333333333333</ele><time>2026-05-04T11:51:12Z</time></trkpt><trkpt lat="43.691049116804834" lon="12.119259526554348"><ele>990.6666666666666</ele><time>2026-05-04T11:51:13Z</time></trkpt><trkpt lat="43.69101370104042" lon="12.119138577804856"><ele>993.5</ele><time>2026-05-04T11:51:14Z</time></trkpt><trkpt lat="43.69096657147413" lon="12.119033247225381"><ele>996.3333333333333</ele><time>2026-05-04T11:51:15Z</time></trkpt><trkpt lat="43.69091777708178" lon="12.11893643828956"><ele>999.1666666666666</ele><time>2026-05-04T11:51:16Z</time></trkpt><trkpt lat="43.69086390195861" lon="12.118842571218414"><ele>1002.0</ele><time>2026-05-04T11:51:17Z</time></trkpt><trkpt lat="43.69080576635661" lon="12.118742826723745"><ele>1006.0</ele><time>2026-05-04T11:51:18Z</time></trkpt><trkpt lat="43.69075614182395" lon="12.118656020951898"><ele>1010.0</ele><time>2026-05-04T11:51:19Z</time></trkpt><trkpt lat="43.69067449298951" lon="12.118532399886256"><ele>1014.0</ele><time>2026-05-04T11:51:21Z</time></trkpt><trkpt lat="43.69062936149304" lon="12.118460875692989"><ele>1018.0</ele><time>2026-05-04T11:51:22Z</time></trkpt><trkpt lat="43.69057739923694" lon="12.118352762488561"><ele>1022.0</ele><time>2026-05-04T11:51:24Z</time></trkpt><trkpt lat="43.69051756698609" lon="12.118236413929264"><ele>1022.6</ele><time>2026-05-04T11:51:26Z</time></trkpt><trkpt lat="43.69045250356728" lon="12.118087347276424"><ele>1023.2</ele><time>2026-05-04T11:51:28Z</time></trkpt><trkpt lat="43.6903757146372" lon="12.117969894613216"><ele>1023.8</ele><time>2026-05-04T11:51:30Z</time></trkpt><trkpt lat="43.690310067569186" lon="12.117868602522554"><ele>1024.4</ele><time>2026-05-04T11:51:32Z</time></trkpt><trkpt lat="43.69023844068398" lon="12.117771241090972"><ele>1025.0</ele><time>2026-05-04T11:51:35Z</time></trkpt><trkpt lat="43.690149462202264" lon="12.117673331211945"><ele>1025.0</ele><time>2026-05-04T11:51:37Z</time></trkpt><trkpt lat="43.69006557029705" lon="12.117593689338946"><ele>1025.0</ele><time>2026-05-04T11:51:39Z</time></trkpt><trkpt lat="43.689997607935396" lon="12.117550278256878"><ele>1025.0</ele><time>2026-05-04T11:51:42Z</time></trkpt><trkpt lat="43.68994488535896" lon="12.117502704167942"><ele>1025.0</ele><time>2026-05-04T11:51:44Z</time></trkpt><trkpt lat="43.6898834497129" lon="12.117411353787997"><ele>1025.0</ele><time>2026-05-04T11:51:46Z</time></trkpt><trkpt lat="43.689820923288416" lon="12.117389545718364"><ele>1025.0</ele><time>2026-05-04T11:51:48Z</time></trkpt><trkpt lat="43.68973740104029" lon="12.11728575392585"><ele>1029.3333333333335</ele><time>2026-05-04T11:51:50Z</time></trkpt><trkpt lat="43.68968184595201" lon="12.117219745037296"><ele>1033.6666666666667</ele><time>2026-05-04T11:51:51Z</time></trkpt><trkpt lat="43.68962444588394" lon="12.117144901259033"><ele>1038.0</ele><time>2026-05-04T11:51:52Z</time></trkpt><trkpt lat="43.68956358237477" lon="12.117068089691553"><ele>1042.3333333333333</ele><time>2026-05-04T11:51:53Z</time></trkpt><trkpt lat="43.68950974499178" lon="12.116995478362353"><ele>1046.6666666666665</ele><time>2026-05-04T11:51:54Z</time></trkpt><trkpt lat="43.689428019134375" lon="12.116919361022736"><ele>1051.0</ele><time>2026-05-04T11:51:55Z</time></trkpt><trkpt lat="43.689328153308054" lon="12.116817675501755"><ele>1051.6666666666665</ele><time>2026-05-04T11:51:57Z</time></trkpt><trkpt lat="43.689261985679806" lon="12.116707365747839"><ele>1052.3333333333333</ele><time>2026-05-04T11:51:59Z</time></trkpt><trkpt lat="43.689210157957795" lon="12.116643202027912"><ele>1053.0</ele><time>2026-05-04T11:52:01Z</time></trkpt><trkpt lat="43.68915494258928" lon="12.116560718058595"><ele>1053.6666666666667</ele><time>2026-05-04T11:52:03Z</time></trkpt><trkpt lat="43.68905884212944" lon="12.116459126885466"><ele>1054.3333333333335</ele><time>2026-05-04T11:52:05Z</time></trkpt><trkpt lat="43.68901101595199" lon="12.116401317428009"><ele>1055.0</ele><time>2026-05-04T11:52:06Z</time></trkpt><trkpt lat="43.688945334131795" lon="12.116317714092846"><ele>1056.6</ele><time>2026-05-04T11:52:07.999Z</time></trkpt><trkpt lat="43.68890427125354" lon="12.116247776924597"><ele>1058.2</ele><time>2026-05-04T11:52:24.999Z</time></trkpt><trkpt lat="43.68883673321822" lon="12.116143216627028"><ele>1059.8</ele><time>2026-05-04T11:52:26.999Z</time></trkpt><trkpt lat="43.688772839920155" lon="12.11605436863539"><ele>1061.4</ele><time>2026-05-04T11:52:29Z</time></trkpt><trkpt lat="43.6886913244387" lon="12.115958140343455"><ele>1063.0</ele><time>2026-05-04T11:52:31Z</time></trkpt><trkpt lat="43.68860847699508" lon="12.115844219158403"><ele>1059.2</ele><time>2026-05-04T11:52:33Z</time></trkpt><trkpt lat="43.68853237526179" lon="12.115741469201295"><ele>1055.4</ele><time>2026-05-04T11:52:35Z</time></trkpt><trkpt lat="43.68845628427331" lon="12.11563722677755"><ele>1051.6000000000001</ele><time>2026-05-04T11:52:37Z</time></trkpt><trkpt lat="43.688374525980564" lon="12.115505030431152"><ele>1047.8</ele><time>2026-05-04T11:52:39Z</time></trkpt><trkpt lat="43.68831455704344" lon="12.11543246795261"><ele>1044.0</ele><time>2026-05-04T11:52:40Z</time></trkpt><trkpt lat="43.688267620551876" lon="12.115369689977287"><ele>1043.4285714285716</ele><time>2026-05-04T11:52:41Z</time></trkpt><trkpt lat="43.688218869207724" lon="12.115310429082042"><ele>1042.857142857143</ele><time>2026-05-04T11:52:42Z</time></trkpt><trkpt lat="43.68817070626881" lon="12.115245005891842"><ele>1042.2857142857142</ele><time>2026-05-04T11:52:43Z</time></trkpt><trkpt lat="43.68810854932233" lon="12.115178323556213"><ele>1041.7142857142858</ele><time>2026-05-04T11:52:44Z</time></trkpt><trkpt lat="43.68805103007334" lon="12.115116988123715"><ele>1041.142857142857</ele><time>2026-05-04T11:52:45Z</time></trkpt><trkpt lat="43.68799088711506" lon="12.11504519848832"><ele>1040.5714285714287</ele><time>2026-05-04T11:52:46Z</time></trkpt><trkpt lat="43.6879323181986" lon="12.114987768415446"><ele>1040.0</ele><time>2026-05-04T11:52:47Z</time></trkpt><trkpt lat="43.6878284456575" lon="12.11492633929037"><ele>1036.8333333333335</ele><time>2026-05-04T11:52:49Z</time></trkpt><trkpt lat="43.687749861674405" lon="12.11489009841112"><ele>1033.6666666666667</ele><time>2026-05-04T11:52:51Z</time></trkpt><trkpt lat="43.68766654993403" lon="12.114878992028027"><ele>1030.5</ele><time>2026-05-04T11:52:53Z</time></trkpt><trkpt lat="43.68755864764384" lon="12.114845128991913"><ele>1027.3333333333333</ele><time>2026-05-04T11:52:55Z</time></trkpt><trkpt lat="43.68749225819525" lon="12.114828441444473"><ele>1024.1666666666665</ele><time>2026-05-04T11:52:56Z</time></trkpt><trkpt lat="43.68741703070387" lon="12.11480215886653"><ele>1021.0</ele><time>2026-05-04T11:52:57Z</time></trkpt><trkpt lat="43.68733266162052" lon="12.1147819785642"><ele>1020.9999999999999</ele><time>2026-05-04T11:52:58Z</time></trkpt><trkpt lat="43.68724857143179" lon="12.114767632640387"><ele>1021.0</ele><time>2026-05-04T11:52:59Z</time></trkpt><trkpt lat="43.68717434079829" lon="12.114750747202528"><ele>1021.0</ele><time>2026-05-04T11:53:00Z</time></trkpt><trkpt lat="43.687100959304544" lon="12.114710355694154"><ele>1021.0</ele><time>2026-05-04T11:53:01Z</time></trkpt><trkpt lat="43.687025608376615" lon="12.114653546002467"><ele>1020.9999999999999</ele><time>2026-05-04T11:53:02Z</time></trkpt><trkpt lat="43.68694920055334" lon="12.114611025244765"><ele>1021.0</ele><time>2026-05-04T11:53:03Z</time></trkpt><trkpt lat="43.686802044442956" lon="12.114583623205794"><ele>1019.0</ele><time>2026-05-04T11:53:05Z</time></trkpt><trkpt lat="43.68671042535865" lon="12.11456648178806"><ele>1016.9999999999999</ele><time>2026-05-04T11:53:06Z</time></trkpt><trkpt lat="43.68663447905052" lon="12.114557073494597"><ele>1014.9999999999999</ele><time>2026-05-04T11:53:07Z</time></trkpt><trkpt lat="43.68655699833617" lon="12.114545391574616"><ele>1013.0</ele><time>2026-05-04T11:53:08Z</time></trkpt><trkpt lat="43.686417841972606" lon="12.11450844546918"><ele>1011.0</ele><time>2026-05-04T11:53:10Z</time></trkpt><trkpt lat="43.686329178141804" lon="12.114501461855415"><ele>1011.0</ele><time>2026-05-04T11:53:11Z</time></trkpt><trkpt lat="43.68624952490309" lon="12.11449491220265"><ele>1011.0</ele><time>2026-05-04T11:53:12Z</time></trkpt><trkpt lat="43.68616987078389" lon="12.114474608718316"><ele>1011.0</ele><time>2026-05-04T11:53:13Z</time></trkpt><trkpt lat="43.68608436725301" lon="12.114456183098426"><ele>1011.0</ele><time>2026-05-04T11:53:14Z</time></trkpt><trkpt lat="43.68601205588039" lon="12.11444545592304"><ele>1011.0</ele><time>2026-05-04T11:53:15Z</time></trkpt><trkpt lat="43.68591855796466" lon="12.11443209291605"><ele>1011.0</ele><time>2026-05-04T11:53:16Z</time></trkpt><trkpt lat="43.685850920385356" lon="12.11410521816997"><ele>1010.5714285714284</ele><time>2026-05-04T11:53:17Z</time></trkpt><trkpt lat="43.685771861255844" lon="12.11410927104849"><ele>1010.1428571428571</ele><time>2026-05-04T11:53:18Z</time></trkpt><trkpt lat="43.685703608565845" lon="12.114113300040806"><ele>1009.7142857142857</ele><time>2026-05-04T11:53:19Z</time></trkpt><trkpt lat="43.685629934166144" lon="12.114122251930599"><ele>1009.2857142857142</ele><time>2026-05-04T11:53:20Z</time></trkpt><trkpt lat="43.68554902671428" lon="12.114139504866117"><ele>1008.8571428571429</ele><time>2026-05-04T11:53:21Z</time></trkpt><trkpt lat="43.685484249748605" lon="12.114160769697808"><ele>1008.4285714285714</ele><time>2026-05-04T11:53:22Z</time></trkpt><trkpt lat="43.685414594638694" lon="12.114182865117662"><ele>1008.0</ele><time>2026-05-04T11:53:25Z</time></trkpt><trkpt lat="43.68532224679071" lon="12.114212220101058"><ele>1008.0</ele><time>2026-05-04T11:53:28Z</time></trkpt><trkpt lat="43.68538671225936" lon="12.114458554395952"><ele>1008.0</ele><time>2026-05-04T11:53:40Z</time></trkpt><trkpt lat="43.68546553052477" lon="12.114397450107486"><ele>1008.0</ele><time>2026-05-04T11:53:42Z</time></trkpt><trkpt lat="43.685526413818835" lon="12.114358979244804"><ele>1008.0</ele><time>2026-05-04T11:53:44Z</time></trkpt><trkpt lat="43.68558420276018" lon="12.1143027254951"><ele>1008.0</ele><time>2026-05-04T11:54:08Z</time></trkpt><trkpt lat="43.68559992105585" lon="12.114214889781147"><ele>1008.0</ele><time>2026-05-04T11:54:20.999Z</time></trkpt><trkpt lat="43.68556561855647" lon="12.114140920004266"><ele>1008.0</ele><time>2026-05-04T11:54:52Z</time></trkpt><trkpt lat="43.685457484216855" lon="12.114170653623248"><ele>1008.0</ele><time>2026-05-04T11:54:54Z</time></trkpt><trkpt lat="43.68539115776897" lon="12.114195589936498"><ele>1008.0</ele><time>2026-05-04T11:54:55Z</time></trkpt><trkpt lat="43.68531505349978" lon="12.11421861749879"><ele>1008.0</ele><time>2026-05-04T11:54:56Z</time></trkpt><trkpt lat="43.68522054192063" lon="12.11424625460941"><ele>1008.0</ele><time>2026-05-04T11:54:57Z</time></trkpt><trkpt lat="43.68511718700016" lon="12.114277509574471"><ele>1006.5</ele><time>2026-05-04T11:54:58Z</time></trkpt><trkpt lat="43.685002989994985" lon="12.114313821544936"><ele>1005.0</ele><time>2026-05-04T11:54:59Z</time></trkpt><trkpt lat="43.684880816466595" lon="12.114353032461146"><ele>1003.5</ele><time>2026-05-04T11:55:00Z</time></trkpt><trkpt lat="43.684754567263475" lon="12.11439448825505"><ele>1002.0</ele><time>2026-05-04T11:55:01Z</time></trkpt><trkpt lat="43.68463239326984" lon="12.114433726191296"><ele>1002.0</ele><time>2026-05-04T11:55:02Z</time></trkpt><trkpt lat="43.684519347224445" lon="12.114474261268517"><ele>1002.0</ele><time>2026-05-04T11:55:03Z</time></trkpt><trkpt lat="43.684412238258226" lon="12.114530054489247"><ele>1002.0</ele><time>2026-05-04T11:55:04Z</time></trkpt><trkpt lat="43.68429754513546" lon="12.114605058148024"><ele>1002.0</ele><time>2026-05-04T11:55:05Z</time></trkpt><trkpt lat="43.684194090796126" lon="12.114694114078405"><ele>1001.25</ele><time>2026-05-04T11:55:06Z</time></trkpt><trkpt lat="43.68409220036554" lon="12.11479362992383"><ele>1000.5</ele><time>2026-05-04T11:55:07Z</time></trkpt><trkpt lat="43.683994858354986" lon="12.114900393595272"><ele>999.75</ele><time>2026-05-04T11:55:08Z</time></trkpt><trkpt lat="43.68389737792564" lon="12.115004085938054"><ele>999.0</ele><time>2026-05-04T11:55:09Z</time></trkpt><trkpt lat="43.68379792208905" lon="12.115107061804837"><ele>999.0</ele><time>2026-05-04T11:55:10Z</time></trkpt><trkpt lat="43.68370051833467" lon="12.115211704347965"><ele>999.0000000000001</ele><time>2026-05-04T11:55:11Z</time></trkpt><trkpt lat="43.68360645577864" lon="12.115312442871229"><ele>999.0000000000001</ele><time>2026-05-04T11:55:12Z</time></trkpt><trkpt lat="43.6835271874556" lon="12.115405082037599"><ele>999.0</ele><time>2026-05-04T11:55:13Z</time></trkpt><trkpt lat="43.68345302245262" lon="12.115482465237863"><ele>999.0</ele><time>2026-05-04T11:55:14Z</time></trkpt><trkpt lat="43.683384358627045" lon="12.115527863246294"><ele>997.6666666666666</ele><time>2026-05-04T11:55:15Z</time></trkpt><trkpt lat="43.68332270374759" lon="12.115610752567907"><ele>996.3333333333333</ele><time>2026-05-04T11:55:16Z</time></trkpt><trkpt lat="43.68324857722696" lon="12.115631833294035"><ele>995.0</ele><time>2026-05-04T11:55:17Z</time></trkpt><trkpt lat="43.6831247443262" lon="12.115615622515996"><ele>993.6666666666666</ele><time>2026-05-04T11:55:19Z</time></trkpt><trkpt lat="43.68305666075684" lon="12.115594395173293"><ele>992.3333333333333</ele><time>2026-05-04T11:55:20Z</time></trkpt><trkpt lat="43.682988961283634" lon="12.115565215081944"><ele>991.0</ele><time>2026-05-04T11:55:21Z</time></trkpt><trkpt lat="43.68291652291482" lon="12.11553891915161"><ele>991.0</ele><time>2026-05-04T11:55:22Z</time></trkpt><trkpt lat="43.68283590729156" lon="12.115485515759929"><ele>990.9999999999999</ele><time>2026-05-04T11:55:23Z</time></trkpt><trkpt lat="43.68275964145805" lon="12.115438133678381"><ele>990.9999999999999</ele><time>2026-05-04T11:55:24Z</time></trkpt><trkpt lat="43.68268771964222" lon="12.11539346060402"><ele>991.0</ele><time>2026-05-04T11:55:25Z</time></trkpt><trkpt lat="43.68262264472623" lon="12.115349728988415"><ele>991.0</ele><time>2026-05-04T11:55:26Z</time></trkpt><trkpt lat="43.682524006708405" lon="12.115220806605802"><ele>988.0</ele><time>2026-05-04T11:55:28Z</time></trkpt><trkpt lat="43.68251725716677" lon="12.115091163221942"><ele>984.9999999999999</ele><time>2026-05-04T11:55:29Z</time></trkpt><trkpt lat="43.68250781867324" lon="12.11495851539553"><ele>981.9999999999999</ele><time>2026-05-04T11:55:30Z</time></trkpt><trkpt lat="43.68248499340078" lon="12.11482205284842"><ele>979.0</ele><time>2026-05-04T11:55:31Z</time></trkpt><trkpt lat="43.682478515604444" lon="12.114680988756467"><ele>976.0</ele><time>2026-05-04T11:55:32Z</time></trkpt><trkpt lat="43.6824755860333" lon="12.114536656108946"><ele>975.0</ele><time>2026-05-04T11:55:33Z</time></trkpt><trkpt lat="43.68247723329421" lon="12.114403621943783"><ele>973.9999999999999</ele><time>2026-05-04T11:55:34Z</time></trkpt><trkpt lat="43.68248008934959" lon="12.11426653685173"><ele>972.9999999999999</ele><time>2026-05-04T11:55:35Z</time></trkpt><trkpt lat="43.682508574306375" lon="12.114128163471445"><ele>972.0</ele><time>2026-05-04T11:55:36Z</time></trkpt><trkpt lat="43.682532104797744" lon="12.113969141750244"><ele>971.0</ele><time>2026-05-04T11:55:37Z</time></trkpt><trkpt lat="43.68255041830966" lon="12.113800413375525"><ele>969.8</ele><time>2026-05-04T11:55:38Z</time></trkpt><trkpt lat="43.682575621085455" lon="12.113647956216472"><ele>968.5999999999999</ele><time>2026-05-04T11:55:39Z</time></trkpt><trkpt lat="43.68260883462268" lon="12.113498951774027"><ele>967.4</ele><time>2026-05-04T11:55:40Z</time></trkpt><trkpt lat="43.6826354015064" lon="12.113351876329341"><ele>966.2</ele><time>2026-05-04T11:55:41Z</time></trkpt><trkpt lat="43.682654771845115" lon="12.113209242609502"><ele>965.0</ele><time>2026-05-04T11:55:42Z</time></trkpt><trkpt lat="43.68267377989743" lon="12.113067101987658"><ele>963.0</ele><time>2026-05-04T11:55:43Z</time></trkpt><trkpt lat="43.682684389500366" lon="12.112919980893055"><ele>961.0</ele><time>2026-05-04T11:55:44Z</time></trkpt><trkpt lat="43.68269806755199" lon="12.112772649468315"><ele>959.0</ele><time>2026-05-04T11:55:45Z</time></trkpt><trkpt lat="43.68271176851202" lon="12.11264387333743"><ele>957.0</ele><time>2026-05-04T11:55:46Z</time></trkpt><trkpt lat="43.68272711412778" lon="12.112518904010551"><ele>955.0</ele><time>2026-05-04T11:55:47Z</time></trkpt><trkpt lat="43.6827557097311" lon="12.112395103664749"><ele>954.8333333333333</ele><time>2026-05-04T11:55:48Z</time></trkpt><trkpt lat="43.68280470757631" lon="12.112282637592108"><ele>954.6666666666666</ele><time>2026-05-04T11:55:49Z</time></trkpt><trkpt lat="43.682868947867334" lon="12.112179021053173"><ele>954.5</ele><time>2026-05-04T11:55:50Z</time></trkpt><trkpt lat="43.68294726358093" lon="12.112119056721259"><ele>954.3333333333333</ele><time>2026-05-04T11:55:51Z</time></trkpt><trkpt lat="43.6829896406296" lon="12.1120216731097"><ele>954.1666666666666</ele><time>2026-05-04T11:55:52Z</time></trkpt><trkpt lat="43.68300731855218" lon="12.111923378341157"><ele>954.0</ele><time>2026-05-04T11:55:53Z</time></trkpt><trkpt lat="43.68299834827491" lon="12.11182102250949"><ele>954.0</ele><time>2026-05-04T11:55:54Z</time></trkpt><trkpt lat="43.68295913857631" lon="12.111721857022328"><ele>954.0</ele><time>2026-05-04T11:55:55Z</time></trkpt><trkpt lat="43.68290288341384" lon="12.11165588154122"><ele>954.0</ele><time>2026-05-04T11:55:56Z</time></trkpt><trkpt lat="43.68280367910489" lon="12.111530169348521"><ele>954.0</ele><time>2026-05-04T11:55:58Z</time></trkpt><trkpt lat="43.68273785311125" lon="12.111473280520793"><ele>954.0</ele><time>2026-05-04T11:55:59Z</time></trkpt><trkpt lat="43.68268420910043" lon="12.111409917714624"><ele>954.0</ele><time>2026-05-04T11:56:00Z</time></trkpt><trkpt lat="43.68260079163756" lon="12.111370153261257"><ele>951.1666666666666</ele><time>2026-05-04T11:56:01Z</time></trkpt><trkpt lat="43.68251925091974" lon="12.11135463160024"><ele>948.3333333333333</ele><time>2026-05-04T11:56:02Z</time></trkpt><trkpt lat="43.68245168461276" lon="12.111338621675605"><ele>945.5</ele><time>2026-05-04T11:56:03Z</time></trkpt><trkpt lat="43.68237793836899" lon="12.111344668431018"><ele>942.6666666666666</ele><time>2026-05-04T11:56:04Z</time></trkpt><trkpt lat="43.68230060171506" lon="12.1113789649147"><ele>939.8333333333333</ele><time>2026-05-04T11:56:05Z</time></trkpt><trkpt lat="43.682205302404675" lon="12.11144166759475"><ele>937.0</ele><time>2026-05-04T11:56:06Z</time></trkpt><trkpt lat="43.68211111271568" lon="12.111511284349433"><ele>937.0</ele><time>2026-05-04T11:56:07Z</time></trkpt><trkpt lat="43.68202620928335" lon="12.111562405769643"><ele>937.0</ele><time>2026-05-04T11:56:08Z</time></trkpt><trkpt lat="43.681958556687896" lon="12.111620783620111"><ele>937.0</ele><time>2026-05-04T11:56:09Z</time></trkpt><trkpt lat="43.68186394352105" lon="12.1116910459917"><ele>937.0</ele><time>2026-05-04T11:56:11Z</time></trkpt><trkpt lat="43.68181623561857" lon="12.111555511745445"><ele>937.0</ele><time>2026-05-04T11:56:13Z</time></trkpt><trkpt lat="43.68188257229842" lon="12.111413594515092"><ele>937.0</ele><time>2026-05-04T11:56:15Z</time></trkpt><trkpt lat="43.6819038443385" lon="12.111310654677615"><ele>937.0</ele><time>2026-05-04T11:56:16Z</time></trkpt><trkpt lat="43.68194173847462" lon="12.111228180614123"><ele>937.0</ele><time>2026-05-04T11:56:17Z</time></trkpt><trkpt lat="43.681950527378945" lon="12.111137391441288"><ele>937.0</ele><time>2026-05-04T11:56:18Z</time></trkpt><trkpt lat="43.68195772965031" lon="12.111050270445292"><ele>937.0</ele><time>2026-05-04T11:56:19Z</time></trkpt><trkpt lat="43.68191816543714" lon="12.110967985738982"><ele>937.0</ele><time>2026-05-04T11:56:20Z</time></trkpt><trkpt lat="43.68184814940405" lon="12.110920292458975"><ele>937.0</ele><time>2026-05-04T11:56:21Z</time></trkpt><trkpt lat="43.68176308375501" lon="12.110917838259091"><ele>934.9999999999999</ele><time>2026-05-04T11:56:22Z</time></trkpt><trkpt lat="43.681689066584724" lon="12.110897999120777"><ele>933.0</ele><time>2026-05-04T11:56:23Z</time></trkpt><trkpt lat="43.681581433514964" lon="12.110871652669957"><ele>931.0</ele><time>2026-05-04T11:56:25Z</time></trkpt><trkpt lat="43.681532432384635" lon="12.110805905195765"><ele>929.0</ele><time>2026-05-04T11:56:26Z</time></trkpt><trkpt lat="43.68150841982293" lon="12.110691956016225"><ele>926.9999999999999</ele><time>2026-05-04T11:56:27Z</time></trkpt><trkpt lat="43.68147937007119" lon="12.11055643606322"><ele>925.0</ele><time>2026-05-04T11:56:28Z</time></trkpt><trkpt lat="43.68144021973096" lon="12.110422844962542"><ele>923.8333333333333</ele><time>2026-05-04T11:56:29Z</time></trkpt><trkpt lat="43.68142273131956" lon="12.110299258724476"><ele>922.6666666666666</ele><time>2026-05-04T11:56:30Z</time></trkpt><trkpt lat="43.68141217243412" lon="12.11019009648584"><ele>921.5</ele><time>2026-05-04T11:56:31Z</time></trkpt><trkpt lat="43.68142079867734" lon="12.110074431974024"><ele>920.3333333333333</ele><time>2026-05-04T11:56:32Z</time></trkpt><trkpt lat="43.68148286719001" lon="12.109977501499248"><ele>919.1666666666666</ele><time>2026-05-04T11:56:33Z</time></trkpt><trkpt lat="43.681545916182294" lon="12.109881507719509"><ele>918.0</ele><time>2026-05-04T11:56:34Z</time></trkpt><trkpt lat="43.68160098855707" lon="12.109787360995744"><ele>917.0</ele><time>2026-05-04T11:56:35Z</time></trkpt><trkpt lat="43.68167068863056" lon="12.109705018009793"><ele>916.0</ele><time>2026-05-04T11:56:36Z</time></trkpt><trkpt lat="43.681711788079596" lon="12.10960759210919"><ele>915.0</ele><time>2026-05-04T11:56:37Z</time></trkpt><trkpt lat="43.681724924336216" lon="12.109502409807076"><ele>914.0</ele><time>2026-05-04T11:56:38Z</time></trkpt><trkpt lat="43.681715429879915" lon="12.109407962246753"><ele>913.0</ele><time>2026-05-04T11:56:39Z</time></trkpt><trkpt lat="43.68167225766624" lon="12.109309369100092"><ele>912.0</ele><time>2026-05-04T11:56:40Z</time></trkpt><trkpt lat="43.6816112797525" lon="12.109216169024663"><ele>912.0</ele><time>2026-05-04T11:56:41Z</time></trkpt><trkpt lat="43.68153642340654" lon="12.109139571304267"><ele>912.0</ele><time>2026-05-04T11:56:42Z</time></trkpt><trkpt lat="43.6814629884865" lon="12.109062642823215"><ele>912.0</ele><time>2026-05-04T11:56:43Z</time></trkpt><trkpt lat="43.68139592727419" lon="12.108979497646617"><ele>912.0</ele><time>2026-05-04T11:56:44Z</time></trkpt><trkpt lat="43.68134541133311" lon="12.108899612142652"><ele>912.0</ele><time>2026-05-04T11:56:45Z</time></trkpt><trkpt lat="43.68134673579935" lon="12.108785666328115"><ele>912.0</ele><time>2026-05-04T11:56:46Z</time></trkpt><trkpt lat="43.681333194892645" lon="12.108648136109567"><ele>909.75</ele><time>2026-05-04T11:56:47Z</time></trkpt><trkpt lat="43.681325624525165" lon="12.108484419134122"><ele>907.5</ele><time>2026-05-04T11:56:48Z</time></trkpt><trkpt lat="43.681330854607594" lon="12.108326068238663"><ele>905.25</ele><time>2026-05-04T11:56:49Z</time></trkpt><trkpt lat="43.681340989519214" lon="12.108178316685946"><ele>903.0</ele><time>2026-05-04T11:56:50Z</time></trkpt><trkpt lat="43.68133588953294" lon="12.108026724146852"><ele>901.8</ele><time>2026-05-04T11:56:51Z</time></trkpt><trkpt lat="43.68135424225561" lon="12.107915345588356"><ele>900.5999999999999</ele><time>2026-05-04T11:56:52Z</time></trkpt><trkpt lat="43.68137282521647" lon="12.10781267668865"><ele>899.4000000000001</ele><time>2026-05-04T11:56:53Z</time></trkpt><trkpt lat="43.6813705561384" lon="12.107642002579436"><ele>898.2</ele><time>2026-05-04T11:56:55Z</time></trkpt><trkpt lat="43.68132273023696" lon="12.10755975371194"><ele>897.0</ele><time>2026-05-04T11:56:56Z</time></trkpt><trkpt lat="43.681234480024344" lon="12.107523681114644"><ele>897.0</ele><time>2026-05-04T11:56:57Z</time></trkpt><trkpt lat="43.68112622335898" lon="12.107516873795422"><ele>897.0</ele><time>2026-05-04T11:56:58Z</time></trkpt><trkpt lat="43.681035048003366" lon="12.107509803739417"><ele>897.0</ele><time>2026-05-04T11:56:59Z</time></trkpt><trkpt lat="43.68094979471151" lon="12.107491331226877"><ele>897.0</ele><time>2026-05-04T11:57:00Z</time></trkpt><trkpt lat="43.6808891288031" lon="12.107432482265684"><ele>897.0</ele><time>2026-05-04T11:57:01Z</time></trkpt><trkpt lat="43.68082896457629" lon="12.107321247670528"><ele>894.0</ele><time>2026-05-04T11:57:02Z</time></trkpt><trkpt lat="43.68074749895793" lon="12.107235567833444"><ele>891.0</ele><time>2026-05-04T11:57:03Z</time></trkpt><trkpt lat="43.680672132266494" lon="12.107170780282946"><ele>888.0</ele><time>2026-05-04T11:57:04Z</time></trkpt><trkpt lat="43.68059285728504" lon="12.107137231754397"><ele>885.0</ele><time>2026-05-04T11:57:05Z</time></trkpt><trkpt lat="43.680498620991756" lon="12.107124156959244"><ele>882.0</ele><time>2026-05-04T11:57:06Z</time></trkpt><trkpt lat="43.68039620272983" lon="12.107183067286083"><ele>882.0</ele><time>2026-05-04T11:57:07Z</time></trkpt><trkpt lat="43.68030853855546" lon="12.10721325877252"><ele>882.0</ele><time>2026-05-04T11:57:08Z</time></trkpt><trkpt lat="43.6802167439307" lon="12.107185532012537"><ele>882.0</ele><time>2026-05-04T11:57:09Z</time></trkpt><trkpt lat="43.68012811936189" lon="12.107180244410424"><ele>882.0</ele><time>2026-05-04T11:57:10Z</time></trkpt><trkpt lat="43.68003974367182" lon="12.107099899473646"><ele>882.0</ele><time>2026-05-04T11:57:11Z</time></trkpt><trkpt lat="43.67996160449703" lon="12.10700436610119"><ele>880.3333333333334</ele><time>2026-05-04T11:57:12Z</time></trkpt><trkpt lat="43.679916072955464" lon="12.106902481960635"><ele>878.6666666666667</ele><time>2026-05-04T11:57:13Z</time></trkpt><trkpt lat="43.67987837586245" lon="12.106801662558265"><ele>877.0</ele><time>2026-05-04T11:57:14Z</time></trkpt><trkpt lat="43.67984464531738" lon="12.10668760590888"><ele>875.3333333333334</ele><time>2026-05-04T11:57:15Z</time></trkpt><trkpt lat="43.67981871947164" lon="12.106575372954026"><ele>873.6666666666667</ele><time>2026-05-04T11:57:16Z</time></trkpt><trkpt lat="43.67979021743309" lon="12.106453621840226"><ele>872.0</ele><time>2026-05-04T11:57:17Z</time></trkpt><trkpt lat="43.67976521122967" lon="12.10632116690869"><ele>871.0</ele><time>2026-05-04T11:57:18Z</time></trkpt><trkpt lat="43.67974057356991" lon="12.106185831339968"><ele>870.0</ele><time>2026-05-04T11:57:19Z</time></trkpt><trkpt lat="43.67970252397431" lon="12.10607344175402"><ele>869.0</ele><time>2026-05-04T11:57:20Z</time></trkpt><trkpt lat="43.67967977278493" lon="12.105957455624813"><ele>868.0</ele><time>2026-05-04T11:57:21Z</time></trkpt><trkpt lat="43.679624795482816" lon="12.105840202559676"><ele>867.0</ele><time>2026-05-04T11:57:22Z</time></trkpt><trkpt lat="43.67955557547399" lon="12.105732035295318"><ele>867.0</ele><time>2026-05-04T11:57:23Z</time></trkpt><trkpt lat="43.67948071204464" lon="12.105645169286541"><ele>867.0</ele><time>2026-05-04T11:57:24Z</time></trkpt><trkpt lat="43.6794043439067" lon="12.105576899383674"><ele>867.0</ele><time>2026-05-04T11:57:25Z</time></trkpt><trkpt lat="43.67933851942289" lon="12.105492641804787"><ele>867.0</ele><time>2026-05-04T11:57:26Z</time></trkpt><trkpt lat="43.67929597339557" lon="12.105409888379583"><ele>867.0</ele><time>2026-05-04T11:57:27Z</time></trkpt><trkpt lat="43.67925507944046" lon="12.105327022667682"><ele>867.0</ele><time>2026-05-04T11:57:28Z</time></trkpt><trkpt lat="43.67924569095029" lon="12.105163974094985"><ele>867.0</ele><time>2026-05-04T11:57:30Z</time></trkpt><trkpt lat="43.67932269531333" lon="12.105119005895945"><ele>867.0</ele><time>2026-05-04T11:57:31Z</time></trkpt><trkpt lat="43.67938553571286" lon="12.105084401895606"><ele>867.0</ele><time>2026-05-04T11:57:32Z</time></trkpt><trkpt lat="43.679443275377416" lon="12.105007230662967"><ele>867.0</ele><time>2026-05-04T11:57:33Z</time></trkpt><trkpt lat="43.679513356140696" lon="12.104961810498837"><ele>867.0</ele><time>2026-05-04T11:57:34Z</time></trkpt><trkpt lat="43.67958358431081" lon="12.104935439589948"><ele>867.0</ele><time>2026-05-04T11:57:35Z</time></trkpt><trkpt lat="43.67964189141511" lon="12.104788830195416"><ele>867.1666666666666</ele><time>2026-05-04T11:57:37Z</time></trkpt><trkpt lat="43.67958713926428" lon="12.104691991098132"><ele>867.3333333333333</ele><time>2026-05-04T11:57:38Z</time></trkpt><trkpt lat="43.67949695448367" lon="12.104659249814462"><ele>867.5</ele><time>2026-05-04T11:57:39Z</time></trkpt><trkpt lat="43.67942818709662" lon="12.104630438967245"><ele>867.6666666666666</ele><time>2026-05-04T11:57:40Z</time></trkpt><trkpt lat="43.67935308027541" lon="12.104572466549042"><ele>867.8333333333333</ele><time>2026-05-04T11:57:41Z</time></trkpt><trkpt lat="43.67926176693028" lon="12.104513606043232"><ele>868.0</ele><time>2026-05-04T11:57:42Z</time></trkpt><trkpt lat="43.67916533964848" lon="12.104457700762786"><ele>865.25</ele><time>2026-05-04T11:57:43Z</time></trkpt><trkpt lat="43.6790732473209" lon="12.104366766243015"><ele>862.5</ele><time>2026-05-04T11:57:44Z</time></trkpt><trkpt lat="43.678969204685764" lon="12.104249893058437"><ele>859.75</ele><time>2026-05-04T11:57:45.001Z</time></trkpt><trkpt lat="43.6788578024225" lon="12.104127669887928"><ele>857.0</ele><time>2026-05-04T11:57:46.001Z</time></trkpt><trkpt lat="43.67874953750685" lon="12.104009696080348"><ele>856.6</ele><time>2026-05-04T11:57:47.001Z</time></trkpt><trkpt lat="43.678662729939994" lon="12.103916368272092"><ele>856.2</ele><time>2026-05-04T11:57:48.001Z</time></trkpt><trkpt lat="43.67858274238281" lon="12.103822462838393"><ele>855.8</ele><time>2026-05-04T11:57:49.001Z</time></trkpt><trkpt lat="43.678502647769946" lon="12.103718004229652"><ele>855.4</ele><time>2026-05-04T11:57:50.001Z</time></trkpt><trkpt lat="43.67840615794982" lon="12.103615380284323"><ele>855.0</ele><time>2026-05-04T11:57:51.001Z</time></trkpt><trkpt lat="43.678294552070284" lon="12.103500413930224"><ele>853.0</ele><time>2026-05-04T11:57:52.001Z</time></trkpt><trkpt lat="43.67818929666747" lon="12.103394443397935"><ele>851.0</ele><time>2026-05-04T11:57:53.001Z</time></trkpt><trkpt lat="43.678101492811464" lon="12.103298942108408"><ele>849.0</ele><time>2026-05-04T11:57:54.001Z</time></trkpt><trkpt lat="43.678017639389374" lon="12.103205389717829"><ele>847.0</ele><time>2026-05-04T11:57:55.001Z</time></trkpt><trkpt lat="43.67793448875501" lon="12.103121403674644"><ele>844.9999999999999</ele><time>2026-05-04T11:57:56.001Z</time></trkpt><trkpt lat="43.677860179229086" lon="12.10304232511854"><ele>843.0</ele><time>2026-05-04T11:57:57.001Z</time></trkpt><trkpt lat="43.67779094491271" lon="12.10296568156845"><ele>841.0</ele><time>2026-05-04T11:57:58.001Z</time></trkpt><trkpt lat="43.677721019167656" lon="12.102899743145137"><ele>839.0</ele><time>2026-05-04T11:57:59.001Z</time></trkpt><trkpt lat="43.67765302162427" lon="12.10285314526034"><ele>836.9999999999999</ele><time>2026-05-04T11:58:00.001Z</time></trkpt><trkpt lat="43.677580262208615" lon="12.10282746207837"><ele>835.0</ele><time>2026-05-04T11:58:01.001Z</time></trkpt><trkpt lat="43.67750890603391" lon="12.102843959221193"><ele>834.2857142857143</ele><time>2026-05-04T11:58:02.001Z</time></trkpt><trkpt lat="43.677439852244284" lon="12.102867504464202"><ele>833.5714285714286</ele><time>2026-05-04T11:58:03.001Z</time></trkpt><trkpt lat="43.677383638368404" lon="12.102924522386328"><ele>832.8571428571429</ele><time>2026-05-04T11:58:04.001Z</time></trkpt><trkpt lat="43.67733965072483" lon="12.10299644017719"><ele>832.1428571428571</ele><time>2026-05-04T11:58:05.001Z</time></trkpt><trkpt lat="43.67729978601773" lon="12.103068213711376"><ele>831.4285714285714</ele><time>2026-05-04T11:58:06.001Z</time></trkpt><trkpt lat="43.67726610060898" lon="12.103142754790916"><ele>830.7142857142858</ele><time>2026-05-04T11:58:07.001Z</time></trkpt><trkpt lat="43.67717795712673" lon="12.10323461597489"><ele>830.0</ele><time>2026-05-04T11:58:09.001Z</time></trkpt><trkpt lat="43.677104012795716" lon="12.103242047732321"><ele>829.5000000000001</ele><time>2026-05-04T11:58:10.001Z</time></trkpt><trkpt lat="43.677028245811854" lon="12.10325342096537"><ele>829.0</ele><time>2026-05-04T11:58:11.001Z</time></trkpt><trkpt lat="43.676941336318606" lon="12.103263741823572"><ele>828.5</ele><time>2026-05-04T11:58:12.001Z</time></trkpt><trkpt lat="43.67685971270519" lon="12.103267589555154"><ele>828.0</ele><time>2026-05-04T11:58:13.001Z</time></trkpt><trkpt lat="43.67678343351066" lon="12.103277830629189"><ele>827.5000000000001</ele><time>2026-05-04T11:58:14.001Z</time></trkpt><trkpt lat="43.67666654888693" lon="12.10325196863313"><ele>827.0</ele><time>2026-05-04T11:58:16.001Z</time></trkpt><trkpt lat="43.676577946816735" lon="12.103217863345991"><ele>827.5000000000001</ele><time>2026-05-04T11:58:18.001Z</time></trkpt><trkpt lat="43.6766168875948" lon="12.103133561783585"><ele>828.0</ele><time>2026-05-04T11:58:22.001Z</time></trkpt><trkpt lat="43.67669059142283" lon="12.103097898136758"><ele>828.5</ele><time>2026-05-04T11:58:23.001Z</time></trkpt><trkpt lat="43.67678859481585" lon="12.103033291839381"><ele>829.0</ele><time>2026-05-04T11:58:24.001Z</time></trkpt><trkpt lat="43.67687649398657" lon="12.102989769964442"><ele>829.5000000000001</ele><time>2026-05-04T11:58:25Z</time></trkpt><trkpt lat="43.67693907420531" lon="12.102925122706393"><ele>830.0</ele><time>2026-05-04T11:58:26Z</time></trkpt><trkpt lat="43.676986839890816" lon="12.10282948256878"><ele>830.0</ele><time>2026-05-04T11:58:27Z</time></trkpt><trkpt lat="43.67699946223694" lon="12.102719070949556"><ele>830.0</ele><time>2026-05-04T11:58:28Z</time></trkpt><trkpt lat="43.676987679668564" lon="12.102587056001889"><ele>830.0</ele><time>2026-05-04T11:58:29Z</time></trkpt><trkpt lat="43.67695650002521" lon="12.102429622702495"><ele>830.0</ele><time>2026-05-04T11:58:30Z</time></trkpt><trkpt lat="43.67691861636225" lon="12.102272079267308"><ele>830.0</ele><time>2026-05-04T11:58:31Z</time></trkpt><trkpt lat="43.67687411788234" lon="12.102139023586286"><ele>826.4</ele><time>2026-05-04T11:58:32Z</time></trkpt><trkpt lat="43.67682278637342" lon="12.102010453548989"><ele>822.8</ele><time>2026-05-04T11:58:33Z</time></trkpt><trkpt lat="43.67677187483142" lon="12.101883747887497"><ele>819.2</ele><time>2026-05-04T11:58:34Z</time></trkpt><trkpt lat="43.67669962512526" lon="12.101772366440777"><ele>815.6</ele><time>2026-05-04T11:58:35Z</time></trkpt><trkpt lat="43.676594442380534" lon="12.101669094300862"><ele>812.0</ele><time>2026-05-04T11:58:36Z</time></trkpt><trkpt lat="43.676505193415515" lon="12.101587376054848"><ele>810.6</ele><time>2026-05-04T11:58:37Z</time></trkpt><trkpt lat="43.676431959108164" lon="12.10151906359115"><ele>809.2</ele><time>2026-05-04T11:58:38Z</time></trkpt><trkpt lat="43.676377041922564" lon="12.1014552400461"><ele>807.8</ele><time>2026-05-04T11:58:39Z</time></trkpt><trkpt lat="43.67632760417415" lon="12.101334176291335"><ele>806.4</ele><time>2026-05-04T11:58:41Z</time></trkpt><trkpt lat="43.67636223809341" lon="12.101192055841738"><ele>805.0</ele><time>2026-05-04T11:58:43Z</time></trkpt><trkpt lat="43.67641465707703" lon="12.101097960104239"><ele>805.0</ele><time>2026-05-04T11:58:44Z</time></trkpt><trkpt lat="43.67648315578179" lon="12.101015541630934"><ele>805.0</ele><time>2026-05-04T11:58:45Z</time></trkpt><trkpt lat="43.67652178730721" lon="12.100886515719484"><ele>805.0</ele><time>2026-05-04T11:58:46Z</time></trkpt><trkpt lat="43.67651212693425" lon="12.100727641784607"><ele>805.0</ele><time>2026-05-04T11:58:47Z</time></trkpt><trkpt lat="43.676500718205816" lon="12.10061230131387"><ele>805.0</ele><time>2026-05-04T11:58:48Z</time></trkpt><trkpt lat="43.67649155758265" lon="12.100479344853724"><ele>803.6</ele><time>2026-05-04T11:58:49Z</time></trkpt><trkpt lat="43.6764857111403" lon="12.10032411160508"><ele>802.2</ele><time>2026-05-04T11:58:50Z</time></trkpt><trkpt lat="43.67648035107907" lon="12.100181792632318"><ele>800.8</ele><time>2026-05-04T11:58:51Z</time></trkpt><trkpt lat="43.6764734120959" lon="12.100041921484719"><ele>799.4</ele><time>2026-05-04T11:58:52Z</time></trkpt><trkpt lat="43.676459929745754" lon="12.099907263277343"><ele>798.0</ele><time>2026-05-04T11:58:53Z</time></trkpt><trkpt lat="43.67643931707568" lon="12.099772343997365"><ele>797.0</ele><time>2026-05-04T11:58:54Z</time></trkpt><trkpt lat="43.67641640796223" lon="12.099661724791874"><ele>796.0</ele><time>2026-05-04T11:58:55Z</time></trkpt><trkpt lat="43.67638648722474" lon="12.099567268656134"><ele>795.0</ele><time>2026-05-04T11:58:56Z</time></trkpt><trkpt lat="43.6762781655018" lon="12.09944277071899"><ele>794.0</ele><time>2026-05-04T11:58:58Z</time></trkpt><trkpt lat="43.67620170623023" lon="12.099434817752561"><ele>793.0</ele><time>2026-05-04T11:58:59Z</time></trkpt><trkpt lat="43.67612917206792" lon="12.099467562101006"><ele>791.4999999999999</ele><time>2026-05-04T11:59:00Z</time></trkpt><trkpt lat="43.676075659051165" lon="12.099549735714026"><ele>790.0</ele><time>2026-05-04T11:59:01Z</time></trkpt><trkpt lat="43.67602956127148" lon="12.099632675814824"><ele>788.5</ele><time>2026-05-04T11:59:02Z</time></trkpt><trkpt lat="43.675982456259725" lon="12.099743544879983"><ele>787.0</ele><time>2026-05-04T11:59:03Z</time></trkpt><trkpt lat="43.67594048645039" lon="12.099867788633992"><ele>785.4999999999999</ele><time>2026-05-04T11:59:04Z</time></trkpt><trkpt lat="43.67590959410216" lon="12.099983224803813"><ele>784.0</ele><time>2026-05-04T11:59:05Z</time></trkpt><trkpt lat="43.67588122963277" lon="12.100110348903872"><ele>783.8000000000001</ele><time>2026-05-04T11:59:06Z</time></trkpt><trkpt lat="43.67584843703182" lon="12.100240455060618"><ele>783.6</ele><time>2026-05-04T11:59:07Z</time></trkpt><trkpt lat="43.67580174499706" lon="12.100352612461824"><ele>783.4</ele><time>2026-05-04T11:59:08Z</time></trkpt><trkpt lat="43.67573430058892" lon="12.100455331672446"><ele>783.2</ele><time>2026-05-04T11:59:09Z</time></trkpt><trkpt lat="43.675691832494614" lon="12.100555408323972"><ele>783.0</ele><time>2026-05-04T11:59:10Z</time></trkpt><trkpt lat="43.67562431268102" lon="12.10063284735505"><ele>783.0</ele><time>2026-05-04T11:59:11Z</time></trkpt><trkpt lat="43.675571090185606" lon="12.1007349751411"><ele>783.0</ele><time>2026-05-04T11:59:12Z</time></trkpt><trkpt lat="43.67549806317769" lon="12.100811671971986"><ele>783.0</ele><time>2026-05-04T11:59:13Z</time></trkpt><trkpt lat="43.6754062223822" lon="12.100860556982658"><ele>783.0</ele><time>2026-05-04T11:59:14Z</time></trkpt><trkpt lat="43.675318942242995" lon="12.10087986627514"><ele>783.0</ele><time>2026-05-04T11:59:15Z</time></trkpt><trkpt lat="43.675226636173655" lon="12.100886539636774"><ele>780.5999999999999</ele><time>2026-05-04T11:59:16Z</time></trkpt><trkpt lat="43.67513732010542" lon="12.100851544433192"><ele>778.1999999999999</ele><time>2026-05-04T11:59:17Z</time></trkpt><trkpt lat="43.675055620574824" lon="12.100805387496637"><ele>775.8</ele><time>2026-05-04T11:59:18Z</time></trkpt><trkpt lat="43.67497654237853" lon="12.100747025248058"><ele>773.4</ele><time>2026-05-04T11:59:19Z</time></trkpt><trkpt lat="43.67488640070193" lon="12.100679597430208"><ele>771.0</ele><time>2026-05-04T11:59:20Z</time></trkpt><trkpt lat="43.67481240288039" lon="12.10060109183761"><ele>771.0</ele><time>2026-05-04T11:59:21Z</time></trkpt><trkpt lat="43.674729811226584" lon="12.100516484908841"><ele>771.0</ele><time>2026-05-04T11:59:22Z</time></trkpt><trkpt lat="43.674648327213205" lon="12.100444518326626"><ele>771.0</ele><time>2026-05-04T11:59:23Z</time></trkpt><trkpt lat="43.67458213384248" lon="12.100391652980313"><ele>771.0</ele><time>2026-05-04T11:59:24Z</time></trkpt><trkpt lat="43.6745008097533" lon="12.100347559049268"><ele>771.0</ele><time>2026-05-04T11:59:25Z</time></trkpt><trkpt lat="43.67444099185126" lon="12.100305477361271"><ele>771.0</ele><time>2026-05-04T11:59:26Z</time></trkpt><trkpt lat="43.67436706343592" lon="12.10026882456076"><ele>769.4</ele><time>2026-05-04T11:59:28Z</time></trkpt><trkpt lat="43.674313520593145" lon="12.100220731424335"><ele>767.8</ele><time>2026-05-04T11:59:47Z</time></trkpt><trkpt lat="43.674251243116046" lon="12.100205174612759"><ele>766.1999999999999</ele><time>2026-05-04T11:59:48Z</time></trkpt><trkpt lat="43.67413819704383" lon="12.10024976876785"><ele>764.5999999999999</ele><time>2026-05-04T11:59:50Z</time></trkpt><trkpt lat="43.67395815921967" lon="12.100252766406879"><ele>763.0</ele><time>2026-05-04T11:59:52Z</time></trkpt><trkpt lat="43.67386373928999" lon="12.10023031809001"><ele>763.0</ele><time>2026-05-04T11:59:53Z</time></trkpt><trkpt lat="43.673761144106194" lon="12.100174770797313"><ele>763.0</ele><time>2026-05-04T11:59:54Z</time></trkpt><trkpt lat="43.67366127617776" lon="12.100090915163102"><ele>763.0</ele><time>2026-05-04T11:59:55Z</time></trkpt><trkpt lat="43.67356640512108" lon="12.099994085781779"><ele>763.0</ele><time>2026-05-04T11:59:56Z</time></trkpt><trkpt lat="43.673463613108126" lon="12.099894219039225"><ele>761.0</ele><time>2026-05-04T11:59:57Z</time></trkpt><trkpt lat="43.673352974632614" lon="12.099798398194844"><ele>759.0</ele><time>2026-05-04T11:59:58Z</time></trkpt><trkpt lat="43.67324437177596" lon="12.09970359967926"><ele>757.0</ele><time>2026-05-04T11:59:59Z</time></trkpt><trkpt lat="43.673132378275795" lon="12.099605744374818"><ele>755.0</ele><time>2026-05-04T12:00:00Z</time></trkpt><trkpt lat="43.673014826316574" lon="12.099496226070464"><ele>755.0</ele><time>2026-05-04T12:00:01Z</time></trkpt><trkpt lat="43.672891116559256" lon="12.09937121336651"><ele>755.0</ele><time>2026-05-04T12:00:02Z</time></trkpt><trkpt lat="43.67278019928654" lon="12.099245656967838"><ele>755.0</ele><time>2026-05-04T12:00:03Z</time></trkpt><trkpt lat="43.67267823765435" lon="12.099129090699046"><ele>755.0</ele><time>2026-05-04T12:00:04Z</time></trkpt><trkpt lat="43.672577690495764" lon="12.098999259330556"><ele>752.75</ele><time>2026-05-04T12:00:05Z</time></trkpt><trkpt lat="43.672479070661495" lon="12.098874427287338"><ele>750.5</ele><time>2026-05-04T12:00:06Z</time></trkpt><trkpt lat="43.67238490911373" lon="12.098752794048442"><ele>748.25</ele><time>2026-05-04T12:00:07Z</time></trkpt><trkpt lat="43.672296527769404" lon="12.098634338672404"><ele>746.0</ele><time>2026-05-04T12:00:08Z</time></trkpt><trkpt lat="43.67220607858994" lon="12.09851846604857"><ele>746.0</ele><time>2026-05-04T12:00:09Z</time></trkpt><trkpt lat="43.672117551793896" lon="12.098401607823043"><ele>746.0</ele><time>2026-05-04T12:00:10Z</time></trkpt><trkpt lat="43.67203529777291" lon="12.098289064944769"><ele>746.0</ele><time>2026-05-04T12:00:11Z</time></trkpt><trkpt lat="43.671953430721416" lon="12.098184678753626"><ele>746.0</ele><time>2026-05-04T12:00:12Z</time></trkpt><trkpt lat="43.6718739168951" lon="12.098088874593415"><ele>744.1999999999999</ele><time>2026-05-04T12:00:13.001Z</time></trkpt><trkpt lat="43.67179707252299" lon="12.098008941042226"><ele>742.4</ele><time>2026-05-04T12:00:14.001Z</time></trkpt><trkpt lat="43.67172094817348" lon="12.097911304519013"><ele>740.6</ele><time>2026-05-04T12:00:15.001Z</time></trkpt><trkpt lat="43.671623835859265" lon="12.097867922378565"><ele>738.8</ele><time>2026-05-04T12:00:16.001Z</time></trkpt><trkpt lat="43.671522323001355" lon="12.097826132201462"><ele>737.0</ele><time>2026-05-04T12:00:17.001Z</time></trkpt><trkpt lat="43.67141268832155" lon="12.097807606214086"><ele>737.0</ele><time>2026-05-04T12:00:18.001Z</time></trkpt><trkpt lat="43.671298307658226" lon="12.097772702168628"><ele>737.0</ele><time>2026-05-04T12:00:19.001Z</time></trkpt><trkpt lat="43.67118960368693" lon="12.09774257160635"><ele>737.0</ele><time>2026-05-04T12:00:20.001Z</time></trkpt><trkpt lat="43.67107461855519" lon="12.09770135973823"><ele>737.0</ele><time>2026-05-04T12:00:21.001Z</time></trkpt><trkpt lat="43.670948510968444" lon="12.097648548805095"><ele>735.4000000000001</ele><time>2026-05-04T12:00:22.001Z</time></trkpt><trkpt lat="43.67082262217192" lon="12.097608759147981"><ele>733.8000000000001</ele><time>2026-05-04T12:00:23.001Z</time></trkpt><trkpt lat="43.67071394860769" lon="12.097544306753578"><ele>732.2</ele><time>2026-05-04T12:00:24.001Z</time></trkpt><trkpt lat="43.67061999553428" lon="12.097492919016522"><ele>730.6</ele><time>2026-05-04T12:00:25.001Z</time></trkpt><trkpt lat="43.670548337651105" lon="12.09742277801515"><ele>729.0</ele><time>2026-05-04T12:00:26.001Z</time></trkpt><trkpt lat="43.67048491712408" lon="12.09736139977344"><ele>729.0</ele><time>2026-05-04T12:00:27.001Z</time></trkpt><trkpt lat="43.670434908927476" lon="12.097269528009909"><ele>729.0</ele><time>2026-05-04T12:00:28.001Z</time></trkpt><trkpt lat="43.67040212958994" lon="12.097154056730776"><ele>729.0</ele><time>2026-05-04T12:00:29.001Z</time></trkpt><trkpt lat="43.67038245231724" lon="12.097021504359406"><ele>729.0</ele><time>2026-05-04T12:00:30.001Z</time></trkpt><trkpt lat="43.67037359677379" lon="12.096885585657578"><ele>729.0</ele><time>2026-05-04T12:00:31Z</time></trkpt><trkpt lat="43.67037116245016" lon="12.096753157993918"><ele>729.0</ele><time>2026-05-04T12:00:32Z</time></trkpt><trkpt lat="43.67037167776657" lon="12.09661025457331"><ele>729.0</ele><time>2026-05-04T12:00:33Z</time></trkpt><trkpt lat="43.67037228990397" lon="12.096499029850268"><ele>729.0</ele><time>2026-05-04T12:00:34Z</time></trkpt><trkpt lat="43.67035936514285" lon="12.09635037590188"><ele>729.0</ele><time>2026-05-04T12:00:35Z</time></trkpt><trkpt lat="43.67036589050194" lon="12.096196736412052"><ele>729.0</ele><time>2026-05-04T12:00:36Z</time></trkpt><trkpt lat="43.6703647975193" lon="12.096045188703389"><ele>727.0</ele><time>2026-05-04T12:00:37Z</time></trkpt><trkpt lat="43.6703749301092" lon="12.095890867730692"><ele>725.0</ele><time>2026-05-04T12:00:38Z</time></trkpt><trkpt lat="43.67037269302146" lon="12.09574090566897"><ele>723.0</ele><time>2026-05-04T12:00:39Z</time></trkpt><trkpt lat="43.67037891650433" lon="12.095586158828464"><ele>721.0</ele><time>2026-05-04T12:00:40Z</time></trkpt><trkpt lat="43.67038161006718" lon="12.095438411269402"><ele>719.0</ele><time>2026-05-04T12:00:41Z</time></trkpt><trkpt lat="43.670403311199514" lon="12.095287519703916"><ele>717.4000000000001</ele><time>2026-05-04T12:00:42Z</time></trkpt><trkpt lat="43.67040889936231" lon="12.095138310581264"><ele>715.8</ele><time>2026-05-04T12:00:43Z</time></trkpt><trkpt lat="43.67041424779055" lon="12.094995502613827"><ele>714.2</ele><time>2026-05-04T12:00:44Z</time></trkpt><trkpt lat="43.67041754894982" lon="12.094856906029104"><ele>712.5999999999999</ele><time>2026-05-04T12:00:45Z</time></trkpt><trkpt lat="43.670416825844335" lon="12.0947218244658"><ele>711.0</ele><time>2026-05-04T12:00:46Z</time></trkpt><trkpt lat="43.67041340726692" lon="12.094605952310477"><ele>710.3333333333334</ele><time>2026-05-04T12:00:47Z</time></trkpt><trkpt lat="43.67036934699192" lon="12.094523744854943"><ele>709.6666666666666</ele><time>2026-05-04T12:00:48Z</time></trkpt><trkpt lat="43.6703243859916" lon="12.094452524487513"><ele>709.0</ele><time>2026-05-04T12:00:49Z</time></trkpt><trkpt lat="43.67025261943282" lon="12.094416204991248"><ele>708.3333333333333</ele><time>2026-05-04T12:00:50Z</time></trkpt><trkpt lat="43.670162679410026" lon="12.094401472827155"><ele>707.6666666666666</ele><time>2026-05-04T12:00:51Z</time></trkpt><trkpt lat="43.67006499969278" lon="12.09438623935087"><ele>707.0</ele><time>2026-05-04T12:00:52Z</time></trkpt><trkpt lat="43.66995998183921" lon="12.0944223853885"><ele>705.5</ele><time>2026-05-04T12:00:53Z</time></trkpt><trkpt lat="43.66985717935808" lon="12.094413504168202"><ele>704.0</ele><time>2026-05-04T12:00:54Z</time></trkpt><trkpt lat="43.669779180711394" lon="12.094411549685185"><ele>702.5</ele><time>2026-05-04T12:00:55Z</time></trkpt><trkpt lat="43.66966394628354" lon="12.094372161440399"><ele>701.0</ele><time>2026-05-04T12:00:57Z</time></trkpt><trkpt lat="43.669637750717285" lon="12.094283097311116"><ele>699.5</ele><time>2026-05-04T12:00:58Z</time></trkpt><trkpt lat="43.66966798132122" lon="12.094185292280665"><ele>698.0</ele><time>2026-05-04T12:00:59Z</time></trkpt><trkpt lat="43.66970928252584" lon="12.094118678009943"><ele>697.0</ele><time>2026-05-04T12:01:00Z</time></trkpt><trkpt lat="43.66976674790547" lon="12.094067393125304"><ele>696.0</ele><time>2026-05-04T12:01:01Z</time></trkpt><trkpt lat="43.66985318849176" lon="12.09408475716906"><ele>695.0</ele><time>2026-05-04T12:01:02Z</time></trkpt><trkpt lat="43.66992880061078" lon="12.094034070535097"><ele>694.0</ele><time>2026-05-04T12:01:03Z</time></trkpt><trkpt lat="43.67000187868376" lon="12.09391501029193"><ele>693.0</ele><time>2026-05-04T12:01:05Z</time></trkpt><trkpt lat="43.6699632450693" lon="12.093725772112204"><ele>693.0</ele><time>2026-05-04T12:01:07Z</time></trkpt><trkpt lat="43.66987730429843" lon="12.093671451180489"><ele>693.0</ele><time>2026-05-04T12:01:08Z</time></trkpt><trkpt lat="43.66977286767808" lon="12.093628784479703"><ele>693.0</ele><time>2026-05-04T12:01:09Z</time></trkpt><trkpt lat="43.66968977805291" lon="12.093571203515916"><ele>693.0</ele><time>2026-05-04T12:01:10Z</time></trkpt><trkpt lat="43.66962730150842" lon="12.093506802399983"><ele>693.0</ele><time>2026-05-04T12:01:11Z</time></trkpt><trkpt lat="43.669588842186805" lon="12.09341752507731"><ele>693.0</ele><time>2026-05-04T12:01:12Z</time></trkpt><trkpt lat="43.66957276692052" lon="12.093296230276568"><ele>692.4</ele><time>2026-05-04T12:01:13Z</time></trkpt><trkpt lat="43.669563910775985" lon="12.093149186095719"><ele>691.8</ele><time>2026-05-04T12:01:14Z</time></trkpt><trkpt lat="43.66959958443709" lon="12.093010797312783"><ele>691.2</ele><time>2026-05-04T12:01:15Z</time></trkpt><trkpt lat="43.669595899709954" lon="12.09290156442391"><ele>690.6</ele><time>2026-05-04T12:01:16Z</time></trkpt><trkpt lat="43.669604120506975" lon="12.092786816439101"><ele>690.0</ele><time>2026-05-04T12:01:17Z</time></trkpt><trkpt lat="43.66958096942194" lon="12.0926802987137"><ele>690.0</ele><time>2026-05-04T12:01:18Z</time></trkpt><trkpt lat="43.66948739883053" lon="12.092598935270203"><ele>690.0</ele><time>2026-05-04T12:01:19Z</time></trkpt><trkpt lat="43.66938426937991" lon="12.092541595446903"><ele>690.0</ele><time>2026-05-04T12:01:20Z</time></trkpt><trkpt lat="43.66927152665314" lon="12.092475029227463"><ele>690.0</ele><time>2026-05-04T12:01:21Z</time></trkpt><trkpt lat="43.669153044358275" lon="12.09240585941525"><ele>687.75</ele><time>2026-05-04T12:01:22Z</time></trkpt><trkpt lat="43.66904407903776" lon="12.09233783975548"><ele>685.5</ele><time>2026-05-04T12:01:23Z</time></trkpt><trkpt lat="43.66894011037636" lon="12.092257803914444"><ele>683.25</ele><time>2026-05-04T12:01:24Z</time></trkpt><trkpt lat="43.66884529998082" lon="12.092171067233366"><ele>681.0</ele><time>2026-05-04T12:01:25Z</time></trkpt><trkpt lat="43.66876067667756" lon="12.092083393874582"><ele>681.0</ele><time>2026-05-04T12:01:26Z</time></trkpt><trkpt lat="43.66869018085298" lon="12.091988422591307"><ele>681.0</ele><time>2026-05-04T12:01:27Z</time></trkpt><trkpt lat="43.668624396072424" lon="12.091878886407216"><ele>681.0</ele><time>2026-05-04T12:01:28Z</time></trkpt><trkpt lat="43.668582373781774" lon="12.091761074452453"><ele>681.0</ele><time>2026-05-04T12:01:29Z</time></trkpt><trkpt lat="43.66853812467471" lon="12.091620395298085"><ele>681.0</ele><time>2026-05-04T12:01:30Z</time></trkpt><trkpt lat="43.668501638779986" lon="12.091473079838948"><ele>678.5999999999999</ele><time>2026-05-04T12:01:31Z</time></trkpt><trkpt lat="43.668467870589986" lon="12.091328309940321"><ele>676.2</ele><time>2026-05-04T12:01:32Z</time></trkpt><trkpt lat="43.6684334235728" lon="12.091186400489939"><ele>673.8</ele><time>2026-05-04T12:01:33Z</time></trkpt><trkpt lat="43.668403338056514" lon="12.091061488156585"><ele>671.4000000000001</ele><time>2026-05-04T12:01:34Z</time></trkpt><trkpt lat="43.66837549087034" lon="12.090955284770288"><ele>669.0</ele><time>2026-05-04T12:01:35Z</time></trkpt><trkpt lat="43.668334765519674" lon="12.090852160339704"><ele>669.0</ele><time>2026-05-04T12:01:36Z</time></trkpt><trkpt lat="43.66825983788459" lon="12.09077119026137"><ele>669.0</ele><time>2026-05-04T12:01:37Z</time></trkpt><trkpt lat="43.66815924495982" lon="12.090708193776354"><ele>669.0</ele><time>2026-05-04T12:01:38Z</time></trkpt><trkpt lat="43.668046722625185" lon="12.090639932669152"><ele>669.0</ele><time>2026-05-04T12:01:39Z</time></trkpt><trkpt lat="43.667917777235864" lon="12.090569942399396"><ele>667.5</ele><time>2026-05-04T12:01:40Z</time></trkpt><trkpt lat="43.667786479648015" lon="12.090496794129006"><ele>666.0</ele><time>2026-05-04T12:01:41Z</time></trkpt><trkpt lat="43.667657033766304" lon="12.090423058443216"><ele>664.5</ele><time>2026-05-04T12:01:42Z</time></trkpt><trkpt lat="43.66753263899728" lon="12.090376726637173"><ele>663.0</ele><time>2026-05-04T12:01:43Z</time></trkpt><trkpt lat="43.66741411529888" lon="12.090311788926908"><ele>661.8</ele><time>2026-05-04T12:01:44Z</time></trkpt><trkpt lat="43.6672995515054" lon="12.090245180737647"><ele>660.5999999999999</ele><time>2026-05-04T12:01:45Z</time></trkpt><trkpt lat="43.6671987018727" lon="12.090170624430538"><ele>659.4000000000001</ele><time>2026-05-04T12:01:46Z</time></trkpt><trkpt lat="43.667111706406416" lon="12.09007036688235"><ele>658.2</ele><time>2026-05-04T12:01:47Z</time></trkpt><trkpt lat="43.667037613336134" lon="12.08998521751521"><ele>657.0</ele><time>2026-05-04T12:01:48Z</time></trkpt><trkpt lat="43.66698149765487" lon="12.089908716700878"><ele>656.5</ele><time>2026-05-04T12:01:49Z</time></trkpt><trkpt lat="43.66694691495023" lon="12.089825965243218"><ele>656.0</ele><time>2026-05-04T12:01:50Z</time></trkpt><trkpt lat="43.666936129202035" lon="12.089727218567784"><ele>655.5</ele><time>2026-05-04T12:01:51Z</time></trkpt><trkpt lat="43.66694544389814" lon="12.089617987212474"><ele>655.0</ele><time>2026-05-04T12:01:52Z</time></trkpt><trkpt lat="43.666996277132384" lon="12.08951834163712"><ele>654.5</ele><time>2026-05-04T12:01:53Z</time></trkpt><trkpt lat="43.6670578967234" lon="12.089417709371736"><ele>654.0</ele><time>2026-05-04T12:01:54Z</time></trkpt><trkpt lat="43.66713549155541" lon="12.089345030736062"><ele>654.0</ele><time>2026-05-04T12:01:55Z</time></trkpt><trkpt lat="43.66723639547683" lon="12.08926459529812"><ele>654.0</ele><time>2026-05-04T12:01:56Z</time></trkpt><trkpt lat="43.667344969448976" lon="12.08918966060768"><ele>654.0</ele><time>2026-05-04T12:01:57Z</time></trkpt><trkpt lat="43.66743905012102" lon="12.08913452090639"><ele>654.0</ele><time>2026-05-04T12:01:58Z</time></trkpt><trkpt lat="43.66752565845865" lon="12.089084638522312"><ele>654.0</ele><time>2026-05-04T12:01:59Z</time></trkpt><trkpt lat="43.66760396009209" lon="12.089029088799839"><ele>652.6</ele><time>2026-05-04T12:02:00.001Z</time></trkpt><trkpt lat="43.66766719164753" lon="12.088958912886437"><ele>651.2</ele><time>2026-05-04T12:02:01.001Z</time></trkpt><trkpt lat="43.667708924044696" lon="12.088845007089802"><ele>649.8000000000001</ele><time>2026-05-04T12:02:02.001Z</time></trkpt><trkpt lat="43.667710033346914" lon="12.088694795556366"><ele>648.4000000000001</ele><time>2026-05-04T12:02:03.001Z</time></trkpt><trkpt lat="43.6676910891705" lon="12.08854584684341"><ele>647.0</ele><time>2026-05-04T12:02:04.001Z</time></trkpt><trkpt lat="43.667703542133" lon="12.088397217457826"><ele>647.6</ele><time>2026-05-04T12:02:05.001Z</time></trkpt><trkpt lat="43.66769508504821" lon="12.088230174692276"><ele>648.2</ele><time>2026-05-04T12:02:06.001Z</time></trkpt><trkpt lat="43.66764309129595" lon="12.088079949197908"><ele>648.8</ele><time>2026-05-04T12:02:07.001Z</time></trkpt><trkpt lat="43.667629281037655" lon="12.087934022585017"><ele>649.4</ele><time>2026-05-04T12:02:08.001Z</time></trkpt><trkpt lat="43.66761825851236" lon="12.087801636733861"><ele>650.0</ele><time>2026-05-04T12:02:09.001Z</time></trkpt><trkpt lat="43.66763086690112" lon="12.087658236588885"><ele>650.0</ele><time>2026-05-04T12:02:10.001Z</time></trkpt><trkpt lat="43.667660730421204" lon="12.087499529333776"><ele>650.0</ele><time>2026-05-04T12:02:11.001Z</time></trkpt><trkpt lat="43.667677561637994" lon="12.08733639563194"><ele>650.0</ele><time>2026-05-04T12:02:12.001Z</time></trkpt><trkpt lat="43.66767511397362" lon="12.087151799209034"><ele>650.0</ele><time>2026-05-04T12:02:13.001Z</time></trkpt><trkpt lat="43.667651796959674" lon="12.086973324196432"><ele>651.0</ele><time>2026-05-04T12:02:14.001Z</time></trkpt><trkpt lat="43.667622329935504" lon="12.086797782519957"><ele>652.0</ele><time>2026-05-04T12:02:15.001Z</time></trkpt><trkpt lat="43.6675754653879" lon="12.086624524729178"><ele>653.0</ele><time>2026-05-04T12:02:16.001Z</time></trkpt><trkpt lat="43.66754797471889" lon="12.086444771505596"><ele>654.0</ele><time>2026-05-04T12:02:17.001Z</time></trkpt><trkpt lat="43.6675155683712" lon="12.086267850896013"><ele>654.5</ele><time>2026-05-04T12:02:18.001Z</time></trkpt><trkpt lat="43.66749894515551" lon="12.086094019366268"><ele>655.0</ele><time>2026-05-04T12:02:19.001Z</time></trkpt><trkpt lat="43.667478282260326" lon="12.085916728874134"><ele>655.5</ele><time>2026-05-04T12:02:20.001Z</time></trkpt><trkpt lat="43.667462496386975" lon="12.085730461811199"><ele>656.0</ele><time>2026-05-04T12:02:21.001Z</time></trkpt><trkpt lat="43.66743297301676" lon="12.085543131066533"><ele>656.5</ele><time>2026-05-04T12:02:22.001Z</time></trkpt><trkpt lat="43.667423212810434" lon="12.085358166925236"><ele>657.0</ele><time>2026-05-04T12:02:23.001Z</time></trkpt><trkpt lat="43.66739509883102" lon="12.085187384136848"><ele>657.5</ele><time>2026-05-04T12:02:24.001Z</time></trkpt><trkpt lat="43.66733991959809" lon="12.085049037680633"><ele>658.0</ele><time>2026-05-04T12:02:25.001Z</time></trkpt><trkpt lat="43.667302814756155" lon="12.084919182127239"><ele>658.4</ele><time>2026-05-04T12:02:26.001Z</time></trkpt><trkpt lat="43.66728106931114" lon="12.084806831133987"><ele>658.8</ele><time>2026-05-04T12:02:27.001Z</time></trkpt><trkpt lat="43.66729544908992" lon="12.084675898619956"><ele>659.2</ele><time>2026-05-04T12:02:28.001Z</time></trkpt><trkpt lat="43.667319311488534" lon="12.084551670372027"><ele>659.6</ele><time>2026-05-04T12:02:29.001Z</time></trkpt><trkpt lat="43.66734667879159" lon="12.084409839359616"><ele>660.0</ele><time>2026-05-04T12:02:30.001Z</time></trkpt><trkpt lat="43.66736421221306" lon="12.084258314401797"><ele>660.0</ele><time>2026-05-04T12:02:31.001Z</time></trkpt><trkpt lat="43.66739703932302" lon="12.084108540654011"><ele>660.0</ele><time>2026-05-04T12:02:32.001Z</time></trkpt><trkpt lat="43.66742477965018" lon="12.083951254225155"><ele>660.0</ele><time>2026-05-04T12:02:33.001Z</time></trkpt><trkpt lat="43.66744979141579" lon="12.083821863253888"><ele>660.0</ele><time>2026-05-04T12:02:34.001Z</time></trkpt><trkpt lat="43.66749002949206" lon="12.08371172546754"><ele>660.0</ele><time>2026-05-04T12:02:35.001Z</time></trkpt><trkpt lat="43.66750729158793" lon="12.083589106266741"><ele>660.0</ele><time>2026-05-04T12:02:36.001Z</time></trkpt><trkpt lat="43.667550324221914" lon="12.083502355210731"><ele>660.0</ele><time>2026-05-04T12:02:37Z</time></trkpt><trkpt lat="43.66763693575651" lon="12.083450450208582"><ele>660.0</ele><time>2026-05-04T12:02:38Z</time></trkpt><trkpt lat="43.66769922223472" lon="12.08339336951062"><ele>660.0</ele><time>2026-05-04T12:02:39Z</time></trkpt><trkpt lat="43.667769222603624" lon="12.083380119823634"><ele>660.0</ele><time>2026-05-04T12:02:40Z</time></trkpt><trkpt lat="43.66786877247599" lon="12.083309503131186"><ele>660.0</ele><time>2026-05-04T12:02:42Z</time></trkpt><trkpt lat="43.66793943853302" lon="12.083232338009436"><ele>660.7142857142858</ele><time>2026-05-04T12:02:44Z</time></trkpt><trkpt lat="43.66797792104942" lon="12.083119977631716"><ele>661.4285714285714</ele><time>2026-05-04T12:02:46Z</time></trkpt><trkpt lat="43.667957795227935" lon="12.083030489085496"><ele>662.1428571428571</ele><time>2026-05-04T12:02:47Z</time></trkpt><trkpt lat="43.667907170399964" lon="12.082960190139413"><ele>662.8571428571429</ele><time>2026-05-04T12:02:48Z</time></trkpt><trkpt lat="43.66785047176983" lon="12.082920852240482"><ele>663.5714285714286</ele><time>2026-05-04T12:02:49Z</time></trkpt><trkpt lat="43.66780720197108" lon="12.08284104344407"><ele>664.2857142857143</ele><time>2026-05-04T12:02:50Z</time></trkpt><trkpt lat="43.667747566590904" lon="12.082776491745104"><ele>665.0</ele><time>2026-05-04T12:02:51Z</time></trkpt><trkpt lat="43.66767510544207" lon="12.082701015587558"><ele>665.0</ele><time>2026-05-04T12:02:52Z</time></trkpt><trkpt lat="43.667590920805644" lon="12.082613328110888"><ele>665.0</ele><time>2026-05-04T12:02:53Z</time></trkpt><trkpt lat="43.66749665576259" lon="12.082513532783262"><ele>665.0</ele><time>2026-05-04T12:02:54Z</time></trkpt><trkpt lat="43.6673925728539" lon="12.082424233331187"><ele>665.0</ele><time>2026-05-04T12:02:55Z</time></trkpt><trkpt lat="43.667292396447046" lon="12.082312486806535"><ele>667.0</ele><time>2026-05-04T12:02:56Z</time></trkpt><trkpt lat="43.66719584995679" lon="12.08220987530449"><ele>669.0</ele><time>2026-05-04T12:02:57Z</time></trkpt><trkpt lat="43.66711525478012" lon="12.082110909132515"><ele>671.0</ele><time>2026-05-04T12:02:58Z</time></trkpt><trkpt lat="43.66705240628841" lon="12.082010427429001"><ele>673.0</ele><time>2026-05-04T12:02:59Z</time></trkpt><trkpt lat="43.66699698029447" lon="12.081923811234324"><ele>675.0</ele><time>2026-05-04T12:03:00Z</time></trkpt><trkpt lat="43.666959135485925" lon="12.081847166641877"><ele>676.3333333333334</ele><time>2026-05-04T12:03:01Z</time></trkpt><trkpt lat="43.66693588512282" lon="12.081766156042121"><ele>677.6666666666666</ele><time>2026-05-04T12:03:02Z</time></trkpt><trkpt lat="43.666934875111345" lon="12.08167727677186"><ele>679.0</ele><time>2026-05-04T12:03:03Z</time></trkpt><trkpt lat="43.66695399235832" lon="12.081565057665285"><ele>680.3333333333333</ele><time>2026-05-04T12:03:04Z</time></trkpt><trkpt lat="43.66697880875029" lon="12.081457897610157"><ele>681.6666666666666</ele><time>2026-05-04T12:03:05Z</time></trkpt><trkpt lat="43.66701396580498" lon="12.08134467909595"><ele>683.0</ele><time>2026-05-04T12:03:06Z</time></trkpt><trkpt lat="43.667057575184444" lon="12.081212382440775"><ele>683.0</ele><time>2026-05-04T12:03:07Z</time></trkpt><trkpt lat="43.6671007809717" lon="12.081101642128734"><ele>683.0</ele><time>2026-05-04T12:03:08Z</time></trkpt><trkpt lat="43.66714510642371" lon="12.080986752971844"><ele>683.0</ele><time>2026-05-04T12:03:09Z</time></trkpt><trkpt lat="43.66717654770278" lon="12.080859694293439"><ele>683.0</ele><time>2026-05-04T12:03:10Z</time></trkpt><trkpt lat="43.667177872517556" lon="12.080728592383984"><ele>683.0</ele><time>2026-05-04T12:03:11Z</time></trkpt><trkpt lat="43.66715884419161" lon="12.080611589883597"><ele>684.5</ele><time>2026-05-04T12:03:12Z</time></trkpt><trkpt lat="43.66715284386125" lon="12.080518113499645"><ele>686.0</ele><time>2026-05-04T12:03:13Z</time></trkpt><trkpt lat="43.667159871827536" lon="12.080430439924799"><ele>687.5</ele><time>2026-05-04T12:03:14Z</time></trkpt><trkpt lat="43.6672224473016" lon="12.08026482810593"><ele>689.0</ele><time>2026-05-04T12:03:16Z</time></trkpt><trkpt lat="43.667254129398515" lon="12.080164837482272"><ele>690.5</ele><time>2026-05-04T12:03:17Z</time></trkpt><trkpt lat="43.66727805648777" lon="12.080066925350554"><ele>692.0</ele><time>2026-05-04T12:03:18Z</time></trkpt><trkpt lat="43.66728825999344" lon="12.079974826867682"><ele>694.3333333333333</ele><time>2026-05-04T12:03:19Z</time></trkpt><trkpt lat="43.667279910025854" lon="12.079878375384578"><ele>696.6666666666666</ele><time>2026-05-04T12:03:20Z</time></trkpt><trkpt lat="43.667251540714666" lon="12.079787737649735"><ele>699.0</ele><time>2026-05-04T12:03:21Z</time></trkpt><trkpt lat="43.66720883355629" lon="12.079710023822647"><ele>701.3333333333334</ele><time>2026-05-04T12:03:22Z</time></trkpt><trkpt lat="43.667138632105235" lon="12.079657133778575"><ele>703.6666666666667</ele><time>2026-05-04T12:03:23Z</time></trkpt><trkpt lat="43.667091048086114" lon="12.07956925692324"><ele>706.0</ele><time>2026-05-04T12:03:24Z</time></trkpt><trkpt lat="43.667040041828365" lon="12.079487275560282"><ele>706.0</ele><time>2026-05-04T12:03:25Z</time></trkpt><trkpt lat="43.66697507122651" lon="12.079380074881454"><ele>706.0</ele><time>2026-05-04T12:03:26Z</time></trkpt><trkpt lat="43.66691581490281" lon="12.07927234595226"><ele>706.0</ele><time>2026-05-04T12:03:27Z</time></trkpt><trkpt lat="43.66686090201776" lon="12.079159469788289"><ele>706.0</ele><time>2026-05-04T12:03:28Z</time></trkpt><trkpt lat="43.66680450145473" lon="12.079025031625653"><ele>706.0</ele><time>2026-05-04T12:03:29Z</time></trkpt><trkpt lat="43.66673592886863" lon="12.078857618750472"><ele>699.3333333333334</ele><time>2026-05-04T12:03:30Z</time></trkpt><trkpt lat="43.666662611741046" lon="12.078685270198006"><ele>692.6666666666666</ele><time>2026-05-04T12:03:31Z</time></trkpt><trkpt lat="43.66657943999188" lon="12.078507689901274"><ele>686.0</ele><time>2026-05-04T12:03:32Z</time></trkpt><trkpt lat="43.666482941127086" lon="12.078327420848654"><ele>690.0</ele><time>2026-05-04T12:03:33Z</time></trkpt><trkpt lat="43.66640023373537" lon="12.0781388347117"><ele>694.0</ele><time>2026-05-04T12:03:34Z</time></trkpt><trkpt lat="43.666324388024464" lon="12.07795909396711"><ele>698.0</ele><time>2026-05-04T12:03:35Z</time></trkpt><trkpt lat="43.666248328661474" lon="12.077778380274529"><ele>698.0</ele><time>2026-05-04T12:03:36Z</time></trkpt><trkpt lat="43.6661656343865" lon="12.077594336738402"><ele>698.0</ele><time>2026-05-04T12:03:37Z</time></trkpt><trkpt lat="43.66608183157604" lon="12.07741604960009"><ele>698.0</ele><time>2026-05-04T12:03:38Z</time></trkpt><trkpt lat="43.66601888990033" lon="12.077255425209836"><ele>698.0</ele><time>2026-05-04T12:03:39Z</time></trkpt><trkpt lat="43.6659611127282" lon="12.077102367824068"><ele>695.2</ele><time>2026-05-04T12:03:40Z</time></trkpt><trkpt lat="43.66591290794699" lon="12.076955271945543"><ele>692.4</ele><time>2026-05-04T12:03:41Z</time></trkpt><trkpt lat="43.66588085931662" lon="12.076823521090425"><ele>689.6</ele><time>2026-05-04T12:03:42Z</time></trkpt><trkpt lat="43.66583853854892" lon="12.07668931827499"><ele>686.8000000000001</ele><time>2026-05-04T12:03:43Z</time></trkpt><trkpt lat="43.66579271697191" lon="12.07653819049666"><ele>684.0</ele><time>2026-05-04T12:03:44Z</time></trkpt><trkpt lat="43.66574710776892" lon="12.07638434682328"><ele>684.0</ele><time>2026-05-04T12:03:45Z</time></trkpt><trkpt lat="43.665733725410455" lon="12.076234882633978"><ele>684.0</ele><time>2026-05-04T12:03:46Z</time></trkpt><trkpt lat="43.6657131166563" lon="12.076105552927737"><ele>684.0</ele><time>2026-05-04T12:03:47Z</time></trkpt><trkpt lat="43.66567453342818" lon="12.07598606262046"><ele>684.0</ele><time>2026-05-04T12:03:48Z</time></trkpt><trkpt lat="43.6656083606758" lon="12.075891875185112"><ele>684.0</ele><time>2026-05-04T12:03:49Z</time></trkpt><trkpt lat="43.66550400653616" lon="12.075820179578898"><ele>681.75</ele><time>2026-05-04T12:03:50Z</time></trkpt><trkpt lat="43.66541457973654" lon="12.075706783766044"><ele>679.5</ele><time>2026-05-04T12:03:51Z</time></trkpt><trkpt lat="43.66531939140639" lon="12.07557480495872"><ele>677.25</ele><time>2026-05-04T12:03:52Z</time></trkpt><trkpt lat="43.6652325948973" lon="12.075439568487615"><ele>675.0</ele><time>2026-05-04T12:03:53Z</time></trkpt><trkpt lat="43.6651542313493" lon="12.075317471150607"><ele>675.0</ele><time>2026-05-04T12:03:54Z</time></trkpt><trkpt lat="43.66509982121117" lon="12.07519677997153"><ele>675.0</ele><time>2026-05-04T12:03:55Z</time></trkpt><trkpt lat="43.66505333671497" lon="12.075075974804456"><ele>675.0</ele><time>2026-05-04T12:03:56Z</time></trkpt><trkpt lat="43.6650111480826" lon="12.074944055164366"><ele>675.0</ele><time>2026-05-04T12:03:57Z</time></trkpt><trkpt lat="43.664966885696586" lon="12.074814723841943"><ele>675.0</ele><time>2026-05-04T12:03:58Z</time></trkpt><trkpt lat="43.6648883619917" lon="12.074695294395058"><ele>676.5</ele><time>2026-05-04T12:03:59Z</time></trkpt><trkpt lat="43.66480191569202" lon="12.074579999679877"><ele>678.0</ele><time>2026-05-04T12:04:00Z</time></trkpt><trkpt lat="43.66470805826025" lon="12.074455099745597"><ele>679.5</ele><time>2026-05-04T12:04:01Z</time></trkpt><trkpt lat="43.66460799428093" lon="12.074331993869068"><ele>681.0</ele><time>2026-05-04T12:04:02Z</time></trkpt><trkpt lat="43.66452087180532" lon="12.074233460519569"><ele>677.0</ele><time>2026-05-04T12:04:03Z</time></trkpt><trkpt lat="43.66443798076879" lon="12.0741320397418"><ele>673.0</ele><time>2026-05-04T12:04:04Z</time></trkpt><trkpt lat="43.6643759079241" lon="12.074029829257022"><ele>669.0</ele><time>2026-05-04T12:04:05Z</time></trkpt><trkpt lat="43.664313005017924" lon="12.073931401602456"><ele>665.0</ele><time>2026-05-04T12:04:06Z</time></trkpt><trkpt lat="43.664269962078755" lon="12.07380064314118"><ele>661.0</ele><time>2026-05-04T12:04:07Z</time></trkpt><trkpt lat="43.66424479214472" lon="12.073663114672463"><ele>661.0</ele><time>2026-05-04T12:04:08Z</time></trkpt><trkpt lat="43.66424273739707" lon="12.073521358548106"><ele>661.0</ele><time>2026-05-04T12:04:09Z</time></trkpt><trkpt lat="43.66425306012456" lon="12.073375349235898"><ele>661.0</ele><time>2026-05-04T12:04:10Z</time></trkpt><trkpt lat="43.664252683814944" lon="12.073237424507674"><ele>661.0</ele><time>2026-05-04T12:04:11Z</time></trkpt><trkpt lat="43.66423821575333" lon="12.073095783626735"><ele>661.0</ele><time>2026-05-04T12:04:12Z</time></trkpt><trkpt lat="43.66423531223457" lon="12.072960177293917"><ele>660.6666666666667</ele><time>2026-05-04T12:04:13Z</time></trkpt><trkpt lat="43.66420679886046" lon="12.072835592765518"><ele>660.3333333333334</ele><time>2026-05-04T12:04:14Z</time></trkpt><trkpt lat="43.66414964809422" lon="12.072745642806115"><ele>660.0</ele><time>2026-05-04T12:04:15Z</time></trkpt><trkpt lat="43.66410052803309" lon="12.072655978159473"><ele>659.6666666666666</ele><time>2026-05-04T12:04:16Z</time></trkpt><trkpt lat="43.66404371963156" lon="12.07258353778186"><ele>659.3333333333333</ele><time>2026-05-04T12:04:17Z</time></trkpt><trkpt lat="43.66399199739113" lon="12.072504681296936"><ele>659.0</ele><time>2026-05-04T12:04:18Z</time></trkpt><trkpt lat="43.663956055824215" lon="12.072421119980246"><ele>658.4000000000001</ele><time>2026-05-04T12:04:19Z</time></trkpt><trkpt lat="43.66393825435397" lon="12.072247545043076"><ele>657.8</ele><time>2026-05-04T12:04:21Z</time></trkpt><trkpt lat="43.663963575330484" lon="12.072089551638678"><ele>657.2</ele><time>2026-05-04T12:04:23Z</time></trkpt><trkpt lat="43.66396787833447" lon="12.071959071807266"><ele>656.5999999999999</ele><time>2026-05-04T12:04:25Z</time></trkpt><trkpt lat="43.663983567980054" lon="12.071836025970425"><ele>656.0</ele><time>2026-05-04T12:04:26Z</time></trkpt><trkpt lat="43.66398671805228" lon="12.071711288753901"><ele>654.1999999999999</ele><time>2026-05-04T12:04:27Z</time></trkpt><trkpt lat="43.663982181413274" lon="12.07156032742161"><ele>652.4</ele><time>2026-05-04T12:04:28Z</time></trkpt><trkpt lat="43.66397428192854" lon="12.071409107669743"><ele>650.6</ele><time>2026-05-04T12:04:29.001Z</time></trkpt><trkpt lat="43.663968611290464" lon="12.071261390434074"><ele>648.8</ele><time>2026-05-04T12:04:30.001Z</time></trkpt><trkpt lat="43.66397693217633" lon="12.071098144243289"><ele>647.0</ele><time>2026-05-04T12:04:31.001Z</time></trkpt><trkpt lat="43.66396224052737" lon="12.070938451022753"><ele>647.0</ele><time>2026-05-04T12:04:32.001Z</time></trkpt><trkpt lat="43.66396470415211" lon="12.070792869397566"><ele>647.0</ele><time>2026-05-04T12:04:33.001Z</time></trkpt><trkpt lat="43.663974668170766" lon="12.070635321667334"><ele>647.0</ele><time>2026-05-04T12:04:34.001Z</time></trkpt><trkpt lat="43.6639996566771" lon="12.070470544461353"><ele>647.0</ele><time>2026-05-04T12:04:35.001Z</time></trkpt><trkpt lat="43.66399580281726" lon="12.070307992118925"><ele>645.75</ele><time>2026-05-04T12:04:36.001Z</time></trkpt><trkpt lat="43.664014923964615" lon="12.070146341034416"><ele>644.5</ele><time>2026-05-04T12:04:37.001Z</time></trkpt><trkpt lat="43.66400262023049" lon="12.069986369734178"><ele>643.25</ele><time>2026-05-04T12:04:38.001Z</time></trkpt><trkpt lat="43.66400994256561" lon="12.06982689133458"><ele>642.0</ele><time>2026-05-04T12:04:39.001Z</time></trkpt><trkpt lat="43.664012833447" lon="12.069668669561404"><ele>640.75</ele><time>2026-05-04T12:04:40.001Z</time></trkpt><trkpt lat="43.6640381817193" lon="12.069528316936358"><ele>639.5</ele><time>2026-05-04T12:04:41.001Z</time></trkpt><trkpt lat="43.66405157417586" lon="12.069382509736368"><ele>638.25</ele><time>2026-05-04T12:04:42.001Z</time></trkpt><trkpt lat="43.66406964409768" lon="12.069221788353168"><ele>637.0</ele><time>2026-05-04T12:04:43Z</time></trkpt><trkpt lat="43.66410103753322" lon="12.069057790259542"><ele>636.0</ele><time>2026-05-04T12:04:44Z</time></trkpt><trkpt lat="43.664134942856315" lon="12.06889201979315"><ele>635.0</ele><time>2026-05-04T12:04:45Z</time></trkpt><trkpt lat="43.66415537521031" lon="12.068732306927759"><ele>634.0</ele><time>2026-05-04T12:04:46Z</time></trkpt><trkpt lat="43.66418106657292" lon="12.068583528976728"><ele>633.0</ele><time>2026-05-04T12:04:47Z</time></trkpt><trkpt lat="43.66420845048345" lon="12.068432961512885"><ele>633.0</ele><time>2026-05-04T12:04:48Z</time></trkpt><trkpt lat="43.66423945697798" lon="12.068284453502983"><ele>633.0</ele><time>2026-05-04T12:04:49Z</time></trkpt><trkpt lat="43.664227793737794" lon="12.068132783446721"><ele>633.0</ele><time>2026-05-04T12:04:50Z</time></trkpt><trkpt lat="43.66423206625871" lon="12.067970677812642"><ele>633.0</ele><time>2026-05-04T12:04:51Z</time></trkpt><trkpt lat="43.66421378416559" lon="12.067811188199933"><ele>631.8</ele><time>2026-05-04T12:04:52Z</time></trkpt><trkpt lat="43.664171997308735" lon="12.067677800994845"><ele>630.5999999999999</ele><time>2026-05-04T12:04:53Z</time></trkpt><trkpt lat="43.66414033035769" lon="12.067548910906178"><ele>629.4000000000001</ele><time>2026-05-04T12:04:54Z</time></trkpt><trkpt lat="43.664113660389404" lon="12.067428246184988"><ele>628.2</ele><time>2026-05-04T12:04:55Z</time></trkpt><trkpt lat="43.66409830447146" lon="12.06730996416347"><ele>627.0</ele><time>2026-05-04T12:04:56Z</time></trkpt><trkpt lat="43.66411736718198" lon="12.067178991750522"><ele>624.0</ele><time>2026-05-04T12:04:57Z</time></trkpt><trkpt lat="43.66416396087759" lon="12.067032485484809"><ele>621.0</ele><time>2026-05-04T12:04:58Z</time></trkpt><trkpt lat="43.664241647617764" lon="12.06688141984174"><ele>618.0</ele><time>2026-05-04T12:04:59Z</time></trkpt><trkpt lat="43.66430170904058" lon="12.066704181074119"><ele>615.0</ele><time>2026-05-04T12:05:00Z</time></trkpt><trkpt lat="43.6643653294097" lon="12.066555393734522"><ele>615.6</ele><time>2026-05-04T12:05:01Z</time></trkpt><trkpt lat="43.66444012308054" lon="12.066429983426595"><ele>616.2</ele><time>2026-05-04T12:05:02Z</time></trkpt><trkpt lat="43.664496964883995" lon="12.066313221705443"><ele>616.8</ele><time>2026-05-04T12:05:03Z</time></trkpt><trkpt lat="43.66455196463463" lon="12.066215532223687"><ele>617.4</ele><time>2026-05-04T12:05:04Z</time></trkpt><trkpt lat="43.66460881964982" lon="12.066149070742364"><ele>618.0</ele><time>2026-05-04T12:05:05Z</time></trkpt><trkpt lat="43.66466987950678" lon="12.0661027512335"><ele>618.0</ele><time>2026-05-04T12:05:06Z</time></trkpt><trkpt lat="43.66474497746352" lon="12.066055348930055"><ele>618.0</ele><time>2026-05-04T12:05:07Z</time></trkpt><trkpt lat="43.664838591804134" lon="12.066005519259916"><ele>618.0</ele><time>2026-05-04T12:05:08Z</time></trkpt><trkpt lat="43.664956014760975" lon="12.06591366509245"><ele>618.0</ele><time>2026-05-04T12:05:09Z</time></trkpt><trkpt lat="43.665075585448015" lon="12.06584952785939"><ele>618.0</ele><time>2026-05-04T12:05:10Z</time></trkpt><trkpt lat="43.665184361608276" lon="12.065797596750151"><ele>618.8</ele><time>2026-05-04T12:05:11Z</time></trkpt><trkpt lat="43.66528899236939" lon="12.065752660137695"><ele>619.5999999999999</ele><time>2026-05-04T12:05:12Z</time></trkpt><trkpt lat="43.66538128765359" lon="12.065716262366555"><ele>620.4000000000001</ele><time>2026-05-04T12:05:13Z</time></trkpt><trkpt lat="43.66546307773795" lon="12.065687578593758"><ele>621.2</ele><time>2026-05-04T12:05:14Z</time></trkpt><trkpt lat="43.665530809175934" lon="12.065646063994322"><ele>622.0</ele><time>2026-05-04T12:05:15Z</time></trkpt><trkpt lat="43.66561276877848" lon="12.065515507551554"><ele>622.0</ele><time>2026-05-04T12:05:17Z</time></trkpt><trkpt lat="43.665605575722644" lon="12.065391941611159"><ele>622.0</ele><time>2026-05-04T12:05:18Z</time></trkpt><trkpt lat="43.66555811875868" lon="12.065257100402539"><ele>622.0</ele><time>2026-05-04T12:05:19Z</time></trkpt><trkpt lat="43.66546577898916" lon="12.065152301295948"><ele>622.0</ele><time>2026-05-04T12:05:20Z</time></trkpt><trkpt lat="43.66538745991141" lon="12.06505127571279"><ele>622.0</ele><time>2026-05-04T12:05:21Z</time></trkpt><trkpt lat="43.66529254117985" lon="12.064955274525166"><ele>616.4</ele><time>2026-05-04T12:05:22Z</time></trkpt><trkpt lat="43.665216105431796" lon="12.064876300416115"><ele>610.8000000000001</ele><time>2026-05-04T12:05:23Z</time></trkpt><trkpt lat="43.66516817200858" lon="12.064800547393967"><ele>605.2</ele><time>2026-05-04T12:05:24Z</time></trkpt><trkpt lat="43.66514438846885" lon="12.06463121233037"><ele>599.6</ele><time>2026-05-04T12:05:26Z</time></trkpt><trkpt lat="43.665210808645725" lon="12.06451598561372"><ele>594.0</ele><time>2026-05-04T12:05:27Z</time></trkpt><trkpt lat="43.66526806439087" lon="12.064378153116861"><ele>594.0</ele><time>2026-05-04T12:05:28Z</time></trkpt><trkpt lat="43.66533052709844" lon="12.064237603466246"><ele>594.0</ele><time>2026-05-04T12:05:29Z</time></trkpt><trkpt lat="43.665383019981576" lon="12.064095645218433"><ele>594.0</ele><time>2026-05-04T12:05:30Z</time></trkpt><trkpt lat="43.66544743171197" lon="12.06398416399594"><ele>594.0</ele><time>2026-05-04T12:05:31Z</time></trkpt><trkpt lat="43.665518208809125" lon="12.063910738654615"><ele>594.0</ele><time>2026-05-04T12:05:32Z</time></trkpt><trkpt lat="43.66557904275448" lon="12.063841756052446"><ele>594.0</ele><time>2026-05-04T12:05:33Z</time></trkpt><trkpt lat="43.665644574839405" lon="12.063738475797718"><ele>594.0</ele><time>2026-05-04T12:05:35Z</time></trkpt><trkpt lat="43.66562086202353" lon="12.06359100923719"><ele>594.0</ele><time>2026-05-04T12:05:37Z</time></trkpt><trkpt lat="43.665541949558666" lon="12.063548109755843"><ele>594.0</ele><time>2026-05-04T12:05:38Z</time></trkpt><trkpt lat="43.66545606057074" lon="12.063572965797796"><ele>594.0</ele><time>2026-05-04T12:05:39Z</time></trkpt><trkpt lat="43.66538354207903" lon="12.063640183276739"><ele>594.0</ele><time>2026-05-04T12:05:40Z</time></trkpt><trkpt lat="43.665285622484944" lon="12.063670213701785"><ele>594.0</ele><time>2026-05-04T12:05:41Z</time></trkpt><trkpt lat="43.66519874534519" lon="12.063715648789431"><ele>594.0</ele><time>2026-05-04T12:05:42Z</time></trkpt><trkpt lat="43.66510528766211" lon="12.063753191259154"><ele>594.0</ele><time>2026-05-04T12:05:43Z</time></trkpt><trkpt lat="43.665004477545764" lon="12.063820758993717"><ele>594.0</ele><time>2026-05-04T12:05:44Z</time></trkpt><trkpt lat="43.66490145122656" lon="12.063892984998008"><ele>594.0</ele><time>2026-05-04T12:05:45Z</time></trkpt><trkpt lat="43.66480962544312" lon="12.063981668966601"><ele>594.0</ele><time>2026-05-04T12:05:46Z</time></trkpt><trkpt lat="43.664729157121876" lon="12.06406733884665"><ele>594.0</ele><time>2026-05-04T12:05:47Z</time></trkpt><trkpt lat="43.664643964651525" lon="12.064138879753605"><ele>594.0</ele><time>2026-05-04T12:05:48Z</time></trkpt><trkpt lat="43.66455943110926" lon="12.064192239684141"><ele>594.0</ele><time>2026-05-04T12:05:49Z</time></trkpt><trkpt lat="43.664458600456186" lon="12.064212118183587"><ele>591.2</ele><time>2026-05-04T12:05:50Z</time></trkpt><trkpt lat="43.66435490430796" lon="12.064182988024884"><ele>588.4</ele><time>2026-05-04T12:05:51Z</time></trkpt><trkpt lat="43.66426567246123" lon="12.064194977101524"><ele>585.6</ele><time>2026-05-04T12:05:52Z</time></trkpt><trkpt lat="43.664175407933215" lon="12.064270437104302"><ele>582.8</ele><time>2026-05-04T12:05:53Z</time></trkpt><trkpt lat="43.664102003998934" lon="12.064341482283139"><ele>580.0</ele><time>2026-05-04T12:05:54Z</time></trkpt><trkpt lat="43.66405103314103" lon="12.06440507831147"><ele>580.0</ele><time>2026-05-04T12:05:55Z</time></trkpt><trkpt lat="43.66395457039364" lon="12.064414897711087"><ele>580.0</ele><time>2026-05-04T12:05:57Z</time></trkpt><trkpt lat="43.663928091570334" lon="12.064238721404667"><ele>580.0</ele><time>2026-05-04T12:05:59Z</time></trkpt><trkpt lat="43.663938827715384" lon="12.064101622019276"><ele>580.0</ele><time>2026-05-04T12:06:00Z</time></trkpt><trkpt lat="43.66394747095558" lon="12.06394474089836"><ele>580.0</ele><time>2026-05-04T12:06:01Z</time></trkpt><trkpt lat="43.6639555696385" lon="12.063792373997746"><ele>578.5</ele><time>2026-05-04T12:06:02Z</time></trkpt><trkpt lat="43.66398304198889" lon="12.063660743315248"><ele>577.0</ele><time>2026-05-04T12:06:03Z</time></trkpt><trkpt lat="43.66399095319427" lon="12.063549138057859"><ele>575.5</ele><time>2026-05-04T12:06:04Z</time></trkpt><trkpt lat="43.66402907907196" lon="12.063460035591246"><ele>574.0</ele><time>2026-05-04T12:06:05Z</time></trkpt><trkpt lat="43.664117780083366" lon="12.063428335786957"><ele>572.5</ele><time>2026-05-04T12:06:06Z</time></trkpt><trkpt lat="43.664193192098445" lon="12.06335100965233"><ele>571.0</ele><time>2026-05-04T12:06:07Z</time></trkpt><trkpt lat="43.66426399753078" lon="12.063253160023812"><ele>570.4</ele><time>2026-05-04T12:06:08Z</time></trkpt><trkpt lat="43.66427407401844" lon="12.063075630936039"><ele>569.8</ele><time>2026-05-04T12:06:09Z</time></trkpt><trkpt lat="43.66432439019384" lon="12.062958383225858"><ele>569.1999999999999</ele><time>2026-05-04T12:06:10Z</time></trkpt><trkpt lat="43.6643630803582" lon="12.06284907684818"><ele>568.6</ele><time>2026-05-04T12:06:11Z</time></trkpt><trkpt lat="43.66445422580448" lon="12.062823706337998"><ele>568.0</ele><time>2026-05-04T12:06:12Z</time></trkpt><trkpt lat="43.664498796585754" lon="12.062759297994441"><ele>568.0</ele><time>2026-05-04T12:06:13Z</time></trkpt><trkpt lat="43.664523029488365" lon="12.06267460212594"><ele>568.0</ele><time>2026-05-04T12:06:14Z</time></trkpt><trkpt lat="43.664470923749384" lon="12.062524356137423"><ele>568.0</ele><time>2026-05-04T12:06:16Z</time></trkpt><trkpt lat="43.664395055049155" lon="12.062503373905102"><ele>568.0</ele><time>2026-05-04T12:06:17Z</time></trkpt><trkpt lat="43.66432649428986" lon="12.062569273530965"><ele>568.0</ele><time>2026-05-04T12:06:18Z</time></trkpt><trkpt lat="43.664247514732715" lon="12.062565516823444"><ele>568.0</ele><time>2026-05-04T12:06:19Z</time></trkpt><trkpt lat="43.66417521815097" lon="12.062548343958495"><ele>566.1999999999999</ele><time>2026-05-04T12:06:20Z</time></trkpt><trkpt lat="43.664082753987955" lon="12.062513074085393"><ele>564.4</ele><time>2026-05-04T12:06:21Z</time></trkpt><trkpt lat="43.66398927070364" lon="12.062491377870641"><ele>562.5999999999999</ele><time>2026-05-04T12:06:22Z</time></trkpt><trkpt lat="43.66389383813742" lon="12.06245778289102"><ele>560.8</ele><time>2026-05-04T12:06:23Z</time></trkpt><trkpt lat="43.663801413729" lon="12.062417851992583"><ele>559.0</ele><time>2026-05-04T12:06:24Z</time></trkpt><trkpt lat="43.66370758873588" lon="12.062395449037355"><ele>558.8333333333334</ele><time>2026-05-04T12:06:25Z</time></trkpt><trkpt lat="43.66363253581737" lon="12.06238500598171"><ele>558.6666666666667</ele><time>2026-05-04T12:06:26Z</time></trkpt><trkpt lat="43.66356175108449" lon="12.062392459180618"><ele>558.5</ele><time>2026-05-04T12:06:27Z</time></trkpt><trkpt lat="43.66350525298238" lon="12.062434975360597"><ele>558.3333333333334</ele><time>2026-05-04T12:06:28Z</time></trkpt><trkpt lat="43.66344498242598" lon="12.062517639754779"><ele>558.1666666666666</ele><time>2026-05-04T12:06:29Z</time></trkpt><trkpt lat="43.663398215610414" lon="12.062616047545388"><ele>558.0</ele><time>2026-05-04T12:06:30Z</time></trkpt><trkpt lat="43.66338483137719" lon="12.062726317705131"><ele>558.0</ele><time>2026-05-04T12:06:31Z</time></trkpt><trkpt lat="43.66338683138128" lon="12.062822436213239"><ele>558.0</ele><time>2026-05-04T12:06:32Z</time></trkpt><trkpt lat="43.663333144055436" lon="12.06290909265799"><ele>558.0</ele><time>2026-05-04T12:06:34Z</time></trkpt><trkpt lat="43.66322936396309" lon="12.062813575380142"><ele>558.0</ele><time>2026-05-04T12:06:36Z</time></trkpt><trkpt lat="43.66322599545388" lon="12.062684948999731"><ele>558.0</ele><time>2026-05-04T12:06:37Z</time></trkpt><trkpt lat="43.66318518540128" lon="12.062560480991763"><ele>556.4</ele><time>2026-05-04T12:06:38Z</time></trkpt><trkpt lat="43.66314479858361" lon="12.062440986001732"><ele>554.8</ele><time>2026-05-04T12:06:39.001Z</time></trkpt><trkpt lat="43.66309624540088" lon="12.062346389581284"><ele>553.2</ele><time>2026-05-04T12:06:40.001Z</time></trkpt><trkpt lat="43.663055566837514" lon="12.062196525312027"><ele>551.6</ele><time>2026-05-04T12:06:41.001Z</time></trkpt><trkpt lat="43.663008188439235" lon="12.06207154058656"><ele>550.0</ele><time>2026-05-04T12:06:42.001Z</time></trkpt><trkpt lat="43.662970976061054" lon="12.061952379248698"><ele>550.0</ele><time>2026-05-04T12:06:43.001Z</time></trkpt><trkpt lat="43.66294277873257" lon="12.061840380576434"><ele>550.0</ele><time>2026-05-04T12:06:44.001Z</time></trkpt><trkpt lat="43.6629306246133" lon="12.061730501853969"><ele>550.0</ele><time>2026-05-04T12:06:45.001Z</time></trkpt><trkpt lat="43.66293864885845" lon="12.061621887490663"><ele>550.0</ele><time>2026-05-04T12:06:46.001Z</time></trkpt><trkpt lat="43.66297445249752" lon="12.06152100443768"><ele>550.0</ele><time>2026-05-04T12:06:47.001Z</time></trkpt><trkpt lat="43.66302592727352" lon="12.061406085837215"><ele>550.0</ele><time>2026-05-04T12:06:48.001Z</time></trkpt><trkpt lat="43.663112169073074" lon="12.061316612880685"><ele>547.8333333333334</ele><time>2026-05-04T12:06:49Z</time></trkpt><trkpt lat="43.663191725402285" lon="12.061246786301432"><ele>545.6666666666667</ele><time>2026-05-04T12:06:50Z</time></trkpt><trkpt lat="43.663264395537084" lon="12.061170330050965"><ele>543.5</ele><time>2026-05-04T12:06:51Z</time></trkpt><trkpt lat="43.66330837498215" lon="12.061102354011306"><ele>541.3333333333334</ele><time>2026-05-04T12:06:52Z</time></trkpt><trkpt lat="43.66334455776097" lon="12.060963869274467"><ele>539.1666666666666</ele><time>2026-05-04T12:06:54Z</time></trkpt><trkpt lat="43.66328557756681" lon="12.060874041955923"><ele>537.0</ele><time>2026-05-04T12:06:55Z</time></trkpt><trkpt lat="43.66324275125529" lon="12.060807971542667"><ele>536.0</ele><time>2026-05-04T12:06:56Z</time></trkpt><trkpt lat="43.66317158857569" lon="12.060753547737836"><ele>535.0</ele><time>2026-05-04T12:06:57Z</time></trkpt><trkpt lat="43.663106082037174" lon="12.060662783780606"><ele>534.0</ele><time>2026-05-04T12:06:58Z</time></trkpt><trkpt lat="43.66301849378702" lon="12.06059168528388"><ele>533.0</ele><time>2026-05-04T12:06:59Z</time></trkpt><trkpt lat="43.66293699646366" lon="12.060530450154767"><ele>532.0</ele><time>2026-05-04T12:07:00Z</time></trkpt><trkpt lat="43.662856451103046" lon="12.060469930389841"><ele>532.0</ele><time>2026-05-04T12:07:01Z</time></trkpt><trkpt lat="43.66278118151088" lon="12.060414718975903"><ele>532.0</ele><time>2026-05-04T12:07:02Z</time></trkpt><trkpt lat="43.662697431477085" lon="12.060365748523015"><ele>532.0</ele><time>2026-05-04T12:07:03Z</time></trkpt><trkpt lat="43.66259073025649" lon="12.06034080301814"><ele>532.0</ele><time>2026-05-04T12:07:04Z</time></trkpt><trkpt lat="43.662484736514756" lon="12.060339815726179"><ele>532.0</ele><time>2026-05-04T12:07:05Z</time></trkpt><trkpt lat="43.66239541626606" lon="12.060322242266889"><ele>529.6666666666667</ele><time>2026-05-04T12:07:06Z</time></trkpt><trkpt lat="43.66231452613122" lon="12.06026920729551"><ele>527.3333333333334</ele><time>2026-05-04T12:07:07Z</time></trkpt><trkpt lat="43.662230852860866" lon="12.060210888625344"><ele>525.0</ele><time>2026-05-04T12:07:08Z</time></trkpt><trkpt lat="43.662162019133525" lon="12.060114217281683"><ele>522.6666666666666</ele><time>2026-05-04T12:07:09Z</time></trkpt><trkpt lat="43.66210323579793" lon="12.060034010423792"><ele>520.3333333333333</ele><time>2026-05-04T12:07:10Z</time></trkpt><trkpt lat="43.662060274163004" lon="12.059963590988893"><ele>518.0</ele><time>2026-05-04T12:07:11Z</time></trkpt><trkpt lat="43.662032169447" lon="12.059874931371045"><ele>516.0</ele><time>2026-05-04T12:07:12Z</time></trkpt><trkpt lat="43.662025179989804" lon="12.059782494963551"><ele>514.0</ele><time>2026-05-04T12:07:13Z</time></trkpt><trkpt lat="43.66210859390691" lon="12.059666827042482"><ele>511.99999999999994</ele><time>2026-05-04T12:07:15Z</time></trkpt><trkpt lat="43.66222786535188" lon="12.059654034513098"><ele>510.0</ele><time>2026-05-04T12:07:17Z</time></trkpt><trkpt lat="43.662312299658794" lon="12.05967296415719"><ele>508.0</ele><time>2026-05-04T12:07:18Z</time></trkpt><trkpt lat="43.6623972518052" lon="12.059718111438897"><ele>508.00000000000006</ele><time>2026-05-04T12:07:19Z</time></trkpt><trkpt lat="43.66247910331649" lon="12.059748325046732"><ele>508.0</ele><time>2026-05-04T12:07:20Z</time></trkpt><trkpt lat="43.662548904111716" lon="12.059783453707226"><ele>508.0</ele><time>2026-05-04T12:07:21Z</time></trkpt><trkpt lat="43.662638008024565" lon="12.059769071857765"><ele>508.0</ele><time>2026-05-04T12:07:22Z</time></trkpt><trkpt lat="43.6627182452722" lon="12.059788776585213"><ele>508.00000000000006</ele><time>2026-05-04T12:07:23Z</time></trkpt><trkpt lat="43.66282855057612" lon="12.059726691131688"><ele>508.0</ele><time>2026-05-04T12:07:25Z</time></trkpt><trkpt lat="43.66284641889769" lon="12.059623994038343"><ele>508.0</ele><time>2026-05-04T12:07:26Z</time></trkpt><trkpt lat="43.66281783299329" lon="12.05952690434101"><ele>507.99999999999994</ele><time>2026-05-04T12:07:27Z</time></trkpt><trkpt lat="43.66279138493718" lon="12.059427916781848"><ele>507.99999999999994</ele><time>2026-05-04T12:07:28Z</time></trkpt><trkpt lat="43.66275661794055" lon="12.059315563511952"><ele>508.0</ele><time>2026-05-04T12:07:29Z</time></trkpt><trkpt lat="43.662715499413736" lon="12.059187065594683"><ele>508.0</ele><time>2026-05-04T12:07:30Z</time></trkpt><trkpt lat="43.662683437037074" lon="12.059031729776814"><ele>507.25</ele><time>2026-05-04T12:07:31Z</time></trkpt><trkpt lat="43.66264434932512" lon="12.058868165343647"><ele>506.5</ele><time>2026-05-04T12:07:32Z</time></trkpt><trkpt lat="43.66260355570945" lon="12.05871106783963"><ele>505.75</ele><time>2026-05-04T12:07:33Z</time></trkpt><trkpt lat="43.66255417960638" lon="12.058562304963017"><ele>505.0</ele><time>2026-05-04T12:07:34Z</time></trkpt><trkpt lat="43.662489472234654" lon="12.058433582846984"><ele>505.0</ele><time>2026-05-04T12:07:35Z</time></trkpt><trkpt lat="43.662433410553774" lon="12.058289255924073"><ele>505.0</ele><time>2026-05-04T12:07:36Z</time></trkpt><trkpt lat="43.6623703108845" lon="12.05815838201581"><ele>505.0</ele><time>2026-05-04T12:07:37Z</time></trkpt><trkpt lat="43.66231915322287" lon="12.0580198836343"><ele>505.0</ele><time>2026-05-04T12:07:38Z</time></trkpt><trkpt lat="43.66228721331804" lon="12.057883117542943"><ele>505.0</ele><time>2026-05-04T12:07:39Z</time></trkpt><trkpt lat="43.662252780129926" lon="12.057757440713603"><ele>505.50000000000006</ele><time>2026-05-04T12:07:40Z</time></trkpt><trkpt lat="43.66225786813297" lon="12.057638534927891"><ele>506.0</ele><time>2026-05-04T12:07:41Z</time></trkpt><trkpt lat="43.66226971013255" lon="12.057549471778799"><ele>506.5</ele><time>2026-05-04T12:07:42Z</time></trkpt><trkpt lat="43.662239320072615" lon="12.057420162780868"><ele>507.0</ele><time>2026-05-04T12:07:44Z</time></trkpt><trkpt lat="43.66216022771265" lon="12.057380803033269"><ele>507.50000000000006</ele><time>2026-05-04T12:07:46Z</time></trkpt><trkpt lat="43.662115541461624" lon="12.057471791263861"><ele>508.0</ele><time>2026-05-04T12:07:49Z</time></trkpt><trkpt lat="43.6621271484834" lon="12.057615394350192"><ele>508.33333333333337</ele><time>2026-05-04T12:08:01Z</time></trkpt><trkpt lat="43.662136089964264" lon="12.057771954730134"><ele>508.6666666666667</ele><time>2026-05-04T12:08:03Z</time></trkpt><trkpt lat="43.66214123123797" lon="12.057875876353492"><ele>509.0</ele><time>2026-05-04T12:08:04Z</time></trkpt><trkpt lat="43.662145835249554" lon="12.057968938399695"><ele>509.33333333333337</ele><time>2026-05-04T12:08:05Z</time></trkpt><trkpt lat="43.6621623672769" lon="12.058079132037603"><ele>509.6666666666667</ele><time>2026-05-04T12:08:06Z</time></trkpt><trkpt lat="43.662165473384604" lon="12.05819586818585"><ele>510.0</ele><time>2026-05-04T12:08:07Z</time></trkpt><trkpt lat="43.66216637009312" lon="12.058303303303752"><ele>509.1666666666667</ele><time>2026-05-04T12:08:08Z</time></trkpt><trkpt lat="43.6621626637891" lon="12.058404395673204"><ele>508.33333333333337</ele><time>2026-05-04T12:08:09Z</time></trkpt><trkpt lat="43.662158935133064" lon="12.058500693760331"><ele>507.5</ele><time>2026-05-04T12:08:10Z</time></trkpt><trkpt lat="43.66214336980065" lon="12.058606485815044"><ele>506.6666666666667</ele><time>2026-05-04T12:08:11Z</time></trkpt><trkpt lat="43.662108673069035" lon="12.058697002025598"><ele>505.83333333333337</ele><time>2026-05-04T12:08:12Z</time></trkpt><trkpt lat="43.66206108684851" lon="12.058757271389753"><ele>505.0</ele><time>2026-05-04T12:08:13Z</time></trkpt><trkpt lat="43.66192923545512" lon="12.058679637964303"><ele>501.2</ele><time>2026-05-04T12:08:15Z</time></trkpt><trkpt lat="43.661846269420714" lon="12.058597759466377"><ele>497.4</ele><time>2026-05-04T12:08:16Z</time></trkpt><trkpt lat="43.661747577913964" lon="12.058510501670296"><ele>493.6</ele><time>2026-05-04T12:08:17Z</time></trkpt><trkpt lat="43.661670087718505" lon="12.05841667587651"><ele>489.8</ele><time>2026-05-04T12:08:18Z</time></trkpt><trkpt lat="43.66159581232562" lon="12.058321057548934"><ele>486.0</ele><time>2026-05-04T12:08:19Z</time></trkpt><trkpt lat="43.66152273426017" lon="12.058242650121894"><ele>485.1666666666667</ele><time>2026-05-04T12:08:20Z</time></trkpt><trkpt lat="43.661468486239045" lon="12.05818171672454"><ele>484.33333333333337</ele><time>2026-05-04T12:08:21Z</time></trkpt><trkpt lat="43.661415949266384" lon="12.058132403659162"><ele>483.5</ele><time>2026-05-04T12:08:22Z</time></trkpt><trkpt lat="43.66131424979815" lon="12.058168884960825"><ele>482.6666666666667</ele><time>2026-05-04T12:08:24Z</time></trkpt><trkpt lat="43.661255823714" lon="12.058204067627951"><ele>481.83333333333337</ele><time>2026-05-04T12:08:25Z</time></trkpt><trkpt lat="43.661187993527314" lon="12.058262583930633"><ele>481.0</ele><time>2026-05-04T12:08:26Z</time></trkpt><trkpt lat="43.661099524949435" lon="12.058310362371673"><ele>479.8</ele><time>2026-05-04T12:08:28Z</time></trkpt><trkpt lat="43.66100255354656" lon="12.058213849701513"><ele>478.6</ele><time>2026-05-04T12:08:30Z</time></trkpt><trkpt lat="43.66097619609623" lon="12.05808581549695"><ele>477.4</ele><time>2026-05-04T12:08:31Z</time></trkpt><trkpt lat="43.660943689481925" lon="12.057937973101339"><ele>476.2</ele><time>2026-05-04T12:08:32Z</time></trkpt><trkpt lat="43.66091060168656" lon="12.05780829453821"><ele>475.0</ele><time>2026-05-04T12:08:33Z</time></trkpt><trkpt lat="43.66089939946959" lon="12.057670376477889"><ele>475.00000000000006</ele><time>2026-05-04T12:08:34Z</time></trkpt><trkpt lat="43.66088263929654" lon="12.057577393264909"><ele>475.0</ele><time>2026-05-04T12:08:35Z</time></trkpt><trkpt lat="43.660866992854125" lon="12.057461912811075"><ele>475.0</ele><time>2026-05-04T12:08:36Z</time></trkpt><trkpt lat="43.66088029759659" lon="12.057293400265719"><ele>475.0</ele><time>2026-05-04T12:08:38Z</time></trkpt><trkpt lat="43.660921192981775" lon="12.05722395645546"><ele>475.00000000000006</ele><time>2026-05-04T12:08:39Z</time></trkpt><trkpt lat="43.661021193831395" lon="12.057213378870301"><ele>475.0</ele><time>2026-05-04T12:08:40Z</time></trkpt><trkpt lat="43.66109489525776" lon="12.057168279426465"><ele>475.83333333333337</ele><time>2026-05-04T12:08:41Z</time></trkpt><trkpt lat="43.66116343518016" lon="12.057139472779596"><ele>476.6666666666667</ele><time>2026-05-04T12:08:42Z</time></trkpt><trkpt lat="43.66122443078226" lon="12.057079991241482"><ele>477.5</ele><time>2026-05-04T12:08:43Z</time></trkpt><trkpt lat="43.66126653743575" lon="12.056987658594478"><ele>478.33333333333337</ele><time>2026-05-04T12:08:44Z</time></trkpt><trkpt lat="43.66127366397068" lon="12.056893113779672"><ele>479.1666666666667</ele><time>2026-05-04T12:08:45Z</time></trkpt><trkpt lat="43.66126134607134" lon="12.056778599568787"><ele>480.0</ele><time>2026-05-04T12:08:46Z</time></trkpt><trkpt lat="43.661232648462985" lon="12.056661519918858"><ele>478.2</ele><time>2026-05-04T12:08:47Z</time></trkpt><trkpt lat="43.6612172630353" lon="12.05652839007448"><ele>476.4</ele><time>2026-05-04T12:08:48Z</time></trkpt><trkpt lat="43.66121104284572" lon="12.05639240471809"><ele>474.6</ele><time>2026-05-04T12:08:49Z</time></trkpt><trkpt lat="43.66122238939593" lon="12.05627000815653"><ele>472.8</ele><time>2026-05-04T12:08:50Z</time></trkpt><trkpt lat="43.66122695676108" lon="12.05615321046886"><ele>471.0</ele><time>2026-05-04T12:08:51Z</time></trkpt><trkpt lat="43.6612342335468" lon="12.056043269685082"><ele>471.0</ele><time>2026-05-04T12:08:52Z</time></trkpt><trkpt lat="43.66124396580044" lon="12.055931501503872"><ele>471.0</ele><time>2026-05-04T12:08:53Z</time></trkpt><trkpt lat="43.661246371006506" lon="12.055812654138547"><ele>471.0</ele><time>2026-05-04T12:08:54Z</time></trkpt><trkpt lat="43.66128112105308" lon="12.055687137822646"><ele>471.0</ele><time>2026-05-04T12:08:55Z</time></trkpt><trkpt lat="43.66130152227795" lon="12.055557793671609"><ele>471.0</ele><time>2026-05-04T12:08:56Z</time></trkpt><trkpt lat="43.66131516818392" lon="12.055417294148315"><ele>469.4</ele><time>2026-05-04T12:08:57Z</time></trkpt><trkpt lat="43.6613219377741" lon="12.055280977789852"><ele>467.8</ele><time>2026-05-04T12:08:58Z</time></trkpt><trkpt lat="43.66134177731031" lon="12.055149147828253"><ele>466.19999999999993</ele><time>2026-05-04T12:08:59Z</time></trkpt><trkpt lat="43.6613547011593" lon="12.055025691068499"><ele>464.59999999999997</ele><time>2026-05-04T12:09:00Z</time></trkpt><trkpt lat="43.661380439140494" lon="12.054900668444295"><ele>463.0</ele><time>2026-05-04T12:09:01Z</time></trkpt><trkpt lat="43.661400183488766" lon="12.054769731257828"><ele>461.33333333333337</ele><time>2026-05-04T12:09:02Z</time></trkpt><trkpt lat="43.66141463759912" lon="12.054646510257308"><ele>459.6666666666667</ele><time>2026-05-04T12:09:03Z</time></trkpt><trkpt lat="43.66141241168424" lon="12.054541339344524"><ele>458.0</ele><time>2026-05-04T12:09:04Z</time></trkpt><trkpt lat="43.66138959406025" lon="12.054433883645716"><ele>456.33333333333337</ele><time>2026-05-04T12:09:05Z</time></trkpt><trkpt lat="43.661369641287216" lon="12.05430612786976"><ele>454.6666666666667</ele><time>2026-05-04T12:09:06Z</time></trkpt><trkpt lat="43.661304069807386" lon="12.05421646617867"><ele>453.0</ele><time>2026-05-04T12:09:07Z</time></trkpt><trkpt lat="43.661289737953155" lon="12.054119573122824"><ele>450.2</ele><time>2026-05-04T12:09:08Z</time></trkpt><trkpt lat="43.66129432016874" lon="12.054020115007905"><ele>447.4</ele><time>2026-05-04T12:09:09Z</time></trkpt><trkpt lat="43.661325245485074" lon="12.05391290097293"><ele>444.59999999999997</ele><time>2026-05-04T12:09:10Z</time></trkpt><trkpt lat="43.66139809725108" lon="12.05381687388463"><ele>441.79999999999995</ele><time>2026-05-04T12:09:11Z</time></trkpt><trkpt lat="43.661477796259916" lon="12.053715302742404"><ele>439.0</ele><time>2026-05-04T12:09:12Z</time></trkpt><trkpt lat="43.66155532870939" lon="12.053592492143279"><ele>439.0</ele><time>2026-05-04T12:09:13Z</time></trkpt><trkpt lat="43.66163552504754" lon="12.053490963720702"><ele>439.0</ele><time>2026-05-04T12:09:14Z</time></trkpt><trkpt lat="43.66171420471027" lon="12.053375991601683"><ele>439.0</ele><time>2026-05-04T12:09:15Z</time></trkpt><trkpt lat="43.66177417998465" lon="12.053258124754315"><ele>439.0</ele><time>2026-05-04T12:09:16Z</time></trkpt><trkpt lat="43.66182420712491" lon="12.053131796043123"><ele>439.0</ele><time>2026-05-04T12:09:17Z</time></trkpt><trkpt lat="43.661873184853896" lon="12.05301287315375"><ele>441.0</ele><time>2026-05-04T12:09:18Z</time></trkpt><trkpt lat="43.66192480287674" lon="12.052888200846095"><ele>443.0</ele><time>2026-05-04T12:09:19Z</time></trkpt><trkpt lat="43.66197166555719" lon="12.052745979332604"><ele>445.0</ele><time>2026-05-04T12:09:20Z</time></trkpt><trkpt lat="43.662012858406115" lon="12.05258377649915"><ele>447.0</ele><time>2026-05-04T12:09:21Z</time></trkpt><trkpt lat="43.66205445864036" lon="12.05240025105176"><ele>442.5</ele><time>2026-05-04T12:09:22Z</time></trkpt><trkpt lat="43.66209867795097" lon="12.05222815833536"><ele>438.0</ele><time>2026-05-04T12:09:23Z</time></trkpt><trkpt lat="43.66212519789913" lon="12.052066027672057"><ele>433.5</ele><time>2026-05-04T12:09:24Z</time></trkpt><trkpt lat="43.66216150549545" lon="12.051910765738059"><ele>429.0</ele><time>2026-05-04T12:09:25Z</time></trkpt><trkpt lat="43.66218748962375" lon="12.051760910110055"><ele>429.0</ele><time>2026-05-04T12:09:26Z</time></trkpt><trkpt lat="43.662212262287575" lon="12.051621296281334"><ele>429.0</ele><time>2026-05-04T12:09:27Z</time></trkpt><trkpt lat="43.66223374195543" lon="12.051492096855354"><ele>429.0</ele><time>2026-05-04T12:09:28Z</time></trkpt><trkpt lat="43.66225180079529" lon="12.051367324499036"><ele>429.0</ele><time>2026-05-04T12:09:29Z</time></trkpt><trkpt lat="43.662274119634226" lon="12.051250127956385"><ele>429.0</ele><time>2026-05-04T12:09:30Z</time></trkpt><trkpt lat="43.66231815325331" lon="12.05115024170726"><ele>429.0</ele><time>2026-05-04T12:09:31Z</time></trkpt><trkpt lat="43.66235736320319" lon="12.051076671865777"><ele>429.0</ele><time>2026-05-04T12:09:32Z</time></trkpt><trkpt lat="43.662430323768945" lon="12.051022711006842"><ele>429.0</ele><time>2026-05-04T12:09:33Z</time></trkpt><trkpt lat="43.662486459505196" lon="12.05095725542967"><ele>429.0</ele><time>2026-05-04T12:09:34Z</time></trkpt><trkpt lat="43.6625452982708" lon="12.050869252695065"><ele>429.0</ele><time>2026-05-04T12:09:35Z</time></trkpt><trkpt lat="43.66257278720371" lon="12.050767714571693"><ele>429.0</ele><time>2026-05-04T12:09:36Z</time></trkpt><trkpt lat="43.66260455036147" lon="12.050661633975347"><ele>429.3333333333333</ele><time>2026-05-04T12:09:37Z</time></trkpt><trkpt lat="43.66262558637931" lon="12.05053785173744"><ele>429.66666666666663</ele><time>2026-05-04T12:09:38Z</time></trkpt><trkpt lat="43.66263814382796" lon="12.050413133676921"><ele>430.0</ele><time>2026-05-04T12:09:39Z</time></trkpt><trkpt lat="43.66264413679519" lon="12.050303967543432"><ele>430.3333333333333</ele><time>2026-05-04T12:09:40Z</time></trkpt><trkpt lat="43.6626375929271" lon="12.050216939407646"><ele>430.66666666666663</ele><time>2026-05-04T12:09:41Z</time></trkpt><trkpt lat="43.662615892118346" lon="12.050110067454511"><ele>431.0</ele><time>2026-05-04T12:09:43Z</time></trkpt><trkpt lat="43.66260455448962" lon="12.050008856250066"><ele>430.66666666666663</ele><time>2026-05-04T12:09:46Z</time></trkpt><trkpt lat="43.66264512666133" lon="12.04989696375168"><ele>430.3333333333333</ele><time>2026-05-04T12:09:48Z</time></trkpt><trkpt lat="43.66268528328871" lon="12.049815510816568"><ele>430.0</ele><time>2026-05-04T12:09:49Z</time></trkpt><trkpt lat="43.662722542923504" lon="12.049726186053517"><ele>429.66666666666663</ele><time>2026-05-04T12:09:50Z</time></trkpt><trkpt lat="43.66276500680893" lon="12.049614347876272"><ele>429.3333333333333</ele><time>2026-05-04T12:09:51Z</time></trkpt><trkpt lat="43.662806737286886" lon="12.049494854565934"><ele>429.0</ele><time>2026-05-04T12:09:52Z</time></trkpt><trkpt lat="43.66286160188618" lon="12.049375680914645"><ele>432.25</ele><time>2026-05-04T12:09:53Z</time></trkpt><trkpt lat="43.66291603161512" lon="12.049240060749229"><ele>435.5</ele><time>2026-05-04T12:09:54Z</time></trkpt><trkpt lat="43.662975700436725" lon="12.049095927982597"><ele>438.75</ele><time>2026-05-04T12:09:55Z</time></trkpt><trkpt lat="43.66303511344375" lon="12.04895031802306"><ele>442.0</ele><time>2026-05-04T12:09:56Z</time></trkpt><trkpt lat="43.66309593853413" lon="12.048798202468872"><ele>442.0</ele><time>2026-05-04T12:09:57Z</time></trkpt><trkpt lat="43.66315269453152" lon="12.04864877689632"><ele>442.0</ele><time>2026-05-04T12:09:58Z</time></trkpt><trkpt lat="43.663214349233506" lon="12.048505954869542"><ele>442.0</ele><time>2026-05-04T12:09:59Z</time></trkpt><trkpt lat="43.66327387384033" lon="12.048363605554188"><ele>442.0</ele><time>2026-05-04T12:10:00Z</time></trkpt><trkpt lat="43.663335502864854" lon="12.048223851610887"><ele>440.75</ele><time>2026-05-04T12:10:01Z</time></trkpt><trkpt lat="43.66338476343857" lon="12.048101369420875"><ele>439.5</ele><time>2026-05-04T12:10:02Z</time></trkpt><trkpt lat="43.66342970562749" lon="12.04798482654132"><ele>438.25</ele><time>2026-05-04T12:10:03Z</time></trkpt><trkpt lat="43.663477647115464" lon="12.047862792669099"><ele>437.0</ele><time>2026-05-04T12:10:04Z</time></trkpt><trkpt lat="43.6635585440791" lon="12.04768084647399"><ele>438.5</ele><time>2026-05-04T12:10:05Z</time></trkpt><trkpt lat="43.66361657158022" lon="12.047530553769597"><ele>440.0</ele><time>2026-05-04T12:10:06Z</time></trkpt><trkpt lat="43.66368296640056" lon="12.047380901254234"><ele>441.5</ele><time>2026-05-04T12:10:07Z</time></trkpt><trkpt lat="43.663740426147136" lon="12.047224667834675"><ele>443.0</ele><time>2026-05-04T12:10:08Z</time></trkpt><trkpt lat="43.66380363257731" lon="12.04706710760892"><ele>443.0</ele><time>2026-05-04T12:10:09Z</time></trkpt><trkpt lat="43.663868088770286" lon="12.046914524638371"><ele>443.0</ele><time>2026-05-04T12:10:10Z</time></trkpt><trkpt lat="43.663933961319024" lon="12.046763216839317"><ele>443.0</ele><time>2026-05-04T12:10:11Z</time></trkpt><trkpt lat="43.66399419515129" lon="12.046627299430282"><ele>443.0</ele><time>2026-05-04T12:10:12Z</time></trkpt><trkpt lat="43.66406122330703" lon="12.046507252761756"><ele>442.0</ele><time>2026-05-04T12:10:13Z</time></trkpt><trkpt lat="43.66414467298967" lon="12.046430664008454"><ele>440.99999999999994</ele><time>2026-05-04T12:10:14Z</time></trkpt><trkpt lat="43.66423298219451" lon="12.046365023755154"><ele>439.99999999999994</ele><time>2026-05-04T12:10:15Z</time></trkpt><trkpt lat="43.664337059289" lon="12.046310218361667"><ele>439.0</ele><time>2026-05-04T12:10:16Z</time></trkpt><trkpt lat="43.66445650128787" lon="12.04628659291791"><ele>438.0</ele><time>2026-05-04T12:10:17Z</time></trkpt><trkpt lat="43.664574643131665" lon="12.046306824252262"><ele>438.0</ele><time>2026-05-04T12:10:18Z</time></trkpt><trkpt lat="43.66469819512453" lon="12.04635384442551"><ele>438.0</ele><time>2026-05-04T12:10:19Z</time></trkpt><trkpt lat="43.664827247574934" lon="12.046389834748956"><ele>438.0</ele><time>2026-05-04T12:10:20Z</time></trkpt><trkpt lat="43.664942918129654" lon="12.046456750606955"><ele>438.0</ele><time>2026-05-04T12:10:21Z</time></trkpt><trkpt lat="43.66505176324699" lon="12.046515628257806"><ele>438.0</ele><time>2026-05-04T12:10:22Z</time></trkpt><trkpt lat="43.6651682625755" lon="12.046548114066432"><ele>438.0</ele><time>2026-05-04T12:10:23Z</time></trkpt><trkpt lat="43.66528396246844" lon="12.046545310217226"><ele>438.0</ele><time>2026-05-04T12:10:24Z</time></trkpt><trkpt lat="43.665396069429995" lon="12.04649934969042"><ele>438.0</ele><time>2026-05-04T12:10:25Z</time></trkpt><trkpt lat="43.66550394170021" lon="12.04641588061192"><ele>437.5</ele><time>2026-05-04T12:10:26Z</time></trkpt><trkpt lat="43.66559495478354" lon="12.046278073215037"><ele>437.0</ele><time>2026-05-04T12:10:27Z</time></trkpt><trkpt lat="43.66568706579872" lon="12.046147642679228"><ele>436.5</ele><time>2026-05-04T12:10:28Z</time></trkpt><trkpt lat="43.665778150081586" lon="12.046011040679256"><ele>436.0</ele><time>2026-05-04T12:10:29Z</time></trkpt><trkpt lat="43.66587084577201" lon="12.045878976206174"><ele>435.75</ele><time>2026-05-04T12:10:30Z</time></trkpt><trkpt lat="43.66596548438652" lon="12.045749725480103"><ele>435.5</ele><time>2026-05-04T12:10:31Z</time></trkpt><trkpt lat="43.666058010267555" lon="12.045624835350468"><ele>435.25</ele><time>2026-05-04T12:10:32Z</time></trkpt><trkpt lat="43.666140372150956" lon="12.045508048929713"><ele>435.0</ele><time>2026-05-04T12:10:33Z</time></trkpt><trkpt lat="43.666227894250774" lon="12.045399916589409"><ele>435.0</ele><time>2026-05-04T12:10:34Z</time></trkpt><trkpt lat="43.66630962948438" lon="12.045290029009578"><ele>435.0</ele><time>2026-05-04T12:10:35Z</time></trkpt><trkpt lat="43.66638687276154" lon="12.045188923960184"><ele>435.0</ele><time>2026-05-04T12:10:36Z</time></trkpt><trkpt lat="43.666460978085006" lon="12.04508753421433"><ele>435.0</ele><time>2026-05-04T12:10:37Z</time></trkpt><trkpt lat="43.66653638779652" lon="12.044984046052614"><ele>435.0</ele><time>2026-05-04T12:10:38Z</time></trkpt><trkpt lat="43.66660494088821" lon="12.044889102604351"><ele>435.0</ele><time>2026-05-04T12:10:39Z</time></trkpt><trkpt lat="43.66668149796004" lon="12.044790948982737"><ele>435.0</ele><time>2026-05-04T12:10:40Z</time></trkpt><trkpt lat="43.666755014488835" lon="12.044681428689932"><ele>435.0</ele><time>2026-05-04T12:10:41Z</time></trkpt><trkpt lat="43.66683132699184" lon="12.044566717492003"><ele>435.0</ele><time>2026-05-04T12:10:42Z</time></trkpt><trkpt lat="43.66690904621693" lon="12.04446927222136"><ele>435.0</ele><time>2026-05-04T12:10:43Z</time></trkpt><trkpt lat="43.666989351542384" lon="12.044373322111815"><ele>435.0</ele><time>2026-05-04T12:10:44Z</time></trkpt><trkpt lat="43.667066531491606" lon="12.04426490647577"><ele>435.0</ele><time>2026-05-04T12:10:45Z</time></trkpt><trkpt lat="43.66713807211471" lon="12.044162354353722"><ele>435.0</ele><time>2026-05-04T12:10:46Z</time></trkpt><trkpt lat="43.667201328373096" lon="12.04406870407284"><ele>435.0</ele><time>2026-05-04T12:10:47Z</time></trkpt><trkpt lat="43.667263033474605" lon="12.04398555066594"><ele>435.0</ele><time>2026-05-04T12:10:48Z</time></trkpt><trkpt lat="43.66732826156528" lon="12.043907267286558"><ele>434.0</ele><time>2026-05-04T12:10:49Z</time></trkpt><trkpt lat="43.66739633050133" lon="12.043843101519181"><ele>433.0</ele><time>2026-05-04T12:10:50Z</time></trkpt><trkpt lat="43.667462932702286" lon="12.043797038745682"><ele>432.0</ele><time>2026-05-04T12:10:51Z</time></trkpt><trkpt lat="43.66753525141417" lon="12.043756637351319"><ele>431.0</ele><time>2026-05-04T12:10:52Z</time></trkpt><trkpt lat="43.66760295767275" lon="12.043642087792012"><ele>430.0</ele><time>2026-05-04T12:10:54Z</time></trkpt><trkpt lat="43.667580457371024" lon="12.043453701726817"><ele>430.00000000000006</ele><time>2026-05-04T12:10:56Z</time></trkpt><trkpt lat="43.667553253206805" lon="12.043355725532049"><ele>430.0</ele><time>2026-05-04T12:10:57Z</time></trkpt><trkpt lat="43.66753525725655" lon="12.043241762000198"><ele>430.0</ele><time>2026-05-04T12:10:58Z</time></trkpt><trkpt lat="43.66753031960867" lon="12.04311423319454"><ele>430.0</ele><time>2026-05-04T12:10:59Z</time></trkpt><trkpt lat="43.667532822755255" lon="12.042992642362256"><ele>430.00000000000006</ele><time>2026-05-04T12:11:00Z</time></trkpt><trkpt lat="43.667531905030444" lon="12.042866895412192"><ele>430.0</ele><time>2026-05-04T12:11:01Z</time></trkpt><trkpt lat="43.6675261348825" lon="12.04273889605766"><ele>429.8</ele><time>2026-05-04T12:11:02Z</time></trkpt><trkpt lat="43.66751868549265" lon="12.042602925588744"><ele>429.6</ele><time>2026-05-04T12:11:03Z</time></trkpt><trkpt lat="43.66751781724498" lon="12.042459643504793"><ele>429.4</ele><time>2026-05-04T12:11:04Z</time></trkpt><trkpt lat="43.66752548665245" lon="12.042305370381369"><ele>429.2</ele><time>2026-05-04T12:11:05Z</time></trkpt><trkpt lat="43.66754261185491" lon="12.04215471687258"><ele>429.0</ele><time>2026-05-04T12:11:06Z</time></trkpt><trkpt lat="43.667571262735166" lon="12.042025922205047"><ele>429.5</ele><time>2026-05-04T12:11:07Z</time></trkpt><trkpt lat="43.66759986702117" lon="12.041927245038925"><ele>430.0</ele><time>2026-05-04T12:11:08Z</time></trkpt><trkpt lat="43.667673538080166" lon="12.041831308000951"><ele>430.5</ele><time>2026-05-04T12:11:10Z</time></trkpt><trkpt lat="43.6677274966358" lon="12.041784944235648"><ele>431.0</ele><time>2026-05-04T12:11:12Z</time></trkpt><trkpt lat="43.66763651934122" lon="12.0417281656175"><ele>431.5</ele><time>2026-05-04T12:11:40Z</time></trkpt><trkpt lat="43.66759419934364" lon="12.041794692601984"><ele>432.0</ele><time>2026-05-04T12:11:41Z</time></trkpt><trkpt lat="43.667534510251336" lon="12.041872659894304"><ele>432.0</ele><time>2026-05-04T12:11:43Z</time></trkpt><trkpt lat="43.6674672502782" lon="12.041985741546826"><ele>432.00000000000006</ele><time>2026-05-04T12:11:45Z</time></trkpt><trkpt lat="43.667380451019774" lon="12.041974204636341"><ele>432.00000000000006</ele><time>2026-05-04T12:11:46Z</time></trkpt><trkpt lat="43.66731268120494" lon="12.042079086285826"><ele>432.0</ele><time>2026-05-04T12:11:48Z</time></trkpt><trkpt lat="43.667199927949355" lon="12.041979862113422"><ele>432.0</ele><time>2026-05-04T12:11:51Z</time></trkpt><trkpt lat="43.66711828417165" lon="12.041862138612359"><ele>432.0</ele><time>2026-05-04T12:11:53Z</time></trkpt><trkpt lat="43.66707013645049" lon="12.041762773071568"><ele>432.0</ele><time>2026-05-04T12:11:55Z</time></trkpt><trkpt lat="43.6671074075242" lon="12.04164850331338"><ele>432.0</ele><time>2026-05-04T12:11:57Z</time></trkpt><trkpt lat="43.66720002348026" lon="12.041532723244025"><ele>432.0</ele><time>2026-05-04T12:11:59Z</time></trkpt><trkpt lat="43.667248156191256" lon="12.041475338137165"><ele>432.0</ele><time>2026-05-04T12:12:00Z</time></trkpt><trkpt lat="43.66730409758447" lon="12.041416993631772"><ele>432.0</ele><time>2026-05-04T12:12:01Z</time></trkpt><trkpt lat="43.667370577463366" lon="12.041351975532436"><ele>433.0</ele><time>2026-05-04T12:12:02Z</time></trkpt><trkpt lat="43.66744749373789" lon="12.041285137962314"><ele>434.00000000000006</ele><time>2026-05-04T12:12:03Z</time></trkpt><trkpt lat="43.667525085142834" lon="12.041218868100135"><ele>435.00000000000006</ele><time>2026-05-04T12:12:04Z</time></trkpt><trkpt lat="43.66760718272903" lon="12.041159802622614"><ele>436.0</ele><time>2026-05-04T12:12:05Z</time></trkpt><trkpt lat="43.66768778107844" lon="12.041090047895946"><ele>437.0</ele><time>2026-05-04T12:12:06Z</time></trkpt><trkpt lat="43.667765181542364" lon="12.04103342211294"><ele>436.8</ele><time>2026-05-04T12:12:07Z</time></trkpt><trkpt lat="43.667851480737184" lon="12.040962739117825"><ele>436.6</ele><time>2026-05-04T12:12:08Z</time></trkpt><trkpt lat="43.66796143081645" lon="12.04088179070167"><ele>436.40000000000003</ele><time>2026-05-04T12:12:09Z</time></trkpt><trkpt lat="43.66805702353681" lon="12.040807429521449"><ele>436.20000000000005</ele><time>2026-05-04T12:12:10Z</time></trkpt><trkpt lat="43.66813310983332" lon="12.040739910827261"><ele>436.0</ele><time>2026-05-04T12:12:11Z</time></trkpt><trkpt lat="43.66822160005982" lon="12.040674788753652"><ele>436.0</ele><time>2026-05-04T12:12:12Z</time></trkpt><trkpt lat="43.66831522189266" lon="12.040599833691203"><ele>436.0</ele><time>2026-05-04T12:12:13Z</time></trkpt><trkpt lat="43.66840454605867" lon="12.040528576986793"><ele>436.0</ele><time>2026-05-04T12:12:14Z</time></trkpt><trkpt lat="43.66849368630534" lon="12.0404516580281"><ele>436.0</ele><time>2026-05-04T12:12:15Z</time></trkpt><trkpt lat="43.668574831844396" lon="12.040372747830414"><ele>436.0</ele><time>2026-05-04T12:12:16Z</time></trkpt><trkpt lat="43.66863735781698" lon="12.040308729227421"><ele>436.0</ele><time>2026-05-04T12:12:17Z</time></trkpt><trkpt lat="43.66869790553958" lon="12.040271674661236"><ele>436.0</ele><time>2026-05-04T12:12:19Z</time></trkpt><trkpt lat="43.6686243445871" lon="12.04014925901989"><ele>436.0</ele><time>2026-05-04T12:12:25Z</time></trkpt><trkpt lat="43.66856125264269" lon="12.04009709362108"><ele>436.0</ele><time>2026-05-04T12:12:27Z</time></trkpt><trkpt lat="43.66844580652137" lon="12.040029600343276"><ele>436.0</ele><time>2026-05-04T12:12:29Z</time></trkpt><trkpt lat="43.66837392940539" lon="12.039994231030285"><ele>438.83333333333337</ele><time>2026-05-04T12:12:30Z</time></trkpt><trkpt lat="43.66829901511596" lon="12.039965830719572"><ele>441.6666666666667</ele><time>2026-05-04T12:12:31Z</time></trkpt><trkpt lat="43.6682226206931" lon="12.039943215008277"><ele>444.5</ele><time>2026-05-04T12:12:32Z</time></trkpt><trkpt lat="43.668133069658225" lon="12.03994351412193"><ele>447.33333333333337</ele><time>2026-05-04T12:12:33Z</time></trkpt><trkpt lat="43.66805127108956" lon="12.039905299029732"><ele>450.1666666666667</ele><time>2026-05-04T12:12:34Z</time></trkpt><trkpt lat="43.66796615183867" lon="12.039883773928826"><ele>453.0</ele><time>2026-05-04T12:12:35Z</time></trkpt><trkpt lat="43.66788537680497" lon="12.039839018769442"><ele>453.0</ele><time>2026-05-04T12:12:36Z</time></trkpt><trkpt lat="43.66781489919739" lon="12.039786142313696"><ele>453.0</ele><time>2026-05-04T12:12:37Z</time></trkpt><trkpt lat="43.66774134364233" lon="12.039730787375367"><ele>453.0</ele><time>2026-05-04T12:12:38Z</time></trkpt><trkpt lat="43.667658924789755" lon="12.039668154440594"><ele>453.0</ele><time>2026-05-04T12:12:39Z</time></trkpt><trkpt lat="43.66757036968139" lon="12.039619346684555"><ele>453.0</ele><time>2026-05-04T12:12:40Z</time></trkpt><trkpt lat="43.66750383625093" lon="12.039580721715962"><ele>453.0</ele><time>2026-05-04T12:12:41Z</time></trkpt><trkpt lat="43.66742938011085" lon="12.039539456157692"><ele>454.5</ele><time>2026-05-04T12:12:42Z</time></trkpt><trkpt lat="43.66734019874088" lon="12.03948416269583"><ele>456.0</ele><time>2026-05-04T12:12:44Z</time></trkpt><trkpt lat="43.66727815811697" lon="12.039515492249476"><ele>457.5</ele><time>2026-05-04T12:12:45Z</time></trkpt><trkpt lat="43.66719016514736" lon="12.039543607534"><ele>459.0</ele><time>2026-05-04T12:12:46Z</time></trkpt><trkpt lat="43.66708294636566" lon="12.039556677179757"><ele>460.5</ele><time>2026-05-04T12:12:47Z</time></trkpt><trkpt lat="43.66699920435793" lon="12.039571664837398"><ele>462.0</ele><time>2026-05-04T12:12:48Z</time></trkpt><trkpt lat="43.66690465379118" lon="12.03959239677192"><ele>464.3333333333333</ele><time>2026-05-04T12:12:49Z</time></trkpt><trkpt lat="43.66683484268772" lon="12.039577733508276"><ele>466.66666666666663</ele><time>2026-05-04T12:12:50Z</time></trkpt><trkpt lat="43.66680189809861" lon="12.03950099248013"><ele>469.0</ele><time>2026-05-04T12:12:52Z</time></trkpt><trkpt lat="43.666736135865875" lon="12.039465964756582"><ele>471.3333333333333</ele><time>2026-05-04T12:13:20Z</time></trkpt><trkpt lat="43.6667316808406" lon="12.03932365059573"><ele>473.66666666666663</ele><time>2026-05-04T12:13:22Z</time></trkpt><trkpt lat="43.6667353243028" lon="12.039191106580397"><ele>476.0</ele><time>2026-05-04T12:13:24Z</time></trkpt><trkpt lat="43.66673542375378" lon="12.03906800366041"><ele>478.99999999999994</ele><time>2026-05-04T12:13:26Z</time></trkpt><trkpt lat="43.66673920792155" lon="12.038939106489309"><ele>482.0</ele><time>2026-05-04T12:13:28Z</time></trkpt><trkpt lat="43.666679288526716" lon="12.038852363653994"><ele>485.0</ele><time>2026-05-04T12:14:43Z</time></trkpt><trkpt lat="43.666621006923464" lon="12.038802165738929"><ele>488.0</ele><time>2026-05-04T12:14:45Z</time></trkpt><trkpt lat="43.666540086699165" lon="12.038735048850354"><ele>490.99999999999994</ele><time>2026-05-04T12:14:48Z</time></trkpt><trkpt lat="43.66647053143546" lon="12.038653239033081"><ele>494.0</ele><time>2026-05-04T12:14:51Z</time></trkpt><trkpt lat="43.66644612600532" lon="12.03857038871749"><ele>493.99999999999994</ele><time>2026-05-04T12:14:53Z</time></trkpt><trkpt lat="43.666442622499105" lon="12.038479043517995"><ele>494.0</ele><time>2026-05-04T12:15:03Z</time></trkpt><trkpt lat="43.66641405096606" lon="12.038386203179867"><ele>494.0</ele><time>2026-05-04T12:15:12Z</time></trkpt><trkpt lat="43.666333617121744" lon="12.038403483709057"><ele>494.0</ele><time>2026-05-04T12:16:37Z</time></trkpt><trkpt lat="43.66635642497149" lon="12.038506753483714"><ele>493.99999999999994</ele><time>2026-05-04T12:16:44Z</time></trkpt><trkpt lat="43.66642695080979" lon="12.038510048753023"><ele>494.0</ele><time>2026-05-04T12:16:50Z</time></trkpt><trkpt lat="43.66641664846758" lon="12.03838955467044"><ele>494.0</ele><time>2026-05-04T12:18:40Z</time></trkpt><trkpt lat="43.66640162384561" lon="12.038304042643741"><ele>494.0</ele><time>2026-05-04T12:18:42Z</time></trkpt><trkpt lat="43.66642557610323" lon="12.038405178403758"><ele>494.0</ele><time>2026-05-04T12:21:12Z</time></trkpt><trkpt lat="43.66644786863277" lon="12.038502772213846"><ele>494.0</ele><time>2026-05-04T12:21:14Z</time></trkpt><trkpt lat="43.66646939503125" lon="12.038609411349656"><ele>494.0</ele><time>2026-05-04T12:21:16Z</time></trkpt><trkpt lat="43.66650537827556" lon="12.038681478880376"><ele>494.0</ele><time>2026-05-04T12:21:18Z</time></trkpt><trkpt lat="43.66655560191934" lon="12.038739971468639"><ele>494.0</ele><time>2026-05-04T12:21:20Z</time></trkpt><trkpt lat="43.666649626003846" lon="12.03881011116951"><ele>494.0</ele><time>2026-05-04T12:21:22Z</time></trkpt><trkpt lat="43.66672120889523" lon="12.03887621705158"><ele>494.0</ele><time>2026-05-04T12:21:25Z</time></trkpt><trkpt lat="43.6667313613167" lon="12.03898960012895"><ele>494.0</ele><time>2026-05-04T12:21:28Z</time></trkpt><trkpt lat="43.66672749026042" lon="12.039121354047172"><ele>494.0</ele><time>2026-05-04T12:21:30Z</time></trkpt><trkpt lat="43.66672561271258" lon="12.039271973674444"><ele>494.0</ele><time>2026-05-04T12:21:32Z</time></trkpt><trkpt lat="43.66676445043161" lon="12.039391203323703"><ele>490.99999999999994</ele><time>2026-05-04T12:21:34Z</time></trkpt><trkpt lat="43.66676445042488" lon="12.039487979472169"><ele>488.0</ele><time>2026-05-04T12:21:36Z</time></trkpt><trkpt lat="43.666773881391585" lon="12.039574926877938"><ele>485.0</ele><time>2026-05-04T12:21:39Z</time></trkpt><trkpt lat="43.666869472446386" lon="12.03959931540552"><ele>482.0</ele><time>2026-05-04T12:21:47Z</time></trkpt><trkpt lat="43.66698632624753" lon="12.039606380145782"><ele>478.99999999999994</ele><time>2026-05-04T12:21:49Z</time></trkpt><trkpt lat="43.66706617920206" lon="12.039599464868727"><ele>476.0</ele><time>2026-05-04T12:21:50Z</time></trkpt><trkpt lat="43.66715170741636" lon="12.039579111378194"><ele>473.66666666666663</ele><time>2026-05-04T12:21:51Z</time></trkpt><trkpt lat="43.667224966459905" lon="12.039577517894296"><ele>471.3333333333333</ele><time>2026-05-04T12:21:52Z</time></trkpt><trkpt lat="43.66729083296438" lon="12.03956966248275"><ele>469.0</ele><time>2026-05-04T12:21:53Z</time></trkpt><trkpt lat="43.66738933814083" lon="12.03957047725944"><ele>466.66666666666663</ele><time>2026-05-04T12:21:55Z</time></trkpt><trkpt lat="43.667485817851784" lon="12.039643189060985"><ele>464.3333333333333</ele><time>2026-05-04T12:21:57Z</time></trkpt><trkpt lat="43.66755531664827" lon="12.039689058785982"><ele>462.0</ele><time>2026-05-04T12:21:58Z</time></trkpt><trkpt lat="43.66762592894554" lon="12.03973454182332"><ele>462.0</ele><time>2026-05-04T12:21:59Z</time></trkpt><trkpt lat="43.66769497325025" lon="12.039777984072865"><ele>462.00000000000006</ele><time>2026-05-04T12:22:00Z</time></trkpt><trkpt lat="43.667771260359395" lon="12.039824862823064"><ele>462.00000000000006</ele><time>2026-05-04T12:22:01Z</time></trkpt><trkpt lat="43.667869493211626" lon="12.039884471280693"><ele>462.0</ele><time>2026-05-04T12:22:02Z</time></trkpt><trkpt lat="43.66796147046413" lon="12.039919625360618"><ele>462.0</ele><time>2026-05-04T12:22:03Z</time></trkpt><trkpt lat="43.66806883962151" lon="12.039944913691155"><ele>458.3333333333333</ele><time>2026-05-04T12:22:04Z</time></trkpt><trkpt lat="43.66817309644785" lon="12.039969418452221"><ele>454.66666666666663</ele><time>2026-05-04T12:22:05Z</time></trkpt><trkpt lat="43.66826747231661" lon="12.04000385571567"><ele>451.0</ele><time>2026-05-04T12:22:06Z</time></trkpt><trkpt lat="43.66834778875825" lon="12.040031102548532"><ele>447.3333333333333</ele><time>2026-05-04T12:22:07Z</time></trkpt><trkpt lat="43.66841650159964" lon="12.040066497910168"><ele>443.66666666666663</ele><time>2026-05-04T12:22:08Z</time></trkpt><trkpt lat="43.66848651196066" lon="12.040107992495054"><ele>440.0</ele><time>2026-05-04T12:22:09Z</time></trkpt><trkpt lat="43.66859177190753" lon="12.040165736690163"><ele>439.8333333333333</ele><time>2026-05-04T12:22:11Z</time></trkpt><trkpt lat="43.66865144840618" lon="12.040218476538751"><ele>439.66666666666663</ele><time>2026-05-04T12:22:14Z</time></trkpt><trkpt lat="43.66875737309775" lon="12.040178124377256"><ele>439.5</ele><time>2026-05-04T12:22:41Z</time></trkpt><trkpt lat="43.6688134703017" lon="12.040124392586312"><ele>439.33333333333337</ele><time>2026-05-04T12:22:42Z</time></trkpt><trkpt lat="43.668868236667194" lon="12.040041952178424"><ele>439.1666666666667</ele><time>2026-05-04T12:22:43Z</time></trkpt><trkpt lat="43.66893215779517" lon="12.039911686433346"><ele>439.0</ele><time>2026-05-04T12:22:44Z</time></trkpt><trkpt lat="43.6690563024773" lon="12.039746766616144"><ele>439.0</ele><time>2026-05-04T12:22:45Z</time></trkpt><trkpt lat="43.66913301274043" lon="12.039574324140808"><ele>439.0</ele><time>2026-05-04T12:22:48Z</time></trkpt><trkpt lat="43.66919915228309" lon="12.039459716890208"><ele>439.0</ele><time>2026-05-04T12:22:49Z</time></trkpt><trkpt lat="43.669267814415356" lon="12.039345675653978"><ele>439.0</ele><time>2026-05-04T12:22:50Z</time></trkpt><trkpt lat="43.66933574949666" lon="12.039231233150483"><ele>439.0</ele><time>2026-05-04T12:22:51Z</time></trkpt><trkpt lat="43.669398586943416" lon="12.039120292554644"><ele>439.0</ele><time>2026-05-04T12:22:52Z</time></trkpt><trkpt lat="43.6694654927929" lon="12.039013556547506"><ele>439.0</ele><time>2026-05-04T12:22:53Z</time></trkpt><trkpt lat="43.66953657609772" lon="12.038911271512166"><ele>439.0</ele><time>2026-05-04T12:22:54Z</time></trkpt><trkpt lat="43.66960342292999" lon="12.038807657331024"><ele>439.0</ele><time>2026-05-04T12:22:55Z</time></trkpt><trkpt lat="43.66966695180119" lon="12.038714149866143"><ele>439.00000000000006</ele><time>2026-05-04T12:22:56Z</time></trkpt><trkpt lat="43.66973057329527" lon="12.038638957236408"><ele>439.0</ele><time>2026-05-04T12:22:57Z</time></trkpt><trkpt lat="43.66978785318017" lon="12.03857206429554"><ele>439.0</ele><time>2026-05-04T12:22:58Z</time></trkpt><trkpt lat="43.66985080200556" lon="12.038483525789125"><ele>439.0</ele><time>2026-05-04T12:23:00Z</time></trkpt><trkpt lat="43.66989752306968" lon="12.038424497296448"><ele>439.00000000000006</ele><time>2026-05-04T12:23:02Z</time></trkpt><trkpt lat="43.669957225110224" lon="12.038344336911202"><ele>439.0</ele><time>2026-05-04T12:23:06Z</time></trkpt><trkpt lat="43.66999880872833" lon="12.038272486942343"><ele>439.00000000000006</ele><time>2026-05-04T12:23:07Z</time></trkpt><trkpt lat="43.670039912330076" lon="12.038181235102051"><ele>439.0</ele><time>2026-05-04T12:23:08Z</time></trkpt><trkpt lat="43.67008566281522" lon="12.038084623363964"><ele>439.0</ele><time>2026-05-04T12:23:09Z</time></trkpt><trkpt lat="43.67013346390211" lon="12.037982907038435"><ele>439.0</ele><time>2026-05-04T12:23:10Z</time></trkpt><trkpt lat="43.67018470663916" lon="12.037877721116564"><ele>439.00000000000006</ele><time>2026-05-04T12:23:11Z</time></trkpt><trkpt lat="43.67023570459881" lon="12.037778490897189"><ele>439.0</ele><time>2026-05-04T12:23:12Z</time></trkpt><trkpt lat="43.67028436273668" lon="12.037675480001473"><ele>439.0</ele><time>2026-05-04T12:23:13Z</time></trkpt><trkpt lat="43.670331537400514" lon="12.037563596838458"><ele>439.0</ele><time>2026-05-04T12:23:14Z</time></trkpt><trkpt lat="43.67038304129478" lon="12.03744384166532"><ele>439.0</ele><time>2026-05-04T12:23:15Z</time></trkpt><trkpt lat="43.670433744699125" lon="12.037322007452703"><ele>439.0</ele><time>2026-05-04T12:23:16Z</time></trkpt><trkpt lat="43.67047375229136" lon="12.037188797086628"><ele>439.0</ele><time>2026-05-04T12:23:17Z</time></trkpt><trkpt lat="43.67052309694277" lon="12.037054573143033"><ele>439.75</ele><time>2026-05-04T12:23:18Z</time></trkpt><trkpt lat="43.67051363528824" lon="12.036894814840851"><ele>440.5</ele><time>2026-05-04T12:23:19Z</time></trkpt><trkpt lat="43.670497675800284" lon="12.036748839138296"><ele>441.25</ele><time>2026-05-04T12:23:20Z</time></trkpt><trkpt lat="43.670468031214845" lon="12.036576040717232"><ele>442.0</ele><time>2026-05-04T12:23:21Z</time></trkpt><trkpt lat="43.67043190095956" lon="12.036439749038882"><ele>443.0</ele><time>2026-05-04T12:23:22Z</time></trkpt><trkpt lat="43.67038682942599" lon="12.036298919656536"><ele>444.00000000000006</ele><time>2026-05-04T12:23:23Z</time></trkpt><trkpt lat="43.67035500106429" lon="12.036151390257675"><ele>445.00000000000006</ele><time>2026-05-04T12:23:24Z</time></trkpt><trkpt lat="43.67031944626766" lon="12.036006456373764"><ele>446.0</ele><time>2026-05-04T12:23:25Z</time></trkpt><trkpt lat="43.67029354929112" lon="12.035868174807161"><ele>447.0</ele><time>2026-05-04T12:23:26Z</time></trkpt><trkpt lat="43.67027696626294" lon="12.035746207128726"><ele>448.40000000000003</ele><time>2026-05-04T12:23:27Z</time></trkpt><trkpt lat="43.67027502459917" lon="12.035629237046955"><ele>449.80000000000007</ele><time>2026-05-04T12:23:28Z</time></trkpt><trkpt lat="43.6702906730234" lon="12.035510904917096"><ele>451.2</ele><time>2026-05-04T12:23:29Z</time></trkpt><trkpt lat="43.670328626182055" lon="12.035398623061042"><ele>452.6</ele><time>2026-05-04T12:23:30Z</time></trkpt><trkpt lat="43.670381554008195" lon="12.035291228532646"><ele>454.0</ele><time>2026-05-04T12:23:31Z</time></trkpt><trkpt lat="43.67043790262467" lon="12.03518376583569"><ele>454.0</ele><time>2026-05-04T12:23:32Z</time></trkpt><trkpt lat="43.67049712055588" lon="12.03507434782325"><ele>454.0</ele><time>2026-05-04T12:23:33Z</time></trkpt><trkpt lat="43.67056434065502" lon="12.034956964144769"><ele>454.0</ele><time>2026-05-04T12:23:34Z</time></trkpt><trkpt lat="43.670632256526794" lon="12.034830129204945"><ele>454.0</ele><time>2026-05-04T12:23:35Z</time></trkpt><trkpt lat="43.670698947812355" lon="12.034697127551741"><ele>454.0</ele><time>2026-05-04T12:23:35.999Z</time></trkpt><trkpt lat="43.6707641639272" lon="12.034562056521361"><ele>456.5</ele><time>2026-05-04T12:23:36.999Z</time></trkpt><trkpt lat="43.67083751227497" lon="12.034428772929482"><ele>459.0</ele><time>2026-05-04T12:23:37.999Z</time></trkpt><trkpt lat="43.67091036070236" lon="12.034293069385702"><ele>461.5</ele><time>2026-05-04T12:23:38.999Z</time></trkpt><trkpt lat="43.670976996203926" lon="12.034143822103392"><ele>464.0</ele><time>2026-05-04T12:23:39.999Z</time></trkpt><trkpt lat="43.67102752002121" lon="12.033980694941041"><ele>466.0</ele><time>2026-05-04T12:23:40.999Z</time></trkpt><trkpt lat="43.67106249702781" lon="12.033803001538432"><ele>468.0</ele><time>2026-05-04T12:23:41.999Z</time></trkpt><trkpt lat="43.67107447303824" lon="12.033616371054324"><ele>470.0</ele><time>2026-05-04T12:23:42.999Z</time></trkpt><trkpt lat="43.671069653159954" lon="12.033426982398677"><ele>472.0</ele><time>2026-05-04T12:23:43.999Z</time></trkpt><trkpt lat="43.67104704368882" lon="12.033234272236921"><ele>472.0</ele><time>2026-05-04T12:23:44.999Z</time></trkpt><trkpt lat="43.67101718051974" lon="12.033049955247522"><ele>472.0</ele><time>2026-05-04T12:23:45.999Z</time></trkpt><trkpt lat="43.670967539257774" lon="12.03287597571269"><ele>472.0</ele><time>2026-05-04T12:23:46.999Z</time></trkpt><trkpt lat="43.67089183775054" lon="12.032724015766654"><ele>472.0</ele><time>2026-05-04T12:23:47.999Z</time></trkpt><trkpt lat="43.670797700349496" lon="12.032589593216798"><ele>472.25</ele><time>2026-05-04T12:23:48.999Z</time></trkpt><trkpt lat="43.67070297075759" lon="12.032466823524349"><ele>472.5</ele><time>2026-05-04T12:23:49.999Z</time></trkpt><trkpt lat="43.670626230328345" lon="12.032345769062022"><ele>472.75</ele><time>2026-05-04T12:23:50.999Z</time></trkpt><trkpt lat="43.67058363413043" lon="12.032205507977329"><ele>473.0</ele><time>2026-05-04T12:23:51.999Z</time></trkpt><trkpt lat="43.67058550322061" lon="12.032040705009205"><ele>473.0</ele><time>2026-05-04T12:23:52.999Z</time></trkpt><trkpt lat="43.67064994688897" lon="12.031890873255586"><ele>473.0</ele><time>2026-05-04T12:23:53.999Z</time></trkpt><trkpt lat="43.67072828845112" lon="12.031761750522854"><ele>473.0</ele><time>2026-05-04T12:23:54.999Z</time></trkpt><trkpt lat="43.670804912666895" lon="12.031621013242907"><ele>473.0</ele><time>2026-05-04T12:23:55.999Z</time></trkpt><trkpt lat="43.67087883938554" lon="12.031473230120133"><ele>473.75</ele><time>2026-05-04T12:23:56.999Z</time></trkpt><trkpt lat="43.67095970360672" lon="12.03132650820548"><ele>474.5</ele><time>2026-05-04T12:23:57.999Z</time></trkpt><trkpt lat="43.6710413879085" lon="12.031176305296784"><ele>475.25</ele><time>2026-05-04T12:23:58.999Z</time></trkpt><trkpt lat="43.67112420562116" lon="12.03102724422869"><ele>476.0</ele><time>2026-05-04T12:23:59.999Z</time></trkpt><trkpt lat="43.6712071377467" lon="12.030877516021473"><ele>476.5</ele><time>2026-05-04T12:24:00.999Z</time></trkpt><trkpt lat="43.671281081431324" lon="12.030740195076874"><ele>477.0</ele><time>2026-05-04T12:24:01.999Z</time></trkpt><trkpt lat="43.67135589719325" lon="12.030602367992184"><ele>477.5</ele><time>2026-05-04T12:24:02.999Z</time></trkpt><trkpt lat="43.67142001236355" lon="12.030469237909724"><ele>478.0</ele><time>2026-05-04T12:24:03.999Z</time></trkpt><trkpt lat="43.67146987630346" lon="12.030333308790235"><ele>478.0</ele><time>2026-05-04T12:24:04.999Z</time></trkpt><trkpt lat="43.67153424615282" lon="12.030196831831027"><ele>478.0</ele><time>2026-05-04T12:24:05.999Z</time></trkpt><trkpt lat="43.6715051495228" lon="12.030039838096435"><ele>478.0</ele><time>2026-05-04T12:24:06.999Z</time></trkpt><trkpt lat="43.67140085159964" lon="12.029900309826672"><ele>478.0</ele><time>2026-05-04T12:24:07.999Z</time></trkpt><trkpt lat="43.67131426282555" lon="12.029783895302014"><ele>480.75</ele><time>2026-05-04T12:24:08.999Z</time></trkpt><trkpt lat="43.671205678216104" lon="12.029684222804095"><ele>483.5</ele><time>2026-05-04T12:24:09.999Z</time></trkpt><trkpt lat="43.67108842889484" lon="12.029596737001935"><ele>486.25</ele><time>2026-05-04T12:24:10.999Z</time></trkpt><trkpt lat="43.67097522848311" lon="12.029501687754394"><ele>489.0</ele><time>2026-05-04T12:24:11.999Z</time></trkpt><trkpt lat="43.67086584786169" lon="12.02939569785967"><ele>489.0</ele><time>2026-05-04T12:24:12.999Z</time></trkpt><trkpt lat="43.6707528336694" lon="12.029292856740655"><ele>489.0</ele><time>2026-05-04T12:24:13.999Z</time></trkpt><trkpt lat="43.670645995194" lon="12.029197718397628"><ele>489.0</ele><time>2026-05-04T12:24:14.999Z</time></trkpt><trkpt lat="43.67054569574114" lon="12.029111619862693"><ele>489.0</ele><time>2026-05-04T12:24:15.999Z</time></trkpt><trkpt lat="43.670454302854715" lon="12.029044195567023"><ele>489.79999999999995</ele><time>2026-05-04T12:24:16.999Z</time></trkpt><trkpt lat="43.67035953446597" lon="12.02901438498592"><ele>490.59999999999997</ele><time>2026-05-04T12:24:17.999Z</time></trkpt><trkpt lat="43.67026371018703" lon="12.029051110793905"><ele>491.4</ele><time>2026-05-04T12:24:18.999Z</time></trkpt><trkpt lat="43.67018088223638" lon="12.029142027785532"><ele>492.2</ele><time>2026-05-04T12:24:19.999Z</time></trkpt><trkpt lat="43.67011548152674" lon="12.029272567278369"><ele>493.0</ele><time>2026-05-04T12:24:20.999Z</time></trkpt><trkpt lat="43.670064861632675" lon="12.029420420873148"><ele>493.25</ele><time>2026-05-04T12:24:21.999Z</time></trkpt><trkpt lat="43.6700175421376" lon="12.02957606530857"><ele>493.5</ele><time>2026-05-04T12:24:22.999Z</time></trkpt><trkpt lat="43.66997027950654" lon="12.029732683311215"><ele>493.75</ele><time>2026-05-04T12:24:23.999Z</time></trkpt><trkpt lat="43.66992335689235" lon="12.029883354922244"><ele>494.0</ele><time>2026-05-04T12:24:24.999Z</time></trkpt><trkpt lat="43.66988020330481" lon="12.030017157526435"><ele>493.99999999999994</ele><time>2026-05-04T12:24:25.999Z</time></trkpt><trkpt lat="43.66984148496528" lon="12.030121156217248"><ele>494.0</ele><time>2026-05-04T12:24:26.999Z</time></trkpt><trkpt lat="43.669793627904404" lon="12.03019697429461"><ele>494.0</ele><time>2026-05-04T12:24:28Z</time></trkpt><trkpt lat="43.669724887091014" lon="12.030229979510134"><ele>494.0</ele><time>2026-05-04T12:24:29Z</time></trkpt><trkpt lat="43.669657896040825" lon="12.030192181445722"><ele>493.99999999999994</ele><time>2026-05-04T12:24:30Z</time></trkpt><trkpt lat="43.66961318147357" lon="12.030096386640514"><ele>494.0</ele><time>2026-05-04T12:24:31Z</time></trkpt><trkpt lat="43.66963810782664" lon="12.029971800944415"><ele>495.2</ele><time>2026-05-04T12:24:32Z</time></trkpt><trkpt lat="43.66963065482232" lon="12.029838373992774"><ele>496.4</ele><time>2026-05-04T12:24:33Z</time></trkpt><trkpt lat="43.66963922735255" lon="12.029712139404173"><ele>497.6</ele><time>2026-05-04T12:24:34Z</time></trkpt><trkpt lat="43.669643796949714" lon="12.029567968503768"><ele>498.8</ele><time>2026-05-04T12:24:35Z</time></trkpt><trkpt lat="43.66964372450977" lon="12.02940910515858"><ele>500.0</ele><time>2026-05-04T12:24:36Z</time></trkpt><trkpt lat="43.669643556324765" lon="12.029246079944919"><ele>500.5</ele><time>2026-05-04T12:24:37Z</time></trkpt><trkpt lat="43.66964373336337" lon="12.029079535165042"><ele>501.0</ele><time>2026-05-04T12:24:38Z</time></trkpt><trkpt lat="43.669646617630946" lon="12.028907257737387"><ele>501.5</ele><time>2026-05-04T12:24:39Z</time></trkpt><trkpt lat="43.66964900392621" lon="12.02872807514813"><ele>502.0</ele><time>2026-05-04T12:24:40Z</time></trkpt><trkpt lat="43.66965124715113" lon="12.028547547275563"><ele>502.0</ele><time>2026-05-04T12:24:41Z</time></trkpt><trkpt lat="43.669651082697094" lon="12.028361819067976"><ele>502.0</ele><time>2026-05-04T12:24:42Z</time></trkpt><trkpt lat="43.669648801565316" lon="12.028178305399965"><ele>502.0</ele><time>2026-05-04T12:24:43Z</time></trkpt><trkpt lat="43.66965156196106" lon="12.027998031946584"><ele>502.0</ele><time>2026-05-04T12:24:44Z</time></trkpt><trkpt lat="43.66967697352079" lon="12.027825339696037"><ele>504.75</ele><time>2026-05-04T12:24:45Z</time></trkpt><trkpt lat="43.669738823987636" lon="12.027677983450223"><ele>507.5</ele><time>2026-05-04T12:24:46Z</time></trkpt><trkpt lat="43.66985174038892" lon="12.027589431280944"><ele>510.25</ele><time>2026-05-04T12:24:47Z</time></trkpt><trkpt lat="43.669938618125016" lon="12.02747401296233"><ele>513.0</ele><time>2026-05-04T12:24:48Z</time></trkpt><trkpt lat="43.67004157682598" lon="12.027374023140023"><ele>511.5</ele><time>2026-05-04T12:24:49Z</time></trkpt><trkpt lat="43.670140154532696" lon="12.027266519085291"><ele>510.0</ele><time>2026-05-04T12:24:50Z</time></trkpt><trkpt lat="43.670242401481595" lon="12.0271552593748"><ele>508.5</ele><time>2026-05-04T12:24:51Z</time></trkpt><trkpt lat="43.67033802358113" lon="12.027051255473632"><ele>507.0</ele><time>2026-05-04T12:24:52Z</time></trkpt><trkpt lat="43.670424050525405" lon="12.026953891344585"><ele>507.0</ele><time>2026-05-04T12:24:53Z</time></trkpt><trkpt lat="43.670498830258694" lon="12.026868334451347"><ele>507.0</ele><time>2026-05-04T12:24:54Z</time></trkpt><trkpt lat="43.670551488275706" lon="12.026779902107942"><ele>507.0</ele><time>2026-05-04T12:24:55Z</time></trkpt><trkpt lat="43.67056644017625" lon="12.026677587437042"><ele>507.0</ele><time>2026-05-04T12:24:56Z</time></trkpt><trkpt lat="43.67053737052501" lon="12.026579387122938"><ele>507.0</ele><time>2026-05-04T12:24:57Z</time></trkpt><trkpt lat="43.670464352643926" lon="12.026518394797959"><ele>507.0</ele><time>2026-05-04T12:24:58Z</time></trkpt><trkpt lat="43.67037453632023" lon="12.02650934583968"><ele>505.6</ele><time>2026-05-04T12:24:59Z</time></trkpt><trkpt lat="43.67027513895467" lon="12.026519295062396"><ele>504.20000000000005</ele><time>2026-05-04T12:25:00Z</time></trkpt><trkpt lat="43.670170934564354" lon="12.026516492757631"><ele>502.8</ele><time>2026-05-04T12:25:01Z</time></trkpt><trkpt lat="43.67006507201777" lon="12.026479292892784"><ele>501.4</ele><time>2026-05-04T12:25:02Z</time></trkpt><trkpt lat="43.66996429885489" lon="12.026408397403975"><ele>500.0</ele><time>2026-05-04T12:25:03Z</time></trkpt><trkpt lat="43.66987575358184" lon="12.026306896674752"><ele>503.5</ele><time>2026-05-04T12:25:04Z</time></trkpt><trkpt lat="43.66979834108652" lon="12.026186666429536"><ele>507.0</ele><time>2026-05-04T12:25:05Z</time></trkpt><trkpt lat="43.66971508220595" lon="12.026058046556164"><ele>510.5</ele><time>2026-05-04T12:25:06Z</time></trkpt><trkpt lat="43.66962652818155" lon="12.025931056691856"><ele>514.0</ele><time>2026-05-04T12:25:07Z</time></trkpt><trkpt lat="43.669536684912856" lon="12.0258106334553"><ele>514.0</ele><time>2026-05-04T12:25:08Z</time></trkpt><trkpt lat="43.66944883045415" lon="12.02568543397371"><ele>514.0</ele><time>2026-05-04T12:25:09Z</time></trkpt><trkpt lat="43.66937484935582" lon="12.025537171536813"><ele>514.0</ele><time>2026-05-04T12:25:10Z</time></trkpt><trkpt lat="43.66932300143421" lon="12.025371014960022"><ele>514.0</ele><time>2026-05-04T12:25:11Z</time></trkpt><trkpt lat="43.669274375262226" lon="12.025196236109373"><ele>519.25</ele><time>2026-05-04T12:25:12Z</time></trkpt><trkpt lat="43.66922210113089" lon="12.025021742510123"><ele>524.5</ele><time>2026-05-04T12:25:13Z</time></trkpt><trkpt lat="43.669156515493434" lon="12.024851038968404"><ele>529.75</ele><time>2026-05-04T12:25:14Z</time></trkpt><trkpt lat="43.66908095356238" lon="12.024689310488677"><ele>535.0</ele><time>2026-05-04T12:25:15Z</time></trkpt><trkpt lat="43.66899456687746" lon="12.024533583168239"><ele>535.0</ele><time>2026-05-04T12:25:16Z</time></trkpt><trkpt lat="43.66889840879215" lon="12.024389309919234"><ele>535.0</ele><time>2026-05-04T12:25:17Z</time></trkpt><trkpt lat="43.66878632651428" lon="12.024254827083265"><ele>535.0</ele><time>2026-05-04T12:25:18Z</time></trkpt><trkpt lat="43.668668306197404" lon="12.024139279822911"><ele>535.0</ele><time>2026-05-04T12:25:19Z</time></trkpt><trkpt lat="43.66854103926585" lon="12.02404678005079"><ele>539.25</ele><time>2026-05-04T12:25:20Z</time></trkpt><trkpt lat="43.66843157353" lon="12.02396410947482"><ele>543.5</ele><time>2026-05-04T12:25:21Z</time></trkpt><trkpt lat="43.66832613516258" lon="12.02388747423905"><ele>547.75</ele><time>2026-05-04T12:25:22Z</time></trkpt><trkpt lat="43.66822644212093" lon="12.023815080224393"><ele>552.0</ele><time>2026-05-04T12:25:23Z</time></trkpt><trkpt lat="43.66813536958332" lon="12.023740222443687"><ele>552.0</ele><time>2026-05-04T12:25:24Z</time></trkpt><trkpt lat="43.66806471329856" lon="12.023676587771254"><ele>552.0</ele><time>2026-05-04T12:25:25Z</time></trkpt><trkpt lat="43.66801682875977" lon="12.023602044977846"><ele>552.0</ele><time>2026-05-04T12:25:26Z</time></trkpt><trkpt lat="43.66800431703611" lon="12.023497161823231"><ele>552.0</ele><time>2026-05-04T12:25:27Z</time></trkpt><trkpt lat="43.668050133333836" lon="12.0233898283944"><ele>552.0</ele><time>2026-05-04T12:25:28Z</time></trkpt><trkpt lat="43.668125957653245" lon="12.023327737106065"><ele>552.0</ele><time>2026-05-04T12:25:29Z</time></trkpt><trkpt lat="43.668237798628255" lon="12.023315491516385"><ele>551.6</ele><time>2026-05-04T12:25:30Z</time></trkpt><trkpt lat="43.66832519164469" lon="12.02328563676001"><ele>551.2</ele><time>2026-05-04T12:25:32Z</time></trkpt><trkpt lat="43.66843454870141" lon="12.023283563005117"><ele>550.8</ele><time>2026-05-04T12:25:33Z</time></trkpt><trkpt lat="43.6685169880468" lon="12.023255930113015"><ele>550.4</ele><time>2026-05-04T12:25:34Z</time></trkpt><trkpt lat="43.66859603427558" lon="12.023205370602017"><ele>550.0</ele><time>2026-05-04T12:25:35Z</time></trkpt><trkpt lat="43.668629107634615" lon="12.023099292801879"><ele>550.0</ele><time>2026-05-04T12:25:36Z</time></trkpt><trkpt lat="43.66860807312514" lon="12.022968299245013"><ele>550.0</ele><time>2026-05-04T12:25:37Z</time></trkpt><trkpt lat="43.668618021111726" lon="12.022865567384212"><ele>550.0</ele><time>2026-05-04T12:25:38Z</time></trkpt><trkpt lat="43.66844640383356" lon="12.022863432320156"><ele>550.0</ele><time>2026-05-04T12:25:39Z</time></trkpt><trkpt lat="43.66834219667342" lon="12.022852871983984"><ele>550.0</ele><time>2026-05-04T12:25:40Z</time></trkpt><trkpt lat="43.6682408176209" lon="12.022842967700292"><ele>550.0</ele><time>2026-05-04T12:25:41Z</time></trkpt><trkpt lat="43.66813930924924" lon="12.022823647615983"><ele>550.0</ele><time>2026-05-04T12:25:41.999Z</time></trkpt><trkpt lat="43.66802984192365" lon="12.022802826705913"><ele>550.0</ele><time>2026-05-04T12:25:42.999Z</time></trkpt><trkpt lat="43.66792097171039" lon="12.022776242008792"><ele>550.0</ele><time>2026-05-04T12:25:43.999Z</time></trkpt><trkpt lat="43.667816764930926" lon="12.022739429881058"><ele>550.0</ele><time>2026-05-04T12:25:44.999Z</time></trkpt><trkpt lat="43.66772754472719" lon="12.022667861486836"><ele>553.4</ele><time>2026-05-04T12:25:45.999Z</time></trkpt><trkpt lat="43.667665388909064" lon="12.022560072084456"><ele>556.8</ele><time>2026-05-04T12:25:46.999Z</time></trkpt><trkpt lat="43.66762947048964" lon="12.022426451929714"><ele>560.2</ele><time>2026-05-04T12:25:47.999Z</time></trkpt><trkpt lat="43.66762124557256" lon="12.022282068179615"><ele>563.6</ele><time>2026-05-04T12:25:48.999Z</time></trkpt><trkpt lat="43.66763287078017" lon="12.022136777886452"><ele>567.0</ele><time>2026-05-04T12:25:49.999Z</time></trkpt><trkpt lat="43.66765454211895" lon="12.02199539683296"><ele>567.0</ele><time>2026-05-04T12:25:50.999Z</time></trkpt><trkpt lat="43.66766444143944" lon="12.02183913691407"><ele>567.0</ele><time>2026-05-04T12:25:51.999Z</time></trkpt><trkpt lat="43.667676130726846" lon="12.021676857593578"><ele>567.0</ele><time>2026-05-04T12:25:52.999Z</time></trkpt><trkpt lat="43.6676856347824" lon="12.021518626965138"><ele>567.0</ele><time>2026-05-04T12:25:53.999Z</time></trkpt><trkpt lat="43.66769733592915" lon="12.021348858244258"><ele>567.0</ele><time>2026-05-04T12:25:54.999Z</time></trkpt><trkpt lat="43.667697033338705" lon="12.021186517769566"><ele>567.0</ele><time>2026-05-04T12:25:55.999Z</time></trkpt><trkpt lat="43.66766774336341" lon="12.021053496283304"><ele>567.0</ele><time>2026-05-04T12:25:56.999Z</time></trkpt><trkpt lat="43.667614292815664" lon="12.020922918002881"><ele>567.0</ele><time>2026-05-04T12:25:57.999Z</time></trkpt><trkpt lat="43.66752001744619" lon="12.02083836317861"><ele>567.0</ele><time>2026-05-04T12:25:58.999Z</time></trkpt><trkpt lat="43.66738396654604" lon="12.020787235595682"><ele>567.0</ele><time>2026-05-04T12:25:59.999Z</time></trkpt><trkpt lat="43.667283978949364" lon="12.020687522598024"><ele>567.0</ele><time>2026-05-04T12:26:00.999Z</time></trkpt><trkpt lat="43.667181051042895" lon="12.020612534188668"><ele>567.0</ele><time>2026-05-04T12:26:01.999Z</time></trkpt><trkpt lat="43.66709285221163" lon="12.020526080595468"><ele>567.0</ele><time>2026-05-04T12:26:02.999Z</time></trkpt><trkpt lat="43.66702161813999" lon="12.020431766740556"><ele>567.0</ele><time>2026-05-04T12:26:03.999Z</time></trkpt><trkpt lat="43.66697180234818" lon="12.020321817561653"><ele>567.0</ele><time>2026-05-04T12:26:04.999Z</time></trkpt><trkpt lat="43.66695269541172" lon="12.020190549988662"><ele>567.0</ele><time>2026-05-04T12:26:05.999Z</time></trkpt><trkpt lat="43.66696860698833" lon="12.02005580833999"><ele>567.0</ele><time>2026-05-04T12:26:06.999Z</time></trkpt><trkpt lat="43.66702600530527" lon="12.01994172813531"><ele>567.0</ele><time>2026-05-04T12:26:07.999Z</time></trkpt><trkpt lat="43.667101267252" lon="12.019845585904951"><ele>567.0</ele><time>2026-05-04T12:26:08.999Z</time></trkpt><trkpt lat="43.66719812213272" lon="12.01979466473366"><ele>570.0</ele><time>2026-05-04T12:26:09.999Z</time></trkpt><trkpt lat="43.66730243639389" lon="12.019760243806363"><ele>573.0</ele><time>2026-05-04T12:26:10.999Z</time></trkpt><trkpt lat="43.667408255981" lon="12.019733408706538"><ele>576.0</ele><time>2026-05-04T12:26:11.999Z</time></trkpt><trkpt lat="43.66749574669346" lon="12.019683145715419"><ele>579.0</ele><time>2026-05-04T12:26:12.999Z</time></trkpt><trkpt lat="43.66754779867572" lon="12.019576911678298"><ele>582.0</ele><time>2026-05-04T12:26:13.999Z</time></trkpt><trkpt lat="43.667577430088464" lon="12.019438603870945"><ele>582.0</ele><time>2026-05-04T12:26:14.999Z</time></trkpt><trkpt lat="43.6675704889671" lon="12.01927539427321"><ele>582.0</ele><time>2026-05-04T12:26:15.999Z</time></trkpt><trkpt lat="43.66756840759022" lon="12.019116602933629"><ele>582.0</ele><time>2026-05-04T12:26:16.999Z</time></trkpt><trkpt lat="43.667579104892134" lon="12.018959096945085"><ele>582.0</ele><time>2026-05-04T12:26:17.999Z</time></trkpt><trkpt lat="43.667595530318984" lon="12.018802231330934"><ele>583.25</ele><time>2026-05-04T12:26:18.999Z</time></trkpt><trkpt lat="43.66760219457144" lon="12.018636381895151"><ele>584.5</ele><time>2026-05-04T12:26:19.999Z</time></trkpt><trkpt lat="43.66759509701136" lon="12.018470378755037"><ele>585.75</ele><time>2026-05-04T12:26:20.999Z</time></trkpt><trkpt lat="43.66756629419209" lon="12.018296974581641"><ele>587.0</ele><time>2026-05-04T12:26:21.999Z</time></trkpt><trkpt lat="43.667519127017805" lon="12.01813212341828"><ele>587.75</ele><time>2026-05-04T12:26:22.999Z</time></trkpt><trkpt lat="43.66746138169097" lon="12.01796846736318"><ele>588.5</ele><time>2026-05-04T12:26:23.999Z</time></trkpt><trkpt lat="43.66739522248371" lon="12.0178091488068"><ele>589.25</ele><time>2026-05-04T12:26:24.999Z</time></trkpt><trkpt lat="43.66733929743915" lon="12.017650640942158"><ele>590.0</ele><time>2026-05-04T12:26:25.999Z</time></trkpt><trkpt lat="43.66729500166835" lon="12.017492352217744"><ele>590.25</ele><time>2026-05-04T12:26:26.999Z</time></trkpt><trkpt lat="43.667276176533086" lon="12.017327806529703"><ele>590.5</ele><time>2026-05-04T12:26:27.999Z</time></trkpt><trkpt lat="43.66728910095072" lon="12.017159151796992"><ele>590.75</ele><time>2026-05-04T12:26:28.999Z</time></trkpt><trkpt lat="43.66732010443018" lon="12.016991480176756"><ele>591.0</ele><time>2026-05-04T12:26:29.999Z</time></trkpt><trkpt lat="43.66734951257658" lon="12.016814824756919"><ele>593.5</ele><time>2026-05-04T12:26:30.999Z</time></trkpt><trkpt lat="43.66737056638257" lon="12.016634262062201"><ele>596.0</ele><time>2026-05-04T12:26:31.999Z</time></trkpt><trkpt lat="43.66738807649941" lon="12.016454864074673"><ele>598.5</ele><time>2026-05-04T12:26:32.999Z</time></trkpt><trkpt lat="43.66741889762179" lon="12.016279084456926"><ele>601.0</ele><time>2026-05-04T12:26:33.999Z</time></trkpt><trkpt lat="43.66748494578774" lon="12.016113078200974"><ele>601.0</ele><time>2026-05-04T12:26:34.999Z</time></trkpt><trkpt lat="43.6675683917029" lon="12.015961386588048"><ele>601.0</ele><time>2026-05-04T12:26:35.999Z</time></trkpt><trkpt lat="43.667662839445306" lon="12.015826589042499"><ele>601.0</ele><time>2026-05-04T12:26:36.999Z</time></trkpt><trkpt lat="43.667768621015924" lon="12.015706195597556"><ele>601.0</ele><time>2026-05-04T12:26:37.999Z</time></trkpt><trkpt lat="43.667893917835926" lon="12.015621838322282"><ele>601.5</ele><time>2026-05-04T12:26:38.999Z</time></trkpt><trkpt lat="43.6680349701196" lon="12.015573084649017"><ele>602.0</ele><time>2026-05-04T12:26:39.999Z</time></trkpt><trkpt lat="43.66818173027758" lon="12.015554518801286"><ele>602.5</ele><time>2026-05-04T12:26:40.999Z</time></trkpt><trkpt lat="43.66833065710894" lon="12.015527990388794"><ele>603.0</ele><time>2026-05-04T12:26:41.999Z</time></trkpt><trkpt lat="43.66846640033741" lon="12.015491267512054"><ele>603.0</ele><time>2026-05-04T12:26:42.999Z</time></trkpt><trkpt lat="43.66858489856797" lon="12.015436876472096"><ele>603.0</ele><time>2026-05-04T12:26:43.999Z</time></trkpt><trkpt lat="43.668699181224895" lon="12.015364169515072"><ele>603.0</ele><time>2026-05-04T12:26:44.999Z</time></trkpt><trkpt lat="43.66879577964122" lon="12.01527024472092"><ele>603.0</ele><time>2026-05-04T12:26:45.999Z</time></trkpt><trkpt lat="43.668876034771536" lon="12.015149313049553"><ele>600.5</ele><time>2026-05-04T12:26:46.999Z</time></trkpt><trkpt lat="43.66893826345196" lon="12.015001606262766"><ele>598.0</ele><time>2026-05-04T12:26:47.999Z</time></trkpt><trkpt lat="43.6689858802483" lon="12.014830399694516"><ele>595.5</ele><time>2026-05-04T12:26:48.999Z</time></trkpt><trkpt lat="43.6689870654105" lon="12.014649512556185"><ele>593.0</ele><time>2026-05-04T12:26:49.999Z</time></trkpt><trkpt lat="43.66895704820595" lon="12.014480249911358"><ele>593.0</ele><time>2026-05-04T12:26:50.999Z</time></trkpt><trkpt lat="43.66890051258677" lon="12.01433763812048"><ele>593.0</ele><time>2026-05-04T12:26:51.999Z</time></trkpt><trkpt lat="43.668822302447396" lon="12.01422013195339"><ele>593.0</ele><time>2026-05-04T12:26:52.999Z</time></trkpt><trkpt lat="43.6687234342887" lon="12.014140663474592"><ele>593.0</ele><time>2026-05-04T12:26:53.999Z</time></trkpt><trkpt lat="43.668605564864" lon="12.014085931268458"><ele>598.25</ele><time>2026-05-04T12:26:54.999Z</time></trkpt><trkpt lat="43.66848719035074" lon="12.014050704762674"><ele>603.5</ele><time>2026-05-04T12:26:55.999Z</time></trkpt><trkpt lat="43.66837501566673" lon="12.01401916263592"><ele>608.75</ele><time>2026-05-04T12:26:56.999Z</time></trkpt><trkpt lat="43.668262561374924" lon="12.013986688727918"><ele>614.0</ele><time>2026-05-04T12:26:57.999Z</time></trkpt><trkpt lat="43.66815701524535" lon="12.013950859211079"><ele>614.0</ele><time>2026-05-04T12:26:59Z</time></trkpt><trkpt lat="43.66805950849292" lon="12.013910767427479"><ele>614.0</ele><time>2026-05-04T12:27:00Z</time></trkpt><trkpt lat="43.66797637744919" lon="12.0138667417275"><ele>614.0</ele><time>2026-05-04T12:27:01Z</time></trkpt><trkpt lat="43.6679181059095" lon="12.013826088169942"><ele>614.0</ele><time>2026-05-04T12:27:02Z</time></trkpt><trkpt lat="43.66784253491108" lon="12.013783192630237"><ele>614.0</ele><time>2026-05-04T12:27:04Z</time></trkpt><trkpt lat="43.66777527032209" lon="12.01385370549407"><ele>614.0</ele><time>2026-05-04T12:27:06Z</time></trkpt><trkpt lat="43.66773719563653" lon="12.013946565295692"><ele>616.0</ele><time>2026-05-04T12:27:07Z</time></trkpt><trkpt lat="43.6676757747161" lon="12.014041718203623"><ele>618.0</ele><time>2026-05-04T12:27:08Z</time></trkpt><trkpt lat="43.667581746252644" lon="12.014179254532863"><ele>620.0</ele><time>2026-05-04T12:27:10Z</time></trkpt><trkpt lat="43.66751809721547" lon="12.014257658215715"><ele>622.0</ele><time>2026-05-04T12:27:11Z</time></trkpt><trkpt lat="43.667458117053165" lon="12.014335590243835"><ele>624.0</ele><time>2026-05-04T12:27:12Z</time></trkpt><trkpt lat="43.66741118477289" lon="12.01440273624863"><ele>624.0</ele><time>2026-05-04T12:27:13Z</time></trkpt><trkpt lat="43.667360212578025" lon="12.014466513220054"><ele>624.0</ele><time>2026-05-04T12:27:14Z</time></trkpt><trkpt lat="43.66731457995733" lon="12.014529860199877"><ele>624.0</ele><time>2026-05-04T12:27:15Z</time></trkpt><trkpt lat="43.667275961824636" lon="12.01459914442016"><ele>624.0</ele><time>2026-05-04T12:27:16Z</time></trkpt><trkpt lat="43.66723661272802" lon="12.014672934225988"><ele>624.0</ele><time>2026-05-04T12:27:17Z</time></trkpt><trkpt lat="43.667201035314214" lon="12.014756089032888"><ele>624.0</ele><time>2026-05-04T12:27:18Z</time></trkpt><trkpt lat="43.667168436536656" lon="12.014862740035527"><ele>624.0</ele><time>2026-05-04T12:27:20Z</time></trkpt><trkpt lat="43.66714243579397" lon="12.015002183140785"><ele>622.3333333333334</ele><time>2026-05-04T12:27:49.999Z</time></trkpt><trkpt lat="43.66712163371398" lon="12.015088370673002"><ele>620.6666666666666</ele><time>2026-05-04T12:27:50.999Z</time></trkpt><trkpt lat="43.66709988066349" lon="12.015182079623532"><ele>619.0</ele><time>2026-05-04T12:27:51.999Z</time></trkpt><trkpt lat="43.66707516168547" lon="12.015286521967848"><ele>617.3333333333333</ele><time>2026-05-04T12:27:52.999Z</time></trkpt><trkpt lat="43.66704493645668" lon="12.015404659565972"><ele>615.6666666666666</ele><time>2026-05-04T12:27:53.999Z</time></trkpt><trkpt lat="43.66700700234453" lon="12.015525617430914"><ele>614.0</ele><time>2026-05-04T12:27:54.999Z</time></trkpt><trkpt lat="43.66696130902997" lon="12.015642668636143"><ele>617.2</ele><time>2026-05-04T12:27:55.999Z</time></trkpt><trkpt lat="43.66689280811383" lon="12.015722554908223"><ele>620.4</ele><time>2026-05-04T12:27:56.999Z</time></trkpt><trkpt lat="43.66680805843071" lon="12.015777545413286"><ele>623.6</ele><time>2026-05-04T12:27:57.999Z</time></trkpt><trkpt lat="43.666720235736584" lon="12.015841390664592"><ele>626.8</ele><time>2026-05-04T12:27:58.999Z</time></trkpt><trkpt lat="43.66662700341388" lon="12.015887172825355"><ele>630.0</ele><time>2026-05-04T12:27:59.999Z</time></trkpt><trkpt lat="43.66654651085161" lon="12.015966795114485"><ele>630.0</ele><time>2026-05-04T12:28:00.999Z</time></trkpt><trkpt lat="43.66648482167381" lon="12.016070840928867"><ele>630.0</ele><time>2026-05-04T12:28:01.999Z</time></trkpt><trkpt lat="43.66643490105192" lon="12.016196443209667"><ele>630.0</ele><time>2026-05-04T12:28:02.999Z</time></trkpt><trkpt lat="43.66639308853376" lon="12.016334096403465"><ele>630.0</ele><time>2026-05-04T12:28:03.999Z</time></trkpt><trkpt lat="43.66635673973552" lon="12.016492126646199"><ele>630.0</ele><time>2026-05-04T12:28:04.999Z</time></trkpt><trkpt lat="43.66630292623392" lon="12.016650269268062"><ele>627.25</ele><time>2026-05-04T12:28:05.999Z</time></trkpt><trkpt lat="43.66626862782328" lon="12.016825688431995"><ele>624.5</ele><time>2026-05-04T12:28:06.999Z</time></trkpt><trkpt lat="43.66624509000096" lon="12.017010203612376"><ele>621.75</ele><time>2026-05-04T12:28:07.999Z</time></trkpt><trkpt lat="43.66622910376601" lon="12.017197369905256"><ele>619.0</ele><time>2026-05-04T12:28:08.999Z</time></trkpt><trkpt lat="43.66621800647492" lon="12.017385469180006"><ele>618.75</ele><time>2026-05-04T12:28:09.999Z</time></trkpt><trkpt lat="43.66620834150347" lon="12.0175701495899"><ele>618.5</ele><time>2026-05-04T12:28:10.999Z</time></trkpt><trkpt lat="43.66619612730999" lon="12.017741391968737"><ele>618.25</ele><time>2026-05-04T12:28:11.999Z</time></trkpt><trkpt lat="43.66619464345695" lon="12.01788679573466"><ele>618.0</ele><time>2026-05-04T12:28:12.999Z</time></trkpt><trkpt lat="43.66616502238544" lon="12.018007288514818"><ele>618.0</ele><time>2026-05-04T12:28:13.999Z</time></trkpt><trkpt lat="43.66611866529398" lon="12.018139549185522"><ele>618.0</ele><time>2026-05-04T12:28:15Z</time></trkpt><trkpt lat="43.66604651643289" lon="12.018239659527158"><ele>618.0</ele><time>2026-05-04T12:28:16Z</time></trkpt><trkpt lat="43.665937930061204" lon="12.018262942402231"><ele>618.0</ele><time>2026-05-04T12:28:17Z</time></trkpt><trkpt lat="43.66582703664777" lon="12.018293333254915"><ele>618.0</ele><time>2026-05-04T12:28:18Z</time></trkpt><trkpt lat="43.66570987282819" lon="12.01832982892526"><ele>621.8</ele><time>2026-05-04T12:28:19Z</time></trkpt><trkpt lat="43.66558846776579" lon="12.018347629458905"><ele>625.5999999999999</ele><time>2026-05-04T12:28:20Z</time></trkpt><trkpt lat="43.66547738661706" lon="12.018365287241407"><ele>629.4000000000001</ele><time>2026-05-04T12:28:21Z</time></trkpt><trkpt lat="43.66537315683378" lon="12.018386823271019"><ele>633.2</ele><time>2026-05-04T12:28:22Z</time></trkpt><trkpt lat="43.665279293198346" lon="12.018408746979784"><ele>637.0</ele><time>2026-05-04T12:28:23Z</time></trkpt><trkpt lat="43.66519604035714" lon="12.01842259389553"><ele>638.3333333333334</ele><time>2026-05-04T12:28:24Z</time></trkpt><trkpt lat="43.665127242841265" lon="12.018429262809523"><ele>639.6666666666667</ele><time>2026-05-04T12:28:25Z</time></trkpt><trkpt lat="43.66506415996895" lon="12.018418272334907"><ele>641.0</ele><time>2026-05-04T12:28:26Z</time></trkpt><trkpt lat="43.664961808001166" lon="12.018366431619055"><ele>642.3333333333334</ele><time>2026-05-04T12:28:28Z</time></trkpt><trkpt lat="43.66490159262061" lon="12.018322688787205"><ele>643.6666666666666</ele><time>2026-05-04T12:28:30Z</time></trkpt><trkpt lat="43.66497798491397" lon="12.018379760702182"><ele>645.0</ele><time>2026-05-04T12:28:35Z</time></trkpt><trkpt lat="43.6650441704351" lon="12.018410653571424"><ele>645.0</ele><time>2026-05-04T12:28:38Z</time></trkpt><trkpt lat="43.66515514154662" lon="12.0183338942369"><ele>645.0</ele><time>2026-05-04T12:30:12.999Z</time></trkpt><trkpt lat="43.665234002790406" lon="12.0181918491525"><ele>645.0</ele><time>2026-05-04T12:30:14.999Z</time></trkpt><trkpt lat="43.66526734581888" lon="12.018073034065829"><ele>645.0</ele><time>2026-05-04T12:30:16.999Z</time></trkpt><trkpt lat="43.665253269273215" lon="12.017946920528129"><ele>645.0</ele><time>2026-05-04T12:30:18.999Z</time></trkpt><trkpt lat="43.66526145097179" lon="12.017857928119389"><ele>646.2</ele><time>2026-05-04T12:30:19.999Z</time></trkpt><trkpt lat="43.6652817017665" lon="12.01766926460022"><ele>647.4</ele><time>2026-05-04T12:30:22Z</time></trkpt><trkpt lat="43.66528369888604" lon="12.017565561714914"><ele>648.5999999999999</ele><time>2026-05-04T12:30:23Z</time></trkpt><trkpt lat="43.665285828934515" lon="12.017453880715987"><ele>649.8</ele><time>2026-05-04T12:30:24Z</time></trkpt><trkpt lat="43.66530311965424" lon="12.01733454118433"><ele>651.0</ele><time>2026-05-04T12:30:25Z</time></trkpt><trkpt lat="43.66530905163392" lon="12.01720394484394"><ele>651.5999999999999</ele><time>2026-05-04T12:30:26Z</time></trkpt><trkpt lat="43.665304792438775" lon="12.017075154893387"><ele>652.2</ele><time>2026-05-04T12:30:27Z</time></trkpt><trkpt lat="43.665306422378016" lon="12.016955213943712"><ele>652.8</ele><time>2026-05-04T12:30:28Z</time></trkpt><trkpt lat="43.665307321214684" lon="12.016833318225554"><ele>653.4000000000001</ele><time>2026-05-04T12:30:29Z</time></trkpt><trkpt lat="43.66530071416292" lon="12.016708659541429"><ele>654.0</ele><time>2026-05-04T12:30:30Z</time></trkpt><trkpt lat="43.665286354438074" lon="12.016581479673448"><ele>655.2</ele><time>2026-05-04T12:30:31Z</time></trkpt><trkpt lat="43.66526626324466" lon="12.016446739206442"><ele>656.4000000000001</ele><time>2026-05-04T12:30:32Z</time></trkpt><trkpt lat="43.665243467068144" lon="12.016315657946398"><ele>657.6</ele><time>2026-05-04T12:30:33Z</time></trkpt><trkpt lat="43.66523642041095" lon="12.016169268052598"><ele>658.8</ele><time>2026-05-04T12:30:34Z</time></trkpt><trkpt lat="43.66525257690418" lon="12.016043771160918"><ele>660.0</ele><time>2026-05-04T12:30:35Z</time></trkpt><trkpt lat="43.66528501064766" lon="12.015933483153878"><ele>660.0</ele><time>2026-05-04T12:30:36Z</time></trkpt><trkpt lat="43.6653475858342" lon="12.015838177031952"><ele>660.0</ele><time>2026-05-04T12:30:37Z</time></trkpt><trkpt lat="43.665375894732904" lon="12.015733355812856"><ele>660.0</ele><time>2026-05-04T12:30:38Z</time></trkpt><trkpt lat="43.6653721350794" lon="12.015607825768603"><ele>660.0</ele><time>2026-05-04T12:30:39Z</time></trkpt><trkpt lat="43.665349305043605" lon="12.015491026792068"><ele>660.0</ele><time>2026-05-04T12:30:40Z</time></trkpt><trkpt lat="43.66531981057971" lon="12.01537801965992"><ele>660.0</ele><time>2026-05-04T12:30:41Z</time></trkpt><trkpt lat="43.6652390350585" lon="12.015290812425992"><ele>661.4</ele><time>2026-05-04T12:30:42Z</time></trkpt><trkpt lat="43.665169937900345" lon="12.01520092414578"><ele>662.8</ele><time>2026-05-04T12:30:43Z</time></trkpt><trkpt lat="43.66511102454698" lon="12.015091809841467"><ele>664.2</ele><time>2026-05-04T12:30:44Z</time></trkpt><trkpt lat="43.6650836639557" lon="12.01495177429194"><ele>665.6</ele><time>2026-05-04T12:30:45Z</time></trkpt><trkpt lat="43.66506713386474" lon="12.014812770802175"><ele>667.0</ele><time>2026-05-04T12:30:46Z</time></trkpt><trkpt lat="43.665061455570026" lon="12.01467268237509"><ele>667.8</ele><time>2026-05-04T12:30:47.001Z</time></trkpt><trkpt lat="43.66506493832516" lon="12.014529026381293"><ele>668.6</ele><time>2026-05-04T12:30:48.001Z</time></trkpt><trkpt lat="43.665084178113936" lon="12.014392551327667"><ele>669.4</ele><time>2026-05-04T12:30:49.001Z</time></trkpt><trkpt lat="43.66511277013949" lon="12.014272219395473"><ele>670.1999999999999</ele><time>2026-05-04T12:30:50.001Z</time></trkpt><trkpt lat="43.665148207522215" lon="12.01418585634318"><ele>671.0</ele><time>2026-05-04T12:30:51.001Z</time></trkpt><trkpt lat="43.66520807194815" lon="12.01409010141705"><ele>673.4</ele><time>2026-05-04T12:30:52.001Z</time></trkpt><trkpt lat="43.66528844160319" lon="12.014027676348096"><ele>675.8</ele><time>2026-05-04T12:30:53.001Z</time></trkpt><trkpt lat="43.66537639788778" lon="12.013958319297231"><ele>678.1999999999999</ele><time>2026-05-04T12:30:54.001Z</time></trkpt><trkpt lat="43.66548690391086" lon="12.013937598628136"><ele>680.5999999999999</ele><time>2026-05-04T12:30:55.001Z</time></trkpt><trkpt lat="43.66558461766071" lon="12.013888742252469"><ele>683.0</ele><time>2026-05-04T12:30:56.001Z</time></trkpt><trkpt lat="43.66567299437137" lon="12.01386237432615"><ele>683.0</ele><time>2026-05-04T12:30:57.001Z</time></trkpt><trkpt lat="43.665745226132366" lon="12.013797687187216"><ele>683.0</ele><time>2026-05-04T12:30:58.001Z</time></trkpt><trkpt lat="43.665795305343096" lon="12.013711307924465"><ele>683.0</ele><time>2026-05-04T12:30:59.001Z</time></trkpt><trkpt lat="43.665834557974584" lon="12.013601162281452"><ele>683.0</ele><time>2026-05-04T12:31:00.001Z</time></trkpt><trkpt lat="43.665849801632184" lon="12.013460316732129"><ele>683.0</ele><time>2026-05-04T12:31:01.001Z</time></trkpt><trkpt lat="43.66587340457001" lon="12.013314490687177"><ele>684.25</ele><time>2026-05-04T12:31:02.001Z</time></trkpt><trkpt lat="43.66589516678643" lon="12.013159158126193"><ele>685.5</ele><time>2026-05-04T12:31:03.001Z</time></trkpt><trkpt lat="43.66592132446657" lon="12.012999434256367"><ele>686.75</ele><time>2026-05-04T12:31:04.001Z</time></trkpt><trkpt lat="43.66593253123734" lon="12.0128337788464"><ele>688.0</ele><time>2026-05-04T12:31:05.001Z</time></trkpt><trkpt lat="43.66594450918961" lon="12.012660074252441"><ele>687.75</ele><time>2026-05-04T12:31:06.001Z</time></trkpt><trkpt lat="43.665943659058584" lon="12.012474769786957"><ele>687.5</ele><time>2026-05-04T12:31:07.001Z</time></trkpt><trkpt lat="43.66594622888964" lon="12.012299702481313"><ele>687.25</ele><time>2026-05-04T12:31:08.001Z</time></trkpt><trkpt lat="43.6659584984734" lon="12.012138105205866"><ele>687.0</ele><time>2026-05-04T12:31:09.001Z</time></trkpt><trkpt lat="43.66595832557028" lon="12.011999802490186"><ele>687.0</ele><time>2026-05-04T12:31:10.001Z</time></trkpt><trkpt lat="43.66596682776184" lon="12.01186871671056"><ele>687.0</ele><time>2026-05-04T12:31:11.001Z</time></trkpt><trkpt lat="43.66597217424497" lon="12.01172177401599"><ele>687.0</ele><time>2026-05-04T12:31:12.001Z</time></trkpt><trkpt lat="43.665972587722656" lon="12.011581896018603"><ele>687.0</ele><time>2026-05-04T12:31:13.001Z</time></trkpt><trkpt lat="43.66597956015208" lon="12.01143242532525"><ele>687.0</ele><time>2026-05-04T12:31:14.001Z</time></trkpt><trkpt lat="43.66598358242454" lon="12.011280729925236"><ele>686.8</ele><time>2026-05-04T12:31:15.001Z</time></trkpt><trkpt lat="43.66600420038827" lon="12.011153792529797"><ele>686.6</ele><time>2026-05-04T12:31:16.001Z</time></trkpt><trkpt lat="43.666038660515746" lon="12.011033922923968"><ele>686.4</ele><time>2026-05-04T12:31:17.001Z</time></trkpt><trkpt lat="43.666114851242625" lon="12.01093728703895"><ele>686.1999999999999</ele><time>2026-05-04T12:31:18.001Z</time></trkpt><trkpt lat="43.666178270663025" lon="12.010819164451716"><ele>686.0</ele><time>2026-05-04T12:31:19.001Z</time></trkpt><trkpt lat="43.666212007049474" lon="12.010696996522814"><ele>686.5999999999999</ele><time>2026-05-04T12:31:20.001Z</time></trkpt><trkpt lat="43.666261440708524" lon="12.010596079590876"><ele>687.2</ele><time>2026-05-04T12:31:21.001Z</time></trkpt><trkpt lat="43.66626024898785" lon="12.010458267226479"><ele>687.8</ele><time>2026-05-04T12:31:22.001Z</time></trkpt><trkpt lat="43.666196506516286" lon="12.010346515501087"><ele>688.4000000000001</ele><time>2026-05-04T12:31:23.001Z</time></trkpt><trkpt lat="43.66614407353241" lon="12.010227401705693"><ele>689.0</ele><time>2026-05-04T12:31:24.001Z</time></trkpt><trkpt lat="43.66610394579415" lon="12.010102825058249"><ele>689.6666666666666</ele><time>2026-05-04T12:31:25.001Z</time></trkpt><trkpt lat="43.66606677367269" lon="12.009987140348345"><ele>690.3333333333333</ele><time>2026-05-04T12:31:26.001Z</time></trkpt><trkpt lat="43.66605341626333" lon="12.009850823765266"><ele>691.0</ele><time>2026-05-04T12:31:28.001Z</time></trkpt><trkpt lat="43.666110900502744" lon="12.009801135902265"><ele>691.6666666666666</ele><time>2026-05-04T12:31:29.001Z</time></trkpt><trkpt lat="43.666179326763924" lon="12.009811045805641"><ele>692.3333333333334</ele><time>2026-05-04T12:31:30.001Z</time></trkpt><trkpt lat="43.66624972906931" lon="12.009785526538593"><ele>693.0</ele><time>2026-05-04T12:31:31.001Z</time></trkpt><trkpt lat="43.6663376710228" lon="12.009779732919778"><ele>696.4</ele><time>2026-05-04T12:31:32.001Z</time></trkpt><trkpt lat="43.66643774871307" lon="12.009778555479537"><ele>699.8</ele><time>2026-05-04T12:31:33.001Z</time></trkpt><trkpt lat="43.666551731957306" lon="12.009766790455053"><ele>703.2</ele><time>2026-05-04T12:31:34.001Z</time></trkpt><trkpt lat="43.666655151372574" lon="12.00974256958351"><ele>706.6</ele><time>2026-05-04T12:31:35.001Z</time></trkpt><trkpt lat="43.666749189424316" lon="12.009700229659321"><ele>710.0</ele><time>2026-05-04T12:31:36.001Z</time></trkpt><trkpt lat="43.66684233742224" lon="12.00963411687929"><ele>710.0</ele><time>2026-05-04T12:31:37.001Z</time></trkpt><trkpt lat="43.66690644352708" lon="12.009557482045558"><ele>710.0</ele><time>2026-05-04T12:31:38.001Z</time></trkpt><trkpt lat="43.66695565199132" lon="12.009463493931827"><ele>710.0</ele><time>2026-05-04T12:31:39.001Z</time></trkpt><trkpt lat="43.66698094140871" lon="12.009338134039956"><ele>710.0</ele><time>2026-05-04T12:31:40.001Z</time></trkpt><trkpt lat="43.66698152323557" lon="12.009210871348689"><ele>710.0</ele><time>2026-05-04T12:31:41.001Z</time></trkpt><trkpt lat="43.66699084893432" lon="12.00909566442688"><ele>710.0</ele><time>2026-05-04T12:31:42.001Z</time></trkpt><trkpt lat="43.66699002635091" lon="12.008946124209594"><ele>713.0</ele><time>2026-05-04T12:31:43.001Z</time></trkpt><trkpt lat="43.66699172148809" lon="12.00880119121437"><ele>716.0</ele><time>2026-05-04T12:31:44.001Z</time></trkpt><trkpt lat="43.667019107948214" lon="12.008654491969507"><ele>719.0</ele><time>2026-05-04T12:31:45.001Z</time></trkpt><trkpt lat="43.66705951942042" lon="12.008497478623362"><ele>722.0</ele><time>2026-05-04T12:31:46.001Z</time></trkpt><trkpt lat="43.667102784970126" lon="12.008345153791312"><ele>724.25</ele><time>2026-05-04T12:31:47.001Z</time></trkpt><trkpt lat="43.66714236789372" lon="12.008187064003701"><ele>726.5</ele><time>2026-05-04T12:31:48.001Z</time></trkpt><trkpt lat="43.66716145572554" lon="12.008029320536632"><ele>728.75</ele><time>2026-05-04T12:31:49.001Z</time></trkpt><trkpt lat="43.66714462508446" lon="12.007858203049267"><ele>731.0</ele><time>2026-05-04T12:31:50.001Z</time></trkpt><trkpt lat="43.66712626055243" lon="12.007726445064545"><ele>731.0</ele><time>2026-05-04T12:31:51.001Z</time></trkpt><trkpt lat="43.667122108367764" lon="12.007601726160038"><ele>731.0</ele><time>2026-05-04T12:31:52.001Z</time></trkpt><trkpt lat="43.66717796862004" lon="12.007499324211707"><ele>731.0</ele><time>2026-05-04T12:31:53.001Z</time></trkpt><trkpt lat="43.66719900892228" lon="12.00738731447592"><ele>731.0</ele><time>2026-05-04T12:31:54.001Z</time></trkpt><trkpt lat="43.66721054736989" lon="12.007287150319677"><ele>731.0</ele><time>2026-05-04T12:31:55.001Z</time></trkpt><trkpt lat="43.6671688688419" lon="12.007157775322392"><ele>731.0</ele><time>2026-05-04T12:31:56.001Z</time></trkpt><trkpt lat="43.667116450032125" lon="12.007036310907672"><ele>732.75</ele><time>2026-05-04T12:31:57.001Z</time></trkpt><trkpt lat="43.667077210494966" lon="12.006888598030294"><ele>734.5</ele><time>2026-05-04T12:31:58.001Z</time></trkpt><trkpt lat="43.66704461318144" lon="12.006716641841939"><ele>736.25</ele><time>2026-05-04T12:31:59Z</time></trkpt><trkpt lat="43.66702232409188" lon="12.006546345226635"><ele>738.0</ele><time>2026-05-04T12:32:00Z</time></trkpt><trkpt lat="43.66700776169581" lon="12.006386874213478"><ele>737.8</ele><time>2026-05-04T12:32:01Z</time></trkpt><trkpt lat="43.66699108775316" lon="12.006209283186429"><ele>737.5999999999999</ele><time>2026-05-04T12:32:02Z</time></trkpt><trkpt lat="43.66695770683896" lon="12.00606089400989"><ele>737.4000000000001</ele><time>2026-05-04T12:32:03Z</time></trkpt><trkpt lat="43.66690873124456" lon="12.00591915315685"><ele>737.2</ele><time>2026-05-04T12:32:04Z</time></trkpt><trkpt lat="43.66688396069427" lon="12.005795873299185"><ele>737.0</ele><time>2026-05-04T12:32:05Z</time></trkpt><trkpt lat="43.666869610110844" lon="12.00568472771175"><ele>737.0</ele><time>2026-05-04T12:32:06Z</time></trkpt><trkpt lat="43.66686854885628" lon="12.005550347883016"><ele>737.0</ele><time>2026-05-04T12:32:07Z</time></trkpt><trkpt lat="43.66688713713775" lon="12.005421347226253"><ele>737.0</ele><time>2026-05-04T12:32:08Z</time></trkpt><trkpt lat="43.66690374456511" lon="12.005307466084515"><ele>737.0</ele><time>2026-05-04T12:32:09Z</time></trkpt><trkpt lat="43.666952485298566" lon="12.005243185784982"><ele>737.0</ele><time>2026-05-04T12:32:10Z</time></trkpt><trkpt lat="43.667023728750316" lon="12.00522728006796"><ele>737.0</ele><time>2026-05-04T12:32:11Z</time></trkpt><trkpt lat="43.66708024751861" lon="12.005157492927223"><ele>738.4000000000001</ele><time>2026-05-04T12:32:12Z</time></trkpt><trkpt lat="43.66713724396724" lon="12.005104058795759"><ele>739.8000000000001</ele><time>2026-05-04T12:32:13Z</time></trkpt><trkpt lat="43.66719565530088" lon="12.005031875668255"><ele>741.2</ele><time>2026-05-04T12:32:14Z</time></trkpt><trkpt lat="43.66724715165035" lon="12.004910869673687"><ele>742.6</ele><time>2026-05-04T12:32:15Z</time></trkpt><trkpt lat="43.66728349057076" lon="12.004768748093873"><ele>744.0</ele><time>2026-05-04T12:32:16Z</time></trkpt><trkpt lat="43.66729920658475" lon="12.004609424754243"><ele>745.25</ele><time>2026-05-04T12:32:17Z</time></trkpt><trkpt lat="43.667297844760476" lon="12.004439506389035"><ele>746.5</ele><time>2026-05-04T12:32:18Z</time></trkpt><trkpt lat="43.667306213923695" lon="12.00425061350382"><ele>747.75</ele><time>2026-05-04T12:32:19Z</time></trkpt><trkpt lat="43.66731983268243" lon="12.004057412678058"><ele>749.0</ele><time>2026-05-04T12:32:20Z</time></trkpt><trkpt lat="43.66733053297177" lon="12.003883004789088"><ele>749.8000000000001</ele><time>2026-05-04T12:32:21Z</time></trkpt><trkpt lat="43.66737135758444" lon="12.003717271414239"><ele>750.6</ele><time>2026-05-04T12:32:22Z</time></trkpt><trkpt lat="43.66738785275686" lon="12.003563240364047"><ele>751.4</ele><time>2026-05-04T12:32:23Z</time></trkpt><trkpt lat="43.667397548492985" lon="12.003417373456516"><ele>752.2</ele><time>2026-05-04T12:32:24Z</time></trkpt><trkpt lat="43.667400248837666" lon="12.003281007960728"><ele>753.0</ele><time>2026-05-04T12:32:25Z</time></trkpt><trkpt lat="43.66739616226358" lon="12.003157636552407"><ele>751.4</ele><time>2026-05-04T12:32:26Z</time></trkpt><trkpt lat="43.667390259802644" lon="12.003013534871835"><ele>749.8</ele><time>2026-05-04T12:32:27Z</time></trkpt><trkpt lat="43.66741729708867" lon="12.002882358880704"><ele>748.2</ele><time>2026-05-04T12:32:28Z</time></trkpt><trkpt lat="43.66743432359096" lon="12.002764219951146"><ele>746.6</ele><time>2026-05-04T12:32:29Z</time></trkpt><trkpt lat="43.66743572162322" lon="12.002643786456403"><ele>745.0</ele><time>2026-05-04T12:32:30Z</time></trkpt><trkpt lat="43.667461436165745" lon="12.002537239626383"><ele>743.5</ele><time>2026-05-04T12:32:31Z</time></trkpt><trkpt lat="43.66747725751275" lon="12.002432774138946"><ele>742.0</ele><time>2026-05-04T12:32:32Z</time></trkpt><trkpt lat="43.66751572642774" lon="12.002326036167926"><ele>740.5</ele><time>2026-05-04T12:32:33Z</time></trkpt><trkpt lat="43.667584664810505" lon="12.002241158633217"><ele>739.0</ele><time>2026-05-04T12:32:34Z</time></trkpt><trkpt lat="43.66764116969237" lon="12.002126413705085"><ele>737.5</ele><time>2026-05-04T12:32:35Z</time></trkpt><trkpt lat="43.66768633808679" lon="12.00201568465428"><ele>736.0</ele><time>2026-05-04T12:32:36Z</time></trkpt><trkpt lat="43.66772277050682" lon="12.00186869325153"><ele>736.0</ele><time>2026-05-04T12:32:37Z</time></trkpt><trkpt lat="43.66773793282365" lon="12.00173667769056"><ele>736.0</ele><time>2026-05-04T12:32:38Z</time></trkpt><trkpt lat="43.66774619446967" lon="12.001616978610382"><ele>736.0</ele><time>2026-05-04T12:32:39Z</time></trkpt><trkpt lat="43.66775231328668" lon="12.001504769926617"><ele>736.0</ele><time>2026-05-04T12:32:40Z</time></trkpt><trkpt lat="43.66774372050763" lon="12.001397075406416"><ele>736.0</ele><time>2026-05-04T12:32:41Z</time></trkpt><trkpt lat="43.667695122824526" lon="12.00128650625953"><ele>736.0</ele><time>2026-05-04T12:32:42Z</time></trkpt><trkpt lat="43.667605303633785" lon="12.001198969991528"><ele>736.1666666666667</ele><time>2026-05-04T12:32:43Z</time></trkpt><trkpt lat="43.66755406628851" lon="12.001094663299792"><ele>736.3333333333334</ele><time>2026-05-04T12:32:44Z</time></trkpt><trkpt lat="43.66751157164419" lon="12.000997022785352"><ele>736.5</ele><time>2026-05-04T12:32:45Z</time></trkpt><trkpt lat="43.667489792996896" lon="12.000883314677615"><ele>736.6666666666666</ele><time>2026-05-04T12:32:46Z</time></trkpt><trkpt lat="43.66746240633714" lon="12.00077811246875"><ele>736.8333333333333</ele><time>2026-05-04T12:32:47Z</time></trkpt><trkpt lat="43.667438481431795" lon="12.000667081374646"><ele>737.0</ele><time>2026-05-04T12:32:48Z</time></trkpt><trkpt lat="43.66742243708968" lon="12.000552026612787"><ele>738.0</ele><time>2026-05-04T12:32:49Z</time></trkpt><trkpt lat="43.667416146599415" lon="12.000433772839877"><ele>739.0</ele><time>2026-05-04T12:32:50Z</time></trkpt><trkpt lat="43.66740022569139" lon="12.000322589274"><ele>740.0</ele><time>2026-05-04T12:32:51Z</time></trkpt><trkpt lat="43.66737596843275" lon="12.000164957483994"><ele>741.0</ele><time>2026-05-04T12:32:53Z</time></trkpt><trkpt lat="43.667355119555566" lon="12.000080205791212"><ele>742.0</ele><time>2026-05-04T12:32:54Z</time></trkpt><trkpt lat="43.667318209186824" lon="11.999956891844263"><ele>743.0</ele><time>2026-05-04T12:32:56Z</time></trkpt><trkpt lat="43.667266757943" lon="11.999828766495481"><ele>743.0</ele><time>2026-05-04T12:32:58Z</time></trkpt><trkpt lat="43.667228369125475" lon="11.999686442875301"><ele>743.0</ele><time>2026-05-04T12:33:00Z</time></trkpt><trkpt lat="43.66718204498907" lon="11.99954342577287"><ele>743.0</ele><time>2026-05-04T12:33:02Z</time></trkpt><trkpt lat="43.667177230333394" lon="11.999450869136759"><ele>743.0</ele><time>2026-05-04T12:33:03Z</time></trkpt><trkpt lat="43.6671562022498" lon="11.999364788102023"><ele>743.0</ele><time>2026-05-04T12:33:04Z</time></trkpt><trkpt lat="43.66713593021174" lon="11.999281802007419"><ele>743.0</ele><time>2026-05-04T12:33:05Z</time></trkpt><trkpt lat="43.667113032553424" lon="11.99919789978742"><ele>743.4</ele><time>2026-05-04T12:33:06Z</time></trkpt><trkpt lat="43.66706965312722" lon="11.999042266151166"><ele>743.8</ele><time>2026-05-04T12:33:08Z</time></trkpt><trkpt lat="43.66703466576415" lon="11.99890579171928"><ele>744.2</ele><time>2026-05-04T12:33:10Z</time></trkpt><trkpt lat="43.667010232503934" lon="11.998776882758897"><ele>744.6</ele><time>2026-05-04T12:33:12Z</time></trkpt><trkpt lat="43.6670246815437" lon="11.998681002398188"><ele>745.0</ele><time>2026-05-04T12:33:14.001Z</time></trkpt><trkpt lat="43.667073046722045" lon="11.998568969616576"><ele>745.0</ele><time>2026-05-04T12:33:17.001Z</time></trkpt><trkpt lat="43.6671717206421" lon="11.998448007858128"><ele>745.0</ele><time>2026-05-04T12:33:19.001Z</time></trkpt><trkpt lat="43.667151454771876" lon="11.998298424010324"><ele>745.0</ele><time>2026-05-04T12:33:20.001Z</time></trkpt><trkpt lat="43.667208620621885" lon="11.99819601061065"><ele>745.0</ele><time>2026-05-04T12:33:21.001Z</time></trkpt><trkpt lat="43.66726774869733" lon="11.998081028135449"><ele>745.0</ele><time>2026-05-04T12:33:22.001Z</time></trkpt><trkpt lat="43.66731324555412" lon="11.997959494359492"><ele>746.6666666666667</ele><time>2026-05-04T12:33:23.001Z</time></trkpt><trkpt lat="43.66733512145061" lon="11.997856944580407"><ele>748.3333333333334</ele><time>2026-05-04T12:33:24.001Z</time></trkpt><trkpt lat="43.66733272009755" lon="11.997760493247402"><ele>750.0</ele><time>2026-05-04T12:33:25.001Z</time></trkpt><trkpt lat="43.66732633122931" lon="11.997644486154021"><ele>751.6666666666666</ele><time>2026-05-04T12:33:26.001Z</time></trkpt><trkpt lat="43.66733838282464" lon="11.997554757436022"><ele>753.3333333333333</ele><time>2026-05-04T12:33:27.001Z</time></trkpt><trkpt lat="43.667374698482234" lon="11.997463181965163"><ele>755.0</ele><time>2026-05-04T12:33:28.001Z</time></trkpt><trkpt lat="43.66740054232797" lon="11.99733953337079"><ele>756.6</ele><time>2026-05-04T12:33:29.001Z</time></trkpt><trkpt lat="43.667424555229616" lon="11.997226857616111"><ele>758.2</ele><time>2026-05-04T12:33:30.001Z</time></trkpt><trkpt lat="43.66746690107284" lon="11.997105976343917"><ele>759.8</ele><time>2026-05-04T12:33:31.001Z</time></trkpt><trkpt lat="43.66751497750165" lon="11.996989833280479"><ele>761.4</ele><time>2026-05-04T12:33:32.001Z</time></trkpt><trkpt lat="43.667555609138866" lon="11.996863558325305"><ele>763.0</ele><time>2026-05-04T12:33:33.001Z</time></trkpt><trkpt lat="43.66759757097723" lon="11.996723567634348"><ele>764.5999999999999</ele><time>2026-05-04T12:33:34.001Z</time></trkpt><trkpt lat="43.66762917299848" lon="11.996595865092646"><ele>766.1999999999999</ele><time>2026-05-04T12:33:35.001Z</time></trkpt><trkpt lat="43.66765310047025" lon="11.996477403862231"><ele>767.8</ele><time>2026-05-04T12:33:36.001Z</time></trkpt><trkpt lat="43.66766683022424" lon="11.99638161893216"><ele>769.4</ele><time>2026-05-04T12:33:37.001Z</time></trkpt><trkpt lat="43.66765807720416" lon="11.996183507763844"><ele>771.0</ele><time>2026-05-04T12:33:39.001Z</time></trkpt><trkpt lat="43.667630840884904" lon="11.99606013388056"><ele>771.0</ele><time>2026-05-04T12:33:40.001Z</time></trkpt><trkpt lat="43.66759562655705" lon="11.995925535520715"><ele>771.0</ele><time>2026-05-04T12:33:41.001Z</time></trkpt><trkpt lat="43.66755577461046" lon="11.995829282113409"><ele>771.0</ele><time>2026-05-04T12:33:42.001Z</time></trkpt><trkpt lat="43.66751365206289" lon="11.99570326769241"><ele>771.0</ele><time>2026-05-04T12:33:43.001Z</time></trkpt><trkpt lat="43.667484978957596" lon="11.995548538236603"><ele>771.0</ele><time>2026-05-04T12:33:44.001Z</time></trkpt><trkpt lat="43.66745943092797" lon="11.995457639454676"><ele>773.3333333333334</ele><time>2026-05-04T12:33:45.001Z</time></trkpt><trkpt lat="43.66744986065033" lon="11.995350542976086"><ele>775.6666666666667</ele><time>2026-05-04T12:33:46.001Z</time></trkpt><trkpt lat="43.667420650285734" lon="11.995242994707022"><ele>778.0</ele><time>2026-05-04T12:33:47.001Z</time></trkpt><trkpt lat="43.66738505829545" lon="11.995132394238125"><ele>780.3333333333334</ele><time>2026-05-04T12:33:48.001Z</time></trkpt><trkpt lat="43.667357052006814" lon="11.995024614792726"><ele>782.6666666666667</ele><time>2026-05-04T12:33:49.001Z</time></trkpt><trkpt lat="43.667303693293164" lon="11.994938893223473"><ele>785.0</ele><time>2026-05-04T12:33:50.001Z</time></trkpt><trkpt lat="43.66725906803397" lon="11.994839281061312"><ele>786.8</ele><time>2026-05-04T12:33:51.001Z</time></trkpt><trkpt lat="43.66722588151099" lon="11.994735159325003"><ele>788.6</ele><time>2026-05-04T12:33:52.001Z</time></trkpt><trkpt lat="43.66721195131877" lon="11.994637144894812"><ele>790.4000000000001</ele><time>2026-05-04T12:33:53.001Z</time></trkpt><trkpt lat="43.667231214023424" lon="11.994535395603139"><ele>792.2</ele><time>2026-05-04T12:33:55.001Z</time></trkpt><trkpt lat="43.66731861808362" lon="11.994392541338671"><ele>794.0</ele><time>2026-05-04T12:53:24Z</time></trkpt><trkpt lat="43.66741921291547" lon="11.994380361455532"><ele>794.0000000000001</ele><time>2026-05-04T12:53:26Z</time></trkpt><trkpt lat="43.66751770464696" lon="11.994408113004228"><ele>794.0</ele><time>2026-05-04T12:53:28Z</time></trkpt><trkpt lat="43.667613109851494" lon="11.994420698869602"><ele>794.0</ele><time>2026-05-04T12:53:30Z</time></trkpt><trkpt lat="43.66770089475765" lon="11.994447338751955"><ele>794.0</ele><time>2026-05-04T12:53:32Z</time></trkpt><trkpt lat="43.66777456595089" lon="11.994458285270637"><ele>794.0000000000001</ele><time>2026-05-04T12:53:33Z</time></trkpt><trkpt lat="43.66785825890737" lon="11.99446582018051"><ele>794.0</ele><time>2026-05-04T12:53:34Z</time></trkpt><trkpt lat="43.66793621253477" lon="11.994466850568767"><ele>794.0000000000001</ele><time>2026-05-04T12:53:35Z</time></trkpt><trkpt lat="43.668004276390064" lon="11.994458980848131"><ele>794.0</ele><time>2026-05-04T12:53:40Z</time></trkpt><trkpt lat="43.668099739031405" lon="11.994460678967773"><ele>794.0</ele><time>2026-05-04T12:54:09Z</time></trkpt><trkpt lat="43.66816318428369" lon="11.99446006341472"><ele>794.0</ele><time>2026-05-04T12:54:10Z</time></trkpt><trkpt lat="43.66828557158215" lon="11.994489027175108"><ele>794.0000000000001</ele><time>2026-05-04T12:54:12Z</time></trkpt><trkpt lat="43.66834982328314" lon="11.994493535197057"><ele>794.0</ele><time>2026-05-04T12:54:13Z</time></trkpt><trkpt lat="43.668415404194796" lon="11.994495400812529"><ele>794.0</ele><time>2026-05-04T12:54:14Z</time></trkpt><trkpt lat="43.66848514977265" lon="11.994485420118199"><ele>794.0</ele><time>2026-05-04T12:54:15Z</time></trkpt><trkpt lat="43.66854897168753" lon="11.994475288024551"><ele>794.0</ele><time>2026-05-04T12:54:16Z</time></trkpt><trkpt lat="43.6686116620225" lon="11.994457489164004"><ele>794.0</ele><time>2026-05-04T12:54:17Z</time></trkpt><trkpt lat="43.6686745721755" lon="11.994444243358059"><ele>794.0</ele><time>2026-05-04T12:54:18.001Z</time></trkpt><trkpt lat="43.66878076700041" lon="11.994375822011866"><ele>794.0</ele><time>2026-05-04T12:54:20.001Z</time></trkpt><trkpt lat="43.66884225364193" lon="11.994336032429986"><ele>794.0</ele><time>2026-05-04T12:54:21.001Z</time></trkpt><trkpt lat="43.66890410532334" lon="11.994289390605658"><ele>793.4000000000001</ele><time>2026-05-04T12:54:22.001Z</time></trkpt><trkpt lat="43.668961069516776" lon="11.994231999528857"><ele>792.8</ele><time>2026-05-04T12:54:23.001Z</time></trkpt><trkpt lat="43.669009631218" lon="11.994170067710478"><ele>792.2</ele><time>2026-05-04T12:54:24.001Z</time></trkpt><trkpt lat="43.66907349974304" lon="11.994118229743249"><ele>791.5999999999999</ele><time>2026-05-04T12:54:25.001Z</time></trkpt><trkpt lat="43.66918042153835" lon="11.994042635849508"><ele>791.0</ele><time>2026-05-04T12:54:27.001Z</time></trkpt><trkpt lat="43.66930373801026" lon="11.99398717317728"><ele>785.8</ele><time>2026-05-04T12:54:29.001Z</time></trkpt><trkpt lat="43.66936883308526" lon="11.993956753822651"><ele>780.5999999999999</ele><time>2026-05-04T12:54:30.001Z</time></trkpt><trkpt lat="43.66947736567555" lon="11.993930824689519"><ele>775.4</ele><time>2026-05-04T12:54:32.001Z</time></trkpt><trkpt lat="43.66958831692145" lon="11.993948618141216"><ele>770.2</ele><time>2026-05-04T12:54:34.001Z</time></trkpt><trkpt lat="43.66969809789114" lon="11.994030758056184"><ele>765.0</ele><time>2026-05-04T12:54:36.001Z</time></trkpt><trkpt lat="43.66975281031954" lon="11.994080645435558"><ele>762.8</ele><time>2026-05-04T12:54:37.001Z</time></trkpt><trkpt lat="43.66985948905243" lon="11.994128904580549"><ele>760.6</ele><time>2026-05-04T12:54:39.001Z</time></trkpt><trkpt lat="43.66991833332483" lon="11.994166748983595"><ele>758.4000000000001</ele><time>2026-05-04T12:54:40.001Z</time></trkpt><trkpt lat="43.67002712197553" lon="11.994234543409066"><ele>756.2</ele><time>2026-05-04T12:54:42.001Z</time></trkpt><trkpt lat="43.670074399572094" lon="11.994308899988546"><ele>754.0</ele><time>2026-05-04T12:54:44.001Z</time></trkpt><trkpt lat="43.670125404943064" lon="11.994404304324801"><ele>754.2</ele><time>2026-05-04T12:54:46.001Z</time></trkpt><trkpt lat="43.67021625770306" lon="11.994380798607521"><ele>754.4000000000001</ele><time>2026-05-04T12:54:49.001Z</time></trkpt><trkpt lat="43.670264325531306" lon="11.994317765379355"><ele>754.6</ele><time>2026-05-04T12:54:50.001Z</time></trkpt><trkpt lat="43.670312218775244" lon="11.994261233124782"><ele>754.8</ele><time>2026-05-04T12:54:51.001Z</time></trkpt><trkpt lat="43.67041375897673" lon="11.994195805284962"><ele>755.0</ele><time>2026-05-04T12:54:53.001Z</time></trkpt><trkpt lat="43.670533161934166" lon="11.994119974959906"><ele>755.0</ele><time>2026-05-04T12:54:55.001Z</time></trkpt><trkpt lat="43.67060248000875" lon="11.994072166186312"><ele>755.0</ele><time>2026-05-04T12:54:56.001Z</time></trkpt><trkpt lat="43.67067935213592" lon="11.994010256161685"><ele>755.0</ele><time>2026-05-04T12:54:57.001Z</time></trkpt><trkpt lat="43.67076096645216" lon="11.993979222994414"><ele>755.0</ele><time>2026-05-04T12:54:58.001Z</time></trkpt><trkpt lat="43.670824943093" lon="11.993935640303654"><ele>755.0</ele><time>2026-05-04T12:54:59.001Z</time></trkpt><trkpt lat="43.67088198044437" lon="11.993890999136003"><ele>755.0</ele><time>2026-05-04T12:55:00.001Z</time></trkpt><trkpt lat="43.670998584473026" lon="11.993825075992982"><ele>755.0</ele><time>2026-05-04T12:55:02.001Z</time></trkpt><trkpt lat="43.67106258962115" lon="11.99380320792281"><ele>755.0</ele><time>2026-05-04T12:55:03.001Z</time></trkpt><trkpt lat="43.67112456663683" lon="11.99378771628693"><ele>755.0</ele><time>2026-05-04T12:55:04.001Z</time></trkpt><trkpt lat="43.67124407294619" lon="11.993771393791711"><ele>755.0</ele><time>2026-05-04T12:55:05.999Z</time></trkpt><trkpt lat="43.67137492102128" lon="11.993791277608208"><ele>755.0</ele><time>2026-05-04T12:55:07.999Z</time></trkpt><trkpt lat="43.67144717268894" lon="11.993807904114226"><ele>754.3333333333333</ele><time>2026-05-04T12:55:08.999Z</time></trkpt><trkpt lat="43.67151298417744" lon="11.993835855661723"><ele>753.6666666666666</ele><time>2026-05-04T12:55:09.999Z</time></trkpt><trkpt lat="43.671574877777154" lon="11.993874512173468"><ele>753.0</ele><time>2026-05-04T12:55:10.999Z</time></trkpt><trkpt lat="43.671634459587096" lon="11.993915445269108"><ele>752.3333333333334</ele><time>2026-05-04T12:55:11.999Z</time></trkpt><trkpt lat="43.67174049514507" lon="11.993913239381722"><ele>751.6666666666667</ele><time>2026-05-04T12:55:13.999Z</time></trkpt><trkpt lat="43.671856466527" lon="11.993819930405827"><ele>751.0</ele><time>2026-05-04T12:55:15.999Z</time></trkpt><trkpt lat="43.67191518740128" lon="11.993783612742481"><ele>752.6666666666667</ele><time>2026-05-04T12:55:16.999Z</time></trkpt><trkpt lat="43.671974392241104" lon="11.993675758353392"><ele>754.3333333333334</ele><time>2026-05-04T12:55:18.999Z</time></trkpt><trkpt lat="43.671969446486386" lon="11.99357071517903"><ele>756.0</ele><time>2026-05-04T12:55:19.999Z</time></trkpt><trkpt lat="43.67197059394459" lon="11.993471387307547"><ele>757.6666666666666</ele><time>2026-05-04T12:55:20.999Z</time></trkpt><trkpt lat="43.67198709103755" lon="11.993385557369418"><ele>759.3333333333333</ele><time>2026-05-04T12:55:21.999Z</time></trkpt><trkpt lat="43.67203682764963" lon="11.993321114053481"><ele>761.0</ele><time>2026-05-04T12:55:24Z</time></trkpt><trkpt lat="43.67211933343975" lon="11.993256504941957"><ele>755.4</ele><time>2026-05-04T12:55:26Z</time></trkpt><trkpt lat="43.67220945489285" lon="11.993130141305723"><ele>749.8</ele><time>2026-05-04T12:55:28Z</time></trkpt><trkpt lat="43.67225354317902" lon="11.993041535487475"><ele>744.1999999999999</ele><time>2026-05-04T12:55:29Z</time></trkpt><trkpt lat="43.67230523436872" lon="11.992884762468917"><ele>738.5999999999999</ele><time>2026-05-04T12:55:31Z</time></trkpt><trkpt lat="43.672308862945435" lon="11.992793519215512"><ele>733.0</ele><time>2026-05-04T12:55:32Z</time></trkpt><trkpt lat="43.67234016769463" lon="11.992643269223773"><ele>732.9999999999999</ele><time>2026-05-04T12:55:34Z</time></trkpt><trkpt lat="43.67238386907274" lon="11.992570792511936"><ele>733.0</ele><time>2026-05-04T12:55:35Z</time></trkpt><trkpt lat="43.6724273662037" lon="11.992500800855106"><ele>733.0</ele><time>2026-05-04T12:55:36Z</time></trkpt><trkpt lat="43.67247190282109" lon="11.992430661000759"><ele>733.0</ele><time>2026-05-04T12:55:37Z</time></trkpt><trkpt lat="43.67253002710582" lon="11.992370852862221"><ele>733.0</ele><time>2026-05-04T12:55:38Z</time></trkpt><trkpt lat="43.67260193989764" lon="11.99232433102695"><ele>732.9999999999999</ele><time>2026-05-04T12:55:39Z</time></trkpt><trkpt lat="43.672675286580755" lon="11.992273586071802"><ele>733.0</ele><time>2026-05-04T12:55:40Z</time></trkpt><trkpt lat="43.67275379014642" lon="11.992204178575141"><ele>730.2</ele><time>2026-05-04T12:55:41Z</time></trkpt><trkpt lat="43.672816585749324" lon="11.992138426518624"><ele>727.4</ele><time>2026-05-04T12:55:42Z</time></trkpt><trkpt lat="43.67290013814285" lon="11.992064011668425"><ele>724.6</ele><time>2026-05-04T12:55:44Z</time></trkpt><trkpt lat="43.67298765734249" lon="11.99203212575072"><ele>721.8000000000001</ele><time>2026-05-04T12:55:46Z</time></trkpt><trkpt lat="43.67308691498423" lon="11.992073928328097"><ele>719.0</ele><time>2026-05-04T12:55:48Z</time></trkpt><trkpt lat="43.67322554972986" lon="11.992084717197786"><ele>719.0</ele><time>2026-05-04T12:55:50Z</time></trkpt><trkpt lat="43.67330999880507" lon="11.992072664307262"><ele>719.0</ele><time>2026-05-04T12:55:51Z</time></trkpt><trkpt lat="43.6734226674493" lon="11.992040061467705"><ele>719.0</ele><time>2026-05-04T12:55:53Z</time></trkpt><trkpt lat="43.67346776769698" lon="11.99190127436882"><ele>719.0</ele><time>2026-05-04T12:55:55Z</time></trkpt><trkpt lat="43.6734745079018" lon="11.99180719632878"><ele>719.0</ele><time>2026-05-04T12:55:56Z</time></trkpt><trkpt lat="43.67347836816676" lon="11.99162726617353"><ele>717.0</ele><time>2026-05-04T12:55:58Z</time></trkpt><trkpt lat="43.673495358744994" lon="11.991518412642531"><ele>715.0</ele><time>2026-05-04T12:55:59Z</time></trkpt><trkpt lat="43.67352355886356" lon="11.99141974422906"><ele>713.0</ele><time>2026-05-04T12:56:00Z</time></trkpt><trkpt lat="43.673549823049285" lon="11.991331250470937"><ele>711.0</ele><time>2026-05-04T12:56:01Z</time></trkpt><trkpt lat="43.67357848991884" lon="11.991173822791504"><ele>709.0</ele><time>2026-05-04T12:56:03Z</time></trkpt><trkpt lat="43.67359702737047" lon="11.991076096357117"><ele>707.0</ele><time>2026-05-04T12:56:04Z</time></trkpt><trkpt lat="43.67364376685149" lon="11.990936438502848"><ele>703.8</ele><time>2026-05-04T12:56:06Z</time></trkpt><trkpt lat="43.67371124726066" lon="11.990821503665124"><ele>700.6</ele><time>2026-05-04T12:56:08Z</time></trkpt><trkpt lat="43.67378276219402" lon="11.990718770593798"><ele>697.4</ele><time>2026-05-04T12:56:10Z</time></trkpt><trkpt lat="43.67383165366117" lon="11.990659969433215"><ele>694.1999999999999</ele><time>2026-05-04T12:56:11Z</time></trkpt><trkpt lat="43.67390065060855" lon="11.990579718410341"><ele>691.0</ele><time>2026-05-04T12:56:12Z</time></trkpt><trkpt lat="43.673963967492305" lon="11.99050032441536"><ele>690.9999999999999</ele><time>2026-05-04T12:56:13Z</time></trkpt><trkpt lat="43.674019956194" lon="11.990419309705239"><ele>691.0</ele><time>2026-05-04T12:56:14Z</time></trkpt><trkpt lat="43.674058384641086" lon="11.990348673933775"><ele>691.0</ele><time>2026-05-04T12:56:15Z</time></trkpt><trkpt lat="43.67411046198883" lon="11.990291135415921"><ele>691.0</ele><time>2026-05-04T12:56:16Z</time></trkpt><trkpt lat="43.67417063077845" lon="11.990215286438378"><ele>691.0</ele><time>2026-05-04T12:56:18Z</time></trkpt><trkpt lat="43.674201194094294" lon="11.990134672879991"><ele>690.9999999999999</ele><time>2026-05-04T12:56:27.001Z</time></trkpt><trkpt lat="43.67427295680543" lon="11.990116145297636"><ele>691.0</ele><time>2026-05-04T12:58:02Z</time></trkpt><trkpt lat="43.6743314217267" lon="11.990047402021727"><ele>686.0</ele><time>2026-05-04T12:59:30Z</time></trkpt><trkpt lat="43.674419910127185" lon="11.989988185971814"><ele>681.0</ele><time>2026-05-04T12:59:32Z</time></trkpt><trkpt lat="43.6745308284481" lon="11.989911572473591"><ele>676.0</ele><time>2026-05-04T12:59:34Z</time></trkpt><trkpt lat="43.67460221507157" lon="11.98987970071161"><ele>671.0</ele><time>2026-05-04T12:59:35Z</time></trkpt><trkpt lat="43.67467433092484" lon="11.989849895290481"><ele>666.0</ele><time>2026-05-04T12:59:36Z</time></trkpt><trkpt lat="43.67475448033604" lon="11.98982362136884"><ele>665.6666666666666</ele><time>2026-05-04T12:59:37Z</time></trkpt><trkpt lat="43.674839564645275" lon="11.989793479517667"><ele>665.3333333333334</ele><time>2026-05-04T12:59:38Z</time></trkpt><trkpt lat="43.67491902065456" lon="11.989781297067427"><ele>665.0</ele><time>2026-05-04T12:59:39Z</time></trkpt><trkpt lat="43.67498931709334" lon="11.989775202287795"><ele>664.6666666666667</ele><time>2026-05-04T12:59:40Z</time></trkpt><trkpt lat="43.675064972084776" lon="11.989778136198732"><ele>664.3333333333334</ele><time>2026-05-04T12:59:41Z</time></trkpt><trkpt lat="43.675143997816605" lon="11.989780813281369"><ele>664.0</ele><time>2026-05-04T12:59:42Z</time></trkpt><trkpt lat="43.6752241827483" lon="11.98977943768152"><ele>663.3333333333334</ele><time>2026-05-04T12:59:43Z</time></trkpt><trkpt lat="43.67530908003044" lon="11.98977880775812"><ele>662.6666666666667</ele><time>2026-05-04T12:59:44Z</time></trkpt><trkpt lat="43.67538649493554" lon="11.989775328012435"><ele>662.0</ele><time>2026-05-04T12:59:45Z</time></trkpt><trkpt lat="43.675457098451254" lon="11.989764620640937"><ele>661.3333333333334</ele><time>2026-05-04T12:59:46.001Z</time></trkpt><trkpt lat="43.67552068245929" lon="11.98973695324088"><ele>660.6666666666666</ele><time>2026-05-04T12:59:47.001Z</time></trkpt><trkpt lat="43.67558511855296" lon="11.989697171719413"><ele>660.0</ele><time>2026-05-04T12:59:48.001Z</time></trkpt><trkpt lat="43.67565614152626" lon="11.989643970513962"><ele>660.0</ele><time>2026-05-04T12:59:49.001Z</time></trkpt><trkpt lat="43.675734152400494" lon="11.98959373490901"><ele>660.0</ele><time>2026-05-04T12:59:50.001Z</time></trkpt><trkpt lat="43.675795333329575" lon="11.989536206941542"><ele>660.0</ele><time>2026-05-04T12:59:51.001Z</time></trkpt><trkpt lat="43.67585230276159" lon="11.989467024731676"><ele>660.0</ele><time>2026-05-04T12:59:52.001Z</time></trkpt><trkpt lat="43.67591635778249" lon="11.989396773419465"><ele>660.0</ele><time>2026-05-04T12:59:53.001Z</time></trkpt><trkpt lat="43.67597300333354" lon="11.989329330341251"><ele>660.0</ele><time>2026-05-04T12:59:54.001Z</time></trkpt><trkpt lat="43.676025448723976" lon="11.989264259268493"><ele>657.8</ele><time>2026-05-04T12:59:55.001Z</time></trkpt><trkpt lat="43.67610241522532" lon="11.989122438740905"><ele>655.6</ele><time>2026-05-04T12:59:57.001Z</time></trkpt><trkpt lat="43.67613531664954" lon="11.9890284185834"><ele>653.4000000000001</ele><time>2026-05-04T12:59:58.001Z</time></trkpt><trkpt lat="43.676172025904144" lon="11.988937051626854"><ele>651.2</ele><time>2026-05-04T12:59:59.001Z</time></trkpt><trkpt lat="43.67624714651717" lon="11.988811321780185"><ele>649.0</ele><time>2026-05-04T13:00:01.001Z</time></trkpt><trkpt lat="43.67630612906784" lon="11.988724485340208"><ele>648.9999999999999</ele><time>2026-05-04T13:00:02.001Z</time></trkpt><trkpt lat="43.67636439388846" lon="11.988667004824013"><ele>649.0</ele><time>2026-05-04T13:00:03.001Z</time></trkpt><trkpt lat="43.67642262080352" lon="11.988613726655837"><ele>649.0</ele><time>2026-05-04T13:00:04.001Z</time></trkpt><trkpt lat="43.67648481023248" lon="11.988594171408737"><ele>649.0</ele><time>2026-05-04T13:00:05.001Z</time></trkpt><trkpt lat="43.67655749264963" lon="11.988587486047477"><ele>649.0</ele><time>2026-05-04T13:00:06.001Z</time></trkpt><trkpt lat="43.67662612496992" lon="11.988591102464992"><ele>648.9999999999999</ele><time>2026-05-04T13:00:07.001Z</time></trkpt><trkpt lat="43.67669959469608" lon="11.988608082668572"><ele>649.0</ele><time>2026-05-04T13:00:08.001Z</time></trkpt><trkpt lat="43.676767180301695" lon="11.988638147868691"><ele>649.0</ele><time>2026-05-04T13:00:09.001Z</time></trkpt><trkpt lat="43.67684136856732" lon="11.988652960402908"><ele>649.0</ele><time>2026-05-04T13:00:10.001Z</time></trkpt><trkpt lat="43.67691951704629" lon="11.9886390023876"><ele>649.0</ele><time>2026-05-04T13:00:11.001Z</time></trkpt><trkpt lat="43.67699431630696" lon="11.988609093132807"><ele>649.0</ele><time>2026-05-04T13:00:12.001Z</time></trkpt><trkpt lat="43.677059097206985" lon="11.988581680403914"><ele>649.0</ele><time>2026-05-04T13:00:13.001Z</time></trkpt><trkpt lat="43.67712142472747" lon="11.988564994004703"><ele>649.0</ele><time>2026-05-04T13:00:14.001Z</time></trkpt><trkpt lat="43.67723261291305" lon="11.988604759044552"><ele>648.8333333333334</ele><time>2026-05-04T13:00:16.001Z</time></trkpt><trkpt lat="43.67730174436083" lon="11.988638261979144"><ele>648.6666666666667</ele><time>2026-05-04T13:00:17.001Z</time></trkpt><trkpt lat="43.677381738961024" lon="11.988658452602692"><ele>648.5</ele><time>2026-05-04T13:00:18.001Z</time></trkpt><trkpt lat="43.677461057230595" lon="11.988660242181423"><ele>648.3333333333334</ele><time>2026-05-04T13:00:19.001Z</time></trkpt><trkpt lat="43.67753298096578" lon="11.988645395571181"><ele>648.1666666666666</ele><time>2026-05-04T13:00:20.001Z</time></trkpt><trkpt lat="43.677624659329005" lon="11.988627900323188"><ele>648.0</ele><time>2026-05-04T13:00:21.001Z</time></trkpt><trkpt lat="43.67771387948746" lon="11.988611730794096"><ele>649.5</ele><time>2026-05-04T13:00:22.001Z</time></trkpt><trkpt lat="43.67778728588485" lon="11.98860649038935"><ele>651.0</ele><time>2026-05-04T13:00:23.001Z</time></trkpt><trkpt lat="43.677867800839714" lon="11.988608337719018"><ele>652.5</ele><time>2026-05-04T13:00:24.001Z</time></trkpt><trkpt lat="43.67793814245868" lon="11.988644363859454"><ele>654.0</ele><time>2026-05-04T13:00:25.001Z</time></trkpt><trkpt lat="43.67800495020388" lon="11.988695981242625"><ele>655.5</ele><time>2026-05-04T13:00:26.001Z</time></trkpt><trkpt lat="43.678078302311825" lon="11.988751658690905"><ele>657.0</ele><time>2026-05-04T13:00:27.001Z</time></trkpt><trkpt lat="43.67815444401311" lon="11.988795913335759"><ele>657.0</ele><time>2026-05-04T13:00:28.001Z</time></trkpt><trkpt lat="43.67822558512937" lon="11.988820921228001"><ele>657.0</ele><time>2026-05-04T13:00:29.001Z</time></trkpt><trkpt lat="43.678289883818984" lon="11.988847125252427"><ele>657.0</ele><time>2026-05-04T13:00:30.001Z</time></trkpt><trkpt lat="43.67835327708301" lon="11.988876634787657"><ele>657.0</ele><time>2026-05-04T13:00:31.001Z</time></trkpt><trkpt lat="43.678469876869514" lon="11.988881851239501"><ele>657.0</ele><time>2026-05-04T13:00:33.001Z</time></trkpt><trkpt lat="43.678575670451195" lon="11.988790293253876"><ele>657.0</ele><time>2026-05-04T13:00:35.001Z</time></trkpt><trkpt lat="43.678642173823135" lon="11.988747780943786"><ele>658.4000000000001</ele><time>2026-05-04T13:00:36.001Z</time></trkpt><trkpt lat="43.67872277318845" lon="11.988713956559648"><ele>659.8000000000001</ele><time>2026-05-04T13:00:37.001Z</time></trkpt><trkpt lat="43.6788110726978" lon="11.988685610012137"><ele>661.2</ele><time>2026-05-04T13:00:38.001Z</time></trkpt><trkpt lat="43.6789066601116" lon="11.988649280841406"><ele>662.6</ele><time>2026-05-04T13:00:39.001Z</time></trkpt><trkpt lat="43.678988221077" lon="11.98861519532629"><ele>664.0</ele><time>2026-05-04T13:00:40.001Z</time></trkpt><trkpt lat="43.67907323217014" lon="11.988566006623017"><ele>664.0</ele><time>2026-05-04T13:00:41.001Z</time></trkpt><trkpt lat="43.67915302798369" lon="11.988502926886659"><ele>664.0</ele><time>2026-05-04T13:00:42.001Z</time></trkpt><trkpt lat="43.67922884776166" lon="11.988438089398036"><ele>664.0</ele><time>2026-05-04T13:00:43.001Z</time></trkpt><trkpt lat="43.67929649870644" lon="11.988374064017087"><ele>664.0</ele><time>2026-05-04T13:00:44.001Z</time></trkpt><trkpt lat="43.67935276245198" lon="11.988299869016227"><ele>664.0</ele><time>2026-05-04T13:00:45.001Z</time></trkpt><trkpt lat="43.67939250131212" lon="11.988226934830596"><ele>664.0</ele><time>2026-05-04T13:00:46.001Z</time></trkpt><trkpt lat="43.679430104184114" lon="11.988141024947602"><ele>661.5</ele><time>2026-05-04T13:00:47.001Z</time></trkpt><trkpt lat="43.67945879995267" lon="11.988058463067189"><ele>659.0</ele><time>2026-05-04T13:00:48.001Z</time></trkpt><trkpt lat="43.679488089784904" lon="11.987973049276617"><ele>656.5</ele><time>2026-05-04T13:00:49.001Z</time></trkpt><trkpt lat="43.6795245983406" lon="11.987884632772762"><ele>654.0</ele><time>2026-05-04T13:00:50.001Z</time></trkpt><trkpt lat="43.67956086367705" lon="11.987804454538335"><ele>651.5</ele><time>2026-05-04T13:00:51.001Z</time></trkpt><trkpt lat="43.67962448848749" lon="11.98765283270062"><ele>649.0</ele><time>2026-05-04T13:00:53.001Z</time></trkpt><trkpt lat="43.67965907277625" lon="11.987564574271206"><ele>647.5</ele><time>2026-05-04T13:00:54.001Z</time></trkpt><trkpt lat="43.67971085641029" lon="11.987435826841525"><ele>646.0</ele><time>2026-05-04T13:00:56.001Z</time></trkpt><trkpt lat="43.679753108138144" lon="11.98731517802355"><ele>644.5</ele><time>2026-05-04T13:00:58.001Z</time></trkpt><trkpt lat="43.67980956274473" lon="11.98718967706415"><ele>643.0</ele><time>2026-05-04T13:01:00.001Z</time></trkpt><trkpt lat="43.67983729281191" lon="11.987097489502577"><ele>641.5</ele><time>2026-05-04T13:01:02.001Z</time></trkpt><trkpt lat="43.6798341730757" lon="11.98701028296273"><ele>640.0</ele><time>2026-05-04T13:01:05.002Z</time></trkpt><trkpt lat="43.67978604869738" lon="11.986927380036581"><ele>640.0</ele><time>2026-05-04T13:01:08.002Z</time></trkpt><trkpt lat="43.679696609384386" lon="11.986882525582496"><ele>640.0</ele><time>2026-05-04T13:01:10.002Z</time></trkpt><trkpt lat="43.679636989108" lon="11.986848127432047"><ele>640.0</ele><time>2026-05-04T13:01:11.002Z</time></trkpt><trkpt lat="43.679515452913215" lon="11.986762058125084"><ele>640.0</ele><time>2026-05-04T13:01:13.002Z</time></trkpt><trkpt lat="43.67943022862731" lon="11.986715192011625"><ele>640.0</ele><time>2026-05-04T13:01:14.002Z</time></trkpt><trkpt lat="43.67934867408066" lon="11.98667144733388"><ele>639.25</ele><time>2026-05-04T13:01:15.002Z</time></trkpt><trkpt lat="43.67927349199569" lon="11.986632951289721"><ele>638.5</ele><time>2026-05-04T13:01:16.002Z</time></trkpt><trkpt lat="43.67915319586037" lon="11.986581425479994"><ele>637.75</ele><time>2026-05-04T13:01:18.002Z</time></trkpt><trkpt lat="43.679035672256624" lon="11.986623877840843"><ele>637.0</ele><time>2026-05-04T13:01:20.002Z</time></trkpt><trkpt lat="43.67894742423453" lon="11.986743931502875"><ele>636.7142857142857</ele><time>2026-05-04T13:01:22.002Z</time></trkpt><trkpt lat="43.67890628991042" lon="11.986811650104903"><ele>636.4285714285714</ele><time>2026-05-04T13:01:23.001Z</time></trkpt><trkpt lat="43.67885907721787" lon="11.986881139805108"><ele>636.1428571428571</ele><time>2026-05-04T13:01:24.001Z</time></trkpt><trkpt lat="43.678794321458355" lon="11.98694313562901"><ele>635.8571428571429</ele><time>2026-05-04T13:01:25.001Z</time></trkpt><trkpt lat="43.67872679628025" lon="11.986972257307347"><ele>635.5714285714286</ele><time>2026-05-04T13:01:26.001Z</time></trkpt><trkpt lat="43.678645019098106" lon="11.986984070820471"><ele>635.2857142857142</ele><time>2026-05-04T13:01:27.001Z</time></trkpt><trkpt lat="43.67857088910916" lon="11.986965192301948"><ele>635.0</ele><time>2026-05-04T13:01:28.001Z</time></trkpt><trkpt lat="43.67850669882212" lon="11.98693549076475"><ele>634.6</ele><time>2026-05-04T13:01:29.001Z</time></trkpt><trkpt lat="43.678434842191336" lon="11.98685559270887"><ele>634.2</ele><time>2026-05-04T13:01:31.001Z</time></trkpt><trkpt lat="43.67842288538445" lon="11.986709323266753"><ele>633.8</ele><time>2026-05-04T13:01:33.001Z</time></trkpt><trkpt lat="43.678489557797135" lon="11.986552306091857"><ele>633.4</ele><time>2026-05-04T13:01:35.001Z</time></trkpt><trkpt lat="43.67854255246269" lon="11.986471303610218"><ele>633.0</ele><time>2026-05-04T13:01:36.001Z</time></trkpt><trkpt lat="43.67858846146024" lon="11.986386921176925"><ele>633.8</ele><time>2026-05-04T13:01:37.001Z</time></trkpt><trkpt lat="43.67861899866493" lon="11.986307064400517"><ele>634.5999999999999</ele><time>2026-05-04T13:01:38.001Z</time></trkpt><trkpt lat="43.67862184131378" lon="11.986164250574511"><ele>635.4000000000001</ele><time>2026-05-04T13:01:40.001Z</time></trkpt><trkpt lat="43.67855281920347" lon="11.986117736342175"><ele>636.2</ele><time>2026-05-04T13:01:42.001Z</time></trkpt><trkpt lat="43.678449113192784" lon="11.986155850201204"><ele>637.0</ele><time>2026-05-04T13:01:44.001Z</time></trkpt><trkpt lat="43.6783281349063" lon="11.986167677759918"><ele>638.3333333333334</ele><time>2026-05-04T13:01:46.001Z</time></trkpt><trkpt lat="43.67826542080575" lon="11.98613918828552"><ele>639.6666666666667</ele><time>2026-05-04T13:01:47.001Z</time></trkpt><trkpt lat="43.6782150352653" lon="11.986070294638516"><ele>641.0</ele><time>2026-05-04T13:01:48.001Z</time></trkpt><trkpt lat="43.678181264090775" lon="11.985978710614543"><ele>642.3333333333334</ele><time>2026-05-04T13:01:49.001Z</time></trkpt><trkpt lat="43.67816662813555" lon="11.985887566589296"><ele>643.6666666666666</ele><time>2026-05-04T13:01:50.001Z</time></trkpt><trkpt lat="43.6782045362469" lon="11.985762084297429"><ele>645.0</ele><time>2026-05-04T13:01:52.001Z</time></trkpt><trkpt lat="43.678249156103284" lon="11.985643935690316"><ele>647.6</ele><time>2026-05-04T13:01:54.001Z</time></trkpt><trkpt lat="43.678252451865134" lon="11.985513772795798"><ele>650.2</ele><time>2026-05-04T13:01:56.001Z</time></trkpt><trkpt lat="43.678290497365296" lon="11.985359291825475"><ele>652.8</ele><time>2026-05-04T13:01:58.001Z</time></trkpt><trkpt lat="43.67829866381331" lon="11.985270361278074"><ele>655.4</ele><time>2026-05-04T13:01:59.001Z</time></trkpt><trkpt lat="43.67828409376467" lon="11.985124297187477"><ele>658.0</ele><time>2026-05-04T13:02:01.001Z</time></trkpt><trkpt lat="43.67828247291948" lon="11.98497026619683"><ele>660.1666666666667</ele><time>2026-05-04T13:02:03.001Z</time></trkpt><trkpt lat="43.678309404213586" lon="11.984825070019177"><ele>662.3333333333334</ele><time>2026-05-04T13:02:05.001Z</time></trkpt><trkpt lat="43.67832148611319" lon="11.98473790311807"><ele>664.5</ele><time>2026-05-04T13:02:06.001Z</time></trkpt><trkpt lat="43.67834166820952" lon="11.984647690326222"><ele>666.6666666666666</ele><time>2026-05-04T13:02:07.001Z</time></trkpt><trkpt lat="43.6783563415017" lon="11.984556526258473"><ele>668.8333333333333</ele><time>2026-05-04T13:02:08.001Z</time></trkpt><trkpt lat="43.678369606357386" lon="11.984397526340759"><ele>671.0</ele><time>2026-05-04T13:02:10.001Z</time></trkpt><trkpt lat="43.67835366688147" lon="11.98427848276135"><ele>671.0</ele><time>2026-05-04T13:02:12.001Z</time></trkpt><trkpt lat="43.678250927234146" lon="11.984260750412933"><ele>671.0</ele><time>2026-05-04T13:02:15.001Z</time></trkpt><trkpt lat="43.67818384817216" lon="11.984263805293315"><ele>671.0</ele><time>2026-05-04T13:02:16.001Z</time></trkpt><trkpt lat="43.678097974497405" lon="11.984195789511334"><ele>671.0</ele><time>2026-05-04T13:02:18.001Z</time></trkpt><trkpt lat="43.67801311840658" lon="11.984076378289705"><ele>671.0</ele><time>2026-05-04T13:02:20.001Z</time></trkpt><trkpt lat="43.677952864630065" lon="11.984027913839135"><ele>673.0</ele><time>2026-05-04T13:02:21.001Z</time></trkpt><trkpt lat="43.67785777346092" lon="11.983977520198845"><ele>675.0</ele><time>2026-05-04T13:02:22.001Z</time></trkpt><trkpt lat="43.67776494923035" lon="11.983922198751118"><ele>677.0</ele><time>2026-05-04T13:02:23.001Z</time></trkpt><trkpt lat="43.67769620738741" lon="11.983870903510446"><ele>679.0</ele><time>2026-05-04T13:02:24.001Z</time></trkpt><trkpt lat="43.67762983718007" lon="11.983787459815936"><ele>681.0</ele><time>2026-05-04T13:02:26.001Z</time></trkpt><trkpt lat="43.677606800277395" lon="11.983695792485713"><ele>683.0</ele><time>2026-05-04T13:02:43.001Z</time></trkpt><trkpt lat="43.677641109815376" lon="11.983796815462826"><ele>683.0</ele><time>2026-05-04T13:03:00.001Z</time></trkpt><trkpt lat="43.677715147234494" lon="11.983852767699176"><ele>683.0</ele><time>2026-05-04T13:03:02.001Z</time></trkpt><trkpt lat="43.677772631489304" lon="11.983904765667193"><ele>683.0</ele><time>2026-05-04T13:03:04.001Z</time></trkpt><trkpt lat="43.67784794310865" lon="11.983961092697326"><ele>683.0</ele><time>2026-05-04T13:03:07.001Z</time></trkpt><trkpt lat="43.67790935549257" lon="11.984015105446598"><ele>683.0</ele><time>2026-05-04T13:03:09.001Z</time></trkpt><trkpt lat="43.67797263038823" lon="11.984053437006983"><ele>683.0</ele><time>2026-05-04T13:03:12.002Z</time></trkpt><trkpt lat="43.67802940777778" lon="11.984093723502946"><ele>683.0</ele><time>2026-05-04T13:03:14.002Z</time></trkpt><trkpt lat="43.678096163635566" lon="11.984187997308315"><ele>683.5</ele><time>2026-05-04T13:03:17.002Z</time></trkpt><trkpt lat="43.678152399274474" lon="11.984239602754531"><ele>684.0</ele><time>2026-05-04T13:03:19.002Z</time></trkpt><trkpt lat="43.678246697454036" lon="11.984268810121453"><ele>684.5</ele><time>2026-05-04T13:03:22.002Z</time></trkpt><trkpt lat="43.67832920431405" lon="11.984256947629516"><ele>685.0</ele><time>2026-05-04T13:03:36.001Z</time></trkpt><trkpt lat="43.67839763338897" lon="11.984225367131412"><ele>685.5</ele><time>2026-05-04T13:03:39.001Z</time></trkpt><trkpt lat="43.67845201133464" lon="11.984141275068732"><ele>686.0</ele><time>2026-05-04T13:03:42.001Z</time></trkpt><trkpt lat="43.678542412998745" lon="11.984094567869027"><ele>684.6666666666666</ele><time>2026-05-04T13:03:45.001Z</time></trkpt><trkpt lat="43.67860128612906" lon="11.984062190272141"><ele>683.3333333333333</ele><time>2026-05-04T13:03:47.001Z</time></trkpt><trkpt lat="43.67866769213015" lon="11.984014276419925"><ele>682.0</ele><time>2026-05-04T13:03:50.001Z</time></trkpt><trkpt lat="43.678717420832115" lon="11.983943773412179"><ele>680.6666666666666</ele><time>2026-05-04T13:03:52.001Z</time></trkpt><trkpt lat="43.6787737952967" lon="11.983892822049931"><ele>679.3333333333334</ele><time>2026-05-04T13:03:54.001Z</time></trkpt><trkpt lat="43.67886558652805" lon="11.98386404882021"><ele>678.0</ele><time>2026-05-04T13:03:56.001Z</time></trkpt><trkpt lat="43.67893726237591" lon="11.983779939193138"><ele>678.0</ele><time>2026-05-04T13:03:59.001Z</time></trkpt><trkpt lat="43.678995601956" lon="11.983678924194402"><ele>678.0</ele><time>2026-05-04T13:04:01.001Z</time></trkpt><trkpt lat="43.67906037365324" lon="11.98363743348745"><ele>678.0</ele><time>2026-05-04T13:04:03.001Z</time></trkpt><trkpt lat="43.679133227909105" lon="11.983654809368296"><ele>678.0</ele><time>2026-05-04T13:04:06.001Z</time></trkpt><trkpt lat="43.67921108404418" lon="11.983616291963097"><ele>678.0</ele><time>2026-05-04T13:04:08.001Z</time></trkpt><trkpt lat="43.679308900605164" lon="11.983571597204298"><ele>678.0</ele><time>2026-05-04T13:04:10.001Z</time></trkpt><trkpt lat="43.67940438398487" lon="11.983496979653834"><ele>676.3333333333334</ele><time>2026-05-04T13:04:12.001Z</time></trkpt><trkpt lat="43.679469837856686" lon="11.983421656942232"><ele>674.6666666666666</ele><time>2026-05-04T13:04:14.001Z</time></trkpt><trkpt lat="43.67955656361823" lon="11.983333195396018"><ele>673.0</ele><time>2026-05-04T13:04:16.001Z</time></trkpt><trkpt lat="43.67962056435876" lon="11.983258410596266"><ele>671.3333333333333</ele><time>2026-05-04T13:04:18.001Z</time></trkpt><trkpt lat="43.6796791091564" lon="11.9831868924714"><ele>669.6666666666666</ele><time>2026-05-04T13:04:20.001Z</time></trkpt><trkpt lat="43.67975411485822" lon="11.983138591839232"><ele>668.0</ele><time>2026-05-04T13:04:22.001Z</time></trkpt><trkpt lat="43.67983369306203" lon="11.98310289658594"><ele>673.8333333333333</ele><time>2026-05-04T13:04:24.001Z</time></trkpt><trkpt lat="43.67990202164694" lon="11.98303545345185"><ele>679.6666666666666</ele><time>2026-05-04T13:04:28.001Z</time></trkpt><trkpt lat="43.679975142633886" lon="11.982969862707497"><ele>685.5</ele><time>2026-05-04T13:04:52.001Z</time></trkpt><trkpt lat="43.68001560502436" lon="11.982892292104504"><ele>691.3333333333334</ele><time>2026-05-04T13:04:56.001Z</time></trkpt><trkpt lat="43.68007003027018" lon="11.982792287226841"><ele>697.1666666666667</ele><time>2026-05-04T13:05:03.001Z</time></trkpt><trkpt lat="43.68012327181458" lon="11.98273401747725"><ele>703.0</ele><time>2026-05-04T13:05:05.001Z</time></trkpt><trkpt lat="43.68017404498987" lon="11.982663110773723"><ele>703.0</ele><time>2026-05-04T13:05:09.001Z</time></trkpt><trkpt lat="43.68021794855694" lon="11.98259544678086"><ele>703.0</ele><time>2026-05-04T13:05:11.001Z</time></trkpt><trkpt lat="43.68029501413521" lon="11.982506817805923"><ele>703.0</ele><time>2026-05-04T13:05:14.001Z</time></trkpt><trkpt lat="43.68035117984055" lon="11.982448419745564"><ele>703.0</ele><time>2026-05-04T13:06:31.001Z</time></trkpt><trkpt lat="43.68037054999504" lon="11.982364223843922"><ele>703.0</ele><time>2026-05-04T13:06:36.001Z</time></trkpt><trkpt lat="43.68039732911007" lon="11.982281714194894"><ele>703.0</ele><time>2026-05-04T13:06:40.001Z</time></trkpt><trkpt lat="43.680442897710726" lon="11.982202496134411"><ele>703.0</ele><time>2026-05-04T13:06:43.001Z</time></trkpt><trkpt lat="43.68048563474688" lon="11.982130891233586"><ele>704.2857142857142</ele><time>2026-05-04T13:06:46.001Z</time></trkpt><trkpt lat="43.68055073073262" lon="11.982065922630836"><ele>705.5714285714286</ele><time>2026-05-04T13:06:50.001Z</time></trkpt><trkpt lat="43.68060211157015" lon="11.981983699755041"><ele>706.8571428571429</ele><time>2026-05-04T13:07:14.001Z</time></trkpt><trkpt lat="43.68062868017707" lon="11.981901637084064"><ele>708.1428571428571</ele><time>2026-05-04T13:07:16.001Z</time></trkpt><trkpt lat="43.68063341083393" lon="11.981803488916714"><ele>709.4285714285714</ele><time>2026-05-04T13:07:56.001Z</time></trkpt><trkpt lat="43.68055656789612" lon="11.98176528081423"><ele>710.7142857142857</ele><time>2026-05-04T13:08:00.001Z</time></trkpt><trkpt lat="43.680497977544" lon="11.981712795053252"><ele>712.0</ele><time>2026-05-04T13:08:02.001Z</time></trkpt><trkpt lat="43.68043378951634" lon="11.98169322943796"><ele>717.8333333333334</ele><time>2026-05-04T13:08:05.001Z</time></trkpt><trkpt lat="43.68040511874323" lon="11.981590358933202"><ele>723.6666666666667</ele><time>2026-05-04T13:08:08.001Z</time></trkpt><trkpt lat="43.68045864759295" lon="11.98151103222717"><ele>729.5</ele><time>2026-05-04T13:08:10.001Z</time></trkpt><trkpt lat="43.680492233288945" lon="11.981420153563521"><ele>735.3333333333334</ele><time>2026-05-04T13:08:12.001Z</time></trkpt><trkpt lat="43.68053841920763" lon="11.981318024463503"><ele>741.1666666666666</ele><time>2026-05-04T13:08:14.001Z</time></trkpt><trkpt lat="43.68056564688458" lon="11.981218559509873"><ele>747.0</ele><time>2026-05-04T13:08:16.001Z</time></trkpt><trkpt lat="43.68060178680148" lon="11.981137169601494"><ele>747.0</ele><time>2026-05-04T13:08:18.001Z</time></trkpt><trkpt lat="43.68066445522455" lon="11.981068704490273"><ele>747.0</ele><time>2026-05-04T13:08:20.001Z</time></trkpt><trkpt lat="43.68071686987979" lon="11.981003106134745"><ele>747.0</ele><time>2026-05-04T13:08:22.001Z</time></trkpt><trkpt lat="43.68076595204072" lon="11.980919038064197"><ele>747.0</ele><time>2026-05-04T13:08:24.001Z</time></trkpt><trkpt lat="43.680822026154324" lon="11.980838873901106"><ele>747.0</ele><time>2026-05-04T13:08:27.001Z</time></trkpt><trkpt lat="43.680855337399294" lon="11.980754853365037"><ele>747.0</ele><time>2026-05-04T13:08:29.001Z</time></trkpt><trkpt lat="43.680915405288424" lon="11.980619483072529"><ele>749.0</ele><time>2026-05-04T13:08:32.001Z</time></trkpt><trkpt lat="43.68098323601681" lon="11.980473410114705"><ele>751.0</ele><time>2026-05-04T13:08:34.001Z</time></trkpt><trkpt lat="43.681026174625025" lon="11.980389219201397"><ele>753.0</ele><time>2026-05-04T13:08:36.001Z</time></trkpt><trkpt lat="43.681073610399565" lon="11.98030114653138"><ele>755.0</ele><time>2026-05-04T13:08:38.001Z</time></trkpt><trkpt lat="43.68112289436408" lon="11.980213942517262"><ele>757.0</ele><time>2026-05-04T13:08:40.001Z</time></trkpt><trkpt lat="43.681196177001915" lon="11.980134884489086"><ele>757.0</ele><time>2026-05-04T13:08:42.001Z</time></trkpt><trkpt lat="43.681282623638744" lon="11.980059708214265"><ele>757.0</ele><time>2026-05-04T13:08:44.001Z</time></trkpt><trkpt lat="43.681344928093246" lon="11.97999098605233"><ele>757.0</ele><time>2026-05-04T13:08:46.001Z</time></trkpt><trkpt lat="43.681403998601574" lon="11.979921041658088"><ele>757.0</ele><time>2026-05-04T13:11:15.001Z</time></trkpt><trkpt lat="43.681488558439426" lon="11.979843930273669"><ele>757.0</ele><time>2026-05-04T13:11:17.001Z</time></trkpt><trkpt lat="43.68158150861105" lon="11.979771239397195"><ele>762.5</ele><time>2026-05-04T13:11:19.001Z</time></trkpt><trkpt lat="43.681647242469396" lon="11.97971844767066"><ele>768.0</ele><time>2026-05-04T13:11:21.001Z</time></trkpt><trkpt lat="43.681712401007964" lon="11.979698574076941"><ele>773.5</ele><time>2026-05-04T13:11:23.001Z</time></trkpt><trkpt lat="43.68182193642168" lon="11.979622429701688"><ele>779.0</ele><time>2026-05-04T13:11:25.001Z</time></trkpt><trkpt lat="43.68188914926593" lon="11.979591703346948"><ele>784.4999999999999</ele><time>2026-05-04T13:11:26.001Z</time></trkpt><trkpt lat="43.68197036908872" lon="11.97955745350102"><ele>790.0</ele><time>2026-05-04T13:11:28.001Z</time></trkpt><trkpt lat="43.682070349960796" lon="11.979538166848139"><ele>789.9999999999999</ele><time>2026-05-04T13:11:30.001Z</time></trkpt><trkpt lat="43.682157077281076" lon="11.97950653507665"><ele>790.0</ele><time>2026-05-04T13:11:32.001Z</time></trkpt><trkpt lat="43.68224078802715" lon="11.979459489450766"><ele>790.0</ele><time>2026-05-04T13:11:34.001Z</time></trkpt><trkpt lat="43.68229690967031" lon="11.979393315930084"><ele>790.0</ele><time>2026-05-04T13:11:36.001Z</time></trkpt><trkpt lat="43.68234556480436" lon="11.979325307095179"><ele>789.9999999999999</ele><time>2026-05-04T13:11:39.001Z</time></trkpt><trkpt lat="43.68236347367798" lon="11.97923307880573"><ele>790.0</ele><time>2026-05-04T13:11:42.001Z</time></trkpt><trkpt lat="43.68242305933809" lon="11.979138225313031"><ele>795.1666666666666</ele><time>2026-05-04T13:11:50.001Z</time></trkpt><trkpt lat="43.68246967218975" lon="11.979056088536906"><ele>800.3333333333333</ele><time>2026-05-04T13:11:53.002Z</time></trkpt><trkpt lat="43.68254247929155" lon="11.979060756156247"><ele>805.5</ele><time>2026-05-04T13:11:56.002Z</time></trkpt><trkpt lat="43.6826129858733" lon="11.979052849017252"><ele>810.6666666666667</ele><time>2026-05-04T13:11:59.002Z</time></trkpt><trkpt lat="43.682678211137116" lon="11.97898492330576"><ele>815.8333333333334</ele><time>2026-05-04T13:12:02.001Z</time></trkpt><trkpt lat="43.68271609904396" lon="11.978885867805136"><ele>821.0</ele><time>2026-05-04T13:12:04.001Z</time></trkpt><trkpt lat="43.68274491770705" lon="11.978795601604403"><ele>819.8333333333334</ele><time>2026-05-04T13:12:06.001Z</time></trkpt><trkpt lat="43.68277390734982" lon="11.978670805402334"><ele>818.6666666666667</ele><time>2026-05-04T13:12:08.001Z</time></trkpt><trkpt lat="43.682795258326614" lon="11.978571227566176"><ele>817.5</ele><time>2026-05-04T13:12:11.001Z</time></trkpt><trkpt lat="43.68284298734219" lon="11.978460021084512"><ele>816.3333333333333</ele><time>2026-05-04T13:15:00.001Z</time></trkpt><trkpt lat="43.68289296912366" lon="11.978358181038153"><ele>815.1666666666666</ele><time>2026-05-04T13:15:02.001Z</time></trkpt><trkpt lat="43.68290912716219" lon="11.978231702832005"><ele>814.0</ele><time>2026-05-04T13:15:04.001Z</time></trkpt><trkpt lat="43.682947294928276" lon="11.978107316052478"><ele>813.9999999999999</ele><time>2026-05-04T13:15:06.001Z</time></trkpt><trkpt lat="43.682999139139504" lon="11.978004934367055"><ele>814.0</ele><time>2026-05-04T13:15:08.001Z</time></trkpt><trkpt lat="43.68305489869981" lon="11.977917193585805"><ele>814.0</ele><time>2026-05-04T13:15:10.001Z</time></trkpt><trkpt lat="43.6831111912263" lon="11.97781747465247"><ele>814.0</ele><time>2026-05-04T13:15:13.001Z</time></trkpt><trkpt lat="43.683155962285944" lon="11.97773609937526"><ele>813.9999999999999</ele><time>2026-05-04T13:15:15.001Z</time></trkpt><trkpt lat="43.68319712470331" lon="11.977645067365536"><ele>814.0</ele><time>2026-05-04T13:15:17.001Z</time></trkpt><trkpt lat="43.68326132027322" lon="11.977538701016819"><ele>813.6666666666666</ele><time>2026-05-04T13:15:19.001Z</time></trkpt><trkpt lat="43.68331893450745" lon="11.97744744557276"><ele>813.3333333333333</ele><time>2026-05-04T13:15:21.001Z</time></trkpt><trkpt lat="43.6833814562401" lon="11.977385878743457"><ele>813.0</ele><time>2026-05-04T13:15:45.001Z</time></trkpt><trkpt lat="43.6834608173323" lon="11.977301521151723"><ele>812.6666666666667</ele><time>2026-05-04T13:15:48.001Z</time></trkpt><trkpt lat="43.68352500124051" lon="11.977260133997063"><ele>812.3333333333334</ele><time>2026-05-04T13:15:50.001Z</time></trkpt><trkpt lat="43.68359905540287" lon="11.977224641332697"><ele>812.0</ele><time>2026-05-04T13:15:54.001Z</time></trkpt><trkpt lat="43.68367550777506" lon="11.977187137320254"><ele>812.0000000000001</ele><time>2026-05-04T13:15:56.001Z</time></trkpt><trkpt lat="43.68375265478365" lon="11.977147745005349"><ele>812.0</ele><time>2026-05-04T13:15:58.001Z</time></trkpt><trkpt lat="43.683820315678346" lon="11.977063467972972"><ele>812.0</ele><time>2026-05-04T13:16:00.001Z</time></trkpt><trkpt lat="43.68387142953658" lon="11.97697876773765"><ele>812.0</ele><time>2026-05-04T13:16:03.001Z</time></trkpt><trkpt lat="43.68393570549723" lon="11.976956325403838"><ele>812.0000000000001</ele><time>2026-05-04T13:16:07.001Z</time></trkpt><trkpt lat="43.68400267681922" lon="11.976940212195348"><ele>812.0</ele><time>2026-05-04T13:16:10.001Z</time></trkpt><trkpt lat="43.684044241418675" lon="11.976868630053465"><ele>812.0000000000001</ele><time>2026-05-04T13:16:57.001Z</time></trkpt><trkpt lat="43.68403838998605" lon="11.976779505394378"><ele>812.0</ele><time>2026-05-04T13:17:00.001Z</time></trkpt><trkpt lat="43.684040250108815" lon="11.976657528466864"><ele>812.0</ele><time>2026-05-04T13:17:03.001Z</time></trkpt><trkpt lat="43.684064542920986" lon="11.976539001345198"><ele>812.0</ele><time>2026-05-04T13:17:06.001Z</time></trkpt><trkpt lat="43.68407079101231" lon="11.976441638119123"><ele>812.0000000000001</ele><time>2026-05-04T13:17:09.001Z</time></trkpt><trkpt lat="43.68413472268823" lon="11.976412239148196"><ele>812.0</ele><time>2026-05-04T13:17:16.001Z</time></trkpt><trkpt lat="43.68419883996004" lon="11.976464219113222"><ele>810.6666666666667</ele><time>2026-05-04T13:17:21.001Z</time></trkpt><trkpt lat="43.68424844227913" lon="11.976523089970527"><ele>809.3333333333334</ele><time>2026-05-04T13:17:29.001Z</time></trkpt><trkpt lat="43.68431276155186" lon="11.976527694370825"><ele>808.0</ele><time>2026-05-04T13:17:38.001Z</time></trkpt><trkpt lat="43.684362098132745" lon="11.976450201380292"><ele>806.6666666666667</ele><time>2026-05-04T13:17:48.001Z</time></trkpt><trkpt lat="43.68442485805375" lon="11.976357819403816"><ele>805.3333333333334</ele><time>2026-05-04T13:17:51.001Z</time></trkpt><trkpt lat="43.6845109419648" lon="11.97632301503914"><ele>804.0</ele><time>2026-05-04T13:17:54.001Z</time></trkpt><trkpt lat="43.68457884870498" lon="11.976334641850004"><ele>804.0</ele><time>2026-05-04T13:17:57.001Z</time></trkpt><trkpt lat="43.684650810435556" lon="11.976323386400066"><ele>804.0</ele><time>2026-05-04T13:18:00.001Z</time></trkpt><trkpt lat="43.68474407686747" lon="11.976315353576357"><ele>804.0</ele><time>2026-05-04T13:18:12Z</time></trkpt><trkpt lat="43.684801665952016" lon="11.976274840027642"><ele>804.0</ele><time>2026-05-04T13:18:14Z</time></trkpt><trkpt lat="43.684856100617445" lon="11.9762239466609"><ele>804.0</ele><time>2026-05-04T13:18:16Z</time></trkpt><trkpt lat="43.68491427338294" lon="11.976190072264469"><ele>804.0</ele><time>2026-05-04T13:18:18Z</time></trkpt><trkpt lat="43.68487822183528" lon="11.976265218287686"><ele>804.0</ele><time>2026-05-04T13:18:38Z</time></trkpt><trkpt lat="43.68487828199909" lon="11.976375182812971"><ele>804.0</ele><time>2026-05-04T13:18:43Z</time></trkpt><trkpt lat="43.68492814598437" lon="11.97644554610537"><ele>804.0</ele><time>2026-05-04T13:18:46Z</time></trkpt><trkpt lat="43.68498014740721" lon="11.976519952531486"><ele>804.0</ele><time>2026-05-04T13:18:49Z</time></trkpt><trkpt lat="43.68506631060331" lon="11.976498848964843"><ele>804.0</ele><time>2026-05-04T13:18:53Z</time></trkpt><trkpt lat="43.68512863937664" lon="11.976478506113146"><ele>804.0</ele><time>2026-05-04T13:18:55Z</time></trkpt><trkpt lat="43.68519926015902" lon="11.976440368275524"><ele>804.0</ele><time>2026-05-04T13:18:57Z</time></trkpt><trkpt lat="43.6852709491832" lon="11.976401895252877"><ele>801.0</ele><time>2026-05-04T13:18:59Z</time></trkpt><trkpt lat="43.68535371711112" lon="11.976387247827951"><ele>798.0</ele><time>2026-05-04T13:19:01Z</time></trkpt><trkpt lat="43.685429830660276" lon="11.976396631147807"><ele>795.0</ele><time>2026-05-04T13:19:04Z</time></trkpt><trkpt lat="43.68551583808264" lon="11.976460399930037"><ele>792.0</ele><time>2026-05-04T13:19:07Z</time></trkpt><trkpt lat="43.685583825407214" lon="11.976464992801313"><ele>789.0</ele><time>2026-05-04T13:19:10Z</time></trkpt><trkpt lat="43.68564560708367" lon="11.976404616098302"><ele>786.0</ele><time>2026-05-04T13:19:12Z</time></trkpt><trkpt lat="43.68571877317162" lon="11.976331727188102"><ele>786.0</ele><time>2026-05-04T13:19:14Z</time></trkpt><trkpt lat="43.68576606280676" lon="11.976255112876837"><ele>786.0</ele><time>2026-05-04T13:19:16Z</time></trkpt><trkpt lat="43.685822646092255" lon="11.976156304617643"><ele>786.0</ele><time>2026-05-04T13:19:18Z</time></trkpt><trkpt lat="43.685884970436135" lon="11.976092242881617"><ele>786.0</ele><time>2026-05-04T13:19:20Z</time></trkpt><trkpt lat="43.6859305068954" lon="11.975994748005428"><ele>786.0</ele><time>2026-05-04T13:19:30Z</time></trkpt><trkpt lat="43.685955090481706" lon="11.975909323665917"><ele>786.0</ele><time>2026-05-04T13:19:31Z</time></trkpt><trkpt lat="43.68598172270244" lon="11.97582180996678"><ele>786.0</ele><time>2026-05-04T13:19:32Z</time></trkpt><trkpt lat="43.68601069287076" lon="11.975720455443314"><ele>786.0</ele><time>2026-05-04T13:19:33Z</time></trkpt><trkpt lat="43.6860463369459" lon="11.975626832731749"><ele>786.0</ele><time>2026-05-04T13:19:34Z</time></trkpt><trkpt lat="43.686084827859155" lon="11.975517714188266"><ele>786.0</ele><time>2026-05-04T13:19:36Z</time></trkpt><trkpt lat="43.686141137234856" lon="11.975373143975673"><ele>786.0</ele><time>2026-05-04T13:19:38Z</time></trkpt><trkpt lat="43.686189856454654" lon="11.9752434521854"><ele>786.0</ele><time>2026-05-04T13:19:40Z</time></trkpt><trkpt lat="43.686232021346854" lon="11.975148879999558"><ele>786.0</ele><time>2026-05-04T13:19:42Z</time></trkpt><trkpt lat="43.68628598468965" lon="11.97498663290968"><ele>786.0</ele><time>2026-05-04T13:19:44Z</time></trkpt><trkpt lat="43.686299721625964" lon="11.97484637721663"><ele>786.0</ele><time>2026-05-04T13:19:46Z</time></trkpt><trkpt lat="43.686252858471065" lon="11.974743325496714"><ele>786.0</ele><time>2026-05-04T13:19:48Z</time></trkpt><trkpt lat="43.68620951790123" lon="11.97465294317854"><ele>788.8</ele><time>2026-05-04T13:19:49Z</time></trkpt><trkpt lat="43.68619450166126" lon="11.974527302796947"><ele>791.5999999999999</ele><time>2026-05-04T13:19:51Z</time></trkpt><trkpt lat="43.68627776653022" lon="11.974496940706688"><ele>794.4</ele><time>2026-05-04T13:19:54Z</time></trkpt><trkpt lat="43.686384808181366" lon="11.974577515035964"><ele>797.2</ele><time>2026-05-04T13:19:56Z</time></trkpt><trkpt lat="43.68648465897861" lon="11.97459623135755"><ele>800.0</ele><time>2026-05-04T13:19:57Z</time></trkpt><trkpt lat="43.686545375277746" lon="11.974623402007932"><ele>800.0000000000001</ele><time>2026-05-04T13:19:58Z</time></trkpt><trkpt lat="43.68660476921615" lon="11.974666514920937"><ele>800.0</ele><time>2026-05-04T13:19:59Z</time></trkpt><trkpt lat="43.6866741870338" lon="11.974696577943407"><ele>800.0</ele><time>2026-05-04T13:20:00Z</time></trkpt><trkpt lat="43.68672954423777" lon="11.974632085770434"><ele>800.0</ele><time>2026-05-04T13:20:02Z</time></trkpt><trkpt lat="43.68683629133092" lon="11.974525614860475"><ele>800.0000000000001</ele><time>2026-05-04T13:20:04Z</time></trkpt><trkpt lat="43.68691828496956" lon="11.97445910091313"><ele>800.0</ele><time>2026-05-04T13:20:05Z</time></trkpt><trkpt lat="43.686991030858266" lon="11.974400430697669"><ele>805.6</ele><time>2026-05-04T13:20:06Z</time></trkpt><trkpt lat="43.68709280082086" lon="11.974437227857932"><ele>811.2</ele><time>2026-05-04T13:20:08Z</time></trkpt><trkpt lat="43.68716031544192" lon="11.97449005744932"><ele>816.8</ele><time>2026-05-04T13:20:09Z</time></trkpt><trkpt lat="43.68724528310845" lon="11.974582335210124"><ele>822.4</ele><time>2026-05-04T13:20:10Z</time></trkpt><trkpt lat="43.687317335314" lon="11.974628416698112"><ele>828.0</ele><time>2026-05-04T13:20:11Z</time></trkpt><trkpt lat="43.68745212332957" lon="11.974628369918532"><ele>828.0</ele><time>2026-05-04T13:20:13Z</time></trkpt><trkpt lat="43.68753907859934" lon="11.974652363803912"><ele>828.0</ele><time>2026-05-04T13:20:14Z</time></trkpt><trkpt lat="43.687607457869234" lon="11.974713471997447"><ele>828.0</ele><time>2026-05-04T13:20:15Z</time></trkpt><trkpt lat="43.68766651783479" lon="11.97479908032706"><ele>828.0</ele><time>2026-05-04T13:20:16Z</time></trkpt><trkpt lat="43.68770393560162" lon="11.974911768128454"><ele>828.0</ele><time>2026-05-04T13:20:16.999Z</time></trkpt><trkpt lat="43.687747964946595" lon="11.975011636238573"><ele>828.0</ele><time>2026-05-04T13:20:17.999Z</time></trkpt><trkpt lat="43.68785379740707" lon="11.975057043310615"><ele>828.2</ele><time>2026-05-04T13:20:19.999Z</time></trkpt><trkpt lat="43.68795654009757" lon="11.975105386259736"><ele>828.4</ele><time>2026-05-04T13:20:20.999Z</time></trkpt><trkpt lat="43.688022600251685" lon="11.975127380816021"><ele>828.6</ele><time>2026-05-04T13:20:21.999Z</time></trkpt><trkpt lat="43.68807203771058" lon="11.975052528399798"><ele>828.8000000000001</ele><time>2026-05-04T13:20:23.999Z</time></trkpt><trkpt lat="43.6880294050864" lon="11.974879689902655"><ele>829.0</ele><time>2026-05-04T13:20:25.999Z</time></trkpt><trkpt lat="43.688001663087896" lon="11.974769786614265"><ele>833.4000000000001</ele><time>2026-05-04T13:20:26.999Z</time></trkpt><trkpt lat="43.687981783877504" lon="11.97468461603086"><ele>837.8</ele><time>2026-05-04T13:20:27.999Z</time></trkpt><trkpt lat="43.68798908425789" lon="11.974591027962296"><ele>842.2</ele><time>2026-05-04T13:20:29.999Z</time></trkpt><trkpt lat="43.68810354856037" lon="11.974564299877425"><ele>846.5999999999999</ele><time>2026-05-04T13:20:31.999Z</time></trkpt><trkpt lat="43.68817323515083" lon="11.974583340017793"><ele>851.0</ele><time>2026-05-04T13:20:32.999Z</time></trkpt><trkpt lat="43.68829363778717" lon="11.974514105261637"><ele>851.0000000000001</ele><time>2026-05-04T13:20:34.999Z</time></trkpt><trkpt lat="43.68838795271555" lon="11.974494092856697"><ele>851.0</ele><time>2026-05-04T13:20:35.999Z</time></trkpt><trkpt lat="43.688470141981846" lon="11.97452680190232"><ele>851.0</ele><time>2026-05-04T13:20:38Z</time></trkpt><trkpt lat="43.68853679145152" lon="11.974606697159304"><ele>851.0</ele><time>2026-05-04T13:20:49Z</time></trkpt><trkpt lat="43.68860466833885" lon="11.974664158212692"><ele>851.0000000000001</ele><time>2026-05-04T13:20:50Z</time></trkpt><trkpt lat="43.68866414806125" lon="11.974719375836026"><ele>851.0</ele><time>2026-05-04T13:20:51Z</time></trkpt><trkpt lat="43.68875059250858" lon="11.97477510483901"><ele>852.4</ele><time>2026-05-04T13:20:53Z</time></trkpt><trkpt lat="43.68886584131889" lon="11.974776805474747"><ele>853.8</ele><time>2026-05-04T13:20:55Z</time></trkpt><trkpt lat="43.68894965313302" lon="11.974797302108389"><ele>855.1999999999999</ele><time>2026-05-04T13:20:56Z</time></trkpt><trkpt lat="43.68903621647724" lon="11.974800993163738"><ele>856.5999999999999</ele><time>2026-05-04T13:20:57Z</time></trkpt><trkpt lat="43.68913364435007" lon="11.9748289347158"><ele>858.0</ele><time>2026-05-04T13:20:59Z</time></trkpt><trkpt lat="43.689231096657835" lon="11.974877067260296"><ele>858.0</ele><time>2026-05-04T13:21:01Z</time></trkpt><trkpt lat="43.68935362968118" lon="11.974896571478586"><ele>858.0</ele><time>2026-05-04T13:21:03Z</time></trkpt><trkpt lat="43.68946685542083" lon="11.97486273882112"><ele>858.0</ele><time>2026-05-04T13:21:05Z</time></trkpt><trkpt lat="43.68952838304882" lon="11.974838190307365"><ele>858.0</ele><time>2026-05-04T13:21:06Z</time></trkpt><trkpt lat="43.68960926812841" lon="11.974773099558542"><ele>858.0</ele><time>2026-05-04T13:21:08Z</time></trkpt><trkpt lat="43.68961126137256" lon="11.97467509215541"><ele>858.0</ele><time>2026-05-04T13:21:11Z</time></trkpt><trkpt lat="43.68952120694972" lon="11.97466017938521"><ele>858.0</ele><time>2026-05-04T13:21:13Z</time></trkpt><trkpt lat="43.689403932056365" lon="11.974650003369423"><ele>858.0</ele><time>2026-05-04T13:21:15Z</time></trkpt><trkpt lat="43.689308386432735" lon="11.974590978816506"><ele>858.0</ele><time>2026-05-04T13:21:17Z</time></trkpt><trkpt lat="43.68923015010379" lon="11.974537821642278"><ele>858.0</ele><time>2026-05-04T13:21:19Z</time></trkpt><trkpt lat="43.6891296869399" lon="11.974454481702761"><ele>858.0</ele><time>2026-05-04T13:21:21Z</time></trkpt><trkpt lat="43.68904598118361" lon="11.974370767311695"><ele>858.0</ele><time>2026-05-04T13:21:23Z</time></trkpt><trkpt lat="43.688958656052" lon="11.974289820154647"><ele>858.0</ele><time>2026-05-04T13:21:25Z</time></trkpt><trkpt lat="43.6889269150422" lon="11.974162529600953"><ele>858.0</ele><time>2026-05-04T13:21:27Z</time></trkpt><trkpt lat="43.68892218491622" lon="11.97401563725024"><ele>858.0</ele><time>2026-05-04T13:21:29Z</time></trkpt><trkpt lat="43.688859353291946" lon="11.97384911585528"><ele>860.8333333333334</ele><time>2026-05-04T13:21:31Z</time></trkpt><trkpt lat="43.68882392416765" lon="11.97372766887746"><ele>863.6666666666667</ele><time>2026-05-04T13:21:34Z</time></trkpt><trkpt lat="43.68878529212835" lon="11.973655603696017"><ele>866.5</ele><time>2026-05-04T13:21:35Z</time></trkpt><trkpt lat="43.68873726553196" lon="11.973565952797454"><ele>869.3333333333334</ele><time>2026-05-04T13:21:36Z</time></trkpt><trkpt lat="43.68869471587365" lon="11.97348657204304"><ele>872.1666666666667</ele><time>2026-05-04T13:21:37Z</time></trkpt><trkpt lat="43.68865209403924" lon="11.973408929602359"><ele>875.0</ele><time>2026-05-04T13:21:38Z</time></trkpt><trkpt lat="43.68861083882053" lon="11.973325190653037"><ele>877.0</ele><time>2026-05-04T13:21:39Z</time></trkpt><trkpt lat="43.68855899216657" lon="11.973227341745115"><ele>879.0</ele><time>2026-05-04T13:21:40Z</time></trkpt><trkpt lat="43.68851192098639" lon="11.973142164526687"><ele>881.0</ele><time>2026-05-04T13:21:41Z</time></trkpt><trkpt lat="43.68845686994474" lon="11.973041110172343"><ele>883.0</ele><time>2026-05-04T13:21:42Z</time></trkpt><trkpt lat="43.68838551944413" lon="11.972929966727607"><ele>885.0</ele><time>2026-05-04T13:21:43Z</time></trkpt><trkpt lat="43.688312585488944" lon="11.972831033084788"><ele>885.0</ele><time>2026-05-04T13:21:44Z</time></trkpt><trkpt lat="43.68824217052883" lon="11.972746105295142"><ele>885.0</ele><time>2026-05-04T13:21:45Z</time></trkpt><trkpt lat="43.68818182613382" lon="11.972673940253355"><ele>885.0</ele><time>2026-05-04T13:21:46Z</time></trkpt><trkpt lat="43.688116324425664" lon="11.972599536746431"><ele>885.0</ele><time>2026-05-04T13:21:47Z</time></trkpt><trkpt lat="43.68806344480019" lon="11.972536999663417"><ele>885.0</ele><time>2026-05-04T13:21:48Z</time></trkpt><trkpt lat="43.6880158528227" lon="11.972476055369109"><ele>885.0</ele><time>2026-05-04T13:21:50Z</time></trkpt><trkpt lat="43.68809392632853" lon="11.972428718783457"><ele>887.6666666666666</ele><time>2026-05-04T13:21:54Z</time></trkpt><trkpt lat="43.68817939626378" lon="11.972425089142048"><ele>890.3333333333333</ele><time>2026-05-04T13:22:03Z</time></trkpt><trkpt lat="43.68824618075121" lon="11.972409523897257"><ele>893.0</ele><time>2026-05-04T13:22:04Z</time></trkpt><trkpt lat="43.68832716270597" lon="11.972386083559158"><ele>895.6666666666666</ele><time>2026-05-04T13:22:05Z</time></trkpt><trkpt lat="43.688396749227024" lon="11.972387208103664"><ele>898.3333333333333</ele><time>2026-05-04T13:22:06Z</time></trkpt><trkpt lat="43.688473269975276" lon="11.972421558192238"><ele>901.0</ele><time>2026-05-04T13:22:07Z</time></trkpt><trkpt lat="43.6885483160857" lon="11.97246488601061"><ele>900.5999999999999</ele><time>2026-05-04T13:22:08Z</time></trkpt><trkpt lat="43.6886182380101" lon="11.97247882598492"><ele>900.1999999999999</ele><time>2026-05-04T13:22:09Z</time></trkpt><trkpt lat="43.6887023032419" lon="11.972475957257823"><ele>899.8000000000001</ele><time>2026-05-04T13:22:10Z</time></trkpt><trkpt lat="43.68880532298959" lon="11.972446585655035"><ele>899.4000000000001</ele><time>2026-05-04T13:22:12Z</time></trkpt><trkpt lat="43.688879683283815" lon="11.972395775607751"><ele>899.0</ele><time>2026-05-04T13:22:13Z</time></trkpt><trkpt lat="43.68895154920838" lon="11.972280417755313"><ele>899.0</ele><time>2026-05-04T13:22:15Z</time></trkpt><trkpt lat="43.6889864871116" lon="11.97219321280309"><ele>899.0000000000001</ele><time>2026-05-04T13:22:16Z</time></trkpt><trkpt lat="43.68902367757647" lon="11.972102900249297"><ele>899.0000000000001</ele><time>2026-05-04T13:22:17Z</time></trkpt><trkpt lat="43.68905946739694" lon="11.971977076148438"><ele>899.0</ele><time>2026-05-04T13:22:18Z</time></trkpt><trkpt lat="43.68911010748498" lon="11.971841213757942"><ele>899.0</ele><time>2026-05-04T13:22:19Z</time></trkpt><trkpt lat="43.68916145918421" lon="11.971716460315033"><ele>899.4000000000001</ele><time>2026-05-04T13:22:20Z</time></trkpt><trkpt lat="43.689203043562124" lon="11.971630325247135"><ele>899.8000000000001</ele><time>2026-05-04T13:22:21Z</time></trkpt><trkpt lat="43.68925970569752" lon="11.971553695410417"><ele>900.1999999999999</ele><time>2026-05-04T13:22:22Z</time></trkpt><trkpt lat="43.689325686247535" lon="11.971489804461157"><ele>900.5999999999999</ele><time>2026-05-04T13:22:22.999Z</time></trkpt><trkpt lat="43.68942377124472" lon="11.971355731689316"><ele>901.0</ele><time>2026-05-04T13:22:24.999Z</time></trkpt><trkpt lat="43.689467822191034" lon="11.9712433469847"><ele>901.0</ele><time>2026-05-04T13:22:25.999Z</time></trkpt><trkpt lat="43.68951575833222" lon="11.971111942274135"><ele>900.9999999999999</ele><time>2026-05-04T13:22:26.999Z</time></trkpt><trkpt lat="43.68956310618772" lon="11.970988942138309"><ele>900.9999999999999</ele><time>2026-05-04T13:22:27.999Z</time></trkpt><trkpt lat="43.68957530936363" lon="11.970857154412014"><ele>901.0</ele><time>2026-05-04T13:22:29.999Z</time></trkpt><trkpt lat="43.689480134055174" lon="11.970831906097098"><ele>901.0</ele><time>2026-05-04T13:22:31.999Z</time></trkpt><trkpt lat="43.68937980071625" lon="11.970928509594929"><ele>904.8</ele><time>2026-05-04T13:22:33.999Z</time></trkpt><trkpt lat="43.689315859915325" lon="11.971016810303414"><ele>908.5999999999999</ele><time>2026-05-04T13:22:34.999Z</time></trkpt><trkpt lat="43.689220061297085" lon="11.97110275475165"><ele>912.4</ele><time>2026-05-04T13:22:35.999Z</time></trkpt><trkpt lat="43.689120460864245" lon="11.971209365842165"><ele>916.2</ele><time>2026-05-04T13:22:36.999Z</time></trkpt><trkpt lat="43.68903028656603" lon="11.971278474123258"><ele>920.0</ele><time>2026-05-04T13:22:38.999Z</time></trkpt><trkpt lat="43.6889684721575" lon="11.97130769378802"><ele>920.0</ele><time>2026-05-04T13:22:39.999Z</time></trkpt><trkpt lat="43.68895424463974" lon="11.971197259939542"><ele>920.0</ele><time>2026-05-04T13:22:42.999Z</time></trkpt><trkpt lat="43.6889997488423" lon="11.971027516394253"><ele>920.0</ele><time>2026-05-04T13:22:44.999Z</time></trkpt><trkpt lat="43.689027436044285" lon="11.970894883190851"><ele>920.0</ele><time>2026-05-04T13:22:45.999Z</time></trkpt><trkpt lat="43.68904772275229" lon="11.970775967880874"><ele>920.0</ele><time>2026-05-04T13:22:46.999Z</time></trkpt><trkpt lat="43.68905875551316" lon="11.970682733874325"><ele>923.6</ele><time>2026-05-04T13:22:47.999Z</time></trkpt><trkpt lat="43.689035983062944" lon="11.97052099249703"><ele>927.2</ele><time>2026-05-04T13:22:49.999Z</time></trkpt><trkpt lat="43.68902774774648" lon="11.970403002543117"><ele>930.8</ele><time>2026-05-04T13:22:50.999Z</time></trkpt><trkpt lat="43.68904751730906" lon="11.970286543556472"><ele>934.4</ele><time>2026-05-04T13:22:51.999Z</time></trkpt><trkpt lat="43.68907615789949" lon="11.970160575094567"><ele>938.0</ele><time>2026-05-04T13:22:52.999Z</time></trkpt><trkpt lat="43.68909508125445" lon="11.970024186455996"><ele>940.3333333333334</ele><time>2026-05-04T13:22:53.999Z</time></trkpt><trkpt lat="43.689089994100485" lon="11.969925462215759"><ele>942.6666666666667</ele><time>2026-05-04T13:22:54.999Z</time></trkpt><trkpt lat="43.68904065305749" lon="11.969767751321525"><ele>945.0</ele><time>2026-05-04T13:22:56.999Z</time></trkpt><trkpt lat="43.689004041210346" lon="11.969688155675573"><ele>947.3333333333333</ele><time>2026-05-04T13:22:57.999Z</time></trkpt><trkpt lat="43.68897002153792" lon="11.969583165855378"><ele>949.6666666666666</ele><time>2026-05-04T13:22:59.999Z</time></trkpt><trkpt lat="43.68901681499254" lon="11.969502416819934"><ele>952.0</ele><time>2026-05-04T13:23:18.999Z</time></trkpt><trkpt lat="43.689061710481504" lon="11.969370802951046"><ele>951.9999999999999</ele><time>2026-05-04T13:23:21Z</time></trkpt><trkpt lat="43.689085280877414" lon="11.969287944341941"><ele>952.0</ele><time>2026-05-04T13:23:22Z</time></trkpt><trkpt lat="43.68909981679483" lon="11.969194421614986"><ele>952.0</ele><time>2026-05-04T13:23:23Z</time></trkpt><trkpt lat="43.68910520836" lon="11.969073694669044"><ele>952.0</ele><time>2026-05-04T13:23:24Z</time></trkpt><trkpt lat="43.68910174343684" lon="11.968959072828914"><ele>951.9999999999999</ele><time>2026-05-04T13:23:25Z</time></trkpt><trkpt lat="43.68909302319566" lon="11.96885837047778"><ele>952.0</ele><time>2026-05-04T13:23:26Z</time></trkpt><trkpt lat="43.68906900123503" lon="11.9687461660896"><ele>953.9999999999999</ele><time>2026-05-04T13:23:27Z</time></trkpt><trkpt lat="43.689040288068284" lon="11.968655958340165"><ele>956.0</ele><time>2026-05-04T13:23:28Z</time></trkpt><trkpt lat="43.68901681834138" lon="11.968566841404211"><ele>958.0</ele><time>2026-05-04T13:23:29Z</time></trkpt><trkpt lat="43.6889945506566" lon="11.968447612091383"><ele>960.0</ele><time>2026-05-04T13:23:31Z</time></trkpt><trkpt lat="43.688999889827286" lon="11.968330207203957"><ele>961.9999999999999</ele><time>2026-05-04T13:23:58Z</time></trkpt><trkpt lat="43.68897865107113" lon="11.968158045019498"><ele>964.0</ele><time>2026-05-04T13:24:00Z</time></trkpt><trkpt lat="43.68895425095273" lon="11.968039841264934"><ele>965.2</ele><time>2026-05-04T13:24:01Z</time></trkpt><trkpt lat="43.68891882999374" lon="11.967925351508208"><ele>966.4000000000001</ele><time>2026-05-04T13:24:02Z</time></trkpt><trkpt lat="43.68887459809245" lon="11.967779273684183"><ele>967.6</ele><time>2026-05-04T13:24:03Z</time></trkpt><trkpt lat="43.68884851851512" lon="11.967667739473168"><ele>968.8</ele><time>2026-05-04T13:24:04Z</time></trkpt><trkpt lat="43.68885090253402" lon="11.967563471708534"><ele>970.0</ele><time>2026-05-04T13:24:05Z</time></trkpt><trkpt lat="43.68891639089867" lon="11.967396380989255"><ele>970.4</ele><time>2026-05-04T13:24:07Z</time></trkpt><trkpt lat="43.688981087651726" lon="11.967268896321322"><ele>970.8</ele><time>2026-05-04T13:24:08Z</time></trkpt><trkpt lat="43.68904498748105" lon="11.96717486557854"><ele>971.2</ele><time>2026-05-04T13:24:09Z</time></trkpt><trkpt lat="43.68911549137135" lon="11.967081420917085"><ele>971.6</ele><time>2026-05-04T13:24:11Z</time></trkpt><trkpt lat="43.68915346734205" lon="11.967002915856439"><ele>972.0</ele><time>2026-05-04T13:24:12Z</time></trkpt><trkpt lat="43.68917728491359" lon="11.966851722174585"><ele>972.0</ele><time>2026-05-04T13:24:14Z</time></trkpt><trkpt lat="43.68918260909872" lon="11.966724292737387"><ele>972.0</ele><time>2026-05-04T13:24:15Z</time></trkpt><trkpt lat="43.68918269131325" lon="11.966595533593253"><ele>972.0</ele><time>2026-05-04T13:24:16Z</time></trkpt><trkpt lat="43.68919723914285" lon="11.966484617604586"><ele>972.0</ele><time>2026-05-04T13:24:17Z</time></trkpt><trkpt lat="43.68923028786956" lon="11.96637104291935"><ele>972.0</ele><time>2026-05-04T13:24:18Z</time></trkpt><trkpt lat="43.689295668061334" lon="11.966258906455087"><ele>971.0</ele><time>2026-05-04T13:24:19Z</time></trkpt><trkpt lat="43.68935396103467" lon="11.966130015624644"><ele>970.0</ele><time>2026-05-04T13:24:20Z</time></trkpt><trkpt lat="43.68941334331258" lon="11.966021972458512"><ele>969.0</ele><time>2026-05-04T13:24:21Z</time></trkpt><trkpt lat="43.689469494896386" lon="11.965915976259936"><ele>968.0</ele><time>2026-05-04T13:24:22Z</time></trkpt><trkpt lat="43.68953656447679" lon="11.96579864741827"><ele>967.0</ele><time>2026-05-04T13:24:23Z</time></trkpt><trkpt lat="43.68960761355392" lon="11.96568511354485"><ele>967.0</ele><time>2026-05-04T13:24:24Z</time></trkpt><trkpt lat="43.68967413079742" lon="11.965571557301201"><ele>967.0</ele><time>2026-05-04T13:24:25Z</time></trkpt><trkpt lat="43.68973675184388" lon="11.965453429404734"><ele>967.0</ele><time>2026-05-04T13:24:26Z</time></trkpt><trkpt lat="43.689801292491744" lon="11.965320031374945"><ele>967.0</ele><time>2026-05-04T13:24:27Z</time></trkpt><trkpt lat="43.689864692857746" lon="11.965201273999801"><ele>967.0</ele><time>2026-05-04T13:24:28Z</time></trkpt><trkpt lat="43.68991003428099" lon="11.965130677384254"><ele>967.0</ele><time>2026-05-04T13:24:28.999Z</time></trkpt><trkpt lat="43.68999809378392" lon="11.965031967003519"><ele>967.0</ele><time>2026-05-04T13:24:30.999Z</time></trkpt><trkpt lat="43.690105358375554" lon="11.9649552030908"><ele>967.0</ele><time>2026-05-04T13:24:32.999Z</time></trkpt><trkpt lat="43.69018258041847" lon="11.964872379379576"><ele>967.0</ele><time>2026-05-04T13:24:34.999Z</time></trkpt><trkpt lat="43.6902339012657" lon="11.964782737125141"><ele>967.0</ele><time>2026-05-04T13:24:36.999Z</time></trkpt><trkpt lat="43.690197953422256" lon="11.964663980546725"><ele>968.6666666666666</ele><time>2026-05-04T13:24:44.999Z</time></trkpt><trkpt lat="43.69020154146933" lon="11.964543762435579"><ele>970.3333333333333</ele><time>2026-05-04T13:24:47.999Z</time></trkpt><trkpt lat="43.69026115191833" lon="11.964494534823212"><ele>972.0</ele><time>2026-05-04T13:24:50.999Z</time></trkpt><trkpt lat="43.690327250298964" lon="11.96449651988476"><ele>973.6666666666667</ele><time>2026-05-04T13:24:59Z</time></trkpt><trkpt lat="43.690394748925605" lon="11.964541016718105"><ele>975.3333333333334</ele><time>2026-05-04T13:25:01Z</time></trkpt><trkpt lat="43.690477957383216" lon="11.96455775753564"><ele>977.0</ele><time>2026-05-04T13:25:11Z</time></trkpt><trkpt lat="43.69060082568114" lon="11.964536743366367"><ele>977.5000000000001</ele><time>2026-05-04T13:25:13Z</time></trkpt><trkpt lat="43.69067159466469" lon="11.964531992689691"><ele>978.0</ele><time>2026-05-04T13:25:14Z</time></trkpt><trkpt lat="43.690785588919866" lon="11.964490819221341"><ele>978.5</ele><time>2026-05-04T13:25:16Z</time></trkpt><trkpt lat="43.69089021017468" lon="11.964408031992546"><ele>979.0</ele><time>2026-05-04T13:25:18Z</time></trkpt><trkpt lat="43.69094853887677" lon="11.96437168345999"><ele>979.5000000000001</ele><time>2026-05-04T13:25:19Z</time></trkpt><trkpt lat="43.69101348411528" lon="11.964346459474305"><ele>980.0</ele><time>2026-05-04T13:25:20Z</time></trkpt><trkpt lat="43.69109055312587" lon="11.964319838723473"><ele>981.5000000000001</ele><time>2026-05-04T13:25:21Z</time></trkpt><trkpt lat="43.69116969783987" lon="11.964282757379047"><ele>983.0</ele><time>2026-05-04T13:25:22Z</time></trkpt><trkpt lat="43.6912450407407" lon="11.964230398629798"><ele>984.5</ele><time>2026-05-04T13:25:23Z</time></trkpt><trkpt lat="43.69133073046201" lon="11.96416588497128"><ele>986.0</ele><time>2026-05-04T13:25:24Z</time></trkpt><trkpt lat="43.691399468978176" lon="11.964086935695388"><ele>987.5000000000001</ele><time>2026-05-04T13:25:25Z</time></trkpt><trkpt lat="43.691443209089094" lon="11.964020070484102"><ele>989.0</ele><time>2026-05-04T13:25:26Z</time></trkpt><trkpt lat="43.69155838842424" lon="11.963954351298627"><ele>989.0000000000001</ele><time>2026-05-04T13:25:28Z</time></trkpt><trkpt lat="43.691630298267974" lon="11.96391713142733"><ele>989.0</ele><time>2026-05-04T13:25:29Z</time></trkpt><trkpt lat="43.691688778387196" lon="11.963835147573482"><ele>989.0</ele><time>2026-05-04T13:25:30Z</time></trkpt><trkpt lat="43.69174263743064" lon="11.963746607443772"><ele>989.0</ele><time>2026-05-04T13:25:31Z</time></trkpt><trkpt lat="43.69180237658554" lon="11.963688979979933"><ele>989.0000000000001</ele><time>2026-05-04T13:25:32Z</time></trkpt><trkpt lat="43.691880951432914" lon="11.963660476671508"><ele>989.0</ele><time>2026-05-04T13:25:33Z</time></trkpt><trkpt lat="43.691960159211924" lon="11.963642684494287"><ele>988.5000000000001</ele><time>2026-05-04T13:25:34Z</time></trkpt><trkpt lat="43.692033195396284" lon="11.963610059557627"><ele>988.0</ele><time>2026-05-04T13:25:35Z</time></trkpt><trkpt lat="43.69210800894406" lon="11.963539672998028"><ele>987.5</ele><time>2026-05-04T13:25:36Z</time></trkpt><trkpt lat="43.69216494435358" lon="11.963473848528228"><ele>987.0</ele><time>2026-05-04T13:25:37Z</time></trkpt><trkpt lat="43.69221672097981" lon="11.963423807466974"><ele>986.5000000000001</ele><time>2026-05-04T13:25:38Z</time></trkpt><trkpt lat="43.69231825517893" lon="11.963329987751989"><ele>986.0</ele><time>2026-05-04T13:25:40Z</time></trkpt><trkpt lat="43.6924230651092" lon="11.963228308644696"><ele>986.0000000000001</ele><time>2026-05-04T13:25:42Z</time></trkpt><trkpt lat="43.69248290398171" lon="11.963180554652256"><ele>986.0</ele><time>2026-05-04T13:25:43Z</time></trkpt><trkpt lat="43.692553601170985" lon="11.963118800657954"><ele>986.0</ele><time>2026-05-04T13:25:44Z</time></trkpt><trkpt lat="43.692618458507546" lon="11.963059833766357"><ele>986.0</ele><time>2026-05-04T13:25:45Z</time></trkpt><trkpt lat="43.692696241718586" lon="11.963000401605894"><ele>986.0000000000001</ele><time>2026-05-04T13:25:46Z</time></trkpt><trkpt lat="43.692771376910095" lon="11.962951801951386"><ele>986.0</ele><time>2026-05-04T13:25:47Z</time></trkpt><trkpt lat="43.69285073652179" lon="11.962913814135549"><ele>985.6666666666667</ele><time>2026-05-04T13:25:48Z</time></trkpt><trkpt lat="43.69293123091708" lon="11.962874711879612"><ele>985.3333333333334</ele><time>2026-05-04T13:25:49Z</time></trkpt><trkpt lat="43.69300732853343" lon="11.962841132710905"><ele>985.0</ele><time>2026-05-04T13:25:50Z</time></trkpt><trkpt lat="43.69307734582396" lon="11.96282806261107"><ele>984.6666666666667</ele><time>2026-05-04T13:25:51Z</time></trkpt><trkpt lat="43.693191458734056" lon="11.962825053604975"><ele>984.3333333333334</ele><time>2026-05-04T13:25:53Z</time></trkpt><trkpt lat="43.69328497300762" lon="11.962792928093197"><ele>984.0</ele><time>2026-05-04T13:25:55Z</time></trkpt><trkpt lat="43.69331570029316" lon="11.962640588425973"><ele>984.1666666666666</ele><time>2026-05-04T13:25:57Z</time></trkpt><trkpt lat="43.69332374304446" lon="11.96250887380377"><ele>984.3333333333333</ele><time>2026-05-04T13:25:59Z</time></trkpt><trkpt lat="43.69338504762441" lon="11.962472284229975"><ele>984.5</ele><time>2026-05-04T13:26:17Z</time></trkpt><trkpt lat="43.69338834480349" lon="11.962362798393132"><ele>984.6666666666666</ele><time>2026-05-04T13:26:31Z</time></trkpt><trkpt lat="43.693382023608784" lon="11.962271254240052"><ele>984.8333333333333</ele><time>2026-05-04T13:26:34.999Z</time></trkpt><trkpt lat="43.69338328720583" lon="11.96215472701565"><ele>985.0</ele><time>2026-05-04T13:26:43.999Z</time></trkpt><trkpt lat="43.693411117904" lon="11.962057803596492"><ele>985.0</ele><time>2026-05-04T13:26:46.999Z</time></trkpt><trkpt lat="43.69348212956521" lon="11.96206287772329"><ele>985.0000000000001</ele><time>2026-05-04T13:26:56.999Z</time></trkpt><trkpt lat="43.69349555725454" lon="11.962152673074716"><ele>985.0</ele><time>2026-05-04T13:26:59.999Z</time></trkpt><trkpt lat="43.69347466703228" lon="11.962246398627304"><ele>985.0</ele><time>2026-05-04T13:27:01.999Z</time></trkpt><trkpt lat="43.69343994279662" lon="11.962320757061091"><ele>985.0000000000001</ele><time>2026-05-04T13:27:04.999Z</time></trkpt><trkpt lat="43.69341272711783" lon="11.962403678197477"><ele>985.0</ele><time>2026-05-04T13:27:30Z</time></trkpt><trkpt lat="43.693367033872704" lon="11.96247817047858"><ele>985.0</ele><time>2026-05-04T13:27:41Z</time></trkpt><trkpt lat="43.69332094695433" lon="11.962538856360348"><ele>984.9999999999999</ele><time>2026-05-04T13:27:56Z</time></trkpt><trkpt lat="43.693245524062064" lon="11.962553795770145"><ele>985.0</ele><time>2026-05-04T13:28:41.999Z</time></trkpt><trkpt lat="43.69317602837199" lon="11.962551585722485"><ele>985.0</ele><time>2026-05-04T13:28:43.999Z</time></trkpt><trkpt lat="43.693072894270905" lon="11.962526685222945"><ele>985.0</ele><time>2026-05-04T13:28:45.999Z</time></trkpt><trkpt lat="43.69299904881102" lon="11.96250284897553"><ele>984.9999999999999</ele><time>2026-05-04T13:28:47.999Z</time></trkpt><trkpt lat="43.692920430082935" lon="11.962492297190392"><ele>985.0</ele><time>2026-05-04T13:28:49.999Z</time></trkpt><trkpt lat="43.6928364994925" lon="11.962517143568363"><ele>984.8</ele><time>2026-05-04T13:28:51.999Z</time></trkpt><trkpt lat="43.69275732840611" lon="11.962543874906823"><ele>984.6</ele><time>2026-05-04T13:28:53.999Z</time></trkpt><trkpt lat="43.69264065398854" lon="11.96252752960744"><ele>984.4000000000001</ele><time>2026-05-04T13:28:56.999Z</time></trkpt><trkpt lat="43.69251218620654" lon="11.962504483850397"><ele>984.2</ele><time>2026-05-04T13:28:58.999Z</time></trkpt><trkpt lat="43.692396804149084" lon="11.962457349049378"><ele>984.0</ele><time>2026-05-04T13:29:00.999Z</time></trkpt><trkpt lat="43.6923224071505" lon="11.962418579190388"><ele>983.0</ele><time>2026-05-04T13:29:01.999Z</time></trkpt><trkpt lat="43.692234105323486" lon="11.962376832728829"><ele>982.0000000000001</ele><time>2026-05-04T13:29:02.999Z</time></trkpt><trkpt lat="43.69212900099858" lon="11.962346852591043"><ele>981.0000000000001</ele><time>2026-05-04T13:29:04.999Z</time></trkpt><trkpt lat="43.692051761237444" lon="11.962308655573393"><ele>980.0</ele><time>2026-05-04T13:29:07Z</time></trkpt><trkpt lat="43.69195537582397" lon="11.962222026014366"><ele>979.0</ele><time>2026-05-04T13:29:09Z</time></trkpt><trkpt lat="43.69190218050945" lon="11.962168879932404"><ele>977.9999999999999</ele><time>2026-05-04T13:29:10Z</time></trkpt><trkpt lat="43.691842221704626" lon="11.96211053525165"><ele>977.0</ele><time>2026-05-04T13:29:11Z</time></trkpt><trkpt lat="43.69176819098632" lon="11.962033455159354"><ele>976.0</ele><time>2026-05-04T13:29:12Z</time></trkpt><trkpt lat="43.69171828099674" lon="11.961976096763685"><ele>975.0</ele><time>2026-05-04T13:29:13Z</time></trkpt><trkpt lat="43.69166763743848" lon="11.961913793908021"><ele>973.9999999999999</ele><time>2026-05-04T13:29:14Z</time></trkpt><trkpt lat="43.69158097174795" lon="11.961818195251828"><ele>973.0</ele><time>2026-05-04T13:29:16Z</time></trkpt><trkpt lat="43.69149778644001" lon="11.961709360085367"><ele>971.5999999999999</ele><time>2026-05-04T13:29:18Z</time></trkpt><trkpt lat="43.691418690844145" lon="11.96159583012224"><ele>970.1999999999999</ele><time>2026-05-04T13:29:20Z</time></trkpt><trkpt lat="43.691330641149484" lon="11.961497881503382"><ele>968.8</ele><time>2026-05-04T13:29:22Z</time></trkpt><trkpt lat="43.69123762815721" lon="11.96143489390145"><ele>967.4</ele><time>2026-05-04T13:29:24Z</time></trkpt><trkpt lat="43.69113425981055" lon="11.961431567789399"><ele>966.0</ele><time>2026-05-04T13:29:26Z</time></trkpt><trkpt lat="43.69105504680755" lon="11.961431493683403"><ele>964.5999999999999</ele><time>2026-05-04T13:29:28Z</time></trkpt><trkpt lat="43.69098171103801" lon="11.961445351806384"><ele>963.1999999999999</ele><time>2026-05-04T13:29:30Z</time></trkpt><trkpt lat="43.6908914724387" lon="11.961484865004952"><ele>961.8000000000001</ele><time>2026-05-04T13:29:32Z</time></trkpt><trkpt lat="43.69078429653536" lon="11.961554930759139"><ele>960.4000000000001</ele><time>2026-05-04T13:29:34Z</time></trkpt><trkpt lat="43.690675996667814" lon="11.961624730555004"><ele>959.0</ele><time>2026-05-04T13:29:36Z</time></trkpt><trkpt lat="43.690576191256014" lon="11.961700837220697"><ele>959.0000000000001</ele><time>2026-05-04T13:29:38Z</time></trkpt><trkpt lat="43.690495913824044" lon="11.961767806624906"><ele>959.0</ele><time>2026-05-04T13:29:40Z</time></trkpt><trkpt lat="43.690425730611835" lon="11.961800092401926"><ele>959.0</ele><time>2026-05-04T13:29:42Z</time></trkpt><trkpt lat="43.690345527703165" lon="11.961763890173227"><ele>959.0</ele><time>2026-05-04T13:29:44Z</time></trkpt><trkpt lat="43.690256121088" lon="11.96174379063043"><ele>959.0000000000001</ele><time>2026-05-04T13:29:46Z</time></trkpt><trkpt lat="43.69016086607366" lon="11.961781354511636"><ele>959.0</ele><time>2026-05-04T13:29:48Z</time></trkpt><trkpt lat="43.69002925545794" lon="11.961877851592272"><ele>958.3333333333334</ele><time>2026-05-04T13:29:50Z</time></trkpt><trkpt lat="43.689966084585784" lon="11.961901957783605"><ele>957.6666666666667</ele><time>2026-05-04T13:29:51Z</time></trkpt><trkpt lat="43.689900995579244" lon="11.961898325054834"><ele>957.0</ele><time>2026-05-04T13:29:52Z</time></trkpt><trkpt lat="43.68978324774978" lon="11.961890884533247"><ele>956.3333333333333</ele><time>2026-05-04T13:29:54Z</time></trkpt><trkpt lat="43.68970068083742" lon="11.96188003886854"><ele>955.6666666666666</ele><time>2026-05-04T13:29:56Z</time></trkpt><trkpt lat="43.68962274746393" lon="11.961812147488642"><ele>955.0</ele><time>2026-05-04T13:29:58Z</time></trkpt><trkpt lat="43.68953155494044" lon="11.961701876902831"><ele>954.4999999999999</ele><time>2026-05-04T13:30:00Z</time></trkpt><trkpt lat="43.689478091412546" lon="11.961622917812772"><ele>954.0</ele><time>2026-05-04T13:30:01Z</time></trkpt><trkpt lat="43.68943806939877" lon="11.96153813426019"><ele>953.5</ele><time>2026-05-04T13:30:02Z</time></trkpt><trkpt lat="43.68942057817867" lon="11.961445132001623"><ele>953.0</ele><time>2026-05-04T13:30:03Z</time></trkpt><trkpt lat="43.689410198591204" lon="11.961344316817083"><ele>952.4999999999999</ele><time>2026-05-04T13:30:04Z</time></trkpt><trkpt lat="43.68940915770612" lon="11.961245786045392"><ele>952.0</ele><time>2026-05-04T13:30:05Z</time></trkpt><trkpt lat="43.68936707471658" lon="11.96112437694696"><ele>951.8333333333333</ele><time>2026-05-04T13:30:07Z</time></trkpt><trkpt lat="43.68929382120613" lon="11.960976483993417"><ele>951.6666666666666</ele><time>2026-05-04T13:30:09Z</time></trkpt><trkpt lat="43.68925470283894" lon="11.960889792537062"><ele>951.5</ele><time>2026-05-04T13:30:10Z</time></trkpt><trkpt lat="43.68922763195054" lon="11.960806680319562"><ele>951.3333333333333</ele><time>2026-05-04T13:30:11Z</time></trkpt><trkpt lat="43.689192158944806" lon="11.96072384872651"><ele>951.1666666666666</ele><time>2026-05-04T13:30:12Z</time></trkpt><trkpt lat="43.689155696077464" lon="11.960649138155704"><ele>951.0</ele><time>2026-05-04T13:30:13Z</time></trkpt><trkpt lat="43.68909415869314" lon="11.960507935074089"><ele>951.0</ele><time>2026-05-04T13:30:15Z</time></trkpt><trkpt lat="43.689059468743466" lon="11.96042381529881"><ele>951.0</ele><time>2026-05-04T13:30:16Z</time></trkpt><trkpt lat="43.68900196934336" lon="11.960278916677565"><ele>951.0</ele><time>2026-05-04T13:30:18Z</time></trkpt><trkpt lat="43.68897743060479" lon="11.960183191199809"><ele>951.0</ele><time>2026-05-04T13:30:19Z</time></trkpt><trkpt lat="43.68894640757021" lon="11.960083930969503"><ele>951.0</ele><time>2026-05-04T13:30:20Z</time></trkpt><trkpt lat="43.68891195492566" lon="11.960000909332939"><ele>951.0</ele><time>2026-05-04T13:30:21Z</time></trkpt><trkpt lat="43.68887709211601" lon="11.959909182865076"><ele>950.0</ele><time>2026-05-04T13:30:22Z</time></trkpt><trkpt lat="43.68883900660636" lon="11.959823646840011"><ele>949.0</ele><time>2026-05-04T13:30:23Z</time></trkpt><trkpt lat="43.68880790022717" lon="11.95973271307173"><ele>948.0</ele><time>2026-05-04T13:30:24Z</time></trkpt><trkpt lat="43.68878578587355" lon="11.9596196574205"><ele>947.0</ele><time>2026-05-04T13:30:25Z</time></trkpt><trkpt lat="43.6887779304185" lon="11.95951807879644"><ele>946.0</ele><time>2026-05-04T13:30:26Z</time></trkpt><trkpt lat="43.68875825018445" lon="11.959366616986706"><ele>945.0</ele><time>2026-05-04T13:30:28Z</time></trkpt><trkpt lat="43.68873499831702" lon="11.959206216719103"><ele>942.8</ele><time>2026-05-04T13:30:30Z</time></trkpt><trkpt lat="43.6887157125761" lon="11.95905777151643"><ele>940.6</ele><time>2026-05-04T13:30:32Z</time></trkpt><trkpt lat="43.688698718952686" lon="11.958934869807825"><ele>938.4000000000001</ele><time>2026-05-04T13:30:34Z</time></trkpt><trkpt lat="43.688720355648" lon="11.95882738004676"><ele>936.2</ele><time>2026-05-04T13:30:37Z</time></trkpt><trkpt lat="43.68873385925207" lon="11.958714157034168"><ele>934.0</ele><time>2026-05-04T13:30:39Z</time></trkpt><trkpt lat="43.68874500221723" lon="11.958532421342182"><ele>932.4000000000001</ele><time>2026-05-04T13:30:41Z</time></trkpt><trkpt lat="43.68874493482889" lon="11.958363457800491"><ele>930.8000000000001</ele><time>2026-05-04T13:30:43Z</time></trkpt><trkpt lat="43.688759315016455" lon="11.958199535841507"><ele>929.1999999999999</ele><time>2026-05-04T13:30:45Z</time></trkpt><trkpt lat="43.68876349859376" lon="11.958058129201028"><ele>927.5999999999999</ele><time>2026-05-04T13:30:46.999Z</time></trkpt><trkpt lat="43.688750950460786" lon="11.957939027219215"><ele>926.0</ele><time>2026-05-04T13:30:48.999Z</time></trkpt><trkpt lat="43.68872885541314" lon="11.957763758003473"><ele>926.0</ele><time>2026-05-04T13:30:50.999Z</time></trkpt><trkpt lat="43.68870380180567" lon="11.957672095290055"><ele>925.9999999999999</ele><time>2026-05-04T13:30:51.999Z</time></trkpt><trkpt lat="43.688667185453404" lon="11.95751667344186"><ele>925.9999999999999</ele><time>2026-05-04T13:30:53.999Z</time></trkpt><trkpt lat="43.68868334875096" lon="11.957374123730336"><ele>926.0</ele><time>2026-05-04T13:30:55.999Z</time></trkpt><trkpt lat="43.688682975418985" lon="11.957215574995576"><ele>926.0</ele><time>2026-05-04T13:30:57.999Z</time></trkpt><trkpt lat="43.68863999678062" lon="11.957068722251252"><ele>924.0000000000001</ele><time>2026-05-04T13:30:59.999Z</time></trkpt><trkpt lat="43.688607384583726" lon="11.956988767219999"><ele>922.0</ele><time>2026-05-04T13:31:00.999Z</time></trkpt><trkpt lat="43.68857818349521" lon="11.956882041709314"><ele>920.0</ele><time>2026-05-04T13:31:02.999Z</time></trkpt><trkpt lat="43.68860396524825" lon="11.95679054813371"><ele>918.0</ele><time>2026-05-04T13:31:05.999Z</time></trkpt><trkpt lat="43.68866137009415" lon="11.956737339184471"><ele>916.0000000000001</ele><time>2026-05-04T13:31:09Z</time></trkpt><trkpt lat="43.68874897746179" lon="11.956656792393085"><ele>914.0</ele><time>2026-05-04T13:31:12Z</time></trkpt><trkpt lat="43.688797437890344" lon="11.956554956070498"><ele>912.1666666666667</ele><time>2026-05-04T13:31:14Z</time></trkpt><trkpt lat="43.68887802956007" lon="11.956459334652664"><ele>910.3333333333334</ele><time>2026-05-04T13:31:17Z</time></trkpt><trkpt lat="43.688936858584185" lon="11.956419148102112"><ele>908.5</ele><time>2026-05-04T13:31:18Z</time></trkpt><trkpt lat="43.68900720936581" lon="11.956346993519904"><ele>906.6666666666667</ele><time>2026-05-04T13:31:19Z</time></trkpt><trkpt lat="43.689066104411125" lon="11.956258181787453"><ele>904.8333333333334</ele><time>2026-05-04T13:31:20Z</time></trkpt><trkpt lat="43.68910560189519" lon="11.95616500341848"><ele>903.0</ele><time>2026-05-04T13:31:21Z</time></trkpt><trkpt lat="43.68914127592281" lon="11.95604673490048"><ele>903.0</ele><time>2026-05-04T13:31:22Z</time></trkpt><trkpt lat="43.68916079815512" lon="11.955943065050421"><ele>903.0</ele><time>2026-05-04T13:31:23Z</time></trkpt><trkpt lat="43.689180479038725" lon="11.95585505321642"><ele>903.0</ele><time>2026-05-04T13:31:24Z</time></trkpt><trkpt lat="43.68920273840552" lon="11.955772603702412"><ele>903.0</ele><time>2026-05-04T13:31:25Z</time></trkpt><trkpt lat="43.68927424515051" lon="11.95565326110869"><ele>903.0</ele><time>2026-05-04T13:31:27Z</time></trkpt><trkpt lat="43.68930489582043" lon="11.955574880443612"><ele>903.0</ele><time>2026-05-04T13:31:28Z</time></trkpt><trkpt lat="43.68932143923799" lon="11.955468533856816"><ele>901.4</ele><time>2026-05-04T13:31:29Z</time></trkpt><trkpt lat="43.68933695822611" lon="11.955361561551078"><ele>899.8</ele><time>2026-05-04T13:31:30Z</time></trkpt><trkpt lat="43.689346819728186" lon="11.955263357024146"><ele>898.2</ele><time>2026-05-04T13:31:31Z</time></trkpt><trkpt lat="43.68940747054665" lon="11.955091961242692"><ele>896.6</ele><time>2026-05-04T13:31:33Z</time></trkpt><trkpt lat="43.68944863940695" lon="11.955024582017167"><ele>895.0</ele><time>2026-05-04T13:31:34Z</time></trkpt><trkpt lat="43.689548491085304" lon="11.954963501642052"><ele>893.4</ele><time>2026-05-04T13:31:36Z</time></trkpt><trkpt lat="43.689610734265216" lon="11.954976900178991"><ele>891.8</ele><time>2026-05-04T13:31:37Z</time></trkpt><trkpt lat="43.68974707281323" lon="11.955003343715868"><ele>890.2</ele><time>2026-05-04T13:31:39Z</time></trkpt><trkpt lat="43.68985222733916" lon="11.954975077278002"><ele>888.6</ele><time>2026-05-04T13:31:41Z</time></trkpt><trkpt lat="43.68989785151973" lon="11.954914284425785"><ele>887.0</ele><time>2026-05-04T13:31:42Z</time></trkpt><trkpt lat="43.68996221274435" lon="11.95480203765032"><ele>887.0</ele><time>2026-05-04T13:31:44Z</time></trkpt><trkpt lat="43.68992605793811" lon="11.954685821108434"><ele>887.0</ele><time>2026-05-04T13:31:47Z</time></trkpt><trkpt lat="43.68982572205076" lon="11.954603965843123"><ele>887.0</ele><time>2026-05-04T13:31:49Z</time></trkpt><trkpt lat="43.689805884815954" lon="11.954448811174393"><ele>887.0</ele><time>2026-05-04T13:31:51Z</time></trkpt><trkpt lat="43.689710834588496" lon="11.954328411609827"><ele>887.0000000000001</ele><time>2026-05-04T13:31:53Z</time></trkpt><trkpt lat="43.689692906510054" lon="11.954239484458252"><ele>887.0</ele><time>2026-05-04T13:31:54Z</time></trkpt><trkpt lat="43.689654664269966" lon="11.954158089933564"><ele>887.0</ele><time>2026-05-04T13:31:55Z</time></trkpt><trkpt lat="43.689634921337266" lon="11.95402658090913"><ele>887.0</ele><time>2026-05-04T13:31:56Z</time></trkpt><trkpt lat="43.68957976809118" lon="11.95394431784394"><ele>887.0000000000001</ele><time>2026-05-04T13:31:57Z</time></trkpt><trkpt lat="43.68952680245868" lon="11.953895947325824"><ele>887.0</ele><time>2026-05-04T13:31:58Z</time></trkpt><trkpt lat="43.68939778711524" lon="11.953902278925403"><ele>884.8</ele><time>2026-05-04T13:32:00Z</time></trkpt><trkpt lat="43.68936034996033" lon="11.953745409918632"><ele>882.6</ele><time>2026-05-04T13:32:02Z</time></trkpt><trkpt lat="43.68932732375748" lon="11.95362881253319"><ele>880.3999999999999</ele><time>2026-05-04T13:32:04Z</time></trkpt><trkpt lat="43.689331833114" lon="11.95345786130085"><ele>878.1999999999999</ele><time>2026-05-04T13:32:05Z</time></trkpt><trkpt lat="43.689278926117495" lon="11.953339935060006"><ele>876.0</ele><time>2026-05-04T13:32:06Z</time></trkpt><trkpt lat="43.68922226957045" lon="11.953266662522047"><ele>874.8333333333334</ele><time>2026-05-04T13:32:07Z</time></trkpt><trkpt lat="43.689161141299444" lon="11.953151930087289"><ele>873.6666666666667</ele><time>2026-05-04T13:32:09Z</time></trkpt><trkpt lat="43.689132064608124" lon="11.953051748758176"><ele>872.5</ele><time>2026-05-04T13:32:10Z</time></trkpt><trkpt lat="43.689110873244736" lon="11.952950662933167"><ele>871.3333333333334</ele><time>2026-05-04T13:32:11Z</time></trkpt><trkpt lat="43.68917814752647" lon="11.952881102735226"><ele>870.1666666666667</ele><time>2026-05-04T13:32:15Z</time></trkpt><trkpt lat="43.68923121917639" lon="11.952815184334748"><ele>869.0</ele><time>2026-05-04T13:32:16Z</time></trkpt><trkpt lat="43.6892797506128" lon="11.952754150911298"><ele>869.0000000000001</ele><time>2026-05-04T13:32:17Z</time></trkpt><trkpt lat="43.689329784902135" lon="11.952679706355205"><ele>869.0</ele><time>2026-05-04T13:32:18Z</time></trkpt><trkpt lat="43.689362245239536" lon="11.9526021317262"><ele>869.0</ele><time>2026-05-04T13:32:19Z</time></trkpt><trkpt lat="43.689356431270326" lon="11.952491289652588"><ele>869.0</ele><time>2026-05-04T13:32:20Z</time></trkpt><trkpt lat="43.68937253523274" lon="11.95239651790073"><ele>869.0000000000001</ele><time>2026-05-04T13:32:21Z</time></trkpt><trkpt lat="43.68937618875018" lon="11.952234640828609"><ele>869.0</ele><time>2026-05-04T13:32:23Z</time></trkpt><trkpt lat="43.689391885354006" lon="11.952032348372457"><ele>867.8000000000001</ele><time>2026-05-04T13:32:25Z</time></trkpt><trkpt lat="43.689397848828484" lon="11.951941039695846"><ele>866.6000000000001</ele><time>2026-05-04T13:32:26Z</time></trkpt><trkpt lat="43.689405092383566" lon="11.951795780230272"><ele>865.4</ele><time>2026-05-04T13:32:28Z</time></trkpt><trkpt lat="43.6894068516527" lon="11.951695798833256"><ele>864.2</ele><time>2026-05-04T13:32:29Z</time></trkpt><trkpt lat="43.68939967780658" lon="11.951541496728927"><ele>863.0</ele><time>2026-05-04T13:32:30Z</time></trkpt><trkpt lat="43.68938278487089" lon="11.951396760259442"><ele>862.3333333333334</ele><time>2026-05-04T13:32:31Z</time></trkpt><trkpt lat="43.68934433143371" lon="11.95125961045978"><ele>861.6666666666667</ele><time>2026-05-04T13:32:32Z</time></trkpt><trkpt lat="43.68933963260076" lon="11.951109910462971"><ele>861.0</ele><time>2026-05-04T13:32:33Z</time></trkpt><trkpt lat="43.68932877402589" lon="11.950993781203673"><ele>860.3333333333333</ele><time>2026-05-04T13:32:34Z</time></trkpt><trkpt lat="43.68932792218595" lon="11.950901260050077"><ele>859.6666666666666</ele><time>2026-05-04T13:32:35Z</time></trkpt><trkpt lat="43.689361264650735" lon="11.95081597983899"><ele>859.0</ele><time>2026-05-04T13:32:36Z</time></trkpt><trkpt lat="43.68938873246067" lon="11.950727487658341"><ele>858.8000000000001</ele><time>2026-05-04T13:32:37Z</time></trkpt><trkpt lat="43.689439972471476" lon="11.950656944795401"><ele>858.6000000000001</ele><time>2026-05-04T13:32:38Z</time></trkpt><trkpt lat="43.689455619884775" lon="11.950469091406108"><ele>858.4</ele><time>2026-05-04T13:32:40Z</time></trkpt><trkpt lat="43.68943763895665" lon="11.95035293243847"><ele>858.2</ele><time>2026-05-04T13:32:41Z</time></trkpt><trkpt lat="43.68942194176413" lon="11.95021531195169"><ele>858.0</ele><time>2026-05-04T13:32:42Z</time></trkpt><trkpt lat="43.68940953804357" lon="11.95006962009993"><ele>859.0</ele><time>2026-05-04T13:32:43Z</time></trkpt><trkpt lat="43.68939629000502" lon="11.949924911121707"><ele>860.0</ele><time>2026-05-04T13:32:44Z</time></trkpt><trkpt lat="43.68938471340387" lon="11.949761577212753"><ele>861.0</ele><time>2026-05-04T13:32:45Z</time></trkpt><trkpt lat="43.689369649498175" lon="11.94958770484795"><ele>862.0</ele><time>2026-05-04T13:32:46Z</time></trkpt><trkpt lat="43.68935724532786" lon="11.949404832803047"><ele>862.0</ele><time>2026-05-04T13:32:47Z</time></trkpt><trkpt lat="43.68934222556171" lon="11.949239675942462"><ele>862.0</ele><time>2026-05-04T13:32:48Z</time></trkpt><trkpt lat="43.689339284947074" lon="11.949080383032754"><ele>862.0</ele><time>2026-05-04T13:32:49Z</time></trkpt><trkpt lat="43.68933879054796" lon="11.94893378082956"><ele>862.0</ele><time>2026-05-04T13:32:50Z</time></trkpt><trkpt lat="43.68935058273076" lon="11.94881346571765"><ele>862.0</ele><time>2026-05-04T13:32:51Z</time></trkpt><trkpt lat="43.68934638850094" lon="11.948690489453865"><ele>862.8</ele><time>2026-05-04T13:32:52Z</time></trkpt><trkpt lat="43.68931308575166" lon="11.94857674054634"><ele>863.6</ele><time>2026-05-04T13:32:53Z</time></trkpt><trkpt lat="43.68925359585271" lon="11.948456031155022"><ele>864.3999999999999</ele><time>2026-05-04T13:32:54Z</time></trkpt><trkpt lat="43.68919691941568" lon="11.948298297191938"><ele>865.1999999999999</ele><time>2026-05-04T13:32:55Z</time></trkpt><trkpt lat="43.68915000165787" lon="11.948148349030404"><ele>866.0</ele><time>2026-05-04T13:32:56Z</time></trkpt><trkpt lat="43.68913533566028" lon="11.948036587689353"><ele>866.6666666666667</ele><time>2026-05-04T13:32:57Z</time></trkpt><trkpt lat="43.689122698302995" lon="11.947944096652039"><ele>867.3333333333334</ele><time>2026-05-04T13:32:58Z</time></trkpt><trkpt lat="43.68911390653882" lon="11.947848627014068"><ele>868.0</ele><time>2026-05-04T13:33:00Z</time></trkpt><trkpt lat="43.689175356831534" lon="11.947776832556274"><ele>868.6666666666667</ele><time>2026-05-04T13:33:02Z</time></trkpt><trkpt lat="43.68922904094815" lon="11.947723152318737"><ele>869.3333333333334</ele><time>2026-05-04T13:33:03Z</time></trkpt><trkpt lat="43.68929574943676" lon="11.947646030244561"><ele>870.0</ele><time>2026-05-04T13:33:04Z</time></trkpt><trkpt lat="43.689360797764515" lon="11.94755224730273"><ele>870.25</ele><time>2026-05-04T13:33:05Z</time></trkpt><trkpt lat="43.68942497691287" lon="11.94743822666709"><ele>870.5</ele><time>2026-05-04T13:33:06Z</time></trkpt><trkpt lat="43.68948558309193" lon="11.947299671664027"><ele>870.75</ele><time>2026-05-04T13:33:07Z</time></trkpt><trkpt lat="43.689534952828254" lon="11.947140805341933"><ele>871.0</ele><time>2026-05-04T13:33:08Z</time></trkpt><trkpt lat="43.68958157027038" lon="11.946984861572743"><ele>870.5</ele><time>2026-05-04T13:33:09Z</time></trkpt><trkpt lat="43.689638354248906" lon="11.946842971916169"><ele>870.0</ele><time>2026-05-04T13:33:10Z</time></trkpt><trkpt lat="43.689728867546975" lon="11.94672626703525"><ele>869.5</ele><time>2026-05-04T13:33:11Z</time></trkpt><trkpt lat="43.68981879856933" lon="11.946599493278223"><ele>869.0</ele><time>2026-05-04T13:33:12Z</time></trkpt><trkpt lat="43.68989600865879" lon="11.946469502582458"><ele>868.25</ele><time>2026-05-04T13:33:13Z</time></trkpt><trkpt lat="43.689987327441244" lon="11.946362682677549"><ele>867.5</ele><time>2026-05-04T13:33:14Z</time></trkpt><trkpt lat="43.690078624824075" lon="11.94626803667059"><ele>866.75</ele><time>2026-05-04T13:33:15Z</time></trkpt><trkpt lat="43.69017647609006" lon="11.946201352710876"><ele>866.0</ele><time>2026-05-04T13:33:16Z</time></trkpt><trkpt lat="43.69029570200827" lon="11.946192535701426"><ele>866.0</ele><time>2026-05-04T13:33:17Z</time></trkpt><trkpt lat="43.69041601723154" lon="11.946158407661999"><ele>865.9999999999999</ele><time>2026-05-04T13:33:18Z</time></trkpt><trkpt lat="43.69052028679864" lon="11.946106555242192"><ele>865.9999999999999</ele><time>2026-05-04T13:33:19Z</time></trkpt><trkpt lat="43.69061771695921" lon="11.946074922586403"><ele>866.0</ele><time>2026-05-04T13:33:20Z</time></trkpt><trkpt lat="43.69071065220575" lon="11.94602319678337"><ele>866.0</ele><time>2026-05-04T13:33:21Z</time></trkpt><trkpt lat="43.690799055108805" lon="11.945951084634801"><ele>865.5999999999999</ele><time>2026-05-04T13:33:22Z</time></trkpt><trkpt lat="43.69087602397093" lon="11.945855196937705"><ele>865.1999999999999</ele><time>2026-05-04T13:33:23Z</time></trkpt><trkpt lat="43.69094641264543" lon="11.945749466731428"><ele>864.8000000000001</ele><time>2026-05-04T13:33:24Z</time></trkpt><trkpt lat="43.69100997742968" lon="11.945642366351175"><ele>864.4000000000001</ele><time>2026-05-04T13:33:25Z</time></trkpt><trkpt lat="43.691088493044184" lon="11.945558051288728"><ele>864.0</ele><time>2026-05-04T13:33:26Z</time></trkpt><trkpt lat="43.69114497721721" lon="11.945443268507052"><ele>864.0</ele><time>2026-05-04T13:33:27Z</time></trkpt><trkpt lat="43.69120988663449" lon="11.945345037549009"><ele>864.0000000000001</ele><time>2026-05-04T13:33:28Z</time></trkpt><trkpt lat="43.691283630782806" lon="11.945254697505026"><ele>864.0000000000001</ele><time>2026-05-04T13:33:29Z</time></trkpt><trkpt lat="43.69131130244385" lon="11.945123283837635"><ele>864.0</ele><time>2026-05-04T13:33:30Z</time></trkpt><trkpt lat="43.691327552844264" lon="11.94498602380241"><ele>864.0</ele><time>2026-05-04T13:33:31Z</time></trkpt><trkpt lat="43.69131798482401" lon="11.944845801012614"><ele>862.8000000000001</ele><time>2026-05-04T13:33:32Z</time></trkpt><trkpt lat="43.69130142685563" lon="11.94471041480793"><ele>861.6000000000001</ele><time>2026-05-04T13:33:33Z</time></trkpt><trkpt lat="43.69128447505548" lon="11.94457717267477"><ele>860.4</ele><time>2026-05-04T13:33:34Z</time></trkpt><trkpt lat="43.691267826822944" lon="11.94445008148124"><ele>859.2</ele><time>2026-05-04T13:33:35Z</time></trkpt><trkpt lat="43.69124377216609" lon="11.944324992280405"><ele>858.0</ele><time>2026-05-04T13:33:36Z</time></trkpt><trkpt lat="43.69123788695272" lon="11.944192196019058"><ele>856.3333333333334</ele><time>2026-05-04T13:33:37Z</time></trkpt><trkpt lat="43.69122032688834" lon="11.944069345666229"><ele>854.6666666666667</ele><time>2026-05-04T13:33:38Z</time></trkpt><trkpt lat="43.69120751811092" lon="11.943946514564807"><ele>853.0</ele><time>2026-05-04T13:33:39Z</time></trkpt><trkpt lat="43.691196912109866" lon="11.943833877364877"><ele>851.3333333333334</ele><time>2026-05-04T13:33:40Z</time></trkpt><trkpt lat="43.69125328310903" lon="11.943750787525019"><ele>849.6666666666667</ele><time>2026-05-04T13:33:41Z</time></trkpt><trkpt lat="43.691324218511966" lon="11.943697605469962"><ele>848.0</ele><time>2026-05-04T13:33:42Z</time></trkpt><trkpt lat="43.69140336263772" lon="11.943691464493122"><ele>848.0000000000001</ele><time>2026-05-04T13:33:43Z</time></trkpt><trkpt lat="43.69148103169982" lon="11.943651087721332"><ele>848.0</ele><time>2026-05-04T13:33:44Z</time></trkpt><trkpt lat="43.6915583983783" lon="11.94364053336495"><ele>848.0</ele><time>2026-05-04T13:33:45Z</time></trkpt><trkpt lat="43.69163333920131" lon="11.943613238723492"><ele>848.0</ele><time>2026-05-04T13:33:46Z</time></trkpt><trkpt lat="43.69170483332289" lon="11.943579421248089"><ele>848.0000000000001</ele><time>2026-05-04T13:33:47Z</time></trkpt><trkpt lat="43.69177028836535" lon="11.943528821389878"><ele>848.0</ele><time>2026-05-04T13:33:48Z</time></trkpt><trkpt lat="43.69182778306213" lon="11.943455170873087"><ele>846.0</ele><time>2026-05-04T13:33:49Z</time></trkpt><trkpt lat="43.69185756026692" lon="11.943344131922885"><ele>844.0</ele><time>2026-05-04T13:33:50Z</time></trkpt><trkpt lat="43.69181284333992" lon="11.943219590676682"><ele>842.0</ele><time>2026-05-04T13:33:51Z</time></trkpt><trkpt lat="43.69174696415368" lon="11.943134596265958"><ele>840.0</ele><time>2026-05-04T13:33:52Z</time></trkpt><trkpt lat="43.69165485872555" lon="11.943102549584664"><ele>838.0</ele><time>2026-05-04T13:33:53Z</time></trkpt><trkpt lat="43.691562475826885" lon="11.943093297157853"><ele>837.9999999999999</ele><time>2026-05-04T13:33:54Z</time></trkpt><trkpt lat="43.69148604741444" lon="11.943076304775907"><ele>838.0</ele><time>2026-05-04T13:33:55Z</time></trkpt><trkpt lat="43.69141774952278" lon="11.943013663855504"><ele>838.0</ele><time>2026-05-04T13:33:56Z</time></trkpt><trkpt lat="43.69136273573607" lon="11.942923628630524"><ele>838.0</ele><time>2026-05-04T13:33:57Z</time></trkpt><trkpt lat="43.69133629228615" lon="11.942796479995827"><ele>837.9999999999999</ele><time>2026-05-04T13:33:58Z</time></trkpt><trkpt lat="43.69130786363991" lon="11.942676826718003"><ele>838.0</ele><time>2026-05-04T13:33:59Z</time></trkpt><trkpt lat="43.69128070455901" lon="11.942555870426727"><ele>839.8</ele><time>2026-05-04T13:34:00Z</time></trkpt><trkpt lat="43.69131864794994" lon="11.942431938254886"><ele>841.5999999999999</ele><time>2026-05-04T13:34:01Z</time></trkpt><trkpt lat="43.691356905667824" lon="11.94230627052148"><ele>843.4000000000001</ele><time>2026-05-04T13:34:02Z</time></trkpt><trkpt lat="43.691374724440344" lon="11.942168079315271"><ele>845.2</ele><time>2026-05-04T13:34:03Z</time></trkpt><trkpt lat="43.69140175076514" lon="11.942028042150637"><ele>847.0</ele><time>2026-05-04T13:34:04Z</time></trkpt><trkpt lat="43.69141040500499" lon="11.941875683772508"><ele>847.0</ele><time>2026-05-04T13:34:05Z</time></trkpt><trkpt lat="43.69141342819425" lon="11.94172681449858"><ele>847.0</ele><time>2026-05-04T13:34:06Z</time></trkpt><trkpt lat="43.6914042549099" lon="11.941592608822425"><ele>847.0</ele><time>2026-05-04T13:34:07Z</time></trkpt><trkpt lat="43.6913766326344" lon="11.941474998810712"><ele>847.0</ele><time>2026-05-04T13:34:08Z</time></trkpt><trkpt lat="43.691283498671346" lon="11.941416713103036"><ele>847.0</ele><time>2026-05-04T13:34:09Z</time></trkpt><trkpt lat="43.691185999794506" lon="11.94137857540467"><ele>845.6666666666666</ele><time>2026-05-04T13:34:10Z</time></trkpt><trkpt lat="43.69107922984434" lon="11.9413803082586"><ele>844.3333333333333</ele><time>2026-05-04T13:34:11Z</time></trkpt><trkpt lat="43.69099934554354" lon="11.941378661433367"><ele>843.0</ele><time>2026-05-04T13:34:12Z</time></trkpt><trkpt lat="43.6909332455088" lon="11.941339249954426"><ele>841.6666666666667</ele><time>2026-05-04T13:34:13Z</time></trkpt><trkpt lat="43.690876312278036" lon="11.941264458072919"><ele>840.3333333333334</ele><time>2026-05-04T13:34:14Z</time></trkpt><trkpt lat="43.69085248498493" lon="11.941170756293989"><ele>839.0</ele><time>2026-05-04T13:34:15Z</time></trkpt><trkpt lat="43.690825620310086" lon="11.941056043960957"><ele>839.0</ele><time>2026-05-04T13:34:17Z</time></trkpt><trkpt lat="43.69078074256367" lon="11.940906660930994"><ele>839.0</ele><time>2026-05-04T13:34:19Z</time></trkpt><trkpt lat="43.69076088054989" lon="11.940797039000588"><ele>839.0</ele><time>2026-05-04T13:34:20Z</time></trkpt><trkpt lat="43.690735804748215" lon="11.940670887217609"><ele>839.0</ele><time>2026-05-04T13:34:21Z</time></trkpt><trkpt lat="43.690709194992785" lon="11.940543778789449"><ele>839.0</ele><time>2026-05-04T13:34:22Z</time></trkpt><trkpt lat="43.69067682628852" lon="11.940389256629723"><ele>840.6</ele><time>2026-05-04T13:34:23Z</time></trkpt><trkpt lat="43.69064718001607" lon="11.940262811973156"><ele>842.2</ele><time>2026-05-04T13:34:24Z</time></trkpt><trkpt lat="43.69064358018558" lon="11.94014662907108"><ele>843.8000000000001</ele><time>2026-05-04T13:34:25Z</time></trkpt><trkpt lat="43.69062695057852" lon="11.940029259618052"><ele>845.4000000000001</ele><time>2026-05-04T13:34:26Z</time></trkpt><trkpt lat="43.69069100316726" lon="11.939923733474187"><ele>847.0</ele><time>2026-05-04T13:34:27Z</time></trkpt><trkpt lat="43.69075996917758" lon="11.939831996957393"><ele>849.25</ele><time>2026-05-04T13:34:28Z</time></trkpt><trkpt lat="43.69083764689513" lon="11.93972839699598"><ele>851.5</ele><time>2026-05-04T13:34:29Z</time></trkpt><trkpt lat="43.690907965753546" lon="11.939602565460268"><ele>853.75</ele><time>2026-05-04T13:34:30Z</time></trkpt><trkpt lat="43.69099758551853" lon="11.939476948143467"><ele>856.0</ele><time>2026-05-04T13:34:31Z</time></trkpt><trkpt lat="43.691087145472956" lon="11.939352741375103"><ele>858.5</ele><time>2026-05-04T13:34:32Z</time></trkpt><trkpt lat="43.69117575587304" lon="11.939227723901068"><ele>861.0</ele><time>2026-05-04T13:34:33Z</time></trkpt><trkpt lat="43.69127224040158" lon="11.939125828361458"><ele>863.5</ele><time>2026-05-04T13:34:34Z</time></trkpt><trkpt lat="43.69135815239787" lon="11.939008103385808"><ele>866.0</ele><time>2026-05-04T13:34:35Z</time></trkpt><trkpt lat="43.69144657088943" lon="11.938891916595601"><ele>867.25</ele><time>2026-05-04T13:34:36Z</time></trkpt><trkpt lat="43.691541950070736" lon="11.938795228464208"><ele>868.5</ele><time>2026-05-04T13:34:37Z</time></trkpt><trkpt lat="43.6916412433076" lon="11.938686098912434"><ele>869.75</ele><time>2026-05-04T13:34:38Z</time></trkpt><trkpt lat="43.6917637030413" lon="11.938612785395284"><ele>871.0</ele><time>2026-05-04T13:34:39Z</time></trkpt><trkpt lat="43.691882820563414" lon="11.93854831387186"><ele>872.75</ele><time>2026-05-04T13:34:40Z</time></trkpt><trkpt lat="43.692006366494624" lon="11.938484046898623"><ele>874.5</ele><time>2026-05-04T13:34:41Z</time></trkpt><trkpt lat="43.69212624942206" lon="11.938422700682962"><ele>876.25</ele><time>2026-05-04T13:34:42Z</time></trkpt><trkpt lat="43.69223253476877" lon="11.938362459557311"><ele>878.0</ele><time>2026-05-04T13:34:43Z</time></trkpt><trkpt lat="43.69234288779246" lon="11.938324123172416"><ele>878.0</ele><time>2026-05-04T13:34:44Z</time></trkpt><trkpt lat="43.692448402187566" lon="11.93826627391893"><ele>878.0</ele><time>2026-05-04T13:34:45Z</time></trkpt><trkpt lat="43.69255173900521" lon="11.938187602947131"><ele>878.0</ele><time>2026-05-04T13:34:46Z</time></trkpt><trkpt lat="43.69266309034034" lon="11.93813165922718"><ele>878.0</ele><time>2026-05-04T13:34:47Z</time></trkpt><trkpt lat="43.692769821467394" lon="11.938070503209703"><ele>879.5999999999999</ele><time>2026-05-04T13:34:48Z</time></trkpt><trkpt lat="43.69287460837946" lon="11.938039712295012"><ele>881.1999999999999</ele><time>2026-05-04T13:34:49Z</time></trkpt><trkpt lat="43.69296434226085" lon="11.937990987827998"><ele>882.8</ele><time>2026-05-04T13:34:50.001Z</time></trkpt><trkpt lat="43.69304663060785" lon="11.93794630622026"><ele>884.4</ele><time>2026-05-04T13:34:51.001Z</time></trkpt><trkpt lat="43.69313526683253" lon="11.937897881133807"><ele>886.0</ele><time>2026-05-04T13:34:52.001Z</time></trkpt><trkpt lat="43.69322281568866" lon="11.937832263313135"><ele>886.0</ele><time>2026-05-04T13:34:53.001Z</time></trkpt><trkpt lat="43.69331968805775" lon="11.937772701696286"><ele>886.0</ele><time>2026-05-04T13:34:54.001Z</time></trkpt><trkpt lat="43.69342723397842" lon="11.937716241520219"><ele>886.0</ele><time>2026-05-04T13:34:55.001Z</time></trkpt><trkpt lat="43.693517975106104" lon="11.937607717046435"><ele>886.0</ele><time>2026-05-04T13:34:56.001Z</time></trkpt><trkpt lat="43.693612281537995" lon="11.937499355485993"><ele>887.25</ele><time>2026-05-04T13:34:57.001Z</time></trkpt><trkpt lat="43.69370423346222" lon="11.937376100968867"><ele>888.5</ele><time>2026-05-04T13:34:58Z</time></trkpt><trkpt lat="43.69379497561281" lon="11.937253186394392"><ele>889.75</ele><time>2026-05-04T13:34:59Z</time></trkpt><trkpt lat="43.69388541588895" lon="11.93713072056559"><ele>891.0</ele><time>2026-05-04T13:35:00Z</time></trkpt><trkpt lat="43.6939823933768" lon="11.937006451023684"><ele>891.0</ele><time>2026-05-04T13:35:01Z</time></trkpt><trkpt lat="43.694076404865456" lon="11.936883429337925"><ele>891.0</ele><time>2026-05-04T13:35:02Z</time></trkpt><trkpt lat="43.694170062899374" lon="11.936760293762536"><ele>891.0</ele><time>2026-05-04T13:35:03Z</time></trkpt><trkpt lat="43.69426510281523" lon="11.93663818981404"><ele>891.0</ele><time>2026-05-04T13:35:04Z</time></trkpt><trkpt lat="43.69436297102352" lon="11.936511452255838"><ele>893.5</ele><time>2026-05-04T13:35:05Z</time></trkpt><trkpt lat="43.694456480107554" lon="11.936381133862922"><ele>896.0</ele><time>2026-05-04T13:35:06Z</time></trkpt><trkpt lat="43.69454950889245" lon="11.936252892735858"><ele>898.5</ele><time>2026-05-04T13:35:07Z</time></trkpt><trkpt lat="43.6946400926236" lon="11.936130619313085"><ele>901.0</ele><time>2026-05-04T13:35:08Z</time></trkpt><trkpt lat="43.6947288378554" lon="11.936012672616148"><ele>900.9999999999999</ele><time>2026-05-04T13:35:09Z</time></trkpt><trkpt lat="43.69481106190802" lon="11.935904067789837"><ele>901.0</ele><time>2026-05-04T13:35:10Z</time></trkpt><trkpt lat="43.694879532271194" lon="11.935818663087746"><ele>901.0</ele><time>2026-05-04T13:35:11Z</time></trkpt><trkpt lat="43.69494495047293" lon="11.935757196675036"><ele>901.0</ele><time>2026-05-04T13:35:12Z</time></trkpt><trkpt lat="43.695001519177744" lon="11.935707842856909"><ele>900.9999999999999</ele><time>2026-05-04T13:35:13Z</time></trkpt><trkpt lat="43.69509086409894" lon="11.935752932450098"><ele>901.0</ele><time>2026-05-04T13:35:14Z</time></trkpt><trkpt lat="43.69516060528355" lon="11.935821102538684"><ele>901.0</ele><time>2026-05-04T13:35:15Z</time></trkpt><trkpt lat="43.69520176838305" lon="11.935902568247228"><ele>900.9999999999999</ele><time>2026-05-04T13:35:16Z</time></trkpt><trkpt lat="43.69521047529205" lon="11.936054247015655"><ele>900.9999999999999</ele><time>2026-05-04T13:35:18Z</time></trkpt><trkpt lat="43.695300778229594" lon="11.936018926012409"><ele>901.0</ele><time>2026-05-04T13:35:19Z</time></trkpt><trkpt lat="43.695220472168806" lon="11.936077817828822"><ele>901.0</ele><time>2026-05-04T13:35:20Z</time></trkpt><trkpt lat="43.69535912033737" lon="11.936027371165144"><ele>902.4999999999999</ele><time>2026-05-04T13:35:21Z</time></trkpt><trkpt lat="43.695393828451145" lon="11.935945536009484"><ele>904.0</ele><time>2026-05-04T13:35:22Z</time></trkpt><trkpt lat="43.695424075458455" lon="11.935859308244211"><ele>905.5</ele><time>2026-05-04T13:35:23Z</time></trkpt><trkpt lat="43.69546535992429" lon="11.935766431965348"><ele>907.0</ele><time>2026-05-04T13:35:24Z</time></trkpt><trkpt lat="43.69550503634952" lon="11.935650938756407"><ele>908.4999999999999</ele><time>2026-05-04T13:35:25Z</time></trkpt><trkpt lat="43.695546430284644" lon="11.935525863109243"><ele>910.0</ele><time>2026-05-04T13:35:26Z</time></trkpt><trkpt lat="43.69558328071336" lon="11.935398507941057"><ele>910.0</ele><time>2026-05-04T13:35:27Z</time></trkpt><trkpt lat="43.695624995825426" lon="11.93526587708711"><ele>910.0</ele><time>2026-05-04T13:35:28Z</time></trkpt><trkpt lat="43.69567377084961" lon="11.935123596574549"><ele>910.0</ele><time>2026-05-04T13:35:29Z</time></trkpt><trkpt lat="43.69573015855918" lon="11.934965294447137"><ele>910.0</ele><time>2026-05-04T13:35:30Z</time></trkpt><trkpt lat="43.69578702847006" lon="11.934802687050274"><ele>909.25</ele><time>2026-05-04T13:35:31Z</time></trkpt><trkpt lat="43.69584310052279" lon="11.934636871452476"><ele>908.5</ele><time>2026-05-04T13:35:32Z</time></trkpt><trkpt lat="43.69589723725857" lon="11.934469435887864"><ele>907.75</ele><time>2026-05-04T13:35:33Z</time></trkpt><trkpt lat="43.69594879728917" lon="11.934301091415835"><ele>907.0</ele><time>2026-05-04T13:35:34Z</time></trkpt><trkpt lat="43.69599283789244" lon="11.93412613012287"><ele>907.0</ele><time>2026-05-04T13:35:35Z</time></trkpt><trkpt lat="43.69602321940768" lon="11.933949636620193"><ele>907.0</ele><time>2026-05-04T13:35:36Z</time></trkpt><trkpt lat="43.69604013658584" lon="11.933765284129938"><ele>907.0</ele><time>2026-05-04T13:35:37Z</time></trkpt><trkpt lat="43.69604317225942" lon="11.93357468718221"><ele>907.0</ele><time>2026-05-04T13:35:38Z</time></trkpt><trkpt lat="43.69605028500524" lon="11.933384658386043"><ele>907.5</ele><time>2026-05-04T13:35:39Z</time></trkpt><trkpt lat="43.69606395349206" lon="11.933187228747428"><ele>908.0</ele><time>2026-05-04T13:35:40Z</time></trkpt><trkpt lat="43.696085439637066" lon="11.932988952409072"><ele>908.5</ele><time>2026-05-04T13:35:41Z</time></trkpt><trkpt lat="43.69611259832272" lon="11.932798741471151"><ele>909.0</ele><time>2026-05-04T13:35:42Z</time></trkpt><trkpt lat="43.696148640034494" lon="11.932607728907897"><ele>912.75</ele><time>2026-05-04T13:35:43Z</time></trkpt><trkpt lat="43.6961901560821" lon="11.932417021510217"><ele>916.5</ele><time>2026-05-04T13:35:44Z</time></trkpt><trkpt lat="43.69623515836338" lon="11.932236718974979"><ele>920.25</ele><time>2026-05-04T13:35:45Z</time></trkpt><trkpt lat="43.6962830187806" lon="11.932057212972897"><ele>924.0</ele><time>2026-05-04T13:35:46Z</time></trkpt><trkpt lat="43.69632678135185" lon="11.931902567493264"><ele>924.0</ele><time>2026-05-04T13:35:47Z</time></trkpt><trkpt lat="43.69635659050159" lon="11.93177862372799"><ele>924.0000000000001</ele><time>2026-05-04T13:35:48Z</time></trkpt><trkpt lat="43.696362240948176" lon="11.931666471325237"><ele>924.0000000000001</ele><time>2026-05-04T13:35:49Z</time></trkpt><trkpt lat="43.69634716463796" lon="11.931540655212956"><ele>924.0</ele><time>2026-05-04T13:35:50Z</time></trkpt><trkpt lat="43.69627616726974" lon="11.931433684307036"><ele>924.0</ele><time>2026-05-04T13:35:51Z</time></trkpt><trkpt lat="43.696184989357576" lon="11.931369445503902"><ele>924.8333333333334</ele><time>2026-05-04T13:35:52Z</time></trkpt><trkpt lat="43.696115914332516" lon="11.931318475669713"><ele>925.6666666666667</ele><time>2026-05-04T13:35:53Z</time></trkpt><trkpt lat="43.69606678209913" lon="11.931237189849625"><ele>926.5</ele><time>2026-05-04T13:35:55Z</time></trkpt><trkpt lat="43.69605455623459" lon="11.931146050627428"><ele>927.3333333333334</ele><time>2026-05-04T13:35:57Z</time></trkpt><trkpt lat="43.69611372540519" lon="11.931105095568062"><ele>928.1666666666667</ele><time>2026-05-04T13:35:58Z</time></trkpt><trkpt lat="43.69618077355976" lon="11.930974445712764"><ele>929.0</ele><time>2026-05-04T13:36:00Z</time></trkpt><trkpt lat="43.69621990513016" lon="11.930886023868014"><ele>929.8333333333334</ele><time>2026-05-04T13:36:01Z</time></trkpt><trkpt lat="43.69627777670367" lon="11.930809251207172"><ele>930.6666666666667</ele><time>2026-05-04T13:36:02Z</time></trkpt><trkpt lat="43.696332766545666" lon="11.930733442989204"><ele>931.5</ele><time>2026-05-04T13:36:03Z</time></trkpt><trkpt lat="43.696393340976755" lon="11.930639388427378"><ele>932.3333333333333</ele><time>2026-05-04T13:36:04Z</time></trkpt><trkpt lat="43.69644573868676" lon="11.930559528956612"><ele>933.1666666666666</ele><time>2026-05-04T13:36:05Z</time></trkpt><trkpt lat="43.696499637202116" lon="11.930506434583787"><ele>934.0</ele><time>2026-05-04T13:36:06Z</time></trkpt><trkpt lat="43.69655107715577" lon="11.930434021184002"><ele>933.9999999999999</ele><time>2026-05-04T13:36:08Z</time></trkpt><trkpt lat="43.69661806255542" lon="11.930411210301914"><ele>934.0</ele><time>2026-05-04T13:36:10Z</time></trkpt><trkpt lat="43.69666951322092" lon="11.93032450208741"><ele>934.0</ele><time>2026-05-04T13:36:11Z</time></trkpt><trkpt lat="43.696754339706956" lon="11.930246458510418"><ele>934.0</ele><time>2026-05-04T13:36:12Z</time></trkpt><trkpt lat="43.696813760321334" lon="11.930212675313983"><ele>933.9999999999999</ele><time>2026-05-04T13:36:13Z</time></trkpt><trkpt lat="43.6969254317371" lon="11.93014695740195"><ele>934.0</ele><time>2026-05-04T13:36:14Z</time></trkpt><trkpt lat="43.697057510918526" lon="11.930113181014649"><ele>933.5</ele><time>2026-05-04T13:36:15Z</time></trkpt><trkpt lat="43.69719878487096" lon="11.930102186942522"><ele>933.0</ele><time>2026-05-04T13:36:16Z</time></trkpt><trkpt lat="43.69734498744151" lon="11.930081708440063"><ele>932.5</ele><time>2026-05-04T13:36:17Z</time></trkpt><trkpt lat="43.69747226052616" lon="11.930013877068795"><ele>932.0</ele><time>2026-05-04T13:36:18Z</time></trkpt><trkpt lat="43.69759612173522" lon="11.929954371300184"><ele>932.0</ele><time>2026-05-04T13:36:19Z</time></trkpt><trkpt lat="43.69770567006528" lon="11.929892338473996"><ele>932.0</ele><time>2026-05-04T13:36:20Z</time></trkpt><trkpt lat="43.697811797042625" lon="11.92981876904925"><ele>932.0</ele><time>2026-05-04T13:36:21Z</time></trkpt><trkpt lat="43.69791453063891" lon="11.929726058534877"><ele>932.0</ele><time>2026-05-04T13:36:22Z</time></trkpt><trkpt lat="43.69801254976963" lon="11.929608661623698"><ele>932.5</ele><time>2026-05-04T13:36:23Z</time></trkpt><trkpt lat="43.698098503012496" lon="11.929464469021756"><ele>933.0</ele><time>2026-05-04T13:36:24Z</time></trkpt><trkpt lat="43.6981697453863" lon="11.929292323142338"><ele>933.5</ele><time>2026-05-04T13:36:25Z</time></trkpt><trkpt lat="43.698248238461446" lon="11.929110660754917"><ele>934.0</ele><time>2026-05-04T13:36:26Z</time></trkpt><trkpt lat="43.6983267601771" lon="11.928948755892652"><ele>934.0</ele><time>2026-05-04T13:36:27Z</time></trkpt><trkpt lat="43.69839200606665" lon="11.928799136160197"><ele>934.0000000000001</ele><time>2026-05-04T13:36:28Z</time></trkpt><trkpt lat="43.69845725814894" lon="11.92867335619531"><ele>934.0000000000001</ele><time>2026-05-04T13:36:29Z</time></trkpt><trkpt lat="43.69850915680178" lon="11.928554106536502"><ele>934.0</ele><time>2026-05-04T13:36:30Z</time></trkpt><trkpt lat="43.698549724465614" lon="11.928447494516522"><ele>934.0</ele><time>2026-05-04T13:36:31Z</time></trkpt><trkpt lat="43.69856745233137" lon="11.928347677788686"><ele>931.4000000000001</ele><time>2026-05-04T13:36:32.001Z</time></trkpt><trkpt lat="43.69855495696543" lon="11.928245615914884"><ele>928.8000000000001</ele><time>2026-05-04T13:36:33.001Z</time></trkpt><trkpt lat="43.698491506390766" lon="11.928157343885662"><ele>926.1999999999999</ele><time>2026-05-04T13:36:34.001Z</time></trkpt><trkpt lat="43.69839532668726" lon="11.928098023963894"><ele>923.5999999999999</ele><time>2026-05-04T13:36:35.001Z</time></trkpt><trkpt lat="43.69823868590583" lon="11.92803990061918"><ele>921.0</ele><time>2026-05-04T13:36:36.001Z</time></trkpt><trkpt lat="43.69811648295943" lon="11.927991431297377"><ele>921.0</ele><time>2026-05-04T13:36:37.001Z</time></trkpt><trkpt lat="43.698024366193096" lon="11.92793581165453"><ele>920.9999999999999</ele><time>2026-05-04T13:36:38.001Z</time></trkpt><trkpt lat="43.6979516483162" lon="11.927881773399866"><ele>920.9999999999999</ele><time>2026-05-04T13:36:39.001Z</time></trkpt><trkpt lat="43.69785728368395" lon="11.927809907837412"><ele>921.0</ele><time>2026-05-04T13:36:40.001Z</time></trkpt><trkpt lat="43.69777650696026" lon="11.92766502419076"><ele>921.0</ele><time>2026-05-04T13:36:41.001Z</time></trkpt><trkpt lat="43.697706982190134" lon="11.927536745202548"><ele>916.75</ele><time>2026-05-04T13:36:42.001Z</time></trkpt><trkpt lat="43.69765470492923" lon="11.927417305347515"><ele>912.5</ele><time>2026-05-04T13:36:43.001Z</time></trkpt><trkpt lat="43.69760289641154" lon="11.92728859954735"><ele>908.25</ele><time>2026-05-04T13:36:44.001Z</time></trkpt><trkpt lat="43.69760867502877" lon="11.9271176261876"><ele>904.0</ele><time>2026-05-04T13:36:45.001Z</time></trkpt><trkpt lat="43.69756514703076" lon="11.92695207216569"><ele>904.0</ele><time>2026-05-04T13:36:46.001Z</time></trkpt><trkpt lat="43.697505941498235" lon="11.92680042544879"><ele>904.0</ele><time>2026-05-04T13:36:47.001Z</time></trkpt><trkpt lat="43.69743693244924" lon="11.926665889930065"><ele>904.0</ele><time>2026-05-04T13:36:48.001Z</time></trkpt><trkpt lat="43.69728835267129" lon="11.926527653505609"><ele>904.0</ele><time>2026-05-04T13:36:49.001Z</time></trkpt><trkpt lat="43.697176993039946" lon="11.926389607853345"><ele>902.75</ele><time>2026-05-04T13:36:50.001Z</time></trkpt><trkpt lat="43.697066396403905" lon="11.926254297287764"><ele>901.5</ele><time>2026-05-04T13:36:51.001Z</time></trkpt><trkpt lat="43.69697021567403" lon="11.926120509357826"><ele>900.25</ele><time>2026-05-04T13:36:52.001Z</time></trkpt><trkpt lat="43.696880719194404" lon="11.925989937716913"><ele>899.0</ele><time>2026-05-04T13:36:53.001Z</time></trkpt><trkpt lat="43.69682765352911" lon="11.925867651811119"><ele>897.4000000000001</ele><time>2026-05-04T13:36:54.001Z</time></trkpt><trkpt lat="43.69677333840056" lon="11.925802336890955"><ele>895.8000000000001</ele><time>2026-05-04T13:36:55.001Z</time></trkpt><trkpt lat="43.696743756019785" lon="11.92571439872034"><ele>894.1999999999999</ele><time>2026-05-04T13:36:57.001Z</time></trkpt><trkpt lat="43.696870256125294" lon="11.925642209876628"><ele>892.5999999999999</ele><time>2026-05-04T13:36:58.001Z</time></trkpt><trkpt lat="43.69690019754265" lon="11.925470439757184"><ele>891.0</ele><time>2026-05-04T13:37:00.001Z</time></trkpt><trkpt lat="43.6969462316414" lon="11.925385090377503"><ele>891.0</ele><time>2026-05-04T13:37:01.001Z</time></trkpt><trkpt lat="43.696989468472154" lon="11.925303872286184"><ele>891.0</ele><time>2026-05-04T13:37:02.001Z</time></trkpt><trkpt lat="43.697029597716124" lon="11.925214386136284"><ele>891.0</ele><time>2026-05-04T13:37:03.001Z</time></trkpt><trkpt lat="43.69707323437105" lon="11.925103390534836"><ele>891.0</ele><time>2026-05-04T13:37:05Z</time></trkpt><trkpt lat="43.69703784663894" lon="11.925229380572084"><ele>891.0</ele><time>2026-05-04T13:37:15Z</time></trkpt><trkpt lat="43.696987367975545" lon="11.925283335259657"><ele>891.0</ele><time>2026-05-04T13:37:16Z</time></trkpt><trkpt lat="43.6969156918387" lon="11.925399031992313"><ele>891.0</ele><time>2026-05-04T13:37:18Z</time></trkpt><trkpt lat="43.69687310931835" lon="11.92530245910516"><ele>890.9999999999999</ele><time>2026-05-04T13:37:21Z</time></trkpt><trkpt lat="43.69696023333857" lon="11.925233240724886"><ele>890.9999999999999</ele><time>2026-05-04T13:37:24Z</time></trkpt><trkpt lat="43.69700355067053" lon="11.925129615261241"><ele>891.0</ele><time>2026-05-04T13:37:26Z</time></trkpt><trkpt lat="43.697008751277906" lon="11.924977709013909"><ele>891.0</ele><time>2026-05-04T13:37:28Z</time></trkpt><trkpt lat="43.697017157498415" lon="11.924876531523509"><ele>889.3333333333334</ele><time>2026-05-04T13:37:29Z</time></trkpt><trkpt lat="43.69703372876188" lon="11.924771694600151"><ele>887.6666666666667</ele><time>2026-05-04T13:37:30Z</time></trkpt><trkpt lat="43.6970554321537" lon="11.924668023889721"><ele>886.0</ele><time>2026-05-04T13:37:31Z</time></trkpt><trkpt lat="43.69707856288182" lon="11.924546744787788"><ele>884.3333333333334</ele><time>2026-05-04T13:37:32Z</time></trkpt><trkpt lat="43.69711069759766" lon="11.924445551381956"><ele>882.6666666666667</ele><time>2026-05-04T13:37:33Z</time></trkpt><trkpt lat="43.69714159666669" lon="11.924348627996514"><ele>881.0</ele><time>2026-05-04T13:37:34Z</time></trkpt><trkpt lat="43.69717515664256" lon="11.924247965520413"><ele>880.3333333333334</ele><time>2026-05-04T13:37:35Z</time></trkpt><trkpt lat="43.697225297299646" lon="11.924115935372004"><ele>879.6666666666667</ele><time>2026-05-04T13:37:36Z</time></trkpt><trkpt lat="43.697281929256874" lon="11.923986813587902"><ele>879.0</ele><time>2026-05-04T13:37:37Z</time></trkpt><trkpt lat="43.697329285750136" lon="11.923892732224262"><ele>878.3333333333333</ele><time>2026-05-04T13:37:38Z</time></trkpt><trkpt lat="43.69737488293063" lon="11.923802866389321"><ele>877.6666666666666</ele><time>2026-05-04T13:37:39Z</time></trkpt><trkpt lat="43.69741971542086" lon="11.923735277801745"><ele>877.0</ele><time>2026-05-04T13:37:40Z</time></trkpt><trkpt lat="43.69747494644088" lon="11.923678132024472"><ele>877.0</ele><time>2026-05-04T13:37:41Z</time></trkpt><trkpt lat="43.697571606489134" lon="11.923674546212213"><ele>877.0</ele><time>2026-05-04T13:37:42Z</time></trkpt><trkpt lat="43.697657785253575" lon="11.923632299146712"><ele>877.0</ele><time>2026-05-04T13:37:43Z</time></trkpt><trkpt lat="43.697727770028266" lon="11.923582526761594"><ele>877.0</ele><time>2026-05-04T13:37:44Z</time></trkpt><trkpt lat="43.697817995755265" lon="11.923682516385401"><ele>877.0</ele><time>2026-05-04T13:37:45Z</time></trkpt><trkpt lat="43.6979171383474" lon="11.923648253967574"><ele>879.2</ele><time>2026-05-04T13:37:47Z</time></trkpt><trkpt lat="43.6980540114472" lon="11.923552989432727"><ele>881.4000000000001</ele><time>2026-05-04T13:37:48Z</time></trkpt><trkpt lat="43.698088506356065" lon="11.923479201387238"><ele>883.5999999999999</ele><time>2026-05-04T13:37:49Z</time></trkpt><trkpt lat="43.69811867613409" lon="11.923393533837537"><ele>885.8</ele><time>2026-05-04T13:37:50Z</time></trkpt><trkpt lat="43.6981501342766" lon="11.923294909896619"><ele>888.0</ele><time>2026-05-04T13:37:51Z</time></trkpt><trkpt lat="43.697807763403766" lon="11.92287644435952"><ele>888.0</ele><time>2026-05-04T13:37:52Z</time></trkpt><trkpt lat="43.69780421849869" lon="11.92276794154654"><ele>888.0</ele><time>2026-05-04T13:37:53Z</time></trkpt><trkpt lat="43.69774931171673" lon="11.922622503500248"><ele>888.0</ele><time>2026-05-04T13:37:55Z</time></trkpt><trkpt lat="43.697682081069466" lon="11.922458949190728"><ele>888.0</ele><time>2026-05-04T13:37:57Z</time></trkpt><trkpt lat="43.69764464075696" lon="11.922293134993653"><ele>889.8</ele><time>2026-05-04T13:37:59Z</time></trkpt><trkpt lat="43.69764794928484" lon="11.92214281704365"><ele>891.5999999999999</ele><time>2026-05-04T13:38:01Z</time></trkpt><trkpt lat="43.69770072513771" lon="11.92199233595833"><ele>893.4000000000001</ele><time>2026-05-04T13:38:03Z</time></trkpt><trkpt lat="43.6977391552396" lon="11.92191467162552"><ele>895.2</ele><time>2026-05-04T13:38:04Z</time></trkpt><trkpt lat="43.69780636153679" lon="11.921794416587783"><ele>897.0</ele><time>2026-05-04T13:38:06Z</time></trkpt><trkpt lat="43.697836690200276" lon="11.92170162522371"><ele>897.1428571428571</ele><time>2026-05-04T13:38:08Z</time></trkpt><trkpt lat="43.69784247217004" lon="11.921607922862568"><ele>897.2857142857142</ele><time>2026-05-04T13:38:10Z</time></trkpt><trkpt lat="43.6978487750622" lon="11.921510184243449"><ele>897.4285714285713</ele><time>2026-05-04T13:38:23.001Z</time></trkpt><trkpt lat="43.69784712068202" lon="11.921401416876652"><ele>897.5714285714286</ele><time>2026-05-04T13:38:25.001Z</time></trkpt><trkpt lat="43.697840364934265" lon="11.921307294193467"><ele>897.7142857142856</ele><time>2026-05-04T13:38:26.001Z</time></trkpt><trkpt lat="43.69782031261341" lon="11.921196633392013"><ele>897.8571428571428</ele><time>2026-05-04T13:38:27.001Z</time></trkpt><trkpt lat="43.69779588597913" lon="11.921096820822713"><ele>898.0</ele><time>2026-05-04T13:38:28.001Z</time></trkpt><trkpt lat="43.697764683426826" lon="11.921020482461076"><ele>895.0</ele><time>2026-05-04T13:38:29.001Z</time></trkpt><trkpt lat="43.69770990987383" lon="11.920922553401704"><ele>892.0</ele><time>2026-05-04T13:38:31.001Z</time></trkpt><trkpt lat="43.69759749600822" lon="11.920843290531211"><ele>889.0</ele><time>2026-05-04T13:38:33.001Z</time></trkpt><trkpt lat="43.69752917805403" lon="11.920822137270246"><ele>886.0</ele><time>2026-05-04T13:38:34.001Z</time></trkpt><trkpt lat="43.69744295994395" lon="11.920730829425121"><ele>883.0</ele><time>2026-05-04T13:38:36.001Z</time></trkpt><trkpt lat="43.69740210259593" lon="11.920619199064292"><ele>883.0</ele><time>2026-05-04T13:38:38.001Z</time></trkpt><trkpt lat="43.69737185977243" lon="11.920508608833734"><ele>883.0</ele><time>2026-05-04T13:38:40.001Z</time></trkpt><trkpt lat="43.69735123466615" lon="11.92040739484997"><ele>883.0</ele><time>2026-05-04T13:38:41.001Z</time></trkpt><trkpt lat="43.697351471406286" lon="11.92022981108197"><ele>883.0</ele><time>2026-05-04T13:38:43.001Z</time></trkpt><trkpt lat="43.69736445758659" lon="11.920053994852102"><ele>883.0</ele><time>2026-05-04T13:38:45.001Z</time></trkpt><trkpt lat="43.69734816564053" lon="11.919955140140887"><ele>883.6666666666666</ele><time>2026-05-04T13:38:46.001Z</time></trkpt><trkpt lat="43.69732360791871" lon="11.919853030751321"><ele>884.3333333333333</ele><time>2026-05-04T13:38:47.001Z</time></trkpt><trkpt lat="43.69730929346123" lon="11.91974695147914"><ele>885.0</ele><time>2026-05-04T13:38:48.001Z</time></trkpt><trkpt lat="43.697314302122" lon="11.919657626821369"><ele>885.6666666666667</ele><time>2026-05-04T13:38:49.001Z</time></trkpt><trkpt lat="43.6973264293297" lon="11.91956356313257"><ele>886.3333333333334</ele><time>2026-05-04T13:38:50.001Z</time></trkpt><trkpt lat="43.69734812258916" lon="11.919456578814083"><ele>887.0</ele><time>2026-05-04T13:38:52.001Z</time></trkpt><trkpt lat="43.69743637537659" lon="11.919357176893929"><ele>887.0</ele><time>2026-05-04T13:38:54.001Z</time></trkpt><trkpt lat="43.69749418863128" lon="11.919289421222027"><ele>887.0</ele><time>2026-05-04T13:38:55.001Z</time></trkpt><trkpt lat="43.697543061918694" lon="11.919195476512678"><ele>887.0</ele><time>2026-05-04T13:38:56.001Z</time></trkpt><trkpt lat="43.697593494179884" lon="11.919084178729813"><ele>887.0</ele><time>2026-05-04T13:38:57.001Z</time></trkpt><trkpt lat="43.69765105266564" lon="11.91897014967034"><ele>887.0</ele><time>2026-05-04T13:38:58.001Z</time></trkpt><trkpt lat="43.69773079106332" lon="11.918851307413243"><ele>890.2</ele><time>2026-05-04T13:38:59.001Z</time></trkpt><trkpt lat="43.69779673409496" lon="11.91877374344788"><ele>893.4000000000001</ele><time>2026-05-04T13:39:00.001Z</time></trkpt><trkpt lat="43.69782887103469" lon="11.918668701420309"><ele>896.5999999999999</ele><time>2026-05-04T13:39:02.001Z</time></trkpt><trkpt lat="43.697793831714705" lon="11.918527469803358"><ele>899.8</ele><time>2026-05-04T13:39:06.001Z</time></trkpt><trkpt lat="43.697757408824614" lon="11.918334860220588"><ele>903.0</ele><time>2026-05-04T13:39:08.001Z</time></trkpt><trkpt lat="43.69772945195002" lon="11.918232843939169"><ele>903.0</ele><time>2026-05-04T13:39:09.001Z</time></trkpt><trkpt lat="43.69769067496643" lon="11.918156744748208"><ele>903.0</ele><time>2026-05-04T13:39:10.001Z</time></trkpt><trkpt lat="43.69765158766322" lon="11.918088123126418"><ele>903.0</ele><time>2026-05-04T13:39:11.001Z</time></trkpt><trkpt lat="43.697609794150516" lon="11.918012277092114"><ele>903.0</ele><time>2026-05-04T13:39:12.001Z</time></trkpt><trkpt lat="43.69755666819265" lon="11.917939862047717"><ele>903.0</ele><time>2026-05-04T13:39:13.001Z</time></trkpt><trkpt lat="43.697517827176824" lon="11.917865220038403"><ele>903.0</ele><time>2026-05-04T13:39:14.001Z</time></trkpt><trkpt lat="43.69748878870874" lon="11.917785400837602"><ele>903.0</ele><time>2026-05-04T13:39:15.001Z</time></trkpt><trkpt lat="43.697450017996815" lon="11.917677385629954"><ele>903.0</ele><time>2026-05-04T13:39:16.001Z</time></trkpt><trkpt lat="43.69741396462889" lon="11.917587296038507"><ele>903.0</ele><time>2026-05-04T13:39:17.001Z</time></trkpt><trkpt lat="43.69735784975968" lon="11.91753850057184"><ele>903.0</ele><time>2026-05-04T13:39:18.001Z</time></trkpt><trkpt lat="43.69730050229025" lon="11.917465038929196"><ele>903.0</ele><time>2026-05-04T13:39:19.001Z</time></trkpt><trkpt lat="43.69724890515188" lon="11.917392983589735"><ele>903.0</ele><time>2026-05-04T13:39:20.001Z</time></trkpt><trkpt lat="43.6972012854923" lon="11.91733151967349"><ele>903.0</ele><time>2026-05-04T13:39:21.001Z</time></trkpt><trkpt lat="43.69715313672304" lon="11.917274457690327"><ele>903.0</ele><time>2026-05-04T13:39:22.001Z</time></trkpt><trkpt lat="43.697100411105176" lon="11.91720901631302"><ele>901.0</ele><time>2026-05-04T13:39:23.001Z</time></trkpt><trkpt lat="43.697041717173185" lon="11.91708723528023"><ele>899.0</ele><time>2026-05-04T13:39:25Z</time></trkpt><trkpt lat="43.69701658051614" lon="11.916998917204022"><ele>897.0</ele><time>2026-05-04T13:39:26Z</time></trkpt><trkpt lat="43.69696732378848" lon="11.916838168303594"><ele>895.0</ele><time>2026-05-04T13:39:28Z</time></trkpt><trkpt lat="43.69679938604127" lon="11.916824515561155"><ele>897.6</ele><time>2026-05-04T13:39:29Z</time></trkpt><trkpt lat="43.696769084290835" lon="11.916716809048733"><ele>900.2</ele><time>2026-05-04T13:39:30Z</time></trkpt><trkpt lat="43.69674747819611" lon="11.916573979526305"><ele>902.8</ele><time>2026-05-04T13:39:31Z</time></trkpt><trkpt lat="43.69674202905232" lon="11.916441680192872"><ele>905.4</ele><time>2026-05-04T13:39:32Z</time></trkpt><trkpt lat="43.696770177159884" lon="11.916288421439779"><ele>908.0</ele><time>2026-05-04T13:39:33Z</time></trkpt><trkpt lat="43.69678272729106" lon="11.916184053121254"><ele>908.0</ele><time>2026-05-04T13:39:34Z</time></trkpt><trkpt lat="43.6967930923837" lon="11.915986269787025"><ele>908.0</ele><time>2026-05-04T13:39:36Z</time></trkpt><trkpt lat="43.6967740393631" lon="11.915893632964424"><ele>908.0</ele><time>2026-05-04T13:39:37Z</time></trkpt><trkpt lat="43.696705214600804" lon="11.915827380817216"><ele>908.0</ele><time>2026-05-04T13:39:38Z</time></trkpt><trkpt lat="43.69664341145005" lon="11.915686461585741"><ele>908.0</ele><time>2026-05-04T13:39:40Z</time></trkpt><trkpt lat="43.69663204728609" lon="11.91559324607094"><ele>911.0</ele><time>2026-05-04T13:39:41Z</time></trkpt><trkpt lat="43.69661802341615" lon="11.915453314734037"><ele>914.0</ele><time>2026-05-04T13:39:43Z</time></trkpt><trkpt lat="43.69658150528649" lon="11.915249180909516"><ele>917.0</ele><time>2026-05-04T13:39:45Z</time></trkpt><trkpt lat="43.69654676968919" lon="11.915108996559649"><ele>920.0</ele><time>2026-05-04T13:39:46Z</time></trkpt><trkpt lat="43.696514281727985" lon="11.914992446199518"><ele>922.4</ele><time>2026-05-04T13:39:47Z</time></trkpt><trkpt lat="43.69649010460277" lon="11.914897297529032"><ele>924.8</ele><time>2026-05-04T13:39:48Z</time></trkpt><trkpt lat="43.69644937963544" lon="11.914705598621154"><ele>927.2</ele><time>2026-05-04T13:39:50Z</time></trkpt><trkpt lat="43.6964232864764" lon="11.914587508785296"><ele>929.6</ele><time>2026-05-04T13:39:51Z</time></trkpt><trkpt lat="43.69639169480142" lon="11.914436619971957"><ele>932.0</ele><time>2026-05-04T13:39:53Z</time></trkpt><trkpt lat="43.69634015179538" lon="11.914322214650987"><ele>933.0</ele><time>2026-05-04T13:39:55Z</time></trkpt><trkpt lat="43.69632231698746" lon="11.914215986961397"><ele>934.0</ele><time>2026-05-04T13:39:56Z</time></trkpt><trkpt lat="43.696294237908106" lon="11.91410748065102"><ele>935.0</ele><time>2026-05-04T13:39:57Z</time></trkpt><trkpt lat="43.696250803826175" lon="11.913994625473338"><ele>936.0</ele><time>2026-05-04T13:39:58Z</time></trkpt><trkpt lat="43.696238436449704" lon="11.913892593437023"><ele>937.0</ele><time>2026-05-04T13:39:59Z</time></trkpt><trkpt lat="43.69619236785064" lon="11.91372765693581"><ele>937.0</ele><time>2026-05-04T13:40:01Z</time></trkpt><trkpt lat="43.696135110261416" lon="11.913574468676964"><ele>937.0</ele><time>2026-05-04T13:40:03Z</time></trkpt><trkpt lat="43.69606766773533" lon="11.913462290193815"><ele>937.0</ele><time>2026-05-04T13:40:05Z</time></trkpt><trkpt lat="43.696044273824086" lon="11.913332013162021"><ele>937.0</ele><time>2026-05-04T13:40:07Z</time></trkpt><trkpt lat="43.696058317093815" lon="11.913157215458197"><ele>936.6666666666666</ele><time>2026-05-04T13:40:09Z</time></trkpt><trkpt lat="43.69607125723982" lon="11.913012605532588"><ele>936.3333333333333</ele><time>2026-05-04T13:40:11Z</time></trkpt><trkpt lat="43.69609185119091" lon="11.912928051641899"><ele>936.0</ele><time>2026-05-04T13:40:14Z</time></trkpt><trkpt lat="43.69610551254087" lon="11.912816204131614"><ele>935.6666666666667</ele><time>2026-05-04T13:40:39.001Z</time></trkpt><trkpt lat="43.696135966044736" lon="11.91270914292735"><ele>935.3333333333334</ele><time>2026-05-04T13:40:41.001Z</time></trkpt><trkpt lat="43.69618172547181" lon="11.912607370915667"><ele>935.0</ele><time>2026-05-04T13:40:44.001Z</time></trkpt><trkpt lat="43.696218435465006" lon="11.912536081680566"><ele>932.6666666666667</ele><time>2026-05-04T13:40:47.001Z</time></trkpt><trkpt lat="43.696249390842326" lon="11.912418615242572"><ele>930.3333333333334</ele><time>2026-05-04T13:40:51.001Z</time></trkpt><trkpt lat="43.69625626034743" lon="11.912313413581831"><ele>928.0</ele><time>2026-05-04T13:40:54.001Z</time></trkpt><trkpt lat="43.69627122885071" lon="11.912206805280016"><ele>925.6666666666667</ele><time>2026-05-04T13:40:57.001Z</time></trkpt><trkpt lat="43.69628227041384" lon="11.912097343951272"><ele>923.3333333333334</ele><time>2026-05-04T13:41:00.001Z</time></trkpt><trkpt lat="43.69628905606319" lon="11.912006242959166"><ele>921.0</ele><time>2026-05-04T13:41:51Z</time></trkpt><trkpt lat="43.69634777109393" lon="11.91195802265886"><ele>921.0</ele><time>2026-05-04T13:41:55Z</time></trkpt><trkpt lat="43.6963982419333" lon="11.91189128825348"><ele>921.0</ele><time>2026-05-04T13:42:01Z</time></trkpt><trkpt lat="43.69647495099515" lon="11.91183505058983"><ele>921.0</ele><time>2026-05-04T13:43:21.001Z</time></trkpt><trkpt lat="43.69639544840546" lon="11.91187852272798"><ele>921.0</ele><time>2026-05-04T13:43:36Z</time></trkpt><trkpt lat="43.696327346298254" lon="11.911966334083463"><ele>921.0</ele><time>2026-05-04T13:43:38Z</time></trkpt><trkpt lat="43.696278342931784" lon="11.91202633176202"><ele>921.0</ele><time>2026-05-04T13:43:41Z</time></trkpt><trkpt lat="43.69628953716055" lon="11.91215637485885"><ele>921.0</ele><time>2026-05-04T13:43:43Z</time></trkpt><trkpt lat="43.69626914188592" lon="11.912320814900262"><ele>920.9999999999999</ele><time>2026-05-04T13:43:45Z</time></trkpt><trkpt lat="43.69624711880988" lon="11.912462466112673"><ele>920.9999999999999</ele><time>2026-05-04T13:43:47Z</time></trkpt><trkpt lat="43.69619971001579" lon="11.912590732970278"><ele>921.0</ele><time>2026-05-04T13:43:49Z</time></trkpt><trkpt lat="43.696138433442044" lon="11.912692864947402"><ele>921.0</ele><time>2026-05-04T13:43:51Z</time></trkpt><trkpt lat="43.69608330331395" lon="11.912838598339924"><ele>921.1666666666666</ele><time>2026-05-04T13:43:53Z</time></trkpt><trkpt lat="43.69607419506262" lon="11.912936321646674"><ele>921.3333333333333</ele><time>2026-05-04T13:43:56Z</time></trkpt><trkpt lat="43.696126926089434" lon="11.912989028859771"><ele>921.5</ele><time>2026-05-04T13:53:58.999Z</time></trkpt><trkpt lat="43.696209152892315" lon="11.912922253303973"><ele>921.6666666666666</ele><time>2026-05-04T13:54:00.999Z</time></trkpt><trkpt lat="43.696290442150065" lon="11.912850653287544"><ele>921.8333333333333</ele><time>2026-05-04T13:54:02.999Z</time></trkpt><trkpt lat="43.696365884573105" lon="11.91283462892688"><ele>922.0</ele><time>2026-05-04T13:54:04.999Z</time></trkpt><trkpt lat="43.69645806600687" lon="11.912881929487602"><ele>924.1666666666666</ele><time>2026-05-04T13:54:06.999Z</time></trkpt><trkpt lat="43.69655462427288" lon="11.912973646334587"><ele>926.3333333333333</ele><time>2026-05-04T13:54:08.999Z</time></trkpt><trkpt lat="43.69660665461308" lon="11.913036916847958"><ele>928.5</ele><time>2026-05-04T13:54:09.999Z</time></trkpt><trkpt lat="43.69668303186171" lon="11.913076566654496"><ele>930.6666666666667</ele><time>2026-05-04T13:54:10.999Z</time></trkpt><trkpt lat="43.69676814299066" lon="11.913093451385654"><ele>932.8333333333334</ele><time>2026-05-04T13:54:11.999Z</time></trkpt><trkpt lat="43.69684959063655" lon="11.913080108659244"><ele>935.0</ele><time>2026-05-04T13:54:12.999Z</time></trkpt><trkpt lat="43.696926266938" lon="11.91304684851596"><ele>935.6666666666667</ele><time>2026-05-04T13:54:13.999Z</time></trkpt><trkpt lat="43.696984637665054" lon="11.912971192245122"><ele>936.3333333333334</ele><time>2026-05-04T13:54:14.999Z</time></trkpt><trkpt lat="43.697049210959804" lon="11.912913541108276"><ele>937.0</ele><time>2026-05-04T13:54:15.999Z</time></trkpt><trkpt lat="43.697117086064765" lon="11.912850869948205"><ele>937.6666666666667</ele><time>2026-05-04T13:54:16.999Z</time></trkpt><trkpt lat="43.697187967967835" lon="11.912793496477894"><ele>938.3333333333334</ele><time>2026-05-04T13:54:17.999Z</time></trkpt><trkpt lat="43.69726392898816" lon="11.91275259614406"><ele>939.0</ele><time>2026-05-04T13:54:18.999Z</time></trkpt><trkpt lat="43.697346916647035" lon="11.912750209991472"><ele>939.0</ele><time>2026-05-04T13:54:19.999Z</time></trkpt><trkpt lat="43.69742310938001" lon="11.912736382840853"><ele>939.0</ele><time>2026-05-04T13:54:20.999Z</time></trkpt><trkpt lat="43.69750259317496" lon="11.912727074168917"><ele>939.0</ele><time>2026-05-04T13:54:21.999Z</time></trkpt><trkpt lat="43.697634321397125" lon="11.912734439146956"><ele>939.0</ele><time>2026-05-04T13:54:23.999Z</time></trkpt><trkpt lat="43.697700128017864" lon="11.912783099040853"><ele>939.0</ele><time>2026-05-04T13:54:24.999Z</time></trkpt><trkpt lat="43.69776688913798" lon="11.912830745014086"><ele>939.0</ele><time>2026-05-04T13:54:25.999Z</time></trkpt><trkpt lat="43.69783872905884" lon="11.912864059113726"><ele>937.6666666666666</ele><time>2026-05-04T13:54:26.999Z</time></trkpt><trkpt lat="43.69789809479035" lon="11.912904222818007"><ele>936.3333333333333</ele><time>2026-05-04T13:54:27.999Z</time></trkpt><trkpt lat="43.69795932567694" lon="11.912946007074556"><ele>935.0</ele><time>2026-05-04T13:54:28.999Z</time></trkpt><trkpt lat="43.69803429627532" lon="11.913000518629685"><ele>933.6666666666666</ele><time>2026-05-04T13:54:29.999Z</time></trkpt><trkpt lat="43.69811311208274" lon="11.913058516865286"><ele>932.3333333333333</ele><time>2026-05-04T13:54:30.999Z</time></trkpt><trkpt lat="43.698194732142575" lon="11.913105986434152"><ele>931.0</ele><time>2026-05-04T13:54:31.999Z</time></trkpt><trkpt lat="43.69828468683991" lon="11.913142779763218"><ele>930.9999999999999</ele><time>2026-05-04T13:54:33Z</time></trkpt><trkpt lat="43.69836423347276" lon="11.91316791957016"><ele>931.0</ele><time>2026-05-04T13:54:34Z</time></trkpt><trkpt lat="43.698446979334506" lon="11.913164445561089"><ele>931.0</ele><time>2026-05-04T13:54:35Z</time></trkpt><trkpt lat="43.6985336719857" lon="11.913150117163568"><ele>931.0</ele><time>2026-05-04T13:54:36Z</time></trkpt><trkpt lat="43.69861254599772" lon="11.913119147687896"><ele>930.9999999999999</ele><time>2026-05-04T13:54:37Z</time></trkpt><trkpt lat="43.69869030245707" lon="11.913104785993863"><ele>931.0</ele><time>2026-05-04T13:54:38Z</time></trkpt><trkpt lat="43.698760213574595" lon="11.913089291669412"><ele>931.8333333333333</ele><time>2026-05-04T13:54:39Z</time></trkpt><trkpt lat="43.6988281028084" lon="11.91307203001475"><ele>932.6666666666666</ele><time>2026-05-04T13:54:40Z</time></trkpt><trkpt lat="43.698930482833724" lon="11.913030153611285"><ele>933.5</ele><time>2026-05-04T13:54:42Z</time></trkpt><trkpt lat="43.69896187335782" lon="11.912954188558649"><ele>934.3333333333333</ele><time>2026-05-04T13:54:45Z</time></trkpt><trkpt lat="43.69893878445225" lon="11.91286421582865"><ele>935.1666666666666</ele><time>2026-05-04T13:54:47Z</time></trkpt><trkpt lat="43.698880327388316" lon="11.912756311458201"><ele>936.0</ele><time>2026-05-04T13:54:49Z</time></trkpt><trkpt lat="43.69892349521358" lon="11.912580944650387"><ele>933.8333333333334</ele><time>2026-05-04T13:54:51Z</time></trkpt><trkpt lat="43.698974165774096" lon="11.912503455103222"><ele>931.6666666666667</ele><time>2026-05-04T13:54:52Z</time></trkpt><trkpt lat="43.69902677895946" lon="11.912425345697114"><ele>929.5</ele><time>2026-05-04T13:54:53Z</time></trkpt><trkpt lat="43.69908269018541" lon="11.912343162883689"><ele>927.3333333333334</ele><time>2026-05-04T13:54:54Z</time></trkpt><trkpt lat="43.69914704877877" lon="11.912255766898648"><ele>925.1666666666667</ele><time>2026-05-04T13:54:55Z</time></trkpt><trkpt lat="43.699210590113104" lon="11.91215552174221"><ele>923.0</ele><time>2026-05-04T13:54:56Z</time></trkpt><trkpt lat="43.69926457417415" lon="11.912046079409958"><ele>923.0</ele><time>2026-05-04T13:54:57Z</time></trkpt><trkpt lat="43.699305928772205" lon="11.911935353152106"><ele>923.0</ele><time>2026-05-04T13:54:58Z</time></trkpt><trkpt lat="43.69934759898012" lon="11.911818717304532"><ele>923.0</ele><time>2026-05-04T13:54:59Z</time></trkpt><trkpt lat="43.69939051313908" lon="11.91169695539123"><ele>923.0</ele><time>2026-05-04T13:55:00Z</time></trkpt><trkpt lat="43.69943732993962" lon="11.91156598164968"><ele>923.0</ele><time>2026-05-04T13:55:01Z</time></trkpt><trkpt lat="43.699476357232534" lon="11.911458523176405"><ele>922.6666666666667</ele><time>2026-05-04T13:55:02Z</time></trkpt><trkpt lat="43.69951855368706" lon="11.91135927818168"><ele>922.3333333333334</ele><time>2026-05-04T13:55:03Z</time></trkpt><trkpt lat="43.69954734509147" lon="11.911279564014606"><ele>922.0</ele><time>2026-05-04T13:55:04Z</time></trkpt><trkpt lat="43.69961942757714" lon="11.911188093530585"><ele>921.6666666666667</ele><time>2026-05-04T13:55:06Z</time></trkpt><trkpt lat="43.69965411568968" lon="11.911107931693243"><ele>921.3333333333334</ele><time>2026-05-04T13:55:08Z</time></trkpt><trkpt lat="43.69968458686781" lon="11.911028938750599"><ele>921.0</ele><time>2026-05-04T13:55:10Z</time></trkpt><trkpt lat="43.69957044482614" lon="11.910790623253892"><ele>918.1999999999999</ele><time>2026-05-04T13:55:11Z</time></trkpt><trkpt lat="43.69958980604946" lon="11.910704842885384"><ele>915.3999999999999</ele><time>2026-05-04T13:55:12Z</time></trkpt><trkpt lat="43.699633660721275" lon="11.910559922294569"><ele>912.6</ele><time>2026-05-04T13:55:14Z</time></trkpt><trkpt lat="43.699706688696494" lon="11.910444427777113"><ele>909.8</ele><time>2026-05-04T13:55:16Z</time></trkpt><trkpt lat="43.699774335506866" lon="11.910295507524438"><ele>907.0</ele><time>2026-05-04T13:55:18Z</time></trkpt><trkpt lat="43.69980047625993" lon="11.910206186565533"><ele>906.9999999999999</ele><time>2026-05-04T13:55:19Z</time></trkpt><trkpt lat="43.69982216805956" lon="11.910106032438495"><ele>907.0</ele><time>2026-05-04T13:55:20Z</time></trkpt><trkpt lat="43.69982595803742" lon="11.910015294066685"><ele>907.0</ele><time>2026-05-04T13:55:21Z</time></trkpt><trkpt lat="43.69980228367705" lon="11.909857251940071"><ele>907.0</ele><time>2026-05-04T13:55:23Z</time></trkpt><trkpt lat="43.699761018553495" lon="11.909735874027348"><ele>906.9999999999999</ele><time>2026-05-04T13:55:25Z</time></trkpt><trkpt lat="43.69977621275346" lon="11.909636675438321"><ele>907.0</ele><time>2026-05-04T13:55:30Z</time></trkpt><trkpt lat="43.699829953407956" lon="11.909577393503856"><ele>905.0</ele><time>2026-05-04T13:55:32Z</time></trkpt><trkpt lat="43.69991212736395" lon="11.909473332389723"><ele>903.0</ele><time>2026-05-04T13:55:34Z</time></trkpt><trkpt lat="43.69996193070934" lon="11.909397866316619"><ele>901.0</ele><time>2026-05-04T13:55:35Z</time></trkpt><trkpt lat="43.70004298470677" lon="11.90928890019235"><ele>899.0</ele><time>2026-05-04T13:55:37Z</time></trkpt><trkpt lat="43.700097543663404" lon="11.909225903908723"><ele>897.0</ele><time>2026-05-04T13:55:38Z</time></trkpt><trkpt lat="43.70016148669979" lon="11.90915413228032"><ele>894.6</ele><time>2026-05-04T13:55:39Z</time></trkpt><trkpt lat="43.70025320224086" lon="11.909028027771837"><ele>892.2</ele><time>2026-05-04T13:55:41Z</time></trkpt><trkpt lat="43.70029236245675" lon="11.908949544360683"><ele>889.8</ele><time>2026-05-04T13:55:42Z</time></trkpt><trkpt lat="43.70033631354009" lon="11.90886005337925"><ele>887.4</ele><time>2026-05-04T13:55:43Z</time></trkpt><trkpt lat="43.70038785818786" lon="11.908722674008018"><ele>885.0</ele><time>2026-05-04T13:55:45Z</time></trkpt><trkpt lat="43.70043888981711" lon="11.908567688700254"><ele>885.0</ele><time>2026-05-04T13:55:47Z</time></trkpt><trkpt lat="43.700490397358934" lon="11.908435599499025"><ele>885.0</ele><time>2026-05-04T13:55:49Z</time></trkpt><trkpt lat="43.70052629592069" lon="11.9082636840185"><ele>885.0</ele><time>2026-05-04T13:55:51Z</time></trkpt><trkpt lat="43.70054326501154" lon="11.908178178966397"><ele>885.0</ele><time>2026-05-04T13:55:52Z</time></trkpt><trkpt lat="43.70056844165255" lon="11.908070864824035"><ele>885.0</ele><time>2026-05-04T13:55:53Z</time></trkpt><trkpt lat="43.700592006554515" lon="11.907966774882711"><ele>883.8333333333334</ele><time>2026-05-04T13:55:54Z</time></trkpt><trkpt lat="43.700619073144665" lon="11.907859290938498"><ele>882.6666666666667</ele><time>2026-05-04T13:55:55Z</time></trkpt><trkpt lat="43.70063986696646" lon="11.90776979677409"><ele>881.5</ele><time>2026-05-04T13:55:56Z</time></trkpt><trkpt lat="43.700662696489594" lon="11.907665294684582"><ele>880.3333333333334</ele><time>2026-05-04T13:55:57Z</time></trkpt><trkpt lat="43.70068371283677" lon="11.907563909022363"><ele>879.1666666666667</ele><time>2026-05-04T13:55:58Z</time></trkpt><trkpt lat="43.70069767724805" lon="11.90737162276289"><ele>878.0</ele><time>2026-05-04T13:56:00Z</time></trkpt><trkpt lat="43.700714356682525" lon="11.907267448643914"><ele>877.0</ele><time>2026-05-04T13:56:01Z</time></trkpt><trkpt lat="43.70072833300217" lon="11.907173816873275"><ele>876.0</ele><time>2026-05-04T13:56:02Z</time></trkpt><trkpt lat="43.70074240952862" lon="11.907028236143605"><ele>875.0</ele><time>2026-05-04T13:56:04Z</time></trkpt><trkpt lat="43.70074691706434" lon="11.906892965741088"><ele>874.0</ele><time>2026-05-04T13:56:06Z</time></trkpt><trkpt lat="43.70074378811698" lon="11.906774823995885"><ele>873.0</ele><time>2026-05-04T13:56:48Z</time></trkpt><trkpt lat="43.70077400160361" lon="11.90664743359591"><ele>871.8333333333334</ele><time>2026-05-04T13:56:51Z</time></trkpt><trkpt lat="43.70082015522001" lon="11.906560837169952"><ele>870.6666666666667</ele><time>2026-05-04T13:56:53Z</time></trkpt><trkpt lat="43.700877201442424" lon="11.906441680702745"><ele>869.5</ele><time>2026-05-04T13:56:55Z</time></trkpt><trkpt lat="43.70091492619605" lon="11.906344709473203"><ele>868.3333333333334</ele><time>2026-05-04T13:56:57Z</time></trkpt><trkpt lat="43.700966203338375" lon="11.906267093477407"><ele>867.1666666666667</ele><time>2026-05-04T13:56:59Z</time></trkpt><trkpt lat="43.701037852632176" lon="11.906216620121556"><ele>866.0</ele><time>2026-05-04T13:57:01Z</time></trkpt><trkpt lat="43.701089294365055" lon="11.906158765222765"><ele>866.0</ele><time>2026-05-04T13:57:02Z</time></trkpt><trkpt lat="43.70113780173944" lon="11.906096829016894"><ele>865.9999999999999</ele><time>2026-05-04T13:57:03Z</time></trkpt><trkpt lat="43.701218497820065" lon="11.905981236793028"><ele>865.9999999999999</ele><time>2026-05-04T13:57:05Z</time></trkpt><trkpt lat="43.70129535685894" lon="11.905851082931296"><ele>866.0</ele><time>2026-05-04T13:57:07Z</time></trkpt><trkpt lat="43.70133462772873" lon="11.90573833350912"><ele>866.0</ele><time>2026-05-04T13:57:09Z</time></trkpt><trkpt lat="43.70135321661337" lon="11.905610275423644"><ele>864.1999999999999</ele><time>2026-05-04T13:57:11Z</time></trkpt><trkpt lat="43.701426871183955" lon="11.905475887549064"><ele>862.3999999999999</ele><time>2026-05-04T13:57:13Z</time></trkpt><trkpt lat="43.70148835312098" lon="11.90533250997036"><ele>860.6</ele><time>2026-05-04T13:57:15Z</time></trkpt><trkpt lat="43.70152012359782" lon="11.905206308889491"><ele>858.8</ele><time>2026-05-04T13:57:17Z</time></trkpt><trkpt lat="43.70154543003709" lon="11.905124748837439"><ele>857.0</ele><time>2026-05-04T13:57:18Z</time></trkpt><trkpt lat="43.70158422146586" lon="11.904995639333208"><ele>855.0000000000001</ele><time>2026-05-04T13:57:20Z</time></trkpt><trkpt lat="43.70158392610203" lon="11.90490230472914"><ele>853.0</ele><time>2026-05-04T13:57:22Z</time></trkpt><trkpt lat="43.701610960882014" lon="11.904808442717782"><ele>851.0</ele><time>2026-05-04T13:57:24Z</time></trkpt><trkpt lat="43.701672994008966" lon="11.904687144200325"><ele>849.0</ele><time>2026-05-04T13:57:26Z</time></trkpt><trkpt lat="43.701726850778314" lon="11.904590828238492"><ele>847.0000000000001</ele><time>2026-05-04T13:57:28Z</time></trkpt><trkpt lat="43.70179314361812" lon="11.904549607277751"><ele>845.0</ele><time>2026-05-04T13:57:30Z</time></trkpt><trkpt lat="43.70186130088903" lon="11.904517484882376"><ele>845.0</ele><time>2026-05-04T13:57:33Z</time></trkpt><trkpt lat="43.701831136857514" lon="11.904416931826637"><ele>845.0</ele><time>2026-05-04T13:58:14Z</time></trkpt><trkpt lat="43.70174644202031" lon="11.90440357760178"><ele>845.0</ele><time>2026-05-04T13:58:15Z</time></trkpt><trkpt lat="43.701658277997986" lon="11.904417791766157"><ele>845.0</ele><time>2026-05-04T13:58:16Z</time></trkpt><trkpt lat="43.701558091202166" lon="11.904413875369087"><ele>845.0</ele><time>2026-05-04T13:58:17Z</time></trkpt><trkpt lat="43.70145187540652" lon="11.90442489835663"><ele>845.0</ele><time>2026-05-04T13:58:18Z</time></trkpt><trkpt lat="43.701354230437914" lon="11.90443143141483"><ele>845.0</ele><time>2026-05-04T13:58:19Z</time></trkpt><trkpt lat="43.7012583489074" lon="11.90442978625784"><ele>845.0</ele><time>2026-05-04T13:58:20Z</time></trkpt><trkpt lat="43.70116322247304" lon="11.904437454380348"><ele>845.0</ele><time>2026-05-04T13:58:21Z</time></trkpt><trkpt lat="43.70108897829797" lon="11.904467582332467"><ele>845.0</ele><time>2026-05-04T13:58:22Z</time></trkpt><trkpt lat="43.701020717130575" lon="11.904534996838224"><ele>846.2</ele><time>2026-05-04T13:58:23Z</time></trkpt><trkpt lat="43.70097043943716" lon="11.904643009985309"><ele>847.4</ele><time>2026-05-04T13:58:24Z</time></trkpt><trkpt lat="43.700942452138015" lon="11.904773245038697"><ele>848.5999999999999</ele><time>2026-05-04T13:58:25Z</time></trkpt><trkpt lat="43.700923536937" lon="11.904905125161873"><ele>849.8</ele><time>2026-05-04T13:58:26Z</time></trkpt><trkpt lat="43.7008925227344" lon="11.905009252700493"><ele>851.0</ele><time>2026-05-04T13:58:27Z</time></trkpt><trkpt lat="43.70082854228967" lon="11.905093110103182"><ele>851.0</ele><time>2026-05-04T13:58:28Z</time></trkpt><trkpt lat="43.700734892598774" lon="11.905142973578377"><ele>851.0</ele><time>2026-05-04T13:58:29Z</time></trkpt><trkpt lat="43.700615712039024" lon="11.905152986307575"><ele>851.0</ele><time>2026-05-04T13:58:30Z</time></trkpt><trkpt lat="43.700489665425934" lon="11.905153606617416"><ele>851.0</ele><time>2026-05-04T13:58:31Z</time></trkpt><trkpt lat="43.700358202817945" lon="11.905168453826597"><ele>848.25</ele><time>2026-05-04T13:58:32Z</time></trkpt><trkpt lat="43.7002205131034" lon="11.905194194975738"><ele>845.5</ele><time>2026-05-04T13:58:33Z</time></trkpt><trkpt lat="43.700079002905106" lon="11.905213884275163"><ele>842.75</ele><time>2026-05-04T13:58:34Z</time></trkpt><trkpt lat="43.699930214722315" lon="11.905231046794116"><ele>840.0</ele><time>2026-05-04T13:58:35Z</time></trkpt><trkpt lat="43.69979656677471" lon="11.905247030784327"><ele>840.0</ele><time>2026-05-04T13:58:36Z</time></trkpt><trkpt lat="43.69966552149682" lon="11.905263077451655"><ele>840.0</ele><time>2026-05-04T13:58:37Z</time></trkpt><trkpt lat="43.69954683412616" lon="11.905274509960947"><ele>840.0</ele><time>2026-05-04T13:58:38Z</time></trkpt><trkpt lat="43.69943695985355" lon="11.90531349624814"><ele>840.0</ele><time>2026-05-04T13:58:39Z</time></trkpt><trkpt lat="43.69932049404182" lon="11.905397658078142"><ele>836.5</ele><time>2026-05-04T13:58:40Z</time></trkpt><trkpt lat="43.69920821586918" lon="11.905505286173367"><ele>833.0</ele><time>2026-05-04T13:58:41Z</time></trkpt><trkpt lat="43.69909838806814" lon="11.90560697849607"><ele>829.5</ele><time>2026-05-04T13:58:42Z</time></trkpt><trkpt lat="43.69898074082783" lon="11.905640689173833"><ele>826.0</ele><time>2026-05-04T13:58:43Z</time></trkpt><trkpt lat="43.69888800101344" lon="11.905693796987247"><ele>825.9999999999999</ele><time>2026-05-04T13:58:44Z</time></trkpt><trkpt lat="43.6987942190004" lon="11.905719179650786"><ele>826.0</ele><time>2026-05-04T13:58:45Z</time></trkpt><trkpt lat="43.698717309005985" lon="11.905720493067546"><ele>826.0</ele><time>2026-05-04T13:58:46Z</time></trkpt><trkpt lat="43.698651387418955" lon="11.905689819588304"><ele>826.0</ele><time>2026-05-04T13:58:47Z</time></trkpt><trkpt lat="43.698612778571" lon="11.905614560165354"><ele>825.9999999999999</ele><time>2026-05-04T13:58:48Z</time></trkpt><trkpt lat="43.69860955584073" lon="11.905508529284733"><ele>826.0</ele><time>2026-05-04T13:58:49Z</time></trkpt><trkpt lat="43.69865574295364" lon="11.905413347899016"><ele>826.0</ele><time>2026-05-04T13:58:50Z</time></trkpt><trkpt lat="43.6987423357941" lon="11.905359676588695"><ele>826.0</ele><time>2026-05-04T13:58:51Z</time></trkpt><trkpt lat="43.69884031113314" lon="11.905373475227508"><ele>826.0</ele><time>2026-05-04T13:58:52Z</time></trkpt><trkpt lat="43.69894882469954" lon="11.905399998071596"><ele>826.0</ele><time>2026-05-04T13:58:53Z</time></trkpt><trkpt lat="43.699039167334725" lon="11.905375196067446"><ele>826.0</ele><time>2026-05-04T13:58:54Z</time></trkpt><trkpt lat="43.69913079393647" lon="11.905286708460224"><ele>826.0</ele><time>2026-05-04T13:58:55Z</time></trkpt><trkpt lat="43.699194036697875" lon="11.905155978906826"><ele>826.0</ele><time>2026-05-04T13:58:56.001Z</time></trkpt><trkpt lat="43.69925158047269" lon="11.905013469022647"><ele>826.0</ele><time>2026-05-04T13:58:57.001Z</time></trkpt><trkpt lat="43.699330912601944" lon="11.904895331523113"><ele>826.0</ele><time>2026-05-04T13:58:58.001Z</time></trkpt><trkpt lat="43.69944680345678" lon="11.90480941483716"><ele>824.5999999999999</ele><time>2026-05-04T13:58:59.001Z</time></trkpt><trkpt lat="43.69956938553984" lon="11.904751001831135"><ele>823.2</ele><time>2026-05-04T13:59:00.001Z</time></trkpt><trkpt lat="43.69968811521621" lon="11.904742377203696"><ele>821.8</ele><time>2026-05-04T13:59:01.001Z</time></trkpt><trkpt lat="43.699792682931765" lon="11.904713683473053"><ele>820.4000000000001</ele><time>2026-05-04T13:59:02.001Z</time></trkpt><trkpt lat="43.69987996340125" lon="11.904699749848604"><ele>819.0</ele><time>2026-05-04T13:59:03.001Z</time></trkpt><trkpt lat="43.699971643233184" lon="11.904623755874326"><ele>819.0</ele><time>2026-05-04T13:59:04.001Z</time></trkpt><trkpt lat="43.70005088713095" lon="11.904492137210324"><ele>819.0</ele><time>2026-05-04T13:59:05.001Z</time></trkpt><trkpt lat="43.70012719316459" lon="11.904354000536483"><ele>819.0</ele><time>2026-05-04T13:59:06.001Z</time></trkpt><trkpt lat="43.7002163175652" lon="11.904224391705549"><ele>819.0</ele><time>2026-05-04T13:59:07.001Z</time></trkpt><trkpt lat="43.70030576104749" lon="11.904113411328234"><ele>818.6</ele><time>2026-05-04T13:59:08.001Z</time></trkpt><trkpt lat="43.7003811850244" lon="11.904019242722065"><ele>818.2</ele><time>2026-05-04T13:59:09.001Z</time></trkpt><trkpt lat="43.700442238918626" lon="11.903928435947261"><ele>817.8000000000001</ele><time>2026-05-04T13:59:10.001Z</time></trkpt><trkpt lat="43.70046873352271" lon="11.903816739207391"><ele>817.4000000000001</ele><time>2026-05-04T13:59:11.001Z</time></trkpt><trkpt lat="43.70045749956073" lon="11.903683850524672"><ele>817.0</ele><time>2026-05-04T13:59:12.001Z</time></trkpt><trkpt lat="43.700410583582034" lon="11.903535154479957"><ele>813.5</ele><time>2026-05-04T13:59:13.001Z</time></trkpt><trkpt lat="43.700350176500244" lon="11.90339483774684"><ele>810.0</ele><time>2026-05-04T13:59:14.001Z</time></trkpt><trkpt lat="43.700284706000055" lon="11.903250422360589"><ele>806.5</ele><time>2026-05-04T13:59:15.001Z</time></trkpt><trkpt lat="43.70022010356309" lon="11.903097502785112"><ele>803.0</ele><time>2026-05-04T13:59:16.001Z</time></trkpt><trkpt lat="43.70016489578102" lon="11.902952917463901"><ele>801.0</ele><time>2026-05-04T13:59:17.001Z</time></trkpt><trkpt lat="43.700119128193045" lon="11.902821651501618"><ele>799.0</ele><time>2026-05-04T13:59:18.001Z</time></trkpt><trkpt lat="43.7000950005518" lon="11.902696934847128"><ele>797.0</ele><time>2026-05-04T13:59:19.001Z</time></trkpt><trkpt lat="43.70010629097882" lon="11.902560773543922"><ele>795.0</ele><time>2026-05-04T13:59:20.001Z</time></trkpt><trkpt lat="43.70015884939613" lon="11.902439302541552"><ele>793.0</ele><time>2026-05-04T13:59:21.001Z</time></trkpt><trkpt lat="43.700242222886786" lon="11.90235947685955"><ele>791.75</ele><time>2026-05-04T13:59:22.001Z</time></trkpt><trkpt lat="43.70035043200537" lon="11.902333474850025"><ele>790.5</ele><time>2026-05-04T13:59:23.001Z</time></trkpt><trkpt lat="43.70046108201123" lon="11.90236972256549"><ele>789.25</ele><time>2026-05-04T13:59:24.001Z</time></trkpt><trkpt lat="43.70056735346184" lon="11.902434528210375"><ele>788.0</ele><time>2026-05-04T13:59:25.001Z</time></trkpt><trkpt lat="43.70065978281053" lon="11.902526714316044"><ele>791.75</ele><time>2026-05-04T13:59:26.001Z</time></trkpt><trkpt lat="43.700750778465434" lon="11.902620344069188"><ele>795.5</ele><time>2026-05-04T13:59:27.001Z</time></trkpt><trkpt lat="43.700860298265646" lon="11.902677659564496"><ele>799.25</ele><time>2026-05-04T13:59:28.001Z</time></trkpt><trkpt lat="43.700982620900085" lon="11.902691568999964"><ele>803.0</ele><time>2026-05-04T13:59:29.001Z</time></trkpt><trkpt lat="43.701112389790815" lon="11.902659779489293"><ele>803.75</ele><time>2026-05-04T13:59:30.001Z</time></trkpt><trkpt lat="43.701224525363614" lon="11.902607492287155"><ele>804.5</ele><time>2026-05-04T13:59:31.001Z</time></trkpt><trkpt lat="43.70132983476252" lon="11.902535759745343"><ele>805.25</ele><time>2026-05-04T13:59:32.001Z</time></trkpt><trkpt lat="43.701433944113724" lon="11.902418408404909"><ele>806.0</ele><time>2026-05-04T13:59:33.001Z</time></trkpt><trkpt lat="43.70151755262504" lon="11.902266290134355"><ele>801.75</ele><time>2026-05-04T13:59:34.001Z</time></trkpt><trkpt lat="43.70160888004113" lon="11.902104882710537"><ele>797.5</ele><time>2026-05-04T13:59:35.001Z</time></trkpt><trkpt lat="43.7016950191819" lon="11.90194670980467"><ele>793.25</ele><time>2026-05-04T13:59:36.001Z</time></trkpt><trkpt lat="43.70176761766704" lon="11.901792432375666"><ele>789.0</ele><time>2026-05-04T13:59:37.001Z</time></trkpt><trkpt lat="43.70181942262965" lon="11.901644018879178"><ele>789.0</ele><time>2026-05-04T13:59:38.001Z</time></trkpt><trkpt lat="43.70186354013507" lon="11.901515137061962"><ele>789.0</ele><time>2026-05-04T13:59:39.001Z</time></trkpt><trkpt lat="43.70192745403439" lon="11.90141799372756"><ele>789.0</ele><time>2026-05-04T13:59:40.001Z</time></trkpt><trkpt lat="43.702023615765384" lon="11.901355694178708"><ele>789.0</ele><time>2026-05-04T13:59:41.001Z</time></trkpt><trkpt lat="43.70212947171432" lon="11.901326727654922"><ele>789.0</ele><time>2026-05-04T13:59:42.001Z</time></trkpt><trkpt lat="43.7022186139625" lon="11.901268605626326"><ele>789.0</ele><time>2026-05-04T13:59:43.001Z</time></trkpt><trkpt lat="43.70228033302097" lon="11.90114652868525"><ele>789.0</ele><time>2026-05-04T13:59:44.001Z</time></trkpt><trkpt lat="43.702307050922414" lon="11.900983810687556"><ele>789.0</ele><time>2026-05-04T13:59:45.001Z</time></trkpt><trkpt lat="43.70231035382269" lon="11.900815461993488"><ele>789.0</ele><time>2026-05-04T13:59:46.001Z</time></trkpt><trkpt lat="43.70232203248566" lon="11.90065042127167"><ele>787.0</ele><time>2026-05-04T13:59:47.001Z</time></trkpt><trkpt lat="43.7023726287468" lon="11.90051146963765"><ele>785.0</ele><time>2026-05-04T13:59:48.001Z</time></trkpt><trkpt lat="43.70237848665386" lon="11.900358720223569"><ele>783.0</ele><time>2026-05-04T13:59:49.001Z</time></trkpt><trkpt lat="43.70236464251559" lon="11.900207051613831"><ele>781.0</ele><time>2026-05-04T13:59:50.001Z</time></trkpt><trkpt lat="43.7023263962066" lon="11.900060003387475"><ele>779.0</ele><time>2026-05-04T13:59:51.001Z</time></trkpt><trkpt lat="43.70228027695045" lon="11.89992063945211"><ele>778.0</ele><time>2026-05-04T13:59:52.001Z</time></trkpt><trkpt lat="43.70225056235567" lon="11.899777147205484"><ele>777.0</ele><time>2026-05-04T13:59:53.001Z</time></trkpt><trkpt lat="43.70226000764978" lon="11.89962007881257"><ele>776.0</ele><time>2026-05-04T13:59:54.001Z</time></trkpt><trkpt lat="43.702325217321764" lon="11.899474028444223"><ele>775.0</ele><time>2026-05-04T13:59:55.001Z</time></trkpt><trkpt lat="43.70233593539359" lon="11.899305361274017"><ele>774.5</ele><time>2026-05-04T13:59:56.001Z</time></trkpt><trkpt lat="43.70232672011223" lon="11.899130957175046"><ele>774.0</ele><time>2026-05-04T13:59:57.001Z</time></trkpt><trkpt lat="43.70230216530761" lon="11.898941391072452"><ele>773.5</ele><time>2026-05-04T13:59:58.001Z</time></trkpt><trkpt lat="43.70229164954681" lon="11.898763584265375"><ele>773.0</ele><time>2026-05-04T13:59:59.001Z</time></trkpt><trkpt lat="43.702303157345504" lon="11.898589444440496"><ele>772.75</ele><time>2026-05-04T14:00:00.001Z</time></trkpt><trkpt lat="43.70225278967181" lon="11.898415302773126"><ele>772.5</ele><time>2026-05-04T14:00:01.001Z</time></trkpt><trkpt lat="43.70218871961848" lon="11.898225575192754"><ele>772.25</ele><time>2026-05-04T14:00:02.001Z</time></trkpt><trkpt lat="43.70212534622779" lon="11.89806111769596"><ele>772.0</ele><time>2026-05-04T14:00:03.001Z</time></trkpt><trkpt lat="43.70207555721379" lon="11.897891432057962"><ele>772.0</ele><time>2026-05-04T14:00:04.001Z</time></trkpt><trkpt lat="43.70203806715435" lon="11.89770374866978"><ele>772.0</ele><time>2026-05-04T14:00:05.001Z</time></trkpt><trkpt lat="43.70201244654861" lon="11.897507445578006"><ele>772.0</ele><time>2026-05-04T14:00:06.001Z</time></trkpt><trkpt lat="43.701996483241444" lon="11.897313823953775"><ele>772.0</ele><time>2026-05-04T14:00:07.001Z</time></trkpt><trkpt lat="43.70198065461873" lon="11.89711624384607"><ele>771.25</ele><time>2026-05-04T14:00:08.001Z</time></trkpt><trkpt lat="43.701965417170236" lon="11.89693389615448"><ele>770.5</ele><time>2026-05-04T14:00:09.001Z</time></trkpt><trkpt lat="43.70194543459372" lon="11.896754568070437"><ele>769.75</ele><time>2026-05-04T14:00:10.001Z</time></trkpt><trkpt lat="43.701930189826165" lon="11.896577196582761"><ele>769.0</ele><time>2026-05-04T14:00:11.001Z</time></trkpt><trkpt lat="43.701922170286224" lon="11.896397719583362"><ele>767.75</ele><time>2026-05-04T14:00:12Z</time></trkpt><trkpt lat="43.701927616324845" lon="11.896220801801826"><ele>766.5</ele><time>2026-05-04T14:00:13Z</time></trkpt><trkpt lat="43.70194529931354" lon="11.896048421352186"><ele>765.25</ele><time>2026-05-04T14:00:14Z</time></trkpt><trkpt lat="43.701971524844886" lon="11.895882979056863"><ele>764.0</ele><time>2026-05-04T14:00:15Z</time></trkpt><trkpt lat="43.702006084356555" lon="11.89573636382926"><ele>762.6666666666666</ele><time>2026-05-04T14:00:16Z</time></trkpt><trkpt lat="43.702033654913386" lon="11.89561741846911"><ele>761.3333333333333</ele><time>2026-05-04T14:00:17Z</time></trkpt><trkpt lat="43.702040657618504" lon="11.895511895951923"><ele>760.0</ele><time>2026-05-04T14:00:18Z</time></trkpt><trkpt lat="43.70202864791106" lon="11.895390214379908"><ele>758.6666666666666</ele><time>2026-05-04T14:00:19Z</time></trkpt><trkpt lat="43.702005057041205" lon="11.895272624327722"><ele>757.3333333333334</ele><time>2026-05-04T14:00:20Z</time></trkpt><trkpt lat="43.70199109896768" lon="11.895162683910375"><ele>756.0</ele><time>2026-05-04T14:00:21Z</time></trkpt><trkpt lat="43.70199231172217" lon="11.89505214843062"><ele>754.3333333333334</ele><time>2026-05-04T14:00:22Z</time></trkpt><trkpt lat="43.70200450884118" lon="11.894937147853117"><ele>752.6666666666666</ele><time>2026-05-04T14:00:23Z</time></trkpt><trkpt lat="43.702030630765144" lon="11.894823146496917"><ele>751.0</ele><time>2026-05-04T14:00:24Z</time></trkpt><trkpt lat="43.702066746731155" lon="11.894716370617228"><ele>749.3333333333333</ele><time>2026-05-04T14:00:25Z</time></trkpt><trkpt lat="43.70209978924533" lon="11.894607057650251"><ele>747.6666666666666</ele><time>2026-05-04T14:00:26Z</time></trkpt><trkpt lat="43.70214040642323" lon="11.894483380348797"><ele>746.0</ele><time>2026-05-04T14:00:27Z</time></trkpt><trkpt lat="43.70219318730475" lon="11.894361195879648"><ele>744.0</ele><time>2026-05-04T14:00:28Z</time></trkpt><trkpt lat="43.70226712163397" lon="11.894244128774003"><ele>742.0</ele><time>2026-05-04T14:00:29Z</time></trkpt><trkpt lat="43.70235018049515" lon="11.894136013388533"><ele>740.0</ele><time>2026-05-04T14:00:30Z</time></trkpt><trkpt lat="43.70241640690939" lon="11.894022108329805"><ele>738.0</ele><time>2026-05-04T14:00:31Z</time></trkpt><trkpt lat="43.70245595643867" lon="11.893882825996627"><ele>736.0</ele><time>2026-05-04T14:00:32.001Z</time></trkpt><trkpt lat="43.70246969507382" lon="11.893729940613234"><ele>736.0</ele><time>2026-05-04T14:00:33.001Z</time></trkpt><trkpt lat="43.702471807105" lon="11.893566187954209"><ele>736.0</ele><time>2026-05-04T14:00:34.001Z</time></trkpt><trkpt lat="43.7024611436056" lon="11.89339400725751"><ele>736.0</ele><time>2026-05-04T14:00:35.001Z</time></trkpt><trkpt lat="43.70243720766923" lon="11.893211951084627"><ele>736.0</ele><time>2026-05-04T14:00:36.001Z</time></trkpt><trkpt lat="43.702398466931186" lon="11.893025899600625"><ele>734.75</ele><time>2026-05-04T14:00:37.001Z</time></trkpt><trkpt lat="43.70235248071062" lon="11.892838096522814"><ele>733.5</ele><time>2026-05-04T14:00:38.001Z</time></trkpt><trkpt lat="43.70232363750114" lon="11.892646332085087"><ele>732.25</ele><time>2026-05-04T14:00:39.001Z</time></trkpt><trkpt lat="43.70231962446424" lon="11.892455088610383"><ele>731.0</ele><time>2026-05-04T14:00:40.001Z</time></trkpt><trkpt lat="43.70233315681188" lon="11.892270408548425"><ele>729.75</ele><time>2026-05-04T14:00:41.001Z</time></trkpt><trkpt lat="43.702353031401685" lon="11.892092738035476"><ele>728.5</ele><time>2026-05-04T14:00:42.001Z</time></trkpt><trkpt lat="43.702380405466634" lon="11.891920996737797"><ele>727.25</ele><time>2026-05-04T14:00:43.001Z</time></trkpt><trkpt lat="43.70243270597127" lon="11.891759294202515"><ele>726.0</ele><time>2026-05-04T14:00:44.001Z</time></trkpt><trkpt lat="43.70250479506912" lon="11.891615273203865"><ele>725.8</ele><time>2026-05-04T14:00:45.001Z</time></trkpt><trkpt lat="43.702573638890925" lon="11.891489351465648"><ele>725.5999999999999</ele><time>2026-05-04T14:00:46.001Z</time></trkpt><trkpt lat="43.7026293368396" lon="11.891362663419374"><ele>725.4</ele><time>2026-05-04T14:00:47.001Z</time></trkpt><trkpt lat="43.702655571698465" lon="11.891226944249809"><ele>725.2</ele><time>2026-05-04T14:00:48.001Z</time></trkpt><trkpt lat="43.702651576676516" lon="11.891082620228058"><ele>725.0</ele><time>2026-05-04T14:00:49.001Z</time></trkpt><trkpt lat="43.70261822441094" lon="11.89093798979864"><ele>724.5</ele><time>2026-05-04T14:00:50.001Z</time></trkpt><trkpt lat="43.70256026627588" lon="11.890824042624763"><ele>724.0</ele><time>2026-05-04T14:00:51.001Z</time></trkpt><trkpt lat="43.70249351185898" lon="11.890737785298594"><ele>723.5</ele><time>2026-05-04T14:00:52.001Z</time></trkpt><trkpt lat="43.70242420613806" lon="11.890672572748736"><ele>723.0</ele><time>2026-05-04T14:00:53.001Z</time></trkpt><trkpt lat="43.70236410309683" lon="11.89063141548752"><ele>722.5</ele><time>2026-05-04T14:00:54.001Z</time></trkpt><trkpt lat="43.702277778404" lon="11.890602661620393"><ele>722.0</ele><time>2026-05-04T14:00:56.001Z</time></trkpt><trkpt lat="43.70225636090425" lon="11.89050333650339"><ele>722.0</ele><time>2026-05-04T14:00:58.001Z</time></trkpt><trkpt lat="43.70217624766643" lon="11.890474917891053"><ele>722.0</ele><time>2026-05-04T14:01:00.001Z</time></trkpt><trkpt lat="43.702206028339404" lon="11.890256810548015"><ele>722.0</ele><time>2026-05-04T14:01:01.001Z</time></trkpt><trkpt lat="43.702179133552" lon="11.890167326496057"><ele>722.0</ele><time>2026-05-04T14:01:03.001Z</time></trkpt><trkpt lat="43.702117036268724" lon="11.890031784438204"><ele>722.0</ele><time>2026-05-04T14:01:05.001Z</time></trkpt><trkpt lat="43.702058462689614" lon="11.889882675661914"><ele>720.6666666666666</ele><time>2026-05-04T14:01:07.001Z</time></trkpt><trkpt lat="43.70202909862101" lon="11.889796130087445"><ele>719.3333333333333</ele><time>2026-05-04T14:01:08.001Z</time></trkpt><trkpt lat="43.702027885111036" lon="11.88967773539737"><ele>718.0</ele><time>2026-05-04T14:01:10.001Z</time></trkpt><trkpt lat="43.70212082673888" lon="11.889631650076337"><ele>716.6666666666666</ele><time>2026-05-04T14:01:14.001Z</time></trkpt><trkpt lat="43.70221944936815" lon="11.889632539173213"><ele>715.3333333333334</ele><time>2026-05-04T14:01:16.001Z</time></trkpt><trkpt lat="43.70229180259663" lon="11.889591474389961"><ele>714.0</ele><time>2026-05-04T14:01:18.001Z</time></trkpt><trkpt lat="43.702351066026694" lon="11.889552044941096"><ele>714.0</ele><time>2026-05-04T14:01:20.001Z</time></trkpt><trkpt lat="43.70245053898378" lon="11.889542801542385"><ele>714.0</ele><time>2026-05-04T14:01:22.001Z</time></trkpt><trkpt lat="43.70251525157644" lon="11.889546548652326"><ele>714.0</ele><time>2026-05-04T14:01:23.001Z</time></trkpt><trkpt lat="43.70263972131551" lon="11.889537700254964"><ele>714.0</ele><time>2026-05-04T14:01:25.001Z</time></trkpt><trkpt lat="43.70271042592453" lon="11.889538362723115"><ele>714.0</ele><time>2026-05-04T14:01:26.001Z</time></trkpt><trkpt lat="43.70277916403297" lon="11.889539441766393"><ele>714.0</ele><time>2026-05-04T14:01:27.001Z</time></trkpt><trkpt lat="43.70284472227284" lon="11.889541408790631"><ele>711.6666666666666</ele><time>2026-05-04T14:01:29.001Z</time></trkpt><trkpt lat="43.7028973739061" lon="11.889483364285258"><ele>709.3333333333334</ele><time>2026-05-04T14:01:31.001Z</time></trkpt><trkpt lat="43.70299829336459" lon="11.889420799919485"><ele>707.0</ele><time>2026-05-04T14:01:33.001Z</time></trkpt><trkpt lat="43.703054010696604" lon="11.889361054563555"><ele>704.6666666666667</ele><time>2026-05-04T14:01:35.001Z</time></trkpt><trkpt lat="43.70312955152832" lon="11.889219054020954"><ele>702.3333333333334</ele><time>2026-05-04T14:01:37.001Z</time></trkpt><trkpt lat="43.70317808325164" lon="11.88915495479911"><ele>700.0</ele><time>2026-05-04T14:01:38.001Z</time></trkpt><trkpt lat="43.70323990184286" lon="11.889092482836663"><ele>698.8333333333334</ele><time>2026-05-04T14:01:39.001Z</time></trkpt><trkpt lat="43.70330282603087" lon="11.889025806458836"><ele>697.6666666666667</ele><time>2026-05-04T14:01:40.001Z</time></trkpt><trkpt lat="43.70336570887781" lon="11.88896427197163"><ele>696.5</ele><time>2026-05-04T14:01:41.001Z</time></trkpt><trkpt lat="43.703421908542936" lon="11.88888209670627"><ele>695.3333333333334</ele><time>2026-05-04T14:01:42.001Z</time></trkpt><trkpt lat="43.70346976523433" lon="11.888799884715072"><ele>694.1666666666666</ele><time>2026-05-04T14:01:43.001Z</time></trkpt><trkpt lat="43.70352020415531" lon="11.888723966273474"><ele>693.0</ele><time>2026-05-04T14:01:44.001Z</time></trkpt><trkpt lat="43.703588315166904" lon="11.888594683002918"><ele>691.4</ele><time>2026-05-04T14:01:46.001Z</time></trkpt><trkpt lat="43.703620919134536" lon="11.888514752729728"><ele>689.8</ele><time>2026-05-04T14:01:47.001Z</time></trkpt><trkpt lat="43.703663976371956" lon="11.888365055620554"><ele>688.2</ele><time>2026-05-04T14:01:49.001Z</time></trkpt><trkpt lat="43.703696299634714" lon="11.888212466177647"><ele>686.6</ele><time>2026-05-04T14:01:51.001Z</time></trkpt><trkpt lat="43.70371283769763" lon="11.888126425207382"><ele>685.0</ele><time>2026-05-04T14:01:52.001Z</time></trkpt><trkpt lat="43.70374003716183" lon="11.887978382380126"><ele>684.0</ele><time>2026-05-04T14:01:54.001Z</time></trkpt><trkpt lat="43.70376070848203" lon="11.887893417780806"><ele>683.0</ele><time>2026-05-04T14:01:55.001Z</time></trkpt><trkpt lat="43.70379407491285" lon="11.88774016538323"><ele>682.0</ele><time>2026-05-04T14:01:57.001Z</time></trkpt><trkpt lat="43.70383951957339" lon="11.88758744592273"><ele>681.0</ele><time>2026-05-04T14:01:59.001Z</time></trkpt><trkpt lat="43.70387293911896" lon="11.887443355113453"><ele>680.0</ele><time>2026-05-04T14:02:01.001Z</time></trkpt><trkpt lat="43.703907142021166" lon="11.887304943770276"><ele>678.4</ele><time>2026-05-04T14:02:03.001Z</time></trkpt><trkpt lat="43.70394478346616" lon="11.887168775676937"><ele>676.8</ele><time>2026-05-04T14:02:05.001Z</time></trkpt><trkpt lat="43.7039790535524" lon="11.887047097017755"><ele>675.2</ele><time>2026-05-04T14:02:07.001Z</time></trkpt><trkpt lat="43.70402020445545" lon="11.886880021981755"><ele>673.6</ele><time>2026-05-04T14:02:09.001Z</time></trkpt><trkpt lat="43.70405719951919" lon="11.886746068360033"><ele>672.0</ele><time>2026-05-04T14:02:11.001Z</time></trkpt><trkpt lat="43.70406457910177" lon="11.886642815843244"><ele>670.5</ele><time>2026-05-04T14:02:13.001Z</time></trkpt><trkpt lat="43.704065006044374" lon="11.886553464704742"><ele>669.0</ele><time>2026-05-04T14:02:15.001Z</time></trkpt><trkpt lat="43.7040711032436" lon="11.886450019050633"><ele>667.5</ele><time>2026-05-04T14:02:17.001Z</time></trkpt><trkpt lat="43.704060087561736" lon="11.886343453383379"><ele>666.0</ele><time>2026-05-04T14:02:21.001Z</time></trkpt><trkpt lat="43.70403737824686" lon="11.886212361361416"><ele>664.5</ele><time>2026-05-04T14:02:23.001Z</time></trkpt><trkpt lat="43.70401531353208" lon="11.88611403541631"><ele>663.0</ele><time>2026-05-04T14:02:25.001Z</time></trkpt><trkpt lat="43.70397099153299" lon="11.885973917348311"><ele>661.3333333333334</ele><time>2026-05-04T14:02:27.001Z</time></trkpt><trkpt lat="43.703965702628" lon="11.88584290846086"><ele>659.6666666666666</ele><time>2026-05-04T14:02:29.001Z</time></trkpt><trkpt lat="43.70395495613771" lon="11.885703523202496"><ele>658.0</ele><time>2026-05-04T14:02:31.001Z</time></trkpt><trkpt lat="43.70392964160149" lon="11.885556058546594"><ele>656.3333333333333</ele><time>2026-05-04T14:02:33.001Z</time></trkpt><trkpt lat="43.70392078968443" lon="11.885449930602746"><ele>654.6666666666666</ele><time>2026-05-04T14:02:36.001Z</time></trkpt><trkpt lat="43.70391447536823" lon="11.88535980476884"><ele>653.0</ele><time>2026-05-04T14:02:39.001Z</time></trkpt><trkpt lat="43.703886219088005" lon="11.88522380930237"><ele>653.0</ele><time>2026-05-04T14:03:32.001Z</time></trkpt><trkpt lat="43.70385613533537" lon="11.885111002641311"><ele>653.0</ele><time>2026-05-04T14:03:34.001Z</time></trkpt><trkpt lat="43.70381494438205" lon="11.884967553295139"><ele>653.0</ele><time>2026-05-04T14:03:36.001Z</time></trkpt><trkpt lat="43.703782710791046" lon="11.884875880454201"><ele>653.0</ele><time>2026-05-04T14:03:38.001Z</time></trkpt><trkpt lat="43.703738085045416" lon="11.884777185412498"><ele>653.0</ele><time>2026-05-04T14:03:40.001Z</time></trkpt><trkpt lat="43.70368840620628" lon="11.884685098961329"><ele>653.0</ele><time>2026-05-04T14:03:42.001Z</time></trkpt><trkpt lat="43.703645388807594" lon="11.88457392360843"><ele>651.3333333333333</ele><time>2026-05-04T14:03:44.001Z</time></trkpt><trkpt lat="43.703616856031225" lon="11.884447999768518"><ele>649.6666666666666</ele><time>2026-05-04T14:03:46.001Z</time></trkpt><trkpt lat="43.703610580121044" lon="11.884330949497405"><ele>648.0</ele><time>2026-05-04T14:03:48.001Z</time></trkpt><trkpt lat="43.703620321790346" lon="11.884210248912439"><ele>646.3333333333334</ele><time>2026-05-04T14:03:51.001Z</time></trkpt><trkpt lat="43.70361428911088" lon="11.884118485537366"><ele>644.6666666666667</ele><time>2026-05-04T14:03:53.001Z</time></trkpt><trkpt lat="43.70359877585159" lon="11.88401131282943"><ele>643.0</ele><time>2026-05-04T14:03:56.001Z</time></trkpt><trkpt lat="43.70356344287651" lon="11.883919030954402"><ele>640.1666666666667</ele><time>2026-05-04T14:03:59.001Z</time></trkpt><trkpt lat="43.70352577027458" lon="11.883827695027671"><ele>637.3333333333334</ele><time>2026-05-04T14:04:01.001Z</time></trkpt><trkpt lat="43.703512677775805" lon="11.883738958977364"><ele>634.5</ele><time>2026-05-04T14:04:03.001Z</time></trkpt><trkpt lat="43.70347450425303" lon="11.883635350213034"><ele>631.6666666666666</ele><time>2026-05-04T14:04:05.001Z</time></trkpt><trkpt lat="43.703419675649165" lon="11.883519864782881"><ele>628.8333333333333</ele><time>2026-05-04T14:04:07.001Z</time></trkpt><trkpt lat="43.703380029707596" lon="11.883391243724802"><ele>626.0</ele><time>2026-05-04T14:04:09.001Z</time></trkpt><trkpt lat="43.70332570924894" lon="11.88326701277322"><ele>625.0</ele><time>2026-05-04T14:04:11.001Z</time></trkpt><trkpt lat="43.70327467358263" lon="11.883166336120649"><ele>624.0</ele><time>2026-05-04T14:04:13.001Z</time></trkpt><trkpt lat="43.70321177285016" lon="11.883087150039527"><ele>623.0</ele><time>2026-05-04T14:04:15.001Z</time></trkpt><trkpt lat="43.70313353133592" lon="11.88302005334936"><ele>622.0</ele><time>2026-05-04T14:04:17.001Z</time></trkpt><trkpt lat="43.70308529641543" lon="11.882923842253511"><ele>621.0</ele><time>2026-05-04T14:04:19.001Z</time></trkpt><trkpt lat="43.703038346348805" lon="11.88282043100488"><ele>620.0</ele><time>2026-05-04T14:04:21.001Z</time></trkpt><trkpt lat="43.7030063898079" lon="11.882690327507499"><ele>618.8</ele><time>2026-05-04T14:04:23.001Z</time></trkpt><trkpt lat="43.70300505261927" lon="11.882520820220687"><ele>617.6</ele><time>2026-05-04T14:04:25.001Z</time></trkpt><trkpt lat="43.70301182237017" lon="11.882384436975347"><ele>616.4</ele><time>2026-05-04T14:04:27.001Z</time></trkpt><trkpt lat="43.7029910646056" lon="11.882254727371663"><ele>615.2</ele><time>2026-05-04T14:04:29.001Z</time></trkpt><trkpt lat="43.70294687169579" lon="11.882097704825354"><ele>614.0</ele><time>2026-05-04T14:04:31.001Z</time></trkpt><trkpt lat="43.70292076132081" lon="11.88201367834814"><ele>614.0</ele><time>2026-05-04T14:04:32.001Z</time></trkpt><trkpt lat="43.70288593055547" lon="11.881925925319965"><ele>614.0</ele><time>2026-05-04T14:04:33.001Z</time></trkpt><trkpt lat="43.702837017604004" lon="11.881770836422657"><ele>614.0</ele><time>2026-05-04T14:04:35.001Z</time></trkpt><trkpt lat="43.70278479264355" lon="11.881635932935309"><ele>614.0</ele><time>2026-05-04T14:04:37.001Z</time></trkpt><trkpt lat="43.702716249168624" lon="11.881509307818982"><ele>614.0</ele><time>2026-05-04T14:04:39.001Z</time></trkpt><trkpt lat="43.702676041885" lon="11.881430227660541"><ele>609.8</ele><time>2026-05-04T14:04:40.001Z</time></trkpt><trkpt lat="43.70263055162706" lon="11.881327325183758"><ele>605.5999999999999</ele><time>2026-05-04T14:04:43.001Z</time></trkpt><trkpt lat="43.70256747653744" lon="11.881241621310105"><ele>601.4</ele><time>2026-05-04T14:04:46.001Z</time></trkpt><trkpt lat="43.70249770426564" lon="11.881135457472062"><ele>597.1999999999999</ele><time>2026-05-04T14:04:48.001Z</time></trkpt><trkpt lat="43.70243265239495" lon="11.881004255065127"><ele>593.0</ele><time>2026-05-04T14:04:50.001Z</time></trkpt><trkpt lat="43.70239901133028" lon="11.880925483391355"><ele>593.0</ele><time>2026-05-04T14:04:51.001Z</time></trkpt><trkpt lat="43.70235744956902" lon="11.880819134530364"><ele>593.0</ele><time>2026-05-04T14:04:53.001Z</time></trkpt><trkpt lat="43.7023066806634" lon="11.880753555215772"><ele>593.0</ele><time>2026-05-04T14:04:54.001Z</time></trkpt><trkpt lat="43.702244298503665" lon="11.880693171576333"><ele>593.0</ele><time>2026-05-04T14:04:56.001Z</time></trkpt><trkpt lat="43.70215636679517" lon="11.880612894914332"><ele>593.0</ele><time>2026-05-04T14:04:58.001Z</time></trkpt><trkpt lat="43.70208923130118" lon="11.880508595197133"><ele>593.0</ele><time>2026-05-04T14:05:00.001Z</time></trkpt><trkpt lat="43.70205895684397" lon="11.880400828821578"><ele>593.0</ele><time>2026-05-04T14:05:02.001Z</time></trkpt><trkpt lat="43.702001669874626" lon="11.880248333239408"><ele>593.0</ele><time>2026-05-04T14:05:04.001Z</time></trkpt><trkpt lat="43.701938165170624" lon="11.880108757852271"><ele>593.0</ele><time>2026-05-04T14:05:06.001Z</time></trkpt><trkpt lat="43.70188346190931" lon="11.87998063114551"><ele>593.0</ele><time>2026-05-04T14:05:08.001Z</time></trkpt><trkpt lat="43.70183937391039" lon="11.879846931771187"><ele>589.6</ele><time>2026-05-04T14:05:10.001Z</time></trkpt><trkpt lat="43.701778741073234" lon="11.87971904569914"><ele>586.1999999999999</ele><time>2026-05-04T14:05:12.001Z</time></trkpt><trkpt lat="43.70171505029487" lon="11.879588966843354"><ele>582.8</ele><time>2026-05-04T14:05:14.001Z</time></trkpt><trkpt lat="43.701659503154076" lon="11.879453610363761"><ele>579.4</ele><time>2026-05-04T14:05:16.001Z</time></trkpt><trkpt lat="43.701613218002024" lon="11.879342655339947"><ele>576.0</ele><time>2026-05-04T14:05:18.001Z</time></trkpt><trkpt lat="43.70156611010527" lon="11.87922477733278"><ele>575.8</ele><time>2026-05-04T14:05:20.001Z</time></trkpt><trkpt lat="43.701517598415165" lon="11.87909973654369"><ele>575.6</ele><time>2026-05-04T14:05:22.001Z</time></trkpt><trkpt lat="43.70146541872393" lon="11.878968568916363"><ele>575.4</ele><time>2026-05-04T14:05:24.001Z</time></trkpt><trkpt lat="43.70143501482412" lon="11.87883490709477"><ele>575.2</ele><time>2026-05-04T14:05:26.001Z</time></trkpt><trkpt lat="43.70140863312599" lon="11.878690878976737"><ele>575.0</ele><time>2026-05-04T14:05:28.001Z</time></trkpt><trkpt lat="43.70137719607296" lon="11.878563020502172"><ele>575.0</ele><time>2026-05-04T14:05:30.001Z</time></trkpt><trkpt lat="43.701376521325145" lon="11.878435480590152"><ele>575.0</ele><time>2026-05-04T14:05:32.001Z</time></trkpt><trkpt lat="43.701369703646584" lon="11.878264278383503"><ele>575.0</ele><time>2026-05-04T14:05:34.001Z</time></trkpt><trkpt lat="43.70137027366765" lon="11.878173277915153"><ele>575.0</ele><time>2026-05-04T14:05:35.001Z</time></trkpt><trkpt lat="43.701368569425824" lon="11.878062326442357"><ele>575.0</ele><time>2026-05-04T14:05:36.001Z</time></trkpt><trkpt lat="43.701366397130435" lon="11.877945701405272"><ele>575.0</ele><time>2026-05-04T14:05:37.001Z</time></trkpt><trkpt lat="43.701371222274496" lon="11.877851341463439"><ele>573.6666666666666</ele><time>2026-05-04T14:05:38.001Z</time></trkpt><trkpt lat="43.70137826544666" lon="11.877757272713529"><ele>572.3333333333333</ele><time>2026-05-04T14:05:39.001Z</time></trkpt><trkpt lat="43.701377458614694" lon="11.87759030714101"><ele>571.0</ele><time>2026-05-04T14:05:41.001Z</time></trkpt><trkpt lat="43.70138451212554" lon="11.877455119931868"><ele>569.6666666666666</ele><time>2026-05-04T14:05:43.001Z</time></trkpt><trkpt lat="43.701412943379864" lon="11.877337249603505"><ele>568.3333333333334</ele><time>2026-05-04T14:05:46.001Z</time></trkpt><trkpt lat="43.70143231370158" lon="11.877247631043383"><ele>567.0</ele><time>2026-05-04T14:05:48.001Z</time></trkpt><trkpt lat="43.70145659895008" lon="11.87713006049085"><ele>565.3333333333334</ele><time>2026-05-04T14:05:50.001Z</time></trkpt><trkpt lat="43.701444132595086" lon="11.877011135892829"><ele>563.6666666666666</ele><time>2026-05-04T14:05:52.001Z</time></trkpt><trkpt lat="43.70141638801818" lon="11.876920404359216"><ele>562.0</ele><time>2026-05-04T14:05:54.001Z</time></trkpt><trkpt lat="43.70137708384901" lon="11.876835583132905"><ele>560.3333333333333</ele><time>2026-05-04T14:05:56.001Z</time></trkpt><trkpt lat="43.70135693985846" lon="11.876727137047935"><ele>558.6666666666666</ele><time>2026-05-04T14:06:00.001Z</time></trkpt><trkpt lat="43.70133619156391" lon="11.876635266278228"><ele>557.0</ele><time>2026-05-04T14:06:02.001Z</time></trkpt><trkpt lat="43.70129747451699" lon="11.876557348487815"><ele>555.6</ele><time>2026-05-04T14:06:04.001Z</time></trkpt><trkpt lat="43.70125201264028" lon="11.876423120857368"><ele>554.2</ele><time>2026-05-04T14:06:06.001Z</time></trkpt><trkpt lat="43.70125368674287" lon="11.876261232573198"><ele>552.8</ele><time>2026-05-04T14:06:08.001Z</time></trkpt><trkpt lat="43.70129759974281" lon="11.876169202697959"><ele>551.4</ele><time>2026-05-04T14:06:09.001Z</time></trkpt><trkpt lat="43.701298777004624" lon="11.876055896902942"><ele>550.0</ele><time>2026-05-04T14:06:10.001Z</time></trkpt><trkpt lat="43.70130622795269" lon="11.875966298911363"><ele>548.0</ele><time>2026-05-04T14:06:11.001Z</time></trkpt><trkpt lat="43.70133084928738" lon="11.875860972854586"><ele>546.0</ele><time>2026-05-04T14:06:12.001Z</time></trkpt><trkpt lat="43.70132833178333" lon="11.875748964338362"><ele>544.0</ele><time>2026-05-04T14:06:13.001Z</time></trkpt><trkpt lat="43.701326049296554" lon="11.875628479121113"><ele>542.0</ele><time>2026-05-04T14:06:14.001Z</time></trkpt><trkpt lat="43.701330952630684" lon="11.8755062805298"><ele>540.0</ele><time>2026-05-04T14:06:15.001Z</time></trkpt><trkpt lat="43.70133776918868" lon="11.87538227118414"><ele>538.0</ele><time>2026-05-04T14:06:16.001Z</time></trkpt><trkpt lat="43.70134514302487" lon="11.875284079889976"><ele>538.0</ele><time>2026-05-04T14:06:17.001Z</time></trkpt><trkpt lat="43.70135148781814" lon="11.875120158406713"><ele>538.0</ele><time>2026-05-04T14:06:19.001Z</time></trkpt><trkpt lat="43.70133884530024" lon="11.874948313766065"><ele>538.0</ele><time>2026-05-04T14:06:21.001Z</time></trkpt><trkpt lat="43.7013148213308" lon="11.874841206940825"><ele>538.0</ele><time>2026-05-04T14:06:22.001Z</time></trkpt><trkpt lat="43.701283701527394" lon="11.874729988755922"><ele>538.0</ele><time>2026-05-04T14:06:23.001Z</time></trkpt><trkpt lat="43.70125035959836" lon="11.874629669091128"><ele>536.1666666666667</ele><time>2026-05-04T14:06:24.001Z</time></trkpt><trkpt lat="43.70120040892776" lon="11.87453245608552"><ele>534.3333333333334</ele><time>2026-05-04T14:06:25.001Z</time></trkpt><trkpt lat="43.70117040830247" lon="11.87441302328736"><ele>532.5</ele><time>2026-05-04T14:06:26.001Z</time></trkpt><trkpt lat="43.70112230877588" lon="11.874331486609574"><ele>530.6666666666666</ele><time>2026-05-04T14:06:27.001Z</time></trkpt><trkpt lat="43.701094399282596" lon="11.874251616143429"><ele>528.8333333333333</ele><time>2026-05-04T14:06:28.001Z</time></trkpt><trkpt lat="43.7010935018068" lon="11.874154502458124"><ele>527.0</ele><time>2026-05-04T14:06:29.001Z</time></trkpt><trkpt lat="43.701128362718684" lon="11.874053123274624"><ele>526.0</ele><time>2026-05-04T14:06:30.001Z</time></trkpt><trkpt lat="43.701085845787425" lon="11.873893986359853"><ele>525.0</ele><time>2026-05-04T14:06:32.001Z</time></trkpt><trkpt lat="43.701010473978435" lon="11.873843352639788"><ele>524.0</ele><time>2026-05-04T14:06:33.001Z</time></trkpt><trkpt lat="43.700946803128375" lon="11.873763166538769"><ele>523.0</ele><time>2026-05-04T14:06:34.001Z</time></trkpt><trkpt lat="43.70091067922165" lon="11.873656784358325"><ele>522.0</ele><time>2026-05-04T14:06:35.001Z</time></trkpt><trkpt lat="43.700877219936025" lon="11.873548889692062"><ele>521.1666666666666</ele><time>2026-05-04T14:06:36.001Z</time></trkpt><trkpt lat="43.70086202399439" lon="11.873437403222402"><ele>520.3333333333334</ele><time>2026-05-04T14:06:37.001Z</time></trkpt><trkpt lat="43.700843180795644" lon="11.873320713161393"><ele>519.5</ele><time>2026-05-04T14:06:38.001Z</time></trkpt><trkpt lat="43.70081515336211" lon="11.87321607547269"><ele>518.6666666666667</ele><time>2026-05-04T14:06:39.001Z</time></trkpt><trkpt lat="43.70079462889379" lon="11.87310144277078"><ele>517.8333333333334</ele><time>2026-05-04T14:06:40.001Z</time></trkpt><trkpt lat="43.700782935448196" lon="11.872988958903202"><ele>517.0</ele><time>2026-05-04T14:06:41.001Z</time></trkpt><trkpt lat="43.70079491555602" lon="11.87286617520588"><ele>517.0</ele><time>2026-05-04T14:06:42.001Z</time></trkpt><trkpt lat="43.70080362005297" lon="11.872758623950062"><ele>517.0</ele><time>2026-05-04T14:06:43.001Z</time></trkpt><trkpt lat="43.70080322859708" lon="11.87264471155414"><ele>517.0</ele><time>2026-05-04T14:06:44.001Z</time></trkpt><trkpt lat="43.70082652413903" lon="11.872530033879055"><ele>517.0</ele><time>2026-05-04T14:06:45.001Z</time></trkpt><trkpt lat="43.70085273271921" lon="11.872440685574716"><ele>517.0</ele><time>2026-05-04T14:06:46.001Z</time></trkpt><trkpt lat="43.70087504086359" lon="11.872351860529045"><ele>517.0</ele><time>2026-05-04T14:06:47.001Z</time></trkpt><trkpt lat="43.70090884413641" lon="11.872242432036417"><ele>516.0</ele><time>2026-05-04T14:06:49.001Z</time></trkpt><trkpt lat="43.70091245998931" lon="11.87213239592179"><ele>515.0</ele><time>2026-05-04T14:06:51.001Z</time></trkpt><trkpt lat="43.70085981125736" lon="11.872066910317766"><ele>514.0</ele><time>2026-05-04T14:06:52.001Z</time></trkpt><trkpt lat="43.70077001898532" lon="11.872041494185035"><ele>513.0</ele><time>2026-05-04T14:06:53.001Z</time></trkpt><trkpt lat="43.70065311774306" lon="11.871960028452419"><ele>512.0</ele><time>2026-05-04T14:06:55.001Z</time></trkpt><trkpt lat="43.70059207124658" lon="11.871913285202258"><ele>511.0</ele><time>2026-05-04T14:06:56.001Z</time></trkpt><trkpt lat="43.70052728491607" lon="11.87188079604151"><ele>511.00000000000006</ele><time>2026-05-04T14:06:57.001Z</time></trkpt><trkpt lat="43.70046356176664" lon="11.871828365563633"><ele>511.0</ele><time>2026-05-04T14:06:58.001Z</time></trkpt><trkpt lat="43.70039362845807" lon="11.871773320379146"><ele>511.0</ele><time>2026-05-04T14:06:59.001Z</time></trkpt><trkpt lat="43.700320113423174" lon="11.871709402488028"><ele>511.0</ele><time>2026-05-04T14:07:00.001Z</time></trkpt><trkpt lat="43.70026462608702" lon="11.871638720201588"><ele>511.00000000000006</ele><time>2026-05-04T14:07:01.001Z</time></trkpt><trkpt lat="43.700192484013805" lon="11.871575035889656"><ele>511.0</ele><time>2026-05-04T14:07:02.001Z</time></trkpt><trkpt lat="43.70012537210864" lon="11.87153595134727"><ele>508.33333333333337</ele><time>2026-05-04T14:07:03.001Z</time></trkpt><trkpt lat="43.70006493191025" lon="11.871475712315085"><ele>505.6666666666667</ele><time>2026-05-04T14:07:04.001Z</time></trkpt><trkpt lat="43.700019574220256" lon="11.871393053387473"><ele>503.0</ele><time>2026-05-04T14:07:05.001Z</time></trkpt><trkpt lat="43.69996377785608" lon="11.871330532113246"><ele>500.33333333333337</ele><time>2026-05-04T14:07:06.001Z</time></trkpt><trkpt lat="43.69991061430754" lon="11.871282136127942"><ele>497.6666666666667</ele><time>2026-05-04T14:07:07.001Z</time></trkpt><trkpt lat="43.69979917797816" lon="11.871231822330008"><ele>495.0</ele><time>2026-05-04T14:07:09.001Z</time></trkpt><trkpt lat="43.69973228949164" lon="11.871222192282513"><ele>495.0</ele><time>2026-05-04T14:07:10.001Z</time></trkpt><trkpt lat="43.69965926311964" lon="11.871200705129624"><ele>495.0</ele><time>2026-05-04T14:07:11.001Z</time></trkpt><trkpt lat="43.69957756308503" lon="11.871215876117327"><ele>495.0</ele><time>2026-05-04T14:07:12.001Z</time></trkpt><trkpt lat="43.69948081094919" lon="11.871232639505358"><ele>495.0</ele><time>2026-05-04T14:07:13.001Z</time></trkpt><trkpt lat="43.6993861522312" lon="11.871237050437179"><ele>495.0</ele><time>2026-05-04T14:07:14.001Z</time></trkpt><trkpt lat="43.69930887689049" lon="11.871231290110197"><ele>495.0</ele><time>2026-05-04T14:07:15.001Z</time></trkpt><trkpt lat="43.69924322209508" lon="11.871213828480156"><ele>495.0</ele><time>2026-05-04T14:07:16.001Z</time></trkpt><trkpt lat="43.699122780823615" lon="11.871145075195692"><ele>495.0</ele><time>2026-05-04T14:07:18.001Z</time></trkpt><trkpt lat="43.699057423879694" lon="11.871065314271958"><ele>495.0</ele><time>2026-05-04T14:07:19.001Z</time></trkpt><trkpt lat="43.69900989062429" lon="11.87097809552409"><ele>495.0</ele><time>2026-05-04T14:07:20.001Z</time></trkpt><trkpt lat="43.69896113651137" lon="11.870899702765213"><ele>495.0</ele><time>2026-05-04T14:07:21.001Z</time></trkpt><trkpt lat="43.69891471888601" lon="11.870809673575108"><ele>491.8</ele><time>2026-05-04T14:07:22.001Z</time></trkpt><trkpt lat="43.698861192853315" lon="11.870705196605417"><ele>488.6</ele><time>2026-05-04T14:07:23.001Z</time></trkpt><trkpt lat="43.698795295787995" lon="11.870608590651587"><ele>485.4</ele><time>2026-05-04T14:07:24.001Z</time></trkpt><trkpt lat="43.69874554430754" lon="11.870491002433159"><ele>482.2</ele><time>2026-05-04T14:07:25.001Z</time></trkpt><trkpt lat="43.69869245288423" lon="11.87038607821151"><ele>479.0</ele><time>2026-05-04T14:07:26.001Z</time></trkpt><trkpt lat="43.69865179706404" lon="11.870300666732149"><ele>478.99999999999994</ele><time>2026-05-04T14:07:27.001Z</time></trkpt><trkpt lat="43.6986128646425" lon="11.870225360972084"><ele>479.0</ele><time>2026-05-04T14:07:28.001Z</time></trkpt><trkpt lat="43.69856071017745" lon="11.870147865527612"><ele>479.0</ele><time>2026-05-04T14:07:29.001Z</time></trkpt><trkpt lat="43.6985272741179" lon="11.870062645458706"><ele>479.0</ele><time>2026-05-04T14:07:30.001Z</time></trkpt><trkpt lat="43.69848507418339" lon="11.869987623337769"><ele>478.99999999999994</ele><time>2026-05-04T14:07:31.001Z</time></trkpt><trkpt lat="43.6984169293515" lon="11.869857117973893"><ele>479.0</ele><time>2026-05-04T14:07:33.001Z</time></trkpt><trkpt lat="43.69838954874925" lon="11.869764974173231"><ele>478.3333333333333</ele><time>2026-05-04T14:07:35.001Z</time></trkpt><trkpt lat="43.698423835963276" lon="11.869644082712533"><ele>477.66666666666663</ele><time>2026-05-04T14:07:37.001Z</time></trkpt><trkpt lat="43.69845435310144" lon="11.869561328046695"><ele>477.0</ele><time>2026-05-04T14:07:38.001Z</time></trkpt><trkpt lat="43.69848015162114" lon="11.869457965472384"><ele>476.33333333333337</ele><time>2026-05-04T14:07:39.001Z</time></trkpt><trkpt lat="43.69850916303003" lon="11.869319516669849"><ele>475.6666666666667</ele><time>2026-05-04T14:07:40.001Z</time></trkpt><trkpt lat="43.69853831776049" lon="11.869192502454682"><ele>475.0</ele><time>2026-05-04T14:07:41.001Z</time></trkpt><trkpt lat="43.698560015731005" lon="11.869078958435939"><ele>473.50000000000006</ele><time>2026-05-04T14:07:42.001Z</time></trkpt><trkpt lat="43.69859146511514" lon="11.868987458831114"><ele>472.0</ele><time>2026-05-04T14:07:43.001Z</time></trkpt><trkpt lat="43.69858642402413" lon="11.868885447896862"><ele>470.5</ele><time>2026-05-04T14:07:44.001Z</time></trkpt><trkpt lat="43.69856286008823" lon="11.868782175319353"><ele>469.0</ele><time>2026-05-04T14:07:45.001Z</time></trkpt><trkpt lat="43.6985545032142" lon="11.868693275393184"><ele>467.50000000000006</ele><time>2026-05-04T14:07:46.001Z</time></trkpt><trkpt lat="43.69854723692083" lon="11.868585933735332"><ele>466.0</ele><time>2026-05-04T14:07:47.001Z</time></trkpt><trkpt lat="43.69856581580072" lon="11.868433778312166"><ele>464.1666666666667</ele><time>2026-05-04T14:07:49.001Z</time></trkpt><trkpt lat="43.69860352664888" lon="11.868326092133726"><ele>462.33333333333337</ele><time>2026-05-04T14:07:50.001Z</time></trkpt><trkpt lat="43.69864386024622" lon="11.868227274353481"><ele>460.5</ele><time>2026-05-04T14:07:51.001Z</time></trkpt><trkpt lat="43.69868088303188" lon="11.868122808004244"><ele>458.66666666666663</ele><time>2026-05-04T14:07:52.001Z</time></trkpt><trkpt lat="43.69870354269391" lon="11.86799999498791"><ele>456.8333333333333</ele><time>2026-05-04T14:07:54.001Z</time></trkpt><trkpt lat="43.698774064075" lon="11.86789366172129"><ele>455.0</ele><time>2026-05-04T14:07:56.001Z</time></trkpt><trkpt lat="43.6988213796561" lon="11.867833441365452"><ele>455.0</ele><time>2026-05-04T14:07:57.001Z</time></trkpt><trkpt lat="43.69891793791359" lon="11.867716493645807"><ele>455.0</ele><time>2026-05-04T14:07:59.001Z</time></trkpt><trkpt lat="43.6989900139467" lon="11.867581468772256"><ele>455.0</ele><time>2026-05-04T14:08:01.001Z</time></trkpt><trkpt lat="43.69898375251162" lon="11.867482875388529"><ele>455.0</ele><time>2026-05-04T14:08:02.001Z</time></trkpt><trkpt lat="43.69898341856793" lon="11.867367095819203"><ele>455.0</ele><time>2026-05-04T14:08:03.001Z</time></trkpt><trkpt lat="43.698992949561614" lon="11.867244253321394"><ele>451.8</ele><time>2026-05-04T14:08:04.001Z</time></trkpt><trkpt lat="43.699041997589156" lon="11.867040290954115"><ele>448.6</ele><time>2026-05-04T14:08:06.001Z</time></trkpt><trkpt lat="43.699062001153656" lon="11.866897428981593"><ele>445.4</ele><time>2026-05-04T14:08:07.001Z</time></trkpt><trkpt lat="43.69907695658734" lon="11.866787710636613"><ele>442.2</ele><time>2026-05-04T14:08:08.001Z</time></trkpt><trkpt lat="43.69905991163795" lon="11.866670542017603"><ele>439.0</ele><time>2026-05-04T14:08:09.001Z</time></trkpt><trkpt lat="43.69905549452317" lon="11.866559645479654"><ele>437.50000000000006</ele><time>2026-05-04T14:08:10.001Z</time></trkpt><trkpt lat="43.69904100275555" lon="11.866446505312808"><ele>436.0</ele><time>2026-05-04T14:08:11.001Z</time></trkpt><trkpt lat="43.69901330365707" lon="11.866344031208513"><ele>434.5</ele><time>2026-05-04T14:08:12.001Z</time></trkpt><trkpt lat="43.69901665796656" lon="11.866229433016438"><ele>433.0</ele><time>2026-05-04T14:08:13.001Z</time></trkpt><trkpt lat="43.69903305742062" lon="11.866124359741582"><ele>431.50000000000006</ele><time>2026-05-04T14:08:14.001Z</time></trkpt><trkpt lat="43.699047579545464" lon="11.865987969185609"><ele>430.0</ele><time>2026-05-04T14:08:15.001Z</time></trkpt><trkpt lat="43.699056765169246" lon="11.865864787286915"><ele>429.1666666666667</ele><time>2026-05-04T14:08:16.001Z</time></trkpt><trkpt lat="43.69906379589834" lon="11.865742093141296"><ele>428.33333333333337</ele><time>2026-05-04T14:08:17.001Z</time></trkpt><trkpt lat="43.69907266501613" lon="11.865626168500677"><ele>427.5</ele><time>2026-05-04T14:08:18.001Z</time></trkpt><trkpt lat="43.69909071187076" lon="11.865540702895089"><ele>426.66666666666663</ele><time>2026-05-04T14:08:19.001Z</time></trkpt><trkpt lat="43.69910337574383" lon="11.865406786663776"><ele>425.8333333333333</ele><time>2026-05-04T14:08:20.001Z</time></trkpt><trkpt lat="43.6991177031147" lon="11.865277076343046"><ele>425.0</ele><time>2026-05-04T14:08:21.001Z</time></trkpt><trkpt lat="43.69912532670874" lon="11.865149021082187"><ele>423.3333333333333</ele><time>2026-05-04T14:08:22.001Z</time></trkpt><trkpt lat="43.69912863007243" lon="11.865043242008234"><ele>421.66666666666663</ele><time>2026-05-04T14:08:23.001Z</time></trkpt><trkpt lat="43.699129778800575" lon="11.864919275129289"><ele>420.0</ele><time>2026-05-04T14:08:24.001Z</time></trkpt><trkpt lat="43.69913104014504" lon="11.864813504844635"><ele>418.33333333333337</ele><time>2026-05-04T14:08:25.001Z</time></trkpt><trkpt lat="43.69914075375336" lon="11.864718204067085"><ele>416.6666666666667</ele><time>2026-05-04T14:08:26.001Z</time></trkpt><trkpt lat="43.69915961867685" lon="11.864619251337778"><ele>415.0</ele><time>2026-05-04T14:08:27.001Z</time></trkpt><trkpt lat="43.69921315400515" lon="11.86447807577208"><ele>415.00000000000006</ele><time>2026-05-04T14:08:29.001Z</time></trkpt><trkpt lat="43.69924053811911" lon="11.864393747056527"><ele>415.0</ele><time>2026-05-04T14:08:30.001Z</time></trkpt><trkpt lat="43.69925213756949" lon="11.864288200503848"><ele>415.0</ele><time>2026-05-04T14:08:31.001Z</time></trkpt><trkpt lat="43.69924727094558" lon="11.864201140823628"><ele>415.0</ele><time>2026-05-04T14:08:32.001Z</time></trkpt><trkpt lat="43.69919627663713" lon="11.86404249535884"><ele>415.00000000000006</ele><time>2026-05-04T14:08:34.001Z</time></trkpt><trkpt lat="43.69914408132729" lon="11.86397629427066"><ele>415.0</ele><time>2026-05-04T14:08:35.001Z</time></trkpt><trkpt lat="43.699062353554645" lon="11.863845992004123"><ele>412.8</ele><time>2026-05-04T14:08:37.001Z</time></trkpt><trkpt lat="43.69897889611673" lon="11.863700833297187"><ele>410.6</ele><time>2026-05-04T14:08:39.001Z</time></trkpt><trkpt lat="43.69893376282907" lon="11.863608559185513"><ele>408.4</ele><time>2026-05-04T14:08:40.001Z</time></trkpt><trkpt lat="43.698888790350836" lon="11.86353260521022"><ele>406.2</ele><time>2026-05-04T14:08:41.001Z</time></trkpt><trkpt lat="43.69882622778055" lon="11.863484291606376"><ele>404.0</ele><time>2026-05-04T14:08:42.001Z</time></trkpt><trkpt lat="43.698748590038534" lon="11.863413598402772"><ele>401.99999999999994</ele><time>2026-05-04T14:08:43.001Z</time></trkpt><trkpt lat="43.6986896628949" lon="11.863308058893583"><ele>400.0</ele><time>2026-05-04T14:08:44.001Z</time></trkpt><trkpt lat="43.69862936694991" lon="11.863231636843418"><ele>398.0</ele><time>2026-05-04T14:08:45.001Z</time></trkpt><trkpt lat="43.69856825737607" lon="11.86315590787507"><ele>396.0</ele><time>2026-05-04T14:08:46.001Z</time></trkpt><trkpt lat="43.698503014945366" lon="11.863080576316314"><ele>393.99999999999994</ele><time>2026-05-04T14:08:47.001Z</time></trkpt><trkpt lat="43.69843621683092" lon="11.863042104669312"><ele>392.0</ele><time>2026-05-04T14:08:48.001Z</time></trkpt><trkpt lat="43.69838099534954" lon="11.86298946071381"><ele>391.7142857142857</ele><time>2026-05-04T14:08:49.001Z</time></trkpt><trkpt lat="43.69831669185883" lon="11.862943215787608"><ele>391.42857142857144</ele><time>2026-05-04T14:08:50.001Z</time></trkpt><trkpt lat="43.698259576864366" lon="11.862884907050791"><ele>391.1428571428571</ele><time>2026-05-04T14:08:51.001Z</time></trkpt><trkpt lat="43.69819888822617" lon="11.862845329721006"><ele>390.8571428571429</ele><time>2026-05-04T14:08:52.001Z</time></trkpt><trkpt lat="43.69812688972065" lon="11.862821041130985"><ele>390.57142857142856</ele><time>2026-05-04T14:08:53.001Z</time></trkpt><trkpt lat="43.69805892946965" lon="11.862758644570004"><ele>390.2857142857143</ele><time>2026-05-04T14:08:54.001Z</time></trkpt><trkpt lat="43.697994686410844" lon="11.86269117385064"><ele>390.0</ele><time>2026-05-04T14:08:55.001Z</time></trkpt><trkpt lat="43.697935313938174" lon="11.862620934367945"><ele>387.2</ele><time>2026-05-04T14:08:56.001Z</time></trkpt><trkpt lat="43.69788193943742" lon="11.862563094742"><ele>384.4</ele><time>2026-05-04T14:08:57.001Z</time></trkpt><trkpt lat="43.6977913655881" lon="11.862455666950323"><ele>381.6</ele><time>2026-05-04T14:08:59.001Z</time></trkpt><trkpt lat="43.6977250410519" lon="11.862360302569257"><ele>378.8</ele><time>2026-05-04T14:09:01.001Z</time></trkpt><trkpt lat="43.69768808569144" lon="11.862232128684985"><ele>376.0</ele><time>2026-05-04T14:09:03.001Z</time></trkpt><trkpt lat="43.6976714442364" lon="11.862120002501834"><ele>376.0</ele><time>2026-05-04T14:09:05.001Z</time></trkpt><trkpt lat="43.6976704303448" lon="11.862022102631661"><ele>376.0</ele><time>2026-05-04T14:09:08.001Z</time></trkpt><trkpt lat="43.697765055064956" lon="11.861986936147677"><ele>376.0</ele><time>2026-05-04T14:09:11.001Z</time></trkpt><trkpt lat="43.697870158751854" lon="11.862039891198194"><ele>376.0</ele><time>2026-05-04T14:09:13.001Z</time></trkpt><trkpt lat="43.69796911256561" lon="11.86205456408287"><ele>376.0</ele><time>2026-05-04T14:09:15.001Z</time></trkpt><trkpt lat="43.698044619144426" lon="11.862026433442937"><ele>376.0</ele><time>2026-05-04T14:09:17.001Z</time></trkpt><trkpt lat="43.69810256952483" lon="11.861902468476998"><ele>376.0</ele><time>2026-05-04T14:09:19.001Z</time></trkpt><trkpt lat="43.698115264654255" lon="11.86177119125184"><ele>376.0</ele><time>2026-05-04T14:09:21.001Z</time></trkpt><trkpt lat="43.69815202989303" lon="11.861696282922262"><ele>376.0</ele><time>2026-05-04T14:09:24.001Z</time></trkpt><trkpt lat="43.69816114679076" lon="11.8615875801441"><ele>376.0</ele><time>2026-05-04T14:09:26.001Z</time></trkpt><trkpt lat="43.69818897938484" lon="11.86147724702337"><ele>376.0</ele><time>2026-05-04T14:09:28.001Z</time></trkpt><trkpt lat="43.698220182058755" lon="11.861351200312194"><ele>373.0</ele><time>2026-05-04T14:09:30.001Z</time></trkpt><trkpt lat="43.69826099503518" lon="11.861186331738084"><ele>370.0</ele><time>2026-05-04T14:09:32.001Z</time></trkpt><trkpt lat="43.698283868542404" lon="11.861093931692976"><ele>367.0</ele><time>2026-05-04T14:09:33.001Z</time></trkpt><trkpt lat="43.69832429903095" lon="11.860935067136483"><ele>364.0</ele><time>2026-05-04T14:09:35.001Z</time></trkpt><trkpt lat="43.69835283639818" lon="11.860831219275713"><ele>361.0</ele><time>2026-05-04T14:09:37.001Z</time></trkpt><trkpt lat="43.69847862193641" lon="11.860813532854731"><ele>360.4</ele><time>2026-05-04T14:09:42.001Z</time></trkpt><trkpt lat="43.69840472904083" lon="11.86072414746601"><ele>359.8</ele><time>2026-05-04T14:09:44.001Z</time></trkpt><trkpt lat="43.698392711280604" lon="11.860587977607455"><ele>359.2</ele><time>2026-05-04T14:09:46.001Z</time></trkpt><trkpt lat="43.69846326779251" lon="11.860452122836838"><ele>358.59999999999997</ele><time>2026-05-04T14:09:48.001Z</time></trkpt><trkpt lat="43.6984847067228" lon="11.860362798385568"><ele>358.0</ele><time>2026-05-04T14:09:49.001Z</time></trkpt><trkpt lat="43.6984974781205" lon="11.860267388951701"><ele>358.00000000000006</ele><time>2026-05-04T14:09:50.001Z</time></trkpt><trkpt lat="43.69852028846022" lon="11.860175615232395"><ele>358.0</ele><time>2026-05-04T14:09:51.001Z</time></trkpt><trkpt lat="43.69854158655785" lon="11.860076981411398"><ele>358.0</ele><time>2026-05-04T14:09:52.001Z</time></trkpt><trkpt lat="43.6985645495574" lon="11.859982039415964"><ele>358.0</ele><time>2026-05-04T14:09:53.001Z</time></trkpt><trkpt lat="43.69858568812746" lon="11.859891175507107"><ele>358.0</ele><time>2026-05-04T14:09:54.001Z</time></trkpt><trkpt lat="43.69860936041457" lon="11.859791124821738"><ele>358.00000000000006</ele><time>2026-05-04T14:09:55.001Z</time></trkpt><trkpt lat="43.69862865195251" lon="11.859690544960559"><ele>358.0</ele><time>2026-05-04T14:09:56.001Z</time></trkpt><trkpt lat="43.69865772331293" lon="11.859588951757226"><ele>357.8333333333333</ele><time>2026-05-04T14:09:57.001Z</time></trkpt><trkpt lat="43.6986802736265" lon="11.85947750304764"><ele>357.66666666666663</ele><time>2026-05-04T14:09:58.001Z</time></trkpt><trkpt lat="43.69870729430942" lon="11.859351301063235"><ele>357.5</ele><time>2026-05-04T14:09:59.001Z</time></trkpt><trkpt lat="43.698736534972056" lon="11.859226101885461"><ele>357.3333333333333</ele><time>2026-05-04T14:10:00.001Z</time></trkpt><trkpt lat="43.69876514138817" lon="11.859108986608671"><ele>357.1666666666667</ele><time>2026-05-04T14:10:01.001Z</time></trkpt><trkpt lat="43.698799980110245" lon="11.859010224494172"><ele>357.0</ele><time>2026-05-04T14:10:02.001Z</time></trkpt><trkpt lat="43.69881136837275" lon="11.858888890894471"><ele>357.3333333333333</ele><time>2026-05-04T14:10:03.001Z</time></trkpt><trkpt lat="43.69885375188435" lon="11.85877776061247"><ele>357.6666666666667</ele><time>2026-05-04T14:10:04.001Z</time></trkpt><trkpt lat="43.69886758037503" lon="11.858648115287659"><ele>358.0</ele><time>2026-05-04T14:10:05.001Z</time></trkpt><trkpt lat="43.698894727469316" lon="11.858536568473502"><ele>358.33333333333337</ele><time>2026-05-04T14:10:06.001Z</time></trkpt><trkpt lat="43.698923094225215" lon="11.858419684256466"><ele>358.6666666666667</ele><time>2026-05-04T14:10:07.001Z</time></trkpt><trkpt lat="43.698953037105646" lon="11.858305093169593"><ele>359.0</ele><time>2026-05-04T14:10:08.001Z</time></trkpt><trkpt lat="43.69898196365496" lon="11.858193314085868"><ele>359.2</ele><time>2026-05-04T14:10:09.001Z</time></trkpt><trkpt lat="43.6990075665658" lon="11.858077319173656"><ele>359.4</ele><time>2026-05-04T14:10:10.001Z</time></trkpt><trkpt lat="43.69903123356701" lon="11.857962265190839"><ele>359.6</ele><time>2026-05-04T14:10:11.001Z</time></trkpt><trkpt lat="43.699070697674124" lon="11.857864757031017"><ele>359.8</ele><time>2026-05-04T14:10:12.001Z</time></trkpt><trkpt lat="43.69909133863222" lon="11.857716577755506"><ele>360.0</ele><time>2026-05-04T14:10:14.001Z</time></trkpt><trkpt lat="43.69912348258991" lon="11.857596642042166"><ele>360.8</ele><time>2026-05-04T14:10:17.001Z</time></trkpt><trkpt lat="43.699057737713126" lon="11.85751111699208"><ele>361.6</ele><time>2026-05-04T14:10:18.001Z</time></trkpt><trkpt lat="43.699017261217584" lon="11.857421304901873"><ele>362.4</ele><time>2026-05-04T14:10:19.001Z</time></trkpt><trkpt lat="43.69896729306649" lon="11.857321623321024"><ele>363.2</ele><time>2026-05-04T14:10:20.001Z</time></trkpt><trkpt lat="43.69890961282647" lon="11.857219738850839"><ele>364.0</ele><time>2026-05-04T14:10:21.001Z</time></trkpt><trkpt lat="43.69884161163608" lon="11.857115428117098"><ele>364.0</ele><time>2026-05-04T14:10:22.001Z</time></trkpt><trkpt lat="43.6987773900665" lon="11.85702197730789"><ele>364.0</ele><time>2026-05-04T14:10:23.001Z</time></trkpt><trkpt lat="43.69871113020408" lon="11.85694448469698"><ele>364.0</ele><time>2026-05-04T14:10:24.001Z</time></trkpt><trkpt lat="43.69865044997505" lon="11.856871846895253"><ele>364.0</ele><time>2026-05-04T14:10:25.001Z</time></trkpt><trkpt lat="43.69855136228555" lon="11.85675942436421"><ele>364.0</ele><time>2026-05-04T14:10:26.001Z</time></trkpt><trkpt lat="43.698465426419055" lon="11.856678836320771"><ele>363.4</ele><time>2026-05-04T14:10:27.001Z</time></trkpt><trkpt lat="43.69838311525008" lon="11.856603355006893"><ele>362.79999999999995</ele><time>2026-05-04T14:10:28.001Z</time></trkpt><trkpt lat="43.698306480642444" lon="11.85652639881451"><ele>362.20000000000005</ele><time>2026-05-04T14:10:29.001Z</time></trkpt><trkpt lat="43.69822849401876" lon="11.856443069486383"><ele>361.6</ele><time>2026-05-04T14:10:30.001Z</time></trkpt><trkpt lat="43.698152608630195" lon="11.856347955127525"><ele>361.0</ele><time>2026-05-04T14:10:31.001Z</time></trkpt><trkpt lat="43.698079166486686" lon="11.85625456716759"><ele>361.0</ele><time>2026-05-04T14:10:32.001Z</time></trkpt><trkpt lat="43.697998781362166" lon="11.85616095310481"><ele>361.0</ele><time>2026-05-04T14:10:33.001Z</time></trkpt><trkpt lat="43.697915688226644" lon="11.856070048358147"><ele>361.0</ele><time>2026-05-04T14:10:34.001Z</time></trkpt><trkpt lat="43.69784480467051" lon="11.855954700264393"><ele>361.0</ele><time>2026-05-04T14:10:35.001Z</time></trkpt><trkpt lat="43.69775252923036" lon="11.855878452463239"><ele>361.0</ele><time>2026-05-04T14:10:36.001Z</time></trkpt><trkpt lat="43.6976825841183" lon="11.85578474764855"><ele>361.66666666666663</ele><time>2026-05-04T14:10:37.001Z</time></trkpt><trkpt lat="43.697613152083115" lon="11.8557099302357"><ele>362.3333333333333</ele><time>2026-05-04T14:10:38.001Z</time></trkpt><trkpt lat="43.6975924155768" lon="11.855590616218983"><ele>363.0</ele><time>2026-05-04T14:10:39.001Z</time></trkpt><trkpt lat="43.69756819445907" lon="11.855492517351353"><ele>363.6666666666667</ele><time>2026-05-04T14:10:40.001Z</time></trkpt><trkpt lat="43.69755640459164" lon="11.85539935531081"><ele>364.33333333333337</ele><time>2026-05-04T14:10:41.001Z</time></trkpt><trkpt lat="43.69759362168484" lon="11.855232259676187"><ele>365.0</ele><time>2026-05-04T14:10:43.001Z</time></trkpt><trkpt lat="43.69759484326734" lon="11.855122297577761"><ele>365.6666666666667</ele><time>2026-05-04T14:10:44.001Z</time></trkpt><trkpt lat="43.69757864227655" lon="11.855007982475685"><ele>366.33333333333337</ele><time>2026-05-04T14:10:45.001Z</time></trkpt><trkpt lat="43.697555388426906" lon="11.854904414455671"><ele>367.0</ele><time>2026-05-04T14:10:46.001Z</time></trkpt><trkpt lat="43.6974791085088" lon="11.854840576161763"><ele>367.6666666666667</ele><time>2026-05-04T14:10:47.001Z</time></trkpt><trkpt lat="43.697382069962366" lon="11.854802055041528"><ele>368.3333333333333</ele><time>2026-05-04T14:10:48.001Z</time></trkpt><trkpt lat="43.6973133999565" lon="11.854715414664424"><ele>369.0</ele><time>2026-05-04T14:10:49.001Z</time></trkpt><trkpt lat="43.69723610159202" lon="11.85464040494115"><ele>369.0</ele><time>2026-05-04T14:10:50.001Z</time></trkpt><trkpt lat="43.697189804523184" lon="11.854558342623593"><ele>369.0</ele><time>2026-05-04T14:10:51.001Z</time></trkpt><trkpt lat="43.697211802050454" lon="11.854388494750253"><ele>369.0</ele><time>2026-05-04T14:10:53.001Z</time></trkpt><trkpt lat="43.697245761320886" lon="11.854306746465165"><ele>369.0</ele><time>2026-05-04T14:10:54.001Z</time></trkpt><trkpt lat="43.69726528049168" lon="11.854213520439913"><ele>369.0</ele><time>2026-05-04T14:10:55.001Z</time></trkpt><trkpt lat="43.697309770647664" lon="11.854128075097336"><ele>369.0</ele><time>2026-05-04T14:10:56.001Z</time></trkpt><trkpt lat="43.697347160939486" lon="11.854040174788793"><ele>370.1666666666667</ele><time>2026-05-04T14:10:57.001Z</time></trkpt><trkpt lat="43.697370178698556" lon="11.853937606471218"><ele>371.3333333333333</ele><time>2026-05-04T14:10:58.001Z</time></trkpt><trkpt lat="43.697396465417654" lon="11.853833922221533"><ele>372.5</ele><time>2026-05-04T14:10:59.001Z</time></trkpt><trkpt lat="43.697392196745845" lon="11.853715635664589"><ele>373.66666666666663</ele><time>2026-05-04T14:11:00.001Z</time></trkpt><trkpt lat="43.69740476445844" lon="11.853598030315672"><ele>374.8333333333333</ele><time>2026-05-04T14:11:01.001Z</time></trkpt><trkpt lat="43.6974117103242" lon="11.853475014864507"><ele>376.0</ele><time>2026-05-04T14:11:02.001Z</time></trkpt><trkpt lat="43.697405304584706" lon="11.853341934376143"><ele>377.8</ele><time>2026-05-04T14:11:03.001Z</time></trkpt><trkpt lat="43.697386186044035" lon="11.853206179427987"><ele>379.6</ele><time>2026-05-04T14:11:04.001Z</time></trkpt><trkpt lat="43.697361251863335" lon="11.853058738062836"><ele>381.4</ele><time>2026-05-04T14:11:05.001Z</time></trkpt><trkpt lat="43.69735506407925" lon="11.852918196512356"><ele>383.2</ele><time>2026-05-04T14:11:06.001Z</time></trkpt><trkpt lat="43.6973664025943" lon="11.85279294982284"><ele>385.0</ele><time>2026-05-04T14:11:07.001Z</time></trkpt><trkpt lat="43.697379221027795" lon="11.852679557379512"><ele>387.2</ele><time>2026-05-04T14:11:08.001Z</time></trkpt><trkpt lat="43.69737297935076" lon="11.852564135038776"><ele>389.4</ele><time>2026-05-04T14:11:09.001Z</time></trkpt><trkpt lat="43.69735197116776" lon="11.852443865913441"><ele>391.6</ele><time>2026-05-04T14:11:10.001Z</time></trkpt><trkpt lat="43.6973222111129" lon="11.85231325636715"><ele>393.8</ele><time>2026-05-04T14:11:11.001Z</time></trkpt><trkpt lat="43.69730555386176" lon="11.852180916976655"><ele>396.0</ele><time>2026-05-04T14:11:12.001Z</time></trkpt><trkpt lat="43.697302144812674" lon="11.852060561888608"><ele>396.0</ele><time>2026-05-04T14:11:13.001Z</time></trkpt><trkpt lat="43.69729971610816" lon="11.851941575655315"><ele>396.0</ele><time>2026-05-04T14:11:14.001Z</time></trkpt><trkpt lat="43.69729410101858" lon="11.851845762624805"><ele>396.0</ele><time>2026-05-04T14:11:15.001Z</time></trkpt><trkpt lat="43.69729498151654" lon="11.851741857855894"><ele>396.0</ele><time>2026-05-04T14:11:16.001Z</time></trkpt><trkpt lat="43.69731131343934" lon="11.851640864237046"><ele>396.0</ele><time>2026-05-04T14:11:17Z</time></trkpt><trkpt lat="43.697340513035066" lon="11.85154824446933"><ele>396.0</ele><time>2026-05-04T14:11:18Z</time></trkpt><trkpt lat="43.69739865636838" lon="11.851454012357781"><ele>396.8333333333333</ele><time>2026-05-04T14:11:20Z</time></trkpt><trkpt lat="43.69751031274041" lon="11.851436205226086"><ele>397.66666666666663</ele><time>2026-05-04T14:11:22Z</time></trkpt><trkpt lat="43.697577443578744" lon="11.851441585312829"><ele>398.5</ele><time>2026-05-04T14:11:23Z</time></trkpt><trkpt lat="43.69764710054527" lon="11.851418519356239"><ele>399.3333333333333</ele><time>2026-05-04T14:11:24Z</time></trkpt><trkpt lat="43.69771114573326" lon="11.851374951992245"><ele>400.16666666666663</ele><time>2026-05-04T14:11:25Z</time></trkpt><trkpt lat="43.69777636767649" lon="11.851311715376161"><ele>401.0</ele><time>2026-05-04T14:11:26Z</time></trkpt><trkpt lat="43.69785314064082" lon="11.851239621553884"><ele>401.8</ele><time>2026-05-04T14:11:27Z</time></trkpt><trkpt lat="43.69793401392974" lon="11.851169899028665"><ele>402.6</ele><time>2026-05-04T14:11:28Z</time></trkpt><trkpt lat="43.698009809828434" lon="11.851095012461428"><ele>403.4</ele><time>2026-05-04T14:11:29Z</time></trkpt><trkpt lat="43.69808944315013" lon="11.85102926967042"><ele>404.2</ele><time>2026-05-04T14:11:30Z</time></trkpt><trkpt lat="43.69817370464807" lon="11.850970195052811"><ele>405.0</ele><time>2026-05-04T14:11:31Z</time></trkpt><trkpt lat="43.698255018088766" lon="11.850915870194479"><ele>406.0</ele><time>2026-05-04T14:11:32Z</time></trkpt><trkpt lat="43.69833485078305" lon="11.850865536958356"><ele>407.0</ele><time>2026-05-04T14:11:33Z</time></trkpt><trkpt lat="43.69841351317976" lon="11.850790561998913"><ele>408.0</ele><time>2026-05-04T14:11:34Z</time></trkpt><trkpt lat="43.69847178538904" lon="11.850704137670881"><ele>409.0</ele><time>2026-05-04T14:11:35Z</time></trkpt><trkpt lat="43.69852199524853" lon="11.850598057828886"><ele>410.0</ele><time>2026-05-04T14:11:36Z</time></trkpt><trkpt lat="43.698576527276764" lon="11.850475372888635"><ele>410.6</ele><time>2026-05-04T14:11:37Z</time></trkpt><trkpt lat="43.69863714523145" lon="11.850341327759454"><ele>411.2</ele><time>2026-05-04T14:11:38Z</time></trkpt><trkpt lat="43.698700245643465" lon="11.850215281976562"><ele>411.79999999999995</ele><time>2026-05-04T14:11:39Z</time></trkpt><trkpt lat="43.698759465456824" lon="11.850098918799558"><ele>412.4</ele><time>2026-05-04T14:11:40Z</time></trkpt><trkpt lat="43.698802905182625" lon="11.849987888307993"><ele>413.0</ele><time>2026-05-04T14:11:41Z</time></trkpt><trkpt lat="43.69883240761976" lon="11.84989015845957"><ele>414.3333333333333</ele><time>2026-05-04T14:11:42Z</time></trkpt><trkpt lat="43.69885078995151" lon="11.849782549054204"><ele>415.66666666666663</ele><time>2026-05-04T14:11:43Z</time></trkpt><trkpt lat="43.698862476316435" lon="11.849643100129535"><ele>417.0</ele><time>2026-05-04T14:11:44Z</time></trkpt><trkpt lat="43.69885811883681" lon="11.849524855826116"><ele>418.33333333333337</ele><time>2026-05-04T14:11:45Z</time></trkpt><trkpt lat="43.69885207977205" lon="11.849409941265307"><ele>419.6666666666667</ele><time>2026-05-04T14:11:46Z</time></trkpt><trkpt lat="43.69884138826293" lon="11.849288393155415"><ele>421.0</ele><time>2026-05-04T14:11:47Z</time></trkpt><trkpt lat="43.69882705551134" lon="11.849151422694367"><ele>420.8</ele><time>2026-05-04T14:11:48Z</time></trkpt><trkpt lat="43.69880016857055" lon="11.84901708454303"><ele>420.6</ele><time>2026-05-04T14:11:49Z</time></trkpt><trkpt lat="43.69875896206947" lon="11.848897093798882"><ele>420.4</ele><time>2026-05-04T14:11:50Z</time></trkpt><trkpt lat="43.698699569251716" lon="11.848792610598135"><ele>420.2</ele><time>2026-05-04T14:11:51Z</time></trkpt><trkpt lat="43.698618117381535" lon="11.848694427375605"><ele>420.0</ele><time>2026-05-04T14:11:52Z</time></trkpt><trkpt lat="43.698530534313306" lon="11.848605973264245"><ele>420.0</ele><time>2026-05-04T14:11:53Z</time></trkpt><trkpt lat="43.698449558328484" lon="11.848521051072913"><ele>420.0</ele><time>2026-05-04T14:11:54Z</time></trkpt><trkpt lat="43.698373880819766" lon="11.848429473658493"><ele>420.0</ele><time>2026-05-04T14:11:55Z</time></trkpt><trkpt lat="43.698318055598676" lon="11.848340201966177"><ele>420.0</ele><time>2026-05-04T14:11:56Z</time></trkpt><trkpt lat="43.69826007887567" lon="11.848227371984763"><ele>420.0</ele><time>2026-05-04T14:11:57Z</time></trkpt><trkpt lat="43.69820814203602" lon="11.848107443913097"><ele>422.4</ele><time>2026-05-04T14:11:58Z</time></trkpt><trkpt lat="43.698148176798625" lon="11.847977207630223"><ele>424.8</ele><time>2026-05-04T14:11:59Z</time></trkpt><trkpt lat="43.69808964339477" lon="11.84785379999038"><ele>427.20000000000005</ele><time>2026-05-04T14:12:00Z</time></trkpt><trkpt lat="43.69802717709091" lon="11.84772976528638"><ele>429.6</ele><time>2026-05-04T14:12:01Z</time></trkpt><trkpt lat="43.69796332337959" lon="11.84761714656068"><ele>432.0</ele><time>2026-05-04T14:12:02Z</time></trkpt><trkpt lat="43.6979150889657" lon="11.847532468286515"><ele>435.1666666666667</ele><time>2026-05-04T14:12:03Z</time></trkpt><trkpt lat="43.69787766019859" lon="11.847457042758869"><ele>438.33333333333337</ele><time>2026-05-04T14:12:04Z</time></trkpt><trkpt lat="43.69785560187684" lon="11.847359484853458"><ele>441.5</ele><time>2026-05-04T14:12:06Z</time></trkpt><trkpt lat="43.69794184513322" lon="11.847302288608576"><ele>444.6666666666667</ele><time>2026-05-04T14:12:09Z</time></trkpt><trkpt lat="43.698009969130396" lon="11.847328950365196"><ele>447.83333333333337</ele><time>2026-05-04T14:12:11Z</time></trkpt><trkpt lat="43.698089662173174" lon="11.847314029288292"><ele>451.0</ele><time>2026-05-04T14:12:18Z</time></trkpt><trkpt lat="43.69820977577719" lon="11.84729618922572"><ele>451.0</ele><time>2026-05-04T14:12:20Z</time></trkpt><trkpt lat="43.69827472201143" lon="11.847208002707386"><ele>451.0</ele><time>2026-05-04T14:12:22Z</time></trkpt><trkpt lat="43.69824407898045" lon="11.84712973809997"><ele>451.0</ele><time>2026-05-04T14:12:23Z</time></trkpt><trkpt lat="43.69817314202549" lon="11.847060300488783"><ele>451.0</ele><time>2026-05-04T14:12:24Z</time></trkpt><trkpt lat="43.698074896591045" lon="11.846961341950852"><ele>451.0</ele><time>2026-05-04T14:12:25Z</time></trkpt><trkpt lat="43.698004408271366" lon="11.84686165158274"><ele>456.0</ele><time>2026-05-04T14:12:26Z</time></trkpt><trkpt lat="43.697968269912934" lon="11.846747846273184"><ele>461.0</ele><time>2026-05-04T14:12:27Z</time></trkpt><trkpt lat="43.697938859404026" lon="11.846596306383585"><ele>466.0</ele><time>2026-05-04T14:12:28Z</time></trkpt><trkpt lat="43.697891156828746" lon="11.84640936458355"><ele>471.0</ele><time>2026-05-04T14:12:29Z</time></trkpt><trkpt lat="43.69785686552051" lon="11.84621885895522"><ele>471.0</ele><time>2026-05-04T14:12:30Z</time></trkpt><trkpt lat="43.697824468074465" lon="11.84603879705401"><ele>471.0</ele><time>2026-05-04T14:12:31Z</time></trkpt><trkpt lat="43.697792713396375" lon="11.845875606618996"><ele>471.0</ele><time>2026-05-04T14:12:32Z</time></trkpt><trkpt lat="43.697776895611455" lon="11.845749365438978"><ele>471.0</ele><time>2026-05-04T14:12:33Z</time></trkpt><trkpt lat="43.6977594179641" lon="11.845636102322338"><ele>471.0</ele><time>2026-05-04T14:12:34Z</time></trkpt><trkpt lat="43.697748609410304" lon="11.845538749307975"><ele>472.6666666666667</ele><time>2026-05-04T14:12:35Z</time></trkpt><trkpt lat="43.69772890687229" lon="11.845438926890457"><ele>474.33333333333337</ele><time>2026-05-04T14:12:37Z</time></trkpt><trkpt lat="43.69768414610644" lon="11.845329054516364"><ele>476.0</ele><time>2026-05-04T14:12:39Z</time></trkpt><trkpt lat="43.69765399970041" lon="11.845226927807271"><ele>477.6666666666667</ele><time>2026-05-04T14:12:40Z</time></trkpt><trkpt lat="43.697623988853266" lon="11.845108527942754"><ele>479.33333333333337</ele><time>2026-05-04T14:12:41Z</time></trkpt><trkpt lat="43.69760121500901" lon="11.844997984055446"><ele>481.0</ele><time>2026-05-04T14:12:42Z</time></trkpt><trkpt lat="43.697587880990376" lon="11.844893413154189"><ele>481.0</ele><time>2026-05-04T14:12:43Z</time></trkpt><trkpt lat="43.69759790255089" lon="11.844729379069195"><ele>481.0</ele><time>2026-05-04T14:12:45.001Z</time></trkpt><trkpt lat="43.69762848814727" lon="11.84461999158259"><ele>481.0</ele><time>2026-05-04T14:12:46.001Z</time></trkpt><trkpt lat="43.697662911084926" lon="11.844512643807887"><ele>481.0</ele><time>2026-05-04T14:12:47.001Z</time></trkpt><trkpt lat="43.69775588767051" lon="11.844398905371056"><ele>481.0</ele><time>2026-05-04T14:12:48.001Z</time></trkpt><trkpt lat="43.69781529021893" lon="11.844288063182358"><ele>480.50000000000006</ele><time>2026-05-04T14:12:49.001Z</time></trkpt><trkpt lat="43.69786371667573" lon="11.844184058801915"><ele>480.0</ele><time>2026-05-04T14:12:50.001Z</time></trkpt><trkpt lat="43.697906243565406" lon="11.844077090100066"><ele>479.5</ele><time>2026-05-04T14:12:51.001Z</time></trkpt><trkpt lat="43.69790895872444" lon="11.843950017752146"><ele>479.0</ele><time>2026-05-04T14:12:52.001Z</time></trkpt><trkpt lat="43.69789318818024" lon="11.843835102230267"><ele>478.50000000000006</ele><time>2026-05-04T14:12:53.001Z</time></trkpt><trkpt lat="43.69786750361643" lon="11.843710259647315"><ele>478.0</ele><time>2026-05-04T14:12:54.001Z</time></trkpt><trkpt lat="43.697825664487866" lon="11.843588993553565"><ele>478.0</ele><time>2026-05-04T14:12:55.001Z</time></trkpt><trkpt lat="43.697793309657904" lon="11.843485977749497"><ele>477.99999999999994</ele><time>2026-05-04T14:12:56.001Z</time></trkpt><trkpt lat="43.697779736089814" lon="11.843399834944565"><ele>477.99999999999994</ele><time>2026-05-04T14:12:57.001Z</time></trkpt><trkpt lat="43.69778107414635" lon="11.843254774147002"><ele>478.0</ele><time>2026-05-04T14:12:59Z</time></trkpt><trkpt lat="43.6978155366735" lon="11.843121127100714"><ele>478.0</ele><time>2026-05-04T14:13:01Z</time></trkpt><trkpt lat="43.697925863276964" lon="11.843057427245034"><ele>476.4</ele><time>2026-05-04T14:13:03Z</time></trkpt><trkpt lat="43.698044046886174" lon="11.843123437477622"><ele>474.79999999999995</ele><time>2026-05-04T14:13:05Z</time></trkpt><trkpt lat="43.69811860314998" lon="11.843158945226701"><ele>473.2</ele><time>2026-05-04T14:13:06Z</time></trkpt><trkpt lat="43.698237441405055" lon="11.843198731486503"><ele>471.6</ele><time>2026-05-04T14:13:08Z</time></trkpt><trkpt lat="43.69831669513834" lon="11.84322875213996"><ele>470.0</ele><time>2026-05-04T14:13:09Z</time></trkpt><trkpt lat="43.69839266896256" lon="11.843277477245296"><ele>469.99999999999994</ele><time>2026-05-04T14:13:10Z</time></trkpt><trkpt lat="43.69848609831481" lon="11.843322029797605"><ele>470.0</ele><time>2026-05-04T14:13:11Z</time></trkpt><trkpt lat="43.698599702272276" lon="11.843314339423744"><ele>470.0</ele><time>2026-05-04T14:13:13Z</time></trkpt><trkpt lat="43.69865932591168" lon="11.843273503622779"><ele>470.0</ele><time>2026-05-04T14:13:14Z</time></trkpt><trkpt lat="43.698711978893925" lon="11.843212179062268"><ele>469.99999999999994</ele><time>2026-05-04T14:13:15Z</time></trkpt><trkpt lat="43.69874132108457" lon="11.843134531668333"><ele>470.0</ele><time>2026-05-04T14:13:16Z</time></trkpt><trkpt lat="43.69874323363946" lon="11.84304712808782"><ele>469.2</ele><time>2026-05-04T14:13:17Z</time></trkpt><trkpt lat="43.69873121291565" lon="11.842941149445137"><ele>468.4</ele><time>2026-05-04T14:13:18Z</time></trkpt><trkpt lat="43.698689900169825" lon="11.842792651582588"><ele>467.6</ele><time>2026-05-04T14:13:19Z</time></trkpt><trkpt lat="43.6986589445229" lon="11.842655388920694"><ele>466.8</ele><time>2026-05-04T14:13:20Z</time></trkpt><trkpt lat="43.69866367268387" lon="11.842542133934765"><ele>466.0</ele><time>2026-05-04T14:13:21Z</time></trkpt><trkpt lat="43.69868632440991" lon="11.842427510561178"><ele>465.1666666666667</ele><time>2026-05-04T14:13:22Z</time></trkpt><trkpt lat="43.69870689115561" lon="11.84232957217685"><ele>464.33333333333337</ele><time>2026-05-04T14:13:23Z</time></trkpt><trkpt lat="43.69872623836265" lon="11.84221324596275"><ele>463.5</ele><time>2026-05-04T14:13:25Z</time></trkpt><trkpt lat="43.6987322995986" lon="11.842099654020533"><ele>462.66666666666663</ele><time>2026-05-04T14:13:27Z</time></trkpt><trkpt lat="43.69874989375593" lon="11.841931367881644"><ele>461.8333333333333</ele><time>2026-05-04T14:13:29Z</time></trkpt><trkpt lat="43.698746427483485" lon="11.84183313621267"><ele>461.0</ele><time>2026-05-04T14:13:30Z</time></trkpt><trkpt lat="43.69874886580875" lon="11.841703061895878"><ele>458.6</ele><time>2026-05-04T14:13:32Z</time></trkpt><trkpt lat="43.69874214371919" lon="11.841540739332451"><ele>456.20000000000005</ele><time>2026-05-04T14:13:34Z</time></trkpt><trkpt lat="43.69876153768289" lon="11.841373704382395"><ele>453.79999999999995</ele><time>2026-05-04T14:13:36Z</time></trkpt><trkpt lat="43.69880400345832" lon="11.84121660902004"><ele>451.4</ele><time>2026-05-04T14:13:38Z</time></trkpt><trkpt lat="43.69882041825213" lon="11.841127163321394"><ele>449.0</ele><time>2026-05-04T14:13:39Z</time></trkpt><trkpt lat="43.69887916798055" lon="11.841053226241188"><ele>448.99999999999994</ele><time>2026-05-04T14:13:42Z</time></trkpt><trkpt lat="43.6989726039869" lon="11.841049712441794"><ele>449.0</ele><time>2026-05-04T14:13:45Z</time></trkpt><trkpt lat="43.6990350504553" lon="11.84111605643717"><ele>449.0</ele><time>2026-05-04T14:13:48Z</time></trkpt><trkpt lat="43.69909936605114" lon="11.841158124711532"><ele>449.0</ele><time>2026-05-04T14:13:51Z</time></trkpt><trkpt lat="43.699172019152705" lon="11.841194472601007"><ele>448.99999999999994</ele><time>2026-05-04T14:13:55Z</time></trkpt><trkpt lat="43.699242220082816" lon="11.841239184489487"><ele>449.0</ele><time>2026-05-04T14:14:00Z</time></trkpt><trkpt lat="43.699314290364285" lon="11.841243606472277"><ele>448.99999999999994</ele><time>2026-05-04T14:14:02Z</time></trkpt><trkpt lat="43.699397233324" lon="11.841248663607413"><ele>449.0</ele><time>2026-05-04T14:14:05Z</time></trkpt><trkpt lat="43.69946157743625" lon="11.841240248154618"><ele>449.0</ele><time>2026-05-04T14:14:09Z</time></trkpt><trkpt lat="43.699372525269915" lon="11.841280673647738"><ele>449.0</ele><time>2026-05-04T14:14:14Z</time></trkpt><trkpt lat="43.69926718733121" lon="11.841289067302878"><ele>448.99999999999994</ele><time>2026-05-04T14:14:16Z</time></trkpt><trkpt lat="43.699176351612195" lon="11.841224983589708"><ele>449.0</ele><time>2026-05-04T14:14:18Z</time></trkpt><trkpt lat="43.699113106759484" lon="11.84115874458246"><ele>448.99999999999994</ele><time>2026-05-04T14:14:19Z</time></trkpt><trkpt lat="43.69902947361809" lon="11.841086989101164"><ele>449.0</ele><time>2026-05-04T14:14:20Z</time></trkpt><trkpt lat="43.698958823185656" lon="11.841002311150605"><ele>449.0</ele><time>2026-05-04T14:14:21Z</time></trkpt><trkpt lat="43.698888138384895" lon="11.841051313999332"><ele>449.0</ele><time>2026-05-04T14:14:24Z</time></trkpt><trkpt lat="43.69884238308265" lon="11.841158226994512"><ele>448.99999999999994</ele><time>2026-05-04T14:14:27Z</time></trkpt><trkpt lat="43.698826504824055" lon="11.841273303432267"><ele>449.0</ele><time>2026-05-04T14:14:29Z</time></trkpt><trkpt lat="43.69878516992419" lon="11.841418320310385"><ele>449.0</ele><time>2026-05-04T14:14:31Z</time></trkpt><trkpt lat="43.69878788001121" lon="11.841560412744819"><ele>449.0</ele><time>2026-05-04T14:14:33Z</time></trkpt><trkpt lat="43.69879267044157" lon="11.841723568954519"><ele>449.0</ele><time>2026-05-04T14:14:35Z</time></trkpt><trkpt lat="43.6987771958764" lon="11.84186340237165"><ele>449.0</ele><time>2026-05-04T14:14:37Z</time></trkpt><trkpt lat="43.69877113506051" lon="11.842006229105099"><ele>449.0</ele><time>2026-05-04T14:14:39Z</time></trkpt><trkpt lat="43.69875362603961" lon="11.842165032501903"><ele>449.49999999999994</ele><time>2026-05-04T14:14:41Z</time></trkpt><trkpt lat="43.69873082455829" lon="11.842269769466938"><ele>450.0</ele><time>2026-05-04T14:14:43Z</time></trkpt><trkpt lat="43.69865289443985" lon="11.842176736753675"><ele>450.5</ele><time>2026-05-04T14:15:00Z</time></trkpt><trkpt lat="43.698619819723774" lon="11.842066713116383"><ele>451.0</ele><time>2026-05-04T14:15:01Z</time></trkpt><trkpt lat="43.69858782877504" lon="11.84195765846772"><ele>451.49999999999994</ele><time>2026-05-04T14:15:02Z</time></trkpt><trkpt lat="43.698561100940104" lon="11.84187306489143"><ele>452.0</ele><time>2026-05-04T14:15:03Z</time></trkpt><trkpt lat="43.69850520657038" lon="11.841710395384364"><ele>451.99999999999994</ele><time>2026-05-04T14:15:05Z</time></trkpt><trkpt lat="43.69847535957103" lon="11.841613228870212"><ele>452.0</ele><time>2026-05-04T14:15:06Z</time></trkpt><trkpt lat="43.69850218183564" lon="11.841533554874202"><ele>452.0</ele><time>2026-05-04T14:15:08Z</time></trkpt><trkpt lat="43.698497672648564" lon="11.841406785956865"><ele>452.0</ele><time>2026-05-04T14:15:10Z</time></trkpt><trkpt lat="43.69845569378739" lon="11.84131828712865"><ele>451.99999999999994</ele><time>2026-05-04T14:15:11Z</time></trkpt><trkpt lat="43.69843289627506" lon="11.841173559054894"><ele>452.0</ele><time>2026-05-04T14:15:13Z</time></trkpt><trkpt lat="43.69842773468836" lon="11.841052870741708"><ele>451.8</ele><time>2026-05-04T14:15:15Z</time></trkpt><trkpt lat="43.69837551111449" lon="11.840935374877754"><ele>451.6</ele><time>2026-05-04T14:15:17Z</time></trkpt><trkpt lat="43.69830083612563" lon="11.840808838134404"><ele>451.40000000000003</ele><time>2026-05-04T14:15:19Z</time></trkpt><trkpt lat="43.69824737795132" lon="11.840670216589105"><ele>451.20000000000005</ele><time>2026-05-04T14:15:21Z</time></trkpt><trkpt lat="43.69825746030455" lon="11.840567219275666"><ele>451.0</ele><time>2026-05-04T14:15:23Z</time></trkpt><trkpt lat="43.698268865613024" lon="11.840450477698946"><ele>451.0</ele><time>2026-05-04T14:15:25Z</time></trkpt><trkpt lat="43.698221836163604" lon="11.840333503107031"><ele>451.0</ele><time>2026-05-04T14:15:27Z</time></trkpt><trkpt lat="43.69818008298997" lon="11.84019333574759"><ele>451.0</ele><time>2026-05-04T14:15:29Z</time></trkpt><trkpt lat="43.69811623851414" lon="11.840066438321461"><ele>451.0</ele><time>2026-05-04T14:15:31Z</time></trkpt><trkpt lat="43.698029844982315" lon="11.839935458260642"><ele>451.0</ele><time>2026-05-04T14:15:33Z</time></trkpt><trkpt lat="43.697966896208136" lon="11.839845202727329"><ele>449.6</ele><time>2026-05-04T14:15:34Z</time></trkpt><trkpt lat="43.697922390969296" lon="11.839764191806253"><ele>448.20000000000005</ele><time>2026-05-04T14:15:35Z</time></trkpt><trkpt lat="43.69786074385646" lon="11.839666269156346"><ele>446.79999999999995</ele><time>2026-05-04T14:15:37Z</time></trkpt><trkpt lat="43.69781540034231" lon="11.839531831832947"><ele>445.4</ele><time>2026-05-04T14:15:39Z</time></trkpt><trkpt lat="43.69775912726969" lon="11.839382503144078"><ele>444.0</ele><time>2026-05-04T14:15:41Z</time></trkpt><trkpt lat="43.6977156225794" lon="11.839307535310597"><ele>443.8333333333333</ele><time>2026-05-04T14:15:42Z</time></trkpt><trkpt lat="43.697671543730266" lon="11.839235454813585"><ele>443.66666666666663</ele><time>2026-05-04T14:15:43Z</time></trkpt><trkpt lat="43.697595475674014" lon="11.83909526905961"><ele>443.5</ele><time>2026-05-04T14:15:45Z</time></trkpt><trkpt lat="43.69754851921271" lon="11.839015147155505"><ele>443.3333333333333</ele><time>2026-05-04T14:15:46Z</time></trkpt><trkpt lat="43.69750199634346" lon="11.838951550968849"><ele>443.16666666666663</ele><time>2026-05-04T14:15:47Z</time></trkpt><trkpt lat="43.69743309023404" lon="11.838843170971254"><ele>443.0</ele><time>2026-05-04T14:15:49Z</time></trkpt><trkpt lat="43.6974106021656" lon="11.838744120357148"><ele>443.0</ele><time>2026-05-04T14:15:50Z</time></trkpt><trkpt lat="43.697384881474484" lon="11.838596840503358"><ele>442.99999999999994</ele><time>2026-05-04T14:15:52Z</time></trkpt><trkpt lat="43.69735469491151" lon="11.838509553969558"><ele>442.99999999999994</ele><time>2026-05-04T14:15:53Z</time></trkpt><trkpt lat="43.69730506908374" lon="11.83843245188866"><ele>443.0</ele><time>2026-05-04T14:15:54Z</time></trkpt><trkpt lat="43.69723491484783" lon="11.83829493032514"><ele>443.0</ele><time>2026-05-04T14:15:56Z</time></trkpt><trkpt lat="43.69719112658159" lon="11.838188846607611"><ele>442.66666666666663</ele><time>2026-05-04T14:15:57Z</time></trkpt><trkpt lat="43.697149007405" lon="11.83810290403255"><ele>442.3333333333333</ele><time>2026-05-04T14:15:58Z</time></trkpt><trkpt lat="43.697075789874866" lon="11.838022014299934"><ele>442.0</ele><time>2026-05-04T14:16:00Z</time></trkpt><trkpt lat="43.697007375830616" lon="11.83798491049026"><ele>441.66666666666663</ele><time>2026-05-04T14:16:01Z</time></trkpt><trkpt lat="43.6969399176581" lon="11.837938533445614"><ele>441.3333333333333</ele><time>2026-05-04T14:16:02Z</time></trkpt><trkpt lat="43.69687779596137" lon="11.837812183957785"><ele>441.0</ele><time>2026-05-04T14:16:04Z</time></trkpt><trkpt lat="43.69677185345382" lon="11.837691241604379"><ele>440.4</ele><time>2026-05-04T14:16:06Z</time></trkpt><trkpt lat="43.696665983682365" lon="11.83761408094608"><ele>439.8</ele><time>2026-05-04T14:16:08Z</time></trkpt><trkpt lat="43.69655458273682" lon="11.837588102324311"><ele>439.19999999999993</ele><time>2026-05-04T14:16:10Z</time></trkpt><trkpt lat="43.69648535535522" lon="11.83757484833457"><ele>438.59999999999997</ele><time>2026-05-04T14:16:11Z</time></trkpt><trkpt lat="43.69639795398754" lon="11.83747624475802"><ele>438.0</ele><time>2026-05-04T14:16:13Z</time></trkpt><trkpt lat="43.69634406519006" lon="11.837402263186648"><ele>438.0</ele><time>2026-05-04T14:16:14Z</time></trkpt><trkpt lat="43.696299790713944" lon="11.837328366255512"><ele>438.0</ele><time>2026-05-04T14:16:15Z</time></trkpt><trkpt lat="43.69619520697002" lon="11.837218510512416"><ele>438.0</ele><time>2026-05-04T14:16:17Z</time></trkpt><trkpt lat="43.69613605479095" lon="11.83716880687439"><ele>438.0</ele><time>2026-05-04T14:16:18Z</time></trkpt><trkpt lat="43.69608069834774" lon="11.837123462906842"><ele>438.0</ele><time>2026-05-04T14:16:19Z</time></trkpt><trkpt lat="43.69602369917567" lon="11.836994492544417"><ele>438.0</ele><time>2026-05-04T14:16:21Z</time></trkpt><trkpt lat="43.69592312542893" lon="11.836910916959443"><ele>436.1666666666667</ele><time>2026-05-04T14:16:23Z</time></trkpt><trkpt lat="43.695824865931435" lon="11.83683174461857"><ele>434.33333333333337</ele><time>2026-05-04T14:16:25Z</time></trkpt><trkpt lat="43.695710513756" lon="11.83676559237647"><ele>432.5</ele><time>2026-05-04T14:16:27Z</time></trkpt><trkpt lat="43.69565387900849" lon="11.836725777515912"><ele>430.6666666666667</ele><time>2026-05-04T14:16:28Z</time></trkpt><trkpt lat="43.6956036106056" lon="11.83666681190825"><ele>428.83333333333337</ele><time>2026-05-04T14:16:29Z</time></trkpt><trkpt lat="43.695556609905516" lon="11.836607876414433"><ele>427.0</ele><time>2026-05-04T14:16:30Z</time></trkpt><trkpt lat="43.69551910454475" lon="11.836536531877744"><ele>427.0</ele><time>2026-05-04T14:16:31Z</time></trkpt><trkpt lat="43.695434779369975" lon="11.836464920724863"><ele>427.00000000000006</ele><time>2026-05-04T14:16:33Z</time></trkpt><trkpt lat="43.69532136152753" lon="11.8364911972409"><ele>427.00000000000006</ele><time>2026-05-04T14:16:35Z</time></trkpt><trkpt lat="43.695238305972495" lon="11.83645660550139"><ele>427.0</ele><time>2026-05-04T14:16:36Z</time></trkpt><trkpt lat="43.695169757036346" lon="11.836421240696591"><ele>427.0</ele><time>2026-05-04T14:16:37Z</time></trkpt><trkpt lat="43.69509703391976" lon="11.83639049161721"><ele>424.20000000000005</ele><time>2026-05-04T14:16:38Z</time></trkpt><trkpt lat="43.694986854045304" lon="11.836328566786968"><ele>421.40000000000003</ele><time>2026-05-04T14:16:40Z</time></trkpt><trkpt lat="43.69492619372441" lon="11.836300238071106"><ele>418.6</ele><time>2026-05-04T14:16:41Z</time></trkpt><trkpt lat="43.694864912145185" lon="11.83626322415327"><ele>415.79999999999995</ele><time>2026-05-04T14:16:42Z</time></trkpt><trkpt lat="43.69475915850331" lon="11.836173693617022"><ele>413.0</ele><time>2026-05-04T14:16:44Z</time></trkpt><trkpt lat="43.69467935569589" lon="11.836100990473142"><ele>412.99999999999994</ele><time>2026-05-04T14:16:46Z</time></trkpt><trkpt lat="43.69457110630442" lon="11.836116205879593"><ele>413.0</ele><time>2026-05-04T14:16:48Z</time></trkpt><trkpt lat="43.69450006710644" lon="11.836097194044026"><ele>413.0</ele><time>2026-05-04T14:16:50Z</time></trkpt><trkpt lat="43.69443260996981" lon="11.836079229615462"><ele>413.0</ele><time>2026-05-04T14:16:52Z</time></trkpt><trkpt lat="43.69436577433871" lon="11.836050137072595"><ele>412.99999999999994</ele><time>2026-05-04T14:16:54Z</time></trkpt><trkpt lat="43.694286070611255" lon="11.836062670632788"><ele>413.0</ele><time>2026-05-04T14:16:56.001Z</time></trkpt><trkpt lat="43.69421483178089" lon="11.836040334475008"><ele>411.16666666666663</ele><time>2026-05-04T14:16:58.001Z</time></trkpt><trkpt lat="43.6941374423786" lon="11.835994604379218"><ele>409.3333333333333</ele><time>2026-05-04T14:17:00.001Z</time></trkpt><trkpt lat="43.694086286878196" lon="11.835941496547777"><ele>407.5</ele><time>2026-05-04T14:17:08Z</time></trkpt><trkpt lat="43.694026419367546" lon="11.83586155310158"><ele>405.66666666666663</ele><time>2026-05-04T14:17:12Z</time></trkpt><trkpt lat="43.693964802372776" lon="11.83578452832099"><ele>403.8333333333333</ele><time>2026-05-04T14:17:14Z</time></trkpt><trkpt lat="43.69392982481172" lon="11.835706520399802"><ele>402.0</ele><time>2026-05-04T14:17:28Z</time></trkpt><trkpt lat="43.69386571382023" lon="11.83558642319909"><ele>401.1666666666667</ele><time>2026-05-04T14:17:31Z</time></trkpt><trkpt lat="43.69380053458846" lon="11.835479150490954"><ele>400.33333333333337</ele><time>2026-05-04T14:17:33Z</time></trkpt><trkpt lat="43.69375822497614" lon="11.835409420004517"><ele>399.5</ele><time>2026-05-04T14:17:35Z</time></trkpt><trkpt lat="43.69380398723368" lon="11.835320820019136"><ele>398.6666666666667</ele><time>2026-05-04T14:17:38Z</time></trkpt><trkpt lat="43.69387548238747" lon="11.835308319373858"><ele>397.83333333333337</ele><time>2026-05-04T14:17:40Z</time></trkpt><trkpt lat="43.69395947631021" lon="11.835239529540775"><ele>397.0</ele><time>2026-05-04T14:17:43Z</time></trkpt><trkpt lat="43.69401859490517" lon="11.835179050452869"><ele>394.8</ele><time>2026-05-04T14:17:45Z</time></trkpt><trkpt lat="43.69407590398051" lon="11.835089452118698"><ele>392.6</ele><time>2026-05-04T14:17:47Z</time></trkpt><trkpt lat="43.694104314024415" lon="11.834920653460001"><ele>390.40000000000003</ele><time>2026-05-04T14:17:49Z</time></trkpt><trkpt lat="43.69411077342756" lon="11.834800596406565"><ele>388.20000000000005</ele><time>2026-05-04T14:17:50Z</time></trkpt><trkpt lat="43.69411552038175" lon="11.834671939290404"><ele>386.0</ele><time>2026-05-04T14:17:51Z</time></trkpt><trkpt lat="43.69412185778921" lon="11.834542857145053"><ele>386.0</ele><time>2026-05-04T14:17:52Z</time></trkpt><trkpt lat="43.69413147285055" lon="11.834425960755034"><ele>386.0</ele><time>2026-05-04T14:17:53Z</time></trkpt><trkpt lat="43.694143973044554" lon="11.834282708205638"><ele>386.0</ele><time>2026-05-04T14:17:54Z</time></trkpt><trkpt lat="43.69415993998685" lon="11.834117913622253"><ele>386.0</ele><time>2026-05-04T14:17:55Z</time></trkpt><trkpt lat="43.694180051055355" lon="11.83394451809069"><ele>386.0</ele><time>2026-05-04T14:17:56Z</time></trkpt><trkpt lat="43.694206136483615" lon="11.833780384230922"><ele>384.5</ele><time>2026-05-04T14:17:57Z</time></trkpt><trkpt lat="43.69423281050231" lon="11.833627213417206"><ele>383.0</ele><time>2026-05-04T14:17:58Z</time></trkpt><trkpt lat="43.69425718842555" lon="11.833467773468936"><ele>381.5</ele><time>2026-05-04T14:17:59Z</time></trkpt><trkpt lat="43.694279160461974" lon="11.833303232628806"><ele>380.0</ele><time>2026-05-04T14:18:00Z</time></trkpt><trkpt lat="43.69429612790453" lon="11.833139652634612"><ele>378.0</ele><time>2026-05-04T14:18:01Z</time></trkpt><trkpt lat="43.69429818671961" lon="11.83297479065163"><ele>376.0</ele><time>2026-05-04T14:18:02Z</time></trkpt><trkpt lat="43.69429781231776" lon="11.832828660710085"><ele>374.0</ele><time>2026-05-04T14:18:03Z</time></trkpt><trkpt lat="43.69429744811371" lon="11.832686510598709"><ele>372.0</ele><time>2026-05-04T14:18:04Z</time></trkpt><trkpt lat="43.694302533847136" lon="11.832544237036556"><ele>370.0</ele><time>2026-05-04T14:18:05Z</time></trkpt><trkpt lat="43.694322380669746" lon="11.832379453858277"><ele>367.5</ele><time>2026-05-04T14:18:06Z</time></trkpt><trkpt lat="43.69434490951932" lon="11.832213301252738"><ele>365.0</ele><time>2026-05-04T14:18:07Z</time></trkpt><trkpt lat="43.69436925795646" lon="11.83203275425384"><ele>362.5</ele><time>2026-05-04T14:18:08Z</time></trkpt><trkpt lat="43.69439189159959" lon="11.831873990022002"><ele>360.0</ele><time>2026-05-04T14:18:09Z</time></trkpt><trkpt lat="43.69441632115306" lon="11.831717353245997"><ele>359.0</ele><time>2026-05-04T14:18:10Z</time></trkpt><trkpt lat="43.69444243256753" lon="11.831568271226208"><ele>358.0</ele><time>2026-05-04T14:18:11Z</time></trkpt><trkpt lat="43.694466961460904" lon="11.83142822451231"><ele>357.0</ele><time>2026-05-04T14:18:12Z</time></trkpt><trkpt lat="43.694492450130106" lon="11.831290036460299"><ele>356.0</ele><time>2026-05-04T14:18:13Z</time></trkpt><trkpt lat="43.69451615011253" lon="11.83116203289546"><ele>355.0</ele><time>2026-05-04T14:18:14Z</time></trkpt><trkpt lat="43.694536059259676" lon="11.831046601376272"><ele>354.42857142857144</ele><time>2026-05-04T14:18:15Z</time></trkpt><trkpt lat="43.694549518704335" lon="11.830945670962189"><ele>353.8571428571429</ele><time>2026-05-04T14:18:16Z</time></trkpt><trkpt lat="43.694554055315564" lon="11.830846594058979"><ele>353.28571428571433</ele><time>2026-05-04T14:18:17Z</time></trkpt><trkpt lat="43.69454448159064" lon="11.830738400707283"><ele>352.7142857142857</ele><time>2026-05-04T14:18:18Z</time></trkpt><trkpt lat="43.69453074295006" lon="11.830635347697854"><ele>352.14285714285717</ele><time>2026-05-04T14:18:19Z</time></trkpt><trkpt lat="43.6945116483593" lon="11.830548652017832"><ele>351.5714285714286</ele><time>2026-05-04T14:18:20Z</time></trkpt><trkpt lat="43.69447665805346" lon="11.830465420771695"><ele>351.0</ele><time>2026-05-04T14:18:21Z</time></trkpt><trkpt lat="43.69443666745" lon="11.83039205134898"><ele>351.0</ele><time>2026-05-04T14:18:22Z</time></trkpt><trkpt lat="43.6944083668205" lon="11.830311388193588"><ele>351.0</ele><time>2026-05-04T14:18:23Z</time></trkpt><trkpt lat="43.69444990674244" lon="11.830214323051658"><ele>351.0</ele><time>2026-05-04T14:18:24Z</time></trkpt><trkpt lat="43.69447785692531" lon="11.830095043655579"><ele>351.0</ele><time>2026-05-04T14:18:25Z</time></trkpt><trkpt lat="43.69450157263491" lon="11.82998696631053"><ele>351.0</ele><time>2026-05-04T14:18:26Z</time></trkpt><trkpt lat="43.69452949387144" lon="11.829853719438436"><ele>351.0</ele><time>2026-05-04T14:18:27Z</time></trkpt><trkpt lat="43.6945425854577" lon="11.82972742166095"><ele>349.8333333333333</ele><time>2026-05-04T14:18:28Z</time></trkpt><trkpt lat="43.694572118593854" lon="11.829609090065835"><ele>348.6666666666667</ele><time>2026-05-04T14:18:29Z</time></trkpt><trkpt lat="43.69460534073679" lon="11.829480285229483"><ele>347.5</ele><time>2026-05-04T14:18:30Z</time></trkpt><trkpt lat="43.69463878250129" lon="11.829355443206628"><ele>346.33333333333337</ele><time>2026-05-04T14:18:31Z</time></trkpt><trkpt lat="43.69466573215339" lon="11.829253254303811"><ele>345.1666666666667</ele><time>2026-05-04T14:18:32Z</time></trkpt><trkpt lat="43.69469183528401" lon="11.829152258969446"><ele>344.0</ele><time>2026-05-04T14:18:33Z</time></trkpt><trkpt lat="43.69471518040409" lon="11.829050112035057"><ele>342.6</ele><time>2026-05-04T14:18:34Z</time></trkpt><trkpt lat="43.694737803706396" lon="11.828921279076193"><ele>341.2</ele><time>2026-05-04T14:18:35Z</time></trkpt><trkpt lat="43.694771759250195" lon="11.828810025608956"><ele>339.8</ele><time>2026-05-04T14:18:36Z</time></trkpt><trkpt lat="43.69479306574206" lon="11.828679399497192"><ele>338.40000000000003</ele><time>2026-05-04T14:18:37Z</time></trkpt><trkpt lat="43.69480624219921" lon="11.828532822125966"><ele>337.0</ele><time>2026-05-04T14:18:38Z</time></trkpt><trkpt lat="43.694807862641476" lon="11.828403564749783"><ele>336.0</ele><time>2026-05-04T14:18:39Z</time></trkpt><trkpt lat="43.694805559856654" lon="11.82829048315794"><ele>335.0</ele><time>2026-05-04T14:18:40Z</time></trkpt><trkpt lat="43.69479774717379" lon="11.828189436145465"><ele>334.0</ele><time>2026-05-04T14:18:41Z</time></trkpt><trkpt lat="43.69478338463871" lon="11.828088863059403"><ele>333.0</ele><time>2026-05-04T14:18:42Z</time></trkpt><trkpt lat="43.69475777884735" lon="11.827984540454315"><ele>332.0</ele><time>2026-05-04T14:18:43Z</time></trkpt><trkpt lat="43.694750078272186" lon="11.827880794931648"><ele>331.0</ele><time>2026-05-04T14:18:44Z</time></trkpt><trkpt lat="43.694771171417614" lon="11.827769425495434"><ele>331.0</ele><time>2026-05-04T14:18:45Z</time></trkpt><trkpt lat="43.694798840620976" lon="11.827657336955752"><ele>331.0</ele><time>2026-05-04T14:18:46Z</time></trkpt><trkpt lat="43.694824437379445" lon="11.827533165454168"><ele>331.0</ele><time>2026-05-04T14:18:47Z</time></trkpt><trkpt lat="43.6948552398286" lon="11.827413405621591"><ele>331.0</ele><time>2026-05-04T14:18:48Z</time></trkpt><trkpt lat="43.69488976997654" lon="11.827294959239081"><ele>331.0</ele><time>2026-05-04T14:18:49Z</time></trkpt><trkpt lat="43.69491824062435" lon="11.827177212183262"><ele>330.8333333333333</ele><time>2026-05-04T14:18:50Z</time></trkpt><trkpt lat="43.69497644972829" lon="11.827079891733513"><ele>330.66666666666663</ele><time>2026-05-04T14:18:51Z</time></trkpt><trkpt lat="43.69500949721561" lon="11.826966589848343"><ele>330.5</ele><time>2026-05-04T14:18:52Z</time></trkpt><trkpt lat="43.695036940632555" lon="11.826859985712632"><ele>330.3333333333333</ele><time>2026-05-04T14:18:53Z</time></trkpt><trkpt lat="43.69511104391007" lon="11.826818638251972"><ele>330.1666666666667</ele><time>2026-05-04T14:18:54Z</time></trkpt><trkpt lat="43.69515465779878" lon="11.826706417310014"><ele>330.0</ele><time>2026-05-04T14:18:56Z</time></trkpt><trkpt lat="43.69519089940492" lon="11.826564069413502"><ele>330.8</ele><time>2026-05-04T14:18:57Z</time></trkpt><trkpt lat="43.69517890780308" lon="11.826437018078474"><ele>331.6</ele><time>2026-05-04T14:18:58Z</time></trkpt><trkpt lat="43.695187145967026" lon="11.826305141620962"><ele>332.4</ele><time>2026-05-04T14:18:59Z</time></trkpt><trkpt lat="43.69518187268363" lon="11.82616781190445"><ele>333.2</ele><time>2026-05-04T14:19:00Z</time></trkpt><trkpt lat="43.695174593619306" lon="11.826029543788648"><ele>334.0</ele><time>2026-05-04T14:19:01Z</time></trkpt><trkpt lat="43.69515033708617" lon="11.825882748655525"><ele>335.4</ele><time>2026-05-04T14:19:02Z</time></trkpt><trkpt lat="43.69514062632686" lon="11.825738394987674"><ele>336.79999999999995</ele><time>2026-05-04T14:19:03Z</time></trkpt><trkpt lat="43.69511709188502" lon="11.825590086500192"><ele>338.20000000000005</ele><time>2026-05-04T14:19:04Z</time></trkpt><trkpt lat="43.69507959403808" lon="11.825442819414901"><ele>339.6</ele><time>2026-05-04T14:19:05Z</time></trkpt><trkpt lat="43.695052994971206" lon="11.825285049938612"><ele>341.0</ele><time>2026-05-04T14:19:06Z</time></trkpt><trkpt lat="43.69499910391941" lon="11.825138683917311"><ele>343.5</ele><time>2026-05-04T14:19:07Z</time></trkpt><trkpt lat="43.69498205599265" lon="11.824979242655521"><ele>346.0</ele><time>2026-05-04T14:19:08Z</time></trkpt><trkpt lat="43.694946842493636" lon="11.824808089370801"><ele>348.5</ele><time>2026-05-04T14:19:09Z</time></trkpt><trkpt lat="43.694908817062974" lon="11.824640941663102"><ele>351.0</ele><time>2026-05-04T14:19:10Z</time></trkpt><trkpt lat="43.6948633356154" lon="11.824468842613946"><ele>352.6</ele><time>2026-05-04T14:19:11Z</time></trkpt><trkpt lat="43.6948224411038" lon="11.824299321918705"><ele>354.20000000000005</ele><time>2026-05-04T14:19:12Z</time></trkpt><trkpt lat="43.694785386035356" lon="11.824147594398129"><ele>355.79999999999995</ele><time>2026-05-04T14:19:13Z</time></trkpt><trkpt lat="43.694753042104246" lon="11.824027618622251"><ele>357.4</ele><time>2026-05-04T14:19:14Z</time></trkpt><trkpt lat="43.69471179032313" lon="11.823937082024367"><ele>359.0</ele><time>2026-05-04T14:19:15Z</time></trkpt><trkpt lat="43.69472687754892" lon="11.823811798869889"><ele>359.0</ele><time>2026-05-04T14:19:17Z</time></trkpt><trkpt lat="43.69482041889782" lon="11.823692337058324"><ele>359.0</ele><time>2026-05-04T14:19:19Z</time></trkpt><trkpt lat="43.694873263597245" lon="11.823605667253252"><ele>359.0</ele><time>2026-05-04T14:19:20Z</time></trkpt><trkpt lat="43.69492541022302" lon="11.823520142350855"><ele>359.0</ele><time>2026-05-04T14:19:21Z</time></trkpt><trkpt lat="43.69497755744988" lon="11.823434098361874"><ele>359.0</ele><time>2026-05-04T14:19:22Z</time></trkpt><trkpt lat="43.695029009157864" lon="11.823341571990328"><ele>359.83333333333337</ele><time>2026-05-04T14:19:23Z</time></trkpt><trkpt lat="43.69507321010141" lon="11.823250186471688"><ele>360.6666666666667</ele><time>2026-05-04T14:19:24Z</time></trkpt><trkpt lat="43.69511142332845" lon="11.823147394637754"><ele>361.5</ele><time>2026-05-04T14:19:25Z</time></trkpt><trkpt lat="43.695145365023315" lon="11.823028135595864"><ele>362.3333333333333</ele><time>2026-05-04T14:19:26Z</time></trkpt><trkpt lat="43.69516997693635" lon="11.822917159266733"><ele>363.16666666666663</ele><time>2026-05-04T14:19:27Z</time></trkpt><trkpt lat="43.695188445418104" lon="11.822811883797335"><ele>364.0</ele><time>2026-05-04T14:19:28Z</time></trkpt><trkpt lat="43.6951994876325" lon="11.822725094849499"><ele>365.0</ele><time>2026-05-04T14:19:29Z</time></trkpt><trkpt lat="43.69521254239503" lon="11.822573824892515"><ele>366.0</ele><time>2026-05-04T14:19:31Z</time></trkpt><trkpt lat="43.69524815833052" lon="11.82247608860264"><ele>367.0</ele><time>2026-05-04T14:19:33Z</time></trkpt><trkpt lat="43.69538051767533" lon="11.822464893454878"><ele>368.0</ele><time>2026-05-04T14:19:35Z</time></trkpt><trkpt lat="43.695460740033596" lon="11.822444754302515"><ele>369.0</ele><time>2026-05-04T14:19:36Z</time></trkpt><trkpt lat="43.69554377462853" lon="11.8224281368336"><ele>369.2</ele><time>2026-05-04T14:19:37Z</time></trkpt><trkpt lat="43.695610750082665" lon="11.822414477612131"><ele>369.4</ele><time>2026-05-04T14:19:38Z</time></trkpt><trkpt lat="43.69570933326235" lon="11.822374388337188"><ele>369.6</ele><time>2026-05-04T14:19:40Z</time></trkpt><trkpt lat="43.69578235967613" lon="11.822383383796769"><ele>369.8</ele><time>2026-05-04T14:19:42Z</time></trkpt><trkpt lat="43.69577727787983" lon="11.822221263881485"><ele>370.0</ele><time>2026-05-04T14:19:43Z</time></trkpt><trkpt lat="43.695807969742575" lon="11.822085685086574"><ele>370.0</ele><time>2026-05-04T14:19:45Z</time></trkpt><trkpt lat="43.69588084072267" lon="11.822041784814889"><ele>370.0</ele><time>2026-05-04T14:19:47Z</time></trkpt><trkpt lat="43.69598130743571" lon="11.82206960522615"><ele>370.0</ele><time>2026-05-04T14:19:49Z</time></trkpt><trkpt lat="43.69604865291132" lon="11.822083724749621"><ele>370.0</ele><time>2026-05-04T14:19:50Z</time></trkpt><trkpt lat="43.69611745232856" lon="11.822091527322952"><ele>370.0</ele><time>2026-05-04T14:19:51Z</time></trkpt><trkpt lat="43.696184449781896" lon="11.8221291701612"><ele>370.0</ele><time>2026-05-04T14:19:52Z</time></trkpt><trkpt lat="43.69626874353986" lon="11.822150797785238"><ele>370.0</ele><time>2026-05-04T14:19:53Z</time></trkpt><trkpt lat="43.6963522910999" lon="11.822170790682652"><ele>370.0</ele><time>2026-05-04T14:19:54Z</time></trkpt><trkpt lat="43.69643062547901" lon="11.82218922491111"><ele>370.0</ele><time>2026-05-04T14:19:55Z</time></trkpt><trkpt lat="43.69651300934626" lon="11.822184039000936"><ele>370.0</ele><time>2026-05-04T14:19:56Z</time></trkpt><trkpt lat="43.6965892784601" lon="11.82221262107415"><ele>370.0</ele><time>2026-05-04T14:19:57Z</time></trkpt><trkpt lat="43.696658723671746" lon="11.822225990681217"><ele>370.0</ele><time>2026-05-04T14:19:58Z</time></trkpt><trkpt lat="43.696730001501614" lon="11.822239955587968"><ele>370.0</ele><time>2026-05-04T14:19:59Z</time></trkpt><trkpt lat="43.696803272423395" lon="11.8222554002395"><ele>370.0</ele><time>2026-05-04T14:20:00Z</time></trkpt><trkpt lat="43.69687475442644" lon="11.822270566396526"><ele>370.0</ele><time>2026-05-04T14:20:01Z</time></trkpt><trkpt lat="43.696945778945285" lon="11.822284912282894"><ele>370.0</ele><time>2026-05-04T14:20:02Z</time></trkpt><trkpt lat="43.697022296739455" lon="11.82222983522266"><ele>370.0</ele><time>2026-05-04T14:20:03Z</time></trkpt><trkpt lat="43.69704783663115" lon="11.82209051237786"><ele>370.0</ele><time>2026-05-04T14:20:04Z</time></trkpt><trkpt lat="43.697101910570076" lon="11.822019996198183"><ele>370.8333333333333</ele><time>2026-05-04T14:20:05Z</time></trkpt><trkpt lat="43.69714731949397" lon="11.821930827991414"><ele>371.66666666666663</ele><time>2026-05-04T14:20:06Z</time></trkpt><trkpt lat="43.697195838987454" lon="11.82183811735972"><ele>372.5</ele><time>2026-05-04T14:20:07Z</time></trkpt><trkpt lat="43.69723088338368" lon="11.821733535762782"><ele>373.3333333333333</ele><time>2026-05-04T14:20:08Z</time></trkpt><trkpt lat="43.69727346320116" lon="11.821665955183866"><ele>374.1666666666667</ele><time>2026-05-04T14:20:09Z</time></trkpt><trkpt lat="43.69732081631853" lon="11.821599311732514"><ele>375.0</ele><time>2026-05-04T14:20:11Z</time></trkpt><trkpt lat="43.69736399230438" lon="11.821516811513648"><ele>375.8333333333333</ele><time>2026-05-04T14:20:15Z</time></trkpt><trkpt lat="43.69729507247292" lon="11.821421304289093"><ele>376.6666666666667</ele><time>2026-05-04T14:20:16Z</time></trkpt><trkpt lat="43.697266647070094" lon="11.821262702929728"><ele>377.5</ele><time>2026-05-04T14:20:18Z</time></trkpt><trkpt lat="43.69725284450347" lon="11.821170024551156"><ele>378.33333333333337</ele><time>2026-05-04T14:20:19Z</time></trkpt><trkpt lat="43.69724498480372" lon="11.82106797825524"><ele>379.1666666666667</ele><time>2026-05-04T14:20:20Z</time></trkpt><trkpt lat="43.69725348107339" lon="11.820960186621283"><ele>380.0</ele><time>2026-05-04T14:20:21Z</time></trkpt><trkpt lat="43.69726825282364" lon="11.82084704044484"><ele>381.0</ele><time>2026-05-04T14:20:22Z</time></trkpt><trkpt lat="43.69728787254733" lon="11.820731640352632"><ele>382.0</ele><time>2026-05-04T14:20:23Z</time></trkpt><trkpt lat="43.697310355041374" lon="11.82061282397769"><ele>383.0</ele><time>2026-05-04T14:20:24Z</time></trkpt><trkpt lat="43.69734065619571" lon="11.82049961325026"><ele>384.0</ele><time>2026-05-04T14:20:25Z</time></trkpt><trkpt lat="43.69737226159311" lon="11.820396793667912"><ele>384.99999999999994</ele><time>2026-05-04T14:20:26Z</time></trkpt><trkpt lat="43.697405531439195" lon="11.820302900205819"><ele>386.0</ele><time>2026-05-04T14:20:27Z</time></trkpt><trkpt lat="43.697440493674655" lon="11.820207548642697"><ele>385.99999999999994</ele><time>2026-05-04T14:20:29Z</time></trkpt><trkpt lat="43.69751150502213" lon="11.820213777443714"><ele>386.0</ele><time>2026-05-04T14:20:40Z</time></trkpt><trkpt lat="43.69761614138336" lon="11.820305112481964"><ele>386.0</ele><time>2026-05-04T14:20:42Z</time></trkpt><trkpt lat="43.69767701758447" lon="11.820334803414474"><ele>386.0</ele><time>2026-05-04T14:20:43Z</time></trkpt><trkpt lat="43.6977354289324" lon="11.820374898945387"><ele>385.99999999999994</ele><time>2026-05-04T14:20:44Z</time></trkpt><trkpt lat="43.69784185553294" lon="11.820448743512078"><ele>386.0</ele><time>2026-05-04T14:20:46Z</time></trkpt><trkpt lat="43.69791610941386" lon="11.820468554040465"><ele>388.0</ele><time>2026-05-04T14:20:50Z</time></trkpt><trkpt lat="43.69797078775908" lon="11.820293346105263"><ele>390.0</ele><time>2026-05-04T14:20:52Z</time></trkpt><trkpt lat="43.69802095688525" lon="11.82014874754501"><ele>392.0</ele><time>2026-05-04T14:20:54Z</time></trkpt><trkpt lat="43.69805543741892" lon="11.820050499643443"><ele>394.0</ele><time>2026-05-04T14:20:56Z</time></trkpt><trkpt lat="43.69810031220121" lon="11.819962906909984"><ele>396.0</ele><time>2026-05-04T14:20:58Z</time></trkpt><trkpt lat="43.698155032851965" lon="11.819806781777249"><ele>397.0</ele><time>2026-05-04T14:21:00Z</time></trkpt><trkpt lat="43.698178105120874" lon="11.819720986426397"><ele>398.0</ele><time>2026-05-04T14:21:01Z</time></trkpt><trkpt lat="43.69817003803738" lon="11.819582211610573"><ele>399.0</ele><time>2026-05-04T14:21:03Z</time></trkpt><trkpt lat="43.69806994737819" lon="11.819526075478628"><ele>400.0</ele><time>2026-05-04T14:21:05Z</time></trkpt><trkpt lat="43.69802907839488" lon="11.819459512518872"><ele>401.0</ele><time>2026-05-04T14:21:09Z</time></trkpt><trkpt lat="43.69800625101213" lon="11.819337179501856"><ele>402.0</ele><time>2026-05-04T14:22:05Z</time></trkpt><trkpt lat="43.697906994753836" lon="11.819312665235428"><ele>402.2857142857143</ele><time>2026-05-04T14:22:06Z</time></trkpt><trkpt lat="43.697840026592345" lon="11.819274266690906"><ele>402.5714285714286</ele><time>2026-05-04T14:22:07Z</time></trkpt><trkpt lat="43.6977792093902" lon="11.819249973351445"><ele>402.8571428571429</ele><time>2026-05-04T14:22:08Z</time></trkpt><trkpt lat="43.69770181781311" lon="11.819215527485518"><ele>403.1428571428571</ele><time>2026-05-04T14:22:09Z</time></trkpt><trkpt lat="43.697633475774715" lon="11.819171581530272"><ele>403.42857142857144</ele><time>2026-05-04T14:22:10Z</time></trkpt><trkpt lat="43.69755681006364" lon="11.819132613511405"><ele>403.7142857142857</ele><time>2026-05-04T14:22:11Z</time></trkpt><trkpt lat="43.69749118528029" lon="11.81909886351544"><ele>404.0</ele><time>2026-05-04T14:22:12Z</time></trkpt><trkpt lat="43.69743300932719" lon="11.8190634674362"><ele>404.49999999999994</ele><time>2026-05-04T14:22:13Z</time></trkpt><trkpt lat="43.69735985096344" lon="11.819025996673963"><ele>405.0</ele><time>2026-05-04T14:22:14Z</time></trkpt><trkpt lat="43.69729153149072" lon="11.81899324101361"><ele>405.5</ele><time>2026-05-04T14:22:15Z</time></trkpt><trkpt lat="43.697225142527834" lon="11.818960562510425"><ele>406.0</ele><time>2026-05-04T14:22:16Z</time></trkpt><trkpt lat="43.69716064692745" lon="11.818932254814108"><ele>406.49999999999994</ele><time>2026-05-04T14:22:17Z</time></trkpt><trkpt lat="43.69704492175257" lon="11.818876448367401"><ele>407.0</ele><time>2026-05-04T14:22:19Z</time></trkpt><trkpt lat="43.69696069183996" lon="11.818818767205622"><ele>407.40000000000003</ele><time>2026-05-04T14:22:21Z</time></trkpt><trkpt lat="43.6968729194921" lon="11.818774125464525"><ele>407.8</ele><time>2026-05-04T14:22:23Z</time></trkpt><trkpt lat="43.69678142044506" lon="11.818696270008761"><ele>408.2</ele><time>2026-05-04T14:22:25Z</time></trkpt><trkpt lat="43.696740055568725" lon="11.81862950867133"><ele>408.6</ele><time>2026-05-04T14:22:26Z</time></trkpt><trkpt lat="43.696687311209644" lon="11.81846671538269"><ele>409.0</ele><time>2026-05-04T14:22:28Z</time></trkpt><trkpt lat="43.69666613323153" lon="11.818375059129432"><ele>409.0</ele><time>2026-05-04T14:22:29Z</time></trkpt><trkpt lat="43.696645599967376" lon="11.818286698529937"><ele>409.0</ele><time>2026-05-04T14:22:30Z</time></trkpt><trkpt lat="43.696629454736346" lon="11.818165465804316"><ele>409.0</ele><time>2026-05-04T14:22:32Z</time></trkpt><trkpt lat="43.69664259718974" lon="11.818273779249106"><ele>409.0</ele><time>2026-05-04T14:22:43Z</time></trkpt><trkpt lat="43.696663060777304" lon="11.818583323306873"><ele>408.6</ele><time>2026-05-04T14:22:47Z</time></trkpt><trkpt lat="43.69670292897433" lon="11.81867634058042"><ele>408.2</ele><time>2026-05-04T14:23:06Z</time></trkpt><trkpt lat="43.69677639395458" lon="11.81875019822871"><ele>407.8</ele><time>2026-05-04T14:23:09Z</time></trkpt><trkpt lat="43.69686387478704" lon="11.818818665265537"><ele>407.40000000000003</ele><time>2026-05-04T14:23:11Z</time></trkpt><trkpt lat="43.696998082053625" lon="11.818878892082024"><ele>407.0</ele><time>2026-05-04T14:23:13Z</time></trkpt><trkpt lat="43.697078543697835" lon="11.818927687644436"><ele>407.0</ele><time>2026-05-04T14:23:14Z</time></trkpt><trkpt lat="43.697155812369104" lon="11.818981713352926"><ele>407.0</ele><time>2026-05-04T14:23:15Z</time></trkpt><trkpt lat="43.69724486691712" lon="11.819016360359376"><ele>407.0</ele><time>2026-05-04T14:23:16Z</time></trkpt><trkpt lat="43.697332991885375" lon="11.819059231143049"><ele>407.0</ele><time>2026-05-04T14:23:17Z</time></trkpt><trkpt lat="43.69742388400628" lon="11.819107124904315"><ele>407.0</ele><time>2026-05-04T14:23:18Z</time></trkpt><trkpt lat="43.697508358391865" lon="11.819145759920039"><ele>407.0</ele><time>2026-05-04T14:23:19Z</time></trkpt><trkpt lat="43.69759239127571" lon="11.819197403964969"><ele>407.0</ele><time>2026-05-04T14:23:20Z</time></trkpt><trkpt lat="43.69768745725473" lon="11.81924281836665"><ele>407.0</ele><time>2026-05-04T14:23:21Z</time></trkpt><trkpt lat="43.69778274869047" lon="11.819290664621688"><ele>407.0</ele><time>2026-05-04T14:23:22Z</time></trkpt><trkpt lat="43.69787470245426" lon="11.819335910457415"><ele>407.0</ele><time>2026-05-04T14:23:23Z</time></trkpt><trkpt lat="43.69795963082446" lon="11.819389757448505"><ele>406.0</ele><time>2026-05-04T14:23:24Z</time></trkpt><trkpt lat="43.69804690081445" lon="11.819442086755707"><ele>405.0</ele><time>2026-05-04T14:23:25Z</time></trkpt><trkpt lat="43.69814101705399" lon="11.819489622843172"><ele>404.0</ele><time>2026-05-04T14:23:26Z</time></trkpt><trkpt lat="43.698233124087956" lon="11.819536772350174"><ele>403.0</ele><time>2026-05-04T14:23:27Z</time></trkpt><trkpt lat="43.698327081302935" lon="11.819587452221567"><ele>402.0</ele><time>2026-05-04T14:23:28Z</time></trkpt><trkpt lat="43.69841783264095" lon="11.819635797217172"><ele>402.0</ele><time>2026-05-04T14:23:29Z</time></trkpt><trkpt lat="43.69851352192096" lon="11.819689259649373"><ele>402.0</ele><time>2026-05-04T14:23:30Z</time></trkpt><trkpt lat="43.698606465583275" lon="11.819739052117473"><ele>402.0</ele><time>2026-05-04T14:23:31Z</time></trkpt><trkpt lat="43.69870643634287" lon="11.81979787230582"><ele>402.0</ele><time>2026-05-04T14:23:32Z</time></trkpt><trkpt lat="43.69880840673241" lon="11.819849576584694"><ele>402.0</ele><time>2026-05-04T14:23:33Z</time></trkpt><trkpt lat="43.698905512716735" lon="11.819905861556077"><ele>402.20000000000005</ele><time>2026-05-04T14:23:34Z</time></trkpt><trkpt lat="43.69900382793706" lon="11.81995556489837"><ele>402.4</ele><time>2026-05-04T14:23:35Z</time></trkpt><trkpt lat="43.69910242319712" lon="11.820002752471867"><ele>402.6</ele><time>2026-05-04T14:23:36Z</time></trkpt><trkpt lat="43.699201921794504" lon="11.820054483425858"><ele>402.79999999999995</ele><time>2026-05-04T14:23:37Z</time></trkpt><trkpt lat="43.69929890692844" lon="11.82010123433968"><ele>403.0</ele><time>2026-05-04T14:23:38Z</time></trkpt><trkpt lat="43.699373535969706" lon="11.820138819853245"><ele>403.6666666666667</ele><time>2026-05-04T14:23:39Z</time></trkpt><trkpt lat="43.699445132464355" lon="11.820181347218481"><ele>404.33333333333337</ele><time>2026-05-04T14:23:40Z</time></trkpt><trkpt lat="43.699510886093485" lon="11.820220102571376"><ele>405.0</ele><time>2026-05-04T14:23:41Z</time></trkpt><trkpt lat="43.69957354174029" lon="11.820251275075588"><ele>405.66666666666663</ele><time>2026-05-04T14:23:42Z</time></trkpt><trkpt lat="43.69963818854268" lon="11.820282237933041"><ele>406.3333333333333</ele><time>2026-05-04T14:23:43Z</time></trkpt><trkpt lat="43.69971498864056" lon="11.820319895879061"><ele>407.0</ele><time>2026-05-04T14:23:45Z</time></trkpt><trkpt lat="43.69964995825561" lon="11.820399559183281"><ele>407.0</ele><time>2026-05-04T14:27:26.024Z</time></trkpt><trkpt lat="43.699629692028694" lon="11.820488559859065"><ele>407.0</ele><time>2026-05-04T14:27:30.023Z</time></trkpt><trkpt lat="43.69956827392514" lon="11.820565904418592"><ele>407.0</ele><time>2026-05-04T14:27:32.024Z</time></trkpt><trkpt lat="43.69963046833282" lon="11.820550391235004"><ele>407.0</ele><time>2026-05-04T14:27:45.023Z</time></trkpt><trkpt lat="43.69968346280861" lon="11.820482915598438"><ele>407.0</ele><time>2026-05-04T14:27:47.023Z</time></trkpt><trkpt lat="43.699733979072114" lon="11.820312015516418"><ele>407.0</ele><time>2026-05-04T14:29:52Z</time></trkpt></trkseg><trkseg><trkpt lat="43.69968489680544" lon="11.820265502056522"><ele>406.99999999999994</ele><time>2026-05-04T14:49:00Z</time></trkpt><trkpt lat="43.69957155704021" lon="11.82022070827977"><ele>407.0</ele><time>2026-05-04T14:49:02Z</time></trkpt><trkpt lat="43.699508348887704" lon="11.820187980302348"><ele>407.0</ele><time>2026-05-04T14:49:03Z</time></trkpt><trkpt lat="43.69943670444369" lon="11.820151833219724"><ele>407.0</ele><time>2026-05-04T14:49:04Z</time></trkpt><trkpt lat="43.699369908023996" lon="11.820106791865648"><ele>406.99999999999994</ele><time>2026-05-04T14:49:05Z</time></trkpt><trkpt lat="43.69929157711738" lon="11.820074795774689"><ele>407.0</ele><time>2026-05-04T14:49:06Z</time></trkpt><trkpt lat="43.69922698341681" lon="11.820041412022153"><ele>406.20000000000005</ele><time>2026-05-04T14:49:07Z</time></trkpt><trkpt lat="43.69916833525724" lon="11.820002743311251"><ele>405.4</ele><time>2026-05-04T14:49:08Z</time></trkpt><trkpt lat="43.699085553756944" lon="11.819967356385236"><ele>404.6</ele><time>2026-05-04T14:49:09Z</time></trkpt><trkpt lat="43.69892906600318" lon="11.819879942464036"><ele>403.79999999999995</ele><time>2026-05-04T14:49:11Z</time></trkpt><trkpt lat="43.698841977170964" lon="11.819834643279878"><ele>403.0</ele><time>2026-05-04T14:49:12Z</time></trkpt><trkpt lat="43.69875367818619" lon="11.819786128567053"><ele>403.0</ele><time>2026-05-04T14:49:13Z</time></trkpt><trkpt lat="43.698670035547714" lon="11.819739151632707"><ele>403.0</ele><time>2026-05-04T14:49:14Z</time></trkpt><trkpt lat="43.698582492722636" lon="11.819696475453297"><ele>403.0</ele><time>2026-05-04T14:49:15Z</time></trkpt><trkpt lat="43.6984912675075" lon="11.819647684849114"><ele>403.0</ele><time>2026-05-04T14:49:16Z</time></trkpt><trkpt lat="43.69839600819034" lon="11.81959294399073"><ele>403.0</ele><time>2026-05-04T14:49:17Z</time></trkpt><trkpt lat="43.69830580306723" lon="11.819547236740616"><ele>402.83333333333337</ele><time>2026-05-04T14:49:18Z</time></trkpt><trkpt lat="43.69822497018262" lon="11.819499319080162"><ele>402.6666666666667</ele><time>2026-05-04T14:49:19Z</time></trkpt><trkpt lat="43.69814738332127" lon="11.819461248751393"><ele>402.5</ele><time>2026-05-04T14:49:20Z</time></trkpt><trkpt lat="43.698079697032114" lon="11.819420348083943"><ele>402.33333333333337</ele><time>2026-05-04T14:49:21Z</time></trkpt><trkpt lat="43.6980116717206" lon="11.819387125567893"><ele>402.1666666666667</ele><time>2026-05-04T14:49:22Z</time></trkpt><trkpt lat="43.69794113316688" lon="11.819354667465134"><ele>402.0</ele><time>2026-05-04T14:49:23Z</time></trkpt><trkpt lat="43.6978826624341" lon="11.819322058322317"><ele>402.3333333333333</ele><time>2026-05-04T14:49:24Z</time></trkpt><trkpt lat="43.697807363054295" lon="11.81927986057902"><ele>402.66666666666663</ele><time>2026-05-04T14:49:25Z</time></trkpt><trkpt lat="43.69773470906376" lon="11.819234417955794"><ele>403.0</ele><time>2026-05-04T14:49:26Z</time></trkpt><trkpt lat="43.69766540129601" lon="11.819204721491326"><ele>403.3333333333333</ele><time>2026-05-04T14:49:27Z</time></trkpt><trkpt lat="43.69760017675844" lon="11.819172513362602"><ele>403.66666666666663</ele><time>2026-05-04T14:49:28Z</time></trkpt><trkpt lat="43.69753648710284" lon="11.819138582514354"><ele>404.0</ele><time>2026-05-04T14:49:29Z</time></trkpt><trkpt lat="43.6974585546974" lon="11.819080805374048"><ele>404.6</ele><time>2026-05-04T14:49:31Z</time></trkpt><trkpt lat="43.69737892540861" lon="11.819034948349726"><ele>405.2</ele><time>2026-05-04T14:49:33Z</time></trkpt><trkpt lat="43.697255909339475" lon="11.818972907860292"><ele>405.8</ele><time>2026-05-04T14:49:35Z</time></trkpt><trkpt lat="43.6971757309274" lon="11.818951121558667"><ele>406.40000000000003</ele><time>2026-05-04T14:49:36Z</time></trkpt><trkpt lat="43.69709095313879" lon="11.818903663163363"><ele>407.0</ele><time>2026-05-04T14:49:37Z</time></trkpt><trkpt lat="43.69700490257828" lon="11.818862466447978"><ele>406.99999999999994</ele><time>2026-05-04T14:49:38Z</time></trkpt><trkpt lat="43.69692531067011" lon="11.818801931647274"><ele>407.0</ele><time>2026-05-04T14:49:39Z</time></trkpt><trkpt lat="43.696849143084194" lon="11.81877963361317"><ele>407.0</ele><time>2026-05-04T14:49:40Z</time></trkpt><trkpt lat="43.696786653820084" lon="11.818700988293525"><ele>407.0</ele><time>2026-05-04T14:49:40.999Z</time></trkpt><trkpt lat="43.6967344390883" lon="11.818621358565595"><ele>406.99999999999994</ele><time>2026-05-04T14:49:41.999Z</time></trkpt><trkpt lat="43.69669535859883" lon="11.81852753460341"><ele>407.0</ele><time>2026-05-04T14:49:42.999Z</time></trkpt><trkpt lat="43.69667507766719" lon="11.818425981566865"><ele>407.40000000000003</ele><time>2026-05-04T14:49:43.999Z</time></trkpt><trkpt lat="43.696656412645225" lon="11.818333228825807"><ele>407.8</ele><time>2026-05-04T14:49:44.999Z</time></trkpt><trkpt lat="43.696619514984015" lon="11.81819721097578"><ele>408.2</ele><time>2026-05-04T14:49:46.999Z</time></trkpt><trkpt lat="43.696734525113904" lon="11.818157622205376"><ele>408.6</ele><time>2026-05-04T14:49:50.999Z</time></trkpt><trkpt lat="43.69680314724167" lon="11.818192470366265"><ele>409.0</ele><time>2026-05-04T14:49:51.999Z</time></trkpt><trkpt lat="43.696923438303955" lon="11.818230825935489"><ele>407.83333333333337</ele><time>2026-05-04T14:49:53.999Z</time></trkpt><trkpt lat="43.69698566620654" lon="11.818253032057083"><ele>406.6666666666667</ele><time>2026-05-04T14:49:54.999Z</time></trkpt><trkpt lat="43.69704625847132" lon="11.818281475411334"><ele>405.5</ele><time>2026-05-04T14:49:55.999Z</time></trkpt><trkpt lat="43.697158511845295" lon="11.818342841454204"><ele>404.33333333333337</ele><time>2026-05-04T14:49:57.999Z</time></trkpt><trkpt lat="43.69721221519075" lon="11.818388411600965"><ele>403.1666666666667</ele><time>2026-05-04T14:49:58.999Z</time></trkpt><trkpt lat="43.69731818783696" lon="11.818455844623566"><ele>402.0</ele><time>2026-05-04T14:50:00.999Z</time></trkpt><trkpt lat="43.69738307050698" lon="11.818484365843362"><ele>402.0</ele><time>2026-05-04T14:50:02.999Z</time></trkpt><trkpt lat="43.697381434944404" lon="11.818267776647449"><ele>402.0</ele><time>2026-05-04T14:50:12.999Z</time></trkpt><trkpt lat="43.69739465962559" lon="11.818145780487525"><ele>402.0</ele><time>2026-05-04T14:50:14.999Z</time></trkpt><trkpt lat="43.69734330251155" lon="11.818016961603265"><ele>402.0</ele><time>2026-05-04T14:50:16.999Z</time></trkpt><trkpt lat="43.69728509475244" lon="11.817951293770431"><ele>402.0</ele><time>2026-05-04T14:50:17.999Z</time></trkpt><trkpt lat="43.697222800740505" lon="11.81785319671501"><ele>402.0</ele><time>2026-05-04T14:50:18.999Z</time></trkpt><trkpt lat="43.697167626721935" lon="11.817737841312033"><ele>402.0</ele><time>2026-05-04T14:50:19.999Z</time></trkpt><trkpt lat="43.69711819589859" lon="11.817632856744131"><ele>402.0</ele><time>2026-05-04T14:50:20.999Z</time></trkpt><trkpt lat="43.69707277732516" lon="11.81752199400435"><ele>402.0</ele><time>2026-05-04T14:50:21.999Z</time></trkpt><trkpt lat="43.69703293224861" lon="11.817397164362397"><ele>402.0</ele><time>2026-05-04T14:50:22.999Z</time></trkpt><trkpt lat="43.69700259077907" lon="11.817264800253692"><ele>399.6</ele><time>2026-05-04T14:50:23.999Z</time></trkpt><trkpt lat="43.69698180399227" lon="11.817126505736084"><ele>397.20000000000005</ele><time>2026-05-04T14:50:24.999Z</time></trkpt><trkpt lat="43.696963239096085" lon="11.816993326081196"><ele>394.8</ele><time>2026-05-04T14:50:25.999Z</time></trkpt><trkpt lat="43.69695002801388" lon="11.816859276970233"><ele>392.4</ele><time>2026-05-04T14:50:26.999Z</time></trkpt><trkpt lat="43.69693607139043" lon="11.816740441485466"><ele>390.0</ele><time>2026-05-04T14:50:27.999Z</time></trkpt><trkpt lat="43.696921004727166" lon="11.816630941236301"><ele>389.6666666666667</ele><time>2026-05-04T14:50:28.999Z</time></trkpt><trkpt lat="43.69691185970722" lon="11.816535340772885"><ele>389.33333333333337</ele><time>2026-05-04T14:50:29.999Z</time></trkpt><trkpt lat="43.696920938719614" lon="11.816421986286345"><ele>389.0</ele><time>2026-05-04T14:50:31.999Z</time></trkpt><trkpt lat="43.69702294186407" lon="11.816389957435993"><ele>388.6666666666667</ele><time>2026-05-04T14:50:35.999Z</time></trkpt><trkpt lat="43.69709070090313" lon="11.816418981011571"><ele>388.33333333333337</ele><time>2026-05-04T14:50:36.999Z</time></trkpt><trkpt lat="43.69716769534575" lon="11.816440058821103"><ele>388.0</ele><time>2026-05-04T14:50:37.999Z</time></trkpt><trkpt lat="43.69726095816618" lon="11.816453907441366"><ele>388.0</ele><time>2026-05-04T14:50:38.999Z</time></trkpt><trkpt lat="43.69736455782488" lon="11.816470307677509"><ele>388.0</ele><time>2026-05-04T14:50:39.999Z</time></trkpt><trkpt lat="43.6974788118092" lon="11.8164905864762"><ele>388.0</ele><time>2026-05-04T14:50:40.999Z</time></trkpt><trkpt lat="43.697595484140045" lon="11.816509788954267"><ele>388.0</ele><time>2026-05-04T14:50:41.999Z</time></trkpt><trkpt lat="43.69770621629831" lon="11.816527893886002"><ele>388.0</ele><time>2026-05-04T14:50:42.999Z</time></trkpt><trkpt lat="43.69781913301811" lon="11.816548970088176"><ele>386.2</ele><time>2026-05-04T14:50:43.999Z</time></trkpt><trkpt lat="43.697927867316814" lon="11.816567678964972"><ele>384.4</ele><time>2026-05-04T14:50:44.999Z</time></trkpt><trkpt lat="43.69803431583303" lon="11.816584240804428"><ele>382.59999999999997</ele><time>2026-05-04T14:50:45.999Z</time></trkpt><trkpt lat="43.698141660391364" lon="11.816599954157827"><ele>380.79999999999995</ele><time>2026-05-04T14:50:46.999Z</time></trkpt><trkpt lat="43.69825153796997" lon="11.816616082547341"><ele>379.0</ele><time>2026-05-04T14:50:47.999Z</time></trkpt><trkpt lat="43.698360519870974" lon="11.816632676086659"><ele>379.0</ele><time>2026-05-04T14:50:48.999Z</time></trkpt><trkpt lat="43.69846849738078" lon="11.816643125544381"><ele>379.0</ele><time>2026-05-04T14:50:49.999Z</time></trkpt><trkpt lat="43.69857724578384" lon="11.81665120822391"><ele>379.0</ele><time>2026-05-04T14:50:50.999Z</time></trkpt><trkpt lat="43.69868834595943" lon="11.816655695809683"><ele>379.0</ele><time>2026-05-04T14:50:51.999Z</time></trkpt><trkpt lat="43.69880812304078" lon="11.816660004692558"><ele>379.0</ele><time>2026-05-04T14:50:52.999Z</time></trkpt><trkpt lat="43.69892940731401" lon="11.816660479686766"><ele>377.25</ele><time>2026-05-04T14:50:53.999Z</time></trkpt><trkpt lat="43.699048150847695" lon="11.81666921086077"><ele>375.5</ele><time>2026-05-04T14:50:54.999Z</time></trkpt><trkpt lat="43.69916711609515" lon="11.816672167866521"><ele>373.75</ele><time>2026-05-04T14:50:55.999Z</time></trkpt><trkpt lat="43.69929091005969" lon="11.816677170680746"><ele>372.0</ele><time>2026-05-04T14:50:56.999Z</time></trkpt><trkpt lat="43.69941445199653" lon="11.816680007717508"><ele>370.75</ele><time>2026-05-04T14:50:57.999Z</time></trkpt><trkpt lat="43.699536537822134" lon="11.816681212053169"><ele>369.5</ele><time>2026-05-04T14:50:58.999Z</time></trkpt><trkpt lat="43.699657028508" lon="11.816679011315903"><ele>368.25</ele><time>2026-05-04T14:50:59.999Z</time></trkpt><trkpt lat="43.69977558802334" lon="11.816680471257822"><ele>367.0</ele><time>2026-05-04T14:51:00.999Z</time></trkpt><trkpt lat="43.69989239708042" lon="11.8166849784451"><ele>367.0</ele><time>2026-05-04T14:51:01.999Z</time></trkpt><trkpt lat="43.7000067845905" lon="11.816688493096215"><ele>367.0</ele><time>2026-05-04T14:51:02.999Z</time></trkpt><trkpt lat="43.70012361870905" lon="11.816684532097533"><ele>367.0</ele><time>2026-05-04T14:51:03.999Z</time></trkpt><trkpt lat="43.70024026787078" lon="11.816663435079517"><ele>367.0</ele><time>2026-05-04T14:51:04.999Z</time></trkpt><trkpt lat="43.70035523155423" lon="11.816613126475803"><ele>366.25</ele><time>2026-05-04T14:51:05.999Z</time></trkpt><trkpt lat="43.70046340617398" lon="11.816534878378405"><ele>365.5</ele><time>2026-05-04T14:51:06.999Z</time></trkpt><trkpt lat="43.70055944156936" lon="11.81643148370036"><ele>364.75</ele><time>2026-05-04T14:51:07.999Z</time></trkpt><trkpt lat="43.70063919159972" lon="11.81631132196212"><ele>364.0</ele><time>2026-05-04T14:51:08.999Z</time></trkpt><trkpt lat="43.700694215409214" lon="11.816165684349325"><ele>364.0</ele><time>2026-05-04T14:51:09.999Z</time></trkpt><trkpt lat="43.70071885123064" lon="11.81599865642705"><ele>364.0</ele><time>2026-05-04T14:51:10.999Z</time></trkpt><trkpt lat="43.700720723226624" lon="11.81581479944274"><ele>364.0</ele><time>2026-05-04T14:51:11.999Z</time></trkpt><trkpt lat="43.70070474785918" lon="11.815629517722648"><ele>364.0</ele><time>2026-05-04T14:51:12.999Z</time></trkpt><trkpt lat="43.700679524511486" lon="11.81543887663708"><ele>362.0</ele><time>2026-05-04T14:51:13.999Z</time></trkpt><trkpt lat="43.7006586347144" lon="11.815261602448514"><ele>360.0</ele><time>2026-05-04T14:51:14.999Z</time></trkpt><trkpt lat="43.700639678493154" lon="11.81507877101582"><ele>358.0</ele><time>2026-05-04T14:51:15.999Z</time></trkpt><trkpt lat="43.70061894976267" lon="11.814907044557396"><ele>356.0</ele><time>2026-05-04T14:51:16.999Z</time></trkpt><trkpt lat="43.700593605594506" lon="11.814735307928823"><ele>354.25</ele><time>2026-05-04T14:51:17.999Z</time></trkpt><trkpt lat="43.70056112819767" lon="11.814575935060827"><ele>352.5</ele><time>2026-05-04T14:51:18.999Z</time></trkpt><trkpt lat="43.700517582273825" lon="11.814412326464302"><ele>350.75</ele><time>2026-05-04T14:51:19.999Z</time></trkpt><trkpt lat="43.70045860657483" lon="11.814253703314872"><ele>349.0</ele><time>2026-05-04T14:51:20.999Z</time></trkpt><trkpt lat="43.70039514118035" lon="11.814089698537712"><ele>349.0</ele><time>2026-05-04T14:51:21.999Z</time></trkpt><trkpt lat="43.70033403870003" lon="11.813930508913849"><ele>349.0</ele><time>2026-05-04T14:51:22.999Z</time></trkpt><trkpt lat="43.70026991217993" lon="11.813780067988814"><ele>349.0</ele><time>2026-05-04T14:51:23.999Z</time></trkpt><trkpt lat="43.70020719934615" lon="11.813626129580527"><ele>349.0</ele><time>2026-05-04T14:51:24.999Z</time></trkpt><trkpt lat="43.70015097575579" lon="11.813474940573167"><ele>347.5</ele><time>2026-05-04T14:51:25.999Z</time></trkpt><trkpt lat="43.70008691873701" lon="11.813328292792832"><ele>346.0</ele><time>2026-05-04T14:51:26.999Z</time></trkpt><trkpt lat="43.70003058579923" lon="11.813173189399953"><ele>344.5</ele><time>2026-05-04T14:51:27.999Z</time></trkpt><trkpt lat="43.699987312035" lon="11.81301797681589"><ele>343.0</ele><time>2026-05-04T14:51:28.999Z</time></trkpt><trkpt lat="43.69995432434134" lon="11.812862970584764"><ele>343.0</ele><time>2026-05-04T14:51:29.999Z</time></trkpt><trkpt lat="43.69995557580536" lon="11.812694375555678"><ele>343.0</ele><time>2026-05-04T14:51:30.999Z</time></trkpt><trkpt lat="43.69996102218342" lon="11.812535301423479"><ele>343.0</ele><time>2026-05-04T14:51:31.999Z</time></trkpt><trkpt lat="43.69998786213892" lon="11.812370517690402"><ele>343.0</ele><time>2026-05-04T14:51:32.999Z</time></trkpt><trkpt lat="43.70002127196805" lon="11.812202463447171"><ele>342.25</ele><time>2026-05-04T14:51:33.999Z</time></trkpt><trkpt lat="43.70005278777923" lon="11.81204349992301"><ele>341.5</ele><time>2026-05-04T14:51:34.999Z</time></trkpt><trkpt lat="43.70009829773145" lon="11.811892227943748"><ele>340.75</ele><time>2026-05-04T14:51:35.999Z</time></trkpt><trkpt lat="43.70013819691121" lon="11.811747740790342"><ele>340.0</ele><time>2026-05-04T14:51:36.999Z</time></trkpt><trkpt lat="43.7001732146586" lon="11.811611531793268"><ele>339.8</ele><time>2026-05-04T14:51:37.999Z</time></trkpt><trkpt lat="43.70021402376655" lon="11.81146502043173"><ele>339.6</ele><time>2026-05-04T14:51:38.999Z</time></trkpt><trkpt lat="43.700252537344106" lon="11.81131830077007"><ele>339.4</ele><time>2026-05-04T14:51:39.999Z</time></trkpt><trkpt lat="43.700303489856495" lon="11.811185902387097"><ele>339.2</ele><time>2026-05-04T14:51:40.999Z</time></trkpt><trkpt lat="43.70033896126855" lon="11.811058869867228"><ele>339.0</ele><time>2026-05-04T14:51:41.999Z</time></trkpt><trkpt lat="43.700361535022665" lon="11.810938019511651"><ele>338.8333333333333</ele><time>2026-05-04T14:51:42.999Z</time></trkpt><trkpt lat="43.700387689532995" lon="11.810817632742351"><ele>338.6666666666667</ele><time>2026-05-04T14:51:43.999Z</time></trkpt><trkpt lat="43.70041680618626" lon="11.810715682629553"><ele>338.5</ele><time>2026-05-04T14:51:44.999Z</time></trkpt><trkpt lat="43.700438801021534" lon="11.810633342267565"><ele>338.33333333333337</ele><time>2026-05-04T14:51:45.999Z</time></trkpt><trkpt lat="43.70046493222737" lon="11.810519135630157"><ele>338.1666666666667</ele><time>2026-05-04T14:51:47.999Z</time></trkpt><trkpt lat="43.7004807258629" lon="11.810429822237984"><ele>338.0</ele><time>2026-05-04T14:51:56.999Z</time></trkpt><trkpt lat="43.70049423931077" lon="11.810318537200367"><ele>338.0</ele><time>2026-05-04T14:52:00.999Z</time></trkpt><trkpt lat="43.700460832809355" lon="11.810177536089821"><ele>338.0</ele><time>2026-05-04T14:52:02.999Z</time></trkpt><trkpt lat="43.70040759004126" lon="11.810094565678135"><ele>338.0</ele><time>2026-05-04T14:52:04.999Z</time></trkpt><trkpt lat="43.700365208368844" lon="11.810009312278602"><ele>338.0</ele><time>2026-05-04T14:52:06.999Z</time></trkpt><trkpt lat="43.700299787948865" lon="11.810037861697165"><ele>338.0</ele><time>2026-05-04T14:52:07.999Z</time></trkpt><trkpt lat="43.700221877178606" lon="11.81000649233062"><ele>338.0</ele><time>2026-05-04T14:52:09.999Z</time></trkpt><trkpt lat="43.70015054859126" lon="11.809915902562452"><ele>338.0</ele><time>2026-05-04T14:52:11.999Z</time></trkpt><trkpt lat="43.70005209239389" lon="11.809874304526081"><ele>338.0</ele><time>2026-05-04T14:52:13.999Z</time></trkpt><trkpt lat="43.6999528526119" lon="11.809833365435809"><ele>338.0</ele><time>2026-05-04T14:52:15.999Z</time></trkpt><trkpt lat="43.69985622820331" lon="11.80978792671165"><ele>338.0</ele><time>2026-05-04T14:52:17.999Z</time></trkpt><trkpt lat="43.69976404170512" lon="11.809744814530871"><ele>338.0</ele><time>2026-05-04T14:52:19.999Z</time></trkpt><trkpt lat="43.69967985442086" lon="11.809713075709428"><ele>338.0</ele><time>2026-05-04T14:52:21.999Z</time></trkpt><trkpt lat="43.69959555048595" lon="11.80972869276258"><ele>338.0</ele><time>2026-05-04T14:52:23.999Z</time></trkpt><trkpt lat="43.69951014233947" lon="11.809765346894673"><ele>338.0</ele><time>2026-05-04T14:52:25.999Z</time></trkpt><trkpt lat="43.69944741461641" lon="11.809805098914207"><ele>338.0</ele><time>2026-05-04T14:52:26.999Z</time></trkpt><trkpt lat="43.69936742091122" lon="11.809797219804775"><ele>338.0</ele><time>2026-05-04T14:52:27.999Z</time></trkpt><trkpt lat="43.69929599734207" lon="11.80979291708126"><ele>338.0</ele><time>2026-05-04T14:52:28.999Z</time></trkpt><trkpt lat="43.699169382082225" lon="11.80977426732945"><ele>337.59999999999997</ele><time>2026-05-04T14:52:30.999Z</time></trkpt><trkpt lat="43.69908304574801" lon="11.809763368388726"><ele>337.2</ele><time>2026-05-04T14:52:31.999Z</time></trkpt><trkpt lat="43.69898697266484" lon="11.809754514328212"><ele>336.8</ele><time>2026-05-04T14:52:32.999Z</time></trkpt><trkpt lat="43.69888538363553" lon="11.809745811615842"><ele>336.4</ele><time>2026-05-04T14:52:33.999Z</time></trkpt><trkpt lat="43.69878112696873" lon="11.809737218235846"><ele>336.0</ele><time>2026-05-04T14:52:34.999Z</time></trkpt><trkpt lat="43.69868657846586" lon="11.809729425044372"><ele>336.0</ele><time>2026-05-04T14:52:35.999Z</time></trkpt><trkpt lat="43.698603680260646" lon="11.809722592145874"><ele>336.0</ele><time>2026-05-04T14:52:36.999Z</time></trkpt><trkpt lat="43.698525019813296" lon="11.809718165065107"><ele>336.0</ele><time>2026-05-04T14:52:37.999Z</time></trkpt><trkpt lat="43.698400790568876" lon="11.809713087513494"><ele>336.0</ele><time>2026-05-04T14:52:39.999Z</time></trkpt><trkpt lat="43.69832366849144" lon="11.809684111814173"><ele>336.0</ele><time>2026-05-04T14:52:42.999Z</time></trkpt><trkpt lat="43.698345721887954" lon="11.809573118976193"><ele>336.0</ele><time>2026-05-04T14:52:44.999Z</time></trkpt><trkpt lat="43.698277041353" lon="11.809476023334716"><ele>335.8</ele><time>2026-05-04T14:52:46.999Z</time></trkpt><trkpt lat="43.69820000527304" lon="11.80949480291143"><ele>335.6</ele><time>2026-05-04T14:52:47.999Z</time></trkpt><trkpt lat="43.698134747423914" lon="11.809501734738273"><ele>335.4</ele><time>2026-05-04T14:52:48.999Z</time></trkpt><trkpt lat="43.69805795607393" lon="11.809459490418694"><ele>335.2</ele><time>2026-05-04T14:52:50.999Z</time></trkpt><trkpt lat="43.69808624983801" lon="11.809327848159915"><ele>335.0</ele><time>2026-05-04T14:52:52.999Z</time></trkpt><trkpt lat="43.69809174179003" lon="11.809155154316645"><ele>335.0</ele><time>2026-05-04T14:52:54.999Z</time></trkpt><trkpt lat="43.69809527585966" lon="11.809052458471204"><ele>335.0</ele><time>2026-05-04T14:52:55.999Z</time></trkpt><trkpt lat="43.698099035996115" lon="11.808943193372818"><ele>335.0</ele><time>2026-05-04T14:52:56.999Z</time></trkpt><trkpt lat="43.69810300603772" lon="11.808827828516272"><ele>335.0</ele><time>2026-05-04T14:52:57.999Z</time></trkpt><trkpt lat="43.698108370613184" lon="11.808700103649235"><ele>335.0</ele><time>2026-05-04T14:52:58.998Z</time></trkpt><trkpt lat="43.69811017047837" lon="11.808567596449718"><ele>335.0</ele><time>2026-05-04T14:52:59.998Z</time></trkpt><trkpt lat="43.698132702494696" lon="11.808449925659676"><ele>334.6</ele><time>2026-05-04T14:53:00.998Z</time></trkpt><trkpt lat="43.698159678944634" lon="11.80833268780287"><ele>334.2</ele><time>2026-05-04T14:53:01.998Z</time></trkpt><trkpt lat="43.6981844087701" lon="11.808231019088494"><ele>333.79999999999995</ele><time>2026-05-04T14:53:02.998Z</time></trkpt><trkpt lat="43.69820757813986" lon="11.808142777210419"><ele>333.4</ele><time>2026-05-04T14:53:03.998Z</time></trkpt><trkpt lat="43.6982580314395" lon="11.808019868929453"><ele>333.0</ele><time>2026-05-04T14:53:05.998Z</time></trkpt><trkpt lat="43.69815911378602" lon="11.807910557348608"><ele>333.0</ele><time>2026-05-04T14:53:07.998Z</time></trkpt><trkpt lat="43.698090670858235" lon="11.807871320544093"><ele>333.0</ele><time>2026-05-04T14:53:09.998Z</time></trkpt><trkpt lat="43.698030322165074" lon="11.807839114072303"><ele>333.0</ele><time>2026-05-04T14:53:11.998Z</time></trkpt><trkpt lat="43.69794245091623" lon="11.807794516416568"><ele>333.0</ele><time>2026-05-04T14:53:14.999Z</time></trkpt><trkpt lat="43.69787759377587" lon="11.807765559577902"><ele>333.0</ele><time>2026-05-04T14:53:16.999Z</time></trkpt><trkpt lat="43.69780498149621" lon="11.808212439683116"><ele>333.0</ele><time>2026-05-04T14:53:45.999Z</time></trkpt><trkpt lat="43.69779455624707" lon="11.80834274131958"><ele>333.0</ele><time>2026-05-04T14:53:47.999Z</time></trkpt><trkpt lat="43.69774309789622" lon="11.808437063601163"><ele>333.0</ele><time>2026-05-04T14:53:49.999Z</time></trkpt><trkpt lat="43.6976449226256" lon="11.808437640474695"><ele>333.0</ele><time>2026-05-04T14:53:51.999Z</time></trkpt><trkpt lat="43.69755266991134" lon="11.808427254202595"><ele>333.0</ele><time>2026-05-04T14:53:53.999Z</time></trkpt><trkpt lat="43.69748348760338" lon="11.808384445008405"><ele>333.0</ele><time>2026-05-04T14:53:56.999Z</time></trkpt><trkpt lat="43.6974500377274" lon="11.8082978990847"><ele>332.59999999999997</ele><time>2026-05-04T14:53:58.999Z</time></trkpt><trkpt lat="43.697373836154284" lon="11.808235239534373"><ele>332.2</ele><time>2026-05-04T14:54:00.999Z</time></trkpt><trkpt lat="43.69728739168805" lon="11.808240838410958"><ele>331.8</ele><time>2026-05-04T14:54:02.999Z</time></trkpt><trkpt lat="43.697200242429176" lon="11.808237993188682"><ele>331.4</ele><time>2026-05-04T14:54:06.999Z</time></trkpt><trkpt lat="43.69710026601424" lon="11.808239514558103"><ele>331.0</ele><time>2026-05-04T14:54:08.999Z</time></trkpt><trkpt lat="43.69700756119881" lon="11.808295747577182"><ele>331.0</ele><time>2026-05-04T14:54:10.999Z</time></trkpt><trkpt lat="43.6969858173404" lon="11.808419578790772"><ele>331.0</ele><time>2026-05-04T14:54:12.999Z</time></trkpt><trkpt lat="43.696993566715456" lon="11.808545847388288"><ele>331.0</ele><time>2026-05-04T14:54:14.999Z</time></trkpt><trkpt lat="43.69698723701682" lon="11.808643791459234"><ele>331.0</ele><time>2026-05-04T14:54:16.999Z</time></trkpt><trkpt lat="43.696997958879116" lon="11.808390840922263"><ele>331.0</ele><time>2026-05-04T14:54:30.999Z</time></trkpt><trkpt lat="43.69704280028328" lon="11.808259383326988"><ele>331.0</ele><time>2026-05-04T14:54:32.999Z</time></trkpt><trkpt lat="43.69710651069789" lon="11.808238068685363"><ele>331.0</ele><time>2026-05-04T14:54:33.999Z</time></trkpt><trkpt lat="43.6971874463951" lon="11.808249433933637"><ele>331.0</ele><time>2026-05-04T14:54:34.999Z</time></trkpt><trkpt lat="43.69726509250767" lon="11.808257505541107"><ele>331.0</ele><time>2026-05-04T14:54:35.999Z</time></trkpt><trkpt lat="43.69734807253441" lon="11.808258224012"><ele>331.0</ele><time>2026-05-04T14:54:36.999Z</time></trkpt><trkpt lat="43.69741704778856" lon="11.80827211025091"><ele>331.0</ele><time>2026-05-04T14:54:37.999Z</time></trkpt><trkpt lat="43.69748332793522" lon="11.808381667450243"><ele>331.6</ele><time>2026-05-04T14:54:39.999Z</time></trkpt><trkpt lat="43.697474992359346" lon="11.808577963688597"><ele>332.20000000000005</ele><time>2026-05-04T14:54:41.999Z</time></trkpt><trkpt lat="43.697466950589494" lon="11.80869063640297"><ele>332.79999999999995</ele><time>2026-05-04T14:54:42.999Z</time></trkpt><trkpt lat="43.697467218673324" lon="11.808800141166959"><ele>333.4</ele><time>2026-05-04T14:54:43.999Z</time></trkpt><trkpt lat="43.69746936961314" lon="11.808908705673497"><ele>334.0</ele><time>2026-05-04T14:54:44.999Z</time></trkpt><trkpt lat="43.697466742979245" lon="11.809022825433878"><ele>334.0</ele><time>2026-05-04T14:54:45.999Z</time></trkpt><trkpt lat="43.69745855744271" lon="11.809133852613195"><ele>334.0</ele><time>2026-05-04T14:54:46.999Z</time></trkpt><trkpt lat="43.697453396319204" lon="11.809248619704872"><ele>334.0</ele><time>2026-05-04T14:54:47.999Z</time></trkpt><trkpt lat="43.697449607008764" lon="11.809392113635221"><ele>334.0</ele><time>2026-05-04T14:54:49.999Z</time></trkpt><trkpt lat="43.69741321834115" lon="11.80947526881517"><ele>334.0</ele><time>2026-05-04T14:54:52.999Z</time></trkpt><trkpt lat="43.697314582283596" lon="11.809471543448552"><ele>334.0</ele><time>2026-05-04T14:54:54.999Z</time></trkpt><trkpt lat="43.69720538808255" lon="11.809453527931014"><ele>334.0</ele><time>2026-05-04T14:54:56.999Z</time></trkpt><trkpt lat="43.69709192142491" lon="11.809452225778635"><ele>334.0</ele><time>2026-05-04T14:54:58.999Z</time></trkpt><trkpt lat="43.69700020362444" lon="11.80944245194684"><ele>334.0</ele><time>2026-05-04T14:55:00.999Z</time></trkpt><trkpt lat="43.69690432452306" lon="11.809460139515725"><ele>334.0</ele><time>2026-05-04T14:55:02.999Z</time></trkpt><trkpt lat="43.69680843941235" lon="11.80955360339808"><ele>334.0</ele><time>2026-05-04T14:55:04.998Z</time></trkpt><trkpt lat="43.696750374008566" lon="11.809693856995462"><ele>334.0</ele><time>2026-05-04T14:55:06.998Z</time></trkpt><trkpt lat="43.696772491469275" lon="11.809801082481352"><ele>334.0</ele><time>2026-05-04T14:55:08.998Z</time></trkpt><trkpt lat="43.696775301821845" lon="11.809909360331767"><ele>334.0</ele><time>2026-05-04T14:55:13.998Z</time></trkpt><trkpt lat="43.696709801455626" lon="11.81012592538258"><ele>334.0</ele><time>2026-05-04T14:55:17.998Z</time></trkpt><trkpt lat="43.696635972641715" lon="11.809935096026365"><ele>334.0</ele><time>2026-05-04T14:55:18.999Z</time></trkpt><trkpt lat="43.69655092601971" lon="11.80994218177841"><ele>334.0</ele><time>2026-05-04T14:55:20.999Z</time></trkpt><trkpt lat="43.696467958720866" lon="11.809839374142337"><ele>334.0</ele><time>2026-05-04T14:55:23.999Z</time></trkpt><trkpt lat="43.69643896526766" lon="11.809725632713299"><ele>334.0</ele><time>2026-05-04T14:55:27.999Z</time></trkpt><trkpt lat="43.69637647711163" lon="11.809698994408858"><ele>334.0</ele><time>2026-05-04T14:55:28.999Z</time></trkpt><trkpt lat="43.69631542230806" lon="11.809667757102046"><ele>334.0</ele><time>2026-05-04T14:55:29.999Z</time></trkpt><trkpt lat="43.69619580903165" lon="11.80963879222913"><ele>334.0</ele><time>2026-05-04T14:55:31.999Z</time></trkpt><trkpt lat="43.69612883227739" lon="11.809650142175547"><ele>334.0</ele><time>2026-05-04T14:55:32.999Z</time></trkpt><trkpt lat="43.69605881538409" lon="11.809658295912605"><ele>334.0</ele><time>2026-05-04T14:55:33.999Z</time></trkpt><trkpt lat="43.69598033774822" lon="11.809685598966928"><ele>334.0</ele><time>2026-05-04T14:55:34.999Z</time></trkpt><trkpt lat="43.695894871515655" lon="11.80969078635424"><ele>334.0</ele><time>2026-05-04T14:55:35.999Z</time></trkpt><trkpt lat="43.69580965064135" lon="11.809701390594457"><ele>334.0</ele><time>2026-05-04T14:55:36.999Z</time></trkpt><trkpt lat="43.69572540814" lon="11.809718628239153"><ele>333.79999999999995</ele><time>2026-05-04T14:55:37.999Z</time></trkpt><trkpt lat="43.695649209537756" lon="11.809718117381028"><ele>333.59999999999997</ele><time>2026-05-04T14:55:38.999Z</time></trkpt><trkpt lat="43.695577580949546" lon="11.809726220935916"><ele>333.4</ele><time>2026-05-04T14:55:39.999Z</time></trkpt><trkpt lat="43.69551061221085" lon="11.809739207966704"><ele>333.2</ele><time>2026-05-04T14:55:40.999Z</time></trkpt><trkpt lat="43.69542050942418" lon="11.809737551105925"><ele>333.0</ele><time>2026-05-04T14:55:42.999Z</time></trkpt><trkpt lat="43.695415846707064" lon="11.809449764017755"><ele>333.0</ele><time>2026-05-04T14:55:53.999Z</time></trkpt><trkpt lat="43.695442044839936" lon="11.809339281975015"><ele>333.0</ele><time>2026-05-04T14:55:54.999Z</time></trkpt><trkpt lat="43.695459141652094" lon="11.80923765559758"><ele>333.0</ele><time>2026-05-04T14:55:55.999Z</time></trkpt><trkpt lat="43.69548222388412" lon="11.809125240691353"><ele>333.0</ele><time>2026-05-04T14:55:56.999Z</time></trkpt><trkpt lat="43.69550854540716" lon="11.808996680415952"><ele>333.0</ele><time>2026-05-04T14:55:57.999Z</time></trkpt><trkpt lat="43.69552986521198" lon="11.808858141446295"><ele>333.0</ele><time>2026-05-04T14:55:58.999Z</time></trkpt><trkpt lat="43.695558389404546" lon="11.80871661983908"><ele>332.59999999999997</ele><time>2026-05-04T14:55:59.999Z</time></trkpt><trkpt lat="43.695586749585324" lon="11.80857032579341"><ele>332.2</ele><time>2026-05-04T14:56:00.999Z</time></trkpt><trkpt lat="43.69561124830464" lon="11.808423332015295"><ele>331.8</ele><time>2026-05-04T14:56:01.999Z</time></trkpt><trkpt lat="43.69563718054914" lon="11.808292691758512"><ele>331.4</ele><time>2026-05-04T14:56:02.999Z</time></trkpt><trkpt lat="43.69567118528036" lon="11.808175732784653"><ele>331.0</ele><time>2026-05-04T14:56:03.999Z</time></trkpt><trkpt lat="43.69569046249496" lon="11.80805327639044"><ele>330.8333333333333</ele><time>2026-05-04T14:56:04.999Z</time></trkpt><trkpt lat="43.69571102881644" lon="11.807941435595035"><ele>330.66666666666663</ele><time>2026-05-04T14:56:05.999Z</time></trkpt><trkpt lat="43.695735328969064" lon="11.807839565639789"><ele>330.5</ele><time>2026-05-04T14:56:06.999Z</time></trkpt><trkpt lat="43.695755977169945" lon="11.80774844375996"><ele>330.3333333333333</ele><time>2026-05-04T14:56:07.999Z</time></trkpt><trkpt lat="43.695773956601165" lon="11.807659813516004"><ele>330.1666666666667</ele><time>2026-05-04T14:56:08.999Z</time></trkpt><trkpt lat="43.69579367206746" lon="11.807525145369794"><ele>330.0</ele><time>2026-05-04T14:56:10.999Z</time></trkpt><trkpt lat="43.695808613974435" lon="11.807435464146515"><ele>329.8</ele><time>2026-05-04T14:57:06.999Z</time></trkpt><trkpt lat="43.69583430218078" lon="11.807303188541063"><ele>329.6</ele><time>2026-05-04T14:57:08.999Z</time></trkpt><trkpt lat="43.695867270714324" lon="11.80711201898525"><ele>329.4</ele><time>2026-05-04T14:57:10.999Z</time></trkpt><trkpt lat="43.69589246985284" lon="11.806985462790141"><ele>329.2</ele><time>2026-05-04T14:57:11.999Z</time></trkpt><trkpt lat="43.69590679090566" lon="11.806833950755422"><ele>329.0</ele><time>2026-05-04T14:57:12.999Z</time></trkpt><trkpt lat="43.69593143718311" lon="11.806705353264485"><ele>328.79999999999995</ele><time>2026-05-04T14:57:13.999Z</time></trkpt><trkpt lat="43.69594349411906" lon="11.806565820357672"><ele>328.59999999999997</ele><time>2026-05-04T14:57:14.999Z</time></trkpt><trkpt lat="43.69593663308748" lon="11.80642972041026"><ele>328.4</ele><time>2026-05-04T14:57:15.999Z</time></trkpt><trkpt lat="43.695907778534426" lon="11.80630489805295"><ele>328.2</ele><time>2026-05-04T14:57:16.999Z</time></trkpt><trkpt lat="43.69586070410022" lon="11.806196879584496"><ele>328.0</ele><time>2026-05-04T14:57:17.999Z</time></trkpt><trkpt lat="43.695786862951635" lon="11.80609938652267"><ele>328.0</ele><time>2026-05-04T14:57:18.999Z</time></trkpt><trkpt lat="43.6957176011175" lon="11.806009317855448"><ele>328.0</ele><time>2026-05-04T14:57:19.999Z</time></trkpt><trkpt lat="43.69563141654923" lon="11.805893266824143"><ele>328.0</ele><time>2026-05-04T14:57:20.999Z</time></trkpt><trkpt lat="43.69553232955859" lon="11.805796204384807"><ele>328.0</ele><time>2026-05-04T14:57:21.999Z</time></trkpt><trkpt lat="43.695452044245734" lon="11.805688630840427"><ele>328.0</ele><time>2026-05-04T14:57:22.999Z</time></trkpt><trkpt lat="43.69537583487787" lon="11.805591604158753"><ele>327.79999999999995</ele><time>2026-05-04T14:57:23.999Z</time></trkpt><trkpt lat="43.69530292195178" lon="11.80549803315755"><ele>327.6</ele><time>2026-05-04T14:57:24.999Z</time></trkpt><trkpt lat="43.69523266078519" lon="11.805404543054882"><ele>327.4</ele><time>2026-05-04T14:57:25.999Z</time></trkpt><trkpt lat="43.6951641172391" lon="11.805309521251166"><ele>327.20000000000005</ele><time>2026-05-04T14:57:26.999Z</time></trkpt><trkpt lat="43.695101359746275" lon="11.805203729022121"><ele>327.0</ele><time>2026-05-04T14:57:27.999Z</time></trkpt><trkpt lat="43.69504775482626" lon="11.805079689092155"><ele>326.40000000000003</ele><time>2026-05-04T14:57:28.999Z</time></trkpt><trkpt lat="43.695001963314766" lon="11.80494258648424"><ele>325.8</ele><time>2026-05-04T14:57:29.999Z</time></trkpt><trkpt lat="43.694973488547156" lon="11.804798045740394"><ele>325.2</ele><time>2026-05-04T14:57:30.999Z</time></trkpt><trkpt lat="43.694958400368165" lon="11.804641959435992"><ele>324.6</ele><time>2026-05-04T14:57:31.999Z</time></trkpt><trkpt lat="43.694953849353546" lon="11.804483205259759"><ele>324.0</ele><time>2026-05-04T14:57:32.999Z</time></trkpt><trkpt lat="43.6949570907442" lon="11.804326915005436"><ele>323.75</ele><time>2026-05-04T14:57:33.999Z</time></trkpt><trkpt lat="43.694961471959004" lon="11.80417423412415"><ele>323.5</ele><time>2026-05-04T14:57:34.999Z</time></trkpt><trkpt lat="43.694964139668585" lon="11.804016967307179"><ele>323.25</ele><time>2026-05-04T14:57:35.999Z</time></trkpt><trkpt lat="43.69496763421113" lon="11.803858529041428"><ele>323.0</ele><time>2026-05-04T14:57:36.999Z</time></trkpt><trkpt lat="43.69497228202118" lon="11.803689080368173"><ele>323.0</ele><time>2026-05-04T14:57:37.999Z</time></trkpt><trkpt lat="43.694972665420224" lon="11.803529473691768"><ele>323.0</ele><time>2026-05-04T14:57:38.999Z</time></trkpt><trkpt lat="43.69497026084602" lon="11.803364449546573"><ele>323.0</ele><time>2026-05-04T14:57:39.999Z</time></trkpt><trkpt lat="43.69497235421668" lon="11.803200429514959"><ele>323.0</ele><time>2026-05-04T14:57:40.999Z</time></trkpt><trkpt lat="43.694976908985524" lon="11.803035762041278"><ele>323.0</ele><time>2026-05-04T14:57:41.999Z</time></trkpt><trkpt lat="43.69497678496262" lon="11.802865780503147"><ele>323.0</ele><time>2026-05-04T14:57:42.999Z</time></trkpt><trkpt lat="43.69497345464813" lon="11.802692181455523"><ele>323.0</ele><time>2026-05-04T14:57:43.999Z</time></trkpt><trkpt lat="43.694973503729294" lon="11.802522983211126"><ele>323.0</ele><time>2026-05-04T14:57:44.999Z</time></trkpt><trkpt lat="43.69497035320375" lon="11.802372429531154"><ele>323.2</ele><time>2026-05-04T14:57:45.999Z</time></trkpt><trkpt lat="43.69497425414737" lon="11.802236779237735"><ele>323.4</ele><time>2026-05-04T14:57:46.999Z</time></trkpt><trkpt lat="43.69498961980962" lon="11.802100054593941"><ele>323.59999999999997</ele><time>2026-05-04T14:57:47.999Z</time></trkpt><trkpt lat="43.69502376185603" lon="11.801950070552813"><ele>323.79999999999995</ele><time>2026-05-04T14:57:48.999Z</time></trkpt><trkpt lat="43.69506987228534" lon="11.801834471795935"><ele>324.0</ele><time>2026-05-04T14:57:49.999Z</time></trkpt><trkpt lat="43.69513952807522" lon="11.801729589808438"><ele>324.25</ele><time>2026-05-04T14:57:50.999Z</time></trkpt><trkpt lat="43.6952198613208" lon="11.801611341563184"><ele>324.5</ele><time>2026-05-04T14:57:51.999Z</time></trkpt><trkpt lat="43.695284373052985" lon="11.801483476117932"><ele>324.75</ele><time>2026-05-04T14:57:52.999Z</time></trkpt><trkpt lat="43.695371185380644" lon="11.801377914177618"><ele>325.0</ele><time>2026-05-04T14:57:53.999Z</time></trkpt><trkpt lat="43.6954546294439" lon="11.801272983823639"><ele>325.0</ele><time>2026-05-04T14:57:54.999Z</time></trkpt><trkpt lat="43.69555498303895" lon="11.801219688553699"><ele>325.0</ele><time>2026-05-04T14:57:55.999Z</time></trkpt><trkpt lat="43.695645665588316" lon="11.801162165890263"><ele>325.0</ele><time>2026-05-04T14:57:56.999Z</time></trkpt><trkpt lat="43.69573583857565" lon="11.801122255353288"><ele>325.0</ele><time>2026-05-04T14:57:57.999Z</time></trkpt><trkpt lat="43.69582493815938" lon="11.801073485441075"><ele>325.0</ele><time>2026-05-04T14:57:58.999Z</time></trkpt><trkpt lat="43.695920575257205" lon="11.801058515394413"><ele>325.0</ele><time>2026-05-04T14:57:59.999Z</time></trkpt><trkpt lat="43.69601771502919" lon="11.801038037065075"><ele>325.0</ele><time>2026-05-04T14:58:00.999Z</time></trkpt><trkpt lat="43.6961045638046" lon="11.801001836139994"><ele>325.0</ele><time>2026-05-04T14:58:01.999Z</time></trkpt><trkpt lat="43.69617837068952" lon="11.800937461677606"><ele>325.0</ele><time>2026-05-04T14:58:02.999Z</time></trkpt><trkpt lat="43.6962374804075" lon="11.800855854782874"><ele>325.0</ele><time>2026-05-04T14:58:03.999Z</time></trkpt><trkpt lat="43.6962778306088" lon="11.800754323497817"><ele>325.0</ele><time>2026-05-04T14:58:04.999Z</time></trkpt><trkpt lat="43.69630157973568" lon="11.800652950599943"><ele>324.8</ele><time>2026-05-04T14:58:05.999Z</time></trkpt><trkpt lat="43.69629628111823" lon="11.800554194694566"><ele>324.6</ele><time>2026-05-04T14:58:06.999Z</time></trkpt><trkpt lat="43.69644781920683" lon="11.800428675992402"><ele>324.4</ele><time>2026-05-04T14:58:08.999Z</time></trkpt><trkpt lat="43.69650983263075" lon="11.800365392107574"><ele>324.2</ele><time>2026-05-04T14:58:09.999Z</time></trkpt><trkpt lat="43.69656109284915" lon="11.800287143913257"><ele>324.0</ele><time>2026-05-04T14:58:10.999Z</time></trkpt><trkpt lat="43.696591525241715" lon="11.80018082964973"><ele>323.8333333333333</ele><time>2026-05-04T14:58:11.999Z</time></trkpt><trkpt lat="43.69659154702363" lon="11.800059356976664"><ele>323.6666666666667</ele><time>2026-05-04T14:58:13Z</time></trkpt><trkpt lat="43.69656422769471" lon="11.799947917234178"><ele>323.5</ele><time>2026-05-04T14:58:14Z</time></trkpt><trkpt lat="43.696518011537854" lon="11.799845488391112"><ele>323.33333333333337</ele><time>2026-05-04T14:58:15Z</time></trkpt><trkpt lat="43.696450498235116" lon="11.799759866266397"><ele>323.1666666666667</ele><time>2026-05-04T14:58:16Z</time></trkpt><trkpt lat="43.69637127715002" lon="11.799689155515678"><ele>323.0</ele><time>2026-05-04T14:58:17Z</time></trkpt><trkpt lat="43.6962808060471" lon="11.799637000034114"><ele>323.0</ele><time>2026-05-04T14:58:18Z</time></trkpt><trkpt lat="43.69618358172985" lon="11.799611813239872"><ele>323.0</ele><time>2026-05-04T14:58:19Z</time></trkpt><trkpt lat="43.69608922553991" lon="11.799627586448295"><ele>323.0</ele><time>2026-05-04T14:58:20Z</time></trkpt><trkpt lat="43.69602411814675" lon="11.799669687757094"><ele>323.0</ele><time>2026-05-04T14:58:21Z</time></trkpt><trkpt lat="43.695911812313106" lon="11.799404288927818"><ele>323.2</ele><time>2026-05-04T14:58:23Z</time></trkpt><trkpt lat="43.69585400560597" lon="11.799300775429403"><ele>323.4</ele><time>2026-05-04T14:58:24Z</time></trkpt><trkpt lat="43.695810791129645" lon="11.799177051778683"><ele>323.59999999999997</ele><time>2026-05-04T14:58:25Z</time></trkpt><trkpt lat="43.69576578072995" lon="11.799055828184821"><ele>323.79999999999995</ele><time>2026-05-04T14:58:26Z</time></trkpt><trkpt lat="43.69571814733939" lon="11.798936416769264"><ele>324.0</ele><time>2026-05-04T14:58:27Z</time></trkpt><trkpt lat="43.69567457893367" lon="11.798785693620646"><ele>324.0</ele><time>2026-05-04T14:58:28Z</time></trkpt><trkpt lat="43.695629787621506" lon="11.798660207761086"><ele>324.0</ele><time>2026-05-04T14:58:29Z</time></trkpt><trkpt lat="43.69556624944075" lon="11.798525875793553"><ele>324.0</ele><time>2026-05-04T14:58:30Z</time></trkpt><trkpt lat="43.695516856397184" lon="11.798380010300331"><ele>324.0</ele><time>2026-05-04T14:58:31Z</time></trkpt><trkpt lat="43.69546277452987" lon="11.798229973801647"><ele>324.0</ele><time>2026-05-04T14:58:32Z</time></trkpt><trkpt lat="43.69543226110175" lon="11.798066497732163"><ele>324.0</ele><time>2026-05-04T14:58:33Z</time></trkpt><trkpt lat="43.69539546467671" lon="11.797908428560312"><ele>324.0</ele><time>2026-05-04T14:58:34Z</time></trkpt><trkpt lat="43.695370841708964" lon="11.79775379414463"><ele>324.0</ele><time>2026-05-04T14:58:35Z</time></trkpt><trkpt lat="43.695354481419784" lon="11.797580992707347"><ele>324.0</ele><time>2026-05-04T14:58:36Z</time></trkpt><trkpt lat="43.695355449856585" lon="11.797404377764353"><ele>324.0</ele><time>2026-05-04T14:58:37Z</time></trkpt><trkpt lat="43.69536347084078" lon="11.797238570709151"><ele>324.0</ele><time>2026-05-04T14:58:38Z</time></trkpt><trkpt lat="43.69537511313314" lon="11.797077534918744"><ele>324.0</ele><time>2026-05-04T14:58:39Z</time></trkpt><trkpt lat="43.6953874540918" lon="11.796916878279841"><ele>324.5</ele><time>2026-05-04T14:58:40Z</time></trkpt><trkpt lat="43.69539980771989" lon="11.796752237986448"><ele>325.0</ele><time>2026-05-04T14:58:41Z</time></trkpt><trkpt lat="43.69541181600852" lon="11.796571669346632"><ele>325.5</ele><time>2026-05-04T14:58:42Z</time></trkpt><trkpt lat="43.69541222813966" lon="11.79638386168601"><ele>326.0</ele><time>2026-05-04T14:58:43Z</time></trkpt><trkpt lat="43.695425526410546" lon="11.796196209795646"><ele>326.0</ele><time>2026-05-04T14:58:44Z</time></trkpt><trkpt lat="43.6954406677891" lon="11.796009887046566"><ele>326.0</ele><time>2026-05-04T14:58:45Z</time></trkpt><trkpt lat="43.6954645846215" lon="11.795843344404345"><ele>326.0</ele><time>2026-05-04T14:58:46Z</time></trkpt><trkpt lat="43.69546632570901" lon="11.795641829104444"><ele>326.0</ele><time>2026-05-04T14:58:47Z</time></trkpt><trkpt lat="43.69549631384489" lon="11.795451428353278"><ele>325.75</ele><time>2026-05-04T14:58:48Z</time></trkpt><trkpt lat="43.695495310348505" lon="11.795249837213387"><ele>325.5</ele><time>2026-05-04T14:58:49Z</time></trkpt><trkpt lat="43.695510282555595" lon="11.795058012008907"><ele>325.25</ele><time>2026-05-04T14:58:50Z</time></trkpt><trkpt lat="43.69552390514288" lon="11.794870505512147"><ele>325.0</ele><time>2026-05-04T14:58:51Z</time></trkpt><trkpt lat="43.69553745073591" lon="11.794675800759846"><ele>324.5</ele><time>2026-05-04T14:58:52Z</time></trkpt><trkpt lat="43.695567772369024" lon="11.794482012233711"><ele>324.0</ele><time>2026-05-04T14:58:53Z</time></trkpt><trkpt lat="43.69556469121491" lon="11.794283962238863"><ele>323.5</ele><time>2026-05-04T14:58:54Z</time></trkpt><trkpt lat="43.69557920907249" lon="11.794091538701835"><ele>323.0</ele><time>2026-05-04T14:58:55Z</time></trkpt><trkpt lat="43.695585685425115" lon="11.793902686206472"><ele>323.0</ele><time>2026-05-04T14:58:56Z</time></trkpt><trkpt lat="43.695580030009594" lon="11.79372331501327"><ele>323.0</ele><time>2026-05-04T14:58:57Z</time></trkpt><trkpt lat="43.69555614689363" lon="11.793546484921464"><ele>323.0</ele><time>2026-05-04T14:58:58Z</time></trkpt><trkpt lat="43.69551519249503" lon="11.793374038830382"><ele>323.0</ele><time>2026-05-04T14:58:59Z</time></trkpt><trkpt lat="43.69546036192793" lon="11.793208116757805"><ele>323.0</ele><time>2026-05-04T14:59:00Z</time></trkpt><trkpt lat="43.69539132305391" lon="11.793049407431917"><ele>323.0</ele><time>2026-05-04T14:59:01Z</time></trkpt><trkpt lat="43.695304812611525" lon="11.792892834728056"><ele>323.0</ele><time>2026-05-04T14:59:02Z</time></trkpt><trkpt lat="43.69520735585884" lon="11.792750587831513"><ele>323.0</ele><time>2026-05-04T14:59:03Z</time></trkpt><trkpt lat="43.695105639735274" lon="11.792619372218489"><ele>324.25</ele><time>2026-05-04T14:59:04Z</time></trkpt><trkpt lat="43.69500982164126" lon="11.792505524826703"><ele>325.5</ele><time>2026-05-04T14:59:05Z</time></trkpt><trkpt lat="43.69492125489742" lon="11.79240557875694"><ele>326.75</ele><time>2026-05-04T14:59:06Z</time></trkpt><trkpt lat="43.694826240946874" lon="11.792308685073687"><ele>328.0</ele><time>2026-05-04T14:59:07Z</time></trkpt><trkpt lat="43.69474829501999" lon="11.792209893168666"><ele>328.0</ele><time>2026-05-04T14:59:08Z</time></trkpt><trkpt lat="43.694671108982355" lon="11.792113719432752"><ele>328.0</ele><time>2026-05-04T14:59:09Z</time></trkpt><trkpt lat="43.69460205582025" lon="11.79201933969444"><ele>328.0</ele><time>2026-05-04T14:59:10Z</time></trkpt><trkpt lat="43.69453863171052" lon="11.791920967149576"><ele>328.0</ele><time>2026-05-04T14:59:11Z</time></trkpt><trkpt lat="43.69449609466101" lon="11.791787720695615"><ele>328.0</ele><time>2026-05-04T14:59:12Z</time></trkpt><trkpt lat="43.694442327395684" lon="11.791685471221037"><ele>328.0</ele><time>2026-05-04T14:59:13Z</time></trkpt><trkpt lat="43.69441416177288" lon="11.791572888349224"><ele>328.0</ele><time>2026-05-04T14:59:14Z</time></trkpt><trkpt lat="43.69438733415226" lon="11.79145795559733"><ele>328.0</ele><time>2026-05-04T14:59:15Z</time></trkpt><trkpt lat="43.694374385375916" lon="11.791349200203488"><ele>328.0</ele><time>2026-05-04T14:59:16Z</time></trkpt><trkpt lat="43.69437274134281" lon="11.791248274853737"><ele>328.0</ele><time>2026-05-04T14:59:16.999Z</time></trkpt><trkpt lat="43.69436716681024" lon="11.79114877594649"><ele>328.0</ele><time>2026-05-04T14:59:17.999Z</time></trkpt><trkpt lat="43.694354872625595" lon="11.79105531684928"><ele>328.0</ele><time>2026-05-04T14:59:18.999Z</time></trkpt><trkpt lat="43.694340024470456" lon="11.790906655247365"><ele>328.0</ele><time>2026-05-04T14:59:20.999Z</time></trkpt><trkpt lat="43.6943341655641" lon="11.790816837445012"><ele>328.0</ele><time>2026-05-04T14:59:23.999Z</time></trkpt><trkpt lat="43.69434241616522" lon="11.790927129423364"><ele>328.0</ele><time>2026-05-04T14:59:36Z</time></trkpt><trkpt lat="43.694354120934925" lon="11.79103662302182"><ele>328.0</ele><time>2026-05-04T14:59:39Z</time></trkpt><trkpt lat="43.69436420922709" lon="11.791130995152454"><ele>328.0</ele><time>2026-05-04T14:59:41Z</time></trkpt><trkpt lat="43.6944125216237" lon="11.7915401405995"><ele>328.0</ele><time>2026-05-04T14:59:42Z</time></trkpt><trkpt lat="43.69433331970577" lon="11.791298625161716"><ele>328.0</ele><time>2026-05-04T14:59:43Z</time></trkpt><trkpt lat="43.6943424257993" lon="11.791384842504945"><ele>328.0</ele><time>2026-05-04T14:59:44Z</time></trkpt><trkpt lat="43.69435345501362" lon="11.791488777137744"><ele>328.0</ele><time>2026-05-04T14:59:46Z</time></trkpt><trkpt lat="43.69438595549932" lon="11.791565749834602"><ele>328.0</ele><time>2026-05-04T14:59:49Z</time></trkpt><trkpt lat="43.694455532055656" lon="11.791542482710534"><ele>329.66666666666663</ele><time>2026-05-04T14:59:52Z</time></trkpt><trkpt lat="43.69454749366634" lon="11.791494036013292"><ele>331.3333333333333</ele><time>2026-05-04T15:01:11Z</time></trkpt><trkpt lat="43.69461123352027" lon="11.791465906414185"><ele>333.0</ele><time>2026-05-04T15:01:12Z</time></trkpt><trkpt lat="43.694684144106446" lon="11.791436604996193"><ele>334.6666666666667</ele><time>2026-05-04T15:01:13Z</time></trkpt><trkpt lat="43.69476552217539" lon="11.7914103153336"><ele>336.33333333333337</ele><time>2026-05-04T15:01:14Z</time></trkpt><trkpt lat="43.69482961593259" lon="11.791383159097048"><ele>338.0</ele><time>2026-05-04T15:01:15Z</time></trkpt><trkpt lat="43.69490552643199" lon="11.791349153949911"><ele>338.0</ele><time>2026-05-04T15:01:16Z</time></trkpt><trkpt lat="43.69497475316713" lon="11.791320938668736"><ele>338.0</ele><time>2026-05-04T15:01:17Z</time></trkpt><trkpt lat="43.69504342720728" lon="11.791292881330218"><ele>338.0</ele><time>2026-05-04T15:01:18Z</time></trkpt><trkpt lat="43.695106982205694" lon="11.791259130497155"><ele>338.0</ele><time>2026-05-04T15:01:19Z</time></trkpt><trkpt lat="43.69517248354238" lon="11.791224003100421"><ele>338.0</ele><time>2026-05-04T15:01:20Z</time></trkpt><trkpt lat="43.695232806129354" lon="11.791182064185495"><ele>338.0</ele><time>2026-05-04T15:01:21Z</time></trkpt><trkpt lat="43.69530947000717" lon="11.79117206727057"><ele>338.0</ele><time>2026-05-04T15:01:22.999Z</time></trkpt><trkpt lat="43.69532216076601" lon="11.791073125230946"><ele>338.2</ele><time>2026-05-04T15:01:23.999Z</time></trkpt><trkpt lat="43.69536292593405" lon="11.790986770495463"><ele>338.4</ele><time>2026-05-04T15:01:25.999Z</time></trkpt><trkpt lat="43.69543170551695" lon="11.790872585361754"><ele>338.59999999999997</ele><time>2026-05-04T15:01:28.999Z</time></trkpt><trkpt lat="43.695454050778885" lon="11.790774514107207"><ele>338.79999999999995</ele><time>2026-05-04T15:01:30.999Z</time></trkpt><trkpt lat="43.69543152237545" lon="11.790635877505643"><ele>339.0</ele><time>2026-05-04T15:01:32.999Z</time></trkpt><trkpt lat="43.69545734233332" lon="11.790473662659775"><ele>339.0</ele><time>2026-05-04T15:01:34.999Z</time></trkpt><trkpt lat="43.69548224027712" lon="11.790347631683376"><ele>339.0</ele><time>2026-05-04T15:01:36.999Z</time></trkpt><trkpt lat="43.695516902284126" lon="11.790255427314927"><ele>339.0</ele><time>2026-05-04T15:01:41.999Z</time></trkpt><trkpt lat="43.6955390428995" lon="11.790172872486323"><ele>339.0</ele><time>2026-05-04T15:01:42.999Z</time></trkpt><trkpt lat="43.6955765578959" lon="11.790069944936127"><ele>339.0</ele><time>2026-05-04T15:01:43.999Z</time></trkpt><trkpt lat="43.69559492360453" lon="11.789955356840839"><ele>339.0</ele><time>2026-05-04T15:01:44.999Z</time></trkpt><trkpt lat="43.69560836574805" lon="11.789823223344023"><ele>340.79999999999995</ele><time>2026-05-04T15:01:45.999Z</time></trkpt><trkpt lat="43.695616108717154" lon="11.789659233260872"><ele>342.59999999999997</ele><time>2026-05-04T15:01:46.999Z</time></trkpt><trkpt lat="43.69564104453387" lon="11.789517664895612"><ele>344.4</ele><time>2026-05-04T15:01:47.999Z</time></trkpt><trkpt lat="43.695649425075395" lon="11.789382803631293"><ele>346.2</ele><time>2026-05-04T15:01:48.999Z</time></trkpt><trkpt lat="43.695686860615965" lon="11.78922386782347"><ele>348.0</ele><time>2026-05-04T15:01:49.999Z</time></trkpt><trkpt lat="43.695734558693175" lon="11.789044141903984"><ele>350.25</ele><time>2026-05-04T15:01:50.999Z</time></trkpt><trkpt lat="43.695765762912906" lon="11.78884292665559"><ele>352.5</ele><time>2026-05-04T15:01:51.999Z</time></trkpt><trkpt lat="43.69579802379587" lon="11.788715749141451"><ele>354.75</ele><time>2026-05-04T15:01:52.999Z</time></trkpt><trkpt lat="43.695812366964326" lon="11.788579954317392"><ele>357.0</ele><time>2026-05-04T15:01:54Z</time></trkpt><trkpt lat="43.69582754589207" lon="11.78841228291819"><ele>358.25</ele><time>2026-05-04T15:01:55Z</time></trkpt><trkpt lat="43.695868250690005" lon="11.78820441718602"><ele>359.5</ele><time>2026-05-04T15:01:56Z</time></trkpt><trkpt lat="43.69589771600768" lon="11.78801452226108"><ele>360.75</ele><time>2026-05-04T15:01:57Z</time></trkpt><trkpt lat="43.69592156549599" lon="11.787883801850851"><ele>362.0</ele><time>2026-05-04T15:01:58Z</time></trkpt><trkpt lat="43.695945360149736" lon="11.787779685814998"><ele>362.33333333333337</ele><time>2026-05-04T15:01:59Z</time></trkpt><trkpt lat="43.69600451549487" lon="11.787612485805338"><ele>362.6666666666667</ele><time>2026-05-04T15:02:01Z</time></trkpt><trkpt lat="43.69604401072222" lon="11.787508053725228"><ele>363.0</ele><time>2026-05-04T15:02:02Z</time></trkpt><trkpt lat="43.69608412910096" lon="11.78739449414556"><ele>363.3333333333333</ele><time>2026-05-04T15:02:03Z</time></trkpt><trkpt lat="43.69611198559802" lon="11.7873141655525"><ele>363.66666666666663</ele><time>2026-05-04T15:02:04Z</time></trkpt><trkpt lat="43.69614193974832" lon="11.787229601740663"><ele>364.0</ele><time>2026-05-04T15:02:05Z</time></trkpt><trkpt lat="43.69617951865586" lon="11.787124472917803"><ele>364.0</ele><time>2026-05-04T15:02:07Z</time></trkpt><trkpt lat="43.6962323137761" lon="11.786979115177092"><ele>364.0</ele><time>2026-05-04T15:02:09Z</time></trkpt><trkpt lat="43.69626470081828" lon="11.786891034173788"><ele>364.0</ele><time>2026-05-04T15:02:10Z</time></trkpt><trkpt lat="43.69629633973028" lon="11.786804987829886"><ele>364.0</ele><time>2026-05-04T15:02:11Z</time></trkpt><trkpt lat="43.69632890984341" lon="11.78671640634582"><ele>364.0</ele><time>2026-05-04T15:02:12Z</time></trkpt><trkpt lat="43.696363341271116" lon="11.786622759904835"><ele>364.0</ele><time>2026-05-04T15:02:13Z</time></trkpt><trkpt lat="43.69639512196212" lon="11.786536322927759"><ele>366.3333333333333</ele><time>2026-05-04T15:02:14Z</time></trkpt><trkpt lat="43.696434679556596" lon="11.786428734356665"><ele>368.6666666666667</ele><time>2026-05-04T15:02:15Z</time></trkpt><trkpt lat="43.69646996721226" lon="11.786332759143704"><ele>371.0</ele><time>2026-05-04T15:02:16Z</time></trkpt><trkpt lat="43.696260511142995" lon="11.786062399086358"><ele>371.1666666666667</ele><time>2026-05-04T15:02:17Z</time></trkpt><trkpt lat="43.69627253706953" lon="11.785939215462278"><ele>371.33333333333337</ele><time>2026-05-04T15:02:18Z</time></trkpt><trkpt lat="43.69628129356885" lon="11.78583331675542"><ele>371.5</ele><time>2026-05-04T15:02:19Z</time></trkpt><trkpt lat="43.696293218503925" lon="11.785704670082547"><ele>371.6666666666667</ele><time>2026-05-04T15:02:20Z</time></trkpt><trkpt lat="43.69629897703343" lon="11.785581122173074"><ele>371.8333333333333</ele><time>2026-05-04T15:02:21Z</time></trkpt><trkpt lat="43.696288433304765" lon="11.785451399119422"><ele>372.0</ele><time>2026-05-04T15:02:22Z</time></trkpt><trkpt lat="43.69627785043902" lon="11.78531773371441"><ele>372.0</ele><time>2026-05-04T15:02:23Z</time></trkpt><trkpt lat="43.696276136127864" lon="11.785179412304966"><ele>372.0</ele><time>2026-05-04T15:02:24Z</time></trkpt><trkpt lat="43.69627716796758" lon="11.785073184177774"><ele>372.0</ele><time>2026-05-04T15:02:25Z</time></trkpt><trkpt lat="43.696282602499274" lon="11.784960855907638"><ele>372.0</ele><time>2026-05-04T15:02:26Z</time></trkpt><trkpt lat="43.69628289528713" lon="11.784843775600212"><ele>372.0</ele><time>2026-05-04T15:02:27Z</time></trkpt><trkpt lat="43.6962850707888" lon="11.784743596271287"><ele>372.0</ele><time>2026-05-04T15:02:28Z</time></trkpt><trkpt lat="43.69626948732673" lon="11.78458478942257"><ele>373.6</ele><time>2026-05-04T15:02:30Z</time></trkpt><trkpt lat="43.69626449481662" lon="11.78446912196265"><ele>375.20000000000005</ele><time>2026-05-04T15:02:31Z</time></trkpt><trkpt lat="43.69627383590895" lon="11.784337931968405"><ele>376.8</ele><time>2026-05-04T15:02:32Z</time></trkpt><trkpt lat="43.69629419664286" lon="11.784214259841903"><ele>378.4</ele><time>2026-05-04T15:02:33Z</time></trkpt><trkpt lat="43.69631085453506" lon="11.784073119844583"><ele>380.0</ele><time>2026-05-04T15:02:34Z</time></trkpt><trkpt lat="43.69633034897093" lon="11.7839303490879"><ele>381.4</ele><time>2026-05-04T15:02:35Z</time></trkpt><trkpt lat="43.696362363381496" lon="11.783789894216882"><ele>382.8</ele><time>2026-05-04T15:02:36Z</time></trkpt><trkpt lat="43.69637245601965" lon="11.783647556375252"><ele>384.20000000000005</ele><time>2026-05-04T15:02:37Z</time></trkpt><trkpt lat="43.69638087693655" lon="11.783487888299756"><ele>385.6</ele><time>2026-05-04T15:02:38Z</time></trkpt><trkpt lat="43.69637460392113" lon="11.783328852484262"><ele>387.0</ele><time>2026-05-04T15:02:39Z</time></trkpt><trkpt lat="43.69638100396035" lon="11.783175750498533"><ele>387.75</ele><time>2026-05-04T15:02:40Z</time></trkpt><trkpt lat="43.696379917183144" lon="11.78303287060747"><ele>388.5</ele><time>2026-05-04T15:02:41Z</time></trkpt><trkpt lat="43.6963754919666" lon="11.782862157361796"><ele>389.25</ele><time>2026-05-04T15:02:42Z</time></trkpt><trkpt lat="43.696375988364" lon="11.782681693359088"><ele>390.0</ele><time>2026-05-04T15:02:43Z</time></trkpt><trkpt lat="43.69634799628949" lon="11.78253295777351"><ele>390.8</ele><time>2026-05-04T15:02:44Z</time></trkpt><trkpt lat="43.69632512705938" lon="11.782368836819508"><ele>391.6</ele><time>2026-05-04T15:02:45Z</time></trkpt><trkpt lat="43.69631684324516" lon="11.782211050715333"><ele>392.4</ele><time>2026-05-04T15:02:46Z</time></trkpt><trkpt lat="43.69630057765173" lon="11.782070443299485"><ele>393.2</ele><time>2026-05-04T15:02:47Z</time></trkpt><trkpt lat="43.69628694488572" lon="11.781952595264183"><ele>394.0</ele><time>2026-05-04T15:02:48Z</time></trkpt><trkpt lat="43.69627407507539" lon="11.781841342569772"><ele>394.6</ele><time>2026-05-04T15:02:49Z</time></trkpt><trkpt lat="43.69626249412608" lon="11.781741231414582"><ele>395.2</ele><time>2026-05-04T15:02:50Z</time></trkpt><trkpt lat="43.6962500039127" lon="11.781633260135942"><ele>395.8</ele><time>2026-05-04T15:02:51Z</time></trkpt><trkpt lat="43.69623204214825" lon="11.781477990203696"><ele>396.40000000000003</ele><time>2026-05-04T15:02:53Z</time></trkpt><trkpt lat="43.696214946632196" lon="11.781325936801485"><ele>397.0</ele><time>2026-05-04T15:02:55Z</time></trkpt><trkpt lat="43.69619506445651" lon="11.781144819020962"><ele>397.0</ele><time>2026-05-04T15:02:57Z</time></trkpt><trkpt lat="43.6961846713281" lon="11.781046575675346"><ele>397.0</ele><time>2026-05-04T15:02:58Z</time></trkpt><trkpt lat="43.69615526403065" lon="11.780915588295578"><ele>397.0</ele><time>2026-05-04T15:03:00Z</time></trkpt><trkpt lat="43.696224971973905" lon="11.780862086134341"><ele>397.0</ele><time>2026-05-04T15:03:09Z</time></trkpt><trkpt lat="43.696340655432046" lon="11.780806112588982"><ele>397.0</ele><time>2026-05-04T15:03:11Z</time></trkpt><trkpt lat="43.69644448037388" lon="11.780751466437845"><ele>397.00000000000006</ele><time>2026-05-04T15:03:13Z</time></trkpt><trkpt lat="43.69651542622989" lon="11.780745427157743"><ele>397.0</ele><time>2026-05-04T15:03:14Z</time></trkpt><trkpt lat="43.696611592732424" lon="11.780833499354248"><ele>397.0</ele><time>2026-05-04T15:03:16Z</time></trkpt><trkpt lat="43.696642746817304" lon="11.780920000231676"><ele>397.0</ele><time>2026-05-04T15:03:17Z</time></trkpt><trkpt lat="43.696658039856146" lon="11.781026487582677"><ele>397.00000000000006</ele><time>2026-05-04T15:03:18Z</time></trkpt><trkpt lat="43.69665838881562" lon="11.781141978595144"><ele>397.0</ele><time>2026-05-04T15:03:19Z</time></trkpt><trkpt lat="43.696651984476375" lon="11.7812672077799"><ele>397.0</ele><time>2026-05-04T15:03:20Z</time></trkpt><trkpt lat="43.69664481138944" lon="11.781403697871465"><ele>397.0</ele><time>2026-05-04T15:03:21Z</time></trkpt><trkpt lat="43.69664480742425" lon="11.781541439303354"><ele>397.0</ele><time>2026-05-04T15:03:22Z</time></trkpt><trkpt lat="43.69664695025147" lon="11.781679113236642"><ele>397.0</ele><time>2026-05-04T15:03:23Z</time></trkpt><trkpt lat="43.69665483485691" lon="11.781811903959397"><ele>397.0</ele><time>2026-05-04T15:03:24Z</time></trkpt><trkpt lat="43.696668472322635" lon="11.781937899573142"><ele>397.00000000000006</ele><time>2026-05-04T15:03:25Z</time></trkpt><trkpt lat="43.6966878677276" lon="11.782042438910185"><ele>397.0</ele><time>2026-05-04T15:03:26Z</time></trkpt><trkpt lat="43.69672936538488" lon="11.782143503000876"><ele>397.0</ele><time>2026-05-04T15:03:27Z</time></trkpt><trkpt lat="43.69678924265119" lon="11.78221944078357"><ele>397.0</ele><time>2026-05-04T15:03:28Z</time></trkpt><trkpt lat="43.69685227899785" lon="11.782264384708801"><ele>397.00000000000006</ele><time>2026-05-04T15:03:28.999Z</time></trkpt><trkpt lat="43.69692704096437" lon="11.782266978206556"><ele>397.0</ele><time>2026-05-04T15:03:29.999Z</time></trkpt><trkpt lat="43.69701224616791" lon="11.782257145476624"><ele>397.00000000000006</ele><time>2026-05-04T15:03:30.999Z</time></trkpt><trkpt lat="43.69711283392613" lon="11.782267794837523"><ele>397.0</ele><time>2026-05-04T15:03:32.999Z</time></trkpt><trkpt lat="43.69720296040581" lon="11.782251051034672"><ele>397.0</ele><time>2026-05-04T15:03:34.999Z</time></trkpt><trkpt lat="43.69727218649793" lon="11.782235725605323"><ele>397.0</ele><time>2026-05-04T15:03:35.999Z</time></trkpt><trkpt lat="43.697348144374416" lon="11.78225267562074"><ele>397.00000000000006</ele><time>2026-05-04T15:03:36.999Z</time></trkpt><trkpt lat="43.697430719736396" lon="11.782246539513462"><ele>397.0</ele><time>2026-05-04T15:03:37.999Z</time></trkpt><trkpt lat="43.69750763543499" lon="11.782237369837077"><ele>397.0</ele><time>2026-05-04T15:03:38.999Z</time></trkpt><trkpt lat="43.69757622436041" lon="11.7822013625251"><ele>397.0</ele><time>2026-05-04T15:03:40.999Z</time></trkpt><trkpt lat="43.6975129485589" lon="11.782236283216033"><ele>397.0</ele><time>2026-05-04T15:03:46.999Z</time></trkpt><trkpt lat="43.69743286886622" lon="11.78224837291361"><ele>397.0</ele><time>2026-05-04T15:03:47.999Z</time></trkpt><trkpt lat="43.69736335782137" lon="11.782212069294415"><ele>397.0</ele><time>2026-05-04T15:03:48.999Z</time></trkpt><trkpt lat="43.697288544758514" lon="11.782215550027408"><ele>397.0</ele><time>2026-05-04T15:03:49.999Z</time></trkpt><trkpt lat="43.697212108873" lon="11.782225138626616"><ele>397.0</ele><time>2026-05-04T15:03:50.999Z</time></trkpt><trkpt lat="43.697145071621634" lon="11.782229932267713"><ele>397.00000000000006</ele><time>2026-05-04T15:03:51.999Z</time></trkpt><trkpt lat="43.69706225248747" lon="11.782215778718394"><ele>397.0</ele><time>2026-05-04T15:03:53.999Z</time></trkpt><trkpt lat="43.69701633888303" lon="11.782143544006502"><ele>397.0</ele><time>2026-05-04T15:03:55.999Z</time></trkpt><trkpt lat="43.697129082496254" lon="11.782047845052604"><ele>397.0</ele><time>2026-05-04T15:03:57.999Z</time></trkpt><trkpt lat="43.69717503736227" lon="11.781983828764961"><ele>397.00000000000006</ele><time>2026-05-04T15:04:00.999Z</time></trkpt><trkpt lat="43.6972092503239" lon="11.781906179607093"><ele>397.0</ele><time>2026-05-04T15:04:01.999Z</time></trkpt><trkpt lat="43.69726683933678" lon="11.781859356779051"><ele>398.6666666666667</ele><time>2026-05-04T15:04:02.999Z</time></trkpt><trkpt lat="43.69735742420966" lon="11.781735158672372"><ele>400.33333333333337</ele><time>2026-05-04T15:04:04.999Z</time></trkpt><trkpt lat="43.69740848926172" lon="11.781662748639793"><ele>402.0</ele><time>2026-05-04T15:04:05.999Z</time></trkpt><trkpt lat="43.69744763148479" lon="11.781571422852762"><ele>403.66666666666663</ele><time>2026-05-04T15:04:06.999Z</time></trkpt><trkpt lat="43.69749637088" lon="11.781501477295715"><ele>405.3333333333333</ele><time>2026-05-04T15:04:07.999Z</time></trkpt><trkpt lat="43.69754094913469" lon="11.781434015946104"><ele>407.0</ele><time>2026-05-04T15:04:08.999Z</time></trkpt><trkpt lat="43.697586424195435" lon="11.78137173789425"><ele>406.99999999999994</ele><time>2026-05-04T15:04:09.999Z</time></trkpt><trkpt lat="43.69762814807347" lon="11.781304728946386"><ele>407.0</ele><time>2026-05-04T15:04:10.999Z</time></trkpt><trkpt lat="43.697671894203715" lon="11.781238665779819"><ele>407.0</ele><time>2026-05-04T15:04:11.999Z</time></trkpt><trkpt lat="43.69772416412803" lon="11.78118548737474"><ele>407.0</ele><time>2026-05-04T15:04:12.999Z</time></trkpt><trkpt lat="43.69774678416084" lon="11.781101621631667"><ele>406.99999999999994</ele><time>2026-05-04T15:04:13.999Z</time></trkpt><trkpt lat="43.69782391058787" lon="11.78098611389403"><ele>407.0</ele><time>2026-05-04T15:04:16Z</time></trkpt><trkpt lat="43.69792751620503" lon="11.780894397880314"><ele>408.3333333333333</ele><time>2026-05-04T15:04:18Z</time></trkpt><trkpt lat="43.697996950852385" lon="11.78081963189475"><ele>409.66666666666663</ele><time>2026-05-04T15:04:21Z</time></trkpt><trkpt lat="43.697945202918376" lon="11.780676013376484"><ele>411.0</ele><time>2026-05-04T15:05:08Z</time></trkpt><trkpt lat="43.69790275486177" lon="11.780751441203527"><ele>412.33333333333337</ele><time>2026-05-04T15:05:12Z</time></trkpt><trkpt lat="43.69797724862909" lon="11.780781156062886"><ele>413.6666666666667</ele><time>2026-05-04T15:05:15Z</time></trkpt><trkpt lat="43.698038284059244" lon="11.780704640750205"><ele>415.0</ele><time>2026-05-04T15:05:18Z</time></trkpt><trkpt lat="43.6980570247372" lon="11.780597761242523"><ele>415.00000000000006</ele><time>2026-05-04T15:05:20Z</time></trkpt><trkpt lat="43.69807448023351" lon="11.780491952744592"><ele>415.0</ele><time>2026-05-04T15:05:22Z</time></trkpt><trkpt lat="43.69810378710403" lon="11.780393502588446"><ele>415.0</ele><time>2026-05-04T15:05:24Z</time></trkpt><trkpt lat="43.6981235694372" lon="11.780310819345159"><ele>415.0</ele><time>2026-05-04T15:05:26Z</time></trkpt><trkpt lat="43.69815347650347" lon="11.78017706974215"><ele>415.00000000000006</ele><time>2026-05-04T15:05:29Z</time></trkpt><trkpt lat="43.69817454026221" lon="11.7800483100879"><ele>415.0</ele><time>2026-05-04T15:05:31Z</time></trkpt><trkpt lat="43.69818247826113" lon="11.77995927611312"><ele>416.0</ele><time>2026-05-04T15:05:34Z</time></trkpt><trkpt lat="43.69817888139896" lon="11.779828643412001"><ele>417.0</ele><time>2026-05-04T15:05:46.999Z</time></trkpt><trkpt lat="43.698140381630225" lon="11.779695597208994"><ele>418.0</ele><time>2026-05-04T15:05:48.999Z</time></trkpt><trkpt lat="43.6980937669447" lon="11.779572750107613"><ele>419.0</ele><time>2026-05-04T15:05:50.999Z</time></trkpt><trkpt lat="43.6980397498751" lon="11.779481269925862"><ele>420.0</ele><time>2026-05-04T15:05:52.999Z</time></trkpt><trkpt lat="43.69800598341516" lon="11.77938586105094"><ele>421.1666666666667</ele><time>2026-05-04T15:05:54.999Z</time></trkpt><trkpt lat="43.698013155767285" lon="11.779298935806656"><ele>422.33333333333337</ele><time>2026-05-04T15:06:01.999Z</time></trkpt><trkpt lat="43.698079287619265" lon="11.779193645474999"><ele>423.5</ele><time>2026-05-04T15:06:03.999Z</time></trkpt><trkpt lat="43.698110213816776" lon="11.77911231422803"><ele>424.6666666666667</ele><time>2026-05-04T15:06:04.999Z</time></trkpt><trkpt lat="43.69809307003889" lon="11.778978671500893"><ele>425.83333333333337</ele><time>2026-05-04T15:06:06.999Z</time></trkpt><trkpt lat="43.69806581114259" lon="11.77889417193338"><ele>427.0</ele><time>2026-05-04T15:06:10Z</time></trkpt><trkpt lat="43.69806443084313" lon="11.77877295781962"><ele>427.0</ele><time>2026-05-04T15:06:12Z</time></trkpt><trkpt lat="43.69806648424639" lon="11.77865903017378"><ele>427.00000000000006</ele><time>2026-05-04T15:06:14Z</time></trkpt><trkpt lat="43.69806112491256" lon="11.778547058238663"><ele>427.00000000000006</ele><time>2026-05-04T15:06:16Z</time></trkpt><trkpt lat="43.698083510706766" lon="11.778405841387677"><ele>427.0</ele><time>2026-05-04T15:06:18Z</time></trkpt><trkpt lat="43.69813932048325" lon="11.778295200989207"><ele>427.0</ele><time>2026-05-04T15:06:20Z</time></trkpt><trkpt lat="43.69820722089475" lon="11.778207536549044"><ele>429.83333333333337</ele><time>2026-05-04T15:06:22Z</time></trkpt><trkpt lat="43.69825732281799" lon="11.778130275412758"><ele>432.6666666666667</ele><time>2026-05-04T15:06:23Z</time></trkpt><trkpt lat="43.69832085573549" lon="11.778001415481127"><ele>435.5</ele><time>2026-05-04T15:06:25Z</time></trkpt><trkpt lat="43.69841136995761" lon="11.777906119521319"><ele>438.33333333333337</ele><time>2026-05-04T15:06:27Z</time></trkpt><trkpt lat="43.69845761837563" lon="11.777846376237678"><ele>441.1666666666667</ele><time>2026-05-04T15:06:28Z</time></trkpt><trkpt lat="43.698491351711766" lon="11.777748894203944"><ele>444.0</ele><time>2026-05-04T15:06:30Z</time></trkpt><trkpt lat="43.698454400234105" lon="11.777650749485975"><ele>446.5</ele><time>2026-05-04T15:06:33Z</time></trkpt><trkpt lat="43.69837789716631" lon="11.777642402367972"><ele>449.0</ele><time>2026-05-04T15:06:43Z</time></trkpt><trkpt lat="43.698310009861395" lon="11.777552713456492"><ele>451.5</ele><time>2026-05-04T15:06:45Z</time></trkpt><trkpt lat="43.69824528258968" lon="11.777491074730552"><ele>454.0</ele><time>2026-05-04T15:06:47Z</time></trkpt><trkpt lat="43.69819605009159" lon="11.777560228793513"><ele>456.5</ele><time>2026-05-04T15:06:49Z</time></trkpt><trkpt lat="43.69812695370386" lon="11.777599210092559"><ele>459.0</ele><time>2026-05-04T15:06:51Z</time></trkpt><trkpt lat="43.698042762459934" lon="11.777580503860857"><ele>459.0</ele><time>2026-05-04T15:06:54Z</time></trkpt><trkpt lat="43.69801262724008" lon="11.777474696941434"><ele>459.0</ele><time>2026-05-04T15:06:57Z</time></trkpt><trkpt lat="43.69798348786151" lon="11.777361242884007"><ele>459.0</ele><time>2026-05-04T15:07:01Z</time></trkpt><trkpt lat="43.69802098634049" lon="11.777288186789583"><ele>459.0</ele><time>2026-05-04T15:07:04Z</time></trkpt><trkpt lat="43.698071880796256" lon="11.777213873207126"><ele>459.0</ele><time>2026-05-04T15:07:20Z</time></trkpt><trkpt lat="43.698155743384675" lon="11.777109606600549"><ele>459.0</ele><time>2026-05-04T15:07:22Z</time></trkpt><trkpt lat="43.698218865590775" lon="11.776973257852227"><ele>459.0</ele><time>2026-05-04T15:07:24Z</time></trkpt><trkpt lat="43.69829336087175" lon="11.77688840221894"><ele>459.0</ele><time>2026-05-04T15:07:26Z</time></trkpt><trkpt lat="43.69838303107897" lon="11.776807568348103"><ele>459.0</ele><time>2026-05-04T15:07:28Z</time></trkpt><trkpt lat="43.698431430637626" lon="11.776658509818471"><ele>459.0</ele><time>2026-05-04T15:07:30Z</time></trkpt><trkpt lat="43.69846267825039" lon="11.776560071879967"><ele>459.0</ele><time>2026-05-04T15:07:31Z</time></trkpt><trkpt lat="43.69849810678765" lon="11.7764022547043"><ele>460.0</ele><time>2026-05-04T15:07:33Z</time></trkpt><trkpt lat="43.698522649115105" lon="11.77629190500459"><ele>461.0</ele><time>2026-05-04T15:07:35Z</time></trkpt><trkpt lat="43.69856547973261" lon="11.77620250371091"><ele>462.0</ele><time>2026-05-04T15:07:37Z</time></trkpt><trkpt lat="43.69860426584258" lon="11.776066471498996"><ele>463.0</ele><time>2026-05-04T15:07:39Z</time></trkpt><trkpt lat="43.6986430091522" lon="11.775936723070556"><ele>464.0</ele><time>2026-05-04T15:07:41Z</time></trkpt><trkpt lat="43.698698162696694" lon="11.775877136791623"><ele>465.0</ele><time>2026-05-04T15:07:43Z</time></trkpt><trkpt lat="43.69876628160505" lon="11.775863393629775"><ele>467.5</ele><time>2026-05-04T15:07:45Z</time></trkpt><trkpt lat="43.69886796068025" lon="11.775876653657873"><ele>470.0</ele><time>2026-05-04T15:07:47Z</time></trkpt><trkpt lat="43.698901472268766" lon="11.775784185876985"><ele>472.5</ele><time>2026-05-04T15:07:49Z</time></trkpt><trkpt lat="43.69890965153348" lon="11.775694055063752"><ele>475.0</ele><time>2026-05-04T15:07:51Z</time></trkpt><trkpt lat="43.69896400384414" lon="11.77564765135539"><ele>477.5</ele><time>2026-05-04T15:07:52.999Z</time></trkpt><trkpt lat="43.69900568420207" lon="11.775554404447135"><ele>480.0</ele><time>2026-05-04T15:07:55.999Z</time></trkpt><trkpt lat="43.69902030796716" lon="11.775459873370307"><ele>480.0</ele><time>2026-05-04T15:07:57.999Z</time></trkpt><trkpt lat="43.69903243444476" lon="11.775346580739432"><ele>480.0</ele><time>2026-05-04T15:08:00Z</time></trkpt><trkpt lat="43.699025736939426" lon="11.775225357588287"><ele>480.0</ele><time>2026-05-04T15:08:02Z</time></trkpt><trkpt lat="43.699027766760906" lon="11.775094448321818"><ele>480.0</ele><time>2026-05-04T15:08:04Z</time></trkpt><trkpt lat="43.69903661882224" lon="11.774992222225949"><ele>480.0</ele><time>2026-05-04T15:08:05Z</time></trkpt><trkpt lat="43.69904664294768" lon="11.77487699173165"><ele>480.0</ele><time>2026-05-04T15:08:06Z</time></trkpt><trkpt lat="43.699055440386395" lon="11.774775847123255"><ele>480.0</ele><time>2026-05-04T15:08:07Z</time></trkpt><trkpt lat="43.69906737907479" lon="11.774636891973874"><ele>480.0</ele><time>2026-05-04T15:08:09Z</time></trkpt><trkpt lat="43.69906625828153" lon="11.77452359387617"><ele>480.0</ele><time>2026-05-04T15:08:11Z</time></trkpt><trkpt lat="43.6990402965757" lon="11.774410235289192"><ele>480.0</ele><time>2026-05-04T15:08:13Z</time></trkpt><trkpt lat="43.699029856990805" lon="11.774288506056706"><ele>480.0</ele><time>2026-05-04T15:08:15Z</time></trkpt><trkpt lat="43.6990135344023" lon="11.774158607003175"><ele>481.8333333333333</ele><time>2026-05-04T15:08:17Z</time></trkpt><trkpt lat="43.69897368511648" lon="11.774047929386976"><ele>483.66666666666663</ele><time>2026-05-04T15:08:19Z</time></trkpt><trkpt lat="43.698943756682844" lon="11.773939699834497"><ele>485.5</ele><time>2026-05-04T15:08:22Z</time></trkpt><trkpt lat="43.698944419793555" lon="11.773820943541308"><ele>487.3333333333333</ele><time>2026-05-04T15:08:24Z</time></trkpt><trkpt lat="43.698937105973904" lon="11.773706186755758"><ele>489.16666666666663</ele><time>2026-05-04T15:08:26Z</time></trkpt><trkpt lat="43.69889592103969" lon="11.773587088575033"><ele>491.0</ele><time>2026-05-04T15:08:28Z</time></trkpt><trkpt lat="43.69888737183085" lon="11.77347724550536"><ele>492.85714285714283</ele><time>2026-05-04T15:08:30Z</time></trkpt><trkpt lat="43.69890219263159" lon="11.773374480243074"><ele>494.71428571428567</ele><time>2026-05-04T15:08:33Z</time></trkpt><trkpt lat="43.69888286952853" lon="11.773265961045976"><ele>496.57142857142856</ele><time>2026-05-04T15:08:35Z</time></trkpt><trkpt lat="43.69885884106432" lon="11.773183367835813"><ele>498.42857142857144</ele><time>2026-05-04T15:08:38Z</time></trkpt><trkpt lat="43.69886572735725" lon="11.773090123986542"><ele>500.2857142857143</ele><time>2026-05-04T15:08:40Z</time></trkpt><trkpt lat="43.69889392702804" lon="11.772997144276811"><ele>502.1428571428571</ele><time>2026-05-04T15:08:43Z</time></trkpt><trkpt lat="43.698853697916356" lon="11.772901970874768"><ele>504.0</ele><time>2026-05-04T15:09:00Z</time></trkpt><trkpt lat="43.69882290107987" lon="11.772818317304264"><ele>504.5</ele><time>2026-05-04T15:09:02Z</time></trkpt><trkpt lat="43.698821706444576" lon="11.772681074561357"><ele>505.0</ele><time>2026-05-04T15:09:04Z</time></trkpt><trkpt lat="43.69880257836452" lon="11.77259291731557"><ele>505.5</ele><time>2026-05-04T15:09:05Z</time></trkpt><trkpt lat="43.69877488080026" lon="11.772490911476039"><ele>506.0</ele><time>2026-05-04T15:09:06Z</time></trkpt><trkpt lat="43.698752299380075" lon="11.772380031980054"><ele>506.5</ele><time>2026-05-04T15:09:07Z</time></trkpt><trkpt lat="43.69875127537776" lon="11.772271657737353"><ele>507.0</ele><time>2026-05-04T15:09:08Z</time></trkpt><trkpt lat="43.69877743781469" lon="11.772109831394486"><ele>507.0</ele><time>2026-05-04T15:09:10Z</time></trkpt><trkpt lat="43.69875723722139" lon="11.772021237087314"><ele>507.0</ele><time>2026-05-04T15:09:11Z</time></trkpt><trkpt lat="43.69871755856068" lon="11.77195152905562"><ele>507.0</ele><time>2026-05-04T15:09:12Z</time></trkpt><trkpt lat="43.69869618694619" lon="11.771786360414115"><ele>507.0</ele><time>2026-05-04T15:09:14Z</time></trkpt><trkpt lat="43.69871104466448" lon="11.771689388609653"><ele>507.0</ele><time>2026-05-04T15:09:15Z</time></trkpt><trkpt lat="43.698697659578066" lon="11.771545186015043"><ele>507.0</ele><time>2026-05-04T15:09:17Z</time></trkpt><trkpt lat="43.69863076552376" lon="11.771415505273625"><ele>507.5</ele><time>2026-05-04T15:09:19Z</time></trkpt><trkpt lat="43.69860076556968" lon="11.771310245085235"><ele>508.0</ele><time>2026-05-04T15:09:21Z</time></trkpt><trkpt lat="43.698590740477684" lon="11.771188220995175"><ele>508.5</ele><time>2026-05-04T15:09:23Z</time></trkpt><trkpt lat="43.69857781563632" lon="11.771079801182408"><ele>509.0</ele><time>2026-05-04T15:09:25Z</time></trkpt><trkpt lat="43.69854048518532" lon="11.770965230845244"><ele>509.5</ele><time>2026-05-04T15:09:27Z</time></trkpt><trkpt lat="43.69849609698067" lon="11.770856604147266"><ele>510.0</ele><time>2026-05-04T15:09:29Z</time></trkpt><trkpt lat="43.69845390798622" lon="11.770729131396903"><ele>509.4</ele><time>2026-05-04T15:09:31Z</time></trkpt><trkpt lat="43.69843813032435" lon="11.770608331656982"><ele>508.8</ele><time>2026-05-04T15:09:33Z</time></trkpt><trkpt lat="43.698405657048106" lon="11.770467211730034"><ele>508.20000000000005</ele><time>2026-05-04T15:09:35Z</time></trkpt><trkpt lat="43.69840141409757" lon="11.770350450890703"><ele>507.6</ele><time>2026-05-04T15:09:37Z</time></trkpt><trkpt lat="43.698373555627796" lon="11.770245267179074"><ele>507.0</ele><time>2026-05-04T15:09:39Z</time></trkpt><trkpt lat="43.698310279408" lon="11.770128912566637"><ele>507.0</ele><time>2026-05-04T15:09:41Z</time></trkpt><trkpt lat="43.69828654868393" lon="11.770036642106502"><ele>507.0</ele><time>2026-05-04T15:09:43Z</time></trkpt><trkpt lat="43.69831724464221" lon="11.76993153440989"><ele>507.0</ele><time>2026-05-04T15:09:45Z</time></trkpt><trkpt lat="43.69828845744952" lon="11.769797485858868"><ele>507.0</ele><time>2026-05-04T15:09:47Z</time></trkpt><trkpt lat="43.69827747273497" lon="11.769686090562239"><ele>507.0</ele><time>2026-05-04T15:09:49Z</time></trkpt><trkpt lat="43.69830980665804" lon="11.769573608792813"><ele>507.0</ele><time>2026-05-04T15:09:51Z</time></trkpt><trkpt lat="43.698343611425365" lon="11.769441293163062"><ele>505.8</ele><time>2026-05-04T15:09:53Z</time></trkpt><trkpt lat="43.698374447058406" lon="11.769281982440631"><ele>504.6</ele><time>2026-05-04T15:09:55Z</time></trkpt><trkpt lat="43.698425508307345" lon="11.76914044329637"><ele>503.40000000000003</ele><time>2026-05-04T15:09:57Z</time></trkpt><trkpt lat="43.69847651237513" lon="11.769052106326688"><ele>502.20000000000005</ele><time>2026-05-04T15:09:59Z</time></trkpt><trkpt lat="43.69852626510736" lon="11.768912545533672"><ele>501.0</ele><time>2026-05-04T15:10:01Z</time></trkpt><trkpt lat="43.69855806150832" lon="11.76882508689104"><ele>501.0</ele><time>2026-05-04T15:10:02Z</time></trkpt><trkpt lat="43.69858459451069" lon="11.768681830746015"><ele>501.0</ele><time>2026-05-04T15:10:04Z</time></trkpt><trkpt lat="43.698588729820884" lon="11.768504163037596"><ele>501.0</ele><time>2026-05-04T15:10:06Z</time></trkpt><trkpt lat="43.698560795530994" lon="11.768351623003863"><ele>501.0</ele><time>2026-05-04T15:10:08Z</time></trkpt><trkpt lat="43.69853729130001" lon="11.768265410993237"><ele>501.0</ele><time>2026-05-04T15:10:09Z</time></trkpt><trkpt lat="43.69850939995264" lon="11.768180546246915"><ele>501.3333333333333</ele><time>2026-05-04T15:10:10Z</time></trkpt><trkpt lat="43.69847493626912" lon="11.76809263110327"><ele>501.66666666666663</ele><time>2026-05-04T15:10:11Z</time></trkpt><trkpt lat="43.6984570460331" lon="11.768006500179636"><ele>502.0</ele><time>2026-05-04T15:10:12Z</time></trkpt><trkpt lat="43.698443169864426" lon="11.767912879226197"><ele>502.3333333333333</ele><time>2026-05-04T15:10:13Z</time></trkpt><trkpt lat="43.698434375956445" lon="11.767760747897338"><ele>502.66666666666663</ele><time>2026-05-04T15:10:15Z</time></trkpt><trkpt lat="43.698417864091" lon="11.76765373041111"><ele>503.0</ele><time>2026-05-04T15:10:17Z</time></trkpt><trkpt lat="43.69843330933458" lon="11.767529105716612"><ele>502.99999999999994</ele><time>2026-05-04T15:10:20Z</time></trkpt><trkpt lat="43.69843602905451" lon="11.767434923414871"><ele>503.0</ele><time>2026-05-04T15:10:22Z</time></trkpt><trkpt lat="43.69845160978085" lon="11.767262491991778"><ele>503.0</ele><time>2026-05-04T15:10:24Z</time></trkpt><trkpt lat="43.69845712982888" lon="11.767165225636488"><ele>503.0</ele><time>2026-05-04T15:10:25Z</time></trkpt><trkpt lat="43.698475586575896" lon="11.767047543887715"><ele>502.99999999999994</ele><time>2026-05-04T15:10:26Z</time></trkpt><trkpt lat="43.69849827624159" lon="11.766925440755307"><ele>503.0</ele><time>2026-05-04T15:10:27Z</time></trkpt><trkpt lat="43.69852691623262" lon="11.766818507912365"><ele>503.2</ele><time>2026-05-04T15:10:28Z</time></trkpt><trkpt lat="43.69856311134684" lon="11.7666969367577"><ele>503.4</ele><time>2026-05-04T15:10:29Z</time></trkpt><trkpt lat="43.6985988960898" lon="11.766580911855428"><ele>503.59999999999997</ele><time>2026-05-04T15:10:30Z</time></trkpt><trkpt lat="43.69862722469935" lon="11.766478337499102"><ele>503.79999999999995</ele><time>2026-05-04T15:10:31Z</time></trkpt><trkpt lat="43.698653416708716" lon="11.766383237852517"><ele>504.0</ele><time>2026-05-04T15:10:32Z</time></trkpt><trkpt lat="43.698708144645266" lon="11.766219367143663"><ele>502.6</ele><time>2026-05-04T15:10:34Z</time></trkpt><trkpt lat="43.69872381178607" lon="11.76611039136546"><ele>501.2</ele><time>2026-05-04T15:10:35Z</time></trkpt><trkpt lat="43.69872914755562" lon="11.765982578026854"><ele>499.80000000000007</ele><time>2026-05-04T15:10:36Z</time></trkpt><trkpt lat="43.69874158950357" lon="11.765860589222093"><ele>498.40000000000003</ele><time>2026-05-04T15:10:37Z</time></trkpt><trkpt lat="43.69876638523971" lon="11.765732037521559"><ele>497.0</ele><time>2026-05-04T15:10:38Z</time></trkpt><trkpt lat="43.698789331127365" lon="11.76559146887624"><ele>496.99999999999994</ele><time>2026-05-04T15:10:39Z</time></trkpt><trkpt lat="43.69883615864887" lon="11.765493691193553"><ele>497.0</ele><time>2026-05-04T15:10:40Z</time></trkpt><trkpt lat="43.69885457631993" lon="11.765372560453919"><ele>497.0</ele><time>2026-05-04T15:10:41Z</time></trkpt><trkpt lat="43.69887369353302" lon="11.765239172481767"><ele>497.0</ele><time>2026-05-04T15:10:42Z</time></trkpt><trkpt lat="43.69888928954634" lon="11.765117611141337"><ele>496.99999999999994</ele><time>2026-05-04T15:10:43Z</time></trkpt><trkpt lat="43.69888885804603" lon="11.76499666060476"><ele>497.0</ele><time>2026-05-04T15:10:44Z</time></trkpt><trkpt lat="43.69890555832135" lon="11.764893033248581"><ele>497.49999999999994</ele><time>2026-05-04T15:10:45Z</time></trkpt><trkpt lat="43.6989135862921" lon="11.764786999939213"><ele>498.0</ele><time>2026-05-04T15:10:46Z</time></trkpt><trkpt lat="43.69894966118869" lon="11.764713211985258"><ele>498.5</ele><time>2026-05-04T15:10:47Z</time></trkpt><trkpt lat="43.69902049844989" lon="11.76456193424943"><ele>499.0</ele><time>2026-05-04T15:10:49Z</time></trkpt><trkpt lat="43.69907262813311" lon="11.764488558901737"><ele>499.49999999999994</ele><time>2026-05-04T15:10:50Z</time></trkpt><trkpt lat="43.699127617651556" lon="11.764394230048968"><ele>500.0</ele><time>2026-05-04T15:10:51Z</time></trkpt><trkpt lat="43.699181001124245" lon="11.764331908117182"><ele>500.0</ele><time>2026-05-04T15:10:52Z</time></trkpt><trkpt lat="43.699209905500545" lon="11.764253828523858"><ele>500.0</ele><time>2026-05-04T15:10:53Z</time></trkpt><trkpt lat="43.69925501982976" lon="11.764082489989503"><ele>500.0</ele><time>2026-05-04T15:10:55Z</time></trkpt><trkpt lat="43.69927529734208" lon="11.763918252529258"><ele>500.0</ele><time>2026-05-04T15:10:57Z</time></trkpt><trkpt lat="43.69927986903271" lon="11.763829904439334"><ele>500.0</ele><time>2026-05-04T15:10:58Z</time></trkpt><trkpt lat="43.699280949405036" lon="11.763715923139086"><ele>500.0</ele><time>2026-05-04T15:10:59Z</time></trkpt><trkpt lat="43.6992816233395" lon="11.763582495883485"><ele>500.0</ele><time>2026-05-04T15:11:00Z</time></trkpt><trkpt lat="43.699272836842894" lon="11.763449214421646"><ele>500.0</ele><time>2026-05-04T15:11:01Z</time></trkpt><trkpt lat="43.699260565144435" lon="11.763289306004907"><ele>500.0</ele><time>2026-05-04T15:11:02Z</time></trkpt><trkpt lat="43.699264586886464" lon="11.7631395420053"><ele>500.0</ele><time>2026-05-04T15:11:03Z</time></trkpt><trkpt lat="43.69928627307759" lon="11.76301662322171"><ele>501.0</ele><time>2026-05-04T15:11:04Z</time></trkpt><trkpt lat="43.69931744170858" lon="11.762881031693311"><ele>502.0</ele><time>2026-05-04T15:11:05Z</time></trkpt><trkpt lat="43.69935670225186" lon="11.76269877059111"><ele>503.0</ele><time>2026-05-04T15:11:06Z</time></trkpt><trkpt lat="43.6993794208122" lon="11.762515498828156"><ele>504.0</ele><time>2026-05-04T15:11:07Z</time></trkpt><trkpt lat="43.69938284037814" lon="11.762360067524655"><ele>504.1666666666667</ele><time>2026-05-04T15:11:08Z</time></trkpt><trkpt lat="43.699386373057614" lon="11.762242615178936"><ele>504.33333333333337</ele><time>2026-05-04T15:11:09Z</time></trkpt><trkpt lat="43.69939367940697" lon="11.762149018166678"><ele>504.5</ele><time>2026-05-04T15:11:10Z</time></trkpt><trkpt lat="43.699401932138144" lon="11.762058027563498"><ele>504.6666666666667</ele><time>2026-05-04T15:11:11Z</time></trkpt><trkpt lat="43.69943238832097" lon="11.761954875723102"><ele>504.83333333333337</ele><time>2026-05-04T15:11:13Z</time></trkpt><trkpt lat="43.699461267844505" lon="11.761844365451365"><ele>505.0</ele><time>2026-05-04T15:11:15Z</time></trkpt><trkpt lat="43.699484485866506" lon="11.761702093792673"><ele>505.00000000000006</ele><time>2026-05-04T15:11:17Z</time></trkpt><trkpt lat="43.699540272603514" lon="11.761638954748184"><ele>505.0</ele><time>2026-05-04T15:11:18Z</time></trkpt><trkpt lat="43.69957285320744" lon="11.761549582541228"><ele>505.0</ele><time>2026-05-04T15:11:19Z</time></trkpt><trkpt lat="43.699604347691" lon="11.76144557161315"><ele>505.0</ele><time>2026-05-04T15:11:20Z</time></trkpt><trkpt lat="43.699645907854766" lon="11.76134167406105"><ele>505.00000000000006</ele><time>2026-05-04T15:11:21Z</time></trkpt><trkpt lat="43.699705040998" lon="11.761252202497161"><ele>505.0</ele><time>2026-05-04T15:11:22Z</time></trkpt><trkpt lat="43.69978383429665" lon="11.76115091192152"><ele>507.2</ele><time>2026-05-04T15:11:23Z</time></trkpt><trkpt lat="43.69984644972223" lon="11.7610255184424"><ele>509.4</ele><time>2026-05-04T15:11:24Z</time></trkpt><trkpt lat="43.69988608218276" lon="11.760922415555081"><ele>511.6</ele><time>2026-05-04T15:11:25Z</time></trkpt><trkpt lat="43.69993465176244" lon="11.760796996408793"><ele>513.8</ele><time>2026-05-04T15:11:26Z</time></trkpt><trkpt lat="43.69999088014479" lon="11.760698610182198"><ele>516.0</ele><time>2026-05-04T15:11:27Z</time></trkpt><trkpt lat="43.700065374642655" lon="11.760596848897109"><ele>516.0</ele><time>2026-05-04T15:11:28Z</time></trkpt><trkpt lat="43.700143309070995" lon="11.760444775403801"><ele>516.0</ele><time>2026-05-04T15:11:29Z</time></trkpt><trkpt lat="43.70020565177822" lon="11.760327448901444"><ele>516.0</ele><time>2026-05-04T15:11:30Z</time></trkpt><trkpt lat="43.700284404344366" lon="11.760249812106089"><ele>516.0</ele><time>2026-05-04T15:11:32Z</time></trkpt><trkpt lat="43.700343746913376" lon="11.760194929124788"><ele>516.0</ele><time>2026-05-04T15:11:34Z</time></trkpt><trkpt lat="43.700415012459395" lon="11.76020287801307"><ele>515.8333333333334</ele><time>2026-05-04T15:11:36Z</time></trkpt><trkpt lat="43.70048156135589" lon="11.760257697708482"><ele>515.6666666666666</ele><time>2026-05-04T15:11:38Z</time></trkpt><trkpt lat="43.700565129817235" lon="11.760243265298714"><ele>515.5</ele><time>2026-05-04T15:11:41Z</time></trkpt><trkpt lat="43.70063549255246" lon="11.760240519102728"><ele>515.3333333333333</ele><time>2026-05-04T15:11:44Z</time></trkpt><trkpt lat="43.70071193217029" lon="11.760211654307557"><ele>515.1666666666666</ele><time>2026-05-04T15:11:48.001Z</time></trkpt><trkpt lat="43.700808229238326" lon="11.760180426997342"><ele>515.0</ele><time>2026-05-04T15:11:50.001Z</time></trkpt><trkpt lat="43.70087929246939" lon="11.760170538548698"><ele>515.6666666666666</ele><time>2026-05-04T15:11:51.001Z</time></trkpt><trkpt lat="43.700958044377316" lon="11.760156966122759"><ele>516.3333333333333</ele><time>2026-05-04T15:11:52.001Z</time></trkpt><trkpt lat="43.701040898101525" lon="11.760148770659878"><ele>517.0</ele><time>2026-05-04T15:11:53Z</time></trkpt><trkpt lat="43.70113058083012" lon="11.760178762712934"><ele>517.6666666666666</ele><time>2026-05-04T15:11:54Z</time></trkpt><trkpt lat="43.701203983659305" lon="11.760219013378816"><ele>518.3333333333334</ele><time>2026-05-04T15:11:55Z</time></trkpt><trkpt lat="43.70127816524466" lon="11.760289122180207"><ele>519.0</ele><time>2026-05-04T15:11:56Z</time></trkpt><trkpt lat="43.70134263964327" lon="11.760361524350952"><ele>519.0</ele><time>2026-05-04T15:11:57Z</time></trkpt><trkpt lat="43.701409990996865" lon="11.760422401820092"><ele>519.0</ele><time>2026-05-04T15:11:58Z</time></trkpt><trkpt lat="43.701488644174695" lon="11.760465728126556"><ele>519.0</ele><time>2026-05-04T15:11:59Z</time></trkpt><trkpt lat="43.701575553757216" lon="11.760490200845625"><ele>519.0</ele><time>2026-05-04T15:12:00Z</time></trkpt><trkpt lat="43.7016726369705" lon="11.760490468570154"><ele>519.0</ele><time>2026-05-04T15:12:01Z</time></trkpt><trkpt lat="43.70178082549731" lon="11.760467751513724"><ele>519.0</ele><time>2026-05-04T15:12:02Z</time></trkpt><trkpt lat="43.70188460847089" lon="11.760479117915583"><ele>519.0</ele><time>2026-05-04T15:12:03Z</time></trkpt><trkpt lat="43.701990999224115" lon="11.760442728099902"><ele>519.0</ele><time>2026-05-04T15:12:04Z</time></trkpt><trkpt lat="43.7021052586112" lon="11.760430599472294"><ele>519.0</ele><time>2026-05-04T15:12:05Z</time></trkpt><trkpt lat="43.702225368696624" lon="11.760420405426991"><ele>519.0</ele><time>2026-05-04T15:12:06Z</time></trkpt><trkpt lat="43.70233010985079" lon="11.760402062559429"><ele>518.6</ele><time>2026-05-04T15:12:07Z</time></trkpt><trkpt lat="43.70242141424858" lon="11.760401592958862"><ele>518.2</ele><time>2026-05-04T15:12:08Z</time></trkpt><trkpt lat="43.70250889133098" lon="11.760436375668585"><ele>517.8000000000001</ele><time>2026-05-04T15:12:09Z</time></trkpt><trkpt lat="43.70259359112022" lon="11.76049169736203"><ele>517.4</ele><time>2026-05-04T15:12:10Z</time></trkpt><trkpt lat="43.702672977463294" lon="11.760566534838503"><ele>517.0</ele><time>2026-05-04T15:12:11Z</time></trkpt><trkpt lat="43.70275063356162" lon="11.760660421217711"><ele>516.4</ele><time>2026-05-04T15:12:12Z</time></trkpt><trkpt lat="43.70281442633746" lon="11.760777813005308"><ele>515.8000000000001</ele><time>2026-05-04T15:12:13Z</time></trkpt><trkpt lat="43.70286702671793" lon="11.760910069265137"><ele>515.2</ele><time>2026-05-04T15:12:14Z</time></trkpt><trkpt lat="43.70292125634324" lon="11.761046751285713"><ele>514.6</ele><time>2026-05-04T15:12:15Z</time></trkpt><trkpt lat="43.70298063935671" lon="11.761165677185428"><ele>514.0</ele><time>2026-05-04T15:12:16Z</time></trkpt><trkpt lat="43.70305013664169" lon="11.761265273643906"><ele>514.0</ele><time>2026-05-04T15:12:17Z</time></trkpt><trkpt lat="43.70313530359027" lon="11.761345093574695"><ele>514.0</ele><time>2026-05-04T15:12:18Z</time></trkpt><trkpt lat="43.703245262988844" lon="11.761399731882765"><ele>514.0</ele><time>2026-05-04T15:12:19Z</time></trkpt><trkpt lat="43.703340809245944" lon="11.761435037928123"><ele>514.0</ele><time>2026-05-04T15:12:20Z</time></trkpt><trkpt lat="43.70343019329392" lon="11.761482736997754"><ele>514.0</ele><time>2026-05-04T15:12:21Z</time></trkpt><trkpt lat="43.70350792380539" lon="11.761551811620096"><ele>516.0</ele><time>2026-05-04T15:12:22Z</time></trkpt><trkpt lat="43.70358939476206" lon="11.76164374579158"><ele>518.0</ele><time>2026-05-04T15:12:23Z</time></trkpt><trkpt lat="43.70366766743485" lon="11.761765262121505"><ele>520.0</ele><time>2026-05-04T15:12:24Z</time></trkpt><trkpt lat="43.70373878230298" lon="11.76189455652196"><ele>522.0</ele><time>2026-05-04T15:12:25Z</time></trkpt><trkpt lat="43.70381155331714" lon="11.762029332054437"><ele>518.0</ele><time>2026-05-04T15:12:26Z</time></trkpt><trkpt lat="43.70388198346045" lon="11.762156794291995"><ele>514.0</ele><time>2026-05-04T15:12:27Z</time></trkpt><trkpt lat="43.703953398471164" lon="11.762278261858027"><ele>510.0</ele><time>2026-05-04T15:12:28Z</time></trkpt><trkpt lat="43.70402241287823" lon="11.76239568058081"><ele>506.0</ele><time>2026-05-04T15:12:29Z</time></trkpt><trkpt lat="43.70409792463225" lon="11.762518478300517"><ele>506.0</ele><time>2026-05-04T15:12:30Z</time></trkpt><trkpt lat="43.704178588867954" lon="11.762643542871677"><ele>506.0</ele><time>2026-05-04T15:12:31Z</time></trkpt><trkpt lat="43.704261782353576" lon="11.762769658036149"><ele>506.0</ele><time>2026-05-04T15:12:32Z</time></trkpt><trkpt lat="43.70434555186566" lon="11.762898620113152"><ele>506.0</ele><time>2026-05-04T15:12:33Z</time></trkpt><trkpt lat="43.70442899885768" lon="11.763021091840624"><ele>504.0</ele><time>2026-05-04T15:12:34Z</time></trkpt><trkpt lat="43.704513754580134" lon="11.763133985066233"><ele>502.0</ele><time>2026-05-04T15:12:35Z</time></trkpt><trkpt lat="43.70459889117133" lon="11.763229790374549"><ele>500.0</ele><time>2026-05-04T15:12:36Z</time></trkpt><trkpt lat="43.70469700137746" lon="11.76330803818019"><ele>498.0</ele><time>2026-05-04T15:12:37Z</time></trkpt><trkpt lat="43.704812878438545" lon="11.763377515504406"><ele>498.0</ele><time>2026-05-04T15:12:38Z</time></trkpt><trkpt lat="43.70494073406082" lon="11.763437610379956"><ele>498.0</ele><time>2026-05-04T15:12:39Z</time></trkpt><trkpt lat="43.70507430703518" lon="11.763494298879358"><ele>498.0</ele><time>2026-05-04T15:12:40Z</time></trkpt><trkpt lat="43.70520152737721" lon="11.763550564896466"><ele>498.0</ele><time>2026-05-04T15:12:41Z</time></trkpt><trkpt lat="43.70531821405893" lon="11.763606011327358"><ele>495.79999999999995</ele><time>2026-05-04T15:12:42Z</time></trkpt><trkpt lat="43.70542641750243" lon="11.763661008479929"><ele>493.59999999999997</ele><time>2026-05-04T15:12:43Z</time></trkpt><trkpt lat="43.70552273702822" lon="11.76371440323057"><ele>491.40000000000003</ele><time>2026-05-04T15:12:44Z</time></trkpt><trkpt lat="43.70561114140097" lon="11.763785037561787"><ele>489.20000000000005</ele><time>2026-05-04T15:12:45Z</time></trkpt><trkpt lat="43.705695244550625" lon="11.763875758264541"><ele>487.0</ele><time>2026-05-04T15:12:46Z</time></trkpt><trkpt lat="43.70576457451169" lon="11.764000021641142"><ele>487.0</ele><time>2026-05-04T15:12:47Z</time></trkpt><trkpt lat="43.7058289503983" lon="11.764133696965443"><ele>487.0</ele><time>2026-05-04T15:12:48Z</time></trkpt><trkpt lat="43.70590133715407" lon="11.764265827699322"><ele>487.0</ele><time>2026-05-04T15:12:49Z</time></trkpt><trkpt lat="43.70598255178906" lon="11.764395587273178"><ele>487.0</ele><time>2026-05-04T15:12:50Z</time></trkpt><trkpt lat="43.7060699574966" lon="11.76452466992369"><ele>484.8</ele><time>2026-05-04T15:12:51Z</time></trkpt><trkpt lat="43.706154797066255" lon="11.76461945081602"><ele>482.6</ele><time>2026-05-04T15:12:52Z</time></trkpt><trkpt lat="43.70624064732944" lon="11.764687454604944"><ele>480.40000000000003</ele><time>2026-05-04T15:12:53Z</time></trkpt><trkpt lat="43.70632381172925" lon="11.76475505518364"><ele>478.20000000000005</ele><time>2026-05-04T15:12:54Z</time></trkpt><trkpt lat="43.70638550945494" lon="11.764826747233526"><ele>476.0</ele><time>2026-05-04T15:12:55Z</time></trkpt><trkpt lat="43.70642213649121" lon="11.764914895881372"><ele>476.0</ele><time>2026-05-04T15:12:56Z</time></trkpt><trkpt lat="43.7064276917376" lon="11.765028267700817"><ele>476.0</ele><time>2026-05-04T15:12:57Z</time></trkpt><trkpt lat="43.70639429634818" lon="11.765149038068085"><ele>476.0</ele><time>2026-05-04T15:12:58Z</time></trkpt><trkpt lat="43.70632767496654" lon="11.765253756476836"><ele>476.0</ele><time>2026-05-04T15:12:59Z</time></trkpt><trkpt lat="43.706248169452564" lon="11.76534535651715"><ele>476.0</ele><time>2026-05-04T15:13:00Z</time></trkpt><trkpt lat="43.706184058336355" lon="11.76543145664819"><ele>475.16666666666663</ele><time>2026-05-04T15:13:01Z</time></trkpt><trkpt lat="43.706152927364016" lon="11.76552346944133"><ele>474.3333333333333</ele><time>2026-05-04T15:13:02Z</time></trkpt><trkpt lat="43.70614637840811" lon="11.765611203355025"><ele>473.5</ele><time>2026-05-04T15:13:03Z</time></trkpt><trkpt lat="43.706146512219185" lon="11.765701152472415"><ele>472.66666666666663</ele><time>2026-05-04T15:13:04Z</time></trkpt><trkpt lat="43.70620128378658" lon="11.765790033949056"><ele>471.8333333333333</ele><time>2026-05-04T15:13:05Z</time></trkpt><trkpt lat="43.706286447988404" lon="11.765838699983926"><ele>471.0</ele><time>2026-05-04T15:13:06Z</time></trkpt><trkpt lat="43.70639424581981" lon="11.765807913015408"><ele>471.0</ele><time>2026-05-04T15:13:07Z</time></trkpt><trkpt lat="43.70648832587106" lon="11.765719180949649"><ele>471.0</ele><time>2026-05-04T15:13:08Z</time></trkpt><trkpt lat="43.706576201928996" lon="11.765617837097942"><ele>471.0</ele><time>2026-05-04T15:13:09Z</time></trkpt><trkpt lat="43.70666531096451" lon="11.765535810838385"><ele>471.0</ele><time>2026-05-04T15:13:10Z</time></trkpt><trkpt lat="43.70675073697569" lon="11.76547327936533"><ele>471.0</ele><time>2026-05-04T15:13:11Z</time></trkpt><trkpt lat="43.70683196645386" lon="11.76542088669703"><ele>468.6</ele><time>2026-05-04T15:13:12Z</time></trkpt><trkpt lat="43.706920132425076" lon="11.765452659003563"><ele>466.20000000000005</ele><time>2026-05-04T15:13:13Z</time></trkpt><trkpt lat="43.70701774511634" lon="11.765469546975321"><ele>463.79999999999995</ele><time>2026-05-04T15:13:14Z</time></trkpt><trkpt lat="43.7071049682199" lon="11.76554927728815"><ele>461.4</ele><time>2026-05-04T15:13:15Z</time></trkpt><trkpt lat="43.707161125418565" lon="11.765674665497366"><ele>459.0</ele><time>2026-05-04T15:13:16Z</time></trkpt><trkpt lat="43.70723265899685" lon="11.765785787820203"><ele>459.0</ele><time>2026-05-04T15:13:17Z</time></trkpt><trkpt lat="43.707280174981214" lon="11.76589710348404"><ele>459.0</ele><time>2026-05-04T15:13:18Z</time></trkpt><trkpt lat="43.70733911552895" lon="11.765994571865832"><ele>459.0</ele><time>2026-05-04T15:13:19Z</time></trkpt><trkpt lat="43.707398431024686" lon="11.766072081923703"><ele>459.0</ele><time>2026-05-04T15:13:20Z</time></trkpt><trkpt lat="43.707459214612115" lon="11.766110667110622"><ele>459.0</ele><time>2026-05-04T15:13:21Z</time></trkpt><trkpt lat="43.7075280438697" lon="11.766128512682043"><ele>459.0</ele><time>2026-05-04T15:13:22Z</time></trkpt><trkpt lat="43.70759966376827" lon="11.766079661001257"><ele>459.0</ele><time>2026-05-04T15:13:23Z</time></trkpt><trkpt lat="43.707649839714236" lon="11.765989609074303"><ele>459.0</ele><time>2026-05-04T15:13:24Z</time></trkpt><trkpt lat="43.707649981123524" lon="11.765859997771955"><ele>459.0</ele><time>2026-05-04T15:13:25Z</time></trkpt><trkpt lat="43.70763561122395" lon="11.765737438523008"><ele>459.0</ele><time>2026-05-04T15:13:26Z</time></trkpt><trkpt lat="43.70760096515306" lon="11.765628523597117"><ele>459.0</ele><time>2026-05-04T15:13:27Z</time></trkpt><trkpt lat="43.70758399441861" lon="11.765519751122111"><ele>459.0</ele><time>2026-05-04T15:13:28Z</time></trkpt><trkpt lat="43.70754035235615" lon="11.765417927441522"><ele>459.0</ele><time>2026-05-04T15:13:29Z</time></trkpt><trkpt lat="43.707517367075276" lon="11.7653164670548"><ele>459.0</ele><time>2026-05-04T15:13:30Z</time></trkpt><trkpt lat="43.70749429335325" lon="11.765218558011359"><ele>459.0</ele><time>2026-05-04T15:13:31Z</time></trkpt><trkpt lat="43.70749011502693" lon="11.765120643538918"><ele>459.0</ele><time>2026-05-04T15:13:32Z</time></trkpt><trkpt lat="43.70747435648181" lon="11.764960036143076"><ele>459.0</ele><time>2026-05-04T15:13:34Z</time></trkpt><trkpt lat="43.70746941752182" lon="11.764871567620057"><ele>459.0</ele><time>2026-05-04T15:13:35Z</time></trkpt><trkpt lat="43.70749782219901" lon="11.764779476362163"><ele>458.7142857142857</ele><time>2026-05-04T15:13:36Z</time></trkpt><trkpt lat="43.70753635922646" lon="11.764708798517193"><ele>458.42857142857144</ele><time>2026-05-04T15:13:37Z</time></trkpt><trkpt lat="43.70758580352928" lon="11.76464539024304"><ele>458.14285714285717</ele><time>2026-05-04T15:13:38Z</time></trkpt><trkpt lat="43.70764380586073" lon="11.764594980499261"><ele>457.8571428571429</ele><time>2026-05-04T15:13:39Z</time></trkpt><trkpt lat="43.707712057443025" lon="11.764558630143618"><ele>457.57142857142856</ele><time>2026-05-04T15:13:40Z</time></trkpt><trkpt lat="43.707792790996955" lon="11.76452991250977"><ele>457.28571428571433</ele><time>2026-05-04T15:13:41Z</time></trkpt><trkpt lat="43.7078707958221" lon="11.764513168632078"><ele>457.00000000000006</ele><time>2026-05-04T15:13:42Z</time></trkpt><trkpt lat="43.70795327166977" lon="11.764498468541383"><ele>455.33333333333337</ele><time>2026-05-04T15:13:43Z</time></trkpt><trkpt lat="43.708039401894915" lon="11.76449245867116"><ele>453.6666666666667</ele><time>2026-05-04T15:13:44Z</time></trkpt><trkpt lat="43.70812603841261" lon="11.764479589546657"><ele>452.0</ele><time>2026-05-04T15:13:45Z</time></trkpt><trkpt lat="43.70821280066476" lon="11.764460421797683"><ele>450.33333333333337</ele><time>2026-05-04T15:13:46Z</time></trkpt><trkpt lat="43.70829248428237" lon="11.76443761818884"><ele>448.6666666666667</ele><time>2026-05-04T15:13:47Z</time></trkpt><trkpt lat="43.708377656491606" lon="11.764393700589558"><ele>447.0</ele><time>2026-05-04T15:13:48Z</time></trkpt><trkpt lat="43.708480362889354" lon="11.764358871961386"><ele>445.5</ele><time>2026-05-04T15:13:49Z</time></trkpt><trkpt lat="43.70859067135911" lon="11.764294442662626"><ele>444.0</ele><time>2026-05-04T15:13:50Z</time></trkpt><trkpt lat="43.70870768524085" lon="11.764226094925032"><ele>442.5</ele><time>2026-05-04T15:13:51Z</time></trkpt><trkpt lat="43.708823343533304" lon="11.764157951696022"><ele>441.0</ele><time>2026-05-04T15:13:52Z</time></trkpt><trkpt lat="43.7089383308792" lon="11.764080243702827"><ele>441.0</ele><time>2026-05-04T15:13:53Z</time></trkpt><trkpt lat="43.709054240263875" lon="11.764012547981551"><ele>441.0</ele><time>2026-05-04T15:13:54.001Z</time></trkpt><trkpt lat="43.70915866258575" lon="11.763950583777776"><ele>441.0</ele><time>2026-05-04T15:13:55.001Z</time></trkpt><trkpt lat="43.709250746835515" lon="11.763888023301627"><ele>441.0</ele><time>2026-05-04T15:13:56.001Z</time></trkpt><trkpt lat="43.70933957469725" lon="11.763826572412913"><ele>441.0</ele><time>2026-05-04T15:13:57.001Z</time></trkpt><trkpt lat="43.709439771268855" lon="11.763773856820913"><ele>440.0</ele><time>2026-05-04T15:13:58Z</time></trkpt><trkpt lat="43.70954935540843" lon="11.763741567609513"><ele>439.0</ele><time>2026-05-04T15:13:59Z</time></trkpt><trkpt lat="43.709658215345556" lon="11.763725200633827"><ele>438.0</ele><time>2026-05-04T15:14:00Z</time></trkpt><trkpt lat="43.709758074276394" lon="11.763725750573666"><ele>437.0</ele><time>2026-05-04T15:14:01Z</time></trkpt><trkpt lat="43.70985048816673" lon="11.763727972890678"><ele>436.0</ele><time>2026-05-04T15:14:02Z</time></trkpt><trkpt lat="43.70994090111513" lon="11.763725317128475"><ele>436.0</ele><time>2026-05-04T15:14:03Z</time></trkpt><trkpt lat="43.710015547801895" lon="11.763723942847939"><ele>436.0</ele><time>2026-05-04T15:14:04Z</time></trkpt><trkpt lat="43.71009092613808" lon="11.763732848499338"><ele>436.0</ele><time>2026-05-04T15:14:06Z</time></trkpt><trkpt lat="43.71013931042083" lon="11.76352001674651"><ele>436.0</ele><time>2026-05-04T15:16:05Z</time></trkpt><trkpt lat="43.710167988627916" lon="11.763399201671096"><ele>436.0</ele><time>2026-05-04T15:16:06Z</time></trkpt><trkpt lat="43.71019978233905" lon="11.763255932588619"><ele>436.0</ele><time>2026-05-04T15:16:07Z</time></trkpt><trkpt lat="43.71023164960489" lon="11.763108994520252"><ele>436.0</ele><time>2026-05-04T15:16:08Z</time></trkpt><trkpt lat="43.71026979899145" lon="11.76295762543383"><ele>436.0</ele><time>2026-05-04T15:16:09Z</time></trkpt><trkpt lat="43.71030366849206" lon="11.762820078463513"><ele>436.0</ele><time>2026-05-04T15:16:10Z</time></trkpt><trkpt lat="43.710309900480716" lon="11.762692005245162"><ele>436.0</ele><time>2026-05-04T15:16:11Z</time></trkpt><trkpt lat="43.710314172186244" lon="11.762597096672968"><ele>435.8</ele><time>2026-05-04T15:16:12Z</time></trkpt><trkpt lat="43.710296346711495" lon="11.762499928138647"><ele>435.6</ele><time>2026-05-04T15:16:13Z</time></trkpt><trkpt lat="43.7102618180624" lon="11.762398872073176"><ele>435.4</ele><time>2026-05-04T15:16:14Z</time></trkpt><trkpt lat="43.71021580747547" lon="11.76228222277476"><ele>435.2</ele><time>2026-05-04T15:16:15Z</time></trkpt><trkpt lat="43.71016040947263" lon="11.76214402234968"><ele>435.0</ele><time>2026-05-04T15:16:16Z</time></trkpt><trkpt lat="43.7101055140099" lon="11.761986351465577"><ele>435.25</ele><time>2026-05-04T15:16:17Z</time></trkpt><trkpt lat="43.71006570849721" lon="11.761815462656644"><ele>435.5</ele><time>2026-05-04T15:16:18Z</time></trkpt><trkpt lat="43.70999661910838" lon="11.76165393502181"><ele>435.75</ele><time>2026-05-04T15:16:19Z</time></trkpt><trkpt lat="43.709953595202734" lon="11.761474451331427"><ele>436.0</ele><time>2026-05-04T15:16:20Z</time></trkpt><trkpt lat="43.70989409559354" lon="11.761293473442027"><ele>436.0</ele><time>2026-05-04T15:16:21Z</time></trkpt><trkpt lat="43.70983625778249" lon="11.76111321313208"><ele>436.0</ele><time>2026-05-04T15:16:22Z</time></trkpt><trkpt lat="43.70978530397659" lon="11.76095213041922"><ele>436.0</ele><time>2026-05-04T15:16:23Z</time></trkpt><trkpt lat="43.70974006831202" lon="11.760809154297263"><ele>436.0</ele><time>2026-05-04T15:16:24Z</time></trkpt><trkpt lat="43.70968151889609" lon="11.760692695427014"><ele>436.0</ele><time>2026-05-04T15:16:25Z</time></trkpt><trkpt lat="43.70964203456492" lon="11.76057238554485"><ele>436.0</ele><time>2026-05-04T15:16:26Z</time></trkpt><trkpt lat="43.70959787246193" lon="11.760456084169356"><ele>436.0</ele><time>2026-05-04T15:16:27Z</time></trkpt><trkpt lat="43.709532017401045" lon="11.760356058014278"><ele>436.0</ele><time>2026-05-04T15:16:28Z</time></trkpt><trkpt lat="43.70943427215568" lon="11.760304859578328"><ele>436.0</ele><time>2026-05-04T15:16:29Z</time></trkpt><trkpt lat="43.70934749272531" lon="11.760224439475905"><ele>437.4</ele><time>2026-05-04T15:16:30Z</time></trkpt><trkpt lat="43.70924939609039" lon="11.7601570878195"><ele>438.8</ele><time>2026-05-04T15:16:31Z</time></trkpt><trkpt lat="43.709180809573745" lon="11.760043667750955"><ele>440.19999999999993</ele><time>2026-05-04T15:16:32Z</time></trkpt><trkpt lat="43.709117784049766" lon="11.759934467972963"><ele>441.59999999999997</ele><time>2026-05-04T15:16:33Z</time></trkpt><trkpt lat="43.709078307608685" lon="11.75980557572821"><ele>443.0</ele><time>2026-05-04T15:16:34Z</time></trkpt><trkpt lat="43.709057800687454" lon="11.759670762672174"><ele>442.99999999999994</ele><time>2026-05-04T15:16:35Z</time></trkpt><trkpt lat="43.70904637950166" lon="11.759532243121228"><ele>443.0</ele><time>2026-05-04T15:16:36Z</time></trkpt><trkpt lat="43.70906079516142" lon="11.759424583725266"><ele>443.0</ele><time>2026-05-04T15:16:37Z</time></trkpt><trkpt lat="43.70909245570431" lon="11.759333584448168"><ele>443.0</ele><time>2026-05-04T15:16:38Z</time></trkpt><trkpt lat="43.70912744341816" lon="11.759245247674798"><ele>442.99999999999994</ele><time>2026-05-04T15:16:39Z</time></trkpt><trkpt lat="43.709153939600505" lon="11.759148768620841"><ele>443.0</ele><time>2026-05-04T15:16:40Z</time></trkpt><trkpt lat="43.70920431609565" lon="11.759028659794147"><ele>443.59999999999997</ele><time>2026-05-04T15:16:42Z</time></trkpt><trkpt lat="43.709219587080526" lon="11.758941716528646"><ele>444.19999999999993</ele><time>2026-05-04T15:16:44Z</time></trkpt><trkpt lat="43.70920479814705" lon="11.758793133194127"><ele>444.8</ele><time>2026-05-04T15:17:47.001Z</time></trkpt><trkpt lat="43.70915139102444" lon="11.758655927937635"><ele>445.4</ele><time>2026-05-04T15:17:49.001Z</time></trkpt><trkpt lat="43.70909934776273" lon="11.758516245972757"><ele>446.0</ele><time>2026-05-04T15:17:51.001Z</time></trkpt><trkpt lat="43.70901586550426" lon="11.758407965738353"><ele>447.0</ele><time>2026-05-04T15:17:53.001Z</time></trkpt><trkpt lat="43.70895783565388" lon="11.758303712611134"><ele>448.0</ele><time>2026-05-04T15:17:55.001Z</time></trkpt><trkpt lat="43.7090146976262" lon="11.758197528818354"><ele>449.0</ele><time>2026-05-04T15:17:57.001Z</time></trkpt><trkpt lat="43.70909462655805" lon="11.758113075181397"><ele>450.0</ele><time>2026-05-04T15:17:59.001Z</time></trkpt><trkpt lat="43.70913953503647" lon="11.758044542007015"><ele>451.0</ele><time>2026-05-04T15:18:00.001Z</time></trkpt><trkpt lat="43.70923661118064" lon="11.757947869757599"><ele>451.0</ele><time>2026-05-04T15:18:02.001Z</time></trkpt><trkpt lat="43.709275596207206" lon="11.757835580278025"><ele>451.0</ele><time>2026-05-04T15:18:04.001Z</time></trkpt><trkpt lat="43.70928765891175" lon="11.757716630821792"><ele>451.0</ele><time>2026-05-04T15:18:06.001Z</time></trkpt><trkpt lat="43.70924788315046" lon="11.757646217816083"><ele>451.0</ele><time>2026-05-04T15:18:07.001Z</time></trkpt><trkpt lat="43.70918455394682" lon="11.757519737702106"><ele>451.0</ele><time>2026-05-04T15:18:09.001Z</time></trkpt><trkpt lat="43.70911228419446" lon="11.757386479110407"><ele>451.50000000000006</ele><time>2026-05-04T15:18:11.001Z</time></trkpt><trkpt lat="43.709071919764796" lon="11.757317623706884"><ele>452.0</ele><time>2026-05-04T15:18:12.001Z</time></trkpt><trkpt lat="43.70902039077625" lon="11.757254580435447"><ele>452.5</ele><time>2026-05-04T15:18:13.001Z</time></trkpt><trkpt lat="43.70898391702722" lon="11.757179291586676"><ele>453.0</ele><time>2026-05-04T15:18:14.001Z</time></trkpt><trkpt lat="43.70893934041472" lon="11.75711193705976"><ele>453.50000000000006</ele><time>2026-05-04T15:18:15.001Z</time></trkpt><trkpt lat="43.708856799683026" lon="11.756999491193875"><ele>454.0</ele><time>2026-05-04T15:18:17.001Z</time></trkpt><trkpt lat="43.70876088736051" lon="11.756891383575725"><ele>453.50000000000006</ele><time>2026-05-04T15:18:19.001Z</time></trkpt><trkpt lat="43.70870115974711" lon="11.756841783026095"><ele>453.0</ele><time>2026-05-04T15:18:20.001Z</time></trkpt><trkpt lat="43.7086319667926" lon="11.75679106907222"><ele>452.5</ele><time>2026-05-04T15:18:21.001Z</time></trkpt><trkpt lat="43.70855754385881" lon="11.756728289195996"><ele>452.0</ele><time>2026-05-04T15:18:22.001Z</time></trkpt><trkpt lat="43.708478019740724" lon="11.756653926311667"><ele>451.50000000000006</ele><time>2026-05-04T15:18:23.001Z</time></trkpt><trkpt lat="43.7083964752455" lon="11.756573142790117"><ele>451.0</ele><time>2026-05-04T15:18:24.001Z</time></trkpt><trkpt lat="43.708312754685366" lon="11.756487998927465"><ele>452.50000000000006</ele><time>2026-05-04T15:18:25.001Z</time></trkpt><trkpt lat="43.708232715071155" lon="11.75641139236202"><ele>454.0</ele><time>2026-05-04T15:18:26.001Z</time></trkpt><trkpt lat="43.70815160308598" lon="11.756332928978294"><ele>455.5</ele><time>2026-05-04T15:18:27.001Z</time></trkpt><trkpt lat="43.708072786106605" lon="11.75625217579781"><ele>457.0</ele><time>2026-05-04T15:18:28.001Z</time></trkpt><trkpt lat="43.70802265541924" lon="11.756161622132517"><ele>458.50000000000006</ele><time>2026-05-04T15:18:29.001Z</time></trkpt><trkpt lat="43.70798199980957" lon="11.756084329865786"><ele>460.0</ele><time>2026-05-04T15:18:30.001Z</time></trkpt><trkpt lat="43.70794335252905" lon="11.755920263371983"><ele>460.00000000000006</ele><time>2026-05-04T15:18:32.001Z</time></trkpt><trkpt lat="43.70792559466509" lon="11.755801263335245"><ele>460.0</ele><time>2026-05-04T15:18:33.001Z</time></trkpt><trkpt lat="43.707903658943884" lon="11.755673193646432"><ele>460.0</ele><time>2026-05-04T15:18:34.001Z</time></trkpt><trkpt lat="43.70788562969518" lon="11.755545817062622"><ele>460.0</ele><time>2026-05-04T15:18:35.001Z</time></trkpt><trkpt lat="43.707864437099914" lon="11.755419912024824"><ele>460.00000000000006</ele><time>2026-05-04T15:18:36.001Z</time></trkpt><trkpt lat="43.707845703381835" lon="11.755316741825315"><ele>460.0</ele><time>2026-05-04T15:18:37.001Z</time></trkpt><trkpt lat="43.707827392492646" lon="11.75520538575183"><ele>460.33333333333337</ele><time>2026-05-04T15:18:38.001Z</time></trkpt><trkpt lat="43.70780588204148" lon="11.755104194044945"><ele>460.6666666666667</ele><time>2026-05-04T15:18:39.001Z</time></trkpt><trkpt lat="43.70781576191156" lon="11.755002935887944"><ele>461.0</ele><time>2026-05-04T15:18:40.001Z</time></trkpt><trkpt lat="43.70779177881342" lon="11.754882896418964"><ele>461.33333333333337</ele><time>2026-05-04T15:18:42.001Z</time></trkpt><trkpt lat="43.70784502084842" lon="11.754824079213941"><ele>461.6666666666667</ele><time>2026-05-04T15:18:44.001Z</time></trkpt><trkpt lat="43.70793831005775" lon="11.754711543862708"><ele>462.0</ele><time>2026-05-04T15:18:46.001Z</time></trkpt><trkpt lat="43.707973393330356" lon="11.754624964993724"><ele>462.0</ele><time>2026-05-04T15:18:47.001Z</time></trkpt><trkpt lat="43.70803433491462" lon="11.754531794697945"><ele>462.0</ele><time>2026-05-04T15:18:48.001Z</time></trkpt><trkpt lat="43.70805990979761" lon="11.754415002917714"><ele>462.0</ele><time>2026-05-04T15:18:49.001Z</time></trkpt><trkpt lat="43.70808865356959" lon="11.754307688758164"><ele>462.0</ele><time>2026-05-04T15:18:50.001Z</time></trkpt><trkpt lat="43.708117709866265" lon="11.75422154070362"><ele>462.0</ele><time>2026-05-04T15:18:51.001Z</time></trkpt><trkpt lat="43.70812903466068" lon="11.754101925710314"><ele>462.0</ele><time>2026-05-04T15:18:52.001Z</time></trkpt><trkpt lat="43.70813461294208" lon="11.753977148675569"><ele>461.6</ele><time>2026-05-04T15:18:53.001Z</time></trkpt><trkpt lat="43.708125216626506" lon="11.753843863172268"><ele>461.20000000000005</ele><time>2026-05-04T15:18:54.001Z</time></trkpt><trkpt lat="43.708128704247365" lon="11.753715485186971"><ele>460.8</ele><time>2026-05-04T15:18:55.001Z</time></trkpt><trkpt lat="43.708124785571115" lon="11.75358729784425"><ele>460.4</ele><time>2026-05-04T15:18:56.001Z</time></trkpt><trkpt lat="43.708103400703564" lon="11.753480029897895"><ele>460.0</ele><time>2026-05-04T15:18:57.001Z</time></trkpt><trkpt lat="43.70810566287426" lon="11.753346723905224"><ele>459.50000000000006</ele><time>2026-05-04T15:18:58.001Z</time></trkpt><trkpt lat="43.70808724522515" lon="11.75323823349003"><ele>459.0</ele><time>2026-05-04T15:18:59.001Z</time></trkpt><trkpt lat="43.70804865209647" lon="11.753121003430593"><ele>458.5</ele><time>2026-05-04T15:19:00.001Z</time></trkpt><trkpt lat="43.70799550449071" lon="11.753026750654604"><ele>458.0</ele><time>2026-05-04T15:19:01.001Z</time></trkpt><trkpt lat="43.70793242838522" lon="11.752967577776166"><ele>457.50000000000006</ele><time>2026-05-04T15:19:02.001Z</time></trkpt><trkpt lat="43.70787363380701" lon="11.752879504509332"><ele>457.0</ele><time>2026-05-04T15:19:03.001Z</time></trkpt><trkpt lat="43.707826927196884" lon="11.75278962815948"><ele>457.6666666666667</ele><time>2026-05-04T15:19:04.001Z</time></trkpt><trkpt lat="43.707815789512686" lon="11.752683231209877"><ele>458.33333333333337</ele><time>2026-05-04T15:19:05.001Z</time></trkpt><trkpt lat="43.707833569513966" lon="11.752580488090869"><ele>459.0</ele><time>2026-05-04T15:19:06.001Z</time></trkpt><trkpt lat="43.707867871940735" lon="11.752489079884466"><ele>459.66666666666663</ele><time>2026-05-04T15:19:07.001Z</time></trkpt><trkpt lat="43.707905168237275" lon="11.752387035326246"><ele>460.3333333333333</ele><time>2026-05-04T15:19:08.001Z</time></trkpt><trkpt lat="43.707939089382975" lon="11.752295522937859"><ele>461.0</ele><time>2026-05-04T15:19:09.001Z</time></trkpt><trkpt lat="43.70798181259357" lon="11.752185787361318"><ele>460.99999999999994</ele><time>2026-05-04T15:19:10.001Z</time></trkpt><trkpt lat="43.70801613145077" lon="11.752078155179477"><ele>461.0</ele><time>2026-05-04T15:19:11.001Z</time></trkpt><trkpt lat="43.70803714253317" lon="11.751977610794901"><ele>461.0</ele><time>2026-05-04T15:19:12.001Z</time></trkpt><trkpt lat="43.70803554460389" lon="11.751888094046622"><ele>461.0</ele><time>2026-05-04T15:19:13.001Z</time></trkpt><trkpt lat="43.7080019502748" lon="11.751792585842036"><ele>460.99999999999994</ele><time>2026-05-04T15:19:14.001Z</time></trkpt><trkpt lat="43.70796228794722" lon="11.751711505257129"><ele>461.0</ele><time>2026-05-04T15:19:15.001Z</time></trkpt><trkpt lat="43.70788841808702" lon="11.751668111214238"><ele>460.99999999999994</ele><time>2026-05-04T15:19:16.001Z</time></trkpt><trkpt lat="43.707808558317865" lon="11.751568787544933"><ele>461.0</ele><time>2026-05-04T15:19:18.001Z</time></trkpt><trkpt lat="43.70776772308125" lon="11.751438069320223"><ele>461.0</ele><time>2026-05-04T15:19:20.001Z</time></trkpt><trkpt lat="43.707778666786126" lon="11.75133507835631"><ele>461.0</ele><time>2026-05-04T15:19:23.001Z</time></trkpt><trkpt lat="43.7078414192678" lon="11.751278887331978"><ele>460.99999999999994</ele><time>2026-05-04T15:19:26.001Z</time></trkpt><trkpt lat="43.707923522325856" lon="11.751258187183836"><ele>461.0</ele><time>2026-05-04T15:19:28.001Z</time></trkpt><trkpt lat="43.70783660269975" lon="11.751300827790923"><ele>461.0</ele><time>2026-05-04T15:19:40.001Z</time></trkpt><trkpt lat="43.7077633755442" lon="11.75137011344965"><ele>461.0</ele><time>2026-05-04T15:19:42.001Z</time></trkpt><trkpt lat="43.70790251475864" lon="11.75167055833039"><ele>461.0</ele><time>2026-05-04T15:19:47.001Z</time></trkpt><trkpt lat="43.70795736346363" lon="11.751780585936746"><ele>461.0</ele><time>2026-05-04T15:19:49.001Z</time></trkpt><trkpt lat="43.70799765071348" lon="11.751905833302471"><ele>461.0</ele><time>2026-05-04T15:19:51.001Z</time></trkpt><trkpt lat="43.70799322713782" lon="11.752008107641904"><ele>461.00000000000006</ele><time>2026-05-04T15:19:53.001Z</time></trkpt><trkpt lat="43.70796218663373" lon="11.752086342693351"><ele>461.0</ele><time>2026-05-04T15:19:55.001Z</time></trkpt><trkpt lat="43.707946666516136" lon="11.752176113459303"><ele>461.0</ele><time>2026-05-04T15:19:57.001Z</time></trkpt><trkpt lat="43.70788756282668" lon="11.75222213083793"><ele>461.00000000000006</ele><time>2026-05-04T15:20:35Z</time></trkpt><trkpt lat="43.707825673857016" lon="11.752190983088903"><ele>461.0</ele><time>2026-05-04T15:20:37Z</time></trkpt><trkpt lat="43.70774481877738" lon="11.752102762820108"><ele>461.0</ele><time>2026-05-04T15:20:40Z</time></trkpt><trkpt lat="43.70767075681637" lon="11.752039845344301"><ele>462.66666666666663</ele><time>2026-05-04T15:20:42Z</time></trkpt><trkpt lat="43.70761208764981" lon="11.751987192800069"><ele>464.3333333333333</ele><time>2026-05-04T15:20:44Z</time></trkpt><trkpt lat="43.70755859788108" lon="11.75190837711965"><ele>466.0</ele><time>2026-05-04T15:20:48Z</time></trkpt><trkpt lat="43.70750553836526" lon="11.751813915826723"><ele>467.66666666666663</ele><time>2026-05-04T15:20:50Z</time></trkpt><trkpt lat="43.70745628167277" lon="11.751741250170051"><ele>469.3333333333333</ele><time>2026-05-04T15:20:52Z</time></trkpt><trkpt lat="43.70736861943413" lon="11.751673142742014"><ele>471.0</ele><time>2026-05-04T15:20:54Z</time></trkpt><trkpt lat="43.70727292337035" lon="11.75162676625937"><ele>471.6</ele><time>2026-05-04T15:20:56Z</time></trkpt><trkpt lat="43.70717212030306" lon="11.751566887656013"><ele>472.20000000000005</ele><time>2026-05-04T15:20:58Z</time></trkpt><trkpt lat="43.70710186595629" lon="11.751460008654085"><ele>472.79999999999995</ele><time>2026-05-04T15:21:00Z</time></trkpt><trkpt lat="43.707033450605884" lon="11.751360901919293"><ele>473.4</ele><time>2026-05-04T15:21:02Z</time></trkpt><trkpt lat="43.706940850658235" lon="11.751335388169066"><ele>474.0</ele><time>2026-05-04T15:21:04Z</time></trkpt><trkpt lat="43.706884933397916" lon="11.751294148509658"><ele>475.3333333333333</ele><time>2026-05-04T15:21:06Z</time></trkpt><trkpt lat="43.70686396243798" lon="11.751211361008934"><ele>476.66666666666663</ele><time>2026-05-04T15:21:08Z</time></trkpt><trkpt lat="43.70680299302556" lon="11.751127687822855"><ele>478.0</ele><time>2026-05-04T15:21:10.001Z</time></trkpt><trkpt lat="43.7067412357759" lon="11.75106497952256"><ele>479.3333333333333</ele><time>2026-05-04T15:21:11.001Z</time></trkpt><trkpt lat="43.70667874725693" lon="11.750988660440449"><ele>480.66666666666663</ele><time>2026-05-04T15:21:12.001Z</time></trkpt><trkpt lat="43.706631265256625" lon="11.750916202853398"><ele>482.0</ele><time>2026-05-04T15:21:13.001Z</time></trkpt><trkpt lat="43.70660930580013" lon="11.750816663833643"><ele>482.5714285714286</ele><time>2026-05-04T15:21:18.001Z</time></trkpt><trkpt lat="43.706651700276595" lon="11.750748015255727"><ele>483.1428571428572</ele><time>2026-05-04T15:21:21.001Z</time></trkpt><trkpt lat="43.70671498671713" lon="11.750728300181116"><ele>483.7142857142857</ele><time>2026-05-04T15:21:33.001Z</time></trkpt><trkpt lat="43.70678959062102" lon="11.750713706594055"><ele>484.28571428571433</ele><time>2026-05-04T15:22:43.001Z</time></trkpt><trkpt lat="43.706843072584846" lon="11.75066478485662"><ele>484.8571428571429</ele><time>2026-05-04T15:22:45.001Z</time></trkpt><trkpt lat="43.706904727176855" lon="11.750592283623327"><ele>485.42857142857144</ele><time>2026-05-04T15:22:47.001Z</time></trkpt><trkpt lat="43.70698426021365" lon="11.750512215256515"><ele>486.0</ele><time>2026-05-04T15:22:49.001Z</time></trkpt><trkpt lat="43.707070428911415" lon="11.75042275936975"><ele>486.0</ele><time>2026-05-04T15:22:51.001Z</time></trkpt><trkpt lat="43.70715303768217" lon="11.75033114493639"><ele>486.0</ele><time>2026-05-04T15:22:53.001Z</time></trkpt><trkpt lat="43.70723592915266" lon="11.750229797596273"><ele>486.0</ele><time>2026-05-04T15:22:55.001Z</time></trkpt><trkpt lat="43.707300412887" lon="11.75015465316374"><ele>486.0</ele><time>2026-05-04T15:22:57.001Z</time></trkpt><trkpt lat="43.70736431850833" lon="11.750086819502247"><ele>486.0</ele><time>2026-05-04T15:22:59.001Z</time></trkpt><trkpt lat="43.70745288752335" lon="11.749985779626229"><ele>487.0</ele><time>2026-05-04T15:23:01.001Z</time></trkpt><trkpt lat="43.7075088489826" lon="11.74994442718717"><ele>488.0</ele><time>2026-05-04T15:23:02.001Z</time></trkpt><trkpt lat="43.707571177747575" lon="11.749894944674098"><ele>489.0</ele><time>2026-05-04T15:23:05.001Z</time></trkpt><trkpt lat="43.707660877988026" lon="11.74980290996949"><ele>490.0</ele><time>2026-05-04T15:23:08.001Z</time></trkpt><trkpt lat="43.70771503686208" lon="11.749757224854772"><ele>491.0</ele><time>2026-05-04T15:23:09.001Z</time></trkpt><trkpt lat="43.7077823879362" lon="11.749698638612726"><ele>492.0</ele><time>2026-05-04T15:23:10.001Z</time></trkpt><trkpt lat="43.707859468863425" lon="11.749644156921933"><ele>492.0</ele><time>2026-05-04T15:23:11.001Z</time></trkpt><trkpt lat="43.707929884757675" lon="11.74959246056791"><ele>492.0</ele><time>2026-05-04T15:23:12.001Z</time></trkpt><trkpt lat="43.70800059357887" lon="11.749545725566252"><ele>492.0</ele><time>2026-05-04T15:23:13.001Z</time></trkpt><trkpt lat="43.708057165906865" lon="11.749483367500686"><ele>492.0</ele><time>2026-05-04T15:23:14.001Z</time></trkpt><trkpt lat="43.70812559226358" lon="11.749435250670484"><ele>492.0</ele><time>2026-05-04T15:23:15.001Z</time></trkpt><trkpt lat="43.70821121403372" lon="11.749353838444014"><ele>492.0</ele><time>2026-05-04T15:23:17.001Z</time></trkpt><trkpt lat="43.70830429033053" lon="11.74934155565793"><ele>494.3333333333333</ele><time>2026-05-04T15:23:39.001Z</time></trkpt><trkpt lat="43.70836301833675" lon="11.749275963981352"><ele>496.66666666666663</ele><time>2026-05-04T15:23:41.001Z</time></trkpt><trkpt lat="43.70840982477881" lon="11.749167697724378"><ele>499.0</ele><time>2026-05-04T15:23:43.001Z</time></trkpt><trkpt lat="43.708402049758405" lon="11.749064341454442"><ele>501.3333333333333</ele><time>2026-05-04T15:23:45.001Z</time></trkpt><trkpt lat="43.70834798754427" lon="11.749009238268624"><ele>503.66666666666663</ele><time>2026-05-04T15:23:47.001Z</time></trkpt><trkpt lat="43.708261827056596" lon="11.74891567527272"><ele>506.0</ele><time>2026-05-04T15:23:49.001Z</time></trkpt><trkpt lat="43.70820224021508" lon="11.748859341583117"><ele>505.99999999999994</ele><time>2026-05-04T15:23:50.001Z</time></trkpt><trkpt lat="43.70813629301361" lon="11.748793070472276"><ele>506.0</ele><time>2026-05-04T15:23:51.001Z</time></trkpt><trkpt lat="43.70806514220187" lon="11.74872656718936"><ele>506.0</ele><time>2026-05-04T15:23:52.001Z</time></trkpt><trkpt lat="43.708012445364126" lon="11.748672242526592"><ele>506.0</ele><time>2026-05-04T15:23:53.001Z</time></trkpt><trkpt lat="43.70792362766699" lon="11.748573252475058"><ele>505.99999999999994</ele><time>2026-05-04T15:23:55.001Z</time></trkpt><trkpt lat="43.7078725539623" lon="11.748493368862004"><ele>506.0</ele><time>2026-05-04T15:24:10.001Z</time></trkpt><trkpt lat="43.70782076855675" lon="11.748426518826689"><ele>506.1428571428572</ele><time>2026-05-04T15:24:13.001Z</time></trkpt><trkpt lat="43.70776766586333" lon="11.748364032429249"><ele>506.28571428571433</ele><time>2026-05-04T15:24:15.001Z</time></trkpt><trkpt lat="43.707701969064225" lon="11.74830727967786"><ele>506.42857142857144</ele><time>2026-05-04T15:24:21.001Z</time></trkpt><trkpt lat="43.70767119951986" lon="11.748229938458207"><ele>506.5714285714286</ele><time>2026-05-04T15:24:24.001Z</time></trkpt><trkpt lat="43.707646854911076" lon="11.748126895576178"><ele>506.7142857142858</ele><time>2026-05-04T15:24:26.001Z</time></trkpt><trkpt lat="43.70762142450579" lon="11.748041421286565"><ele>506.85714285714283</ele><time>2026-05-04T15:24:28.001Z</time></trkpt><trkpt lat="43.70758491885605" lon="11.747931334210124"><ele>507.0</ele><time>2026-05-04T15:24:31.001Z</time></trkpt><trkpt lat="43.7075693797061" lon="11.747838463006511"><ele>511.3333333333333</ele><time>2026-05-04T15:24:33.001Z</time></trkpt><trkpt lat="43.70751628419078" lon="11.747757409991166"><ele>515.6666666666666</ele><time>2026-05-04T15:24:35.001Z</time></trkpt><trkpt lat="43.70743233952745" lon="11.747667376482863"><ele>520.0</ele><time>2026-05-04T15:24:37.001Z</time></trkpt><trkpt lat="43.70734539450426" lon="11.747621500702941"><ele>524.3333333333333</ele><time>2026-05-04T15:24:39.001Z</time></trkpt><trkpt lat="43.70729366052261" lon="11.747568211470018"><ele>528.6666666666666</ele><time>2026-05-04T15:24:42.001Z</time></trkpt><trkpt lat="43.70722420650076" lon="11.747462533277123"><ele>533.0</ele><time>2026-05-04T15:25:03.001Z</time></trkpt><trkpt lat="43.707158330506786" lon="11.747345037702358"><ele>533.0</ele><time>2026-05-04T15:25:05.001Z</time></trkpt><trkpt lat="43.707112620857146" lon="11.747228498730744"><ele>533.0</ele><time>2026-05-04T15:25:07.001Z</time></trkpt><trkpt lat="43.70708161929724" lon="11.747136115077014"><ele>533.0</ele><time>2026-05-04T15:25:10.001Z</time></trkpt><trkpt lat="43.70704301542468" lon="11.747044812274957"><ele>533.0</ele><time>2026-05-04T15:25:14.001Z</time></trkpt><trkpt lat="43.706983178477266" lon="11.746946578154494"><ele>533.0</ele><time>2026-05-04T15:25:17.001Z</time></trkpt><trkpt lat="43.706929593728375" lon="11.746842293519391"><ele>533.0</ele><time>2026-05-04T15:25:19.001Z</time></trkpt><trkpt lat="43.706879909445185" lon="11.746742339323903"><ele>535.0</ele><time>2026-05-04T15:25:21.001Z</time></trkpt><trkpt lat="43.70682810549624" lon="11.74664047832492"><ele>537.0</ele><time>2026-05-04T15:25:23.001Z</time></trkpt><trkpt lat="43.706791596926585" lon="11.746540700566122"><ele>539.0</ele><time>2026-05-04T15:25:25.001Z</time></trkpt><trkpt lat="43.70672256059026" lon="11.74642494610804"><ele>541.0</ele><time>2026-05-04T15:25:27.001Z</time></trkpt><trkpt lat="43.706657444281376" lon="11.746289193590279"><ele>543.0</ele><time>2026-05-04T15:25:29.001Z</time></trkpt><trkpt lat="43.70661468286677" lon="11.74620280769323"><ele>543.0</ele><time>2026-05-04T15:25:31.001Z</time></trkpt><trkpt lat="43.70657390820691" lon="11.746129912156649"><ele>543.0</ele><time>2026-05-04T15:26:06.001Z</time></trkpt><trkpt lat="43.70653011382884" lon="11.74606390896391"><ele>543.0</ele><time>2026-05-04T15:26:08.001Z</time></trkpt><trkpt lat="43.70651625338027" lon="11.74596119246405"><ele>543.0</ele><time>2026-05-04T15:26:10.001Z</time></trkpt><trkpt lat="43.70649393605781" lon="11.74586129369895"><ele>543.0</ele><time>2026-05-04T15:26:12.001Z</time></trkpt><trkpt lat="43.70647465671837" lon="11.745768884206763"><ele>543.0</ele><time>2026-05-04T15:26:14.001Z</time></trkpt><trkpt lat="43.706421585961024" lon="11.745680105365768"><ele>543.0</ele><time>2026-05-04T15:26:18.001Z</time></trkpt><trkpt lat="43.706387976762116" lon="11.745590004974654"><ele>541.3333333333334</ele><time>2026-05-04T15:26:21.001Z</time></trkpt><trkpt lat="43.706378485842656" lon="11.74548781937309"><ele>539.6666666666666</ele><time>2026-05-04T15:26:47.001Z</time></trkpt><trkpt lat="43.70637285130302" lon="11.74539775537643"><ele>538.0</ele><time>2026-05-04T15:27:04.001Z</time></trkpt><trkpt lat="43.70638051633212" lon="11.745301069337838"><ele>536.3333333333333</ele><time>2026-05-04T15:31:42Z</time></trkpt><trkpt lat="43.70637226256508" lon="11.745195368428462"><ele>534.6666666666666</ele><time>2026-05-04T15:31:44Z</time></trkpt><trkpt lat="43.70636213626607" lon="11.745077928950979"><ele>533.0</ele><time>2026-05-04T15:31:46Z</time></trkpt><trkpt lat="43.706359495691714" lon="11.744929991822595"><ele>532.3333333333333</ele><time>2026-05-04T15:31:48Z</time></trkpt><trkpt lat="43.70635894035389" lon="11.744807932674707"><ele>531.6666666666666</ele><time>2026-05-04T15:31:50Z</time></trkpt><trkpt lat="43.706376133574565" lon="11.744712350626013"><ele>531.0</ele><time>2026-05-04T15:31:52Z</time></trkpt><trkpt lat="43.7064110193925" lon="11.744565850977853"><ele>530.3333333333334</ele><time>2026-05-04T15:31:54Z</time></trkpt><trkpt lat="43.70640192738301" lon="11.744449564381577"><ele>529.6666666666667</ele><time>2026-05-04T15:31:57Z</time></trkpt><trkpt lat="43.706359394568686" lon="11.744342812498088"><ele>529.0</ele><time>2026-05-04T15:31:59Z</time></trkpt><trkpt lat="43.706310340034854" lon="11.74424791238084"><ele>530.5</ele><time>2026-05-04T15:32:01Z</time></trkpt><trkpt lat="43.70628829716386" lon="11.744153065023344"><ele>532.0</ele><time>2026-05-04T15:32:09Z</time></trkpt><trkpt lat="43.706254200035524" lon="11.74406115015098"><ele>533.5</ele><time>2026-05-04T15:32:12Z</time></trkpt><trkpt lat="43.706177685930854" lon="11.743943082704032"><ele>535.0</ele><time>2026-05-04T15:32:14Z</time></trkpt><trkpt lat="43.706104113992154" lon="11.743834773893434"><ele>536.5</ele><time>2026-05-04T15:32:16Z</time></trkpt><trkpt lat="43.70604549203998" lon="11.743770261952319"><ele>538.0</ele><time>2026-05-04T15:32:18Z</time></trkpt><trkpt lat="43.70599410838274" lon="11.743688034893065"><ele>541.6666666666667</ele><time>2026-05-04T15:32:20Z</time></trkpt><trkpt lat="43.70595345506496" lon="11.743581373771782"><ele>545.3333333333334</ele><time>2026-05-04T15:32:22Z</time></trkpt><trkpt lat="43.70594203769002" lon="11.74344888454636"><ele>549.0</ele><time>2026-05-04T15:32:24Z</time></trkpt><trkpt lat="43.70591740629275" lon="11.74332715768472"><ele>552.6666666666666</ele><time>2026-05-04T15:32:26Z</time></trkpt><trkpt lat="43.705863589784606" lon="11.743235296832744"><ele>556.3333333333333</ele><time>2026-05-04T15:32:28Z</time></trkpt><trkpt lat="43.705813311010836" lon="11.743163528149152"><ele>560.0</ele><time>2026-05-04T15:32:30Z</time></trkpt><trkpt lat="43.705760244107665" lon="11.743070085453175"><ele>560.0</ele><time>2026-05-04T15:32:32Z</time></trkpt><trkpt lat="43.70571506183122" lon="11.742993971370499"><ele>560.0</ele><time>2026-05-04T15:32:40Z</time></trkpt><trkpt lat="43.7056743618143" lon="11.742888839660715"><ele>560.0</ele><time>2026-05-04T15:32:44Z</time></trkpt><trkpt lat="43.70565938491163" lon="11.742788002552404"><ele>560.0</ele><time>2026-05-04T15:32:50Z</time></trkpt><trkpt lat="43.70566890121635" lon="11.742682641537526"><ele>560.0</ele><time>2026-05-04T15:32:54Z</time></trkpt><trkpt lat="43.70576108957234" lon="11.742653814849419"><ele>560.0</ele><time>2026-05-04T15:32:57Z</time></trkpt><trkpt lat="43.705849002541605" lon="11.742657280066611"><ele>560.1666666666666</ele><time>2026-05-04T15:32:59Z</time></trkpt><trkpt lat="43.70593376254529" lon="11.742636312983763"><ele>560.3333333333333</ele><time>2026-05-04T15:33:02Z</time></trkpt><trkpt lat="43.705996490752625" lon="11.742614037880019"><ele>560.5</ele><time>2026-05-04T15:33:04Z</time></trkpt><trkpt lat="43.706085347778455" lon="11.74259861200776"><ele>560.6666666666666</ele><time>2026-05-04T15:33:07Z</time></trkpt><trkpt lat="43.70616740336521" lon="11.74261846796844"><ele>560.8333333333334</ele><time>2026-05-04T15:33:20Z</time></trkpt><trkpt lat="43.70624284384982" lon="11.742618371496127"><ele>561.0</ele><time>2026-05-04T15:33:24Z</time></trkpt><trkpt lat="43.7063193866906" lon="11.742615339315364"><ele>559.8333333333334</ele><time>2026-05-04T15:33:32Z</time></trkpt><trkpt lat="43.70644033110859" lon="11.742653471773867"><ele>558.6666666666666</ele><time>2026-05-04T15:33:37Z</time></trkpt><trkpt lat="43.70651767179434" lon="11.74266948689306"><ele>557.5</ele><time>2026-05-04T15:33:39Z</time></trkpt><trkpt lat="43.706585195596254" lon="11.742691072852063"><ele>556.3333333333333</ele><time>2026-05-04T15:33:44Z</time></trkpt><trkpt lat="43.7066704434615" lon="11.742712241476648"><ele>555.1666666666666</ele><time>2026-05-04T15:33:47Z</time></trkpt><trkpt lat="43.70674524075491" lon="11.74271714334649"><ele>554.0</ele><time>2026-05-04T15:33:52Z</time></trkpt><trkpt lat="43.70681548335412" lon="11.74266334642297"><ele>555.8333333333333</ele><time>2026-05-04T15:33:55Z</time></trkpt><trkpt lat="43.7068666729543" lon="11.74258102140955"><ele>557.6666666666666</ele><time>2026-05-04T15:33:58Z</time></trkpt><trkpt lat="43.70692975111047" lon="11.742501572258798"><ele>559.5</ele><time>2026-05-04T15:34:02Z</time></trkpt><trkpt lat="43.70698784255414" lon="11.742441364223248"><ele>561.3333333333334</ele><time>2026-05-04T15:34:18Z</time></trkpt><trkpt lat="43.70704304304087" lon="11.742348778315405"><ele>563.1666666666667</ele><time>2026-05-04T15:34:20Z</time></trkpt><trkpt lat="43.707101112143356" lon="11.742312074671963"><ele>565.0</ele><time>2026-05-04T15:34:22Z</time></trkpt><trkpt lat="43.70715074786494" lon="11.742148083769221"><ele>565.0</ele><time>2026-05-04T15:34:24Z</time></trkpt><trkpt lat="43.70723758510403" lon="11.742099756150502"><ele>565.0</ele><time>2026-05-04T15:34:26Z</time></trkpt><trkpt lat="43.707294662054004" lon="11.742049507473244"><ele>565.0</ele><time>2026-05-04T15:34:28Z</time></trkpt><trkpt lat="43.70735243258626" lon="11.741966608164859"><ele>565.0</ele><time>2026-05-04T15:34:31Z</time></trkpt><trkpt lat="43.707304608484286" lon="11.741873972859594"><ele>565.0</ele><time>2026-05-04T15:34:46Z</time></trkpt><trkpt lat="43.70728118817096" lon="11.741753772132196"><ele>565.0</ele><time>2026-05-04T15:34:48Z</time></trkpt><trkpt lat="43.707205331977505" lon="11.7416948970508"><ele>567.6666666666667</ele><time>2026-05-04T15:34:50Z</time></trkpt><trkpt lat="43.707188290593216" lon="11.741594761096335"><ele>570.3333333333334</ele><time>2026-05-04T15:34:52Z</time></trkpt><trkpt lat="43.70720807795255" lon="11.74147553391339"><ele>573.0</ele><time>2026-05-04T15:34:54Z</time></trkpt><trkpt lat="43.70718828329362" lon="11.741388299584022"><ele>575.6666666666666</ele><time>2026-05-04T15:34:56Z</time></trkpt><trkpt lat="43.70712072992064" lon="11.741372852910805"><ele>578.3333333333333</ele><time>2026-05-04T15:34:58Z</time></trkpt><trkpt lat="43.707029048202095" lon="11.741355371344996"><ele>581.0</ele><time>2026-05-04T15:35:00Z</time></trkpt><trkpt lat="43.70694662273015" lon="11.741287037034512"><ele>581.0</ele><time>2026-05-04T15:35:02Z</time></trkpt><trkpt lat="43.70690245571467" lon="11.741160882158486"><ele>581.0</ele><time>2026-05-04T15:35:04Z</time></trkpt><trkpt lat="43.70686007628863" lon="11.740989733437187"><ele>581.0</ele><time>2026-05-04T15:35:06Z</time></trkpt><trkpt lat="43.7068227146401" lon="11.740803959763593"><ele>581.0</ele><time>2026-05-04T15:35:08Z</time></trkpt><trkpt lat="43.70679207647704" lon="11.740706062457262"><ele>581.0</ele><time>2026-05-04T15:35:09Z</time></trkpt><trkpt lat="43.706753607044085" lon="11.740606836907546"><ele>582.6666666666666</ele><time>2026-05-04T15:35:10Z</time></trkpt><trkpt lat="43.70670785541818" lon="11.740513966573138"><ele>584.3333333333333</ele><time>2026-05-04T15:35:11Z</time></trkpt><trkpt lat="43.70666287657433" lon="11.74044782529883"><ele>586.0</ele><time>2026-05-04T15:35:12Z</time></trkpt><trkpt lat="43.70664554589411" lon="11.740351281474343"><ele>587.6666666666666</ele><time>2026-05-04T15:35:14Z</time></trkpt><trkpt lat="43.706744877210355" lon="11.740318544706247"><ele>589.3333333333334</ele><time>2026-05-04T15:35:16Z</time></trkpt><trkpt lat="43.70683014303083" lon="11.740360780996681"><ele>591.0</ele><time>2026-05-04T15:35:18Z</time></trkpt><trkpt lat="43.70689854089101" lon="11.740386693448439"><ele>591.0</ele><time>2026-05-04T15:35:19Z</time></trkpt><trkpt lat="43.706984896054394" lon="11.740399278117113"><ele>591.0</ele><time>2026-05-04T15:35:20Z</time></trkpt><trkpt lat="43.70706831086611" lon="11.74043170762762"><ele>591.0</ele><time>2026-05-04T15:35:21Z</time></trkpt><trkpt lat="43.707151370167814" lon="11.74046251555499"><ele>591.0</ele><time>2026-05-04T15:35:22Z</time></trkpt><trkpt lat="43.70722168249035" lon="11.740514161435899"><ele>591.0</ele><time>2026-05-04T15:35:23Z</time></trkpt><trkpt lat="43.707293179216734" lon="11.740522891787863"><ele>591.0</ele><time>2026-05-04T15:35:24Z</time></trkpt><trkpt lat="43.70736592989349" lon="11.740545323176832"><ele>591.0</ele><time>2026-05-04T15:35:28Z</time></trkpt><trkpt lat="43.70732990377545" lon="11.740434605105225"><ele>591.0</ele><time>2026-05-04T15:35:47Z</time></trkpt><trkpt lat="43.707242849605905" lon="11.740378505481337"><ele>591.0</ele><time>2026-05-04T15:35:49Z</time></trkpt><trkpt lat="43.707135441756805" lon="11.74030939301452"><ele>591.0</ele><time>2026-05-04T15:35:51Z</time></trkpt><trkpt lat="43.70702274582668" lon="11.740238168513706"><ele>591.0</ele><time>2026-05-04T15:35:53Z</time></trkpt><trkpt lat="43.70693783584842" lon="11.74017868473961"><ele>591.0</ele><time>2026-05-04T15:35:55Z</time></trkpt><trkpt lat="43.706865820571814" lon="11.740111110449819"><ele>591.0</ele><time>2026-05-04T15:35:58Z</time></trkpt><trkpt lat="43.70681176832795" lon="11.740049698667974"><ele>591.0</ele><time>2026-05-04T15:36:01Z</time></trkpt><trkpt lat="43.70662019765046" lon="11.740345953053398"><ele>591.0</ele><time>2026-05-04T15:36:07Z</time></trkpt><trkpt lat="43.70664199319562" lon="11.740434072046071"><ele>591.0</ele><time>2026-05-04T15:36:10Z</time></trkpt><trkpt lat="43.70668171142677" lon="11.740531235914258"><ele>591.0</ele><time>2026-05-04T15:36:13Z</time></trkpt><trkpt lat="43.706721756860205" lon="11.740615121373661"><ele>591.0</ele><time>2026-05-04T15:36:15Z</time></trkpt><trkpt lat="43.70676754634717" lon="11.74072459620462"><ele>591.0</ele><time>2026-05-04T15:36:17Z</time></trkpt><trkpt lat="43.70680086430543" lon="11.740833433966584"><ele>591.0</ele><time>2026-05-04T15:36:19Z</time></trkpt><trkpt lat="43.70683005340724" lon="11.740928940545228"><ele>591.0</ele><time>2026-05-04T15:36:21Z</time></trkpt><trkpt lat="43.70686184308869" lon="11.741037622961272"><ele>591.0</ele><time>2026-05-04T15:36:24Z</time></trkpt><trkpt lat="43.706886065976306" lon="11.740954093235498"><ele>591.0</ele><time>2026-05-04T15:36:28Z</time></trkpt><trkpt lat="43.70683336109024" lon="11.740860625359428"><ele>591.0</ele><time>2026-05-04T15:36:30Z</time></trkpt><trkpt lat="43.70679657145609" lon="11.740717453710548"><ele>591.0</ele><time>2026-05-04T15:36:32Z</time></trkpt><trkpt lat="43.70673677985511" lon="11.740574216074979"><ele>591.0</ele><time>2026-05-04T15:36:34Z</time></trkpt><trkpt lat="43.70666394318468" lon="11.740461380969883"><ele>591.0</ele><time>2026-05-04T15:36:36Z</time></trkpt><trkpt lat="43.70662987078828" lon="11.740348754018179"><ele>591.0</ele><time>2026-05-04T15:36:38Z</time></trkpt><trkpt lat="43.70670170453862" lon="11.740333893174974"><ele>591.0</ele><time>2026-05-04T15:37:03Z</time></trkpt><trkpt lat="43.706779598329646" lon="11.74034652221242"><ele>591.0</ele><time>2026-05-04T15:37:05Z</time></trkpt><trkpt lat="43.706887245875194" lon="11.740382341422293"><ele>591.0</ele><time>2026-05-04T15:37:07Z</time></trkpt><trkpt lat="43.70695823659831" lon="11.740409694421361"><ele>591.0</ele><time>2026-05-04T15:37:08Z</time></trkpt><trkpt lat="43.70703241104003" lon="11.740438274116816"><ele>591.0</ele><time>2026-05-04T15:37:09Z</time></trkpt><trkpt lat="43.707115401127666" lon="11.740470739090558"><ele>591.0</ele><time>2026-05-04T15:37:10Z</time></trkpt><trkpt lat="43.70719493443496" lon="11.740480362147297"><ele>591.0</ele><time>2026-05-04T15:37:11Z</time></trkpt><trkpt lat="43.7072589403774" lon="11.740510958874566"><ele>591.0</ele><time>2026-05-04T15:37:12Z</time></trkpt><trkpt lat="43.70732244473251" lon="11.740527104182547"><ele>591.0</ele><time>2026-05-04T15:37:14Z</time></trkpt><trkpt lat="43.70731571408444" lon="11.740406409214174"><ele>591.0</ele><time>2026-05-04T15:37:19Z</time></trkpt><trkpt lat="43.70724949055464" lon="11.7403758755714"><ele>591.0</ele><time>2026-05-04T15:37:20Z</time></trkpt><trkpt lat="43.70713916905513" lon="11.740316554535351"><ele>591.0</ele><time>2026-05-04T15:37:22Z</time></trkpt><trkpt lat="43.70702350840841" lon="11.740249770263993"><ele>591.0</ele><time>2026-05-04T15:37:24Z</time></trkpt><trkpt lat="43.70692341833534" lon="11.740174269618702"><ele>591.0</ele><time>2026-05-04T15:37:26Z</time></trkpt><trkpt lat="43.7068827829078" lon="11.740088136235453"><ele>591.0</ele><time>2026-05-04T15:37:48Z</time></trkpt><trkpt lat="43.706938140908825" lon="11.739992104628149"><ele>594.5</ele><time>2026-05-04T15:37:49Z</time></trkpt><trkpt lat="43.70701456068569" lon="11.739870030089358"><ele>598.0</ele><time>2026-05-04T15:37:51Z</time></trkpt><trkpt lat="43.707078147377175" lon="11.739745649076733"><ele>601.5</ele><time>2026-05-04T15:37:53Z</time></trkpt><trkpt lat="43.70715645307319" lon="11.739609758916433"><ele>605.0</ele><time>2026-05-04T15:37:55Z</time></trkpt><trkpt lat="43.70722933514954" lon="11.73949365326907"><ele>605.0</ele><time>2026-05-04T15:37:57Z</time></trkpt><trkpt lat="43.70725885562753" lon="11.739393471249562"><ele>605.0</ele><time>2026-05-04T15:37:59Z</time></trkpt><trkpt lat="43.707328198803935" lon="11.739336419485682"><ele>605.0</ele><time>2026-05-04T15:38:08Z</time></trkpt><trkpt lat="43.70734357724826" lon="11.739424601050692"><ele>605.0</ele><time>2026-05-04T15:38:39Z</time></trkpt><trkpt lat="43.70728250361018" lon="11.739386617907616"><ele>605.0</ele><time>2026-05-04T15:38:42Z</time></trkpt><trkpt lat="43.70723730532095" lon="11.7394661203879"><ele>605.0</ele><time>2026-05-04T15:43:53.001Z</time></trkpt><trkpt lat="43.707192248354545" lon="11.739570684099494"><ele>605.0</ele><time>2026-05-04T15:43:55.001Z</time></trkpt><trkpt lat="43.70714870353607" lon="11.739645973108798"><ele>605.0</ele><time>2026-05-04T15:43:57.001Z</time></trkpt><trkpt lat="43.707088946523974" lon="11.739738528724141"><ele>605.0</ele><time>2026-05-04T15:44:00.001Z</time></trkpt><trkpt lat="43.70703664082702" lon="11.739839127936905"><ele>605.0</ele><time>2026-05-04T15:44:03.001Z</time></trkpt><trkpt lat="43.70699747124487" lon="11.739923707266367"><ele>605.0</ele><time>2026-05-04T15:44:05.001Z</time></trkpt><trkpt lat="43.706959212088265" lon="11.740005100929604"><ele>605.0</ele><time>2026-05-04T15:44:07.001Z</time></trkpt><trkpt lat="43.706918852965316" lon="11.740106862726881"><ele>605.0</ele><time>2026-05-04T15:44:10.001Z</time></trkpt><trkpt lat="43.70696003770373" lon="11.740216149584933"><ele>605.0</ele><time>2026-05-04T15:44:14.001Z</time></trkpt><trkpt lat="43.70701696000933" lon="11.740261510547636"><ele>605.0</ele><time>2026-05-04T15:44:15.001Z</time></trkpt><trkpt lat="43.70706640126084" lon="11.740316256059149"><ele>605.0</ele><time>2026-05-04T15:44:16.001Z</time></trkpt><trkpt lat="43.707129730112555" lon="11.740333830216182"><ele>605.0</ele><time>2026-05-04T15:44:17.001Z</time></trkpt><trkpt lat="43.70719576675111" lon="11.740376140469815"><ele>605.0</ele><time>2026-05-04T15:44:18.001Z</time></trkpt><trkpt lat="43.70725982768909" lon="11.74044011734008"><ele>605.0</ele><time>2026-05-04T15:44:19.001Z</time></trkpt><trkpt lat="43.70733199698718" lon="11.74048662500029"><ele>602.2</ele><time>2026-05-04T15:44:20.001Z</time></trkpt><trkpt lat="43.70742081786711" lon="11.740523958971883"><ele>599.4</ele><time>2026-05-04T15:44:21.001Z</time></trkpt><trkpt lat="43.707505967616655" lon="11.740570606759622"><ele>596.6</ele><time>2026-05-04T15:44:22.001Z</time></trkpt><trkpt lat="43.707593027291765" lon="11.740608295846005"><ele>593.8</ele><time>2026-05-04T15:44:23.001Z</time></trkpt><trkpt lat="43.70767749361361" lon="11.740653380237251"><ele>591.0</ele><time>2026-05-04T15:44:24.001Z</time></trkpt><trkpt lat="43.70776968710223" lon="11.7406693312408"><ele>590.0</ele><time>2026-05-04T15:44:25.001Z</time></trkpt><trkpt lat="43.70785770998578" lon="11.740675715250637"><ele>589.0</ele><time>2026-05-04T15:44:26.001Z</time></trkpt><trkpt lat="43.70794649155967" lon="11.740677997585147"><ele>588.0</ele><time>2026-05-04T15:44:27.001Z</time></trkpt><trkpt lat="43.708040522550206" lon="11.740678951474393"><ele>587.0</ele><time>2026-05-04T15:44:28.001Z</time></trkpt><trkpt lat="43.70812944290889" lon="11.740648358152313"><ele>586.0</ele><time>2026-05-04T15:44:29.001Z</time></trkpt><trkpt lat="43.70821625535223" lon="11.740652099663244"><ele>585.0</ele><time>2026-05-04T15:44:30.001Z</time></trkpt><trkpt lat="43.7082911285905" lon="11.740644236117534"><ele>585.0</ele><time>2026-05-04T15:44:31.001Z</time></trkpt><trkpt lat="43.7083789953586" lon="11.740629148963183"><ele>585.0</ele><time>2026-05-04T15:44:32.001Z</time></trkpt><trkpt lat="43.70847789175065" lon="11.740603194729873"><ele>585.0</ele><time>2026-05-04T15:44:33.001Z</time></trkpt><trkpt lat="43.708567699377326" lon="11.740557869647205"><ele>585.0</ele><time>2026-05-04T15:44:34.001Z</time></trkpt><trkpt lat="43.70865675228383" lon="11.74050658815021"><ele>585.0</ele><time>2026-05-04T15:44:35.001Z</time></trkpt><trkpt lat="43.70874228307673" lon="11.740457757781526"><ele>583.6</ele><time>2026-05-04T15:44:36.001Z</time></trkpt><trkpt lat="43.70882823399772" lon="11.740399927992183"><ele>582.2</ele><time>2026-05-04T15:44:37.001Z</time></trkpt><trkpt lat="43.70891828811627" lon="11.740348597987188"><ele>580.8</ele><time>2026-05-04T15:44:38.001Z</time></trkpt><trkpt lat="43.70901691650057" lon="11.740297156399361"><ele>579.4</ele><time>2026-05-04T15:44:39.001Z</time></trkpt><trkpt lat="43.70912462472542" lon="11.740250157903276"><ele>578.0</ele><time>2026-05-04T15:44:40.001Z</time></trkpt><trkpt lat="43.709231631414745" lon="11.74022250549944"><ele>578.0</ele><time>2026-05-04T15:44:41.001Z</time></trkpt><trkpt lat="43.70933905131956" lon="11.74022227182851"><ele>578.0</ele><time>2026-05-04T15:44:42.001Z</time></trkpt><trkpt lat="43.709435969569654" lon="11.74024209126258"><ele>578.0</ele><time>2026-05-04T15:44:43.001Z</time></trkpt><trkpt lat="43.70952581031605" lon="11.74028244646964"><ele>578.0</ele><time>2026-05-04T15:44:44.001Z</time></trkpt><trkpt lat="43.70961050362984" lon="11.740336196004183"><ele>578.0</ele><time>2026-05-04T15:44:45.001Z</time></trkpt><trkpt lat="43.709690370620244" lon="11.74040780176333"><ele>578.8</ele><time>2026-05-04T15:44:46.001Z</time></trkpt><trkpt lat="43.709765086228835" lon="11.740506218938426"><ele>579.5999999999999</ele><time>2026-05-04T15:44:47.001Z</time></trkpt><trkpt lat="43.70979732496317" lon="11.74064113751595"><ele>580.4000000000001</ele><time>2026-05-04T15:44:48.001Z</time></trkpt><trkpt lat="43.709854685320046" lon="11.740763852048724"><ele>581.2</ele><time>2026-05-04T15:44:49.001Z</time></trkpt><trkpt lat="43.70988931677784" lon="11.740899462240465"><ele>582.0</ele><time>2026-05-04T15:44:50.001Z</time></trkpt><trkpt lat="43.70993240000059" lon="11.741036334120867"><ele>579.5</ele><time>2026-05-04T15:44:51.001Z</time></trkpt><trkpt lat="43.7099802001689" lon="11.741170308961463"><ele>577.0</ele><time>2026-05-04T15:44:52.001Z</time></trkpt><trkpt lat="43.71002748375725" lon="11.741308832971113"><ele>574.5</ele><time>2026-05-04T15:44:53.001Z</time></trkpt><trkpt lat="43.710078614404146" lon="11.741455245269973"><ele>572.0</ele><time>2026-05-04T15:44:54.001Z</time></trkpt><trkpt lat="43.71013086097018" lon="11.741596727676932"><ele>572.0</ele><time>2026-05-04T15:44:55.001Z</time></trkpt><trkpt lat="43.71018269173328" lon="11.741736274106827"><ele>572.0</ele><time>2026-05-04T15:44:56.001Z</time></trkpt><trkpt lat="43.710226090455336" lon="11.741862781424317"><ele>572.0</ele><time>2026-05-04T15:44:57.001Z</time></trkpt><trkpt lat="43.710271633547414" lon="11.74198966767635"><ele>572.0</ele><time>2026-05-04T15:44:58.001Z</time></trkpt><trkpt lat="43.71031266451449" lon="11.742116464294059"><ele>572.0</ele><time>2026-05-04T15:44:59.001Z</time></trkpt><trkpt lat="43.71035705537904" lon="11.742246278047878"><ele>571.4</ele><time>2026-05-04T15:45:00.001Z</time></trkpt><trkpt lat="43.71040054275286" lon="11.742373707182526"><ele>570.8000000000001</ele><time>2026-05-04T15:45:01.001Z</time></trkpt><trkpt lat="43.710441607946166" lon="11.742486706654141"><ele>570.2</ele><time>2026-05-04T15:45:02.001Z</time></trkpt><trkpt lat="43.71048923238146" lon="11.742594996558605"><ele>569.6</ele><time>2026-05-04T15:45:03.001Z</time></trkpt><trkpt lat="43.71054713634462" lon="11.742691852818414"><ele>569.0</ele><time>2026-05-04T15:45:04.001Z</time></trkpt><trkpt lat="43.71062462783465" lon="11.742767847290406"><ele>567.0</ele><time>2026-05-04T15:45:05.001Z</time></trkpt><trkpt lat="43.710708657505336" lon="11.742826619974034"><ele>565.0</ele><time>2026-05-04T15:45:06.001Z</time></trkpt><trkpt lat="43.710798799777926" lon="11.74287126145791"><ele>563.0</ele><time>2026-05-04T15:45:07.001Z</time></trkpt><trkpt lat="43.710892261558605" lon="11.742910242024648"><ele>561.0</ele><time>2026-05-04T15:45:08.001Z</time></trkpt><trkpt lat="43.71099793496809" lon="11.74293174304839"><ele>559.0</ele><time>2026-05-04T15:45:09.001Z</time></trkpt><trkpt lat="43.71111176734865" lon="11.742953706416039"><ele>559.0</ele><time>2026-05-04T15:45:10.001Z</time></trkpt><trkpt lat="43.71122018068792" lon="11.742979021908205"><ele>559.0</ele><time>2026-05-04T15:45:11.001Z</time></trkpt><trkpt lat="43.71132562607853" lon="11.743001262335044"><ele>559.0</ele><time>2026-05-04T15:45:12.001Z</time></trkpt><trkpt lat="43.71143466020645" lon="11.743028125670625"><ele>559.0</ele><time>2026-05-04T15:45:13.001Z</time></trkpt><trkpt lat="43.71154785447195" lon="11.743057775481889"><ele>559.0</ele><time>2026-05-04T15:45:14.001Z</time></trkpt><trkpt lat="43.711658406631365" lon="11.743081905486669"><ele>559.0</ele><time>2026-05-04T15:45:15.001Z</time></trkpt><trkpt lat="43.7117738092575" lon="11.743110634556688"><ele>559.0</ele><time>2026-05-04T15:45:16.001Z</time></trkpt><trkpt lat="43.711890319525175" lon="11.743150256320387"><ele>559.0</ele><time>2026-05-04T15:45:17.001Z</time></trkpt><trkpt lat="43.71200809546823" lon="11.74318987764736"><ele>559.0</ele><time>2026-05-04T15:45:18.001Z</time></trkpt><trkpt lat="43.71213109392289" lon="11.743229553852533"><ele>558.5</ele><time>2026-05-04T15:45:19.001Z</time></trkpt><trkpt lat="43.712252278444" lon="11.743289147303607"><ele>558.0</ele><time>2026-05-04T15:45:20.001Z</time></trkpt><trkpt lat="43.712377080348695" lon="11.743367418140933"><ele>557.5</ele><time>2026-05-04T15:45:21.001Z</time></trkpt><trkpt lat="43.71248893738282" lon="11.743448793056807"><ele>557.0</ele><time>2026-05-04T15:45:22.001Z</time></trkpt><trkpt lat="43.71259475307945" lon="11.743540989693539"><ele>556.25</ele><time>2026-05-04T15:45:23.001Z</time></trkpt><trkpt lat="43.712704925660724" lon="11.743640490407325"><ele>555.5</ele><time>2026-05-04T15:45:24.001Z</time></trkpt><trkpt lat="43.71282002486955" lon="11.743752621402907"><ele>554.75</ele><time>2026-05-04T15:45:25.001Z</time></trkpt><trkpt lat="43.712926257601474" lon="11.743860041472487"><ele>554.0</ele><time>2026-05-04T15:45:26Z</time></trkpt><trkpt lat="43.71302688216471" lon="11.743969679476406"><ele>554.0</ele><time>2026-05-04T15:45:27Z</time></trkpt><trkpt lat="43.71312408063858" lon="11.744081384197754"><ele>554.0</ele><time>2026-05-04T15:45:28Z</time></trkpt><trkpt lat="43.71321375618962" lon="11.744185913929703"><ele>554.0</ele><time>2026-05-04T15:45:29Z</time></trkpt><trkpt lat="43.713303845115576" lon="11.744282051437763"><ele>554.0</ele><time>2026-05-04T15:45:30Z</time></trkpt><trkpt lat="43.713396548542974" lon="11.744375214420584"><ele>553.6</ele><time>2026-05-04T15:45:31Z</time></trkpt><trkpt lat="43.71348684223336" lon="11.74445888696592"><ele>553.2</ele><time>2026-05-04T15:45:32Z</time></trkpt><trkpt lat="43.713577302656944" lon="11.744539999226248"><ele>552.8000000000001</ele><time>2026-05-04T15:45:33Z</time></trkpt><trkpt lat="43.71366475941056" lon="11.744621472340496"><ele>552.4</ele><time>2026-05-04T15:45:34Z</time></trkpt><trkpt lat="43.713752891642045" lon="11.74471438281087"><ele>552.0</ele><time>2026-05-04T15:45:35Z</time></trkpt><trkpt lat="43.713833829911536" lon="11.744813513687191"><ele>552.0</ele><time>2026-05-04T15:45:36Z</time></trkpt><trkpt lat="43.713912280290835" lon="11.74491446344909"><ele>552.0</ele><time>2026-05-04T15:45:37Z</time></trkpt><trkpt lat="43.713990228481116" lon="11.74501629239361"><ele>552.0</ele><time>2026-05-04T15:45:38Z</time></trkpt><trkpt lat="43.71405437663333" lon="11.745146756330897"><ele>552.0</ele><time>2026-05-04T15:45:39Z</time></trkpt><trkpt lat="43.71413842484505" lon="11.745258627046592"><ele>552.0</ele><time>2026-05-04T15:45:40Z</time></trkpt><trkpt lat="43.71420804449104" lon="11.745387943419358"><ele>550.0</ele><time>2026-05-04T15:45:41Z</time></trkpt><trkpt lat="43.71427745043994" lon="11.745526341632027"><ele>548.0</ele><time>2026-05-04T15:45:42Z</time></trkpt><trkpt lat="43.71434577903126" lon="11.745656665408115"><ele>546.0</ele><time>2026-05-04T15:45:43Z</time></trkpt><trkpt lat="43.714416618044346" lon="11.745794680717623"><ele>544.0</ele><time>2026-05-04T15:45:44Z</time></trkpt><trkpt lat="43.71449484138868" lon="11.745938308305853"><ele>540.0</ele><time>2026-05-04T15:45:45Z</time></trkpt><trkpt lat="43.71457374584165" lon="11.746086386622114"><ele>536.0</ele><time>2026-05-04T15:45:46Z</time></trkpt><trkpt lat="43.71465301153139" lon="11.74623508100087"><ele>532.0</ele><time>2026-05-04T15:45:47Z</time></trkpt><trkpt lat="43.71472117468258" lon="11.7463542041623"><ele>528.0</ele><time>2026-05-04T15:45:48Z</time></trkpt><trkpt lat="43.71477469060525" lon="11.746459283304768"><ele>528.0</ele><time>2026-05-04T15:45:49Z</time></trkpt><trkpt lat="43.714804837229075" lon="11.746564072508498"><ele>528.0</ele><time>2026-05-04T15:45:50Z</time></trkpt><trkpt lat="43.71484266814171" lon="11.746640670407773"><ele>528.0</ele><time>2026-05-04T15:45:51Z</time></trkpt><trkpt lat="43.71483351404744" lon="11.74674042847359"><ele>528.0</ele><time>2026-05-04T15:45:52Z</time></trkpt><trkpt lat="43.7147923534889" lon="11.746842368852755"><ele>528.0</ele><time>2026-05-04T15:45:53Z</time></trkpt><trkpt lat="43.71471280214735" lon="11.746920940358606"><ele>528.0</ele><time>2026-05-04T15:45:54Z</time></trkpt><trkpt lat="43.7146172812468" lon="11.74696267184267"><ele>526.1999999999999</ele><time>2026-05-04T15:45:55Z</time></trkpt><trkpt lat="43.714519644957875" lon="11.74697726930677"><ele>524.4</ele><time>2026-05-04T15:45:56Z</time></trkpt><trkpt lat="43.71441913245349" lon="11.746991843338025"><ele>522.5999999999999</ele><time>2026-05-04T15:45:57Z</time></trkpt><trkpt lat="43.71432575910084" lon="11.747021122089343"><ele>520.8</ele><time>2026-05-04T15:45:58Z</time></trkpt><trkpt lat="43.714235368231904" lon="11.747040524038722"><ele>519.0</ele><time>2026-05-04T15:45:59Z</time></trkpt><trkpt lat="43.71415630909815" lon="11.747055012218988"><ele>518.5</ele><time>2026-05-04T15:46:00Z</time></trkpt><trkpt lat="43.71406621714007" lon="11.74706905203074"><ele>518.0</ele><time>2026-05-04T15:46:01Z</time></trkpt><trkpt lat="43.71399038602775" lon="11.747090038233534"><ele>517.5</ele><time>2026-05-04T15:46:02Z</time></trkpt><trkpt lat="43.71391103747965" lon="11.74711328114922"><ele>517.0</ele><time>2026-05-04T15:46:03Z</time></trkpt><trkpt lat="43.71382700989505" lon="11.747141810041182"><ele>516.5</ele><time>2026-05-04T15:46:04Z</time></trkpt><trkpt lat="43.71374460377574" lon="11.74718507570691"><ele>516.0</ele><time>2026-05-04T15:46:05Z</time></trkpt><trkpt lat="43.713676530920836" lon="11.747247315749473"><ele>516.0</ele><time>2026-05-04T15:46:06Z</time></trkpt><trkpt lat="43.71362272304491" lon="11.747335340258873"><ele>516.0</ele><time>2026-05-04T15:46:07Z</time></trkpt><trkpt lat="43.71358171965496" lon="11.747434446543815"><ele>516.0</ele><time>2026-05-04T15:46:08Z</time></trkpt><trkpt lat="43.713560055852575" lon="11.747543329583566"><ele>516.0</ele><time>2026-05-04T15:46:09Z</time></trkpt><trkpt lat="43.71355424828189" lon="11.747665090267782"><ele>516.0</ele><time>2026-05-04T15:46:10Z</time></trkpt><trkpt lat="43.713563268130585" lon="11.747785778964477"><ele>516.0</ele><time>2026-05-04T15:46:11Z</time></trkpt><trkpt lat="43.71358652146038" lon="11.747893153579234"><ele>515.1666666666666</ele><time>2026-05-04T15:46:12Z</time></trkpt><trkpt lat="43.71362711951027" lon="11.747987785130901"><ele>514.3333333333334</ele><time>2026-05-04T15:46:13Z</time></trkpt><trkpt lat="43.71367428613115" lon="11.748058569508983"><ele>513.5</ele><time>2026-05-04T15:46:14Z</time></trkpt><trkpt lat="43.713751725204716" lon="11.748170459648222"><ele>512.6666666666667</ele><time>2026-05-04T15:46:16Z</time></trkpt><trkpt lat="43.713793129763424" lon="11.74823986247727"><ele>511.83333333333337</ele><time>2026-05-04T15:46:18Z</time></trkpt><trkpt lat="43.713853670745195" lon="11.748335174572006"><ele>511.0</ele><time>2026-05-04T15:46:46Z</time></trkpt><trkpt lat="43.71390553712123" lon="11.74842007278794"><ele>511.00000000000006</ele><time>2026-05-04T15:46:47Z</time></trkpt><trkpt lat="43.71395023710238" lon="11.74848149078157"><ele>511.0</ele><time>2026-05-04T15:46:48Z</time></trkpt><trkpt lat="43.714005228665215" lon="11.748557802954897"><ele>511.0</ele><time>2026-05-04T15:46:49Z</time></trkpt><trkpt lat="43.71406589712357" lon="11.748653548121075"><ele>511.0</ele><time>2026-05-04T15:46:50Z</time></trkpt><trkpt lat="43.71413327924063" lon="11.748753052367865"><ele>511.00000000000006</ele><time>2026-05-04T15:46:51Z</time></trkpt><trkpt lat="43.71420778499451" lon="11.7488594367458"><ele>511.0</ele><time>2026-05-04T15:46:52Z</time></trkpt><trkpt lat="43.71428575470631" lon="11.74897486048774"><ele>509.25</ele><time>2026-05-04T15:46:53Z</time></trkpt><trkpt lat="43.7143663216704" lon="11.749100871193106"><ele>507.5</ele><time>2026-05-04T15:46:54Z</time></trkpt><trkpt lat="43.714447339851105" lon="11.74922804587192"><ele>505.75</ele><time>2026-05-04T15:46:55Z</time></trkpt><trkpt lat="43.71452605397107" lon="11.749352077332796"><ele>504.0</ele><time>2026-05-04T15:46:56Z</time></trkpt><trkpt lat="43.714604462444335" lon="11.749467747353126"><ele>502.0</ele><time>2026-05-04T15:46:57Z</time></trkpt><trkpt lat="43.714690647219406" lon="11.749567388583761"><ele>500.0</ele><time>2026-05-04T15:46:58Z</time></trkpt><trkpt lat="43.71478642381229" lon="11.749648372834912"><ele>498.0</ele><time>2026-05-04T15:46:59Z</time></trkpt><trkpt lat="43.71488431295175" lon="11.749714811073305"><ele>496.0</ele><time>2026-05-04T15:47:00Z</time></trkpt><trkpt lat="43.71499410994506" lon="11.749765635908782"><ele>494.0</ele><time>2026-05-04T15:47:01Z</time></trkpt><trkpt lat="43.715104018838026" lon="11.749799472095974"><ele>494.0</ele><time>2026-05-04T15:47:02Z</time></trkpt><trkpt lat="43.715213373563046" lon="11.749808682591814"><ele>494.0</ele><time>2026-05-04T15:47:03Z</time></trkpt><trkpt lat="43.71531717617259" lon="11.749814770068513"><ele>494.0</ele><time>2026-05-04T15:47:04Z</time></trkpt><trkpt lat="43.7154071528376" lon="11.749826408919752"><ele>494.0</ele><time>2026-05-04T15:47:05Z</time></trkpt><trkpt lat="43.71548420615459" lon="11.749847254401855"><ele>494.0</ele><time>2026-05-04T15:47:06Z</time></trkpt><trkpt lat="43.71555840025589" lon="11.749913236125897"><ele>493.49999999999994</ele><time>2026-05-04T15:47:07Z</time></trkpt><trkpt lat="43.715594493889064" lon="11.75001084638557"><ele>493.0</ele><time>2026-05-04T15:47:08Z</time></trkpt><trkpt lat="43.71560857677264" lon="11.750127773685495"><ele>492.5</ele><time>2026-05-04T15:47:09Z</time></trkpt><trkpt lat="43.715623836719885" lon="11.750243811559036"><ele>492.0</ele><time>2026-05-04T15:47:10Z</time></trkpt><trkpt lat="43.71563279892934" lon="11.750377890668327"><ele>491.49999999999994</ele><time>2026-05-04T15:47:11Z</time></trkpt><trkpt lat="43.71564503728767" lon="11.75050171398403"><ele>491.0</ele><time>2026-05-04T15:47:12Z</time></trkpt><trkpt lat="43.715647510753676" lon="11.750629832494223"><ele>489.4</ele><time>2026-05-04T15:47:13Z</time></trkpt><trkpt lat="43.715638606307515" lon="11.750779619704048"><ele>487.8</ele><time>2026-05-04T15:47:14Z</time></trkpt><trkpt lat="43.71562842412933" lon="11.750913080675883"><ele>486.19999999999993</ele><time>2026-05-04T15:47:15Z</time></trkpt><trkpt lat="43.715594166087534" lon="11.751050442706136"><ele>484.59999999999997</ele><time>2026-05-04T15:47:16Z</time></trkpt><trkpt lat="43.71554075407424" lon="11.751187644940563"><ele>483.0</ele><time>2026-05-04T15:47:17Z</time></trkpt><trkpt lat="43.715477651552874" lon="11.75131105411005"><ele>483.0</ele><time>2026-05-04T15:47:18Z</time></trkpt><trkpt lat="43.7154051662533" lon="11.751429060474988"><ele>483.0</ele><time>2026-05-04T15:47:19Z</time></trkpt><trkpt lat="43.71533801498228" lon="11.75154671765238"><ele>483.0</ele><time>2026-05-04T15:47:20Z</time></trkpt><trkpt lat="43.715288978083215" lon="11.751689841249494"><ele>483.0</ele><time>2026-05-04T15:47:21Z</time></trkpt><trkpt lat="43.71526051943901" lon="11.751846007927238"><ele>483.25</ele><time>2026-05-04T15:47:22Z</time></trkpt><trkpt lat="43.71524857387676" lon="11.752013207606211"><ele>483.5</ele><time>2026-05-04T15:47:23Z</time></trkpt><trkpt lat="43.71524433295234" lon="11.752186486764199"><ele>483.75</ele><time>2026-05-04T15:47:24Z</time></trkpt><trkpt lat="43.71524439472946" lon="11.752366874838277"><ele>484.0</ele><time>2026-05-04T15:47:25Z</time></trkpt><trkpt lat="43.71523901326724" lon="11.752554442915935"><ele>477.25</ele><time>2026-05-04T15:47:26Z</time></trkpt><trkpt lat="43.71523139495605" lon="11.752743104575998"><ele>470.5</ele><time>2026-05-04T15:47:27Z</time></trkpt><trkpt lat="43.71522155396472" lon="11.752940980779945"><ele>463.75</ele><time>2026-05-04T15:47:28Z</time></trkpt><trkpt lat="43.71521128757042" lon="11.753129423954778"><ele>457.0</ele><time>2026-05-04T15:47:29Z</time></trkpt><trkpt lat="43.71520534789598" lon="11.753321059109926"><ele>457.0</ele><time>2026-05-04T15:47:30Z</time></trkpt><trkpt lat="43.71519801821741" lon="11.753500219210903"><ele>457.0</ele><time>2026-05-04T15:47:31Z</time></trkpt><trkpt lat="43.71519041190732" lon="11.75368620676833"><ele>457.0</ele><time>2026-05-04T15:47:32Z</time></trkpt><trkpt lat="43.71517769058624" lon="11.753867659717729"><ele>457.0</ele><time>2026-05-04T15:47:33Z</time></trkpt><trkpt lat="43.715173614325224" lon="11.75404145132798"><ele>455.75</ele><time>2026-05-04T15:47:34Z</time></trkpt><trkpt lat="43.71516121610277" lon="11.75420932359106"><ele>454.5</ele><time>2026-05-04T15:47:35Z</time></trkpt><trkpt lat="43.7151553330109" lon="11.754378056966448"><ele>453.25</ele><time>2026-05-04T15:47:36Z</time></trkpt><trkpt lat="43.715140328243926" lon="11.754542270087704"><ele>452.0</ele><time>2026-05-04T15:47:37Z</time></trkpt><trkpt lat="43.715132200160106" lon="11.754685072688531"><ele>450.8</ele><time>2026-05-04T15:47:38Z</time></trkpt><trkpt lat="43.715126543374716" lon="11.754811508240296"><ele>449.6</ele><time>2026-05-04T15:47:39Z</time></trkpt><trkpt lat="43.71512424908815" lon="11.754937843267065"><ele>448.40000000000003</ele><time>2026-05-04T15:47:40Z</time></trkpt><trkpt lat="43.715145370798346" lon="11.755068783358016"><ele>447.20000000000005</ele><time>2026-05-04T15:47:41Z</time></trkpt><trkpt lat="43.715191823385226" lon="11.755202399579169"><ele>446.0</ele><time>2026-05-04T15:47:42Z</time></trkpt><trkpt lat="43.71525746953492" lon="11.755327491033118"><ele>445.25</ele><time>2026-05-04T15:47:43Z</time></trkpt><trkpt lat="43.71533824526496" lon="11.75545483046739"><ele>444.5</ele><time>2026-05-04T15:47:44Z</time></trkpt><trkpt lat="43.71542265813777" lon="11.755574645838198"><ele>443.75</ele><time>2026-05-04T15:47:45Z</time></trkpt><trkpt lat="43.71550486367397" lon="11.75569165644616"><ele>443.0</ele><time>2026-05-04T15:47:46Z</time></trkpt><trkpt lat="43.715589835364554" lon="11.755793614625745"><ele>443.0</ele><time>2026-05-04T15:47:47Z</time></trkpt><trkpt lat="43.71568125866495" lon="11.755879726253648"><ele>442.99999999999994</ele><time>2026-05-04T15:47:48Z</time></trkpt><trkpt lat="43.715775862754896" lon="11.755958264276629"><ele>442.99999999999994</ele><time>2026-05-04T15:47:49Z</time></trkpt><trkpt lat="43.715873345274495" lon="11.756025463881148"><ele>443.0</ele><time>2026-05-04T15:47:50Z</time></trkpt><trkpt lat="43.715977891312995" lon="11.75608187152766"><ele>443.0</ele><time>2026-05-04T15:47:51Z</time></trkpt><trkpt lat="43.71608239066633" lon="11.756128290333686"><ele>438.25</ele><time>2026-05-04T15:47:52Z</time></trkpt><trkpt lat="43.716192841474715" lon="11.756172569867378"><ele>433.5</ele><time>2026-05-04T15:47:53Z</time></trkpt><trkpt lat="43.716309843694134" lon="11.756211136407376"><ele>428.75</ele><time>2026-05-04T15:47:54Z</time></trkpt><trkpt lat="43.71642683053886" lon="11.756242222215993"><ele>424.0</ele><time>2026-05-04T15:47:55Z</time></trkpt><trkpt lat="43.71654194030802" lon="11.756259211903766"><ele>424.0</ele><time>2026-05-04T15:47:56Z</time></trkpt><trkpt lat="43.71665068467795" lon="11.756260346608885"><ele>424.0</ele><time>2026-05-04T15:47:57Z</time></trkpt><trkpt lat="43.716752155604986" lon="11.7562434469907"><ele>424.0</ele><time>2026-05-04T15:47:58Z</time></trkpt><trkpt lat="43.71684689422339" lon="11.756197142692175"><ele>424.0</ele><time>2026-05-04T15:47:59Z</time></trkpt><trkpt lat="43.71694466061958" lon="11.756120220172571"><ele>424.0</ele><time>2026-05-04T15:48:00Z</time></trkpt><trkpt lat="43.71703250975812" lon="11.756017199094531"><ele>424.6</ele><time>2026-05-04T15:48:01Z</time></trkpt><trkpt lat="43.71711330636074" lon="11.755913689981046"><ele>425.2</ele><time>2026-05-04T15:48:02Z</time></trkpt><trkpt lat="43.71721520821493" lon="11.75585587794326"><ele>425.80000000000007</ele><time>2026-05-04T15:48:03Z</time></trkpt><trkpt lat="43.717310282859295" lon="11.75579083810685"><ele>426.40000000000003</ele><time>2026-05-04T15:48:04Z</time></trkpt><trkpt lat="43.71741951583759" lon="11.755799767061633"><ele>427.0</ele><time>2026-05-04T15:48:05Z</time></trkpt><trkpt lat="43.71752502297057" lon="11.755797373171205"><ele>427.0</ele><time>2026-05-04T15:48:06Z</time></trkpt><trkpt lat="43.71762108652856" lon="11.755843614522153"><ele>427.00000000000006</ele><time>2026-05-04T15:48:07Z</time></trkpt><trkpt lat="43.71770381367646" lon="11.755905943063832"><ele>427.00000000000006</ele><time>2026-05-04T15:48:08Z</time></trkpt><trkpt lat="43.717772126816335" lon="11.755982637323514"><ele>427.0</ele><time>2026-05-04T15:48:09Z</time></trkpt><trkpt lat="43.717812586152625" lon="11.756088239335941"><ele>427.0</ele><time>2026-05-04T15:48:10Z</time></trkpt><trkpt lat="43.717835070491745" lon="11.756212886973302"><ele>426.40000000000003</ele><time>2026-05-04T15:48:11Z</time></trkpt><trkpt lat="43.71782038378372" lon="11.756347889465735"><ele>425.80000000000007</ele><time>2026-05-04T15:48:12Z</time></trkpt><trkpt lat="43.71783428026758" lon="11.756491889195328"><ele>425.2</ele><time>2026-05-04T15:48:13Z</time></trkpt><trkpt lat="43.7178302454987" lon="11.75664165913718"><ele>424.6</ele><time>2026-05-04T15:48:14Z</time></trkpt><trkpt lat="43.71782534573328" lon="11.756798464883056"><ele>424.0</ele><time>2026-05-04T15:48:15Z</time></trkpt><trkpt lat="43.71783293245833" lon="11.756948746152814"><ele>422.2</ele><time>2026-05-04T15:48:16Z</time></trkpt><trkpt lat="43.71783509055442" lon="11.757088195042357"><ele>420.4</ele><time>2026-05-04T15:48:17Z</time></trkpt><trkpt lat="43.71784243727407" lon="11.757217593414907"><ele>418.6</ele><time>2026-05-04T15:48:18Z</time></trkpt><trkpt lat="43.7178589335063" lon="11.757346095376729"><ele>416.8</ele><time>2026-05-04T15:48:19Z</time></trkpt><trkpt lat="43.71790073143524" lon="11.757473088086263"><ele>415.0</ele><time>2026-05-04T15:48:20Z</time></trkpt><trkpt lat="43.71795679128832" lon="11.757580775145891"><ele>415.0</ele><time>2026-05-04T15:48:21Z</time></trkpt><trkpt lat="43.71802702470382" lon="11.75768156517639"><ele>415.0</ele><time>2026-05-04T15:48:22Z</time></trkpt><trkpt lat="43.7181127962749" lon="11.757785785281117"><ele>415.0</ele><time>2026-05-04T15:48:23Z</time></trkpt><trkpt lat="43.71819076447253" lon="11.757844688151728"><ele>415.0</ele><time>2026-05-04T15:48:24Z</time></trkpt><trkpt lat="43.71828926574724" lon="11.757900458367043"><ele>415.0</ele><time>2026-05-04T15:48:25Z</time></trkpt><trkpt lat="43.7183953173912" lon="11.757940508627199"><ele>412.4</ele><time>2026-05-04T15:48:26Z</time></trkpt><trkpt lat="43.71850675207109" lon="11.757942873785833"><ele>409.8</ele><time>2026-05-04T15:48:27Z</time></trkpt><trkpt lat="43.718611644064914" lon="11.757933122207463"><ele>407.20000000000005</ele><time>2026-05-04T15:48:28Z</time></trkpt><trkpt lat="43.718715226779565" lon="11.75791936682534"><ele>404.6</ele><time>2026-05-04T15:48:29Z</time></trkpt><trkpt lat="43.718821470832054" lon="11.757913859485788"><ele>402.0</ele><time>2026-05-04T15:48:30Z</time></trkpt><trkpt lat="43.71892921614683" lon="11.757913760832874"><ele>401.5</ele><time>2026-05-04T15:48:31Z</time></trkpt><trkpt lat="43.71904656480059" lon="11.757910848797204"><ele>401.0</ele><time>2026-05-04T15:48:32Z</time></trkpt><trkpt lat="43.719159530068026" lon="11.757906814050536"><ele>400.5</ele><time>2026-05-04T15:48:33Z</time></trkpt><trkpt lat="43.71928277166516" lon="11.757908294478437"><ele>400.0</ele><time>2026-05-04T15:48:34Z</time></trkpt><trkpt lat="43.71940067231215" lon="11.757901751541484"><ele>399.0</ele><time>2026-05-04T15:48:35Z</time></trkpt><trkpt lat="43.71951175372021" lon="11.757903781954068"><ele>398.0</ele><time>2026-05-04T15:48:36Z</time></trkpt><trkpt lat="43.7196159519675" lon="11.757902347056119"><ele>397.0</ele><time>2026-05-04T15:48:37Z</time></trkpt><trkpt lat="43.719721244604884" lon="11.757901098976616"><ele>396.0</ele><time>2026-05-04T15:48:38Z</time></trkpt><trkpt lat="43.71981837402083" lon="11.75790185273865"><ele>395.0</ele><time>2026-05-04T15:48:39Z</time></trkpt><trkpt lat="43.71991157947976" lon="11.757906024398467"><ele>395.0</ele><time>2026-05-04T15:48:40Z</time></trkpt><trkpt lat="43.72000494847593" lon="11.757918321975806"><ele>395.0</ele><time>2026-05-04T15:48:41Z</time></trkpt><trkpt lat="43.720088914002645" lon="11.75795086246729"><ele>395.0</ele><time>2026-05-04T15:48:42Z</time></trkpt><trkpt lat="43.72017163227812" lon="11.758025967588495"><ele>395.0</ele><time>2026-05-04T15:48:43Z</time></trkpt><trkpt lat="43.72024917994131" lon="11.758084338851903"><ele>395.0</ele><time>2026-05-04T15:48:44Z</time></trkpt><trkpt lat="43.72030461014641" lon="11.758184435470689"><ele>395.4</ele><time>2026-05-04T15:48:45Z</time></trkpt><trkpt lat="43.72034825176811" lon="11.758301374870207"><ele>395.8</ele><time>2026-05-04T15:48:46Z</time></trkpt><trkpt lat="43.72037639248639" lon="11.758427917863978"><ele>396.20000000000005</ele><time>2026-05-04T15:48:47Z</time></trkpt><trkpt lat="43.72037370436923" lon="11.758571159243035"><ele>396.6</ele><time>2026-05-04T15:48:48Z</time></trkpt><trkpt lat="43.720393911797956" lon="11.758706495254598"><ele>397.0</ele><time>2026-05-04T15:48:49Z</time></trkpt><trkpt lat="43.72039402810675" lon="11.758844564591985"><ele>395.40000000000003</ele><time>2026-05-04T15:48:50Z</time></trkpt><trkpt lat="43.72039745640252" lon="11.75897907479039"><ele>393.8</ele><time>2026-05-04T15:48:51Z</time></trkpt><trkpt lat="43.72041136934833" lon="11.75910307115946"><ele>392.2</ele><time>2026-05-04T15:48:52Z</time></trkpt><trkpt lat="43.72043708944318" lon="11.759219327871097"><ele>390.6</ele><time>2026-05-04T15:48:53Z</time></trkpt><trkpt lat="43.72048246869584" lon="11.759328050531089"><ele>389.0</ele><time>2026-05-04T15:48:54Z</time></trkpt><trkpt lat="43.72054303021744" lon="11.759417811082917"><ele>387.6</ele><time>2026-05-04T15:48:55Z</time></trkpt><trkpt lat="43.720621891513105" lon="11.759492268916782"><ele>386.2</ele><time>2026-05-04T15:48:56Z</time></trkpt><trkpt lat="43.72071558371506" lon="11.759550146543523"><ele>384.8</ele><time>2026-05-04T15:48:57Z</time></trkpt><trkpt lat="43.72081848862124" lon="11.759594498933525"><ele>383.40000000000003</ele><time>2026-05-04T15:48:58Z</time></trkpt><trkpt lat="43.72092732344541" lon="11.75963345943625"><ele>382.0</ele><time>2026-05-04T15:48:59Z</time></trkpt><trkpt lat="43.72103028494274" lon="11.759673650853214"><ele>379.6</ele><time>2026-05-04T15:49:00Z</time></trkpt><trkpt lat="43.72113543462014" lon="11.759714078594063"><ele>377.20000000000005</ele><time>2026-05-04T15:49:01Z</time></trkpt><trkpt lat="43.72123688199114" lon="11.759757156589226"><ele>374.8</ele><time>2026-05-04T15:49:02Z</time></trkpt><trkpt lat="43.72133662491512" lon="11.759789540053964"><ele>372.4</ele><time>2026-05-04T15:49:03Z</time></trkpt><trkpt lat="43.72143467288773" lon="11.759812875588786"><ele>370.0</ele><time>2026-05-04T15:49:04Z</time></trkpt><trkpt lat="43.72153425042471" lon="11.759812221182656"><ele>370.0</ele><time>2026-05-04T15:49:05Z</time></trkpt><trkpt lat="43.721636020689395" lon="11.759777704026789"><ele>370.0</ele><time>2026-05-04T15:49:06Z</time></trkpt><trkpt lat="43.72172939970372" lon="11.759711714064213"><ele>370.0</ele><time>2026-05-04T15:49:07Z</time></trkpt><trkpt lat="43.721819771262886" lon="11.759629437698248"><ele>370.0</ele><time>2026-05-04T15:49:08Z</time></trkpt><trkpt lat="43.721905452052944" lon="11.759540572448769"><ele>370.0</ele><time>2026-05-04T15:49:09Z</time></trkpt><trkpt lat="43.721994738603264" lon="11.759466369259842"><ele>369.0</ele><time>2026-05-04T15:49:10Z</time></trkpt><trkpt lat="43.72208093015647" lon="11.759425692918537"><ele>368.0</ele><time>2026-05-04T15:49:11Z</time></trkpt><trkpt lat="43.72217451698184" lon="11.75940925951637"><ele>367.0</ele><time>2026-05-04T15:49:12Z</time></trkpt><trkpt lat="43.722262450479775" lon="11.759433817637976"><ele>366.0</ele><time>2026-05-04T15:49:13Z</time></trkpt><trkpt lat="43.72234493451324" lon="11.759509465781194"><ele>365.0</ele><time>2026-05-04T15:49:14Z</time></trkpt><trkpt lat="43.72243653034764" lon="11.759567253887814"><ele>365.0</ele><time>2026-05-04T15:49:15Z</time></trkpt><trkpt lat="43.72250605572946" lon="11.759669555733264"><ele>365.0</ele><time>2026-05-04T15:49:16Z</time></trkpt><trkpt lat="43.722568747113066" lon="11.759783182114786"><ele>365.0</ele><time>2026-05-04T15:49:17Z</time></trkpt><trkpt lat="43.72263329782917" lon="11.759897617983281"><ele>365.0</ele><time>2026-05-04T15:49:18Z</time></trkpt><trkpt lat="43.72269690534893" lon="11.76000271886641"><ele>365.0</ele><time>2026-05-04T15:49:19Z</time></trkpt><trkpt lat="43.72276085262994" lon="11.760117597488833"><ele>362.8</ele><time>2026-05-04T15:49:20Z</time></trkpt><trkpt lat="43.722825663782224" lon="11.760225983781325"><ele>360.6</ele><time>2026-05-04T15:49:21Z</time></trkpt><trkpt lat="43.72289234910663" lon="11.76033467236685"><ele>358.4</ele><time>2026-05-04T15:49:22Z</time></trkpt><trkpt lat="43.722969560547575" lon="11.760434903923596"><ele>356.2</ele><time>2026-05-04T15:49:23Z</time></trkpt><trkpt lat="43.72305332265535" lon="11.76051447012578"><ele>354.0</ele><time>2026-05-04T15:49:24Z</time></trkpt><trkpt lat="43.72314478653847" lon="11.760576871810729"><ele>354.0</ele><time>2026-05-04T15:49:25Z</time></trkpt><trkpt lat="43.7232398408525" lon="11.760624836796"><ele>354.0</ele><time>2026-05-04T15:49:26Z</time></trkpt><trkpt lat="43.72333364430385" lon="11.76066912795098"><ele>354.0</ele><time>2026-05-04T15:49:27Z</time></trkpt><trkpt lat="43.72342813095019" lon="11.76074016383027"><ele>354.0</ele><time>2026-05-04T15:49:28Z</time></trkpt><trkpt lat="43.723509093135846" lon="11.760839932204636"><ele>354.0</ele><time>2026-05-04T15:49:29Z</time></trkpt><trkpt lat="43.72354899509971" lon="11.760976492102838"><ele>353.0</ele><time>2026-05-04T15:49:30Z</time></trkpt><trkpt lat="43.72362018663783" lon="11.761096560682963"><ele>352.0</ele><time>2026-05-04T15:49:31Z</time></trkpt><trkpt lat="43.723672496386236" lon="11.761219584051414"><ele>351.0</ele><time>2026-05-04T15:49:32Z</time></trkpt><trkpt lat="43.72372337439705" lon="11.76133195228577"><ele>350.0</ele><time>2026-05-04T15:49:33Z</time></trkpt><trkpt lat="43.72377820389075" lon="11.761442674649626"><ele>349.0</ele><time>2026-05-04T15:49:34Z</time></trkpt><trkpt lat="43.72382489876493" lon="11.761552653118333"><ele>349.0</ele><time>2026-05-04T15:49:35Z</time></trkpt><trkpt lat="43.723866693691036" lon="11.761638342074718"><ele>349.0</ele><time>2026-05-04T15:49:36Z</time></trkpt><trkpt lat="43.723917602396526" lon="11.761751506440234"><ele>349.0</ele><time>2026-05-04T15:49:38Z</time></trkpt><trkpt lat="43.72396354015754" lon="11.7618458876496"><ele>349.0</ele><time>2026-05-04T15:49:41Z</time></trkpt><trkpt lat="43.72400639590107" lon="11.761948426299874"><ele>349.0</ele><time>2026-05-04T15:49:44Z</time></trkpt><trkpt lat="43.724106119065134" lon="11.761923377865742"><ele>349.0</ele><time>2026-05-04T15:49:45Z</time></trkpt><trkpt lat="43.7241763245251" lon="11.761938635193143"><ele>349.0</ele><time>2026-05-04T15:49:46Z</time></trkpt><trkpt lat="43.72425762365804" lon="11.761958975766657"><ele>349.0</ele><time>2026-05-04T15:49:47Z</time></trkpt><trkpt lat="43.72435135202303" lon="11.761987085319381"><ele>349.0</ele><time>2026-05-04T15:49:48Z</time></trkpt><trkpt lat="43.72444537188917" lon="11.762004307666823"><ele>349.0</ele><time>2026-05-04T15:49:49Z</time></trkpt><trkpt lat="43.724549811970746" lon="11.762023418641533"><ele>349.0</ele><time>2026-05-04T15:49:50Z</time></trkpt><trkpt lat="43.72465523188272" lon="11.762050730295465"><ele>348.25</ele><time>2026-05-04T15:49:51Z</time></trkpt><trkpt lat="43.7247658847012" lon="11.762074531977584"><ele>347.5</ele><time>2026-05-04T15:49:52Z</time></trkpt><trkpt lat="43.72487539742634" lon="11.762096549589883"><ele>346.75</ele><time>2026-05-04T15:49:53Z</time></trkpt><trkpt lat="43.72499883146765" lon="11.762121156650622"><ele>346.0</ele><time>2026-05-04T15:49:54Z</time></trkpt><trkpt lat="43.72511299846349" lon="11.762150143288546"><ele>346.0</ele><time>2026-05-04T15:49:55Z</time></trkpt><trkpt lat="43.72521843322527" lon="11.762177576006556"><ele>346.0</ele><time>2026-05-04T15:49:56Z</time></trkpt><trkpt lat="43.72532753809847" lon="11.762220016666257"><ele>346.0</ele><time>2026-05-04T15:49:57Z</time></trkpt><trkpt lat="43.72543654313203" lon="11.762281567824346"><ele>346.0</ele><time>2026-05-04T15:49:58Z</time></trkpt><trkpt lat="43.72553195753285" lon="11.762364898183534"><ele>345.25</ele><time>2026-05-04T15:49:59Z</time></trkpt><trkpt lat="43.72562065288875" lon="11.762473180100741"><ele>344.5</ele><time>2026-05-04T15:50:00Z</time></trkpt><trkpt lat="43.725712271340974" lon="11.762594603129394"><ele>343.75</ele><time>2026-05-04T15:50:01Z</time></trkpt><trkpt lat="43.725808335044746" lon="11.762727801853822"><ele>343.0</ele><time>2026-05-04T15:50:02Z</time></trkpt><trkpt lat="43.725899402022065" lon="11.762858169252922"><ele>343.25</ele><time>2026-05-04T15:50:03Z</time></trkpt><trkpt lat="43.72598633964306" lon="11.76298624416552"><ele>343.5</ele><time>2026-05-04T15:50:04Z</time></trkpt><trkpt lat="43.72607612853126" lon="11.763110329092527"><ele>343.75</ele><time>2026-05-04T15:50:05Z</time></trkpt><trkpt lat="43.72616126279183" lon="11.76323473521522"><ele>344.0</ele><time>2026-05-04T15:50:06Z</time></trkpt><trkpt lat="43.7262447925427" lon="11.763366625855097"><ele>344.0</ele><time>2026-05-04T15:50:07Z</time></trkpt><trkpt lat="43.7263232469299" lon="11.763494528563486"><ele>344.0</ele><time>2026-05-04T15:50:08Z</time></trkpt><trkpt lat="43.726405206836816" lon="11.763627386469611"><ele>344.0</ele><time>2026-05-04T15:50:09Z</time></trkpt><trkpt lat="43.72648241439514" lon="11.763759105964757"><ele>344.0</ele><time>2026-05-04T15:50:10Z</time></trkpt><trkpt lat="43.726555761681986" lon="11.763891975867644"><ele>346.75</ele><time>2026-05-04T15:50:11Z</time></trkpt><trkpt lat="43.72663009720767" lon="11.76402490611852"><ele>349.5</ele><time>2026-05-04T15:50:12Z</time></trkpt><trkpt lat="43.72669624217834" lon="11.764158391579032"><ele>352.25</ele><time>2026-05-04T15:50:13Z</time></trkpt><trkpt lat="43.72676163340539" lon="11.764295473590915"><ele>355.0</ele><time>2026-05-04T15:50:14Z</time></trkpt><trkpt lat="43.72681825562484" lon="11.764439266967084"><ele>357.75</ele><time>2026-05-04T15:50:15Z</time></trkpt><trkpt lat="43.726868549543674" lon="11.764590728059973"><ele>360.5</ele><time>2026-05-04T15:50:16Z</time></trkpt><trkpt lat="43.72690943409296" lon="11.764751497738887"><ele>363.25</ele><time>2026-05-04T15:50:17Z</time></trkpt><trkpt lat="43.72694306396031" lon="11.764915564022612"><ele>366.0</ele><time>2026-05-04T15:50:18Z</time></trkpt><trkpt lat="43.726966413129425" lon="11.765089583278678"><ele>359.75</ele><time>2026-05-04T15:50:19Z</time></trkpt><trkpt lat="43.72697660070028" lon="11.765267187751181"><ele>353.5</ele><time>2026-05-04T15:50:20Z</time></trkpt><trkpt lat="43.72697947708227" lon="11.765438683363971"><ele>347.25</ele><time>2026-05-04T15:50:21Z</time></trkpt><trkpt lat="43.72697167036002" lon="11.765605678935978"><ele>341.0</ele><time>2026-05-04T15:50:22Z</time></trkpt><trkpt lat="43.72695506232642" lon="11.765766044039298"><ele>341.0</ele><time>2026-05-04T15:50:23Z</time></trkpt><trkpt lat="43.72693071463683" lon="11.765915431404048"><ele>341.0</ele><time>2026-05-04T15:50:24Z</time></trkpt><trkpt lat="43.72684648736823" lon="11.766017710646752"><ele>341.0</ele><time>2026-05-04T15:50:25Z</time></trkpt><trkpt lat="43.726806332880166" lon="11.766131075867621"><ele>341.0</ele><time>2026-05-04T15:50:26Z</time></trkpt><trkpt lat="43.72678574865352" lon="11.766245807114304"><ele>341.0</ele><time>2026-05-04T15:50:27Z</time></trkpt><trkpt lat="43.72675472726589" lon="11.766333457037065"><ele>342.83333333333337</ele><time>2026-05-04T15:50:28Z</time></trkpt><trkpt lat="43.72674096107937" lon="11.766419619113128"><ele>344.6666666666667</ele><time>2026-05-04T15:50:29Z</time></trkpt><trkpt lat="43.72674025027534" lon="11.766547758181806"><ele>346.5</ele><time>2026-05-04T15:50:31Z</time></trkpt><trkpt lat="43.7268445553117" lon="11.76668117412593"><ele>348.3333333333333</ele><time>2026-05-04T15:50:33Z</time></trkpt><trkpt lat="43.72685496004279" lon="11.766774632372545"><ele>350.16666666666663</ele><time>2026-05-04T15:50:34Z</time></trkpt><trkpt lat="43.726838320882564" lon="11.766876741791336"><ele>352.0</ele><time>2026-05-04T15:50:35Z</time></trkpt><trkpt lat="43.72681183318525" lon="11.76696977428345"><ele>352.0</ele><time>2026-05-04T15:50:36Z</time></trkpt><trkpt lat="43.726785719465425" lon="11.767060560347373"><ele>352.0</ele><time>2026-05-04T15:50:37Z</time></trkpt><trkpt lat="43.7267607341145" lon="11.767165802469991"><ele>352.0</ele><time>2026-05-04T15:50:38Z</time></trkpt><trkpt lat="43.72674063508965" lon="11.767275124582955"><ele>352.0</ele><time>2026-05-04T15:50:39Z</time></trkpt><trkpt lat="43.726737411899805" lon="11.767376546528855"><ele>352.0</ele><time>2026-05-04T15:50:40Z</time></trkpt><trkpt lat="43.726751371721484" lon="11.767468278505152"><ele>352.0</ele><time>2026-05-04T15:50:41Z</time></trkpt><trkpt lat="43.726791014961364" lon="11.767548763789135"><ele>352.0</ele><time>2026-05-04T15:50:42Z</time></trkpt><trkpt lat="43.72685458754394" lon="11.767620537405588"><ele>349.8</ele><time>2026-05-04T15:50:43Z</time></trkpt><trkpt lat="43.72693242150257" lon="11.767673655854095"><ele>347.6</ele><time>2026-05-04T15:50:44Z</time></trkpt><trkpt lat="43.72702367960161" lon="11.76771796725259"><ele>345.40000000000003</ele><time>2026-05-04T15:50:45Z</time></trkpt><trkpt lat="43.727124105482716" lon="11.767749094922197"><ele>343.20000000000005</ele><time>2026-05-04T15:50:46Z</time></trkpt><trkpt lat="43.727223541055324" lon="11.767773489509374"><ele>341.0</ele><time>2026-05-04T15:50:47Z</time></trkpt><trkpt lat="43.72732418860386" lon="11.767813872492228"><ele>341.1666666666667</ele><time>2026-05-04T15:50:48Z</time></trkpt><trkpt lat="43.727416309975126" lon="11.767850610518694"><ele>341.33333333333337</ele><time>2026-05-04T15:50:49Z</time></trkpt><trkpt lat="43.72749901868993" lon="11.76788409375903"><ele>341.5</ele><time>2026-05-04T15:50:50Z</time></trkpt><trkpt lat="43.72757461615622" lon="11.767915565864497"><ele>341.6666666666667</ele><time>2026-05-04T15:50:51Z</time></trkpt><trkpt lat="43.72765365364924" lon="11.767945673823636"><ele>341.8333333333333</ele><time>2026-05-04T15:50:52Z</time></trkpt><trkpt lat="43.72772721819942" lon="11.767973858523094"><ele>342.0</ele><time>2026-05-04T15:50:53Z</time></trkpt><trkpt lat="43.72780508220461" lon="11.768005332684215"><ele>342.0</ele><time>2026-05-04T15:50:54Z</time></trkpt><trkpt lat="43.72787543491073" lon="11.768041683389319"><ele>342.0</ele><time>2026-05-04T15:50:55Z</time></trkpt><trkpt lat="43.727943972856984" lon="11.768084064264674"><ele>342.0</ele><time>2026-05-04T15:50:56Z</time></trkpt><trkpt lat="43.72799660237643" lon="11.768135600343342"><ele>342.0</ele><time>2026-05-04T15:50:57Z</time></trkpt><trkpt lat="43.72804743667633" lon="11.768188728851102"><ele>342.0</ele><time>2026-05-04T15:50:58Z</time></trkpt><trkpt lat="43.728131016206206" lon="11.768287203108418"><ele>342.0</ele><time>2026-05-04T15:51:00Z</time></trkpt><trkpt lat="43.72818644503792" lon="11.76837669779564"><ele>342.0</ele><time>2026-05-04T15:51:02Z</time></trkpt><trkpt lat="43.72823481664001" lon="11.768448219319046"><ele>342.0</ele><time>2026-05-04T15:51:06Z</time></trkpt><trkpt lat="43.728273036614745" lon="11.76856219110165"><ele>342.0</ele><time>2026-05-04T15:51:23Z</time></trkpt><trkpt lat="43.728331522271475" lon="11.768669083230309"><ele>342.0</ele><time>2026-05-04T15:51:25Z</time></trkpt><trkpt lat="43.7284036155819" lon="11.76877036374231"><ele>342.0</ele><time>2026-05-04T15:51:27Z</time></trkpt><trkpt lat="43.72844857934054" lon="11.768832297506327"><ele>342.0</ele><time>2026-05-04T15:51:30Z</time></trkpt><trkpt lat="43.7285255166536" lon="11.768825291068122"><ele>342.3333333333333</ele><time>2026-05-04T15:51:53Z</time></trkpt><trkpt lat="43.72858502346768" lon="11.768785513463635"><ele>342.6666666666667</ele><time>2026-05-04T15:51:54Z</time></trkpt><trkpt lat="43.72864476819994" lon="11.768739252183952"><ele>343.0</ele><time>2026-05-04T15:51:55Z</time></trkpt><trkpt lat="43.7287304100185" lon="11.768673777541148"><ele>343.33333333333337</ele><time>2026-05-04T15:51:57Z</time></trkpt><trkpt lat="43.728812618231245" lon="11.768613466846794"><ele>343.6666666666667</ele><time>2026-05-04T15:51:59Z</time></trkpt><trkpt lat="43.72891483276038" lon="11.768528715339544"><ele>344.0</ele><time>2026-05-04T15:52:01Z</time></trkpt><trkpt lat="43.72899548450872" lon="11.768466943299725"><ele>344.0</ele><time>2026-05-04T15:52:03Z</time></trkpt><trkpt lat="43.72907921522593" lon="11.768415583418234"><ele>344.0</ele><time>2026-05-04T15:52:05Z</time></trkpt><trkpt lat="43.72915607283293" lon="11.768361503663325"><ele>344.0</ele><time>2026-05-04T15:52:07Z</time></trkpt><trkpt lat="43.729250692818255" lon="11.76829413819034"><ele>344.0</ele><time>2026-05-04T15:52:09Z</time></trkpt><trkpt lat="43.729369067645294" lon="11.768206416071212"><ele>344.0</ele><time>2026-05-04T15:52:11Z</time></trkpt><trkpt lat="43.729449059264766" lon="11.768145262878946"><ele>344.25</ele><time>2026-05-04T15:52:12Z</time></trkpt><trkpt lat="43.72954939112856" lon="11.768070096739892"><ele>344.5</ele><time>2026-05-04T15:52:13Z</time></trkpt><trkpt lat="43.729664533115525" lon="11.767987541993566"><ele>344.75</ele><time>2026-05-04T15:52:14Z</time></trkpt><trkpt lat="43.729783465729135" lon="11.767902714262561"><ele>345.0</ele><time>2026-05-04T15:52:15Z</time></trkpt><trkpt lat="43.729888943757494" lon="11.767829711632377"><ele>345.0</ele><time>2026-05-04T15:52:16Z</time></trkpt><trkpt lat="43.72997640685663" lon="11.767777143873477"><ele>345.0</ele><time>2026-05-04T15:52:17Z</time></trkpt><trkpt lat="43.73005523449915" lon="11.767730451163004"><ele>345.0</ele><time>2026-05-04T15:52:18Z</time></trkpt><trkpt lat="43.73013591446663" lon="11.767689273931289"><ele>345.0</ele><time>2026-05-04T15:52:19Z</time></trkpt><trkpt lat="43.73021639453515" lon="11.767642029723039"><ele>345.0</ele><time>2026-05-04T15:52:20Z</time></trkpt><trkpt lat="43.73029745424205" lon="11.767593254546536"><ele>345.0</ele><time>2026-05-04T15:52:21Z</time></trkpt><trkpt lat="43.7303797015605" lon="11.767533795253"><ele>345.0</ele><time>2026-05-04T15:52:22Z</time></trkpt><trkpt lat="43.730459444876004" lon="11.7674698940163"><ele>345.0</ele><time>2026-05-04T15:52:23Z</time></trkpt><trkpt lat="43.73054415017296" lon="11.767402225929189"><ele>345.0</ele><time>2026-05-04T15:52:24Z</time></trkpt><trkpt lat="43.730634513352236" lon="11.767329481836164"><ele>345.0</ele><time>2026-05-04T15:52:25Z</time></trkpt><trkpt lat="43.73073516294061" lon="11.767260559822661"><ele>345.0</ele><time>2026-05-04T15:52:26Z</time></trkpt><trkpt lat="43.730836934448334" lon="11.7671907699491"><ele>345.0</ele><time>2026-05-04T15:52:27Z</time></trkpt><trkpt lat="43.730942565761936" lon="11.76711397580947"><ele>345.0</ele><time>2026-05-04T15:52:28Z</time></trkpt><trkpt lat="43.731052705027984" lon="11.76703426536567"><ele>345.0</ele><time>2026-05-04T15:52:29Z</time></trkpt><trkpt lat="43.73116623005945" lon="11.7669570380411"><ele>345.0</ele><time>2026-05-04T15:52:30Z</time></trkpt><trkpt lat="43.731274426831355" lon="11.76687539856617"><ele>345.25</ele><time>2026-05-04T15:52:31Z</time></trkpt><trkpt lat="43.731379757121495" lon="11.766801384840411"><ele>345.5</ele><time>2026-05-04T15:52:32Z</time></trkpt><trkpt lat="43.731477632239134" lon="11.766727457071612"><ele>345.75</ele><time>2026-05-04T15:52:33Z</time></trkpt><trkpt lat="43.73158149911047" lon="11.766653073041242"><ele>346.0</ele><time>2026-05-04T15:52:34Z</time></trkpt><trkpt lat="43.731676962298465" lon="11.76657491218119"><ele>346.0</ele><time>2026-05-04T15:52:35Z</time></trkpt><trkpt lat="43.73176741996076" lon="11.76649643693393"><ele>346.0</ele><time>2026-05-04T15:52:36Z</time></trkpt><trkpt lat="43.731845886460285" lon="11.76642270370431"><ele>346.0</ele><time>2026-05-04T15:52:37Z</time></trkpt><trkpt lat="43.731895818005285" lon="11.766359115213163"><ele>346.0</ele><time>2026-05-04T15:52:38Z</time></trkpt><trkpt lat="43.731950166664284" lon="11.76625306420196"><ele>346.0</ele><time>2026-05-04T15:52:40Z</time></trkpt><trkpt lat="43.73197897591687" lon="11.766163918745479"><ele>346.0</ele><time>2026-05-04T15:52:42Z</time></trkpt><trkpt lat="43.732000251512524" lon="11.76605904129088"><ele>345.8</ele><time>2026-05-04T15:52:45Z</time></trkpt><trkpt lat="43.73204042348883" lon="11.765903381579923"><ele>345.6</ele><time>2026-05-04T15:52:47Z</time></trkpt><trkpt lat="43.73208110244848" lon="11.765804769912119"><ele>345.4</ele><time>2026-05-04T15:52:48Z</time></trkpt><trkpt lat="43.73212579834134" lon="11.765681303725671"><ele>345.2</ele><time>2026-05-04T15:52:49Z</time></trkpt><trkpt lat="43.73212068724802" lon="11.7655747445238"><ele>345.0</ele><time>2026-05-04T15:52:51Z</time></trkpt><trkpt lat="43.732152120023684" lon="11.765448261441113"><ele>345.0</ele><time>2026-05-04T15:52:52Z</time></trkpt><trkpt lat="43.73217581805297" lon="11.765328535152392"><ele>345.0</ele><time>2026-05-04T15:52:53Z</time></trkpt><trkpt lat="43.7322045186573" lon="11.765216810424752"><ele>345.0</ele><time>2026-05-04T15:52:54Z</time></trkpt><trkpt lat="43.73222875551832" lon="11.76510943319524"><ele>345.0</ele><time>2026-05-04T15:52:55Z</time></trkpt><trkpt lat="43.732253294360305" lon="11.765004658639509"><ele>345.0</ele><time>2026-05-04T15:52:56Z</time></trkpt><trkpt lat="43.73228050650369" lon="11.764894922446997"><ele>345.0</ele><time>2026-05-04T15:52:57Z</time></trkpt><trkpt lat="43.73231216670434" lon="11.764777347277429"><ele>345.0</ele><time>2026-05-04T15:52:58Z</time></trkpt><trkpt lat="43.73234224334113" lon="11.764648872240654"><ele>345.0</ele><time>2026-05-04T15:52:59Z</time></trkpt><trkpt lat="43.73237152385776" lon="11.764550272092242"><ele>345.0</ele><time>2026-05-04T15:53:00Z</time></trkpt><trkpt lat="43.73239593068315" lon="11.764461389029828"><ele>345.0</ele><time>2026-05-04T15:53:01Z</time></trkpt><trkpt lat="43.73241734751046" lon="11.76437203312102"><ele>345.0</ele><time>2026-05-04T15:53:02Z</time></trkpt><trkpt lat="43.73245524446644" lon="11.764274613501595"><ele>345.0</ele><time>2026-05-04T15:53:04Z</time></trkpt><trkpt lat="43.73248127442381" lon="11.764158472395149"><ele>345.0</ele><time>2026-05-04T15:53:07Z</time></trkpt><trkpt lat="43.73250253553777" lon="11.764029403106486"><ele>345.0</ele><time>2026-05-04T15:53:09Z</time></trkpt><trkpt lat="43.732526323130934" lon="11.763937027202596"><ele>345.0</ele><time>2026-05-04T15:53:10Z</time></trkpt><trkpt lat="43.73254916533689" lon="11.763839805678998"><ele>345.0</ele><time>2026-05-04T15:53:11Z</time></trkpt><trkpt lat="43.73257887693396" lon="11.763726899048931"><ele>345.0</ele><time>2026-05-04T15:53:12Z</time></trkpt><trkpt lat="43.73260888622168" lon="11.763617843093403"><ele>345.0</ele><time>2026-05-04T15:53:13Z</time></trkpt><trkpt lat="43.732634277251826" lon="11.763496657607792"><ele>344.8</ele><time>2026-05-04T15:53:14Z</time></trkpt><trkpt lat="43.73266641009167" lon="11.763371473111485"><ele>344.6</ele><time>2026-05-04T15:53:15Z</time></trkpt><trkpt lat="43.73270200145296" lon="11.76324042966415"><ele>344.4</ele><time>2026-05-04T15:53:16Z</time></trkpt><trkpt lat="43.732740373732405" lon="11.76309952829536"><ele>344.2</ele><time>2026-05-04T15:53:17Z</time></trkpt><trkpt lat="43.73277937728057" lon="11.762953137375339"><ele>344.0</ele><time>2026-05-04T15:53:18Z</time></trkpt><trkpt lat="43.73281667918421" lon="11.762802633137216"><ele>345.25</ele><time>2026-05-04T15:53:19Z</time></trkpt><trkpt lat="43.7328587561932" lon="11.76263954913723"><ele>346.5</ele><time>2026-05-04T15:53:20Z</time></trkpt><trkpt lat="43.732901607811144" lon="11.762477342601004"><ele>347.75</ele><time>2026-05-04T15:53:21Z</time></trkpt><trkpt lat="43.73294537335418" lon="11.762315556506243"><ele>349.0</ele><time>2026-05-04T15:53:22Z</time></trkpt><trkpt lat="43.73298650602559" lon="11.762159560134819"><ele>349.0</ele><time>2026-05-04T15:53:23Z</time></trkpt><trkpt lat="43.73302772315431" lon="11.762001381653516"><ele>349.0</ele><time>2026-05-04T15:53:24Z</time></trkpt><trkpt lat="43.733071279794565" lon="11.761835194098243"><ele>349.0</ele><time>2026-05-04T15:53:25Z</time></trkpt><trkpt lat="43.73312125585832" lon="11.76166844183234"><ele>349.0</ele><time>2026-05-04T15:53:26Z</time></trkpt><trkpt lat="43.733179836949994" lon="11.761499417664748"><ele>348.75</ele><time>2026-05-04T15:53:27Z</time></trkpt><trkpt lat="43.733248247629504" lon="11.761331448345741"><ele>348.5</ele><time>2026-05-04T15:53:28Z</time></trkpt><trkpt lat="43.73332244478046" lon="11.76117425691289"><ele>348.25</ele><time>2026-05-04T15:53:29Z</time></trkpt><trkpt lat="43.73340217407205" lon="11.761023849457839"><ele>348.0</ele><time>2026-05-04T15:53:30Z</time></trkpt><trkpt lat="43.733486631980995" lon="11.760871566392838"><ele>349.0</ele><time>2026-05-04T15:53:31Z</time></trkpt><trkpt lat="43.733570617049615" lon="11.760726257815403"><ele>350.0</ele><time>2026-05-04T15:53:32Z</time></trkpt><trkpt lat="43.7336594726514" lon="11.760577237444316"><ele>351.0</ele><time>2026-05-04T15:53:33Z</time></trkpt><trkpt lat="43.73374771691643" lon="11.760428028623751"><ele>352.0</ele><time>2026-05-04T15:53:34Z</time></trkpt><trkpt lat="43.73383341405817" lon="11.760274777710443"><ele>351.5</ele><time>2026-05-04T15:53:35Z</time></trkpt><trkpt lat="43.733912598474895" lon="11.760112266327132"><ele>351.0</ele><time>2026-05-04T15:53:36Z</time></trkpt><trkpt lat="43.733981403670654" lon="11.759936356878038"><ele>350.5</ele><time>2026-05-04T15:53:37Z</time></trkpt><trkpt lat="43.73404043875831" lon="11.75974933884611"><ele>350.0</ele><time>2026-05-04T15:53:38Z</time></trkpt><trkpt lat="43.734093240549335" lon="11.759557865272923"><ele>350.0</ele><time>2026-05-04T15:53:39Z</time></trkpt><trkpt lat="43.734145019739564" lon="11.759362863957113"><ele>350.0</ele><time>2026-05-04T15:53:40Z</time></trkpt><trkpt lat="43.73419734754236" lon="11.759176245267103"><ele>350.0</ele><time>2026-05-04T15:53:41Z</time></trkpt><trkpt lat="43.734254067172444" lon="11.758986704291242"><ele>350.0</ele><time>2026-05-04T15:53:42Z</time></trkpt><trkpt lat="43.73430665461767" lon="11.758808278747273"><ele>350.0</ele><time>2026-05-04T15:53:43Z</time></trkpt><trkpt lat="43.734359085197895" lon="11.758628633450263"><ele>350.0</ele><time>2026-05-04T15:53:44Z</time></trkpt><trkpt lat="43.7344160165545" lon="11.758451837586655"><ele>350.0</ele><time>2026-05-04T15:53:45Z</time></trkpt><trkpt lat="43.734484178963754" lon="11.758287391928583"><ele>350.0</ele><time>2026-05-04T15:53:46Z</time></trkpt><trkpt lat="43.73456261924222" lon="11.758122926068442"><ele>351.25</ele><time>2026-05-04T15:53:47Z</time></trkpt><trkpt lat="43.734642990442374" lon="11.75797408433123"><ele>352.5</ele><time>2026-05-04T15:53:48Z</time></trkpt><trkpt lat="43.734732203525375" lon="11.757835888367092"><ele>353.75</ele><time>2026-05-04T15:53:49Z</time></trkpt><trkpt lat="43.734825070099625" lon="11.757709950201251"><ele>355.0</ele><time>2026-05-04T15:53:50Z</time></trkpt><trkpt lat="43.73491793263976" lon="11.757589187456531"><ele>355.6</ele><time>2026-05-04T15:53:51Z</time></trkpt><trkpt lat="43.73500127601866" lon="11.757463435580618"><ele>356.2</ele><time>2026-05-04T15:53:52Z</time></trkpt><trkpt lat="43.73506203308125" lon="11.757329874444123"><ele>356.79999999999995</ele><time>2026-05-04T15:53:53Z</time></trkpt><trkpt lat="43.7351017661959" lon="11.757216692397837"><ele>357.4</ele><time>2026-05-04T15:53:54Z</time></trkpt><trkpt lat="43.73512840252074" lon="11.757133019074777"><ele>358.0</ele><time>2026-05-04T15:53:55Z</time></trkpt><trkpt lat="43.73517441645858" lon="11.757007724371265"><ele>357.79999999999995</ele><time>2026-05-04T15:53:57Z</time></trkpt><trkpt lat="43.73524275871434" lon="11.756848216283025"><ele>357.6</ele><time>2026-05-04T15:53:59Z</time></trkpt><trkpt lat="43.7352867356601" lon="11.756753095935407"><ele>357.4</ele><time>2026-05-04T15:54:00Z</time></trkpt><trkpt lat="43.73534311596665" lon="11.756647590786155"><ele>357.20000000000005</ele><time>2026-05-04T15:54:01Z</time></trkpt><trkpt lat="43.73540583202554" lon="11.756549800994595"><ele>357.0</ele><time>2026-05-04T15:54:02Z</time></trkpt><trkpt lat="43.73548116508014" lon="11.75644037944807"><ele>357.0</ele><time>2026-05-04T15:54:03Z</time></trkpt><trkpt lat="43.73556439347808" lon="11.75631817807088"><ele>357.0</ele><time>2026-05-04T15:54:04Z</time></trkpt><trkpt lat="43.73565624734987" lon="11.756184810167392"><ele>357.0</ele><time>2026-05-04T15:54:05Z</time></trkpt><trkpt lat="43.7357510191326" lon="11.756053965823975"><ele>357.0</ele><time>2026-05-04T15:54:06Z</time></trkpt><trkpt lat="43.73584400863573" lon="11.755902584139905"><ele>357.0</ele><time>2026-05-04T15:54:07Z</time></trkpt><trkpt lat="43.73592878823163" lon="11.755738478518579"><ele>357.0</ele><time>2026-05-04T15:54:08Z</time></trkpt><trkpt lat="43.73601135511119" lon="11.755560078989362"><ele>357.0</ele><time>2026-05-04T15:54:09Z</time></trkpt><trkpt lat="43.736091105724604" lon="11.755382868543306"><ele>357.0</ele><time>2026-05-04T15:54:10Z</time></trkpt><trkpt lat="43.736173776528666" lon="11.75520613541543"><ele>357.0</ele><time>2026-05-04T15:54:11Z</time></trkpt><trkpt lat="43.73626658744025" lon="11.755027786429892"><ele>357.0</ele><time>2026-05-04T15:54:12Z</time></trkpt><trkpt lat="43.736369771562565" lon="11.754860204775657"><ele>357.0</ele><time>2026-05-04T15:54:13Z</time></trkpt><trkpt lat="43.73647947867113" lon="11.754716917623586"><ele>357.0</ele><time>2026-05-04T15:54:14Z</time></trkpt><trkpt lat="43.73659291750404" lon="11.754578713007804"><ele>357.0</ele><time>2026-05-04T15:54:15Z</time></trkpt><trkpt lat="43.73670875457008" lon="11.754441462903321"><ele>357.6666666666667</ele><time>2026-05-04T15:54:16Z</time></trkpt><trkpt lat="43.736824336543265" lon="11.754302409595237"><ele>358.33333333333337</ele><time>2026-05-04T15:54:17Z</time></trkpt><trkpt lat="43.736934915310606" lon="11.754163011286087"><ele>359.0</ele><time>2026-05-04T15:54:18Z</time></trkpt><trkpt lat="43.737046073430626" lon="11.75401787643915"><ele>359.0</ele><time>2026-05-04T15:54:19Z</time></trkpt><trkpt lat="43.737150385195925" lon="11.753875450749549"><ele>359.0</ele><time>2026-05-04T15:54:20Z</time></trkpt><trkpt lat="43.737243635129175" lon="11.75373949943597"><ele>359.0</ele><time>2026-05-04T15:54:21Z</time></trkpt><trkpt lat="43.73732279888843" lon="11.753622566501882"><ele>359.0</ele><time>2026-05-04T15:54:22Z</time></trkpt><trkpt lat="43.737401058642725" lon="11.753498592450123"><ele>358.79999999999995</ele><time>2026-05-04T15:54:23Z</time></trkpt><trkpt lat="43.737472951923245" lon="11.75338992644064"><ele>358.59999999999997</ele><time>2026-05-04T15:54:24Z</time></trkpt><trkpt lat="43.737546398702456" lon="11.753294529431239"><ele>358.4</ele><time>2026-05-04T15:54:25Z</time></trkpt><trkpt lat="43.73762987800293" lon="11.753209759155562"><ele>358.2</ele><time>2026-05-04T15:54:26Z</time></trkpt><trkpt lat="43.73770258815111" lon="11.753154343856849"><ele>358.0</ele><time>2026-05-04T15:54:27Z</time></trkpt><trkpt lat="43.737783819301725" lon="11.753113691814297"><ele>358.0</ele><time>2026-05-04T15:54:28Z</time></trkpt><trkpt lat="43.73785531465407" lon="11.753073096327224"><ele>358.0</ele><time>2026-05-04T15:54:29Z</time></trkpt><trkpt lat="43.73791059291709" lon="11.753015280920632"><ele>358.0</ele><time>2026-05-04T15:54:30Z</time></trkpt><trkpt lat="43.738044947994354" lon="11.75309001611322"><ele>358.0</ele><time>2026-05-04T15:54:31Z</time></trkpt><trkpt lat="43.73811598749995" lon="11.753037232225699"><ele>358.0</ele><time>2026-05-04T15:54:32Z</time></trkpt><trkpt lat="43.738171569724564" lon="11.752961945020864"><ele>358.00000000000006</ele><time>2026-05-04T15:54:33Z</time></trkpt><trkpt lat="43.73820615926166" lon="11.752867047905987"><ele>358.0</ele><time>2026-05-04T15:54:34Z</time></trkpt><trkpt lat="43.73821133428539" lon="11.752767604406895"><ele>358.0</ele><time>2026-05-04T15:54:35Z</time></trkpt><trkpt lat="43.738192641377765" lon="11.752680466686655"><ele>358.0</ele><time>2026-05-04T15:54:36Z</time></trkpt><trkpt lat="43.7381574190565" lon="11.752602591029845"><ele>358.0</ele><time>2026-05-04T15:54:37Z</time></trkpt><trkpt lat="43.73809992699284" lon="11.752539526158095"><ele>358.00000000000006</ele><time>2026-05-04T15:54:38Z</time></trkpt><trkpt lat="43.738026366627494" lon="11.752510153644621"><ele>358.0</ele><time>2026-05-04T15:54:39Z</time></trkpt><trkpt lat="43.737942577634264" lon="11.752511492035044"><ele>357.79999999999995</ele><time>2026-05-04T15:54:40Z</time></trkpt><trkpt lat="43.73785230638624" lon="11.752507315633336"><ele>357.6</ele><time>2026-05-04T15:54:41Z</time></trkpt><trkpt lat="43.73778194856482" lon="11.7523447927256"><ele>357.4</ele><time>2026-05-04T15:54:42Z</time></trkpt><trkpt lat="43.737716673722275" lon="11.752231904287228"><ele>357.20000000000005</ele><time>2026-05-04T15:54:43Z</time></trkpt><trkpt lat="43.73768117627025" lon="11.7520982412751"><ele>357.0</ele><time>2026-05-04T15:54:44Z</time></trkpt><trkpt lat="43.73766633404559" lon="11.751951668854872"><ele>357.0</ele><time>2026-05-04T15:54:45Z</time></trkpt><trkpt lat="43.73769536741888" lon="11.751803871384462"><ele>357.0</ele><time>2026-05-04T15:54:46Z</time></trkpt><trkpt lat="43.737710992112916" lon="11.751651931856548"><ele>357.0</ele><time>2026-05-04T15:54:47Z</time></trkpt><trkpt lat="43.737752362349674" lon="11.751498947608455"><ele>357.0</ele><time>2026-05-04T15:54:48Z</time></trkpt><trkpt lat="43.73778953493516" lon="11.751330937408397"><ele>357.25</ele><time>2026-05-04T15:54:49Z</time></trkpt><trkpt lat="43.737819399049854" lon="11.751160503930864"><ele>357.5</ele><time>2026-05-04T15:54:50Z</time></trkpt><trkpt lat="43.73785238559944" lon="11.750989591639584"><ele>357.75</ele><time>2026-05-04T15:54:51Z</time></trkpt><trkpt lat="43.737886802302135" lon="11.750816006131188"><ele>358.0</ele><time>2026-05-04T15:54:52Z</time></trkpt><trkpt lat="43.73792116804402" lon="11.750641942438257"><ele>357.75</ele><time>2026-05-04T15:54:53Z</time></trkpt><trkpt lat="43.73795432999743" lon="11.75046242646966"><ele>357.5</ele><time>2026-05-04T15:54:54Z</time></trkpt><trkpt lat="43.737986123822886" lon="11.750286458754582"><ele>357.25</ele><time>2026-05-04T15:54:55Z</time></trkpt><trkpt lat="43.73802173321673" lon="11.750103406485575"><ele>357.0</ele><time>2026-05-04T15:54:56Z</time></trkpt><trkpt lat="43.73805963084307" lon="11.749924323381556"><ele>357.0</ele><time>2026-05-04T15:54:57Z</time></trkpt><trkpt lat="43.73809733594519" lon="11.749742766547605"><ele>357.0</ele><time>2026-05-04T15:54:58Z</time></trkpt><trkpt lat="43.73813851790868" lon="11.74955997038661"><ele>357.0</ele><time>2026-05-04T15:54:59Z</time></trkpt><trkpt lat="43.7381835156684" lon="11.749385151282025"><ele>357.0</ele><time>2026-05-04T15:55:00Z</time></trkpt><trkpt lat="43.7382372165162" lon="11.7491980471226"><ele>356.25</ele><time>2026-05-04T15:55:01Z</time></trkpt><trkpt lat="43.73829035433703" lon="11.749015117081846"><ele>355.5</ele><time>2026-05-04T15:55:02Z</time></trkpt><trkpt lat="43.73834351960516" lon="11.748824561308382"><ele>354.75</ele><time>2026-05-04T15:55:03Z</time></trkpt><trkpt lat="43.73840129545397" lon="11.7486317234947"><ele>354.0</ele><time>2026-05-04T15:55:04Z</time></trkpt><trkpt lat="43.73846098703678" lon="11.748434619143273"><ele>354.0</ele><time>2026-05-04T15:55:05Z</time></trkpt><trkpt lat="43.738518321375246" lon="11.74823693039053"><ele>354.0</ele><time>2026-05-04T15:55:06Z</time></trkpt><trkpt lat="43.738579137219844" lon="11.748043203939902"><ele>354.0</ele><time>2026-05-04T15:55:07Z</time></trkpt><trkpt lat="43.738638820649506" lon="11.747844513166095"><ele>354.0</ele><time>2026-05-04T15:55:08Z</time></trkpt><trkpt lat="43.73869600435445" lon="11.747650728827143"><ele>354.0</ele><time>2026-05-04T15:55:09Z</time></trkpt><trkpt lat="43.73875162342222" lon="11.747460353257749"><ele>354.0</ele><time>2026-05-04T15:55:10Z</time></trkpt><trkpt lat="43.73880657849325" lon="11.747270682465633"><ele>354.0</ele><time>2026-05-04T15:55:11Z</time></trkpt><trkpt lat="43.73886215895891" lon="11.747079412444313"><ele>354.0</ele><time>2026-05-04T15:55:12Z</time></trkpt><trkpt lat="43.73891832967732" lon="11.746886876850589"><ele>354.0</ele><time>2026-05-04T15:55:13Z</time></trkpt><trkpt lat="43.73897522131823" lon="11.74669299867454"><ele>354.0</ele><time>2026-05-04T15:55:14Z</time></trkpt><trkpt lat="43.73903216841446" lon="11.746502596259624"><ele>354.0</ele><time>2026-05-04T15:55:15Z</time></trkpt><trkpt lat="43.73908918213634" lon="11.746307228040706"><ele>354.0</ele><time>2026-05-04T15:55:16Z</time></trkpt><trkpt lat="43.73914569405165" lon="11.746112949006308"><ele>354.0</ele><time>2026-05-04T15:55:17Z</time></trkpt><trkpt lat="43.73920576087235" lon="11.745916142652563"><ele>354.0</ele><time>2026-05-04T15:55:18Z</time></trkpt><trkpt lat="43.73926538293444" lon="11.745721108581789"><ele>354.0</ele><time>2026-05-04T15:55:19Z</time></trkpt><trkpt lat="43.73932059323357" lon="11.745528795982466"><ele>354.0</ele><time>2026-05-04T15:55:20Z</time></trkpt><trkpt lat="43.739375818543586" lon="11.745333644399215"><ele>354.25</ele><time>2026-05-04T15:55:21Z</time></trkpt><trkpt lat="43.739432741168514" lon="11.745143629079152"><ele>354.5</ele><time>2026-05-04T15:55:22Z</time></trkpt><trkpt lat="43.739487578089374" lon="11.74494765007589"><ele>354.75</ele><time>2026-05-04T15:55:23Z</time></trkpt><trkpt lat="43.73954734552893" lon="11.744759363272811"><ele>355.0</ele><time>2026-05-04T15:55:24Z</time></trkpt><trkpt lat="43.7396005709004" lon="11.744572319307368"><ele>355.0</ele><time>2026-05-04T15:55:25Z</time></trkpt><trkpt lat="43.739654131446244" lon="11.74438593404052"><ele>355.0</ele><time>2026-05-04T15:55:26Z</time></trkpt><trkpt lat="43.73971155999668" lon="11.744195151241096"><ele>355.0</ele><time>2026-05-04T15:55:27Z</time></trkpt><trkpt lat="43.7397662756682" lon="11.744007843945868"><ele>355.0</ele><time>2026-05-04T15:55:28Z</time></trkpt><trkpt lat="43.73982110933447" lon="11.743823910280469"><ele>354.75</ele><time>2026-05-04T15:55:29Z</time></trkpt><trkpt lat="43.73987607986522" lon="11.743639091709122"><ele>354.5</ele><time>2026-05-04T15:55:30Z</time></trkpt><trkpt lat="43.7399307258344" lon="11.743457733114868"><ele>354.25</ele><time>2026-05-04T15:55:31Z</time></trkpt><trkpt lat="43.73998735011915" lon="11.743266693922966"><ele>354.0</ele><time>2026-05-04T15:55:32Z</time></trkpt><trkpt lat="43.74004087011461" lon="11.743088107193316"><ele>353.75</ele><time>2026-05-04T15:55:33Z</time></trkpt><trkpt lat="43.74009470413508" lon="11.742901601593156"><ele>353.5</ele><time>2026-05-04T15:55:34Z</time></trkpt><trkpt lat="43.74015004596499" lon="11.742714023833178"><ele>353.25</ele><time>2026-05-04T15:55:35Z</time></trkpt><trkpt lat="43.74020487085453" lon="11.742531569455926"><ele>353.0</ele><time>2026-05-04T15:55:36Z</time></trkpt><trkpt lat="43.74025847033688" lon="11.742344581365089"><ele>353.0</ele><time>2026-05-04T15:55:37Z</time></trkpt><trkpt lat="43.74031532231301" lon="11.742151520244686"><ele>353.0</ele><time>2026-05-04T15:55:38Z</time></trkpt><trkpt lat="43.74037232069902" lon="11.741967683571543"><ele>353.0</ele><time>2026-05-04T15:55:39Z</time></trkpt><trkpt lat="43.74042818081866" lon="11.741785554795952"><ele>353.0</ele><time>2026-05-04T15:55:40Z</time></trkpt><trkpt lat="43.74048350651356" lon="11.741597137334582"><ele>352.75</ele><time>2026-05-04T15:55:41Z</time></trkpt><trkpt lat="43.74053752242643" lon="11.741420714361638"><ele>352.5</ele><time>2026-05-04T15:55:42Z</time></trkpt><trkpt lat="43.74058846506249" lon="11.741243282859813"><ele>352.25</ele><time>2026-05-04T15:55:43Z</time></trkpt><trkpt lat="43.74063187042419" lon="11.741074485304123"><ele>352.0</ele><time>2026-05-04T15:55:44Z</time></trkpt><trkpt lat="43.74065916220865" lon="11.740917234145263"><ele>351.75</ele><time>2026-05-04T15:55:45Z</time></trkpt><trkpt lat="43.740664073343034" lon="11.740764267876756"><ele>351.5</ele><time>2026-05-04T15:55:46Z</time></trkpt><trkpt lat="43.74064469013626" lon="11.740608930073835"><ele>351.25</ele><time>2026-05-04T15:55:47Z</time></trkpt><trkpt lat="43.740606712628356" lon="11.740451425491004"><ele>351.0</ele><time>2026-05-04T15:55:48Z</time></trkpt><trkpt lat="43.74057238907099" lon="11.740291311975648"><ele>351.0</ele><time>2026-05-04T15:55:49Z</time></trkpt><trkpt lat="43.740549396758205" lon="11.74012572871951"><ele>351.0</ele><time>2026-05-04T15:55:50Z</time></trkpt><trkpt lat="43.74053859311979" lon="11.739967842629449"><ele>351.0</ele><time>2026-05-04T15:55:51Z</time></trkpt><trkpt lat="43.74055072324336" lon="11.739814042241573"><ele>351.0</ele><time>2026-05-04T15:55:52Z</time></trkpt><trkpt lat="43.74059947765391" lon="11.73967855874576"><ele>351.0</ele><time>2026-05-04T15:55:53Z</time></trkpt><trkpt lat="43.740676130063015" lon="11.739549992485198"><ele>351.0</ele><time>2026-05-04T15:55:54Z</time></trkpt><trkpt lat="43.740770542953825" lon="11.73943825887068"><ele>351.0</ele><time>2026-05-04T15:55:55Z</time></trkpt><trkpt lat="43.74087095679321" lon="11.73933304629581"><ele>351.0</ele><time>2026-05-04T15:55:56Z</time></trkpt><trkpt lat="43.74097500010394" lon="11.739233260100805"><ele>351.75</ele><time>2026-05-04T15:55:57Z</time></trkpt><trkpt lat="43.74108735490533" lon="11.739118873191853"><ele>352.5</ele><time>2026-05-04T15:55:58Z</time></trkpt><trkpt lat="43.74119677353361" lon="11.739002062743857"><ele>353.25</ele><time>2026-05-04T15:55:59Z</time></trkpt><trkpt lat="43.74130841610487" lon="11.73888763678232"><ele>354.0</ele><time>2026-05-04T15:56:00Z</time></trkpt><trkpt lat="43.74142342505573" lon="11.738775537294318"><ele>354.0</ele><time>2026-05-04T15:56:01Z</time></trkpt><trkpt lat="43.74154035252953" lon="11.738658340989295"><ele>354.0</ele><time>2026-05-04T15:56:02Z</time></trkpt><trkpt lat="43.74165487206534" lon="11.738543218583295"><ele>354.0</ele><time>2026-05-04T15:56:03Z</time></trkpt><trkpt lat="43.741769230601214" lon="11.738428913434893"><ele>354.0</ele><time>2026-05-04T15:56:04Z</time></trkpt><trkpt lat="43.74188287822097" lon="11.738311813942502"><ele>354.25</ele><time>2026-05-04T15:56:05Z</time></trkpt><trkpt lat="43.74199681225147" lon="11.738196781567835"><ele>354.5</ele><time>2026-05-04T15:56:06Z</time></trkpt><trkpt lat="43.742110814008726" lon="11.738077343876602"><ele>354.75</ele><time>2026-05-04T15:56:07Z</time></trkpt><trkpt lat="43.742226115134315" lon="11.737959968763935"><ele>355.0</ele><time>2026-05-04T15:56:08Z</time></trkpt><trkpt lat="43.74234577774491" lon="11.737841420584354"><ele>355.0</ele><time>2026-05-04T15:56:09Z</time></trkpt><trkpt lat="43.74246383414826" lon="11.737722997897716"><ele>355.0</ele><time>2026-05-04T15:56:10Z</time></trkpt><trkpt lat="43.7425816733156" lon="11.737602479213166"><ele>355.0</ele><time>2026-05-04T15:56:11Z</time></trkpt><trkpt lat="43.742698016918126" lon="11.737483125292108"><ele>355.0</ele><time>2026-05-04T15:56:12Z</time></trkpt><trkpt lat="43.742807358914945" lon="11.737366244323058"><ele>354.75</ele><time>2026-05-04T15:56:13Z</time></trkpt><trkpt lat="43.74291628303993" lon="11.737235762713523"><ele>354.5</ele><time>2026-05-04T15:56:14Z</time></trkpt><trkpt lat="43.743013623984446" lon="11.737085873948816"><ele>354.25</ele><time>2026-05-04T15:56:15Z</time></trkpt><trkpt lat="43.74309305163649" lon="11.736915170663767"><ele>354.0</ele><time>2026-05-04T15:56:16Z</time></trkpt><trkpt lat="43.74315247211783" lon="11.736723517269667"><ele>354.75</ele><time>2026-05-04T15:56:17Z</time></trkpt><trkpt lat="43.74318597568879" lon="11.736523104704425"><ele>355.5</ele><time>2026-05-04T15:56:18Z</time></trkpt><trkpt lat="43.74319574595569" lon="11.736317284340117"><ele>356.25</ele><time>2026-05-04T15:56:19Z</time></trkpt><trkpt lat="43.743185123636664" lon="11.736117549922778"><ele>357.0</ele><time>2026-05-04T15:56:20Z</time></trkpt><trkpt lat="43.74318027916606" lon="11.735919736661755"><ele>358.5</ele><time>2026-05-04T15:56:21Z</time></trkpt><trkpt lat="43.743183338859694" lon="11.735731363220216"><ele>360.0</ele><time>2026-05-04T15:56:22Z</time></trkpt><trkpt lat="43.743202771289745" lon="11.735559715071524"><ele>361.5</ele><time>2026-05-04T15:56:23Z</time></trkpt><trkpt lat="43.74324528600647" lon="11.735408447396452"><ele>363.0</ele><time>2026-05-04T15:56:24Z</time></trkpt><trkpt lat="43.743320676060044" lon="11.735261258913383"><ele>363.75</ele><time>2026-05-04T15:56:25Z</time></trkpt><trkpt lat="43.74339353249407" lon="11.735100044717289"><ele>364.5</ele><time>2026-05-04T15:56:26Z</time></trkpt><trkpt lat="43.74345633890687" lon="11.734934323541022"><ele>365.25</ele><time>2026-05-04T15:56:27Z</time></trkpt><trkpt lat="43.74351645051202" lon="11.734779778051367"><ele>366.0</ele><time>2026-05-04T15:56:28Z</time></trkpt><trkpt lat="43.74358022648976" lon="11.734631327107424"><ele>367.0</ele><time>2026-05-04T15:56:29Z</time></trkpt><trkpt lat="43.743642279370945" lon="11.73447808002027"><ele>368.0</ele><time>2026-05-04T15:56:30Z</time></trkpt><trkpt lat="43.74370177703072" lon="11.734318286695391"><ele>369.0</ele><time>2026-05-04T15:56:31Z</time></trkpt><trkpt lat="43.743760861022906" lon="11.734181706008371"><ele>370.0</ele><time>2026-05-04T15:56:32Z</time></trkpt><trkpt lat="43.74381065725673" lon="11.734060735287283"><ele>371.0</ele><time>2026-05-04T15:56:33Z</time></trkpt><trkpt lat="43.7438488148873" lon="11.733963993898804"><ele>372.0</ele><time>2026-05-04T15:56:34Z</time></trkpt><trkpt lat="43.74389717780101" lon="11.733824894686721"><ele>373.0</ele><time>2026-05-04T15:56:36Z</time></trkpt><trkpt lat="43.74393246866554" lon="11.73372386357553"><ele>374.0</ele><time>2026-05-04T15:56:57Z</time></trkpt><trkpt lat="43.74397575759405" lon="11.733578614039768"><ele>375.0</ele><time>2026-05-04T15:56:59Z</time></trkpt><trkpt lat="43.74400801753546" lon="11.733473221541846"><ele>375.6</ele><time>2026-05-04T15:57:00Z</time></trkpt><trkpt lat="43.74404818906148" lon="11.733357499768132"><ele>376.2</ele><time>2026-05-04T15:57:01Z</time></trkpt><trkpt lat="43.74409318444746" lon="11.733228768816959"><ele>376.79999999999995</ele><time>2026-05-04T15:57:02Z</time></trkpt><trkpt lat="43.74414117766273" lon="11.733087284671583"><ele>377.4</ele><time>2026-05-04T15:57:03Z</time></trkpt><trkpt lat="43.744191822999255" lon="11.732925107779185"><ele>378.0</ele><time>2026-05-04T15:57:04Z</time></trkpt><trkpt lat="43.74425381972479" lon="11.732757620744097"><ele>377.5</ele><time>2026-05-04T15:57:05Z</time></trkpt><trkpt lat="43.74432098519912" lon="11.732587457265833"><ele>377.0</ele><time>2026-05-04T15:57:06Z</time></trkpt><trkpt lat="43.74439207937762" lon="11.732412833261177"><ele>376.5</ele><time>2026-05-04T15:57:07Z</time></trkpt><trkpt lat="43.74444979367213" lon="11.732283326690563"><ele>376.0</ele><time>2026-05-04T15:57:08Z</time></trkpt><trkpt lat="43.74451751533756" lon="11.732139834942862"><ele>379.75</ele><time>2026-05-04T15:57:09Z</time></trkpt><trkpt lat="43.74458389831828" lon="11.731989466175417"><ele>383.5</ele><time>2026-05-04T15:57:10Z</time></trkpt><trkpt lat="43.74465518661513" lon="11.731839731116942"><ele>387.25</ele><time>2026-05-04T15:57:11Z</time></trkpt><trkpt lat="43.74472505837886" lon="11.731694462389015"><ele>391.0</ele><time>2026-05-04T15:57:12Z</time></trkpt><trkpt lat="43.744794927390075" lon="11.731540746469781"><ele>391.0</ele><time>2026-05-04T15:57:13Z</time></trkpt><trkpt lat="43.744864193066114" lon="11.731389366400037"><ele>391.0</ele><time>2026-05-04T15:57:14Z</time></trkpt><trkpt lat="43.74492890302038" lon="11.731231058604623"><ele>391.0</ele><time>2026-05-04T15:57:15Z</time></trkpt><trkpt lat="43.74498527090555" lon="11.731060796997971"><ele>391.0</ele><time>2026-05-04T15:57:16Z</time></trkpt><trkpt lat="43.74503636922295" lon="11.730884213020696"><ele>390.0</ele><time>2026-05-04T15:57:17Z</time></trkpt><trkpt lat="43.74508145029315" lon="11.730701276905537"><ele>389.0</ele><time>2026-05-04T15:57:18Z</time></trkpt><trkpt lat="43.74511473675411" lon="11.730518331181061"><ele>388.0</ele><time>2026-05-04T15:57:19Z</time></trkpt><trkpt lat="43.745153560449744" lon="11.730329199092493"><ele>387.0</ele><time>2026-05-04T15:57:20Z</time></trkpt><trkpt lat="43.745195542119575" lon="11.7301361121725"><ele>390.75</ele><time>2026-05-04T15:57:21Z</time></trkpt><trkpt lat="43.74523966296846" lon="11.729942440136805"><ele>394.5</ele><time>2026-05-04T15:57:22Z</time></trkpt><trkpt lat="43.74528489355142" lon="11.72976549560843"><ele>398.25</ele><time>2026-05-04T15:57:23Z</time></trkpt><trkpt lat="43.74533398253082" lon="11.729585409041013"><ele>402.0</ele><time>2026-05-04T15:57:24Z</time></trkpt><trkpt lat="43.74539190912573" lon="11.729405318293082"><ele>401.25</ele><time>2026-05-04T15:57:25Z</time></trkpt><trkpt lat="43.74546502996272" lon="11.729237560120069"><ele>400.5</ele><time>2026-05-04T15:57:26Z</time></trkpt><trkpt lat="43.74554966925378" lon="11.729086093653788"><ele>399.75</ele><time>2026-05-04T15:57:27Z</time></trkpt><trkpt lat="43.74564524257883" lon="11.728943080735052"><ele>399.0</ele><time>2026-05-04T15:57:28Z</time></trkpt><trkpt lat="43.74575750481563" lon="11.728816983652898"><ele>399.0</ele><time>2026-05-04T15:57:29Z</time></trkpt><trkpt lat="43.74588016304902" lon="11.728697505418921"><ele>399.0</ele><time>2026-05-04T15:57:30Z</time></trkpt><trkpt lat="43.745998455475174" lon="11.728573441594333"><ele>399.0</ele><time>2026-05-04T15:57:31Z</time></trkpt><trkpt lat="43.746110845476956" lon="11.728433378056735"><ele>401.0</ele><time>2026-05-04T15:57:32Z</time></trkpt><trkpt lat="43.74621401936635" lon="11.728285588191037"><ele>403.0</ele><time>2026-05-04T15:57:33Z</time></trkpt><trkpt lat="43.74631578117664" lon="11.728137009662722"><ele>405.0</ele><time>2026-05-04T15:57:34Z</time></trkpt><trkpt lat="43.74640741839383" lon="11.727970368934413"><ele>407.0</ele><time>2026-05-04T15:57:35Z</time></trkpt><trkpt lat="43.74649647083561" lon="11.727802392656278"><ele>406.75</ele><time>2026-05-04T15:57:36Z</time></trkpt><trkpt lat="43.74658540803292" lon="11.72764261546133"><ele>406.5</ele><time>2026-05-04T15:57:37Z</time></trkpt><trkpt lat="43.74667806630192" lon="11.727480138728126"><ele>406.25</ele><time>2026-05-04T15:57:38Z</time></trkpt><trkpt lat="43.74676913743998" lon="11.72732001556774"><ele>406.0</ele><time>2026-05-04T15:57:39Z</time></trkpt><trkpt lat="43.74685973250531" lon="11.727154155179836"><ele>408.0</ele><time>2026-05-04T15:57:40Z</time></trkpt><trkpt lat="43.746942228629614" lon="11.727002607500594"><ele>410.0</ele><time>2026-05-04T15:57:41Z</time></trkpt><trkpt lat="43.74702119230057" lon="11.72685593821214"><ele>412.0</ele><time>2026-05-04T15:57:42Z</time></trkpt><trkpt lat="43.74709948912595" lon="11.72672519952451"><ele>414.0</ele><time>2026-05-04T15:57:43Z</time></trkpt><trkpt lat="43.747186964528694" lon="11.726607641718141"><ele>414.0</ele><time>2026-05-04T15:57:44Z</time></trkpt><trkpt lat="43.74729200013408" lon="11.726519928369543"><ele>414.0</ele><time>2026-05-04T15:57:45Z</time></trkpt><trkpt lat="43.74740891759526" lon="11.726455631762773"><ele>414.0</ele><time>2026-05-04T15:57:46Z</time></trkpt><trkpt lat="43.74753175449841" lon="11.726428907601806"><ele>414.0</ele><time>2026-05-04T15:57:47Z</time></trkpt><trkpt lat="43.74765908802241" lon="11.726426643634976"><ele>415.5</ele><time>2026-05-04T15:57:48Z</time></trkpt><trkpt lat="43.74779209059391" lon="11.726420538109494"><ele>417.0</ele><time>2026-05-04T15:57:49Z</time></trkpt><trkpt lat="43.74792895686558" lon="11.726379761495076"><ele>418.5</ele><time>2026-05-04T15:57:50Z</time></trkpt><trkpt lat="43.74804918761034" lon="11.726307457099814"><ele>420.0</ele><time>2026-05-04T15:57:51Z</time></trkpt><trkpt lat="43.74816050731146" lon="11.726207912245632"><ele>420.0</ele><time>2026-05-04T15:57:52Z</time></trkpt><trkpt lat="43.74826995464601" lon="11.726102358271481"><ele>420.0</ele><time>2026-05-04T15:57:53Z</time></trkpt><trkpt lat="43.74837470763846" lon="11.726019581931292"><ele>420.0</ele><time>2026-05-04T15:57:54Z</time></trkpt><trkpt lat="43.74848635434437" lon="11.72597997366734"><ele>420.0</ele><time>2026-05-04T15:57:55Z</time></trkpt><trkpt lat="43.7485931787549" lon="11.725953419565318"><ele>419.8</ele><time>2026-05-04T15:57:56Z</time></trkpt><trkpt lat="43.74870377149451" lon="11.725956045519053"><ele>419.6</ele><time>2026-05-04T15:57:57Z</time></trkpt><trkpt lat="43.74882329957899" lon="11.725963738772455"><ele>419.4</ele><time>2026-05-04T15:57:58Z</time></trkpt><trkpt lat="43.748920912878255" lon="11.72598653984158"><ele>419.2</ele><time>2026-05-04T15:57:59Z</time></trkpt><trkpt lat="43.74901452345963" lon="11.72595150389946"><ele>419.0</ele><time>2026-05-04T15:58:00Z</time></trkpt><trkpt lat="43.74908984610896" lon="11.725852514749532"><ele>419.0</ele><time>2026-05-04T15:58:01Z</time></trkpt><trkpt lat="43.749163121173105" lon="11.725718636696348"><ele>419.0</ele><time>2026-05-04T15:58:02Z</time></trkpt><trkpt lat="43.749240480494" lon="11.725593553593423"><ele>419.0</ele><time>2026-05-04T15:58:03Z</time></trkpt><trkpt lat="43.74932460325283" lon="11.725473870560439"><ele>419.0</ele><time>2026-05-04T15:58:04Z</time></trkpt><trkpt lat="43.749400413058375" lon="11.725373664096718"><ele>420.0</ele><time>2026-05-04T15:58:05Z</time></trkpt><trkpt lat="43.749469628702606" lon="11.725286304398477"><ele>421.0</ele><time>2026-05-04T15:58:06Z</time></trkpt><trkpt lat="43.74961812103225" lon="11.72509816669136"><ele>422.0</ele><time>2026-05-04T15:58:08Z</time></trkpt><trkpt lat="43.74968632573795" lon="11.7249975052862"><ele>423.0</ele><time>2026-05-04T15:58:09Z</time></trkpt><trkpt lat="43.74975365144679" lon="11.724896892208566"><ele>423.0</ele><time>2026-05-04T15:58:10Z</time></trkpt><trkpt lat="43.749825241562625" lon="11.72480086959359"><ele>423.0</ele><time>2026-05-04T15:58:11Z</time></trkpt><trkpt lat="43.74988718586708" lon="11.724705828691866"><ele>423.0</ele><time>2026-05-04T15:58:12Z</time></trkpt><trkpt lat="43.74995354162777" lon="11.724605556634636"><ele>423.0</ele><time>2026-05-04T15:58:13Z</time></trkpt><trkpt lat="43.75002094932061" lon="11.724519414044265"><ele>423.0</ele><time>2026-05-04T15:58:14Z</time></trkpt><trkpt lat="43.750109527897386" lon="11.724487297249949"><ele>423.0</ele><time>2026-05-04T15:58:15Z</time></trkpt><trkpt lat="43.75018063070584" lon="11.724433623101708"><ele>423.0</ele><time>2026-05-04T15:58:16Z</time></trkpt><trkpt lat="43.75026605367218" lon="11.724333731248699"><ele>423.0</ele><time>2026-05-04T15:58:18Z</time></trkpt><trkpt lat="43.75032392010966" lon="11.724287287828272"><ele>423.0</ele><time>2026-05-04T15:58:19Z</time></trkpt><trkpt lat="43.75038619543783" lon="11.724257560637236"><ele>423.0</ele><time>2026-05-04T15:58:20Z</time></trkpt><trkpt lat="43.750474037793516" lon="11.724167656761237"><ele>423.0</ele><time>2026-05-04T15:58:21Z</time></trkpt><trkpt lat="43.7505624745006" lon="11.724086836807011"><ele>424.0</ele><time>2026-05-04T15:58:22Z</time></trkpt><trkpt lat="43.750656323639724" lon="11.724017640648976"><ele>425.0</ele><time>2026-05-04T15:58:23Z</time></trkpt><trkpt lat="43.750759707871744" lon="11.723959922711309"><ele>426.0</ele><time>2026-05-04T15:58:24Z</time></trkpt><trkpt lat="43.750859755091916" lon="11.723868545878222"><ele>427.0</ele><time>2026-05-04T15:58:25Z</time></trkpt><trkpt lat="43.75096574495064" lon="11.72379454133885"><ele>426.5</ele><time>2026-05-04T15:58:26Z</time></trkpt><trkpt lat="43.751073652864655" lon="11.72371768884453"><ele>426.0</ele><time>2026-05-04T15:58:27Z</time></trkpt><trkpt lat="43.751179316181464" lon="11.723633767781623"><ele>425.5</ele><time>2026-05-04T15:58:28Z</time></trkpt><trkpt lat="43.75129132004755" lon="11.723556514202974"><ele>425.0</ele><time>2026-05-04T15:58:29Z</time></trkpt><trkpt lat="43.751408032276494" lon="11.723478639460462"><ele>425.0</ele><time>2026-05-04T15:58:30Z</time></trkpt><trkpt lat="43.75153482593365" lon="11.723393755435113"><ele>425.0</ele><time>2026-05-04T15:58:31Z</time></trkpt><trkpt lat="43.751664434561945" lon="11.723309109786323"><ele>425.0</ele><time>2026-05-04T15:58:32Z</time></trkpt><trkpt lat="43.75179841951242" lon="11.723227427635726"><ele>425.0</ele><time>2026-05-04T15:58:33Z</time></trkpt><trkpt lat="43.75193428044857" lon="11.723126926151267"><ele>423.5</ele><time>2026-05-04T15:58:34Z</time></trkpt><trkpt lat="43.75206808071829" lon="11.723040145059832"><ele>422.0</ele><time>2026-05-04T15:58:35Z</time></trkpt><trkpt lat="43.75220273316849" lon="11.722953841261218"><ele>420.5</ele><time>2026-05-04T15:58:36Z</time></trkpt><trkpt lat="43.752326464401" lon="11.722871492069332"><ele>419.0</ele><time>2026-05-04T15:58:37Z</time></trkpt><trkpt lat="43.75244601174395" lon="11.722772600055103"><ele>420.25</ele><time>2026-05-04T15:58:38Z</time></trkpt><trkpt lat="43.75255101590664" lon="11.722651401622871"><ele>421.5</ele><time>2026-05-04T15:58:39Z</time></trkpt><trkpt lat="43.752636994435626" lon="11.722508187636901"><ele>422.75</ele><time>2026-05-04T15:58:40Z</time></trkpt><trkpt lat="43.752691388866985" lon="11.722350442860728"><ele>424.0</ele><time>2026-05-04T15:58:41Z</time></trkpt><trkpt lat="43.752735866111664" lon="11.722170765311295"><ele>425.25</ele><time>2026-05-04T15:58:42Z</time></trkpt><trkpt lat="43.75276820350649" lon="11.721992533497241"><ele>426.5</ele><time>2026-05-04T15:58:43Z</time></trkpt><trkpt lat="43.75279552082746" lon="11.721830080393623"><ele>427.75</ele><time>2026-05-04T15:58:44Z</time></trkpt><trkpt lat="43.75283386307941" lon="11.721695352778553"><ele>429.0</ele><time>2026-05-04T15:58:45Z</time></trkpt><trkpt lat="43.75289286567758" lon="11.721568168875104"><ele>430.6</ele><time>2026-05-04T15:58:46Z</time></trkpt><trkpt lat="43.75297092769853" lon="11.72146551764735"><ele>432.2</ele><time>2026-05-04T15:58:47Z</time></trkpt><trkpt lat="43.75307747565564" lon="11.721412143873073"><ele>433.80000000000007</ele><time>2026-05-04T15:58:48Z</time></trkpt><trkpt lat="43.75317372808971" lon="11.721335635784195"><ele>435.40000000000003</ele><time>2026-05-04T15:58:49Z</time></trkpt><trkpt lat="43.753276132160096" lon="11.721257026090203"><ele>437.0</ele><time>2026-05-04T15:58:50Z</time></trkpt><trkpt lat="43.753368142049624" lon="11.721150398928586"><ele>436.75</ele><time>2026-05-04T15:58:51Z</time></trkpt><trkpt lat="43.75345003196715" lon="11.721021226834383"><ele>436.5</ele><time>2026-05-04T15:58:52Z</time></trkpt><trkpt lat="43.75352006056873" lon="11.72087248721167"><ele>436.25</ele><time>2026-05-04T15:58:53Z</time></trkpt><trkpt lat="43.75357876428916" lon="11.720715246203799"><ele>436.0</ele><time>2026-05-04T15:58:54Z</time></trkpt><trkpt lat="43.75362826857226" lon="11.720552704281756"><ele>438.0</ele><time>2026-05-04T15:58:55Z</time></trkpt><trkpt lat="43.7536730985352" lon="11.720389886864286"><ele>440.0</ele><time>2026-05-04T15:58:56Z</time></trkpt><trkpt lat="43.753723335253746" lon="11.720232443023747"><ele>442.0</ele><time>2026-05-04T15:58:57Z</time></trkpt><trkpt lat="43.75378750990442" lon="11.7200924491404"><ele>444.0</ele><time>2026-05-04T15:58:58Z</time></trkpt><trkpt lat="43.753878463234905" lon="11.719984311365783"><ele>444.0</ele><time>2026-05-04T15:58:59Z</time></trkpt><trkpt lat="43.753996990412155" lon="11.719930742518358"><ele>444.0</ele><time>2026-05-04T15:59:00Z</time></trkpt><trkpt lat="43.75411300848501" lon="11.719890105360351"><ele>444.0</ele><time>2026-05-04T15:59:01Z</time></trkpt><trkpt lat="43.75423815027439" lon="11.719839343035122"><ele>444.0</ele><time>2026-05-04T15:59:02Z</time></trkpt><trkpt lat="43.75437539370676" lon="11.719812399980366"><ele>446.0</ele><time>2026-05-04T15:59:03Z</time></trkpt><trkpt lat="43.75450834761642" lon="11.719782369717707"><ele>448.0</ele><time>2026-05-04T15:59:04Z</time></trkpt><trkpt lat="43.754637102761336" lon="11.71975142552077"><ele>450.0</ele><time>2026-05-04T15:59:05Z</time></trkpt><trkpt lat="43.75476840378764" lon="11.719694870127524"><ele>452.0</ele><time>2026-05-04T15:59:06Z</time></trkpt><trkpt lat="43.75488985849187" lon="11.719605900218928"><ele>452.0</ele><time>2026-05-04T15:59:07Z</time></trkpt><trkpt lat="43.75499447124765" lon="11.71948018156994"><ele>452.0</ele><time>2026-05-04T15:59:08Z</time></trkpt><trkpt lat="43.7550910182542" lon="11.719332765817299"><ele>452.0</ele><time>2026-05-04T15:59:09Z</time></trkpt><trkpt lat="43.75518622279083" lon="11.719184439161847"><ele>452.0</ele><time>2026-05-04T15:59:10Z</time></trkpt><trkpt lat="43.755283030113034" lon="11.719043169598987"><ele>454.25</ele><time>2026-05-04T15:59:11Z</time></trkpt><trkpt lat="43.75537221013092" lon="11.718908111668853"><ele>456.5</ele><time>2026-05-04T15:59:12Z</time></trkpt><trkpt lat="43.75544759076127" lon="11.718760774787846"><ele>458.75</ele><time>2026-05-04T15:59:13Z</time></trkpt><trkpt lat="43.75549577076711" lon="11.71861579329245"><ele>461.0</ele><time>2026-05-04T15:59:14Z</time></trkpt><trkpt lat="43.755528950299606" lon="11.718479888575386"><ele>461.20000000000005</ele><time>2026-05-04T15:59:15Z</time></trkpt><trkpt lat="43.75555295778067" lon="11.71834242864235"><ele>461.40000000000003</ele><time>2026-05-04T15:59:16Z</time></trkpt><trkpt lat="43.75557596821801" lon="11.718211515322995"><ele>461.6</ele><time>2026-05-04T15:59:17Z</time></trkpt><trkpt lat="43.75561396586489" lon="11.718082369777187"><ele>461.8</ele><time>2026-05-04T15:59:18Z</time></trkpt><trkpt lat="43.75568021007848" lon="11.717966775195025"><ele>462.0</ele><time>2026-05-04T15:59:19Z</time></trkpt><trkpt lat="43.7557652634895" lon="11.717873812952694"><ele>462.0</ele><time>2026-05-04T15:59:20Z</time></trkpt><trkpt lat="43.755861310084555" lon="11.71777920614523"><ele>462.0</ele><time>2026-05-04T15:59:21Z</time></trkpt><trkpt lat="43.755969717743476" lon="11.717701931801823"><ele>462.0</ele><time>2026-05-04T15:59:22Z</time></trkpt><trkpt lat="43.75607666842382" lon="11.71764193329698"><ele>462.0</ele><time>2026-05-04T15:59:23Z</time></trkpt><trkpt lat="43.75619297572079" lon="11.71758355113128"><ele>463.5</ele><time>2026-05-04T15:59:24Z</time></trkpt><trkpt lat="43.75630719483467" lon="11.717525465453104"><ele>465.0</ele><time>2026-05-04T15:59:25Z</time></trkpt><trkpt lat="43.75642676195239" lon="11.71746626478528"><ele>466.5</ele><time>2026-05-04T15:59:26Z</time></trkpt><trkpt lat="43.756545690446984" lon="11.717417369665673"><ele>468.0</ele><time>2026-05-04T15:59:27Z</time></trkpt><trkpt lat="43.75667016975716" lon="11.717390629083761"><ele>468.0</ele><time>2026-05-04T15:59:28Z</time></trkpt><trkpt lat="43.756803048770166" lon="11.717393193880095"><ele>468.0</ele><time>2026-05-04T15:59:29Z</time></trkpt><trkpt lat="43.75693379009036" lon="11.717405587710417"><ele>468.0</ele><time>2026-05-04T15:59:30Z</time></trkpt><trkpt lat="43.757063245795166" lon="11.717412967808581"><ele>468.0</ele><time>2026-05-04T15:59:31Z</time></trkpt><trkpt lat="43.75719098380725" lon="11.71740128741729"><ele>470.75</ele><time>2026-05-04T15:59:32Z</time></trkpt><trkpt lat="43.75731549821704" lon="11.717350614072982"><ele>473.5</ele><time>2026-05-04T15:59:33Z</time></trkpt><trkpt lat="43.757442847089315" lon="11.717274678455874"><ele>476.25</ele><time>2026-05-04T15:59:34Z</time></trkpt><trkpt lat="43.757564243997614" lon="11.71718610605891"><ele>479.0</ele><time>2026-05-04T15:59:35Z</time></trkpt><trkpt lat="43.75769426217129" lon="11.717099758440966"><ele>481.25</ele><time>2026-05-04T15:59:36Z</time></trkpt><trkpt lat="43.75782509019424" lon="11.71701660422871"><ele>483.5</ele><time>2026-05-04T15:59:37Z</time></trkpt><trkpt lat="43.75794809276717" lon="11.71693974314952"><ele>485.75</ele><time>2026-05-04T15:59:38Z</time></trkpt><trkpt lat="43.75807078120449" lon="11.71685322467717"><ele>488.0</ele><time>2026-05-04T15:59:39Z</time></trkpt><trkpt lat="43.75818621683375" lon="11.716735158895185"><ele>488.0</ele><time>2026-05-04T15:59:40Z</time></trkpt><trkpt lat="43.75829572069196" lon="11.71659888201335"><ele>488.0</ele><time>2026-05-04T15:59:41Z</time></trkpt><trkpt lat="43.75839730314698" lon="11.716455179350827"><ele>488.0</ele><time>2026-05-04T15:59:42Z</time></trkpt><trkpt lat="43.75849327562514" lon="11.716314081726733"><ele>488.0</ele><time>2026-05-04T15:59:43Z</time></trkpt><trkpt lat="43.758583848854904" lon="11.716162444016184"><ele>491.0</ele><time>2026-05-04T15:59:44Z</time></trkpt><trkpt lat="43.75865884610846" lon="11.716003076530043"><ele>494.0</ele><time>2026-05-04T15:59:45Z</time></trkpt><trkpt lat="43.758713733372346" lon="11.71584592334601"><ele>497.0</ele><time>2026-05-04T15:59:46Z</time></trkpt><trkpt lat="43.75876038652065" lon="11.715689283492875"><ele>500.0</ele><time>2026-05-04T15:59:47Z</time></trkpt><trkpt lat="43.758787947802865" lon="11.715522512475083"><ele>500.0</ele><time>2026-05-04T15:59:48Z</time></trkpt><trkpt lat="43.75877835951909" lon="11.715350248308773"><ele>500.0</ele><time>2026-05-04T15:59:49Z</time></trkpt><trkpt lat="43.75873521520891" lon="11.715171272649174"><ele>500.0</ele><time>2026-05-04T15:59:50Z</time></trkpt><trkpt lat="43.75869635224999" lon="11.715007050365918"><ele>500.0</ele><time>2026-05-04T15:59:51Z</time></trkpt><trkpt lat="43.75866520393975" lon="11.714826505252097"><ele>500.5</ele><time>2026-05-04T15:59:52Z</time></trkpt><trkpt lat="43.75865237925371" lon="11.714642560011322"><ele>501.0</ele><time>2026-05-04T15:59:53Z</time></trkpt><trkpt lat="43.758660854768436" lon="11.714451723401215"><ele>501.5</ele><time>2026-05-04T15:59:54Z</time></trkpt><trkpt lat="43.75870885655382" lon="11.714268970167414"><ele>502.0</ele><time>2026-05-04T15:59:55Z</time></trkpt><trkpt lat="43.75872889115917" lon="11.714068869692774"><ele>502.0</ele><time>2026-05-04T15:59:56Z</time></trkpt><trkpt lat="43.75876432355625" lon="11.713878787146365"><ele>502.0</ele><time>2026-05-04T15:59:57Z</time></trkpt><trkpt lat="43.7587987948005" lon="11.713707358337928"><ele>502.0</ele><time>2026-05-04T15:59:58Z</time></trkpt><trkpt lat="43.75884224214612" lon="11.713546486659428"><ele>502.0</ele><time>2026-05-04T15:59:59Z</time></trkpt><trkpt lat="43.75890966484966" lon="11.71340586970424"><ele>500.25</ele><time>2026-05-04T16:00:00Z</time></trkpt><trkpt lat="43.75901595950166" lon="11.713297517821298"><ele>498.5</ele><time>2026-05-04T16:00:01Z</time></trkpt><trkpt lat="43.759109340310495" lon="11.713154581638452"><ele>496.75</ele><time>2026-05-04T16:00:02Z</time></trkpt><trkpt lat="43.75919939172781" lon="11.713017420843364"><ele>495.0</ele><time>2026-05-04T16:00:03Z</time></trkpt><trkpt lat="43.759264666381526" lon="11.71284687941955"><ele>493.0</ele><time>2026-05-04T16:00:04Z</time></trkpt><trkpt lat="43.759317033285704" lon="11.712648624179026"><ele>491.0</ele><time>2026-05-04T16:00:05Z</time></trkpt><trkpt lat="43.75936299674926" lon="11.712445522503758"><ele>489.0</ele><time>2026-05-04T16:00:06Z</time></trkpt><trkpt lat="43.75941039252268" lon="11.71226025674919"><ele>487.0</ele><time>2026-05-04T16:00:07Z</time></trkpt><trkpt lat="43.75945840393557" lon="11.712060793226728"><ele>490.5</ele><time>2026-05-04T16:00:08Z</time></trkpt><trkpt lat="43.75950821874855" lon="11.711873213618096"><ele>494.0</ele><time>2026-05-04T16:00:09Z</time></trkpt><trkpt lat="43.75956498242113" lon="11.711687730268"><ele>497.5</ele><time>2026-05-04T16:00:10Z</time></trkpt><trkpt lat="43.75962579779979" lon="11.711506175988472"><ele>501.0</ele><time>2026-05-04T16:00:11Z</time></trkpt><trkpt lat="43.759689074483184" lon="11.71132190216507"><ele>501.0</ele><time>2026-05-04T16:00:12Z</time></trkpt><trkpt lat="43.759755693501745" lon="11.7111426503331"><ele>501.0</ele><time>2026-05-04T16:00:13Z</time></trkpt><trkpt lat="43.75981971090582" lon="11.710962175149257"><ele>501.0</ele><time>2026-05-04T16:00:14Z</time></trkpt><trkpt lat="43.7598863992551" lon="11.710776898767461"><ele>501.0</ele><time>2026-05-04T16:00:15Z</time></trkpt><trkpt lat="43.759954376785664" lon="11.71059796845637"><ele>500.0</ele><time>2026-05-04T16:00:16Z</time></trkpt><trkpt lat="43.76002739249664" lon="11.7104199031063"><ele>499.0</ele><time>2026-05-04T16:00:17Z</time></trkpt><trkpt lat="43.76011176569945" lon="11.710252584534755"><ele>498.0</ele><time>2026-05-04T16:00:18Z</time></trkpt><trkpt lat="43.760213479219104" lon="11.710101439349481"><ele>497.0</ele><time>2026-05-04T16:00:19Z</time></trkpt><trkpt lat="43.76032314569744" lon="11.709954601707148"><ele>499.5</ele><time>2026-05-04T16:00:20Z</time></trkpt><trkpt lat="43.760436394078724" lon="11.709824143053728"><ele>502.0</ele><time>2026-05-04T16:00:21Z</time></trkpt><trkpt lat="43.7605554018422" lon="11.709703729800797"><ele>504.5</ele><time>2026-05-04T16:00:22Z</time></trkpt><trkpt lat="43.76068742744717" lon="11.709602346737435"><ele>507.0</ele><time>2026-05-04T16:00:23Z</time></trkpt><trkpt lat="43.76082857530898" lon="11.70951804661976"><ele>507.0</ele><time>2026-05-04T16:00:24Z</time></trkpt><trkpt lat="43.76097335783925" lon="11.709432204285674"><ele>507.0</ele><time>2026-05-04T16:00:25Z</time></trkpt><trkpt lat="43.761117537412446" lon="11.709351706610537"><ele>507.0</ele><time>2026-05-04T16:00:26Z</time></trkpt><trkpt lat="43.76126456175537" lon="11.709280736198595"><ele>508.33333333333337</ele><time>2026-05-04T16:00:27Z</time></trkpt><trkpt lat="43.76141308791544" lon="11.709232861749163"><ele>509.6666666666667</ele><time>2026-05-04T16:00:28Z</time></trkpt><trkpt lat="43.76156733157983" lon="11.709193315202748"><ele>511.0</ele><time>2026-05-04T16:00:29Z</time></trkpt><trkpt lat="43.76171896047292" lon="11.709163339681663"><ele>512.5</ele><time>2026-05-04T16:00:30Z</time></trkpt><trkpt lat="43.76186904000801" lon="11.709127956163602"><ele>514.0</ele><time>2026-05-04T16:00:31Z</time></trkpt><trkpt lat="43.76201521948307" lon="11.709091688487714"><ele>515.5</ele><time>2026-05-04T16:00:32Z</time></trkpt><trkpt lat="43.76215371633708" lon="11.709049187898568"><ele>517.0</ele><time>2026-05-04T16:00:33Z</time></trkpt><trkpt lat="43.7622750438552" lon="11.708987856489568"><ele>517.0</ele><time>2026-05-04T16:00:34Z</time></trkpt><trkpt lat="43.76237809615051" lon="11.708892637077387"><ele>517.0</ele><time>2026-05-04T16:00:35Z</time></trkpt><trkpt lat="43.76246379640448" lon="11.708763498593934"><ele>517.0</ele><time>2026-05-04T16:00:36Z</time></trkpt><trkpt lat="43.76253356221113" lon="11.708617535479592"><ele>517.0</ele><time>2026-05-04T16:00:37Z</time></trkpt><trkpt lat="43.762581714583135" lon="11.708455839428437"><ele>517.5</ele><time>2026-05-04T16:00:38Z</time></trkpt><trkpt lat="43.76262344958632" lon="11.708289762627494"><ele>518.0</ele><time>2026-05-04T16:00:39Z</time></trkpt><trkpt lat="43.76267090258531" lon="11.70812480397315"><ele>518.5</ele><time>2026-05-04T16:00:40Z</time></trkpt><trkpt lat="43.76272839821855" lon="11.707959244456275"><ele>519.0</ele><time>2026-05-04T16:00:41Z</time></trkpt><trkpt lat="43.76280062040133" lon="11.707795408560505"><ele>521.75</ele><time>2026-05-04T16:00:42Z</time></trkpt><trkpt lat="43.76288977105523" lon="11.707643863166897"><ele>524.5</ele><time>2026-05-04T16:00:43Z</time></trkpt><trkpt lat="43.76298930634385" lon="11.707505282005375"><ele>527.25</ele><time>2026-05-04T16:00:44Z</time></trkpt><trkpt lat="43.763095430112564" lon="11.70736165670458"><ele>530.0</ele><time>2026-05-04T16:00:45Z</time></trkpt><trkpt lat="43.76320273320153" lon="11.707208804589015"><ele>530.0</ele><time>2026-05-04T16:00:46Z</time></trkpt><trkpt lat="43.76329998395335" lon="11.707065805437953"><ele>530.0</ele><time>2026-05-04T16:00:47Z</time></trkpt><trkpt lat="43.76340880595281" lon="11.706913838746502"><ele>530.0</ele><time>2026-05-04T16:00:48Z</time></trkpt><trkpt lat="43.763515012375706" lon="11.706770477015773"><ele>530.0</ele><time>2026-05-04T16:00:49Z</time></trkpt><trkpt lat="43.763624842811865" lon="11.706629217312196"><ele>532.3333333333333</ele><time>2026-05-04T16:00:50Z</time></trkpt><trkpt lat="43.763739490850895" lon="11.706494614456044"><ele>534.6666666666666</ele><time>2026-05-04T16:00:51Z</time></trkpt><trkpt lat="43.76386353235674" lon="11.706377783313398"><ele>537.0</ele><time>2026-05-04T16:00:52Z</time></trkpt><trkpt lat="43.76399924357578" lon="11.706268997079624"><ele>537.0</ele><time>2026-05-04T16:00:53Z</time></trkpt><trkpt lat="43.76412867439738" lon="11.706157764289923"><ele>537.0</ele><time>2026-05-04T16:00:54Z</time></trkpt><trkpt lat="43.764256392248505" lon="11.70604375596268"><ele>537.0</ele><time>2026-05-04T16:00:55Z</time></trkpt><trkpt lat="43.76438548313079" lon="11.705937251414577"><ele>538.0</ele><time>2026-05-04T16:00:56Z</time></trkpt><trkpt lat="43.76451495092606" lon="11.705837611172004"><ele>539.0</ele><time>2026-05-04T16:00:57Z</time></trkpt><trkpt lat="43.76464955330505" lon="11.705729078376057"><ele>540.0</ele><time>2026-05-04T16:00:58Z</time></trkpt><trkpt lat="43.764777976966" lon="11.705631118695115"><ele>540.0</ele><time>2026-05-04T16:00:59Z</time></trkpt><trkpt lat="43.764903405055456" lon="11.70552136643596"><ele>540.0</ele><time>2026-05-04T16:01:00Z</time></trkpt><trkpt lat="43.76503049152382" lon="11.705414404919917"><ele>540.0</ele><time>2026-05-04T16:01:01Z</time></trkpt><trkpt lat="43.765155841332124" lon="11.705301294528757"><ele>540.0</ele><time>2026-05-04T16:01:02Z</time></trkpt><trkpt lat="43.7652800051081" lon="11.705179232865854"><ele>541.5</ele><time>2026-05-04T16:01:03Z</time></trkpt><trkpt lat="43.76539517322655" lon="11.705047513940581"><ele>543.0</ele><time>2026-05-04T16:01:04Z</time></trkpt><trkpt lat="43.765502561500135" lon="11.704899942200395"><ele>544.5</ele><time>2026-05-04T16:01:05Z</time></trkpt><trkpt lat="43.765591715790165" lon="11.704765249565307"><ele>546.0</ele><time>2026-05-04T16:01:06Z</time></trkpt><trkpt lat="43.76569831154435" lon="11.704606341274681"><ele>546.0</ele><time>2026-05-04T16:01:07Z</time></trkpt><trkpt lat="43.76578755056957" lon="11.704442281042782"><ele>546.0</ele><time>2026-05-04T16:01:08Z</time></trkpt><trkpt lat="43.765863812412015" lon="11.704268538150819"><ele>546.0</ele><time>2026-05-04T16:01:09Z</time></trkpt><trkpt lat="43.76591969285809" lon="11.704087909864072"><ele>546.0</ele><time>2026-05-04T16:01:10Z</time></trkpt><trkpt lat="43.76595354489484" lon="11.703890914734783"><ele>546.0</ele><time>2026-05-04T16:01:11Z</time></trkpt><trkpt lat="43.76596931612492" lon="11.703688057562283"><ele>546.0</ele><time>2026-05-04T16:01:12Z</time></trkpt><trkpt lat="43.76597317437592" lon="11.703485744521723"><ele>546.0</ele><time>2026-05-04T16:01:13Z</time></trkpt><trkpt lat="43.76597771847801" lon="11.703300447909939"><ele>546.0</ele><time>2026-05-04T16:01:14Z</time></trkpt><trkpt lat="43.76599568042869" lon="11.703136326032837"><ele>549.25</ele><time>2026-05-04T16:01:15Z</time></trkpt><trkpt lat="43.76604355056126" lon="11.703012004015207"><ele>552.5</ele><time>2026-05-04T16:01:16Z</time></trkpt><trkpt lat="43.7661281433269" lon="11.702913131432533"><ele>555.75</ele><time>2026-05-04T16:01:17Z</time></trkpt><trkpt lat="43.76623126539235" lon="11.70283529108127"><ele>559.0</ele><time>2026-05-04T16:01:18Z</time></trkpt><trkpt lat="43.766349257629585" lon="11.702778669154506"><ele>559.0</ele><time>2026-05-04T16:01:19Z</time></trkpt><trkpt lat="43.76646468180162" lon="11.70277760040157"><ele>559.0</ele><time>2026-05-04T16:01:20Z</time></trkpt><trkpt lat="43.76656720544489" lon="11.702850391814241"><ele>559.0</ele><time>2026-05-04T16:01:21Z</time></trkpt><trkpt lat="43.766675328115305" lon="11.702919743009232"><ele>559.0</ele><time>2026-05-04T16:01:22Z</time></trkpt><trkpt lat="43.76679898865853" lon="11.702979610445752"><ele>559.0</ele><time>2026-05-04T16:01:23Z</time></trkpt><trkpt lat="43.76692206631016" lon="11.703033889285681"><ele>559.0</ele><time>2026-05-04T16:01:24Z</time></trkpt><trkpt lat="43.76705562533678" lon="11.703059263930637"><ele>559.0</ele><time>2026-05-04T16:01:25Z</time></trkpt><trkpt lat="43.76718943147592" lon="11.703044645341503"><ele>559.0</ele><time>2026-05-04T16:01:26Z</time></trkpt><trkpt lat="43.76733301775545" lon="11.70300742293257"><ele>559.0</ele><time>2026-05-04T16:01:27Z</time></trkpt><trkpt lat="43.767472106809656" lon="11.702955949442696"><ele>559.0</ele><time>2026-05-04T16:01:28Z</time></trkpt><trkpt lat="43.76761387037562" lon="11.702877960678109"><ele>559.0</ele><time>2026-05-04T16:01:29Z</time></trkpt><trkpt lat="43.767742293382504" lon="11.702770580097818"><ele>559.0</ele><time>2026-05-04T16:01:30Z</time></trkpt><trkpt lat="43.767861304201936" lon="11.70264511086712"><ele>560.25</ele><time>2026-05-04T16:01:31Z</time></trkpt><trkpt lat="43.767980011378775" lon="11.702511711129729"><ele>561.5</ele><time>2026-05-04T16:01:32Z</time></trkpt><trkpt lat="43.7680945665465" lon="11.70238164509985"><ele>562.75</ele><time>2026-05-04T16:01:33Z</time></trkpt><trkpt lat="43.76820581247678" lon="11.702248564367043"><ele>564.0</ele><time>2026-05-04T16:01:34Z</time></trkpt><trkpt lat="43.76831507325725" lon="11.702123097076205"><ele>564.0</ele><time>2026-05-04T16:01:35Z</time></trkpt><trkpt lat="43.768433127360694" lon="11.702002350278379"><ele>564.0</ele><time>2026-05-04T16:01:36Z</time></trkpt><trkpt lat="43.76855190014983" lon="11.701868125457034"><ele>564.0</ele><time>2026-05-04T16:01:37Z</time></trkpt><trkpt lat="43.768666954651536" lon="11.701732424894173"><ele>563.0</ele><time>2026-05-04T16:01:38Z</time></trkpt><trkpt lat="43.768786244475784" lon="11.701587969091943"><ele>562.0</ele><time>2026-05-04T16:01:39Z</time></trkpt><trkpt lat="43.7689026752514" lon="11.701447469212157"><ele>561.0</ele><time>2026-05-04T16:01:40Z</time></trkpt><trkpt lat="43.76902307729648" lon="11.701298078148563"><ele>561.0</ele><time>2026-05-04T16:01:41Z</time></trkpt><trkpt lat="43.76913599021667" lon="11.701163017761088"><ele>561.0</ele><time>2026-05-04T16:01:42Z</time></trkpt><trkpt lat="43.76925261305407" lon="11.701024527178333"><ele>561.0</ele><time>2026-05-04T16:01:43Z</time></trkpt><trkpt lat="43.76936383122092" lon="11.700876389869439"><ele>561.5</ele><time>2026-05-04T16:01:44Z</time></trkpt><trkpt lat="43.76947412084776" lon="11.700731058749552"><ele>562.0</ele><time>2026-05-04T16:01:45Z</time></trkpt><trkpt lat="43.76957639136979" lon="11.700585313468176"><ele>562.5</ele><time>2026-05-04T16:01:46Z</time></trkpt><trkpt lat="43.7696672176372" lon="11.700440135345314"><ele>563.0</ele><time>2026-05-04T16:01:47Z</time></trkpt><trkpt lat="43.769746595063346" lon="11.700279675037146"><ele>565.25</ele><time>2026-05-04T16:01:48Z</time></trkpt><trkpt lat="43.769817659108156" lon="11.700095929057925"><ele>567.5</ele><time>2026-05-04T16:01:49Z</time></trkpt><trkpt lat="43.7698785518688" lon="11.699913358030491"><ele>569.75</ele><time>2026-05-04T16:01:50Z</time></trkpt><trkpt lat="43.76994058213854" lon="11.69971868745433"><ele>572.0</ele><time>2026-05-04T16:01:51Z</time></trkpt><trkpt lat="43.770003387105696" lon="11.699528823223643"><ele>574.3333333333333</ele><time>2026-05-04T16:01:52Z</time></trkpt><trkpt lat="43.77007179944688" lon="11.699331738134793"><ele>576.6666666666666</ele><time>2026-05-04T16:01:53Z</time></trkpt><trkpt lat="43.77015211397841" lon="11.699154332396658"><ele>579.0</ele><time>2026-05-04T16:01:54Z</time></trkpt><trkpt lat="43.770245521204245" lon="11.698996183187102"><ele>579.3333333333334</ele><time>2026-05-04T16:01:55Z</time></trkpt><trkpt lat="43.77035183698635" lon="11.69885489612484"><ele>579.6666666666667</ele><time>2026-05-04T16:01:56Z</time></trkpt><trkpt lat="43.77047222225893" lon="11.698728952113594"><ele>580.0</ele><time>2026-05-04T16:01:57Z</time></trkpt><trkpt lat="43.770605958426884" lon="11.698610761780955"><ele>582.0</ele><time>2026-05-04T16:01:58Z</time></trkpt><trkpt lat="43.770725230231136" lon="11.698486349302438"><ele>584.0</ele><time>2026-05-04T16:01:59Z</time></trkpt><trkpt lat="43.770834816525145" lon="11.698346663194602"><ele>586.0</ele><time>2026-05-04T16:02:00Z</time></trkpt><trkpt lat="43.77092900342222" lon="11.698186457134138"><ele>588.0</ele><time>2026-05-04T16:02:01Z</time></trkpt><trkpt lat="43.77101162614848" lon="11.698020939419546"><ele>588.5</ele><time>2026-05-04T16:02:02Z</time></trkpt><trkpt lat="43.7710691438152" lon="11.697842460344173"><ele>589.0</ele><time>2026-05-04T16:02:03Z</time></trkpt><trkpt lat="43.771102386100964" lon="11.697651031249544"><ele>589.5</ele><time>2026-05-04T16:02:04Z</time></trkpt><trkpt lat="43.77110983820586" lon="11.69744965775736"><ele>590.0</ele><time>2026-05-04T16:02:05Z</time></trkpt><trkpt lat="43.7710921268814" lon="11.697250639130052"><ele>591.75</ele><time>2026-05-04T16:02:06Z</time></trkpt><trkpt lat="43.77105235094083" lon="11.697050391291395"><ele>593.5</ele><time>2026-05-04T16:02:07Z</time></trkpt><trkpt lat="43.77101021920951" lon="11.696852060003392"><ele>595.25</ele><time>2026-05-04T16:02:08Z</time></trkpt><trkpt lat="43.77098748260561" lon="11.69666171914667"><ele>597.0</ele><time>2026-05-04T16:02:09Z</time></trkpt><trkpt lat="43.770998307098594" lon="11.69649636430403"><ele>599.5</ele><time>2026-05-04T16:02:10Z</time></trkpt><trkpt lat="43.771048264198114" lon="11.69632196118303"><ele>602.0</ele><time>2026-05-04T16:02:11Z</time></trkpt><trkpt lat="43.77109724896683" lon="11.69613685811779"><ele>604.5</ele><time>2026-05-04T16:02:12Z</time></trkpt><trkpt lat="43.77115058338721" lon="11.695949811520322"><ele>607.0</ele><time>2026-05-04T16:02:13Z</time></trkpt><trkpt lat="43.77120014517969" lon="11.69576635446857"><ele>609.75</ele><time>2026-05-04T16:02:14Z</time></trkpt><trkpt lat="43.77124381682088" lon="11.695572761054327"><ele>612.5</ele><time>2026-05-04T16:02:15Z</time></trkpt><trkpt lat="43.7712822256289" lon="11.695386719279982"><ele>615.25</ele><time>2026-05-04T16:02:16Z</time></trkpt><trkpt lat="43.77131269110814" lon="11.69519951230925"><ele>618.0</ele><time>2026-05-04T16:02:17Z</time></trkpt><trkpt lat="43.771337356877766" lon="11.69502995201681"><ele>618.5</ele><time>2026-05-04T16:02:18Z</time></trkpt><trkpt lat="43.77136465050838" lon="11.694863900877275"><ele>619.0</ele><time>2026-05-04T16:02:19Z</time></trkpt><trkpt lat="43.771405115289" lon="11.69471457994489"><ele>619.5</ele><time>2026-05-04T16:02:20Z</time></trkpt><trkpt lat="43.77146564787798" lon="11.694593727461339"><ele>620.0</ele><time>2026-05-04T16:02:21Z</time></trkpt><trkpt lat="43.77156108138782" lon="11.694493123089822"><ele>620.25</ele><time>2026-05-04T16:02:22Z</time></trkpt><trkpt lat="43.77166719549843" lon="11.69440091323316"><ele>620.5</ele><time>2026-05-04T16:02:23Z</time></trkpt><trkpt lat="43.771777849845044" lon="11.694302032359166"><ele>620.75</ele><time>2026-05-04T16:02:24Z</time></trkpt><trkpt lat="43.77188785329441" lon="11.694191044263631"><ele>621.0</ele><time>2026-05-04T16:02:25Z</time></trkpt><trkpt lat="43.77198555886218" lon="11.694061771481664"><ele>624.25</ele><time>2026-05-04T16:02:26Z</time></trkpt><trkpt lat="43.77207433844717" lon="11.693918182861895"><ele>627.5</ele><time>2026-05-04T16:02:27Z</time></trkpt><trkpt lat="43.77215070196344" lon="11.693760702099572"><ele>630.75</ele><time>2026-05-04T16:02:28Z</time></trkpt><trkpt lat="43.77219420311419" lon="11.693602243917532"><ele>634.0</ele><time>2026-05-04T16:02:29Z</time></trkpt><trkpt lat="43.7722114251162" lon="11.693445442504855"><ele>634.0</ele><time>2026-05-04T16:02:30Z</time></trkpt><trkpt lat="43.77223829086951" lon="11.693321612347077"><ele>634.0</ele><time>2026-05-04T16:02:31Z</time></trkpt><trkpt lat="43.7723048501723" lon="11.693227067929236"><ele>634.0</ele><time>2026-05-04T16:02:32Z</time></trkpt><trkpt lat="43.77238988263981" lon="11.693181534083568"><ele>634.0</ele><time>2026-05-04T16:02:33Z</time></trkpt><trkpt lat="43.77247201136259" lon="11.693201640958856"><ele>634.0</ele><time>2026-05-04T16:02:34Z</time></trkpt><trkpt lat="43.77254762014122" lon="11.693274716433905"><ele>634.0</ele><time>2026-05-04T16:02:35Z</time></trkpt><trkpt lat="43.772586677517666" lon="11.693387876886039"><ele>634.0</ele><time>2026-05-04T16:02:36Z</time></trkpt><trkpt lat="43.77256604638199" lon="11.693527545559837"><ele>634.0</ele><time>2026-05-04T16:02:37Z</time></trkpt><trkpt lat="43.77254771170527" lon="11.693653790597736"><ele>634.0</ele><time>2026-05-04T16:02:38Z</time></trkpt><trkpt lat="43.772529335976834" lon="11.693802999801875"><ele>634.0</ele><time>2026-05-04T16:02:39Z</time></trkpt><trkpt lat="43.772516001438085" lon="11.693954425454193"><ele>634.2</ele><time>2026-05-04T16:02:40Z</time></trkpt><trkpt lat="43.772513949408335" lon="11.69410621732086"><ele>634.4</ele><time>2026-05-04T16:02:41Z</time></trkpt><trkpt lat="43.77254697696514" lon="11.6942359971773"><ele>634.6</ele><time>2026-05-04T16:02:42Z</time></trkpt><trkpt lat="43.77261638509759" lon="11.694334832179521"><ele>634.8</ele><time>2026-05-04T16:02:43Z</time></trkpt><trkpt lat="43.772714400442574" lon="11.694402323475673"><ele>635.0</ele><time>2026-05-04T16:02:44Z</time></trkpt><trkpt lat="43.77282742326358" lon="11.694436193988263"><ele>638.0</ele><time>2026-05-04T16:02:45Z</time></trkpt><trkpt lat="43.772951465927235" lon="11.694453171995674"><ele>641.0</ele><time>2026-05-04T16:02:46Z</time></trkpt><trkpt lat="43.77307396597369" lon="11.69446920315867"><ele>644.0</ele><time>2026-05-04T16:02:47Z</time></trkpt><trkpt lat="43.77318809816897" lon="11.694512193880875"><ele>647.0</ele><time>2026-05-04T16:02:48Z</time></trkpt><trkpt lat="43.773288634587196" lon="11.694584785444727"><ele>647.0</ele><time>2026-05-04T16:02:49Z</time></trkpt><trkpt lat="43.77333266519659" lon="11.694723247729138"><ele>647.0</ele><time>2026-05-04T16:02:50Z</time></trkpt><trkpt lat="43.77336808594969" lon="11.694859440241247"><ele>647.0</ele><time>2026-05-04T16:02:51Z</time></trkpt><trkpt lat="43.773385596765074" lon="11.69501165327041"><ele>647.0</ele><time>2026-05-04T16:02:52Z</time></trkpt><trkpt lat="43.773411695395765" lon="11.695157366243071"><ele>647.0</ele><time>2026-05-04T16:02:53Z</time></trkpt><trkpt lat="43.77343975733699" lon="11.695279480088981"><ele>644.8000000000001</ele><time>2026-05-04T16:02:54Z</time></trkpt><trkpt lat="43.77349516013042" lon="11.695352267375247"><ele>642.6</ele><time>2026-05-04T16:02:55Z</time></trkpt><trkpt lat="43.77357616587848" lon="11.695379518876205"><ele>640.4000000000001</ele><time>2026-05-04T16:02:56Z</time></trkpt><trkpt lat="43.77367435650559" lon="11.695343412046896"><ele>638.2</ele><time>2026-05-04T16:02:57Z</time></trkpt><trkpt lat="43.77374117720089" lon="11.695251160160899"><ele>636.0</ele><time>2026-05-04T16:02:58Z</time></trkpt><trkpt lat="43.77380795076065" lon="11.695145857011457"><ele>642.25</ele><time>2026-05-04T16:02:59Z</time></trkpt><trkpt lat="43.77388662461396" lon="11.695019189527574"><ele>648.5</ele><time>2026-05-04T16:03:00Z</time></trkpt><trkpt lat="43.773973564948285" lon="11.694899297903325"><ele>654.75</ele><time>2026-05-04T16:03:01Z</time></trkpt><trkpt lat="43.774050471602614" lon="11.69476950372406"><ele>661.0</ele><time>2026-05-04T16:03:02Z</time></trkpt><trkpt lat="43.77411774266725" lon="11.694628769906624"><ele>661.0</ele><time>2026-05-04T16:03:03Z</time></trkpt><trkpt lat="43.77417517811493" lon="11.694452266592496"><ele>661.0</ele><time>2026-05-04T16:03:04Z</time></trkpt><trkpt lat="43.77423016304956" lon="11.694285331950924"><ele>661.0</ele><time>2026-05-04T16:03:05Z</time></trkpt><trkpt lat="43.77428122991268" lon="11.69414118587044"><ele>661.0</ele><time>2026-05-04T16:03:06Z</time></trkpt><trkpt lat="43.77434382318004" lon="11.694037949850301"><ele>664.1666666666667</ele><time>2026-05-04T16:03:07Z</time></trkpt><trkpt lat="43.77440941842478" lon="11.693973588425834"><ele>667.3333333333334</ele><time>2026-05-04T16:03:08Z</time></trkpt><trkpt lat="43.77448633372035" lon="11.69395792570198"><ele>670.5</ele><time>2026-05-04T16:03:09Z</time></trkpt><trkpt lat="43.774555146532734" lon="11.69400400554454"><ele>673.6666666666666</ele><time>2026-05-04T16:03:10Z</time></trkpt><trkpt lat="43.77460510074079" lon="11.694098526387148"><ele>676.8333333333333</ele><time>2026-05-04T16:03:11Z</time></trkpt><trkpt lat="43.77459402661051" lon="11.694228928696889"><ele>680.0</ele><time>2026-05-04T16:03:12Z</time></trkpt><trkpt lat="43.774549041027754" lon="11.694331903179615"><ele>681.2</ele><time>2026-05-04T16:03:13Z</time></trkpt><trkpt lat="43.774524795677664" lon="11.694468557077423"><ele>682.4</ele><time>2026-05-04T16:03:14Z</time></trkpt><trkpt lat="43.77448298892703" lon="11.694594642388585"><ele>683.5999999999999</ele><time>2026-05-04T16:03:15Z</time></trkpt><trkpt lat="43.7744419298047" lon="11.694745225595627"><ele>684.8</ele><time>2026-05-04T16:03:16Z</time></trkpt><trkpt lat="43.77441312807797" lon="11.694911198779241"><ele>686.0</ele><time>2026-05-04T16:03:17Z</time></trkpt><trkpt lat="43.774391081460294" lon="11.695089345912292"><ele>686.5</ele><time>2026-05-04T16:03:18Z</time></trkpt><trkpt lat="43.77436444494763" lon="11.695291788768625"><ele>687.0</ele><time>2026-05-04T16:03:19Z</time></trkpt><trkpt lat="43.77435253207042" lon="11.695471162768557"><ele>687.5</ele><time>2026-05-04T16:03:20Z</time></trkpt><trkpt lat="43.77433418017475" lon="11.695663420334103"><ele>688.0</ele><time>2026-05-04T16:03:21Z</time></trkpt><trkpt lat="43.77432092072366" lon="11.695864219338793"><ele>680.5</ele><time>2026-05-04T16:03:22Z</time></trkpt><trkpt lat="43.77430846398173" lon="11.696060466451822"><ele>673.0</ele><time>2026-05-04T16:03:23Z</time></trkpt><trkpt lat="43.77429892742851" lon="11.696257417020867"><ele>665.5</ele><time>2026-05-04T16:03:24Z</time></trkpt><trkpt lat="43.77429218766375" lon="11.696443578255355"><ele>658.0</ele><time>2026-05-04T16:03:25Z</time></trkpt><trkpt lat="43.774279669567264" lon="11.696619911607401"><ele>657.75</ele><time>2026-05-04T16:03:26Z</time></trkpt><trkpt lat="43.774296255279616" lon="11.69681303604887"><ele>657.5</ele><time>2026-05-04T16:03:27Z</time></trkpt><trkpt lat="43.77434562427472" lon="11.69699826164762"><ele>657.25</ele><time>2026-05-04T16:03:28Z</time></trkpt><trkpt lat="43.774421685057206" lon="11.69715840228301"><ele>657.0</ele><time>2026-05-04T16:03:29Z</time></trkpt><trkpt lat="43.77451207182898" lon="11.697294284975394"><ele>659.75</ele><time>2026-05-04T16:03:30Z</time></trkpt><trkpt lat="43.77461496426039" lon="11.69741045593277"><ele>662.5</ele><time>2026-05-04T16:03:31Z</time></trkpt><trkpt lat="43.77472244680867" lon="11.697482460141948"><ele>665.25</ele><time>2026-05-04T16:03:32Z</time></trkpt><trkpt lat="43.77483807611884" lon="11.69750471582889"><ele>668.0</ele><time>2026-05-04T16:03:33Z</time></trkpt><trkpt lat="43.774952546715696" lon="11.697481021290066"><ele>668.0</ele><time>2026-05-04T16:03:34Z</time></trkpt><trkpt lat="43.77506005042603" lon="11.697418485383283"><ele>668.0</ele><time>2026-05-04T16:03:35Z</time></trkpt><trkpt lat="43.775159685195156" lon="11.697319576514877"><ele>668.0</ele><time>2026-05-04T16:03:36Z</time></trkpt><trkpt lat="43.77525449290708" lon="11.697197878199788"><ele>668.0</ele><time>2026-05-04T16:03:37Z</time></trkpt><trkpt lat="43.77535871804821" lon="11.697090231438006"><ele>666.0</ele><time>2026-05-04T16:03:38Z</time></trkpt><trkpt lat="43.775481715297374" lon="11.69703395647564"><ele>664.0</ele><time>2026-05-04T16:03:39Z</time></trkpt><trkpt lat="43.775598040785255" lon="11.696994264791352"><ele>662.0</ele><time>2026-05-04T16:03:40Z</time></trkpt><trkpt lat="43.77569822198685" lon="11.696922562316413"><ele>660.0</ele><time>2026-05-04T16:03:41Z</time></trkpt><trkpt lat="43.77577933400569" lon="11.696813127719114"><ele>664.25</ele><time>2026-05-04T16:03:42Z</time></trkpt><trkpt lat="43.77584774413157" lon="11.696666985897554"><ele>668.5</ele><time>2026-05-04T16:03:43Z</time></trkpt><trkpt lat="43.77588177545366" lon="11.696499933592762"><ele>672.75</ele><time>2026-05-04T16:03:44Z</time></trkpt><trkpt lat="43.775885648128224" lon="11.69632368031383"><ele>677.0</ele><time>2026-05-04T16:03:45Z</time></trkpt><trkpt lat="43.7758730980385" lon="11.696145509852396"><ele>679.25</ele><time>2026-05-04T16:03:46Z</time></trkpt><trkpt lat="43.7758548352445" lon="11.695966223245874"><ele>681.5</ele><time>2026-05-04T16:03:47Z</time></trkpt><trkpt lat="43.77583622500021" lon="11.695787233401317"><ele>683.75</ele><time>2026-05-04T16:03:48Z</time></trkpt><trkpt lat="43.77580669818206" lon="11.695607792028248"><ele>686.0</ele><time>2026-05-04T16:03:49Z</time></trkpt><trkpt lat="43.77575543290171" lon="11.695438348604135"><ele>686.0</ele><time>2026-05-04T16:03:50Z</time></trkpt><trkpt lat="43.775693445417396" lon="11.695275114017225"><ele>686.0</ele><time>2026-05-04T16:03:51Z</time></trkpt><trkpt lat="43.77564419558409" lon="11.695101209024392"><ele>686.0</ele><time>2026-05-04T16:03:52Z</time></trkpt><trkpt lat="43.77561518314527" lon="11.694924138695942"><ele>686.0</ele><time>2026-05-04T16:03:53Z</time></trkpt><trkpt lat="43.775607801611834" lon="11.694731253909879"><ele>687.25</ele><time>2026-05-04T16:03:54Z</time></trkpt><trkpt lat="43.7756099596177" lon="11.694536381688778"><ele>688.5</ele><time>2026-05-04T16:03:55Z</time></trkpt><trkpt lat="43.77562260650295" lon="11.694336677853686"><ele>689.75</ele><time>2026-05-04T16:03:56Z</time></trkpt><trkpt lat="43.77565109662655" lon="11.69414691699166"><ele>691.0</ele><time>2026-05-04T16:03:57Z</time></trkpt><trkpt lat="43.77567068412916" lon="11.693938264717813"><ele>692.0</ele><time>2026-05-04T16:03:58Z</time></trkpt><trkpt lat="43.77574684243379" lon="11.693765067369068"><ele>693.0</ele><time>2026-05-04T16:03:59Z</time></trkpt><trkpt lat="43.77581421968023" lon="11.693593940741556"><ele>694.0</ele><time>2026-05-04T16:04:00Z</time></trkpt><trkpt lat="43.775891797659746" lon="11.69343872142703"><ele>695.0</ele><time>2026-05-04T16:04:01Z</time></trkpt><trkpt lat="43.77598524030386" lon="11.693287464655977"><ele>697.25</ele><time>2026-05-04T16:04:02Z</time></trkpt><trkpt lat="43.77606743417786" lon="11.693122533498766"><ele>699.5</ele><time>2026-05-04T16:04:03Z</time></trkpt><trkpt lat="43.77615660775013" lon="11.69299717115791"><ele>701.75</ele><time>2026-05-04T16:04:04Z</time></trkpt><trkpt lat="43.77622968028296" lon="11.692878667034702"><ele>704.0</ele><time>2026-05-04T16:04:05Z</time></trkpt><trkpt lat="43.77629514530133" lon="11.692757823581426"><ele>704.8000000000001</ele><time>2026-05-04T16:04:06Z</time></trkpt><trkpt lat="43.77635063994356" lon="11.692658182073451"><ele>705.6</ele><time>2026-05-04T16:04:07Z</time></trkpt><trkpt lat="43.7763946057876" lon="11.69259222453639"><ele>706.4</ele><time>2026-05-04T16:04:08Z</time></trkpt><trkpt lat="43.77640659522535" lon="11.692471028225228"><ele>707.2</ele><time>2026-05-04T16:04:31Z</time></trkpt><trkpt lat="43.776401830845124" lon="11.692283942005771"><ele>708.0</ele><time>2026-05-04T16:04:33Z</time></trkpt><trkpt lat="43.77640187283307" lon="11.692169344547338"><ele>708.0</ele><time>2026-05-04T16:04:34Z</time></trkpt><trkpt lat="43.77638993080176" lon="11.69206085172471"><ele>708.0</ele><time>2026-05-04T16:04:35Z</time></trkpt><trkpt lat="43.77636574303578" lon="11.691955128992628"><ele>708.0</ele><time>2026-05-04T16:04:37Z</time></trkpt><trkpt lat="43.77627728604625" lon="11.69193092232374"><ele>708.0</ele><time>2026-05-04T16:04:48Z</time></trkpt><trkpt lat="43.77621613538818" lon="11.691897878222882"><ele>708.0</ele><time>2026-05-04T16:04:49Z</time></trkpt><trkpt lat="43.77614229652506" lon="11.691845058407097"><ele>708.0</ele><time>2026-05-04T16:04:50Z</time></trkpt><trkpt lat="43.77605732807614" lon="11.691785318517875"><ele>707.8</ele><time>2026-05-04T16:04:51Z</time></trkpt><trkpt lat="43.77598059911766" lon="11.69171235814455"><ele>707.5999999999999</ele><time>2026-05-04T16:04:52Z</time></trkpt><trkpt lat="43.77590595316706" lon="11.691621202430374"><ele>707.4000000000001</ele><time>2026-05-04T16:04:53Z</time></trkpt><trkpt lat="43.77583993727276" lon="11.691510411739136"><ele>707.2</ele><time>2026-05-04T16:04:54Z</time></trkpt><trkpt lat="43.77577624771949" lon="11.691398807071598"><ele>707.0</ele><time>2026-05-04T16:04:55Z</time></trkpt><trkpt lat="43.775713943211706" lon="11.691312221844091"><ele>707.0</ele><time>2026-05-04T16:04:56Z</time></trkpt><trkpt lat="43.77563656141501" lon="11.691264215049948"><ele>707.0</ele><time>2026-05-04T16:04:57Z</time></trkpt><trkpt lat="43.77554124515691" lon="11.691268437048443"><ele>707.0</ele><time>2026-05-04T16:04:58Z</time></trkpt><trkpt lat="43.77544735300144" lon="11.691322387278465"><ele>707.0</ele><time>2026-05-04T16:04:59Z</time></trkpt><trkpt lat="43.775364589243075" lon="11.691395155439764"><ele>707.0</ele><time>2026-05-04T16:05:00Z</time></trkpt><trkpt lat="43.77527352980906" lon="11.691492227282382"><ele>706.6</ele><time>2026-05-04T16:05:01Z</time></trkpt><trkpt lat="43.77518457093906" lon="11.691533765838368"><ele>706.2</ele><time>2026-05-04T16:05:02Z</time></trkpt><trkpt lat="43.775091646023554" lon="11.69151712677876"><ele>705.8</ele><time>2026-05-04T16:05:03Z</time></trkpt><trkpt lat="43.77501011981389" lon="11.69146261149433"><ele>705.4</ele><time>2026-05-04T16:05:04Z</time></trkpt><trkpt lat="43.77494112498016" lon="11.69136694034293"><ele>705.0</ele><time>2026-05-04T16:05:05Z</time></trkpt><trkpt lat="43.77488928024523" lon="11.69124432639805"><ele>705.0</ele><time>2026-05-04T16:05:06Z</time></trkpt><trkpt lat="43.774864967279" lon="11.69109807670423"><ele>705.0</ele><time>2026-05-04T16:05:07Z</time></trkpt><trkpt lat="43.77484492004275" lon="11.690937515424995"><ele>705.0</ele><time>2026-05-04T16:05:08Z</time></trkpt><trkpt lat="43.774813644298625" lon="11.690776337377422"><ele>705.0</ele><time>2026-05-04T16:05:09Z</time></trkpt><trkpt lat="43.77477110326308" lon="11.690595486094097"><ele>708.0</ele><time>2026-05-04T16:05:10Z</time></trkpt><trkpt lat="43.77473457675814" lon="11.690433517158837"><ele>711.0</ele><time>2026-05-04T16:05:11Z</time></trkpt><trkpt lat="43.77471695222404" lon="11.690251564473604"><ele>714.0</ele><time>2026-05-04T16:05:12Z</time></trkpt><trkpt lat="43.774703419468636" lon="11.690056435419729"><ele>717.0</ele><time>2026-05-04T16:05:13Z</time></trkpt><trkpt lat="43.77470562541752" lon="11.68985533185417"><ele>719.0</ele><time>2026-05-04T16:05:14Z</time></trkpt><trkpt lat="43.77471193856737" lon="11.689652524767839"><ele>721.0</ele><time>2026-05-04T16:05:15Z</time></trkpt><trkpt lat="43.77471636106578" lon="11.689451304795481"><ele>723.0</ele><time>2026-05-04T16:05:16Z</time></trkpt><trkpt lat="43.774719475071954" lon="11.689253011864391"><ele>725.0</ele><time>2026-05-04T16:05:17Z</time></trkpt><trkpt lat="43.77471808476902" lon="11.689053169336105"><ele>728.0</ele><time>2026-05-04T16:05:18Z</time></trkpt><trkpt lat="43.77471362579327" lon="11.68886391133743"><ele>731.0</ele><time>2026-05-04T16:05:19Z</time></trkpt><trkpt lat="43.7746984715387" lon="11.688673349451811"><ele>734.0</ele><time>2026-05-04T16:05:20Z</time></trkpt><trkpt lat="43.77468394471906" lon="11.688480277095447"><ele>737.0</ele><time>2026-05-04T16:05:21Z</time></trkpt><trkpt lat="43.77468352160043" lon="11.688279099841642"><ele>737.75</ele><time>2026-05-04T16:05:22Z</time></trkpt><trkpt lat="43.77470451352342" lon="11.688078767798942"><ele>738.5</ele><time>2026-05-04T16:05:23Z</time></trkpt><trkpt lat="43.774749491244314" lon="11.687887222252433"><ele>739.25</ele><time>2026-05-04T16:05:24Z</time></trkpt><trkpt lat="43.77481891600641" lon="11.687700500619618"><ele>740.0</ele><time>2026-05-04T16:05:25Z</time></trkpt><trkpt lat="43.77491334305646" lon="11.687538200641804"><ele>738.25</ele><time>2026-05-04T16:05:26Z</time></trkpt><trkpt lat="43.77500217222306" lon="11.687385873759304"><ele>736.5</ele><time>2026-05-04T16:05:27Z</time></trkpt><trkpt lat="43.77505817536521" lon="11.687234007304127"><ele>734.75</ele><time>2026-05-04T16:05:28Z</time></trkpt><trkpt lat="43.77508022843163" lon="11.687066577711224"><ele>733.0</ele><time>2026-05-04T16:05:29Z</time></trkpt><trkpt lat="43.77506623855917" lon="11.68688991909197"><ele>732.25</ele><time>2026-05-04T16:05:30Z</time></trkpt><trkpt lat="43.77503324197688" lon="11.686722092988676"><ele>731.5</ele><time>2026-05-04T16:05:31Z</time></trkpt><trkpt lat="43.77502237185302" lon="11.686564602212"><ele>730.75</ele><time>2026-05-04T16:05:32Z</time></trkpt><trkpt lat="43.77505410419861" lon="11.686417056525515"><ele>730.0</ele><time>2026-05-04T16:05:33Z</time></trkpt><trkpt lat="43.775156387159754" lon="11.686298322464046"><ele>733.75</ele><time>2026-05-04T16:05:34Z</time></trkpt><trkpt lat="43.7752447248429" lon="11.686180735181688"><ele>737.5</ele><time>2026-05-04T16:05:35Z</time></trkpt><trkpt lat="43.775347905433826" lon="11.686078682785336"><ele>741.25</ele><time>2026-05-04T16:05:36Z</time></trkpt><trkpt lat="43.775454951620645" lon="11.685974915662483"><ele>745.0</ele><time>2026-05-04T16:05:37Z</time></trkpt><trkpt lat="43.77555616679573" lon="11.685873498586771"><ele>745.0</ele><time>2026-05-04T16:05:38Z</time></trkpt><trkpt lat="43.77567394443982" lon="11.68577837668456"><ele>745.0</ele><time>2026-05-04T16:05:39Z</time></trkpt><trkpt lat="43.77578806481455" lon="11.685687073836453"><ele>745.0</ele><time>2026-05-04T16:05:40Z</time></trkpt><trkpt lat="43.77590890045006" lon="11.68560679598232"><ele>745.0</ele><time>2026-05-04T16:05:41Z</time></trkpt><trkpt lat="43.776039498475896" lon="11.685545646006695"><ele>748.25</ele><time>2026-05-04T16:05:42Z</time></trkpt><trkpt lat="43.776177986151644" lon="11.685497651628166"><ele>751.5</ele><time>2026-05-04T16:05:43Z</time></trkpt><trkpt lat="43.77631765986494" lon="11.685447794232125"><ele>754.75</ele><time>2026-05-04T16:05:44Z</time></trkpt><trkpt lat="43.77645376427159" lon="11.685375663827132"><ele>758.0</ele><time>2026-05-04T16:05:45Z</time></trkpt><trkpt lat="43.77658051752751" lon="11.685275319303132"><ele>757.0</ele><time>2026-05-04T16:05:46Z</time></trkpt><trkpt lat="43.77669373202471" lon="11.685146790717152"><ele>756.0</ele><time>2026-05-04T16:05:47Z</time></trkpt><trkpt lat="43.776783367960725" lon="11.684984378119838"><ele>755.0</ele><time>2026-05-04T16:05:48Z</time></trkpt><trkpt lat="43.77685473674386" lon="11.684805837118162"><ele>754.0</ele><time>2026-05-04T16:05:49Z</time></trkpt><trkpt lat="43.77692190026198" lon="11.684619985963517"><ele>758.5</ele><time>2026-05-04T16:05:50Z</time></trkpt><trkpt lat="43.776992833161266" lon="11.684450060356241"><ele>763.0</ele><time>2026-05-04T16:05:51Z</time></trkpt><trkpt lat="43.77709225787391" lon="11.684301900482208"><ele>767.5</ele><time>2026-05-04T16:05:52Z</time></trkpt><trkpt lat="43.777198977007444" lon="11.684175667761266"><ele>772.0</ele><time>2026-05-04T16:05:53Z</time></trkpt><trkpt lat="43.777289756217115" lon="11.684024716367821"><ele>772.0</ele><time>2026-05-04T16:05:54Z</time></trkpt><trkpt lat="43.777356061999576" lon="11.683850451786375"><ele>772.0</ele><time>2026-05-04T16:05:55Z</time></trkpt><trkpt lat="43.777411965602944" lon="11.683665035673133"><ele>772.0</ele><time>2026-05-04T16:05:56Z</time></trkpt><trkpt lat="43.777464061922664" lon="11.68348725710078"><ele>772.0</ele><time>2026-05-04T16:05:57Z</time></trkpt><trkpt lat="43.77753407701401" lon="11.6833191044774"><ele>771.0</ele><time>2026-05-04T16:05:58Z</time></trkpt><trkpt lat="43.777617003420815" lon="11.683163332771409"><ele>770.0</ele><time>2026-05-04T16:05:59Z</time></trkpt><trkpt lat="43.77770268072662" lon="11.68299947597382"><ele>769.0</ele><time>2026-05-04T16:06:00Z</time></trkpt><trkpt lat="43.77778413685824" lon="11.682836151453886"><ele>768.0</ele><time>2026-05-04T16:06:01Z</time></trkpt><trkpt lat="43.777867931864925" lon="11.682667797616775"><ele>771.75</ele><time>2026-05-04T16:06:02Z</time></trkpt><trkpt lat="43.77794480474576" lon="11.682500212237315"><ele>775.5</ele><time>2026-05-04T16:06:03Z</time></trkpt><trkpt lat="43.77800877606334" lon="11.682327236689714"><ele>779.25</ele><time>2026-05-04T16:06:04Z</time></trkpt><trkpt lat="43.77804421611617" lon="11.68213445274062"><ele>783.0</ele><time>2026-05-04T16:06:05Z</time></trkpt><trkpt lat="43.77805892642959" lon="11.681935022385447"><ele>783.0</ele><time>2026-05-04T16:06:06Z</time></trkpt><trkpt lat="43.778051077127195" lon="11.681729903221456"><ele>783.0</ele><time>2026-05-04T16:06:07Z</time></trkpt><trkpt lat="43.77802753043305" lon="11.681523075120003"><ele>783.0</ele><time>2026-05-04T16:06:08Z</time></trkpt><trkpt lat="43.778004337618576" lon="11.68131992596949"><ele>783.0</ele><time>2026-05-04T16:06:09Z</time></trkpt><trkpt lat="43.777981439297385" lon="11.681116695099265"><ele>784.75</ele><time>2026-05-04T16:06:10Z</time></trkpt><trkpt lat="43.777956046454086" lon="11.68091274850582"><ele>786.5</ele><time>2026-05-04T16:06:11Z</time></trkpt><trkpt lat="43.77792894451384" lon="11.680717328299837"><ele>788.25</ele><time>2026-05-04T16:06:12Z</time></trkpt><trkpt lat="43.77789604933113" lon="11.680520390906166"><ele>790.0</ele><time>2026-05-04T16:06:13Z</time></trkpt><trkpt lat="43.777864481463894" lon="11.680317226855651"><ele>794.0</ele><time>2026-05-04T16:06:14Z</time></trkpt><trkpt lat="43.77783781986501" lon="11.68010910951029"><ele>798.0</ele><time>2026-05-04T16:06:15Z</time></trkpt><trkpt lat="43.77782023020614" lon="11.679904339237835"><ele>802.0</ele><time>2026-05-04T16:06:16Z</time></trkpt><trkpt lat="43.77781793767318" lon="11.679699287316145"><ele>802.0</ele><time>2026-05-04T16:06:17Z</time></trkpt><trkpt lat="43.7778256693433" lon="11.679494314715228"><ele>802.0</ele><time>2026-05-04T16:06:18Z</time></trkpt><trkpt lat="43.777848951430684" lon="11.679290721524513"><ele>802.0</ele><time>2026-05-04T16:06:19Z</time></trkpt><trkpt lat="43.77788718635952" lon="11.679094460819638"><ele>802.0</ele><time>2026-05-04T16:06:20Z</time></trkpt><trkpt lat="43.77794000404285" lon="11.67891693434841"><ele>802.75</ele><time>2026-05-04T16:06:21Z</time></trkpt><trkpt lat="43.778000983144835" lon="11.678769597694995"><ele>803.5</ele><time>2026-05-04T16:06:22Z</time></trkpt><trkpt lat="43.778082536028485" lon="11.678675410876977"><ele>804.25</ele><time>2026-05-04T16:06:23Z</time></trkpt><trkpt lat="43.77819378263843" lon="11.678635420794366"><ele>805.0</ele><time>2026-05-04T16:06:24Z</time></trkpt><trkpt lat="43.778302560228944" lon="11.678593217565593"><ele>803.25</ele><time>2026-05-04T16:06:25Z</time></trkpt><trkpt lat="43.77841650828779" lon="11.678590544982775"><ele>801.5</ele><time>2026-05-04T16:06:26Z</time></trkpt><trkpt lat="43.778530001892904" lon="11.678581848935723"><ele>799.75</ele><time>2026-05-04T16:06:27Z</time></trkpt><trkpt lat="43.77864337555936" lon="11.678562975810722"><ele>798.0</ele><time>2026-05-04T16:06:28Z</time></trkpt><trkpt lat="43.77876313236893" lon="11.678538178675542"><ele>802.75</ele><time>2026-05-04T16:06:29Z</time></trkpt><trkpt lat="43.77887668823385" lon="11.678497417227415"><ele>807.5</ele><time>2026-05-04T16:06:30Z</time></trkpt><trkpt lat="43.778987172867055" lon="11.678428444314859"><ele>812.25</ele><time>2026-05-04T16:06:31Z</time></trkpt><trkpt lat="43.77907554366616" lon="11.678325774866122"><ele>817.0</ele><time>2026-05-04T16:06:32Z</time></trkpt><trkpt lat="43.779143500342265" lon="11.678184846324745"><ele>817.0</ele><time>2026-05-04T16:06:33Z</time></trkpt><trkpt lat="43.77919028139404" lon="11.67801909364976"><ele>817.0</ele><time>2026-05-04T16:06:34Z</time></trkpt><trkpt lat="43.77922747135665" lon="11.677841778098449"><ele>817.0</ele><time>2026-05-04T16:06:35Z</time></trkpt><trkpt lat="43.779266584207875" lon="11.67766053155563"><ele>817.0</ele><time>2026-05-04T16:06:36Z</time></trkpt><trkpt lat="43.77930873908689" lon="11.677474737143319"><ele>816.5</ele><time>2026-05-04T16:06:37Z</time></trkpt><trkpt lat="43.779349157468765" lon="11.677294201278563"><ele>816.0</ele><time>2026-05-04T16:06:38Z</time></trkpt><trkpt lat="43.779410028495" lon="11.677091394219149"><ele>815.5</ele><time>2026-05-04T16:06:39Z</time></trkpt><trkpt lat="43.7794399451682" lon="11.676904436638313"><ele>815.0</ele><time>2026-05-04T16:06:40Z</time></trkpt><trkpt lat="43.77947971644958" lon="11.676698480235638"><ele>822.3333333333334</ele><time>2026-05-04T16:06:41Z</time></trkpt><trkpt lat="43.77951888993991" lon="11.676488855545154"><ele>829.6666666666667</ele><time>2026-05-04T16:06:42Z</time></trkpt><trkpt lat="43.7795583342845" lon="11.676279430587327"><ele>837.0</ele><time>2026-05-04T16:06:43Z</time></trkpt><trkpt lat="43.77958426115599" lon="11.676058392248528"><ele>838.0</ele><time>2026-05-04T16:06:44Z</time></trkpt><trkpt lat="43.779607500634754" lon="11.675849192378978"><ele>839.0</ele><time>2026-05-04T16:06:45Z</time></trkpt><trkpt lat="43.77962308633323" lon="11.67562210103603"><ele>840.0</ele><time>2026-05-04T16:06:46Z</time></trkpt><trkpt lat="43.77964983656898" lon="11.675413886708892"><ele>840.6666666666667</ele><time>2026-05-04T16:06:47Z</time></trkpt><trkpt lat="43.779680088434766" lon="11.675208141713602"><ele>841.3333333333334</ele><time>2026-05-04T16:06:48Z</time></trkpt><trkpt lat="43.7797177680006" lon="11.67500300763174"><ele>842.0</ele><time>2026-05-04T16:06:49Z</time></trkpt><trkpt lat="43.77975679998884" lon="11.674792686462327"><ele>842.0</ele><time>2026-05-04T16:06:50Z</time></trkpt><trkpt lat="43.779800700539376" lon="11.674596847652078"><ele>842.0</ele><time>2026-05-04T16:06:51Z</time></trkpt><trkpt lat="43.77984933194664" lon="11.674414753000287"><ele>842.0</ele><time>2026-05-04T16:06:52Z</time></trkpt><trkpt lat="43.77988710687659" lon="11.674248991409153"><ele>842.0</ele><time>2026-05-04T16:06:53Z</time></trkpt><trkpt lat="43.77989107178896" lon="11.674063676398612"><ele>842.8</ele><time>2026-05-04T16:06:54Z</time></trkpt><trkpt lat="43.77987405186201" lon="11.67389088314803"><ele>843.6</ele><time>2026-05-04T16:06:55Z</time></trkpt><trkpt lat="43.77985648335658" lon="11.673734170691315"><ele>844.4</ele><time>2026-05-04T16:06:56Z</time></trkpt><trkpt lat="43.77985959904293" lon="11.67359744803808"><ele>845.1999999999999</ele><time>2026-05-04T16:06:57Z</time></trkpt><trkpt lat="43.77989356373021" lon="11.673468527286435"><ele>846.0</ele><time>2026-05-04T16:06:58Z</time></trkpt><trkpt lat="43.77995785849548" lon="11.673355579168131"><ele>846.5999999999999</ele><time>2026-05-04T16:06:59Z</time></trkpt><trkpt lat="43.78003924747816" lon="11.673278135638885"><ele>847.2</ele><time>2026-05-04T16:07:00Z</time></trkpt><trkpt lat="43.7801322129309" lon="11.673237823757834"><ele>847.8</ele><time>2026-05-04T16:07:01Z</time></trkpt><trkpt lat="43.7802367046716" lon="11.673209094353158"><ele>848.4000000000001</ele><time>2026-05-04T16:07:02Z</time></trkpt><trkpt lat="43.78034558421903" lon="11.67316086999009"><ele>849.0</ele><time>2026-05-04T16:07:03Z</time></trkpt><trkpt lat="43.780444861760785" lon="11.673079740644086"><ele>851.5</ele><time>2026-05-04T16:07:04Z</time></trkpt><trkpt lat="43.78053237002549" lon="11.672959949331823"><ele>854.0</ele><time>2026-05-04T16:07:05Z</time></trkpt><trkpt lat="43.78061333366158" lon="11.672816774004364"><ele>856.5</ele><time>2026-05-04T16:07:06Z</time></trkpt><trkpt lat="43.780682813953185" lon="11.672659898950847"><ele>859.0</ele><time>2026-05-04T16:07:07Z</time></trkpt><trkpt lat="43.78075015508048" lon="11.672508669032107"><ele>859.0</ele><time>2026-05-04T16:07:08Z</time></trkpt><trkpt lat="43.78081915893354" lon="11.672350228811862"><ele>859.0</ele><time>2026-05-04T16:07:09Z</time></trkpt><trkpt lat="43.78089809163066" lon="11.672193940255061"><ele>859.0</ele><time>2026-05-04T16:07:10Z</time></trkpt><trkpt lat="43.78097059223539" lon="11.67203855973422"><ele>859.0</ele><time>2026-05-04T16:07:11Z</time></trkpt><trkpt lat="43.781043431135984" lon="11.671871828907964"><ele>864.75</ele><time>2026-05-04T16:07:12Z</time></trkpt><trkpt lat="43.781110843184145" lon="11.67169865758577"><ele>870.5</ele><time>2026-05-04T16:07:13Z</time></trkpt><trkpt lat="43.78117763726556" lon="11.671520285577373"><ele>876.25</ele><time>2026-05-04T16:07:14Z</time></trkpt><trkpt lat="43.7812439010741" lon="11.671335085094649"><ele>882.0</ele><time>2026-05-04T16:07:15Z</time></trkpt><trkpt lat="43.78130165622341" lon="11.67114251398663"><ele>882.0</ele><time>2026-05-04T16:07:16Z</time></trkpt><trkpt lat="43.781347396172514" lon="11.670933956084395"><ele>882.0</ele><time>2026-05-04T16:07:17Z</time></trkpt><trkpt lat="43.78138418183159" lon="11.670726608594984"><ele>882.0</ele><time>2026-05-04T16:07:18Z</time></trkpt><trkpt lat="43.78142292464554" lon="11.670517350618507"><ele>882.0</ele><time>2026-05-04T16:07:19Z</time></trkpt><trkpt lat="43.781459598742764" lon="11.670311455332916"><ele>882.0</ele><time>2026-05-04T16:07:20Z</time></trkpt><trkpt lat="43.78148790381922" lon="11.670106006652302"><ele>882.0</ele><time>2026-05-04T16:07:21Z</time></trkpt><trkpt lat="43.78150021951652" lon="11.669901217219936"><ele>882.75</ele><time>2026-05-04T16:07:22Z</time></trkpt><trkpt lat="43.78148863363452" lon="11.669701058817372"><ele>883.5</ele><time>2026-05-04T16:07:23Z</time></trkpt><trkpt lat="43.781458019996215" lon="11.669497491137344"><ele>884.25</ele><time>2026-05-04T16:07:24Z</time></trkpt><trkpt lat="43.7814064889771" lon="11.669305276579196"><ele>885.0</ele><time>2026-05-04T16:07:25Z</time></trkpt><trkpt lat="43.78134026407471" lon="11.669114376989784"><ele>888.75</ele><time>2026-05-04T16:07:26Z</time></trkpt><trkpt lat="43.78127607550428" lon="11.668936025769014"><ele>892.5</ele><time>2026-05-04T16:07:27Z</time></trkpt><trkpt lat="43.78123888987328" lon="11.668754894091292"><ele>896.25</ele><time>2026-05-04T16:07:28Z</time></trkpt><trkpt lat="43.78123299277987" lon="11.668560502358158"><ele>900.0</ele><time>2026-05-04T16:07:29Z</time></trkpt><trkpt lat="43.78124675263193" lon="11.66835990060159"><ele>901.75</ele><time>2026-05-04T16:07:30Z</time></trkpt><trkpt lat="43.78125791148737" lon="11.668162804480126"><ele>903.5</ele><time>2026-05-04T16:07:31Z</time></trkpt><trkpt lat="43.781266879207315" lon="11.667960511908202"><ele>905.25</ele><time>2026-05-04T16:07:32Z</time></trkpt><trkpt lat="43.78126605582477" lon="11.667776608511856"><ele>907.0</ele><time>2026-05-04T16:07:33Z</time></trkpt><trkpt lat="43.78124501783861" lon="11.66759480787748"><ele>907.5</ele><time>2026-05-04T16:07:34Z</time></trkpt><trkpt lat="43.78119043232379" lon="11.667436539087694"><ele>908.0</ele><time>2026-05-04T16:07:35Z</time></trkpt><trkpt lat="43.78111190643108" lon="11.667288457947336"><ele>908.5</ele><time>2026-05-04T16:07:36Z</time></trkpt><trkpt lat="43.78102121670593" lon="11.667135729549585"><ele>909.0</ele><time>2026-05-04T16:07:37Z</time></trkpt><trkpt lat="43.78093612146504" lon="11.666982232354728"><ele>906.0</ele><time>2026-05-04T16:07:38Z</time></trkpt><trkpt lat="43.780867305584636" lon="11.66684092882316"><ele>903.0</ele><time>2026-05-04T16:07:39Z</time></trkpt><trkpt lat="43.78082362848047" lon="11.666673482844388"><ele>900.0</ele><time>2026-05-04T16:07:40Z</time></trkpt><trkpt lat="43.780809914413226" lon="11.666499798893051"><ele>897.0</ele><time>2026-05-04T16:07:41Z</time></trkpt><trkpt lat="43.78082081220458" lon="11.666317892459224"><ele>897.0</ele><time>2026-05-04T16:07:42Z</time></trkpt><trkpt lat="43.780835200142555" lon="11.666122736219746"><ele>897.0</ele><time>2026-05-04T16:07:43Z</time></trkpt><trkpt lat="43.78084724902678" lon="11.665937498177703"><ele>897.0</ele><time>2026-05-04T16:07:44Z</time></trkpt><trkpt lat="43.78085254174821" lon="11.665749222958695"><ele>897.0</ele><time>2026-05-04T16:07:45Z</time></trkpt><trkpt lat="43.78086745824759" lon="11.665561633720333"><ele>898.25</ele><time>2026-05-04T16:07:46Z</time></trkpt><trkpt lat="43.780903985822334" lon="11.665388852421437"><ele>899.5</ele><time>2026-05-04T16:07:47Z</time></trkpt><trkpt lat="43.78096312725058" lon="11.665225321618587"><ele>900.75</ele><time>2026-05-04T16:07:48Z</time></trkpt><trkpt lat="43.781040297769614" lon="11.665064956711717"><ele>902.0</ele><time>2026-05-04T16:07:49Z</time></trkpt><trkpt lat="43.781117258012365" lon="11.664906735042527"><ele>908.5</ele><time>2026-05-04T16:07:50Z</time></trkpt><trkpt lat="43.78119093217663" lon="11.66474555747134"><ele>915.0</ele><time>2026-05-04T16:07:51Z</time></trkpt><trkpt lat="43.78126416537259" lon="11.66457913152263"><ele>921.5</ele><time>2026-05-04T16:07:52Z</time></trkpt><trkpt lat="43.78133965397219" lon="11.664415246654276"><ele>928.0</ele><time>2026-05-04T16:07:53Z</time></trkpt><trkpt lat="43.7814191692622" lon="11.664246134379825"><ele>928.0</ele><time>2026-05-04T16:07:54Z</time></trkpt><trkpt lat="43.78149801235942" lon="11.664073339239907"><ele>928.0</ele><time>2026-05-04T16:07:55Z</time></trkpt><trkpt lat="43.78157639177567" lon="11.663902597235488"><ele>928.0</ele><time>2026-05-04T16:07:56Z</time></trkpt><trkpt lat="43.78165301501484" lon="11.663723969848187"><ele>928.0</ele><time>2026-05-04T16:07:57Z</time></trkpt><trkpt lat="43.781719861882635" lon="11.663543842874471"><ele>927.0</ele><time>2026-05-04T16:07:58Z</time></trkpt><trkpt lat="43.78176554908603" lon="11.66337000246179"><ele>926.0</ele><time>2026-05-04T16:07:59Z</time></trkpt><trkpt lat="43.781789521615195" lon="11.663185631670364"><ele>925.0</ele><time>2026-05-04T16:08:00Z</time></trkpt><trkpt lat="43.781796835629926" lon="11.662987536950846"><ele>924.0</ele><time>2026-05-04T16:08:01Z</time></trkpt><trkpt lat="43.781784804764676" lon="11.662785631301494"><ele>926.0</ele><time>2026-05-04T16:08:02Z</time></trkpt><trkpt lat="43.78174935075962" lon="11.66258489598914"><ele>928.0</ele><time>2026-05-04T16:08:03Z</time></trkpt><trkpt lat="43.781711148879445" lon="11.662382924578633"><ele>930.0</ele><time>2026-05-04T16:08:04Z</time></trkpt><trkpt lat="43.78166553020738" lon="11.662184979970903"><ele>930.0</ele><time>2026-05-04T16:08:05Z</time></trkpt><trkpt lat="43.7816200056936" lon="11.661972700824442"><ele>930.0</ele><time>2026-05-04T16:08:06Z</time></trkpt><trkpt lat="43.78157260570371" lon="11.661776696324717"><ele>930.0</ele><time>2026-05-04T16:08:07Z</time></trkpt><trkpt lat="43.781515321798594" lon="11.6615982124059"><ele>931.4</ele><time>2026-05-04T16:08:08Z</time></trkpt><trkpt lat="43.78146692548056" lon="11.66144383786259"><ele>932.8</ele><time>2026-05-04T16:08:09Z</time></trkpt><trkpt lat="43.78143042161477" lon="11.661309356041238"><ele>934.2</ele><time>2026-05-04T16:08:10Z</time></trkpt><trkpt lat="43.781409713277384" lon="11.661169136381583"><ele>935.6</ele><time>2026-05-04T16:08:11Z</time></trkpt><trkpt lat="43.78141319305187" lon="11.661030399464943"><ele>937.0</ele><time>2026-05-04T16:08:12Z</time></trkpt><trkpt lat="43.78144438473934" lon="11.66088194566058"><ele>938.25</ele><time>2026-05-04T16:08:13Z</time></trkpt><trkpt lat="43.78150087522188" lon="11.660732678978517"><ele>939.5</ele><time>2026-05-04T16:08:14Z</time></trkpt><trkpt lat="43.78156354687488" lon="11.660578062633965"><ele>940.75</ele><time>2026-05-04T16:08:15Z</time></trkpt><trkpt lat="43.781615365247916" lon="11.660412623878612"><ele>942.0</ele><time>2026-05-04T16:08:16Z</time></trkpt><trkpt lat="43.781637213221764" lon="11.660233572343627"><ele>943.0</ele><time>2026-05-04T16:08:17Z</time></trkpt><trkpt lat="43.781624121718046" lon="11.660046773475864"><ele>944.0</ele><time>2026-05-04T16:08:18Z</time></trkpt><trkpt lat="43.78158787703069" lon="11.659855848732246"><ele>945.0</ele><time>2026-05-04T16:08:19Z</time></trkpt><trkpt lat="43.7815424897361" lon="11.659653192550216"><ele>946.0</ele><time>2026-05-04T16:08:20Z</time></trkpt><trkpt lat="43.78150693786046" lon="11.659458757423923"><ele>947.3333333333333</ele><time>2026-05-04T16:08:21Z</time></trkpt><trkpt lat="43.781483738633014" lon="11.65925104260533"><ele>948.6666666666667</ele><time>2026-05-04T16:08:22Z</time></trkpt><trkpt lat="43.78147798232019" lon="11.659033056479819"><ele>950.0</ele><time>2026-05-04T16:08:23Z</time></trkpt><trkpt lat="43.78147702739435" lon="11.658807760448337"><ele>950.6666666666667</ele><time>2026-05-04T16:08:24Z</time></trkpt><trkpt lat="43.78147335992831" lon="11.658578733565276"><ele>951.3333333333333</ele><time>2026-05-04T16:08:25Z</time></trkpt><trkpt lat="43.78146844446217" lon="11.6583709554711"><ele>952.0</ele><time>2026-05-04T16:08:26Z</time></trkpt><trkpt lat="43.7814648625055" lon="11.658175414148111"><ele>952.0</ele><time>2026-05-04T16:08:27Z</time></trkpt><trkpt lat="43.78146252711025" lon="11.658000203218071"><ele>952.0</ele><time>2026-05-04T16:08:28Z</time></trkpt><trkpt lat="43.781472291197225" lon="11.65785109873934"><ele>952.0</ele><time>2026-05-04T16:08:29Z</time></trkpt><trkpt lat="43.78148451404024" lon="11.657695809706375"><ele>952.0</ele><time>2026-05-04T16:08:30Z</time></trkpt><trkpt lat="43.78151769822439" lon="11.657546096537844"><ele>953.5</ele><time>2026-05-04T16:08:31Z</time></trkpt><trkpt lat="43.78157784935644" lon="11.657405019072042"><ele>955.0</ele><time>2026-05-04T16:08:32Z</time></trkpt><trkpt lat="43.78166472877145" lon="11.657275699607196"><ele>956.5</ele><time>2026-05-04T16:08:33Z</time></trkpt><trkpt lat="43.78177453534904" lon="11.657163258048865"><ele>958.0</ele><time>2026-05-04T16:08:34Z</time></trkpt><trkpt lat="43.78189385524882" lon="11.657060641148579"><ele>958.0</ele><time>2026-05-04T16:08:35Z</time></trkpt><trkpt lat="43.782018695632345" lon="11.656957668143239"><ele>958.0</ele><time>2026-05-04T16:08:36Z</time></trkpt><trkpt lat="43.78213956458714" lon="11.656851026351111"><ele>958.0</ele><time>2026-05-04T16:08:37Z</time></trkpt><trkpt lat="43.78224511073087" lon="11.656747585406007"><ele>958.0</ele><time>2026-05-04T16:08:38Z</time></trkpt><trkpt lat="43.782346558022624" lon="11.656631383222729"><ele>954.75</ele><time>2026-05-04T16:08:39Z</time></trkpt><trkpt lat="43.78242676199732" lon="11.656496092214898"><ele>951.5</ele><time>2026-05-04T16:08:40Z</time></trkpt><trkpt lat="43.782484032986495" lon="11.656335990676517"><ele>948.25</ele><time>2026-05-04T16:08:41Z</time></trkpt><trkpt lat="43.78252411475423" lon="11.656148163655455"><ele>945.0</ele><time>2026-05-04T16:08:42Z</time></trkpt><trkpt lat="43.78253984248126" lon="11.655952837320909"><ele>944.25</ele><time>2026-05-04T16:08:43Z</time></trkpt><trkpt lat="43.78253303585816" lon="11.655751309996274"><ele>943.5</ele><time>2026-05-04T16:08:44Z</time></trkpt><trkpt lat="43.78250289355577" lon="11.655554060783366"><ele>942.75</ele><time>2026-05-04T16:08:45Z</time></trkpt><trkpt lat="43.782442158171015" lon="11.655365910032332"><ele>942.0</ele><time>2026-05-04T16:08:46Z</time></trkpt><trkpt lat="43.78235992772804" lon="11.655202855385529"><ele>944.3333333333333</ele><time>2026-05-04T16:08:47Z</time></trkpt><trkpt lat="43.78225451975818" lon="11.65504281731217"><ele>946.6666666666666</ele><time>2026-05-04T16:08:48Z</time></trkpt><trkpt lat="43.78213919976186" lon="11.654900479056321"><ele>949.0</ele><time>2026-05-04T16:08:49Z</time></trkpt><trkpt lat="43.78202006972784" lon="11.65476106995276"><ele>949.0</ele><time>2026-05-04T16:08:50Z</time></trkpt><trkpt lat="43.78190124257604" lon="11.654621689959226"><ele>949.0</ele><time>2026-05-04T16:08:51Z</time></trkpt><trkpt lat="43.78179284881788" lon="11.65448955682523"><ele>949.0</ele><time>2026-05-04T16:08:52Z</time></trkpt><trkpt lat="43.78169807330875" lon="11.654366296759438"><ele>949.0</ele><time>2026-05-04T16:08:53Z</time></trkpt><trkpt lat="43.781609048962125" lon="11.654238985610617"><ele>950.0</ele><time>2026-05-04T16:08:54Z</time></trkpt><trkpt lat="43.781531269898565" lon="11.65408922548688"><ele>951.0</ele><time>2026-05-04T16:08:55Z</time></trkpt><trkpt lat="43.78147486301777" lon="11.653931709936641"><ele>952.0</ele><time>2026-05-04T16:08:56Z</time></trkpt><trkpt lat="43.78143048473102" lon="11.653756378161296"><ele>953.0</ele><time>2026-05-04T16:08:57Z</time></trkpt><trkpt lat="43.78141603513364" lon="11.653577006300244"><ele>953.0</ele><time>2026-05-04T16:08:58Z</time></trkpt><trkpt lat="43.78141028148588" lon="11.653387368014107"><ele>953.0</ele><time>2026-05-04T16:08:59Z</time></trkpt><trkpt lat="43.78139338508382" lon="11.65320028065383"><ele>953.0</ele><time>2026-05-04T16:09:00Z</time></trkpt><trkpt lat="43.78134414530524" lon="11.65301130048751"><ele>953.0</ele><time>2026-05-04T16:09:01Z</time></trkpt><trkpt lat="43.78127069545497" lon="11.652835503886308"><ele>954.0</ele><time>2026-05-04T16:09:02Z</time></trkpt><trkpt lat="43.78120480023766" lon="11.652661394390082"><ele>955.0</ele><time>2026-05-04T16:09:03Z</time></trkpt><trkpt lat="43.7811819568172" lon="11.652476219786784"><ele>956.0</ele><time>2026-05-04T16:09:04Z</time></trkpt><trkpt lat="43.78119243005285" lon="11.652278735058092"><ele>957.0</ele><time>2026-05-04T16:09:05Z</time></trkpt><trkpt lat="43.78121762455221" lon="11.652075995684404"><ele>957.25</ele><time>2026-05-04T16:09:06Z</time></trkpt><trkpt lat="43.78124250144703" lon="11.651878115223246"><ele>957.5</ele><time>2026-05-04T16:09:07Z</time></trkpt><trkpt lat="43.78126180741827" lon="11.651672880058747"><ele>957.75</ele><time>2026-05-04T16:09:08Z</time></trkpt><trkpt lat="43.781283612371524" lon="11.651480045222137"><ele>958.0</ele><time>2026-05-04T16:09:09Z</time></trkpt><trkpt lat="43.7813070456429" lon="11.651304123174892"><ele>958.0</ele><time>2026-05-04T16:09:10Z</time></trkpt><trkpt lat="43.78134573142963" lon="11.651145908058847"><ele>958.0</ele><time>2026-05-04T16:09:11Z</time></trkpt><trkpt lat="43.78141107144118" lon="11.651005392855357"><ele>958.0</ele><time>2026-05-04T16:09:12Z</time></trkpt><trkpt lat="43.78151300305646" lon="11.650894423667093"><ele>958.0</ele><time>2026-05-04T16:09:13Z</time></trkpt><trkpt lat="43.78161471211032" lon="11.650761305264583"><ele>954.0</ele><time>2026-05-04T16:09:14Z</time></trkpt><trkpt lat="43.78174838168705" lon="11.650669488156284"><ele>950.0</ele><time>2026-05-04T16:09:15Z</time></trkpt><trkpt lat="43.781884454055444" lon="11.650579231654678"><ele>946.0</ele><time>2026-05-04T16:09:16Z</time></trkpt><trkpt lat="43.78202222340377" lon="11.65047095018215"><ele>945.6666666666666</ele><time>2026-05-04T16:09:17Z</time></trkpt><trkpt lat="43.78216582962782" lon="11.650376109641"><ele>945.3333333333333</ele><time>2026-05-04T16:09:18Z</time></trkpt><trkpt lat="43.78229909352904" lon="11.650254562968783"><ele>945.0</ele><time>2026-05-04T16:09:19Z</time></trkpt><trkpt lat="43.78242340607951" lon="11.650117000045773"><ele>945.0</ele><time>2026-05-04T16:09:20Z</time></trkpt><trkpt lat="43.78255336932589" lon="11.649994907297774"><ele>945.0</ele><time>2026-05-04T16:09:21Z</time></trkpt><trkpt lat="43.78268824664449" lon="11.64989047633381"><ele>945.0</ele><time>2026-05-04T16:09:22Z</time></trkpt><trkpt lat="43.7828332160786" lon="11.649806350784512"><ele>949.3333333333333</ele><time>2026-05-04T16:09:23Z</time></trkpt><trkpt lat="43.78298925180436" lon="11.649790478810509"><ele>953.6666666666666</ele><time>2026-05-04T16:09:24Z</time></trkpt><trkpt lat="43.78314261728106" lon="11.649763514445468"><ele>958.0</ele><time>2026-05-04T16:09:25Z</time></trkpt><trkpt lat="43.783302346582644" lon="11.649745308602862"><ele>958.0</ele><time>2026-05-04T16:09:26Z</time></trkpt><trkpt lat="43.78346987493348" lon="11.649710243432779"><ele>958.0</ele><time>2026-05-04T16:09:27Z</time></trkpt><trkpt lat="43.783621355676416" lon="11.649720561588772"><ele>958.0</ele><time>2026-05-04T16:09:28Z</time></trkpt><trkpt lat="43.78375978361165" lon="11.649776667271421"><ele>957.0</ele><time>2026-05-04T16:09:29Z</time></trkpt><trkpt lat="43.78389484919064" lon="11.649840756223538"><ele>956.0</ele><time>2026-05-04T16:09:30Z</time></trkpt><trkpt lat="43.78403879837886" lon="11.649920694451119"><ele>955.0</ele><time>2026-05-04T16:09:31Z</time></trkpt><trkpt lat="43.7841913275018" lon="11.649986498582791"><ele>955.0</ele><time>2026-05-04T16:09:32Z</time></trkpt><trkpt lat="43.78434140352403" lon="11.65007019221326"><ele>955.0</ele><time>2026-05-04T16:09:33Z</time></trkpt><trkpt lat="43.784494224219245" lon="11.650159204850846"><ele>955.0</ele><time>2026-05-04T16:09:34Z</time></trkpt><trkpt lat="43.78465137719778" lon="11.6502425984341"><ele>955.0</ele><time>2026-05-04T16:09:35Z</time></trkpt><trkpt lat="43.78479891374851" lon="11.650329020988707"><ele>955.0</ele><time>2026-05-04T16:09:36Z</time></trkpt><trkpt lat="43.78494360359504" lon="11.650418098878639"><ele>955.0</ele><time>2026-05-04T16:09:37Z</time></trkpt><trkpt lat="43.78508449431305" lon="11.650493281769483"><ele>955.25</ele><time>2026-05-04T16:09:38Z</time></trkpt><trkpt lat="43.785223636968574" lon="11.650547167093334"><ele>955.5</ele><time>2026-05-04T16:09:39Z</time></trkpt><trkpt lat="43.78535859944246" lon="11.650577916091533"><ele>955.75</ele><time>2026-05-04T16:09:40Z</time></trkpt><trkpt lat="43.785500533401525" lon="11.650589911450572"><ele>956.0</ele><time>2026-05-04T16:09:41Z</time></trkpt><trkpt lat="43.78563747762983" lon="11.650563344196627"><ele>956.0</ele><time>2026-05-04T16:09:42Z</time></trkpt><trkpt lat="43.78577066753392" lon="11.650490939183763"><ele>956.0</ele><time>2026-05-04T16:09:43Z</time></trkpt><trkpt lat="43.78590137648752" lon="11.650392931396707"><ele>956.0</ele><time>2026-05-04T16:09:44Z</time></trkpt><trkpt lat="43.78603026895502" lon="11.650277470310328"><ele>956.0</ele><time>2026-05-04T16:09:45Z</time></trkpt><trkpt lat="43.786163421811814" lon="11.650162923479707"><ele>956.0</ele><time>2026-05-04T16:09:46Z</time></trkpt><trkpt lat="43.786282453569605" lon="11.650054203362307"><ele>956.0</ele><time>2026-05-04T16:09:47Z</time></trkpt><trkpt lat="43.7863852706627" lon="11.649928754688256"><ele>956.0</ele><time>2026-05-04T16:09:48Z</time></trkpt><trkpt lat="43.786467653575095" lon="11.649767726915627"><ele>956.0</ele><time>2026-05-04T16:09:49Z</time></trkpt><trkpt lat="43.78652894469853" lon="11.649592941303093"><ele>954.3333333333334</ele><time>2026-05-04T16:09:50Z</time></trkpt><trkpt lat="43.78658362906498" lon="11.649400377636718"><ele>952.6666666666667</ele><time>2026-05-04T16:09:51Z</time></trkpt><trkpt lat="43.78661523425385" lon="11.64919642820505"><ele>951.0</ele><time>2026-05-04T16:09:52Z</time></trkpt><trkpt lat="43.78662600856374" lon="11.648978428710402"><ele>951.0</ele><time>2026-05-04T16:09:53Z</time></trkpt><trkpt lat="43.78661791680547" lon="11.648748785689614"><ele>951.0</ele><time>2026-05-04T16:09:54Z</time></trkpt><trkpt lat="43.78660748055363" lon="11.648518563480653"><ele>951.0</ele><time>2026-05-04T16:09:55Z</time></trkpt><trkpt lat="43.7865917744406" lon="11.648283055786802"><ele>950.0</ele><time>2026-05-04T16:09:56Z</time></trkpt><trkpt lat="43.78657951521569" lon="11.648067137664645"><ele>949.0</ele><time>2026-05-04T16:09:57Z</time></trkpt><trkpt lat="43.78657917035545" lon="11.647862316449782"><ele>948.0</ele><time>2026-05-04T16:09:58Z</time></trkpt><trkpt lat="43.78660393791872" lon="11.647656004817353"><ele>947.6666666666667</ele><time>2026-05-04T16:09:59Z</time></trkpt><trkpt lat="43.78665218020281" lon="11.647453586032574"><ele>947.3333333333334</ele><time>2026-05-04T16:10:00Z</time></trkpt><trkpt lat="43.786714278923526" lon="11.647251847097982"><ele>947.0</ele><time>2026-05-04T16:10:01Z</time></trkpt><trkpt lat="43.78678791082794" lon="11.64704592721897"><ele>953.0</ele><time>2026-05-04T16:10:02Z</time></trkpt><trkpt lat="43.78685220354542" lon="11.64683982669562"><ele>959.0</ele><time>2026-05-04T16:10:03Z</time></trkpt><trkpt lat="43.78691480083504" lon="11.646630168010287"><ele>965.0</ele><time>2026-05-04T16:10:04Z</time></trkpt><trkpt lat="43.78698095833978" lon="11.646418327377075"><ele>965.0</ele><time>2026-05-04T16:10:05Z</time></trkpt><trkpt lat="43.787047685561014" lon="11.646203212052615"><ele>965.0</ele><time>2026-05-04T16:10:06Z</time></trkpt><trkpt lat="43.78711398603406" lon="11.64600481028213"><ele>965.0</ele><time>2026-05-04T16:10:07Z</time></trkpt><trkpt lat="43.78718339429096" lon="11.645793518450438"><ele>964.0</ele><time>2026-05-04T16:10:08Z</time></trkpt><trkpt lat="43.787256182792085" lon="11.645595382352274"><ele>963.0</ele><time>2026-05-04T16:10:09Z</time></trkpt><trkpt lat="43.78733065988939" lon="11.64539538111532"><ele>962.0</ele><time>2026-05-04T16:10:10Z</time></trkpt><trkpt lat="43.78739984424195" lon="11.645211779143857"><ele>960.75</ele><time>2026-05-04T16:10:11Z</time></trkpt><trkpt lat="43.78745902938608" lon="11.64503586834754"><ele>959.5</ele><time>2026-05-04T16:10:12Z</time></trkpt><trkpt lat="43.78749973749019" lon="11.644853813228847"><ele>958.25</ele><time>2026-05-04T16:10:13Z</time></trkpt><trkpt lat="43.787511571884565" lon="11.644664857037665"><ele>957.0</ele><time>2026-05-04T16:10:14Z</time></trkpt><trkpt lat="43.78748408079853" lon="11.644475750453205"><ele>958.3333333333333</ele><time>2026-05-04T16:10:15Z</time></trkpt><trkpt lat="43.78742927449654" lon="11.644284764627391"><ele>959.6666666666666</ele><time>2026-05-04T16:10:16Z</time></trkpt><trkpt lat="43.787344580001935" lon="11.644094311220437"><ele>961.0</ele><time>2026-05-04T16:10:17Z</time></trkpt><trkpt lat="43.787254157080405" lon="11.643907879723779"><ele>961.0</ele><time>2026-05-04T16:10:18Z</time></trkpt><trkpt lat="43.78716487057746" lon="11.64371563878347"><ele>961.0</ele><time>2026-05-04T16:10:19Z</time></trkpt><trkpt lat="43.78709344119389" lon="11.64352611151728"><ele>961.0</ele><time>2026-05-04T16:10:20Z</time></trkpt><trkpt lat="43.787040296116146" lon="11.643342006413118"><ele>961.6666666666666</ele><time>2026-05-04T16:10:21Z</time></trkpt><trkpt lat="43.78701414187509" lon="11.643138325241654"><ele>962.3333333333333</ele><time>2026-05-04T16:10:22Z</time></trkpt><trkpt lat="43.78700804775176" lon="11.642924411942564"><ele>963.0</ele><time>2026-05-04T16:10:23Z</time></trkpt><trkpt lat="43.787011088050605" lon="11.642718746548331"><ele>961.6666666666667</ele><time>2026-05-04T16:10:24Z</time></trkpt><trkpt lat="43.787014281376514" lon="11.642505702994427"><ele>960.3333333333334</ele><time>2026-05-04T16:10:25Z</time></trkpt><trkpt lat="43.7870327091145" lon="11.642297439312038"><ele>959.0</ele><time>2026-05-04T16:10:26Z</time></trkpt><trkpt lat="43.7870667719671" lon="11.642088933800412"><ele>959.5</ele><time>2026-05-04T16:10:27Z</time></trkpt><trkpt lat="43.787115630932014" lon="11.641884359868648"><ele>960.0</ele><time>2026-05-04T16:10:28Z</time></trkpt><trkpt lat="43.7871630265697" lon="11.641691839386473"><ele>960.5</ele><time>2026-05-04T16:10:29Z</time></trkpt><trkpt lat="43.78720951681305" lon="11.6415003686455"><ele>961.0</ele><time>2026-05-04T16:10:30Z</time></trkpt><trkpt lat="43.78725746191971" lon="11.641327641644475"><ele>961.0</ele><time>2026-05-04T16:10:31Z</time></trkpt><trkpt lat="43.78729756869889" lon="11.641162377899873"><ele>961.0</ele><time>2026-05-04T16:10:32Z</time></trkpt><trkpt lat="43.78731627788005" lon="11.640996735674209"><ele>961.0</ele><time>2026-05-04T16:10:33Z</time></trkpt><trkpt lat="43.78729875668777" lon="11.640826640054378"><ele>961.0</ele><time>2026-05-04T16:10:34Z</time></trkpt><trkpt lat="43.78725698308701" lon="11.640663283817933"><ele>962.0</ele><time>2026-05-04T16:10:35Z</time></trkpt><trkpt lat="43.78718492804931" lon="11.640513822741955"><ele>963.0</ele><time>2026-05-04T16:10:36Z</time></trkpt><trkpt lat="43.7871092180567" lon="11.640378458763221"><ele>964.0</ele><time>2026-05-04T16:10:37Z</time></trkpt><trkpt lat="43.78704241028047" lon="11.640260852371561"><ele>965.0</ele><time>2026-05-04T16:10:38Z</time></trkpt><trkpt lat="43.786986645872155" lon="11.640145876023169"><ele>965.0</ele><time>2026-05-04T16:10:39Z</time></trkpt><trkpt lat="43.786958898801444" lon="11.64001990861265"><ele>965.0</ele><time>2026-05-04T16:10:40Z</time></trkpt><trkpt lat="43.78696780251578" lon="11.639893924299756"><ele>965.0</ele><time>2026-05-04T16:10:41Z</time></trkpt><trkpt lat="43.787004907674174" lon="11.63977484568824"><ele>965.0</ele><time>2026-05-04T16:10:42Z</time></trkpt><trkpt lat="43.78707535808303" lon="11.639694838674366"><ele>965.0</ele><time>2026-05-04T16:10:43Z</time></trkpt><trkpt lat="43.78717662865882" lon="11.639642152889538"><ele>965.0</ele><time>2026-05-04T16:10:44Z</time></trkpt><trkpt lat="43.78728415884568" lon="11.639601946225472"><ele>965.0</ele><time>2026-05-04T16:10:45Z</time></trkpt><trkpt lat="43.787405867971785" lon="11.639560411432338"><ele>965.0</ele><time>2026-05-04T16:10:46Z</time></trkpt><trkpt lat="43.7875248569801" lon="11.639512677149925"><ele>965.0</ele><time>2026-05-04T16:10:47Z</time></trkpt><trkpt lat="43.7876361160952" lon="11.639455103318669"><ele>962.5</ele><time>2026-05-04T16:10:48Z</time></trkpt><trkpt lat="43.787737936443" lon="11.639368921995679"><ele>960.0</ele><time>2026-05-04T16:10:49Z</time></trkpt><trkpt lat="43.78781981275599" lon="11.639241040948974"><ele>957.5</ele><time>2026-05-04T16:10:50Z</time></trkpt><trkpt lat="43.78787818718155" lon="11.639077872868086"><ele>955.0</ele><time>2026-05-04T16:10:51Z</time></trkpt><trkpt lat="43.78792135018164" lon="11.638889287081007"><ele>955.0</ele><time>2026-05-04T16:10:52Z</time></trkpt><trkpt lat="43.78795661725395" lon="11.638699566316483"><ele>955.0</ele><time>2026-05-04T16:10:53Z</time></trkpt><trkpt lat="43.787981388206376" lon="11.63849661846819"><ele>955.0</ele><time>2026-05-04T16:10:54Z</time></trkpt><trkpt lat="43.7879913970814" lon="11.638281650598548"><ele>955.0</ele><time>2026-05-04T16:10:55Z</time></trkpt><trkpt lat="43.787986280484766" lon="11.63806201803959"><ele>956.3333333333333</ele><time>2026-05-04T16:10:56Z</time></trkpt><trkpt lat="43.7879744555512" lon="11.63785105804011"><ele>957.6666666666667</ele><time>2026-05-04T16:10:57Z</time></trkpt><trkpt lat="43.78796244101159" lon="11.63763895502321"><ele>959.0</ele><time>2026-05-04T16:10:58Z</time></trkpt><trkpt lat="43.787956863579836" lon="11.63742422317995"><ele>961.3333333333334</ele><time>2026-05-04T16:10:59Z</time></trkpt><trkpt lat="43.78795740277159" lon="11.637216785394719"><ele>963.6666666666667</ele><time>2026-05-04T16:11:00Z</time></trkpt><trkpt lat="43.787967472397675" lon="11.637009827065016"><ele>966.0</ele><time>2026-05-04T16:11:01Z</time></trkpt><trkpt lat="43.787981134156205" lon="11.636793840368425"><ele>967.6666666666667</ele><time>2026-05-04T16:11:02Z</time></trkpt><trkpt lat="43.787986915610965" lon="11.636582401997892"><ele>969.3333333333334</ele><time>2026-05-04T16:11:03Z</time></trkpt><trkpt lat="43.787980637833115" lon="11.636369834251914"><ele>971.0</ele><time>2026-05-04T16:11:04Z</time></trkpt><trkpt lat="43.78796238762412" lon="11.636164746214837"><ele>970.5</ele><time>2026-05-04T16:11:05Z</time></trkpt><trkpt lat="43.78792508271121" lon="11.635971007176575"><ele>970.0</ele><time>2026-05-04T16:11:06Z</time></trkpt><trkpt lat="43.787899330702544" lon="11.635778381729029"><ele>969.5</ele><time>2026-05-04T16:11:07Z</time></trkpt><trkpt lat="43.787885443412634" lon="11.635586844601319"><ele>969.0</ele><time>2026-05-04T16:11:08Z</time></trkpt><trkpt lat="43.78790678259856" lon="11.635373535989018"><ele>967.25</ele><time>2026-05-04T16:11:09Z</time></trkpt><trkpt lat="43.78794740060091" lon="11.635179651626308"><ele>965.5</ele><time>2026-05-04T16:11:10Z</time></trkpt><trkpt lat="43.78800104171427" lon="11.634985367775817"><ele>963.75</ele><time>2026-05-04T16:11:11Z</time></trkpt><trkpt lat="43.788074680428835" lon="11.634818488504214"><ele>962.0</ele><time>2026-05-04T16:11:12Z</time></trkpt><trkpt lat="43.78816481627076" lon="11.634675345024135"><ele>962.0</ele><time>2026-05-04T16:11:13Z</time></trkpt><trkpt lat="43.78826747873565" lon="11.634539518675957"><ele>962.0</ele><time>2026-05-04T16:11:14Z</time></trkpt><trkpt lat="43.788354657940815" lon="11.634398720788774"><ele>962.0</ele><time>2026-05-04T16:11:15Z</time></trkpt><trkpt lat="43.78842321401585" lon="11.63422852152477"><ele>962.0</ele><time>2026-05-04T16:11:16Z</time></trkpt><trkpt lat="43.7884661228003" lon="11.634037396953538"><ele>959.6666666666667</ele><time>2026-05-04T16:11:17Z</time></trkpt><trkpt lat="43.78847835583303" lon="11.63382687654162"><ele>957.3333333333333</ele><time>2026-05-04T16:11:18Z</time></trkpt><trkpt lat="43.788464262383606" lon="11.63361041861858"><ele>955.0</ele><time>2026-05-04T16:11:19Z</time></trkpt><trkpt lat="43.78843641341525" lon="11.633394793994514"><ele>954.6666666666666</ele><time>2026-05-04T16:11:20Z</time></trkpt><trkpt lat="43.7884051864497" lon="11.633178469002651"><ele>954.3333333333333</ele><time>2026-05-04T16:11:21Z</time></trkpt><trkpt lat="43.78838047466614" lon="11.632957947821508"><ele>954.0</ele><time>2026-05-04T16:11:22Z</time></trkpt><trkpt lat="43.788361917885595" lon="11.632742332869844"><ele>956.3333333333333</ele><time>2026-05-04T16:11:23Z</time></trkpt><trkpt lat="43.78834716794148" lon="11.632530278371107"><ele>958.6666666666666</ele><time>2026-05-04T16:11:24Z</time></trkpt><trkpt lat="43.788325889161875" lon="11.632323897194917"><ele>961.0</ele><time>2026-05-04T16:11:25Z</time></trkpt><trkpt lat="43.788300426313484" lon="11.632124510920686"><ele>961.75</ele><time>2026-05-04T16:11:26Z</time></trkpt><trkpt lat="43.78826798133233" lon="11.631939296385658"><ele>962.5</ele><time>2026-05-04T16:11:27Z</time></trkpt><trkpt lat="43.78822551863707" lon="11.63176673460817"><ele>963.25</ele><time>2026-05-04T16:11:28Z</time></trkpt><trkpt lat="43.78816898026507" lon="11.631611158430573"><ele>964.0</ele><time>2026-05-04T16:11:29Z</time></trkpt><trkpt lat="43.78808879370144" lon="11.631485141394204"><ele>964.0</ele><time>2026-05-04T16:11:30Z</time></trkpt><trkpt lat="43.78798707034455" lon="11.631387630387028"><ele>964.0</ele><time>2026-05-04T16:11:31Z</time></trkpt><trkpt lat="43.78786788696718" lon="11.631316738094455"><ele>964.0</ele><time>2026-05-04T16:11:32Z</time></trkpt><trkpt lat="43.78774321706529" lon="11.63125476857043"><ele>964.0</ele><time>2026-05-04T16:11:33Z</time></trkpt><trkpt lat="43.78762669679842" lon="11.631163015457117"><ele>966.25</ele><time>2026-05-04T16:11:34Z</time></trkpt><trkpt lat="43.78751493763844" lon="11.631052327779539"><ele>968.5</ele><time>2026-05-04T16:11:35Z</time></trkpt><trkpt lat="43.78741075916415" lon="11.630954873748266"><ele>970.75</ele><time>2026-05-04T16:11:36Z</time></trkpt><trkpt lat="43.78732642358608" lon="11.630844565936599"><ele>973.0</ele><time>2026-05-04T16:11:37Z</time></trkpt><trkpt lat="43.78728130663686" lon="11.630717762557605"><ele>973.0</ele><time>2026-05-04T16:11:38Z</time></trkpt><trkpt lat="43.78725475431686" lon="11.630580539223294"><ele>973.0</ele><time>2026-05-04T16:11:39Z</time></trkpt><trkpt lat="43.78726076464948" lon="11.630435433462226"><ele>973.0</ele><time>2026-05-04T16:11:40Z</time></trkpt><trkpt lat="43.7872886739811" lon="11.630281381406117"><ele>973.0</ele><time>2026-05-04T16:11:41Z</time></trkpt><trkpt lat="43.78733295458874" lon="11.630130178463869"><ele>973.0</ele><time>2026-05-04T16:11:42Z</time></trkpt><trkpt lat="43.787398764547554" lon="11.629991395544433"><ele>973.75</ele><time>2026-05-04T16:11:43Z</time></trkpt><trkpt lat="43.78748773170091" lon="11.62984926937151"><ele>974.5</ele><time>2026-05-04T16:11:44Z</time></trkpt><trkpt lat="43.78758801852365" lon="11.629729063497978"><ele>975.25</ele><time>2026-05-04T16:11:45Z</time></trkpt><trkpt lat="43.787682684615746" lon="11.62961676990766"><ele>976.0</ele><time>2026-05-04T16:11:46Z</time></trkpt><trkpt lat="43.787753443783934" lon="11.629507832027356"><ele>978.5999999999999</ele><time>2026-05-04T16:11:47Z</time></trkpt><trkpt lat="43.78781624809267" lon="11.629398402940522"><ele>981.1999999999999</ele><time>2026-05-04T16:11:48Z</time></trkpt><trkpt lat="43.78785015611366" lon="11.629269520076193"><ele>983.8000000000001</ele><time>2026-05-04T16:11:49Z</time></trkpt><trkpt lat="43.78784889493196" lon="11.629137687491117"><ele>986.4000000000001</ele><time>2026-05-04T16:11:50Z</time></trkpt><trkpt lat="43.787805390421966" lon="11.628992904566239"><ele>989.0</ele><time>2026-05-04T16:11:51Z</time></trkpt><trkpt lat="43.78772846287738" lon="11.628877394969066"><ele>987.0</ele><time>2026-05-04T16:11:52Z</time></trkpt><trkpt lat="43.78762950523372" lon="11.628781499898501"><ele>985.0000000000001</ele><time>2026-05-04T16:11:53Z</time></trkpt><trkpt lat="43.78752943670901" lon="11.628690735674477"><ele>983.0000000000001</ele><time>2026-05-04T16:11:54Z</time></trkpt><trkpt lat="43.787450786536674" lon="11.628599610403816"><ele>981.0</ele><time>2026-05-04T16:11:55Z</time></trkpt><trkpt lat="43.78741440864552" lon="11.628496675710439"><ele>979.0</ele><time>2026-05-04T16:11:56Z</time></trkpt><trkpt lat="43.78741948153815" lon="11.628382220797379"><ele>979.0</ele><time>2026-05-04T16:11:57Z</time></trkpt><trkpt lat="43.787456725433586" lon="11.628260957648932"><ele>979.0</ele><time>2026-05-04T16:11:58Z</time></trkpt><trkpt lat="43.78755226168984" lon="11.628171270219196"><ele>979.0</ele><time>2026-05-04T16:11:59Z</time></trkpt><trkpt lat="43.787637575163785" lon="11.628067814543567"><ele>979.0</ele><time>2026-05-04T16:12:00Z</time></trkpt><trkpt lat="43.78777665083398" lon="11.628023325739049"><ele>979.8000000000001</ele><time>2026-05-04T16:12:01Z</time></trkpt><trkpt lat="43.78788961329526" lon="11.62799661399685"><ele>980.6000000000001</ele><time>2026-05-04T16:12:02Z</time></trkpt><trkpt lat="43.787993395684936" lon="11.627961744053964"><ele>981.4</ele><time>2026-05-04T16:12:03Z</time></trkpt><trkpt lat="43.78806931621151" lon="11.627889527401704"><ele>982.2</ele><time>2026-05-04T16:12:04Z</time></trkpt><trkpt lat="43.78811582704295" lon="11.627772901716035"><ele>983.0</ele><time>2026-05-04T16:12:05Z</time></trkpt><trkpt lat="43.78812064088767" lon="11.627637269130975"><ele>983.0</ele><time>2026-05-04T16:12:06Z</time></trkpt><trkpt lat="43.78808267902647" lon="11.627498314833703"><ele>983.0</ele><time>2026-05-04T16:12:07Z</time></trkpt><trkpt lat="43.78800667553584" lon="11.627372233986822"><ele>983.0</ele><time>2026-05-04T16:12:08Z</time></trkpt><trkpt lat="43.787918906973125" lon="11.627259139974818"><ele>983.0</ele><time>2026-05-04T16:12:09Z</time></trkpt><trkpt lat="43.787836067175014" lon="11.627127507714587"><ele>982.5</ele><time>2026-05-04T16:12:10Z</time></trkpt><trkpt lat="43.787761489459136" lon="11.626964645209032"><ele>982.0</ele><time>2026-05-04T16:12:11Z</time></trkpt><trkpt lat="43.78769446191022" lon="11.626794492567582"><ele>981.5</ele><time>2026-05-04T16:12:12Z</time></trkpt><trkpt lat="43.787614997272605" lon="11.626646913337014"><ele>981.0</ele><time>2026-05-04T16:12:13Z</time></trkpt><trkpt lat="43.7875176591334" lon="11.626510074428586"><ele>976.5</ele><time>2026-05-04T16:12:14Z</time></trkpt><trkpt lat="43.78740964778859" lon="11.62638288101685"><ele>972.0</ele><time>2026-05-04T16:12:15Z</time></trkpt><trkpt lat="43.78731179025653" lon="11.62625199519522"><ele>967.5</ele><time>2026-05-04T16:12:16Z</time></trkpt><trkpt lat="43.787225981357636" lon="11.626111445135647"><ele>963.0</ele><time>2026-05-04T16:12:17Z</time></trkpt><trkpt lat="43.787150956368194" lon="11.625971820983688"><ele>962.75</ele><time>2026-05-04T16:12:18Z</time></trkpt><trkpt lat="43.787089428021176" lon="11.625823449594272"><ele>962.5</ele><time>2026-05-04T16:12:19Z</time></trkpt><trkpt lat="43.787045821057774" lon="11.625660676353588"><ele>962.25</ele><time>2026-05-04T16:12:20Z</time></trkpt><trkpt lat="43.78701643195899" lon="11.625495015253883"><ele>962.0</ele><time>2026-05-04T16:12:21Z</time></trkpt><trkpt lat="43.787000754732496" lon="11.625338248101565"><ele>959.8</ele><time>2026-05-04T16:12:22Z</time></trkpt><trkpt lat="43.78700503102301" lon="11.625190911573792"><ele>957.6</ele><time>2026-05-04T16:12:23Z</time></trkpt><trkpt lat="43.78704037486044" lon="11.625055432894577"><ele>955.3999999999999</ele><time>2026-05-04T16:12:24Z</time></trkpt><trkpt lat="43.787107018572755" lon="11.624925142940732"><ele>953.1999999999999</ele><time>2026-05-04T16:12:25Z</time></trkpt><trkpt lat="43.787183973069126" lon="11.624798730837615"><ele>951.0</ele><time>2026-05-04T16:12:26Z</time></trkpt><trkpt lat="43.78726275265079" lon="11.624677730278847"><ele>951.0</ele><time>2026-05-04T16:12:27Z</time></trkpt><trkpt lat="43.78735372898182" lon="11.624575559906233"><ele>951.0</ele><time>2026-05-04T16:12:28Z</time></trkpt><trkpt lat="43.78746847488632" lon="11.624508146953685"><ele>951.0</ele><time>2026-05-04T16:12:29Z</time></trkpt><trkpt lat="43.787601524362486" lon="11.62445113127351"><ele>951.0</ele><time>2026-05-04T16:12:30Z</time></trkpt><trkpt lat="43.7877382974565" lon="11.624401949332217"><ele>948.75</ele><time>2026-05-04T16:12:31Z</time></trkpt><trkpt lat="43.78786679305579" lon="11.624345375059825"><ele>946.5</ele><time>2026-05-04T16:12:32Z</time></trkpt><trkpt lat="43.787994217443" lon="11.624277210931156"><ele>944.25</ele><time>2026-05-04T16:12:33Z</time></trkpt><trkpt lat="43.788110692980375" lon="11.62421470784862"><ele>942.0</ele><time>2026-05-04T16:12:34Z</time></trkpt><trkpt lat="43.788211731225914" lon="11.624157678466135"><ele>942.0</ele><time>2026-05-04T16:12:35Z</time></trkpt><trkpt lat="43.788299580565315" lon="11.62408843891175"><ele>942.0</ele><time>2026-05-04T16:12:36Z</time></trkpt><trkpt lat="43.78838151637457" lon="11.624016226686367"><ele>942.0</ele><time>2026-05-04T16:12:37Z</time></trkpt><trkpt lat="43.78841540129049" lon="11.62385874907748"><ele>942.0</ele><time>2026-05-04T16:12:38Z</time></trkpt><trkpt lat="43.788431012663054" lon="11.623702057101543"><ele>942.0</ele><time>2026-05-04T16:12:39Z</time></trkpt><trkpt lat="43.78841469084968" lon="11.62353566382899"><ele>938.75</ele><time>2026-05-04T16:12:40Z</time></trkpt><trkpt lat="43.78837417561385" lon="11.623364952326652"><ele>935.5</ele><time>2026-05-04T16:12:41Z</time></trkpt><trkpt lat="43.78832036551537" lon="11.623196990334385"><ele>932.25</ele><time>2026-05-04T16:12:42Z</time></trkpt><trkpt lat="43.78826766761374" lon="11.623013068190536"><ele>929.0</ele><time>2026-05-04T16:12:43Z</time></trkpt><trkpt lat="43.78820605131363" lon="11.622833612972121"><ele>929.0</ele><time>2026-05-04T16:12:44Z</time></trkpt><trkpt lat="43.788144389224556" lon="11.62265011347444"><ele>929.0</ele><time>2026-05-04T16:12:45Z</time></trkpt><trkpt lat="43.78806529237942" lon="11.622467224267169"><ele>929.0</ele><time>2026-05-04T16:12:46Z</time></trkpt><trkpt lat="43.787970745512" lon="11.62229583488031"><ele>929.0</ele><time>2026-05-04T16:12:47Z</time></trkpt><trkpt lat="43.78786024616106" lon="11.622132210312175"><ele>929.0</ele><time>2026-05-04T16:12:48Z</time></trkpt><trkpt lat="43.787749274013336" lon="11.621975123616348"><ele>929.0</ele><time>2026-05-04T16:12:49Z</time></trkpt><trkpt lat="43.78764207177974" lon="11.621821694365812"><ele>930.75</ele><time>2026-05-04T16:12:50Z</time></trkpt><trkpt lat="43.78753450371518" lon="11.621671117233104"><ele>932.5</ele><time>2026-05-04T16:12:51Z</time></trkpt><trkpt lat="43.787428217505955" lon="11.621526299921628"><ele>934.25</ele><time>2026-05-04T16:12:52Z</time></trkpt><trkpt lat="43.78732859748242" lon="11.621381197464816"><ele>936.0</ele><time>2026-05-04T16:12:53Z</time></trkpt><trkpt lat="43.78722820699508" lon="11.621235868570476"><ele>938.0</ele><time>2026-05-04T16:12:54Z</time></trkpt><trkpt lat="43.787121488243336" lon="11.621090112605714"><ele>940.0</ele><time>2026-05-04T16:12:55Z</time></trkpt><trkpt lat="43.78701440854976" lon="11.620943178262413"><ele>942.0</ele><time>2026-05-04T16:12:56Z</time></trkpt><trkpt lat="43.78691062646389" lon="11.620791947091547"><ele>940.6666666666667</ele><time>2026-05-04T16:12:57Z</time></trkpt><trkpt lat="43.786806109713645" lon="11.620641472021877"><ele>939.3333333333334</ele><time>2026-05-04T16:12:58Z</time></trkpt><trkpt lat="43.78669862643266" lon="11.620490044570822"><ele>938.0</ele><time>2026-05-04T16:12:59Z</time></trkpt><trkpt lat="43.78658341964946" lon="11.620344950338065"><ele>940.6666666666667</ele><time>2026-05-04T16:13:00Z</time></trkpt><trkpt lat="43.78646933669214" lon="11.620214184510935"><ele>943.3333333333333</ele><time>2026-05-04T16:13:01Z</time></trkpt><trkpt lat="43.78634669513266" lon="11.620090100846037"><ele>946.0</ele><time>2026-05-04T16:13:02Z</time></trkpt><trkpt lat="43.78620738589366" lon="11.619980719295643"><ele>946.0</ele><time>2026-05-04T16:13:03Z</time></trkpt><trkpt lat="43.786068218805454" lon="11.61988346799799"><ele>946.0</ele><time>2026-05-04T16:13:04Z</time></trkpt><trkpt lat="43.785929211689556" lon="11.619784971954624"><ele>946.0</ele><time>2026-05-04T16:13:05Z</time></trkpt><trkpt lat="43.78580380124196" lon="11.619689263695921"><ele>946.25</ele><time>2026-05-04T16:13:06Z</time></trkpt><trkpt lat="43.78568104686184" lon="11.619598298374955"><ele>946.5</ele><time>2026-05-04T16:13:07Z</time></trkpt><trkpt lat="43.78556037862273" lon="11.61952408912417"><ele>946.75</ele><time>2026-05-04T16:13:08Z</time></trkpt><trkpt lat="43.78543858827494" lon="11.61948516311849"><ele>947.0</ele><time>2026-05-04T16:13:09Z</time></trkpt><trkpt lat="43.78531216432233" lon="11.619487546272735"><ele>947.0</ele><time>2026-05-04T16:13:10Z</time></trkpt><trkpt lat="43.78519605758593" lon="11.619538745518257"><ele>947.0</ele><time>2026-05-04T16:13:11Z</time></trkpt><trkpt lat="43.78508702856872" lon="11.619613947249418"><ele>947.0</ele><time>2026-05-04T16:13:12Z</time></trkpt><trkpt lat="43.784980237007524" lon="11.619668985194496"><ele>947.0</ele><time>2026-05-04T16:13:13Z</time></trkpt><trkpt lat="43.784858150599526" lon="11.6196809709238"><ele>948.0</ele><time>2026-05-04T16:13:14Z</time></trkpt><trkpt lat="43.784735599351066" lon="11.61964234125895"><ele>949.0</ele><time>2026-05-04T16:13:15Z</time></trkpt><trkpt lat="43.78461909956771" lon="11.619576162644488"><ele>950.0</ele><time>2026-05-04T16:13:16Z</time></trkpt><trkpt lat="43.78450868651119" lon="11.61948594048821"><ele>951.0</ele><time>2026-05-04T16:13:17Z</time></trkpt><trkpt lat="43.78440668907061" lon="11.619378191473972"><ele>953.25</ele><time>2026-05-04T16:13:18Z</time></trkpt><trkpt lat="43.78432948688165" lon="11.619246369720983"><ele>955.5</ele><time>2026-05-04T16:13:19Z</time></trkpt><trkpt lat="43.784286570302314" lon="11.619088331817292"><ele>957.75</ele><time>2026-05-04T16:13:20Z</time></trkpt><trkpt lat="43.7842773412028" lon="11.618919988468587"><ele>960.0</ele><time>2026-05-04T16:13:21Z</time></trkpt><trkpt lat="43.78428564572334" lon="11.618751373350287"><ele>962.25</ele><time>2026-05-04T16:13:22Z</time></trkpt><trkpt lat="43.78431338198737" lon="11.618580570676452"><ele>964.5</ele><time>2026-05-04T16:13:23Z</time></trkpt><trkpt lat="43.78433506993192" lon="11.618401113461928"><ele>966.75</ele><time>2026-05-04T16:13:24Z</time></trkpt><trkpt lat="43.78434255458274" lon="11.618210133251138"><ele>969.0</ele><time>2026-05-04T16:13:25Z</time></trkpt><trkpt lat="43.78434319945439" lon="11.61801493919946"><ele>970.5</ele><time>2026-05-04T16:13:26Z</time></trkpt><trkpt lat="43.784346681899464" lon="11.617815902617474"><ele>972.0</ele><time>2026-05-04T16:13:27Z</time></trkpt><trkpt lat="43.7843506776328" lon="11.617613586904461"><ele>973.5</ele><time>2026-05-04T16:13:28Z</time></trkpt><trkpt lat="43.78434983522366" lon="11.617410358445689"><ele>975.0</ele><time>2026-05-04T16:13:29Z</time></trkpt><trkpt lat="43.784340839836624" lon="11.617203820152637"><ele>975.0</ele><time>2026-05-04T16:13:30Z</time></trkpt><trkpt lat="43.7843201957892" lon="11.61700023486311"><ele>975.0</ele><time>2026-05-04T16:13:31Z</time></trkpt><trkpt lat="43.78430491809026" lon="11.616799002416817"><ele>975.0</ele><time>2026-05-04T16:13:32Z</time></trkpt><trkpt lat="43.784305746697754" lon="11.616594873990167"><ele>975.0</ele><time>2026-05-04T16:13:33Z</time></trkpt><trkpt lat="43.7843264676269" lon="11.616400331867327"><ele>979.25</ele><time>2026-05-04T16:13:34Z</time></trkpt><trkpt lat="43.784368803173955" lon="11.616218553949642"><ele>983.5</ele><time>2026-05-04T16:13:35Z</time></trkpt><trkpt lat="43.784427743702885" lon="11.616062885005311"><ele>987.75</ele><time>2026-05-04T16:13:36Z</time></trkpt><trkpt lat="43.784509232612926" lon="11.615929723062276"><ele>992.0</ele><time>2026-05-04T16:13:37Z</time></trkpt><trkpt lat="43.78460673846835" lon="11.61582198880746"><ele>992.0</ele><time>2026-05-04T16:13:38Z</time></trkpt><trkpt lat="43.78470207644513" lon="11.615708161041825"><ele>992.0</ele><time>2026-05-04T16:13:39Z</time></trkpt><trkpt lat="43.784786819154505" lon="11.615580205988643"><ele>992.0</ele><time>2026-05-04T16:13:40Z</time></trkpt><trkpt lat="43.7848546577286" lon="11.615434795897055"><ele>992.0</ele><time>2026-05-04T16:13:41Z</time></trkpt><trkpt lat="43.78490797814893" lon="11.615275189577162"><ele>992.0</ele><time>2026-05-04T16:13:42Z</time></trkpt><trkpt lat="43.784953071850474" lon="11.615102647158073"><ele>992.0</ele><time>2026-05-04T16:13:43Z</time></trkpt><trkpt lat="43.78499310059368" lon="11.61492317497616"><ele>992.0</ele><time>2026-05-04T16:13:44Z</time></trkpt><trkpt lat="43.785025568822306" lon="11.614733259677"><ele>992.0</ele><time>2026-05-04T16:13:45Z</time></trkpt><trkpt lat="43.78505352806078" lon="11.614538618081365"><ele>992.75</ele><time>2026-05-04T16:13:46Z</time></trkpt><trkpt lat="43.785078596224004" lon="11.614340292644975"><ele>993.5</ele><time>2026-05-04T16:13:47Z</time></trkpt><trkpt lat="43.78510439338488" lon="11.614151015387872"><ele>994.25</ele><time>2026-05-04T16:13:48Z</time></trkpt><trkpt lat="43.78513258923991" lon="11.613972087889792"><ele>995.0</ele><time>2026-05-04T16:13:49Z</time></trkpt><trkpt lat="43.78516566357196" lon="11.613818945874298"><ele>995.4</ele><time>2026-05-04T16:13:50Z</time></trkpt><trkpt lat="43.78520136824925" lon="11.613687915154898"><ele>995.8</ele><time>2026-05-04T16:13:51Z</time></trkpt><trkpt lat="43.78526753084549" lon="11.613575445516267"><ele>996.2</ele><time>2026-05-04T16:13:52Z</time></trkpt><trkpt lat="43.78535773048368" lon="11.61348299862858"><ele>996.6</ele><time>2026-05-04T16:13:53Z</time></trkpt><trkpt lat="43.78546519787919" lon="11.61342158483739"><ele>997.0</ele><time>2026-05-04T16:13:54Z</time></trkpt><trkpt lat="43.7855887396797" lon="11.613375287477027"><ele>996.4000000000001</ele><time>2026-05-04T16:13:55Z</time></trkpt><trkpt lat="43.78570820022836" lon="11.613346993615641"><ele>995.8000000000001</ele><time>2026-05-04T16:13:56Z</time></trkpt><trkpt lat="43.785825682961715" lon="11.613307666771508"><ele>995.2</ele><time>2026-05-04T16:13:57Z</time></trkpt><trkpt lat="43.78591771802729" lon="11.61327113569341"><ele>994.6</ele><time>2026-05-04T16:13:58Z</time></trkpt><trkpt lat="43.785994096520824" lon="11.613206964734557"><ele>994.0</ele><time>2026-05-04T16:13:59Z</time></trkpt><trkpt lat="43.78604693731124" lon="11.61310175465979"><ele>994.0</ele><time>2026-05-04T16:14:00Z</time></trkpt><trkpt lat="43.78607764049759" lon="11.612959284452394"><ele>994.0</ele><time>2026-05-04T16:14:01Z</time></trkpt><trkpt lat="43.78607352374865" lon="11.612803345848853"><ele>994.0</ele><time>2026-05-04T16:14:02Z</time></trkpt><trkpt lat="43.786044318273255" lon="11.612649432790516"><ele>994.0</ele><time>2026-05-04T16:14:03Z</time></trkpt><trkpt lat="43.78599932779577" lon="11.612484988443127"><ele>1000.75</ele><time>2026-05-04T16:14:04Z</time></trkpt><trkpt lat="43.785954898796454" lon="11.61231381359784"><ele>1007.5</ele><time>2026-05-04T16:14:05Z</time></trkpt><trkpt lat="43.78593496262169" lon="11.612126487352297"><ele>1014.25</ele><time>2026-05-04T16:14:06Z</time></trkpt><trkpt lat="43.78593536134525" lon="11.611939592378768"><ele>1021.0</ele><time>2026-05-04T16:14:07Z</time></trkpt><trkpt lat="43.78593678240872" lon="11.611757064018608"><ele>1021.25</ele><time>2026-05-04T16:14:08Z</time></trkpt><trkpt lat="43.785912511683954" lon="11.611579735249853"><ele>1021.5</ele><time>2026-05-04T16:14:09Z</time></trkpt><trkpt lat="43.78585228294888" lon="11.611421409521272"><ele>1021.75</ele><time>2026-05-04T16:14:10Z</time></trkpt><trkpt lat="43.7857656908152" lon="11.61126950132846"><ele>1022.0</ele><time>2026-05-04T16:14:11Z</time></trkpt><trkpt lat="43.785682278820715" lon="11.611116725391694"><ele>1022.0</ele><time>2026-05-04T16:14:12Z</time></trkpt><trkpt lat="43.78560175497684" lon="11.610955679452827"><ele>1022.0</ele><time>2026-05-04T16:14:13Z</time></trkpt><trkpt lat="43.7855232171786" lon="11.610786746351213"><ele>1022.0</ele><time>2026-05-04T16:14:14Z</time></trkpt><trkpt lat="43.78545156088357" lon="11.61062029624853"><ele>1022.0</ele><time>2026-05-04T16:14:15Z</time></trkpt><trkpt lat="43.78539584493438" lon="11.610436886698897"><ele>1022.25</ele><time>2026-05-04T16:14:16Z</time></trkpt><trkpt lat="43.78535542218201" lon="11.61024479264525"><ele>1022.5</ele><time>2026-05-04T16:14:17Z</time></trkpt><trkpt lat="43.785322940771486" lon="11.61003829152484"><ele>1022.75</ele><time>2026-05-04T16:14:18Z</time></trkpt><trkpt lat="43.78529030983424" lon="11.60983887811297"><ele>1023.0</ele><time>2026-05-04T16:14:19Z</time></trkpt><trkpt lat="43.785257992875586" lon="11.60963077102332"><ele>1022.6666666666667</ele><time>2026-05-04T16:14:20Z</time></trkpt><trkpt lat="43.785224212890384" lon="11.609429843819251"><ele>1022.3333333333334</ele><time>2026-05-04T16:14:21Z</time></trkpt><trkpt lat="43.78519118135809" lon="11.609221284227115"><ele>1022.0</ele><time>2026-05-04T16:14:22Z</time></trkpt><trkpt lat="43.785155026145155" lon="11.609007236979984"><ele>1025.6666666666667</ele><time>2026-05-04T16:14:23Z</time></trkpt><trkpt lat="43.785119984538845" lon="11.608802095365219"><ele>1029.3333333333333</ele><time>2026-05-04T16:14:24Z</time></trkpt><trkpt lat="43.78508571638775" lon="11.60859948798806"><ele>1033.0</ele><time>2026-05-04T16:14:25Z</time></trkpt><trkpt lat="43.785048856672105" lon="11.608396977259247"><ele>1033.0</ele><time>2026-05-04T16:14:26Z</time></trkpt><trkpt lat="43.78501650533208" lon="11.60819439787986"><ele>1033.0</ele><time>2026-05-04T16:14:27Z</time></trkpt><trkpt lat="43.78498149846984" lon="11.607989254224053"><ele>1033.0</ele><time>2026-05-04T16:14:28Z</time></trkpt><trkpt lat="43.78494573274389" lon="11.607790754550528"><ele>1033.75</ele><time>2026-05-04T16:14:29Z</time></trkpt><trkpt lat="43.78491304769376" lon="11.60759170196785"><ele>1034.5</ele><time>2026-05-04T16:14:30Z</time></trkpt><trkpt lat="43.78488053928546" lon="11.607384798881036"><ele>1035.25</ele><time>2026-05-04T16:14:31Z</time></trkpt><trkpt lat="43.78485065120338" lon="11.60719064013669"><ele>1036.0</ele><time>2026-05-04T16:14:32Z</time></trkpt><trkpt lat="43.784827029893556" lon="11.607003191135085"><ele>1037.5</ele><time>2026-05-04T16:14:33Z</time></trkpt><trkpt lat="43.78480859938274" lon="11.606811950959287"><ele>1039.0</ele><time>2026-05-04T16:14:34Z</time></trkpt><trkpt lat="43.78481321263574" lon="11.606624032842824"><ele>1040.5</ele><time>2026-05-04T16:14:35Z</time></trkpt><trkpt lat="43.784835599187055" lon="11.606443997778943"><ele>1042.0</ele><time>2026-05-04T16:14:36Z</time></trkpt><trkpt lat="43.7848821518506" lon="11.606267361828904"><ele>1042.0</ele><time>2026-05-04T16:14:37Z</time></trkpt><trkpt lat="43.78494606288066" lon="11.606095990892296"><ele>1042.0</ele><time>2026-05-04T16:14:38Z</time></trkpt><trkpt lat="43.785022218383894" lon="11.605922850037553"><ele>1042.0</ele><time>2026-05-04T16:14:39Z</time></trkpt><trkpt lat="43.78510843234645" lon="11.605753998585486"><ele>1042.0</ele><time>2026-05-04T16:14:40Z</time></trkpt><trkpt lat="43.78518343080717" lon="11.605596404772209"><ele>1044.5</ele><time>2026-05-04T16:14:41Z</time></trkpt><trkpt lat="43.78525956907385" lon="11.605432019834046"><ele>1047.0</ele><time>2026-05-04T16:14:42Z</time></trkpt><trkpt lat="43.78532919771384" lon="11.605273606260372"><ele>1049.5</ele><time>2026-05-04T16:14:43Z</time></trkpt><trkpt lat="43.785396505191414" lon="11.605116035057852"><ele>1052.0</ele><time>2026-05-04T16:14:44Z</time></trkpt><trkpt lat="43.785461286520494" lon="11.604974181708323"><ele>1052.6</ele><time>2026-05-04T16:14:45Z</time></trkpt><trkpt lat="43.78551632093222" lon="11.604837718231169"><ele>1053.2</ele><time>2026-05-04T16:14:46Z</time></trkpt><trkpt lat="43.78556572974214" lon="11.604701121861964"><ele>1053.8</ele><time>2026-05-04T16:14:47Z</time></trkpt><trkpt lat="43.78559023728365" lon="11.604556350323987"><ele>1054.4</ele><time>2026-05-04T16:14:48Z</time></trkpt><trkpt lat="43.785572609464616" lon="11.60441121467933"><ele>1055.0</ele><time>2026-05-04T16:14:49Z</time></trkpt><trkpt lat="43.785509717361464" lon="11.604297425745557"><ele>1055.0</ele><time>2026-05-04T16:14:50Z</time></trkpt><trkpt lat="43.78542229973104" lon="11.604194753264547"><ele>1055.0</ele><time>2026-05-04T16:14:51Z</time></trkpt><trkpt lat="43.785310809348296" lon="11.604124489522492"><ele>1055.0</ele><time>2026-05-04T16:14:52Z</time></trkpt><trkpt lat="43.785185630369554" lon="11.604076289499464"><ele>1055.0</ele><time>2026-05-04T16:14:53Z</time></trkpt><trkpt lat="43.78506964486178" lon="11.604041081368017"><ele>1055.0</ele><time>2026-05-04T16:14:54Z</time></trkpt><trkpt lat="43.78495923707675" lon="11.60401252487817"><ele>1055.0</ele><time>2026-05-04T16:14:55Z</time></trkpt><trkpt lat="43.78484888272721" lon="11.603997475827047"><ele>1055.0</ele><time>2026-05-04T16:14:56Z</time></trkpt><trkpt lat="43.78473588441018" lon="11.603985281051012"><ele>1055.0</ele><time>2026-05-04T16:14:57Z</time></trkpt><trkpt lat="43.78462764777371" lon="11.603982312526488"><ele>1055.0</ele><time>2026-05-04T16:14:58Z</time></trkpt><trkpt lat="43.784532583948526" lon="11.603959573156958"><ele>1055.0</ele><time>2026-05-04T16:14:59Z</time></trkpt><trkpt lat="43.78444767684142" lon="11.603911113577622"><ele>1055.0</ele><time>2026-05-04T16:15:00Z</time></trkpt><trkpt lat="43.7843673465856" lon="11.603833422313874"><ele>1055.0</ele><time>2026-05-04T16:15:01Z</time></trkpt><trkpt lat="43.78429760502656" lon="11.60371902078487"><ele>1055.0</ele><time>2026-05-04T16:15:02Z</time></trkpt><trkpt lat="43.78423213455065" lon="11.603587985179326"><ele>1055.0</ele><time>2026-05-04T16:15:03Z</time></trkpt><trkpt lat="43.78416641273792" lon="11.603452143510058"><ele>1056.75</ele><time>2026-05-04T16:15:04Z</time></trkpt><trkpt lat="43.784095063801146" lon="11.603315063367402"><ele>1058.5</ele><time>2026-05-04T16:15:05Z</time></trkpt><trkpt lat="43.78402306989423" lon="11.603174393261568"><ele>1060.25</ele><time>2026-05-04T16:15:06Z</time></trkpt><trkpt lat="43.78394952463689" lon="11.603035964366258"><ele>1062.0</ele><time>2026-05-04T16:15:07Z</time></trkpt><trkpt lat="43.783876664097065" lon="11.602901780338067"><ele>1065.5</ele><time>2026-05-04T16:15:08Z</time></trkpt><trkpt lat="43.783804410849264" lon="11.602757889384295"><ele>1069.0</ele><time>2026-05-04T16:15:09Z</time></trkpt><trkpt lat="43.7837319964492" lon="11.602620923080998"><ele>1072.5</ele><time>2026-05-04T16:15:10Z</time></trkpt><trkpt lat="43.78366079016471" lon="11.602483759414163"><ele>1076.0</ele><time>2026-05-04T16:15:11Z</time></trkpt><trkpt lat="43.783595927412456" lon="11.60234931327107"><ele>1076.0</ele><time>2026-05-04T16:15:12Z</time></trkpt><trkpt lat="43.78352596804697" lon="11.602235655369972"><ele>1076.0</ele><time>2026-05-04T16:15:13Z</time></trkpt><trkpt lat="43.78344383344917" lon="11.60214014103403"><ele>1076.0</ele><time>2026-05-04T16:15:14Z</time></trkpt><trkpt lat="43.783353119456144" lon="11.602067431742174"><ele>1076.0</ele><time>2026-05-04T16:15:15Z</time></trkpt><trkpt lat="43.78326193833755" lon="11.602016831400828"><ele>1076.0</ele><time>2026-05-04T16:15:16Z</time></trkpt><trkpt lat="43.78317852870166" lon="11.601970995214703"><ele>1074.6666666666667</ele><time>2026-05-04T16:15:17Z</time></trkpt><trkpt lat="43.78310554241634" lon="11.601906829888964"><ele>1073.3333333333335</ele><time>2026-05-04T16:15:18Z</time></trkpt><trkpt lat="43.7830505553984" lon="11.601829658064842"><ele>1072.0</ele><time>2026-05-04T16:15:19Z</time></trkpt><trkpt lat="43.783003945260894" lon="11.601737025288507"><ele>1070.6666666666667</ele><time>2026-05-04T16:15:20Z</time></trkpt><trkpt lat="43.78296760191951" lon="11.601634525176122"><ele>1069.3333333333333</ele><time>2026-05-04T16:15:21Z</time></trkpt><trkpt lat="43.7829431445999" lon="11.601522668386329"><ele>1068.0</ele><time>2026-05-04T16:15:22Z</time></trkpt><trkpt lat="43.782927994688826" lon="11.601401461659828"><ele>1068.0</ele><time>2026-05-04T16:15:23Z</time></trkpt><trkpt lat="43.78292969572103" lon="11.601261746097807"><ele>1068.0</ele><time>2026-05-04T16:15:24Z</time></trkpt><trkpt lat="43.78295068427316" lon="11.6011088149157"><ele>1068.0</ele><time>2026-05-04T16:15:25Z</time></trkpt><trkpt lat="43.782976474186924" lon="11.600946936129981"><ele>1068.0</ele><time>2026-05-04T16:15:26Z</time></trkpt><trkpt lat="43.782989675641986" lon="11.600780631578253"><ele>1067.5</ele><time>2026-05-04T16:15:27Z</time></trkpt><trkpt lat="43.782998594690895" lon="11.600599122613737"><ele>1067.0</ele><time>2026-05-04T16:15:28Z</time></trkpt><trkpt lat="43.782992923419826" lon="11.60040931563256"><ele>1066.5</ele><time>2026-05-04T16:15:29Z</time></trkpt><trkpt lat="43.78298105105901" lon="11.600225790729624"><ele>1066.0</ele><time>2026-05-04T16:15:30Z</time></trkpt><trkpt lat="43.78296980377926" lon="11.600046973010276"><ele>1063.5</ele><time>2026-05-04T16:15:31Z</time></trkpt><trkpt lat="43.78296282202347" lon="11.599867632131929"><ele>1061.0</ele><time>2026-05-04T16:15:32Z</time></trkpt><trkpt lat="43.78295558840547" lon="11.599691393097865"><ele>1058.5</ele><time>2026-05-04T16:15:33Z</time></trkpt><trkpt lat="43.78294975196606" lon="11.59952606955309"><ele>1056.0</ele><time>2026-05-04T16:15:34Z</time></trkpt><trkpt lat="43.78294025130935" lon="11.599328822213888"><ele>1056.5</ele><time>2026-05-04T16:15:35Z</time></trkpt><trkpt lat="43.78292543106067" lon="11.599157612099022"><ele>1057.0</ele><time>2026-05-04T16:15:36Z</time></trkpt><trkpt lat="43.78287694681016" lon="11.598961543882908"><ele>1057.5</ele><time>2026-05-04T16:15:37Z</time></trkpt><trkpt lat="43.78285792953061" lon="11.598815078045531"><ele>1058.0</ele><time>2026-05-04T16:15:38Z</time></trkpt><trkpt lat="43.78280943395339" lon="11.598666796763622"><ele>1058.0</ele><time>2026-05-04T16:15:39Z</time></trkpt><trkpt lat="43.78275476621175" lon="11.598525561029962"><ele>1058.0</ele><time>2026-05-04T16:15:40Z</time></trkpt><trkpt lat="43.78269038701095" lon="11.598384950731244"><ele>1058.0</ele><time>2026-05-04T16:15:41Z</time></trkpt><trkpt lat="43.78263346468509" lon="11.598248246342271"><ele>1058.0</ele><time>2026-05-04T16:15:42Z</time></trkpt><trkpt lat="43.782560775001464" lon="11.598116098698776"><ele>1053.5</ele><time>2026-05-04T16:15:43Z</time></trkpt><trkpt lat="43.78247685078218" lon="11.598009592755561"><ele>1049.0</ele><time>2026-05-04T16:15:44Z</time></trkpt><trkpt lat="43.782378524999146" lon="11.597927036173607"><ele>1044.5</ele><time>2026-05-04T16:15:45Z</time></trkpt><trkpt lat="43.78228253465074" lon="11.597856374964747"><ele>1040.0</ele><time>2026-05-04T16:15:46Z</time></trkpt><trkpt lat="43.78217234791783" lon="11.597802154736272"><ele>1040.0</ele><time>2026-05-04T16:15:47Z</time></trkpt><trkpt lat="43.78206864471234" lon="11.597742361185727"><ele>1040.0</ele><time>2026-05-04T16:15:48Z</time></trkpt><trkpt lat="43.781973879910126" lon="11.597683251088936"><ele>1040.0</ele><time>2026-05-04T16:15:49Z</time></trkpt><trkpt lat="43.78187687316186" lon="11.597622684105954"><ele>1040.0</ele><time>2026-05-04T16:15:50Z</time></trkpt><trkpt lat="43.781778394458826" lon="11.597546359094295"><ele>1040.0</ele><time>2026-05-04T16:15:51Z</time></trkpt><trkpt lat="43.781677643620284" lon="11.597477419032733"><ele>1037.0</ele><time>2026-05-04T16:15:52Z</time></trkpt><trkpt lat="43.78158903589475" lon="11.597396468042728"><ele>1034.0</ele><time>2026-05-04T16:15:53Z</time></trkpt><trkpt lat="43.78150125581627" lon="11.59731849611228"><ele>1031.0</ele><time>2026-05-04T16:15:54Z</time></trkpt><trkpt lat="43.78142196139319" lon="11.59723975377792"><ele>1028.0</ele><time>2026-05-04T16:15:55Z</time></trkpt><trkpt lat="43.78134992316015" lon="11.597156415041594"><ele>1025.0</ele><time>2026-05-04T16:15:56Z</time></trkpt><trkpt lat="43.781286932318835" lon="11.597047263259967"><ele>1024.4</ele><time>2026-05-04T16:15:57Z</time></trkpt><trkpt lat="43.78124013439159" lon="11.596920097588557"><ele>1023.8</ele><time>2026-05-04T16:15:58Z</time></trkpt><trkpt lat="43.781192730860425" lon="11.596814180166653"><ele>1023.2</ele><time>2026-05-04T16:15:59Z</time></trkpt><trkpt lat="43.78115315022694" lon="11.59670463087361"><ele>1022.6</ele><time>2026-05-04T16:16:00Z</time></trkpt><trkpt lat="43.78109236071705" lon="11.596593909993812"><ele>1022.0</ele><time>2026-05-04T16:16:01Z</time></trkpt><trkpt lat="43.78103798868162" lon="11.596489879071246"><ele>1022.0000000000001</ele><time>2026-05-04T16:16:02Z</time></trkpt><trkpt lat="43.78097728520758" lon="11.596401542240784"><ele>1022.0</ele><time>2026-05-04T16:16:03Z</time></trkpt><trkpt lat="43.780900208311664" lon="11.596346060762858"><ele>1022.0</ele><time>2026-05-04T16:16:04Z</time></trkpt><trkpt lat="43.780834341590634" lon="11.59629450444826"><ele>1022.0</ele><time>2026-05-04T16:16:05Z</time></trkpt><trkpt lat="43.7807672998238" lon="11.596240894107327"><ele>1022.0000000000001</ele><time>2026-05-04T16:16:06Z</time></trkpt><trkpt lat="43.780714322918755" lon="11.596184341376318"><ele>1022.0</ele><time>2026-05-04T16:16:07Z</time></trkpt><trkpt lat="43.78061349650749" lon="11.596057926233803"><ele>1021.1666666666667</ele><time>2026-05-04T16:16:09Z</time></trkpt><trkpt lat="43.78054928108547" lon="11.595984681476756"><ele>1020.3333333333334</ele><time>2026-05-04T16:16:10Z</time></trkpt><trkpt lat="43.78048723520672" lon="11.59589903413309"><ele>1019.5</ele><time>2026-05-04T16:16:11Z</time></trkpt><trkpt lat="43.78041320434493" lon="11.59581288282918"><ele>1018.6666666666667</ele><time>2026-05-04T16:16:12Z</time></trkpt><trkpt lat="43.78033907508518" lon="11.595745726329168"><ele>1017.8333333333334</ele><time>2026-05-04T16:16:13Z</time></trkpt><trkpt lat="43.78026755881897" lon="11.595673273603735"><ele>1017.0</ele><time>2026-05-04T16:16:14Z</time></trkpt><trkpt lat="43.780185410477" lon="11.595593975620082"><ele>1017.2</ele><time>2026-05-04T16:16:15Z</time></trkpt><trkpt lat="43.780102512685716" lon="11.595516837368775"><ele>1017.4000000000001</ele><time>2026-05-04T16:16:16Z</time></trkpt><trkpt lat="43.780018525594706" lon="11.595421392150797"><ele>1017.5999999999999</ele><time>2026-05-04T16:16:17Z</time></trkpt><trkpt lat="43.77993249648943" lon="11.595328957439941"><ele>1017.8</ele><time>2026-05-04T16:16:18Z</time></trkpt><trkpt lat="43.779848942369185" lon="11.59522510247592"><ele>1018.0</ele><time>2026-05-04T16:16:19Z</time></trkpt><trkpt lat="43.7797896447081" lon="11.595110671829676"><ele>1018.0</ele><time>2026-05-04T16:16:20Z</time></trkpt><trkpt lat="43.77974804229306" lon="11.594982752455092"><ele>1018.0</ele><time>2026-05-04T16:16:21Z</time></trkpt><trkpt lat="43.77971076479978" lon="11.594836278719715"><ele>1018.0</ele><time>2026-05-04T16:16:22Z</time></trkpt><trkpt lat="43.77970208690823" lon="11.594686664445785"><ele>1018.0</ele><time>2026-05-04T16:16:23Z</time></trkpt><trkpt lat="43.77968678578139" lon="11.594544229075403"><ele>1018.0</ele><time>2026-05-04T16:16:24Z</time></trkpt><trkpt lat="43.77966030017374" lon="11.594406310498558"><ele>1017.5999999999999</ele><time>2026-05-04T16:16:25Z</time></trkpt><trkpt lat="43.77964644296056" lon="11.594250936781256"><ele>1017.1999999999999</ele><time>2026-05-04T16:16:26Z</time></trkpt><trkpt lat="43.77962912634534" lon="11.59410280228967"><ele>1016.8</ele><time>2026-05-04T16:16:27Z</time></trkpt><trkpt lat="43.77961641332276" lon="11.593958013542942"><ele>1016.4</ele><time>2026-05-04T16:16:28Z</time></trkpt><trkpt lat="43.779611174889396" lon="11.593831520869939"><ele>1016.0</ele><time>2026-05-04T16:16:29Z</time></trkpt><trkpt lat="43.77961039036199" lon="11.593714595611994"><ele>1016.4285714285714</ele><time>2026-05-04T16:16:30Z</time></trkpt><trkpt lat="43.77961912751193" lon="11.593603276260422"><ele>1016.8571428571429</ele><time>2026-05-04T16:16:31Z</time></trkpt><trkpt lat="43.779641690258465" lon="11.593517599756101"><ele>1017.2857142857143</ele><time>2026-05-04T16:16:32Z</time></trkpt><trkpt lat="43.77967838234054" lon="11.593434516030639"><ele>1017.7142857142858</ele><time>2026-05-04T16:16:33Z</time></trkpt><trkpt lat="43.77972957400126" lon="11.593357416625029"><ele>1018.1428571428571</ele><time>2026-05-04T16:16:34Z</time></trkpt><trkpt lat="43.779726499712716" lon="11.593251647731472"><ele>1018.5714285714287</ele><time>2026-05-04T16:16:35Z</time></trkpt><trkpt lat="43.77973337679451" lon="11.593144867236136"><ele>1019.0000000000001</ele><time>2026-05-04T16:16:36Z</time></trkpt><trkpt lat="43.7797300151867" lon="11.593019350907872"><ele>1019.0</ele><time>2026-05-04T16:16:37Z</time></trkpt><trkpt lat="43.77971739824171" lon="11.59290702384514"><ele>1019.0000000000001</ele><time>2026-05-04T16:16:38Z</time></trkpt><trkpt lat="43.77968880879308" lon="11.592778877167286"><ele>1019.0000000000001</ele><time>2026-05-04T16:16:39Z</time></trkpt><trkpt lat="43.77961996148814" lon="11.592615003235604"><ele>1019.0</ele><time>2026-05-04T16:16:41Z</time></trkpt><trkpt lat="43.77957723538628" lon="11.592550442720587"><ele>1019.0</ele><time>2026-05-04T16:16:42Z</time></trkpt><trkpt lat="43.77951588824632" lon="11.592472691617914"><ele>1018.6666666666667</ele><time>2026-05-04T16:16:42.999Z</time></trkpt><trkpt lat="43.77944509877412" lon="11.592400319791391"><ele>1018.3333333333333</ele><time>2026-05-04T16:16:43.999Z</time></trkpt><trkpt lat="43.779367433824476" lon="11.592319098923962"><ele>1018.0</ele><time>2026-05-04T16:16:45.999Z</time></trkpt><trkpt lat="43.779525355615554" lon="11.591700672215728"><ele>1017.0</ele><time>2026-05-04T16:16:47.999Z</time></trkpt><trkpt lat="43.77941619124158" lon="11.591599034028603"><ele>1016.0</ele><time>2026-05-04T16:16:49.999Z</time></trkpt><trkpt lat="43.779334637075806" lon="11.591608352884396"><ele>1015.0</ele><time>2026-05-04T16:16:50.999Z</time></trkpt><trkpt lat="43.77925574949948" lon="11.5916506215462"><ele>1014.0</ele><time>2026-05-04T16:16:51.999Z</time></trkpt><trkpt lat="43.779158862404046" lon="11.591726986547979"><ele>1013.0</ele><time>2026-05-04T16:16:52.999Z</time></trkpt><trkpt lat="43.779068652922774" lon="11.591828264086729"><ele>1012.2</ele><time>2026-05-04T16:16:53.999Z</time></trkpt><trkpt lat="43.778982033243025" lon="11.591915291894626"><ele>1011.4</ele><time>2026-05-04T16:16:55Z</time></trkpt><trkpt lat="43.778911762828294" lon="11.59196767784483"><ele>1010.6000000000001</ele><time>2026-05-04T16:16:56Z</time></trkpt><trkpt lat="43.77881842277408" lon="11.59202973414781"><ele>1009.8000000000001</ele><time>2026-05-04T16:16:58Z</time></trkpt><trkpt lat="43.77876411410802" lon="11.591932117279528"><ele>1009.0</ele><time>2026-05-04T16:17:00Z</time></trkpt><trkpt lat="43.77879066291174" lon="11.591786877895071"><ele>1009.0</ele><time>2026-05-04T16:17:02Z</time></trkpt><trkpt lat="43.77884533977493" lon="11.591678874045503"><ele>1009.0000000000001</ele><time>2026-05-04T16:17:03Z</time></trkpt><trkpt lat="43.778905408841524" lon="11.591545768767336"><ele>1009.0000000000001</ele><time>2026-05-04T16:17:04Z</time></trkpt><trkpt lat="43.77896651324745" lon="11.591411672744831"><ele>1009.0</ele><time>2026-05-04T16:17:05Z</time></trkpt><trkpt lat="43.77903103266051" lon="11.591290198204268"><ele>1009.0</ele><time>2026-05-04T16:17:06Z</time></trkpt><trkpt lat="43.77910292389923" lon="11.591190389763263"><ele>1007.8333333333333</ele><time>2026-05-04T16:17:07Z</time></trkpt><trkpt lat="43.77916770125518" lon="11.59109683600136"><ele>1006.6666666666666</ele><time>2026-05-04T16:17:08Z</time></trkpt><trkpt lat="43.77922557511503" lon="11.591020275152662"><ele>1005.5</ele><time>2026-05-04T16:17:09Z</time></trkpt><trkpt lat="43.779260734725455" lon="11.590929677556998"><ele>1004.3333333333333</ele><time>2026-05-04T16:17:10Z</time></trkpt><trkpt lat="43.77927683331405" lon="11.590814907442496"><ele>1003.1666666666666</ele><time>2026-05-04T16:17:11Z</time></trkpt><trkpt lat="43.77927280645525" lon="11.590702036724199"><ele>1002.0</ele><time>2026-05-04T16:17:12Z</time></trkpt><trkpt lat="43.77924505671315" lon="11.590582547885365"><ele>1002.0</ele><time>2026-05-04T16:17:13Z</time></trkpt><trkpt lat="43.77921615053233" lon="11.590464243214186"><ele>1002.0</ele><time>2026-05-04T16:17:14Z</time></trkpt><trkpt lat="43.77921138297474" lon="11.590314090681817"><ele>1002.0</ele><time>2026-05-04T16:17:16Z</time></trkpt><trkpt lat="43.77923867354081" lon="11.590227682197678"><ele>1002.0</ele><time>2026-05-04T16:17:17Z</time></trkpt><trkpt lat="43.77929983089115" lon="11.590167803185635"><ele>1002.0</ele><time>2026-05-04T16:17:18Z</time></trkpt><trkpt lat="43.77937434135154" lon="11.590116942079261"><ele>1002.0</ele><time>2026-05-04T16:17:19Z</time></trkpt><trkpt lat="43.77946955295561" lon="11.59006773568317"><ele>999.1666666666666</ele><time>2026-05-04T16:17:20Z</time></trkpt><trkpt lat="43.7795571234524" lon="11.590037285174763"><ele>996.3333333333333</ele><time>2026-05-04T16:17:21Z</time></trkpt><trkpt lat="43.779631881939345" lon="11.58997293295019"><ele>993.5</ele><time>2026-05-04T16:17:22Z</time></trkpt><trkpt lat="43.77968977205349" lon="11.589882358090945"><ele>990.6666666666666</ele><time>2026-05-04T16:17:23Z</time></trkpt><trkpt lat="43.779715543399405" lon="11.589786254227269"><ele>987.8333333333333</ele><time>2026-05-04T16:17:24Z</time></trkpt><trkpt lat="43.779713785701475" lon="11.589698398463131"><ele>985.0</ele><time>2026-05-04T16:17:25Z</time></trkpt><trkpt lat="43.779703878935045" lon="11.589592423614466"><ele>983.9999999999999</ele><time>2026-05-04T16:17:26Z</time></trkpt><trkpt lat="43.77967961510969" lon="11.589484235451073"><ele>983.0</ele><time>2026-05-04T16:17:27Z</time></trkpt><trkpt lat="43.77968549383981" lon="11.58938819924773"><ele>982.0</ele><time>2026-05-04T16:17:28Z</time></trkpt><trkpt lat="43.77972290276545" lon="11.589309361496408"><ele>981.0</ele><time>2026-05-04T16:17:29Z</time></trkpt><trkpt lat="43.779798925643895" lon="11.589266399849746"><ele>979.9999999999999</ele><time>2026-05-04T16:17:30Z</time></trkpt><trkpt lat="43.77990790013254" lon="11.589175187158588"><ele>979.0</ele><time>2026-05-04T16:17:32Z</time></trkpt><trkpt lat="43.77990678848672" lon="11.589070525836298"><ele>979.0</ele><time>2026-05-04T16:17:33Z</time></trkpt><trkpt lat="43.779843899087695" lon="11.588884919117824"><ele>979.0000000000001</ele><time>2026-05-04T16:17:35Z</time></trkpt><trkpt lat="43.779782449113064" lon="11.588790712569942"><ele>979.0000000000001</ele><time>2026-05-04T16:17:36Z</time></trkpt><trkpt lat="43.779754746836794" lon="11.58868281714536"><ele>979.0</ele><time>2026-05-04T16:17:37Z</time></trkpt><trkpt lat="43.779722787885" lon="11.588566315711764"><ele>979.0</ele><time>2026-05-04T16:17:38Z</time></trkpt><trkpt lat="43.779701916337935" lon="11.588458829565093"><ele>980.6</ele><time>2026-05-04T16:17:39Z</time></trkpt><trkpt lat="43.779776538098076" lon="11.58839705075273"><ele>982.2</ele><time>2026-05-04T16:17:40Z</time></trkpt><trkpt lat="43.77984717355229" lon="11.588351942171636"><ele>983.8000000000001</ele><time>2026-05-04T16:17:41Z</time></trkpt><trkpt lat="43.77994006439641" lon="11.58836806743476"><ele>985.4000000000001</ele><time>2026-05-04T16:17:42Z</time></trkpt><trkpt lat="43.78003440609216" lon="11.588387534994839"><ele>987.0</ele><time>2026-05-04T16:17:43Z</time></trkpt><trkpt lat="43.78014897283377" lon="11.588398762643724"><ele>986.6</ele><time>2026-05-04T16:17:44Z</time></trkpt><trkpt lat="43.78026713380796" lon="11.58840381405163"><ele>986.2</ele><time>2026-05-04T16:17:45Z</time></trkpt><trkpt lat="43.78035197304499" lon="11.588448671066045"><ele>985.8</ele><time>2026-05-04T16:17:46Z</time></trkpt><trkpt lat="43.780432353028175" lon="11.588466743485313"><ele>985.4</ele><time>2026-05-04T16:17:47Z</time></trkpt><trkpt lat="43.780539111470965" lon="11.58844702004528"><ele>985.0</ele><time>2026-05-04T16:17:48Z</time></trkpt><trkpt lat="43.78065208463848" lon="11.588428408885576"><ele>984.9999999999999</ele><time>2026-05-04T16:17:49Z</time></trkpt><trkpt lat="43.78075658115346" lon="11.588453567008516"><ele>985.0</ele><time>2026-05-04T16:17:50Z</time></trkpt><trkpt lat="43.780843622789824" lon="11.5885104244959"><ele>985.0</ele><time>2026-05-04T16:17:51Z</time></trkpt><trkpt lat="43.78092228024671" lon="11.588537013429834"><ele>985.0</ele><time>2026-05-04T16:17:52Z</time></trkpt><trkpt lat="43.78099130128374" lon="11.588528485655143"><ele>984.9999999999999</ele><time>2026-05-04T16:17:53Z</time></trkpt><trkpt lat="43.78105583801237" lon="11.58849057971272"><ele>985.0</ele><time>2026-05-04T16:17:54Z</time></trkpt><trkpt lat="43.781118689033796" lon="11.588411854056776"><ele>984.9999999999999</ele><time>2026-05-04T16:17:55Z</time></trkpt><trkpt lat="43.78117290399725" lon="11.588313135864933"><ele>985.0</ele><time>2026-05-04T16:17:56Z</time></trkpt><trkpt lat="43.781219953093405" lon="11.588234579410402"><ele>985.0</ele><time>2026-05-04T16:17:57Z</time></trkpt><trkpt lat="43.78128768136739" lon="11.588199341007677"><ele>985.0</ele><time>2026-05-04T16:17:58Z</time></trkpt><trkpt lat="43.78136538996786" lon="11.588221005390782"><ele>984.9999999999999</ele><time>2026-05-04T16:17:59Z</time></trkpt><trkpt lat="43.78145346281258" lon="11.58827864351008"><ele>985.0</ele><time>2026-05-04T16:18:00Z</time></trkpt><trkpt lat="43.78155655100753" lon="11.588322943766658"><ele>985.0</ele><time>2026-05-04T16:18:01Z</time></trkpt><trkpt lat="43.78166329814174" lon="11.588338254705565"><ele>985.0</ele><time>2026-05-04T16:18:02Z</time></trkpt><trkpt lat="43.78176923625185" lon="11.588357977893965"><ele>985.0</ele><time>2026-05-04T16:18:03Z</time></trkpt><trkpt lat="43.78186730968056" lon="11.588393488209679"><ele>985.0</ele><time>2026-05-04T16:18:04Z</time></trkpt><trkpt lat="43.78195360695337" lon="11.588427389080147"><ele>985.0</ele><time>2026-05-04T16:18:05Z</time></trkpt><trkpt lat="43.782040984519334" lon="11.588439897143273"><ele>983.4</ele><time>2026-05-04T16:18:06Z</time></trkpt><trkpt lat="43.78212266592675" lon="11.588426707931786"><ele>981.8</ele><time>2026-05-04T16:18:07Z</time></trkpt><trkpt lat="43.78219974036643" lon="11.58838378320616"><ele>980.2</ele><time>2026-05-04T16:18:08Z</time></trkpt><trkpt lat="43.78225636527356" lon="11.588278304817303"><ele>978.6</ele><time>2026-05-04T16:18:09Z</time></trkpt><trkpt lat="43.78230807540437" lon="11.588164225975074"><ele>977.0</ele><time>2026-05-04T16:18:10Z</time></trkpt><trkpt lat="43.78236144060696" lon="11.588034657613703"><ele>977.0</ele><time>2026-05-04T16:18:11Z</time></trkpt><trkpt lat="43.78241031911414" lon="11.587905175409315"><ele>977.0</ele><time>2026-05-04T16:18:12Z</time></trkpt><trkpt lat="43.78246355272479" lon="11.587788295196459"><ele>977.0</ele><time>2026-05-04T16:18:13Z</time></trkpt><trkpt lat="43.78250599403584" lon="11.587710143830893"><ele>977.0</ele><time>2026-05-04T16:18:14Z</time></trkpt><trkpt lat="43.78261108264373" lon="11.587643786566547"><ele>977.0</ele><time>2026-05-04T16:18:16Z</time></trkpt><trkpt lat="43.78267526197418" lon="11.587679966291761"><ele>975.857142857143</ele><time>2026-05-04T16:18:17Z</time></trkpt><trkpt lat="43.78273770406947" lon="11.587717462335117"><ele>974.7142857142858</ele><time>2026-05-04T16:18:18Z</time></trkpt><trkpt lat="43.78280340617455" lon="11.587740365782723"><ele>973.5714285714286</ele><time>2026-05-04T16:18:19Z</time></trkpt><trkpt lat="43.782866689904715" lon="11.587732466261802"><ele>972.4285714285714</ele><time>2026-05-04T16:18:20Z</time></trkpt><trkpt lat="43.782919758571744" lon="11.587680497948877"><ele>971.2857142857142</ele><time>2026-05-04T16:18:21Z</time></trkpt><trkpt lat="43.78295990026724" lon="11.587607505442838"><ele>970.142857142857</ele><time>2026-05-04T16:18:22Z</time></trkpt><trkpt lat="43.78298439721252" lon="11.587495845048847"><ele>968.9999999999999</ele><time>2026-05-04T16:18:23Z</time></trkpt><trkpt lat="43.78297400475464" lon="11.587376836990751"><ele>969.0</ele><time>2026-05-04T16:18:24Z</time></trkpt><trkpt lat="43.78295775667729" lon="11.587239330405522"><ele>969.0000000000001</ele><time>2026-05-04T16:18:25Z</time></trkpt><trkpt lat="43.78295672574466" lon="11.587084640280821"><ele>969.0000000000001</ele><time>2026-05-04T16:18:26Z</time></trkpt><trkpt lat="43.78297071158353" lon="11.586934409067046"><ele>969.0</ele><time>2026-05-04T16:18:27Z</time></trkpt><trkpt lat="43.78302330965671" lon="11.58680316827983"><ele>969.0</ele><time>2026-05-04T16:18:28Z</time></trkpt><trkpt lat="43.78309064636036" lon="11.586650916579773"><ele>969.75</ele><time>2026-05-04T16:18:29Z</time></trkpt><trkpt lat="43.78315613717905" lon="11.586506575649668"><ele>970.5</ele><time>2026-05-04T16:18:30Z</time></trkpt><trkpt lat="43.78322620427561" lon="11.586332987108321"><ele>971.25</ele><time>2026-05-04T16:18:31Z</time></trkpt><trkpt lat="43.783273934965926" lon="11.58618113875111"><ele>972.0</ele><time>2026-05-04T16:18:31.999Z</time></trkpt><trkpt lat="43.78335218508181" lon="11.586008408133187"><ele>973.0</ele><time>2026-05-04T16:18:32.999Z</time></trkpt><trkpt lat="43.78343568420336" lon="11.58585564108347"><ele>974.0</ele><time>2026-05-04T16:18:33.999Z</time></trkpt><trkpt lat="43.78351444556226" lon="11.58569850303672"><ele>975.0</ele><time>2026-05-04T16:18:34.999Z</time></trkpt><trkpt lat="43.78357427046168" lon="11.58555957450468"><ele>976.0</ele><time>2026-05-04T16:18:35.999Z</time></trkpt><trkpt lat="43.783638594111856" lon="11.58540779130507"><ele>973.0</ele><time>2026-05-04T16:18:36.999Z</time></trkpt><trkpt lat="43.7837122360339" lon="11.585273477056358"><ele>970.0</ele><time>2026-05-04T16:18:37.999Z</time></trkpt><trkpt lat="43.783803650477296" lon="11.585134650641184"><ele>967.0</ele><time>2026-05-04T16:18:38.999Z</time></trkpt><trkpt lat="43.78389232166141" lon="11.585027539005754"><ele>964.0</ele><time>2026-05-04T16:18:39.999Z</time></trkpt><trkpt lat="43.78396029268753" lon="11.5849429187741"><ele>964.0</ele><time>2026-05-04T16:18:40.999Z</time></trkpt><trkpt lat="43.784061921634574" lon="11.584867650236452"><ele>964.0000000000001</ele><time>2026-05-04T16:18:41.999Z</time></trkpt><trkpt lat="43.784172442189316" lon="11.584815213184392"><ele>964.0000000000001</ele><time>2026-05-04T16:18:42.999Z</time></trkpt><trkpt lat="43.78427204142082" lon="11.584780128783212"><ele>964.0</ele><time>2026-05-04T16:18:43.999Z</time></trkpt><trkpt lat="43.78437720842114" lon="11.584728795925313"><ele>964.0</ele><time>2026-05-04T16:18:44.999Z</time></trkpt><trkpt lat="43.78448764122497" lon="11.584724162378398"><ele>962.8000000000001</ele><time>2026-05-04T16:18:45.999Z</time></trkpt><trkpt lat="43.784596805305476" lon="11.584730588674724"><ele>961.6000000000001</ele><time>2026-05-04T16:18:46.999Z</time></trkpt><trkpt lat="43.784691467960776" lon="11.584761543462214"><ele>960.4</ele><time>2026-05-04T16:18:47.999Z</time></trkpt><trkpt lat="43.7847836518252" lon="11.584812490472641"><ele>959.2</ele><time>2026-05-04T16:18:48.999Z</time></trkpt><trkpt lat="43.78484987089721" lon="11.58487792707025"><ele>958.0</ele><time>2026-05-04T16:18:49.999Z</time></trkpt><trkpt lat="43.78496561834132" lon="11.584902608977035"><ele>957.9999999999999</ele><time>2026-05-04T16:18:51.999Z</time></trkpt><trkpt lat="43.78501977780424" lon="11.584849017149622"><ele>958.0</ele><time>2026-05-04T16:18:52.999Z</time></trkpt><trkpt lat="43.78505795247863" lon="11.58476176847694"><ele>958.0</ele><time>2026-05-04T16:18:53.999Z</time></trkpt><trkpt lat="43.78507751818323" lon="11.584656489977343"><ele>958.0</ele><time>2026-05-04T16:18:54.999Z</time></trkpt><trkpt lat="43.78508642607628" lon="11.58453907314643"><ele>957.9999999999999</ele><time>2026-05-04T16:18:55.999Z</time></trkpt><trkpt lat="43.78508075471943" lon="11.584423982626538"><ele>958.0</ele><time>2026-05-04T16:18:56.999Z</time></trkpt><trkpt lat="43.785062771738644" lon="11.58432182223411"><ele>957.8</ele><time>2026-05-04T16:18:57.999Z</time></trkpt><trkpt lat="43.78503752494793" lon="11.584206369794638"><ele>957.5999999999999</ele><time>2026-05-04T16:18:58.999Z</time></trkpt><trkpt lat="43.78497211666673" lon="11.584107001553143"><ele>957.4000000000001</ele><time>2026-05-04T16:18:59.999Z</time></trkpt><trkpt lat="43.784960831799346" lon="11.583918838530362"><ele>957.2</ele><time>2026-05-04T16:19:01Z</time></trkpt><trkpt lat="43.78488002887866" lon="11.58384620274021"><ele>957.0</ele><time>2026-05-04T16:19:02Z</time></trkpt><trkpt lat="43.78477380078674" lon="11.583802144116943"><ele>957.0</ele><time>2026-05-04T16:19:03Z</time></trkpt><trkpt lat="43.784644928435426" lon="11.583730467533574"><ele>957.0</ele><time>2026-05-04T16:19:05Z</time></trkpt><trkpt lat="43.78459214513532" lon="11.583677964763107"><ele>957.0</ele><time>2026-05-04T16:19:06Z</time></trkpt><trkpt lat="43.78455662374245" lon="11.583604926055749"><ele>957.0</ele><time>2026-05-04T16:19:07Z</time></trkpt><trkpt lat="43.78458062064184" lon="11.583434087205147"><ele>957.0</ele><time>2026-05-04T16:19:09Z</time></trkpt><trkpt lat="43.78460047594542" lon="11.583303335235476"><ele>956.1666666666666</ele><time>2026-05-04T16:19:10Z</time></trkpt><trkpt lat="43.78463790420705" lon="11.583195785617345"><ele>955.3333333333333</ele><time>2026-05-04T16:19:11Z</time></trkpt><trkpt lat="43.78465587663913" lon="11.583100603987504"><ele>954.5</ele><time>2026-05-04T16:19:12Z</time></trkpt><trkpt lat="43.7847188729177" lon="11.583017010683617"><ele>953.6666666666666</ele><time>2026-05-04T16:19:13Z</time></trkpt><trkpt lat="43.78479939638725" lon="11.582984540142956"><ele>952.8333333333333</ele><time>2026-05-04T16:19:14Z</time></trkpt><trkpt lat="43.78487727998235" lon="11.582947505747434"><ele>952.0</ele><time>2026-05-04T16:19:15Z</time></trkpt><trkpt lat="43.784949252403706" lon="11.582886699436703"><ele>950.6</ele><time>2026-05-04T16:19:16Z</time></trkpt><trkpt lat="43.78502252945568" lon="11.582807531648195"><ele>949.2</ele><time>2026-05-04T16:19:17Z</time></trkpt><trkpt lat="43.78508799861611" lon="11.582701179819113"><ele>947.8</ele><time>2026-05-04T16:19:18Z</time></trkpt><trkpt lat="43.78514594247883" lon="11.582577570969592"><ele>946.4</ele><time>2026-05-04T16:19:19Z</time></trkpt><trkpt lat="43.78519474409081" lon="11.582436969084771"><ele>945.0</ele><time>2026-05-04T16:19:20Z</time></trkpt><trkpt lat="43.78525150415939" lon="11.582286735328104"><ele>945.0</ele><time>2026-05-04T16:19:21Z</time></trkpt><trkpt lat="43.78531210013428" lon="11.582138680000622"><ele>945.0</ele><time>2026-05-04T16:19:22Z</time></trkpt><trkpt lat="43.78535922826916" lon="11.581996896863817"><ele>945.0</ele><time>2026-05-04T16:19:23Z</time></trkpt><trkpt lat="43.785402518402776" lon="11.581871618836189"><ele>945.0</ele><time>2026-05-04T16:19:24Z</time></trkpt><trkpt lat="43.78544742969759" lon="11.58173733849082"><ele>945.0</ele><time>2026-05-04T16:19:25Z</time></trkpt><trkpt lat="43.78550414151647" lon="11.58162355488049"><ele>946.8</ele><time>2026-05-04T16:19:26Z</time></trkpt><trkpt lat="43.78560340176288" lon="11.581579104282296"><ele>948.6</ele><time>2026-05-04T16:19:27Z</time></trkpt><trkpt lat="43.78568710320276" lon="11.581518225503787"><ele>950.4000000000001</ele><time>2026-05-04T16:19:28Z</time></trkpt><trkpt lat="43.78578740692736" lon="11.581511902770284"><ele>952.2</ele><time>2026-05-04T16:19:29Z</time></trkpt><trkpt lat="43.78590364701314" lon="11.58149572304021"><ele>954.0</ele><time>2026-05-04T16:19:30Z</time></trkpt><trkpt lat="43.78599642013213" lon="11.581457121741428"><ele>954.0</ele><time>2026-05-04T16:19:31Z</time></trkpt><trkpt lat="43.78608237486402" lon="11.581441134316739"><ele>954.0</ele><time>2026-05-04T16:19:32Z</time></trkpt><trkpt lat="43.786153076274545" lon="11.581419436683076"><ele>954.0</ele><time>2026-05-04T16:19:33Z</time></trkpt><trkpt lat="43.786231922586055" lon="11.581409894038877"><ele>954.0</ele><time>2026-05-04T16:19:34Z</time></trkpt><trkpt lat="43.786289509286206" lon="11.581348846450002"><ele>954.0</ele><time>2026-05-04T16:19:35Z</time></trkpt><trkpt lat="43.78633862914961" lon="11.581288333176621"><ele>954.0</ele><time>2026-05-04T16:19:36Z</time></trkpt><trkpt lat="43.786435669466876" lon="11.581180569159573"><ele>954.0</ele><time>2026-05-04T16:19:38Z</time></trkpt><trkpt lat="43.78652984349856" lon="11.581172167547729"><ele>954.0</ele><time>2026-05-04T16:19:39Z</time></trkpt><trkpt lat="43.78663485143617" lon="11.581183987747098"><ele>954.0</ele><time>2026-05-04T16:19:40Z</time></trkpt><trkpt lat="43.78682504964607" lon="11.581557837575973"><ele>956.0</ele><time>2026-05-04T16:19:41Z</time></trkpt><trkpt lat="43.78691663700603" lon="11.581640371532968"><ele>958.0000000000001</ele><time>2026-05-04T16:19:42Z</time></trkpt><trkpt lat="43.786996012573" lon="11.581731745457617"><ele>960.0000000000001</ele><time>2026-05-04T16:19:43Z</time></trkpt><trkpt lat="43.787059304529556" lon="11.581842203265861"><ele>962.0</ele><time>2026-05-04T16:19:44Z</time></trkpt><trkpt lat="43.78711603240397" lon="11.5819601049075"><ele>964.0</ele><time>2026-05-04T16:19:45Z</time></trkpt><trkpt lat="43.78715933538308" lon="11.582076369638358"><ele>964.2</ele><time>2026-05-04T16:19:46Z</time></trkpt><trkpt lat="43.787200647450256" lon="11.582173448122841"><ele>964.4000000000001</ele><time>2026-05-04T16:19:47Z</time></trkpt><trkpt lat="43.78726983196556" lon="11.582244367765512"><ele>964.6</ele><time>2026-05-04T16:19:48Z</time></trkpt><trkpt lat="43.78735587464602" lon="11.582297206963664"><ele>964.8</ele><time>2026-05-04T16:19:49Z</time></trkpt><trkpt lat="43.78746532744262" lon="11.58235789965331"><ele>965.0</ele><time>2026-05-04T16:19:50Z</time></trkpt><trkpt lat="43.787578174693515" lon="11.58240854487881"><ele>966.5</ele><time>2026-05-04T16:19:51Z</time></trkpt><trkpt lat="43.787705044677764" lon="11.582450810981513"><ele>968.0</ele><time>2026-05-04T16:19:52Z</time></trkpt><trkpt lat="43.78785092441496" lon="11.582472862936566"><ele>969.5</ele><time>2026-05-04T16:19:53Z</time></trkpt><trkpt lat="43.78798147785304" lon="11.58248264369262"><ele>971.0</ele><time>2026-05-04T16:19:54Z</time></trkpt><trkpt lat="43.788078813084695" lon="11.582471634910759"><ele>971.0</ele><time>2026-05-04T16:19:55Z</time></trkpt><trkpt lat="43.788174491722096" lon="11.582425072971033"><ele>971.0</ele><time>2026-05-04T16:19:56Z</time></trkpt><trkpt lat="43.78827638324702" lon="11.582351888917438"><ele>971.0</ele><time>2026-05-04T16:19:57Z</time></trkpt><trkpt lat="43.78840341402873" lon="11.582269685105594"><ele>971.0</ele><time>2026-05-04T16:19:58Z</time></trkpt><trkpt lat="43.78850666969" lon="11.582193888626708"><ele>970.8333333333334</ele><time>2026-05-04T16:19:59Z</time></trkpt><trkpt lat="43.78858695691029" lon="11.582133391521847"><ele>970.6666666666667</ele><time>2026-05-04T16:20:00Z</time></trkpt><trkpt lat="43.78866140629233" lon="11.582065088557693"><ele>970.5</ele><time>2026-05-04T16:20:01Z</time></trkpt><trkpt lat="43.78871991222351" lon="11.58201402932806"><ele>970.3333333333333</ele><time>2026-05-04T16:20:02Z</time></trkpt><trkpt lat="43.78878981436018" lon="11.582052242019964"><ele>970.1666666666666</ele><time>2026-05-04T16:20:04Z</time></trkpt><trkpt lat="43.78884724425477" lon="11.582091200815036"><ele>970.0</ele><time>2026-05-04T16:20:06.999Z</time></trkpt><trkpt lat="43.78892915634911" lon="11.582131390220592"><ele>970.6</ele><time>2026-05-04T16:20:23.999Z</time></trkpt><trkpt lat="43.78900137307297" lon="11.582159116398813"><ele>971.2</ele><time>2026-05-04T16:20:24.999Z</time></trkpt><trkpt lat="43.78908450145067" lon="11.58218684748417"><ele>971.8</ele><time>2026-05-04T16:20:25.999Z</time></trkpt><trkpt lat="43.78918431080642" lon="11.582228826434596"><ele>972.4</ele><time>2026-05-04T16:20:26.999Z</time></trkpt><trkpt lat="43.7892891834835" lon="11.582283035849047"><ele>973.0</ele><time>2026-05-04T16:20:27.999Z</time></trkpt><trkpt lat="43.78939532635199" lon="11.582325516116706"><ele>974.8</ele><time>2026-05-04T16:20:28.999Z</time></trkpt><trkpt lat="43.789497633038636" lon="11.582375115786013"><ele>976.5999999999999</ele><time>2026-05-04T16:20:29.999Z</time></trkpt><trkpt lat="43.78959556195438" lon="11.582423626829975"><ele>978.4000000000001</ele><time>2026-05-04T16:20:30.999Z</time></trkpt><trkpt lat="43.78969538051591" lon="11.582462879631812"><ele>980.2</ele><time>2026-05-04T16:20:31.999Z</time></trkpt><trkpt lat="43.78978167821492" lon="11.582464830414219"><ele>982.0</ele><time>2026-05-04T16:20:32.999Z</time></trkpt><trkpt lat="43.78989124802904" lon="11.582452732959037"><ele>982.0</ele><time>2026-05-04T16:20:33.999Z</time></trkpt><trkpt lat="43.790011325905816" lon="11.582396577929424"><ele>982.0</ele><time>2026-05-04T16:20:34.999Z</time></trkpt><trkpt lat="43.79011674146015" lon="11.582327255202413"><ele>982.0</ele><time>2026-05-04T16:20:35.999Z</time></trkpt><trkpt lat="43.790235162462764" lon="11.582252756684525"><ele>982.0</ele><time>2026-05-04T16:20:36.999Z</time></trkpt><trkpt lat="43.79033703479964" lon="11.582222363223735"><ele>982.0</ele><time>2026-05-04T16:20:37.999Z</time></trkpt><trkpt lat="43.790445812356595" lon="11.582220924816372"><ele>982.0</ele><time>2026-05-04T16:20:38.999Z</time></trkpt><trkpt lat="43.79059377771403" lon="11.582208582877803"><ele>982.0</ele><time>2026-05-04T16:20:39.999Z</time></trkpt><trkpt lat="43.79072035095755" lon="11.58217632210497"><ele>982.0</ele><time>2026-05-04T16:20:40.999Z</time></trkpt><trkpt lat="43.790815958429285" lon="11.582142383829842"><ele>982.0</ele><time>2026-05-04T16:20:41.999Z</time></trkpt><trkpt lat="43.7909752838402" lon="11.58209679557802"><ele>982.0</ele><time>2026-05-04T16:20:42.999Z</time></trkpt><trkpt lat="43.791125668628524" lon="11.582061086897976"><ele>982.0</ele><time>2026-05-04T16:20:43.999Z</time></trkpt><trkpt lat="43.79127111672302" lon="11.582062790616353"><ele>982.5</ele><time>2026-05-04T16:20:44.999Z</time></trkpt><trkpt lat="43.791428473675595" lon="11.582070814562963"><ele>983.0</ele><time>2026-05-04T16:20:45.999Z</time></trkpt><trkpt lat="43.791555287977936" lon="11.582058518124914"><ele>983.5</ele><time>2026-05-04T16:20:46.999Z</time></trkpt><trkpt lat="43.79167638909397" lon="11.58204670116654"><ele>984.0</ele><time>2026-05-04T16:20:47.999Z</time></trkpt><trkpt lat="43.79179723697872" lon="11.582013510615347"><ele>986.0</ele><time>2026-05-04T16:20:48.999Z</time></trkpt><trkpt lat="43.79191950450398" lon="11.581978227510476"><ele>988.0000000000001</ele><time>2026-05-04T16:20:49.999Z</time></trkpt><trkpt lat="43.79200449156765" lon="11.581951116102827"><ele>990.0000000000001</ele><time>2026-05-04T16:20:50.999Z</time></trkpt><trkpt lat="43.792092020781176" lon="11.581922537215648"><ele>992.0</ele><time>2026-05-04T16:20:51.999Z</time></trkpt><trkpt lat="43.792166429353806" lon="11.58188790561484"><ele>994.0</ele><time>2026-05-04T16:20:52.999Z</time></trkpt><trkpt lat="43.792247102136336" lon="11.581824899914183"><ele>994.0</ele><time>2026-05-04T16:20:53.999Z</time></trkpt><trkpt lat="43.79232786856518" lon="11.58174598066572"><ele>994.0</ele><time>2026-05-04T16:20:54.999Z</time></trkpt><trkpt lat="43.79244904589689" lon="11.581665960222256"><ele>994.0</ele><time>2026-05-04T16:20:55.999Z</time></trkpt><trkpt lat="43.792568493728304" lon="11.581579690677323"><ele>994.0</ele><time>2026-05-04T16:20:56.999Z</time></trkpt><trkpt lat="43.79269001958722" lon="11.581493251571898"><ele>994.25</ele><time>2026-05-04T16:20:57.999Z</time></trkpt><trkpt lat="43.792804906419946" lon="11.581404174832993"><ele>994.5</ele><time>2026-05-04T16:20:58.999Z</time></trkpt><trkpt lat="43.7929058140512" lon="11.581304019657994"><ele>994.75</ele><time>2026-05-04T16:20:59.999Z</time></trkpt><trkpt lat="43.79299762802261" lon="11.581217261050197"><ele>995.0</ele><time>2026-05-04T16:21:00.999Z</time></trkpt><trkpt lat="43.793099454853284" lon="11.581119596058677"><ele>995.0</ele><time>2026-05-04T16:21:01.999Z</time></trkpt><trkpt lat="43.79318870433723" lon="11.581024401751185"><ele>995.0</ele><time>2026-05-04T16:21:02.999Z</time></trkpt><trkpt lat="43.793262482463014" lon="11.580936701311854"><ele>995.0</ele><time>2026-05-04T16:21:03.999Z</time></trkpt><trkpt lat="43.793329715887324" lon="11.580853994083842"><ele>995.0</ele><time>2026-05-04T16:21:04.999Z</time></trkpt><trkpt lat="43.79339921513896" lon="11.580768201281312"><ele>995.0</ele><time>2026-05-04T16:21:05.999Z</time></trkpt><trkpt lat="43.79347855062065" lon="11.580670625474578"><ele>993.4</ele><time>2026-05-04T16:21:07Z</time></trkpt><trkpt lat="43.793560255647286" lon="11.580557681479062"><ele>991.8</ele><time>2026-05-04T16:21:08Z</time></trkpt><trkpt lat="43.79363408661136" lon="11.580457004203492"><ele>990.2</ele><time>2026-05-04T16:21:09Z</time></trkpt><trkpt lat="43.79370671929152" lon="11.580358661528775"><ele>988.6</ele><time>2026-05-04T16:21:10Z</time></trkpt><trkpt lat="43.79377872395583" lon="11.580252336029318"><ele>987.0</ele><time>2026-05-04T16:21:11Z</time></trkpt><trkpt lat="43.79384184463972" lon="11.580152030799091"><ele>987.0</ele><time>2026-05-04T16:21:12Z</time></trkpt><trkpt lat="43.79391423067231" lon="11.580053722814679"><ele>987.0</ele><time>2026-05-04T16:21:13Z</time></trkpt><trkpt lat="43.79397754987054" lon="11.579992089929826"><ele>987.0</ele><time>2026-05-04T16:21:14Z</time></trkpt><trkpt lat="43.79408202677316" lon="11.579937089908578"><ele>987.0</ele><time>2026-05-04T16:21:16Z</time></trkpt><trkpt lat="43.79414910487071" lon="11.579901742163257"><ele>987.0</ele><time>2026-05-04T16:21:17Z</time></trkpt><trkpt lat="43.79422063663312" lon="11.579829915867652"><ele>987.0</ele><time>2026-05-04T16:21:18Z</time></trkpt><trkpt lat="43.794304224961586" lon="11.57976380273352"><ele>987.0</ele><time>2026-05-04T16:21:19Z</time></trkpt><trkpt lat="43.79438880221855" lon="11.579712975759104"><ele>987.0</ele><time>2026-05-04T16:21:20Z</time></trkpt><trkpt lat="43.79446622255523" lon="11.579671530701043"><ele>987.0</ele><time>2026-05-04T16:21:21Z</time></trkpt><trkpt lat="43.79455787731151" lon="11.579618504499535"><ele>987.0</ele><time>2026-05-04T16:21:22Z</time></trkpt><trkpt lat="43.794637312755455" lon="11.579561065699933"><ele>984.4000000000001</ele><time>2026-05-04T16:21:23Z</time></trkpt><trkpt lat="43.79470992501992" lon="11.579487461792539"><ele>981.8000000000001</ele><time>2026-05-04T16:21:24Z</time></trkpt><trkpt lat="43.7947742509643" lon="11.579396364469764"><ele>979.2</ele><time>2026-05-04T16:21:25Z</time></trkpt><trkpt lat="43.79485150419354" lon="11.579311007456655"><ele>976.6</ele><time>2026-05-04T16:21:26Z</time></trkpt><trkpt lat="43.7949375191957" lon="11.57921344893685"><ele>974.0</ele><time>2026-05-04T16:21:27Z</time></trkpt><trkpt lat="43.79501069464956" lon="11.579121431369193"><ele>974.0000000000001</ele><time>2026-05-04T16:21:28Z</time></trkpt><trkpt lat="43.79505621621228" lon="11.579028890317826"><ele>974.0</ele><time>2026-05-04T16:21:29Z</time></trkpt><trkpt lat="43.79509280359106" lon="11.57893338690461"><ele>974.0</ele><time>2026-05-04T16:21:30Z</time></trkpt><trkpt lat="43.795119338960184" lon="11.578835529526597"><ele>974.0</ele><time>2026-05-04T16:21:31Z</time></trkpt><trkpt lat="43.7951449581777" lon="11.578733675649437"><ele>974.0000000000001</ele><time>2026-05-04T16:21:32Z</time></trkpt><trkpt lat="43.795183399223305" lon="11.578640489512626"><ele>974.0</ele><time>2026-05-04T16:21:33Z</time></trkpt><trkpt lat="43.79522729956142" lon="11.57853272275927"><ele>970.8333333333334</ele><time>2026-05-04T16:21:34Z</time></trkpt><trkpt lat="43.79528202644806" lon="11.57846438716674"><ele>967.6666666666667</ele><time>2026-05-04T16:21:35Z</time></trkpt><trkpt lat="43.79534535265154" lon="11.578410333783202"><ele>964.5</ele><time>2026-05-04T16:21:36Z</time></trkpt><trkpt lat="43.7954315618425" lon="11.578384621191438"><ele>961.3333333333333</ele><time>2026-05-04T16:21:37Z</time></trkpt><trkpt lat="43.79549798161463" lon="11.578364729211065"><ele>958.1666666666666</ele><time>2026-05-04T16:21:38Z</time></trkpt><trkpt lat="43.795570957577276" lon="11.578332900984009"><ele>955.0</ele><time>2026-05-04T16:21:39Z</time></trkpt><trkpt lat="43.79566762546222" lon="11.578290053628363"><ele>955.0</ele><time>2026-05-04T16:21:40Z</time></trkpt><trkpt lat="43.79575612692619" lon="11.57826767823716"><ele>955.0</ele><time>2026-05-04T16:21:41Z</time></trkpt><trkpt lat="43.79586525810732" lon="11.578252923638752"><ele>955.0</ele><time>2026-05-04T16:21:42Z</time></trkpt><trkpt lat="43.79596895657075" lon="11.578209516168757"><ele>955.0</ele><time>2026-05-04T16:21:43Z</time></trkpt><trkpt lat="43.79605629965466" lon="11.578166587179004"><ele>955.0</ele><time>2026-05-04T16:21:44Z</time></trkpt><trkpt lat="43.79615736297331" lon="11.578153745170178"><ele>951.6666666666666</ele><time>2026-05-04T16:21:45Z</time></trkpt><trkpt lat="43.79627699775488" lon="11.578140362499857"><ele>948.3333333333333</ele><time>2026-05-04T16:21:46Z</time></trkpt><trkpt lat="43.7963645880992" lon="11.578133309538925"><ele>945.0</ele><time>2026-05-04T16:21:47Z</time></trkpt><trkpt lat="43.79643820974483" lon="11.578140763596496"><ele>941.6666666666667</ele><time>2026-05-04T16:21:48Z</time></trkpt><trkpt lat="43.79650534818688" lon="11.578179865044492"><ele>938.3333333333334</ele><time>2026-05-04T16:21:49Z</time></trkpt><trkpt lat="43.79656420965763" lon="11.578245215325202"><ele>935.0</ele><time>2026-05-04T16:21:50Z</time></trkpt><trkpt lat="43.79662180194154" lon="11.578306140632634"><ele>935.0</ele><time>2026-05-04T16:21:51Z</time></trkpt><trkpt lat="43.79672490955008" lon="11.578329845016329"><ele>935.0</ele><time>2026-05-04T16:21:53Z</time></trkpt><trkpt lat="43.796790967051" lon="11.578294015667113"><ele>935.0</ele><time>2026-05-04T16:21:55Z</time></trkpt><trkpt lat="43.79685436552776" lon="11.578249299482808"><ele>935.0</ele><time>2026-05-04T16:22:16.999Z</time></trkpt><trkpt lat="43.79694748619267" lon="11.578115604945342"><ele>935.0</ele><time>2026-05-04T16:22:18.999Z</time></trkpt><trkpt lat="43.79699136941335" lon="11.578038611766647"><ele>930.0000000000001</ele><time>2026-05-04T16:22:19.999Z</time></trkpt><trkpt lat="43.7970252580118" lon="11.577934425598542"><ele>925.0</ele><time>2026-05-04T16:22:20.999Z</time></trkpt><trkpt lat="43.79705451250643" lon="11.577841144745891"><ele>920.0</ele><time>2026-05-04T16:22:21.999Z</time></trkpt><trkpt lat="43.79706874580587" lon="11.577678154334563"><ele>915.0</ele><time>2026-05-04T16:22:23.999Z</time></trkpt><trkpt lat="43.79707124113272" lon="11.577583762254644"><ele>910.0000000000001</ele><time>2026-05-04T16:22:24.999Z</time></trkpt><trkpt lat="43.79706818143541" lon="11.577473564040586"><ele>905.0</ele><time>2026-05-04T16:22:25.999Z</time></trkpt><trkpt lat="43.79708205444894" lon="11.57732497211516"><ele>905.0000000000001</ele><time>2026-05-04T16:22:27.999Z</time></trkpt><trkpt lat="43.79711100187291" lon="11.577241523192042"><ele>905.0</ele><time>2026-05-04T16:22:28.999Z</time></trkpt><trkpt lat="43.7971443733835" lon="11.57715605739858"><ele>905.0</ele><time>2026-05-04T16:22:29.999Z</time></trkpt><trkpt lat="43.797205652219006" lon="11.577093842441402"><ele>905.0</ele><time>2026-05-04T16:22:30.999Z</time></trkpt><trkpt lat="43.79728067660854" lon="11.577033191950493"><ele>905.0000000000001</ele><time>2026-05-04T16:22:31.999Z</time></trkpt><trkpt lat="43.79738142650336" lon="11.576906467609536"><ele>905.0</ele><time>2026-05-04T16:22:33.999Z</time></trkpt><trkpt lat="43.797419292394125" lon="11.576733468836334"><ele>905.3333333333334</ele><time>2026-05-04T16:22:35.999Z</time></trkpt><trkpt lat="43.79750418799494" lon="11.576630804401965"><ele>905.6666666666667</ele><time>2026-05-04T16:22:37.999Z</time></trkpt><trkpt lat="43.79757772177972" lon="11.576606603159004"><ele>906.0</ele><time>2026-05-04T16:22:38.999Z</time></trkpt><trkpt lat="43.79764703003549" lon="11.576564869227946"><ele>906.3333333333333</ele><time>2026-05-04T16:22:39.999Z</time></trkpt><trkpt lat="43.79770149549606" lon="11.576504664181044"><ele>906.6666666666666</ele><time>2026-05-04T16:22:40.999Z</time></trkpt><trkpt lat="43.797735172003" lon="11.576407841882713"><ele>907.0</ele><time>2026-05-04T16:22:41.999Z</time></trkpt><trkpt lat="43.79775890700631" lon="11.576292785143075"><ele>904.6666666666666</ele><time>2026-05-04T16:22:42.999Z</time></trkpt><trkpt lat="43.79778410416386" lon="11.576191013467438"><ele>902.3333333333333</ele><time>2026-05-04T16:22:43.999Z</time></trkpt><trkpt lat="43.79783002334883" lon="11.576096449350935"><ele>900.0</ele><time>2026-05-04T16:22:44.999Z</time></trkpt><trkpt lat="43.79791151879652" lon="11.575998404862778"><ele>897.6666666666667</ele><time>2026-05-04T16:22:45.999Z</time></trkpt><trkpt lat="43.797968807601514" lon="11.575908068644132"><ele>895.3333333333334</ele><time>2026-05-04T16:22:46.999Z</time></trkpt><trkpt lat="43.79800705205512" lon="11.57583600631626"><ele>893.0</ele><time>2026-05-04T16:22:47.999Z</time></trkpt><trkpt lat="43.798135806327295" lon="11.57578346600738"><ele>893.0</ele><time>2026-05-04T16:22:49.999Z</time></trkpt><trkpt lat="43.79822532461026" lon="11.575824289843034"><ele>893.0</ele><time>2026-05-04T16:22:50.999Z</time></trkpt><trkpt lat="43.798310718608214" lon="11.575913857183675"><ele>893.0</ele><time>2026-05-04T16:22:51.999Z</time></trkpt><trkpt lat="43.79839165539143" lon="11.57598678976831"><ele>893.0</ele><time>2026-05-04T16:22:52.999Z</time></trkpt><trkpt lat="43.79846851576703" lon="11.576046099164357"><ele>893.0</ele><time>2026-05-04T16:22:53.999Z</time></trkpt><trkpt lat="43.79853619349052" lon="11.576051092872722"><ele>892.0</ele><time>2026-05-04T16:22:54.999Z</time></trkpt><trkpt lat="43.7986243980007" lon="11.576053550136535"><ele>891.0</ele><time>2026-05-04T16:22:55.999Z</time></trkpt><trkpt lat="43.79870734371178" lon="11.576053586244456"><ele>890.0</ele><time>2026-05-04T16:22:56.999Z</time></trkpt><trkpt lat="43.79880764593105" lon="11.576056781019554"><ele>889.0</ele><time>2026-05-04T16:22:57.999Z</time></trkpt><trkpt lat="43.79893326132184" lon="11.576066981652644"><ele>888.0</ele><time>2026-05-04T16:22:58.999Z</time></trkpt><trkpt lat="43.799009812587165" lon="11.576062787201288"><ele>888.0</ele><time>2026-05-04T16:22:59.999Z</time></trkpt><trkpt lat="43.79908719219812" lon="11.576074616040211"><ele>888.0</ele><time>2026-05-04T16:23:00.999Z</time></trkpt><trkpt lat="43.79916839812923" lon="11.57608443778004"><ele>888.0</ele><time>2026-05-04T16:23:01.999Z</time></trkpt><trkpt lat="43.79923135071258" lon="11.576101979220914"><ele>888.0</ele><time>2026-05-04T16:23:02.999Z</time></trkpt><trkpt lat="43.799297582990505" lon="11.576139245872309"><ele>888.0</ele><time>2026-05-04T16:23:04.999Z</time></trkpt><trkpt lat="43.79937352817656" lon="11.576179323318094"><ele>888.0</ele><time>2026-05-04T16:23:05.999Z</time></trkpt><trkpt lat="43.799455444758074" lon="11.576216698784814"><ele>888.4</ele><time>2026-05-04T16:23:06.999Z</time></trkpt><trkpt lat="43.79953137998245" lon="11.576267995338446"><ele>888.8</ele><time>2026-05-04T16:23:07.999Z</time></trkpt><trkpt lat="43.799609297015095" lon="11.576300187091174"><ele>889.2</ele><time>2026-05-04T16:23:08.999Z</time></trkpt><trkpt lat="43.7997061150293" lon="11.576370004154853"><ele>889.6</ele><time>2026-05-04T16:23:09.999Z</time></trkpt><trkpt lat="43.79978811387567" lon="11.576440631142502"><ele>890.0</ele><time>2026-05-04T16:23:10.999Z</time></trkpt><trkpt lat="43.79987889523608" lon="11.576507542881505"><ele>890.0</ele><time>2026-05-04T16:23:11.999Z</time></trkpt><trkpt lat="43.7999643816959" lon="11.576539796045486"><ele>890.0</ele><time>2026-05-04T16:23:13Z</time></trkpt><trkpt lat="43.800059990172734" lon="11.57657894725414"><ele>890.0</ele><time>2026-05-04T16:23:14Z</time></trkpt><trkpt lat="43.80016411120743" lon="11.576622881300548"><ele>890.0</ele><time>2026-05-04T16:23:15Z</time></trkpt><trkpt lat="43.80027638193888" lon="11.576668860638303"><ele>890.0</ele><time>2026-05-04T16:23:16Z</time></trkpt><trkpt lat="43.80037677200119" lon="11.576704800419154"><ele>888.6666666666667</ele><time>2026-05-04T16:23:17Z</time></trkpt><trkpt lat="43.800455458418455" lon="11.576728549538508"><ele>887.3333333333334</ele><time>2026-05-04T16:23:18Z</time></trkpt><trkpt lat="43.80053046836138" lon="11.576764222983854"><ele>886.0</ele><time>2026-05-04T16:23:19Z</time></trkpt><trkpt lat="43.80060772183997" lon="11.57678459677909"><ele>884.6666666666667</ele><time>2026-05-04T16:23:20Z</time></trkpt><trkpt lat="43.80069778344887" lon="11.576800865188371"><ele>883.3333333333334</ele><time>2026-05-04T16:23:21Z</time></trkpt><trkpt lat="43.80079802983255" lon="11.576779133763445"><ele>882.0</ele><time>2026-05-04T16:23:22Z</time></trkpt><trkpt lat="43.80089054698738" lon="11.576729285398894"><ele>882.0</ele><time>2026-05-04T16:23:23Z</time></trkpt><trkpt lat="43.80099554325194" lon="11.576691057224995"><ele>882.0</ele><time>2026-05-04T16:23:25Z</time></trkpt><trkpt lat="43.8011116986323" lon="11.576753875118241"><ele>882.0</ele><time>2026-05-04T16:23:27Z</time></trkpt><trkpt lat="43.801200494005776" lon="11.576806326503645"><ele>882.0</ele><time>2026-05-04T16:23:28Z</time></trkpt><trkpt lat="43.80127845679352" lon="11.576846291067467"><ele>882.0</ele><time>2026-05-04T16:23:29Z</time></trkpt><trkpt lat="43.80134557718907" lon="11.576855539031719"><ele>880.6</ele><time>2026-05-04T16:23:30Z</time></trkpt><trkpt lat="43.801427991302454" lon="11.576880404730497"><ele>879.2</ele><time>2026-05-04T16:23:31Z</time></trkpt><trkpt lat="43.80153689046379" lon="11.576892636229958"><ele>877.8</ele><time>2026-05-04T16:23:33Z</time></trkpt><trkpt lat="43.80166982294455" lon="11.576844425166705"><ele>876.4</ele><time>2026-05-04T16:23:35Z</time></trkpt><trkpt lat="43.80173939518624" lon="11.57682424895607"><ele>875.0</ele><time>2026-05-04T16:23:36Z</time></trkpt><trkpt lat="43.80183248119285" lon="11.576800246643003"><ele>871.2</ele><time>2026-05-04T16:23:37Z</time></trkpt><trkpt lat="43.80194214829418" lon="11.576783469339306"><ele>867.4</ele><time>2026-05-04T16:23:38Z</time></trkpt><trkpt lat="43.802048617558434" lon="11.576775486858992"><ele>863.5999999999999</ele><time>2026-05-04T16:23:39Z</time></trkpt><trkpt lat="43.80215271141973" lon="11.576775358587174"><ele>859.8</ele><time>2026-05-04T16:23:40Z</time></trkpt><trkpt lat="43.802243041979104" lon="11.576791802562163"><ele>856.0</ele><time>2026-05-04T16:23:41Z</time></trkpt><trkpt lat="43.802321333369996" lon="11.57686002898755"><ele>855.9999999999999</ele><time>2026-05-04T16:23:42Z</time></trkpt><trkpt lat="43.802391476125834" lon="11.57693143250186"><ele>856.0</ele><time>2026-05-04T16:23:43Z</time></trkpt><trkpt lat="43.80244724204058" lon="11.577003417436114"><ele>856.0</ele><time>2026-05-04T16:23:44Z</time></trkpt><trkpt lat="43.80248183877865" lon="11.577082309205982"><ele>856.0</ele><time>2026-05-04T16:23:45Z</time></trkpt><trkpt lat="43.802589430676925" lon="11.577134945496423"><ele>855.9999999999999</ele><time>2026-05-04T16:23:47Z</time></trkpt><trkpt lat="43.80266965271495" lon="11.577134644842355"><ele>856.0</ele><time>2026-05-04T16:23:48Z</time></trkpt><trkpt lat="43.802752759781306" lon="11.577109161948595"><ele>854.4</ele><time>2026-05-04T16:23:49Z</time></trkpt><trkpt lat="43.80282996548696" lon="11.577033887810666"><ele>852.8</ele><time>2026-05-04T16:23:50Z</time></trkpt><trkpt lat="43.802876364884455" lon="11.576964623052175"><ele>851.1999999999999</ele><time>2026-05-04T16:23:51Z</time></trkpt><trkpt lat="43.802930589982225" lon="11.576872491739381"><ele>849.5999999999999</ele><time>2026-05-04T16:23:52Z</time></trkpt><trkpt lat="43.80299926305314" lon="11.576756769333162"><ele>848.0</ele><time>2026-05-04T16:23:53Z</time></trkpt><trkpt lat="43.803065304131174" lon="11.576645135573383"><ele>848.0000000000001</ele><time>2026-05-04T16:23:54Z</time></trkpt><trkpt lat="43.803134863704464" lon="11.576547550176295"><ele>848.0</ele><time>2026-05-04T16:23:55Z</time></trkpt><trkpt lat="43.80320448885869" lon="11.576465943044289"><ele>848.0</ele><time>2026-05-04T16:23:56Z</time></trkpt><trkpt lat="43.803271077927285" lon="11.57641942561674"><ele>848.0</ele><time>2026-05-04T16:23:57Z</time></trkpt><trkpt lat="43.80335231825338" lon="11.576395268895164"><ele>848.0000000000001</ele><time>2026-05-04T16:23:58Z</time></trkpt><trkpt lat="43.8034322564522" lon="11.576360622983099"><ele>848.0</ele><time>2026-05-04T16:23:59Z</time></trkpt><trkpt lat="43.80351317169946" lon="11.576282409950455"><ele>844.5999999999999</ele><time>2026-05-04T16:24:00Z</time></trkpt><trkpt lat="43.80359527959442" lon="11.576214325189706"><ele>841.1999999999999</ele><time>2026-05-04T16:24:02Z</time></trkpt><trkpt lat="43.80366558840549" lon="11.576260764387506"><ele>837.8</ele><time>2026-05-04T16:24:03.999Z</time></trkpt><trkpt lat="43.80373250485236" lon="11.57637755177296"><ele>834.4</ele><time>2026-05-04T16:24:05.999Z</time></trkpt><trkpt lat="43.803801875818905" lon="11.57652867075434"><ele>831.0</ele><time>2026-05-04T16:24:07.999Z</time></trkpt><trkpt lat="43.80384122737164" lon="11.57662326538852"><ele>831.0</ele><time>2026-05-04T16:24:08.999Z</time></trkpt><trkpt lat="43.80389267956692" lon="11.576716592868438"><ele>831.0</ele><time>2026-05-04T16:24:09.999Z</time></trkpt><trkpt lat="43.803938029464035" lon="11.576809231359697"><ele>831.0</ele><time>2026-05-04T16:24:10.999Z</time></trkpt><trkpt lat="43.80399666381484" lon="11.57692713393098"><ele>831.0</ele><time>2026-05-04T16:24:12.999Z</time></trkpt><trkpt lat="43.804071046728964" lon="11.577009862644903"><ele>831.0</ele><time>2026-05-04T16:24:14.999Z</time></trkpt><trkpt lat="43.80413148531549" lon="11.576916286928398"><ele>830.9999999999999</ele><time>2026-05-04T16:24:17.999Z</time></trkpt><trkpt lat="43.804176337196864" lon="11.576842165528301"><ele>831.0</ele><time>2026-05-04T16:24:19.999Z</time></trkpt><trkpt lat="43.80425286637692" lon="11.576736745485027"><ele>831.0</ele><time>2026-05-04T16:24:21.999Z</time></trkpt><trkpt lat="43.80428570418126" lon="11.576659780068812"><ele>831.0</ele><time>2026-05-04T16:24:22.999Z</time></trkpt><trkpt lat="43.80430783447477" lon="11.576576133122664"><ele>831.0</ele><time>2026-05-04T16:24:23.999Z</time></trkpt><trkpt lat="43.80432981640805" lon="11.576486457292273"><ele>830.9999999999999</ele><time>2026-05-04T16:24:24.999Z</time></trkpt><trkpt lat="43.80434435467438" lon="11.576389605850903"><ele>831.0</ele><time>2026-05-04T16:24:25.999Z</time></trkpt><trkpt lat="43.80436302662872" lon="11.576277125837594"><ele>833.3333333333334</ele><time>2026-05-04T16:24:26.999Z</time></trkpt><trkpt lat="43.804385800853034" lon="11.576159209457089"><ele>835.6666666666667</ele><time>2026-05-04T16:24:27.999Z</time></trkpt><trkpt lat="43.804402636859884" lon="11.576045906563545"><ele>838.0</ele><time>2026-05-04T16:24:28.999Z</time></trkpt><trkpt lat="43.804422770616625" lon="11.575934296426583"><ele>840.3333333333334</ele><time>2026-05-04T16:24:29.999Z</time></trkpt><trkpt lat="43.80442927030257" lon="11.57583374790343"><ele>842.6666666666667</ele><time>2026-05-04T16:24:30.999Z</time></trkpt><trkpt lat="43.80443188568084" lon="11.575667349037188"><ele>845.0</ele><time>2026-05-04T16:24:32.999Z</time></trkpt><trkpt lat="43.80443208711663" lon="11.575574556399964"><ele>844.9999999999999</ele><time>2026-05-04T16:24:33.999Z</time></trkpt><trkpt lat="43.804432548274235" lon="11.575473807516154"><ele>845.0</ele><time>2026-05-04T16:24:34.999Z</time></trkpt><trkpt lat="43.80443246890418" lon="11.57537844074056"><ele>845.0</ele><time>2026-05-04T16:24:35.999Z</time></trkpt><trkpt lat="43.80443089624412" lon="11.575281308333846"><ele>845.0</ele><time>2026-05-04T16:24:36.999Z</time></trkpt><trkpt lat="43.80442929819089" lon="11.57518260735266"><ele>845.0</ele><time>2026-05-04T16:24:37.999Z</time></trkpt><trkpt lat="43.80442013915412" lon="11.575072543206867"><ele>844.9999999999999</ele><time>2026-05-04T16:24:38.999Z</time></trkpt><trkpt lat="43.80442003029796" lon="11.57496367550228"><ele>845.0</ele><time>2026-05-04T16:24:39.999Z</time></trkpt><trkpt lat="43.80444310291841" lon="11.574844874075787"><ele>844.1666666666667</ele><time>2026-05-04T16:24:40.999Z</time></trkpt><trkpt lat="43.80447988640482" lon="11.57473608848373"><ele>843.3333333333334</ele><time>2026-05-04T16:24:41.999Z</time></trkpt><trkpt lat="43.80449812768993" lon="11.574626158629183"><ele>842.5</ele><time>2026-05-04T16:24:42.999Z</time></trkpt><trkpt lat="43.804506856617806" lon="11.574511488117885"><ele>841.6666666666667</ele><time>2026-05-04T16:24:43.999Z</time></trkpt><trkpt lat="43.8044671720643" lon="11.574396964204192"><ele>840.8333333333334</ele><time>2026-05-04T16:24:44.999Z</time></trkpt><trkpt lat="43.804450224975966" lon="11.574279913262682"><ele>840.0</ele><time>2026-05-04T16:24:45.999Z</time></trkpt><trkpt lat="43.80446560442009" lon="11.574155926912919"><ele>839.2</ele><time>2026-05-04T16:24:46.999Z</time></trkpt><trkpt lat="43.80446658936187" lon="11.574029213821078"><ele>838.4</ele><time>2026-05-04T16:24:47.999Z</time></trkpt><trkpt lat="43.80450257066054" lon="11.573895214162851"><ele>837.5999999999999</ele><time>2026-05-04T16:24:48.999Z</time></trkpt><trkpt lat="43.80450524730878" lon="11.573750230365498"><ele>836.8</ele><time>2026-05-04T16:24:49.999Z</time></trkpt><trkpt lat="43.80450847430952" lon="11.573606107537442"><ele>836.0</ele><time>2026-05-04T16:24:50.999Z</time></trkpt><trkpt lat="43.804513465277836" lon="11.573452524270579"><ele>834.1999999999999</ele><time>2026-05-04T16:24:51.999Z</time></trkpt><trkpt lat="43.804534926992396" lon="11.573295772390125"><ele>832.4</ele><time>2026-05-04T16:24:52.999Z</time></trkpt><trkpt lat="43.80457346862269" lon="11.573158687611626"><ele>830.6</ele><time>2026-05-04T16:24:53.999Z</time></trkpt><trkpt lat="43.804601158013064" lon="11.573030969919568"><ele>828.8</ele><time>2026-05-04T16:24:54.999Z</time></trkpt><trkpt lat="43.80462914800131" lon="11.57291972260038"><ele>827.0</ele><time>2026-05-04T16:24:55.999Z</time></trkpt><trkpt lat="43.80465102801435" lon="11.572813129581078"><ele>824.6666666666667</ele><time>2026-05-04T16:24:56.999Z</time></trkpt><trkpt lat="43.8047068964257" lon="11.572726339314205"><ele>822.3333333333334</ele><time>2026-05-04T16:24:57.999Z</time></trkpt><trkpt lat="43.8047735302266" lon="11.572682538625308"><ele>820.0</ele><time>2026-05-04T16:24:58.999Z</time></trkpt><trkpt lat="43.804860067170644" lon="11.57266816548846"><ele>817.6666666666667</ele><time>2026-05-04T16:24:59.999Z</time></trkpt><trkpt lat="43.80492826447897" lon="11.57265161325036"><ele>815.3333333333334</ele><time>2026-05-04T16:25:00.999Z</time></trkpt><trkpt lat="43.804998526940594" lon="11.572607558279108"><ele>813.0</ele><time>2026-05-04T16:25:01.999Z</time></trkpt><trkpt lat="43.805046394033674" lon="11.57254269229568"><ele>813.0</ele><time>2026-05-04T16:25:02.999Z</time></trkpt><trkpt lat="43.80507412172103" lon="11.572447952138466"><ele>813.0</ele><time>2026-05-04T16:25:03.999Z</time></trkpt><trkpt lat="43.80508955482375" lon="11.572338055892622"><ele>813.0</ele><time>2026-05-04T16:25:04.999Z</time></trkpt><trkpt lat="43.805043210879624" lon="11.572213051544171"><ele>813.0</ele><time>2026-05-04T16:25:05.999Z</time></trkpt><trkpt lat="43.80503043359013" lon="11.572076939824678"><ele>813.0</ele><time>2026-05-04T16:25:06.999Z</time></trkpt><trkpt lat="43.80506395431592" lon="11.571940000824453"><ele>810.5999999999999</ele><time>2026-05-04T16:25:07.999Z</time></trkpt><trkpt lat="43.8050720912334" lon="11.571794471363315"><ele>808.1999999999999</ele><time>2026-05-04T16:25:08.999Z</time></trkpt><trkpt lat="43.80509317298959" lon="11.571640013152017"><ele>805.8</ele><time>2026-05-04T16:25:09.999Z</time></trkpt><trkpt lat="43.805096594527114" lon="11.571486530171686"><ele>803.4</ele><time>2026-05-04T16:25:10.999Z</time></trkpt><trkpt lat="43.805064497691475" lon="11.571330023969882"><ele>801.0</ele><time>2026-05-04T16:25:11.999Z</time></trkpt><trkpt lat="43.8050574729842" lon="11.571184400774431"><ele>799.5999999999999</ele><time>2026-05-04T16:25:12.999Z</time></trkpt><trkpt lat="43.80507041814617" lon="11.571045784901875"><ele>798.2</ele><time>2026-05-04T16:25:13.999Z</time></trkpt><trkpt lat="43.80508624474486" lon="11.570902357916616"><ele>796.8</ele><time>2026-05-04T16:25:14.999Z</time></trkpt><trkpt lat="43.805088718421814" lon="11.570748327196897"><ele>795.4000000000001</ele><time>2026-05-04T16:25:15.999Z</time></trkpt><trkpt lat="43.8051026087477" lon="11.570581435967917"><ele>794.0</ele><time>2026-05-04T16:25:16.999Z</time></trkpt><trkpt lat="43.805127286601596" lon="11.57042046796658"><ele>792.25</ele><time>2026-05-04T16:25:18Z</time></trkpt><trkpt lat="43.80514902254175" lon="11.570255363452253"><ele>790.5</ele><time>2026-05-04T16:25:19Z</time></trkpt><trkpt lat="43.805164066546254" lon="11.570099534736135"><ele>788.75</ele><time>2026-05-04T16:25:20Z</time></trkpt><trkpt lat="43.80519729397052" lon="11.569947897143308"><ele>787.0</ele><time>2026-05-04T16:25:21Z</time></trkpt><trkpt lat="43.80520648071465" lon="11.569787949876018"><ele>790.4000000000001</ele><time>2026-05-04T16:25:22Z</time></trkpt><trkpt lat="43.80524619478577" lon="11.569648675871132"><ele>793.8000000000001</ele><time>2026-05-04T16:25:23Z</time></trkpt><trkpt lat="43.805270333107885" lon="11.569507475794996"><ele>797.2</ele><time>2026-05-04T16:25:24Z</time></trkpt><trkpt lat="43.80529905628417" lon="11.569381980895342"><ele>800.6</ele><time>2026-05-04T16:25:25Z</time></trkpt><trkpt lat="43.80534445745172" lon="11.569259255076469"><ele>804.0</ele><time>2026-05-04T16:25:26Z</time></trkpt><trkpt lat="43.8053935956635" lon="11.569130955579027"><ele>804.0</ele><time>2026-05-04T16:25:27Z</time></trkpt><trkpt lat="43.80542663577305" lon="11.56898933338798"><ele>804.0</ele><time>2026-05-04T16:25:28Z</time></trkpt><trkpt lat="43.80547543006084" lon="11.568896104619087"><ele>804.0</ele><time>2026-05-04T16:25:29Z</time></trkpt><trkpt lat="43.80552251047435" lon="11.568800328575957"><ele>804.0</ele><time>2026-05-04T16:25:30Z</time></trkpt><trkpt lat="43.805578518328126" lon="11.568728541065942"><ele>804.0</ele><time>2026-05-04T16:25:31Z</time></trkpt><trkpt lat="43.80563852129301" lon="11.568640086860702"><ele>804.0</ele><time>2026-05-04T16:25:32Z</time></trkpt><trkpt lat="43.80572477961952" lon="11.568579291600697"><ele>800.0</ele><time>2026-05-04T16:25:33Z</time></trkpt><trkpt lat="43.80577228925894" lon="11.568517007245836"><ele>796.0</ele><time>2026-05-04T16:25:34Z</time></trkpt><trkpt lat="43.80585176795683" lon="11.568461248239428"><ele>792.0</ele><time>2026-05-04T16:25:35Z</time></trkpt><trkpt lat="43.80594846603696" lon="11.568418299820898"><ele>788.0</ele><time>2026-05-04T16:25:37Z</time></trkpt><trkpt lat="43.80604018412346" lon="11.568518460452449"><ele>784.0</ele><time>2026-05-04T16:25:39Z</time></trkpt><trkpt lat="43.806096335211656" lon="11.568570423688975"><ele>780.0</ele><time>2026-05-04T16:25:40Z</time></trkpt><trkpt lat="43.806174751398096" lon="11.568624047723368"><ele>777.8</ele><time>2026-05-04T16:25:41Z</time></trkpt><trkpt lat="43.806254413168325" lon="11.568664533716168"><ele>775.6</ele><time>2026-05-04T16:25:42Z</time></trkpt><trkpt lat="43.806345832147294" lon="11.568720717011534"><ele>773.4000000000001</ele><time>2026-05-04T16:25:43Z</time></trkpt><trkpt lat="43.80643150744711" lon="11.568785455702068"><ele>771.2</ele><time>2026-05-04T16:25:44Z</time></trkpt><trkpt lat="43.80649435042563" lon="11.568887759846818"><ele>769.0</ele><time>2026-05-04T16:25:45Z</time></trkpt><trkpt lat="43.80658032341643" lon="11.568967790242581"><ele>773.1666666666666</ele><time>2026-05-04T16:25:46Z</time></trkpt><trkpt lat="43.806631438715385" lon="11.569061511258612"><ele>777.3333333333333</ele><time>2026-05-04T16:25:47Z</time></trkpt><trkpt lat="43.8066958235274" lon="11.56915622904959"><ele>781.5</ele><time>2026-05-04T16:25:48Z</time></trkpt><trkpt lat="43.80676876222322" lon="11.569216842563483"><ele>785.6666666666667</ele><time>2026-05-04T16:25:49Z</time></trkpt><trkpt lat="43.806854706543454" lon="11.569249651794042"><ele>789.8333333333334</ele><time>2026-05-04T16:25:50Z</time></trkpt><trkpt lat="43.80694139866573" lon="11.569264202165026"><ele>794.0</ele><time>2026-05-04T16:25:51Z</time></trkpt><trkpt lat="43.807035534963326" lon="11.569265632474101"><ele>794.0</ele><time>2026-05-04T16:25:52Z</time></trkpt><trkpt lat="43.80712385429389" lon="11.569231153080635"><ele>794.0</ele><time>2026-05-04T16:25:53Z</time></trkpt><trkpt lat="43.80720840679954" lon="11.569172540989097"><ele>794.0</ele><time>2026-05-04T16:25:54Z</time></trkpt><trkpt lat="43.807277125482045" lon="11.569087802435496"><ele>794.0</ele><time>2026-05-04T16:25:55Z</time></trkpt><trkpt lat="43.807348367744964" lon="11.56898627051224"><ele>794.0</ele><time>2026-05-04T16:25:56Z</time></trkpt><trkpt lat="43.8074247452984" lon="11.568885030391925"><ele>794.0</ele><time>2026-05-04T16:25:57Z</time></trkpt><trkpt lat="43.80750975616786" lon="11.568788006221197"><ele>794.0</ele><time>2026-05-04T16:25:58Z</time></trkpt><trkpt lat="43.8075814327225" lon="11.568680185936463"><ele>794.0</ele><time>2026-05-04T16:25:58.999Z</time></trkpt><trkpt lat="43.80767296000735" lon="11.568573130218432"><ele>794.0</ele><time>2026-05-04T16:25:59.999Z</time></trkpt><trkpt lat="43.807751882359874" lon="11.568470025395172"><ele>794.0</ele><time>2026-05-04T16:26:00.999Z</time></trkpt><trkpt lat="43.80782419684179" lon="11.568377797855263"><ele>793.1666666666667</ele><time>2026-05-04T16:26:01.999Z</time></trkpt><trkpt lat="43.807888007853826" lon="11.568294847952311"><ele>792.3333333333334</ele><time>2026-05-04T16:26:02.999Z</time></trkpt><trkpt lat="43.80795776706789" lon="11.568244298070729"><ele>791.5</ele><time>2026-05-04T16:26:03.999Z</time></trkpt><trkpt lat="43.808001944706994" lon="11.568179780300218"><ele>790.6666666666667</ele><time>2026-05-04T16:26:04.999Z</time></trkpt><trkpt lat="43.808089509972056" lon="11.568126217582558"><ele>789.8333333333334</ele><time>2026-05-04T16:26:06.999Z</time></trkpt><trkpt lat="43.80816177400571" lon="11.568112490010261"><ele>789.0</ele><time>2026-05-04T16:26:08.999Z</time></trkpt><trkpt lat="43.80824623472715" lon="11.568173084219373"><ele>789.0</ele><time>2026-05-04T16:26:11.999Z</time></trkpt><trkpt lat="43.80835235089284" lon="11.56819252253182"><ele>789.0</ele><time>2026-05-04T16:26:12.999Z</time></trkpt><trkpt lat="43.80844715071843" lon="11.568142073870314"><ele>789.0</ele><time>2026-05-04T16:26:13.999Z</time></trkpt><trkpt lat="43.808529198880784" lon="11.568020040748388"><ele>789.0</ele><time>2026-05-04T16:26:14.999Z</time></trkpt><trkpt lat="43.808616659722745" lon="11.567914606302784"><ele>789.0</ele><time>2026-05-04T16:26:16.999Z</time></trkpt><trkpt lat="43.8086729264928" lon="11.567854929756162"><ele>778.5</ele><time>2026-05-04T16:26:17.999Z</time></trkpt><trkpt lat="43.80872722088115" lon="11.567797345112087"><ele>768.0</ele><time>2026-05-04T16:26:18.999Z</time></trkpt><trkpt lat="43.80911553788864" lon="11.567702198157786"><ele>768.0</ele><time>2026-05-04T16:26:23.999Z</time></trkpt><trkpt lat="43.80915783385501" lon="11.567616012103045"><ele>768.0</ele><time>2026-05-04T16:26:26.999Z</time></trkpt><trkpt lat="43.80922845269845" lon="11.567549930456208"><ele>768.0</ele><time>2026-05-04T16:26:27.999Z</time></trkpt><trkpt lat="43.809066907583095" lon="11.56707702850518"><ele>768.0</ele><time>2026-05-04T16:27:07.999Z</time></trkpt><trkpt lat="43.80896904256006" lon="11.567208647155324"><ele>768.0</ele><time>2026-05-04T16:27:20.999Z</time></trkpt><trkpt lat="43.80890757091329" lon="11.567301494393382"><ele>768.0</ele><time>2026-05-04T16:27:21.999Z</time></trkpt><trkpt lat="43.80882225519129" lon="11.567366620029661"><ele>768.0</ele><time>2026-05-04T16:27:22.999Z</time></trkpt><trkpt lat="43.808759042374994" lon="11.567407954651543"><ele>768.0</ele><time>2026-05-04T16:27:24Z</time></trkpt><trkpt lat="43.80869461740214" lon="11.567521327150308"><ele>768.0</ele><time>2026-05-04T16:27:26Z</time></trkpt><trkpt lat="43.80863804430704" lon="11.567612122301421"><ele>768.0</ele><time>2026-05-04T16:27:27Z</time></trkpt><trkpt lat="43.80857373876046" lon="11.567696454281789"><ele>768.0</ele><time>2026-05-04T16:27:28Z</time></trkpt><trkpt lat="43.80857008657492" lon="11.567898103453787"><ele>768.0</ele><time>2026-05-04T16:27:29Z</time></trkpt><trkpt lat="43.80849804840227" lon="11.567998086893189"><ele>768.0</ele><time>2026-05-04T16:27:30Z</time></trkpt><trkpt lat="43.8084364812453" lon="11.5681001729236"><ele>773.25</ele><time>2026-05-04T16:27:31Z</time></trkpt><trkpt lat="43.808326984088716" lon="11.56818990181674"><ele>778.5</ele><time>2026-05-04T16:27:32Z</time></trkpt><trkpt lat="43.8081773388235" lon="11.568031238610567"><ele>783.75</ele><time>2026-05-04T16:27:33Z</time></trkpt><trkpt lat="43.808102571957235" lon="11.568092873780596"><ele>789.0</ele><time>2026-05-04T16:27:35Z</time></trkpt><trkpt lat="43.80818000673318" lon="11.568246644514732"><ele>789.0</ele><time>2026-05-04T16:27:40Z</time></trkpt><trkpt lat="43.80825936852263" lon="11.568244453153897"><ele>789.0</ele><time>2026-05-04T16:27:41Z</time></trkpt><trkpt lat="43.80833869357821" lon="11.56822013311711"><ele>789.0</ele><time>2026-05-04T16:27:42Z</time></trkpt><trkpt lat="43.80842561971506" lon="11.56816928062782"><ele>789.0</ele><time>2026-05-04T16:27:43Z</time></trkpt><trkpt lat="43.808502020670176" lon="11.568086826669116"><ele>789.0</ele><time>2026-05-04T16:27:44Z</time></trkpt><trkpt lat="43.80857463179092" lon="11.56800492192908"><ele>789.0</ele><time>2026-05-04T16:27:45Z</time></trkpt><trkpt lat="43.80863123861011" lon="11.567913280432018"><ele>790.0</ele><time>2026-05-04T16:27:46Z</time></trkpt><trkpt lat="43.808728235952316" lon="11.567901108611863"><ele>791.0</ele><time>2026-05-04T16:27:47Z</time></trkpt><trkpt lat="43.80882229664722" lon="11.56788193825516"><ele>792.0</ele><time>2026-05-04T16:27:48Z</time></trkpt><trkpt lat="43.808917314680734" lon="11.56785480548436"><ele>793.0</ele><time>2026-05-04T16:27:49Z</time></trkpt><trkpt lat="43.809005599796336" lon="11.567818960891909"><ele>794.0</ele><time>2026-05-04T16:27:49.999Z</time></trkpt><trkpt lat="43.809081928690354" lon="11.567767797610612"><ele>790.4000000000001</ele><time>2026-05-04T16:27:50.999Z</time></trkpt><trkpt lat="43.80915161372911" lon="11.56767758639384"><ele>786.8</ele><time>2026-05-04T16:27:51.999Z</time></trkpt><trkpt lat="43.80921076131065" lon="11.567580297785293"><ele>783.2</ele><time>2026-05-04T16:27:52.999Z</time></trkpt><trkpt lat="43.80928767681112" lon="11.567495087348748"><ele>779.5999999999999</ele><time>2026-05-04T16:27:53.999Z</time></trkpt><trkpt lat="43.80938271664348" lon="11.567428014725248"><ele>776.0</ele><time>2026-05-04T16:27:54.999Z</time></trkpt><trkpt lat="43.80947228886459" lon="11.567382480170645"><ele>776.0</ele><time>2026-05-04T16:27:55.999Z</time></trkpt><trkpt lat="43.809565994085695" lon="11.567347303610902"><ele>776.0</ele><time>2026-05-04T16:27:56.999Z</time></trkpt><trkpt lat="43.80966709549231" lon="11.567338500358437"><ele>776.0</ele><time>2026-05-04T16:27:57.999Z</time></trkpt><trkpt lat="43.8097808962475" lon="11.567346039949284"><ele>776.0</ele><time>2026-05-04T16:27:58.999Z</time></trkpt><trkpt lat="43.80988010135287" lon="11.567362313974797"><ele>776.0</ele><time>2026-05-04T16:27:59.999Z</time></trkpt><trkpt lat="43.80997612249799" lon="11.567344905814801"><ele>776.0</ele><time>2026-05-04T16:28:00.999Z</time></trkpt><trkpt lat="43.810076542153254" lon="11.567298047847258"><ele>776.0</ele><time>2026-05-04T16:28:01.999Z</time></trkpt><trkpt lat="43.81017264283266" lon="11.567239133395255"><ele>776.0</ele><time>2026-05-04T16:28:02.999Z</time></trkpt><trkpt lat="43.81027613819382" lon="11.567180570809235"><ele>776.0</ele><time>2026-05-04T16:28:03.999Z</time></trkpt><trkpt lat="43.810375640696726" lon="11.567104992095372"><ele>776.0</ele><time>2026-05-04T16:28:04.999Z</time></trkpt><trkpt lat="43.81045762109557" lon="11.567015205924129"><ele>773.5</ele><time>2026-05-04T16:28:05.999Z</time></trkpt><trkpt lat="43.81051408047726" lon="11.566882438875009"><ele>771.0</ele><time>2026-05-04T16:28:06.999Z</time></trkpt><trkpt lat="43.810588250295226" lon="11.566761051069765"><ele>768.5</ele><time>2026-05-04T16:28:07.999Z</time></trkpt><trkpt lat="43.810675301275396" lon="11.566640259957305"><ele>766.0</ele><time>2026-05-04T16:28:08.999Z</time></trkpt><trkpt lat="43.81073903872309" lon="11.566508260932427"><ele>766.0</ele><time>2026-05-04T16:28:09.999Z</time></trkpt><trkpt lat="43.81081728308804" lon="11.566409832285185"><ele>766.0</ele><time>2026-05-04T16:28:10.999Z</time></trkpt><trkpt lat="43.81090318719282" lon="11.56632677183397"><ele>766.0</ele><time>2026-05-04T16:28:11.999Z</time></trkpt><trkpt lat="43.81101049701278" lon="11.56629060253013"><ele>766.0</ele><time>2026-05-04T16:28:12.999Z</time></trkpt><trkpt lat="43.811104527564645" lon="11.566232230009415"><ele>766.0</ele><time>2026-05-04T16:28:13.999Z</time></trkpt><trkpt lat="43.81118355833014" lon="11.566164881552357"><ele>766.4</ele><time>2026-05-04T16:28:14.999Z</time></trkpt><trkpt lat="43.81125123129039" lon="11.566091915374662"><ele>766.8</ele><time>2026-05-04T16:28:15.999Z</time></trkpt><trkpt lat="43.811321912861054" lon="11.566000397416726"><ele>767.1999999999999</ele><time>2026-05-04T16:28:16.999Z</time></trkpt><trkpt lat="43.811346812307065" lon="11.565864423707154"><ele>767.5999999999999</ele><time>2026-05-04T16:28:17.999Z</time></trkpt><trkpt lat="43.81132741628236" lon="11.565731701659892"><ele>768.0</ele><time>2026-05-04T16:28:18.999Z</time></trkpt><trkpt lat="43.81130532135758" lon="11.565609806463577"><ele>768.0</ele><time>2026-05-04T16:28:19.999Z</time></trkpt><trkpt lat="43.811292984791464" lon="11.565479728953022"><ele>768.0</ele><time>2026-05-04T16:28:20.999Z</time></trkpt><trkpt lat="43.8112894678063" lon="11.565354055543764"><ele>768.0</ele><time>2026-05-04T16:28:21.999Z</time></trkpt><trkpt lat="43.81132390839379" lon="11.565252194141062"><ele>768.0</ele><time>2026-05-04T16:28:22.999Z</time></trkpt><trkpt lat="43.811353609963305" lon="11.565158994229346"><ele>768.0</ele><time>2026-05-04T16:28:23.999Z</time></trkpt><trkpt lat="43.811446162819685" lon="11.565114406167943"><ele>768.0</ele><time>2026-05-04T16:28:24.999Z</time></trkpt><trkpt lat="43.81151756611488" lon="11.56503494031046"><ele>765.4</ele><time>2026-05-04T16:28:25.999Z</time></trkpt><trkpt lat="43.81157575009833" lon="11.564928207524684"><ele>762.8</ele><time>2026-05-04T16:28:26.999Z</time></trkpt><trkpt lat="43.81161142077537" lon="11.564813885363284"><ele>760.2</ele><time>2026-05-04T16:28:27.999Z</time></trkpt><trkpt lat="43.811671444579986" lon="11.564695014127627"><ele>757.6</ele><time>2026-05-04T16:28:28.999Z</time></trkpt><trkpt lat="43.8117485104664" lon="11.564604271800137"><ele>755.0</ele><time>2026-05-04T16:28:29.999Z</time></trkpt><trkpt lat="43.811819037332164" lon="11.56448018198143"><ele>755.6</ele><time>2026-05-04T16:28:30.999Z</time></trkpt><trkpt lat="43.811899475892574" lon="11.564384431202576"><ele>756.2</ele><time>2026-05-04T16:28:31.999Z</time></trkpt><trkpt lat="43.81197642767453" lon="11.56429546851857"><ele>756.8</ele><time>2026-05-04T16:28:32.999Z</time></trkpt><trkpt lat="43.812032968806236" lon="11.564199280068337"><ele>757.4</ele><time>2026-05-04T16:28:33.999Z</time></trkpt><trkpt lat="43.81205743781632" lon="11.5640949521715"><ele>758.0</ele><time>2026-05-04T16:28:34.999Z</time></trkpt><trkpt lat="43.81208197703442" lon="11.56397591187104"><ele>758.0</ele><time>2026-05-04T16:28:35.999Z</time></trkpt><trkpt lat="43.812084979665805" lon="11.563855858118938"><ele>758.0</ele><time>2026-05-04T16:28:36.999Z</time></trkpt><trkpt lat="43.81210568409371" lon="11.56372286842876"><ele>758.0</ele><time>2026-05-04T16:28:37.999Z</time></trkpt><trkpt lat="43.812137370515444" lon="11.563606432448273"><ele>758.0</ele><time>2026-05-04T16:28:38.999Z</time></trkpt><trkpt lat="43.812212784967166" lon="11.563516769420785"><ele>758.0</ele><time>2026-05-04T16:28:39.999Z</time></trkpt><trkpt lat="43.8122719929362" lon="11.563399524322506"><ele>756.4</ele><time>2026-05-04T16:28:40.999Z</time></trkpt><trkpt lat="43.81232749109249" lon="11.56328350460837"><ele>754.8</ele><time>2026-05-04T16:28:41.999Z</time></trkpt><trkpt lat="43.81235511973346" lon="11.563154737087023"><ele>753.2</ele><time>2026-05-04T16:28:42.999Z</time></trkpt><trkpt lat="43.812394428133274" lon="11.563033747478336"><ele>751.6</ele><time>2026-05-04T16:28:43.999Z</time></trkpt><trkpt lat="43.81244015366728" lon="11.56290861768069"><ele>750.0</ele><time>2026-05-04T16:28:44.999Z</time></trkpt><trkpt lat="43.812506795667176" lon="11.562776344361229"><ele>747.4</ele><time>2026-05-04T16:28:45.999Z</time></trkpt><trkpt lat="43.812575752045944" lon="11.562660988816843"><ele>744.8</ele><time>2026-05-04T16:28:46.999Z</time></trkpt><trkpt lat="43.812631479794945" lon="11.56254004144706"><ele>742.2</ele><time>2026-05-04T16:28:47.999Z</time></trkpt><trkpt lat="43.812680395886076" lon="11.562444433817651"><ele>739.6</ele><time>2026-05-04T16:28:48.999Z</time></trkpt><trkpt lat="43.81274054842933" lon="11.562331474256128"><ele>737.0</ele><time>2026-05-04T16:28:49.999Z</time></trkpt><trkpt lat="43.81280371634102" lon="11.562249889715206"><ele>737.0</ele><time>2026-05-04T16:28:50.999Z</time></trkpt><trkpt lat="43.81287157826711" lon="11.562185744126724"><ele>737.0</ele><time>2026-05-04T16:28:51.999Z</time></trkpt><trkpt lat="43.81295721705022" lon="11.562150031160519"><ele>737.0</ele><time>2026-05-04T16:28:52.999Z</time></trkpt><trkpt lat="43.81304776220469" lon="11.56213241506327"><ele>737.0</ele><time>2026-05-04T16:28:53.999Z</time></trkpt><trkpt lat="43.813135264537294" lon="11.562094807895898"><ele>737.0</ele><time>2026-05-04T16:28:54.999Z</time></trkpt><trkpt lat="43.81321088894459" lon="11.562059303842839"><ele>737.0</ele><time>2026-05-04T16:28:55.999Z</time></trkpt><trkpt lat="43.81328251125697" lon="11.562057273182129"><ele>737.0</ele><time>2026-05-04T16:28:56.999Z</time></trkpt><trkpt lat="43.81334146617852" lon="11.562125253861561"><ele>737.0</ele><time>2026-05-04T16:28:57.999Z</time></trkpt><trkpt lat="43.813391242401146" lon="11.562204789819573"><ele>737.0</ele><time>2026-05-04T16:28:58.999Z</time></trkpt><trkpt lat="43.81346195494248" lon="11.562242797249114"><ele>737.0</ele><time>2026-05-04T16:28:59.999Z</time></trkpt><trkpt lat="43.8135519298252" lon="11.56223669113735"><ele>737.0</ele><time>2026-05-04T16:29:00.999Z</time></trkpt><trkpt lat="43.813625507226874" lon="11.56216929768774"><ele>737.0</ele><time>2026-05-04T16:29:01.999Z</time></trkpt><trkpt lat="43.81369387159532" lon="11.562070303467445"><ele>734.2</ele><time>2026-05-04T16:29:02.999Z</time></trkpt><trkpt lat="43.81378336185362" lon="11.561994499157926"><ele>731.4000000000001</ele><time>2026-05-04T16:29:03.999Z</time></trkpt><trkpt lat="43.813863186516514" lon="11.561892838987411"><ele>728.5999999999999</ele><time>2026-05-04T16:29:04.999Z</time></trkpt><trkpt lat="43.81393572371362" lon="11.561771131292971"><ele>725.8</ele><time>2026-05-04T16:29:05.999Z</time></trkpt><trkpt lat="43.814014155796634" lon="11.561656625187684"><ele>723.0</ele><time>2026-05-04T16:29:06.999Z</time></trkpt><trkpt lat="43.81408215134025" lon="11.561540074623366"><ele>723.0</ele><time>2026-05-04T16:29:07.999Z</time></trkpt><trkpt lat="43.81416801177561" lon="11.561448470865868"><ele>723.0</ele><time>2026-05-04T16:29:08.999Z</time></trkpt><trkpt lat="43.81422308798733" lon="11.561324711305236"><ele>723.0</ele><time>2026-05-04T16:29:09.999Z</time></trkpt><trkpt lat="43.81426976405925" lon="11.561226614722733"><ele>723.0</ele><time>2026-05-04T16:29:10.999Z</time></trkpt><trkpt lat="43.81429505158863" lon="11.561112626082556"><ele>723.0</ele><time>2026-05-04T16:29:11.999Z</time></trkpt><trkpt lat="43.81431458277" lon="11.560992839056143"><ele>724.1666666666666</ele><time>2026-05-04T16:29:12.999Z</time></trkpt><trkpt lat="43.81432978746867" lon="11.560880326085261"><ele>725.3333333333334</ele><time>2026-05-04T16:29:13.999Z</time></trkpt><trkpt lat="43.81435170290525" lon="11.560762546246611"><ele>726.5</ele><time>2026-05-04T16:29:14.999Z</time></trkpt><trkpt lat="43.814412768342876" lon="11.560676594372495"><ele>727.6666666666667</ele><time>2026-05-04T16:29:15.999Z</time></trkpt><trkpt lat="43.81444922485592" lon="11.56056888473535"><ele>728.8333333333334</ele><time>2026-05-04T16:29:16.999Z</time></trkpt><trkpt lat="43.81449784572129" lon="11.560476910346773"><ele>730.0</ele><time>2026-05-04T16:29:17.999Z</time></trkpt><trkpt lat="43.81453459986679" lon="11.560374089017298"><ele>727.7142857142858</ele><time>2026-05-04T16:29:18.999Z</time></trkpt><trkpt lat="43.814542192028284" lon="11.560266745143354"><ele>725.4285714285714</ele><time>2026-05-04T16:29:19.999Z</time></trkpt><trkpt lat="43.814572360087126" lon="11.560169537463208"><ele>723.1428571428571</ele><time>2026-05-04T16:29:20.999Z</time></trkpt><trkpt lat="43.81457326028135" lon="11.560070877896903"><ele>720.8571428571429</ele><time>2026-05-04T16:29:21.999Z</time></trkpt><trkpt lat="43.814569534991854" lon="11.559980045859296"><ele>718.5714285714286</ele><time>2026-05-04T16:29:22.999Z</time></trkpt><trkpt lat="43.8145615941879" lon="11.559879516211149"><ele>716.2857142857143</ele><time>2026-05-04T16:29:23.999Z</time></trkpt><trkpt lat="43.814563301420776" lon="11.559783463911412"><ele>714.0</ele><time>2026-05-04T16:29:24.999Z</time></trkpt><trkpt lat="43.81461358858459" lon="11.559635296601412"><ele>714.0</ele><time>2026-05-04T16:29:26.999Z</time></trkpt><trkpt lat="43.814681865084744" lon="11.559602458658487"><ele>714.0</ele><time>2026-05-04T16:29:27.999Z</time></trkpt><trkpt lat="43.81475381878269" lon="11.559594451674778"><ele>714.0</ele><time>2026-05-04T16:29:28.999Z</time></trkpt><trkpt lat="43.814837730843" lon="11.559619827962969"><ele>714.0</ele><time>2026-05-04T16:29:29.999Z</time></trkpt><trkpt lat="43.81492770276848" lon="11.559572205652445"><ele>714.0</ele><time>2026-05-04T16:29:30.999Z</time></trkpt><trkpt lat="43.81502477379816" lon="11.559558331982325"><ele>714.0</ele><time>2026-05-04T16:29:31.999Z</time></trkpt><trkpt lat="43.8151250251253" lon="11.55949617804242"><ele>714.8000000000001</ele><time>2026-05-04T16:29:32.999Z</time></trkpt><trkpt lat="43.815203267885664" lon="11.559388049145067"><ele>715.6</ele><time>2026-05-04T16:29:33.999Z</time></trkpt><trkpt lat="43.81529042508833" lon="11.559319901787857"><ele>716.4</ele><time>2026-05-04T16:29:34.999Z</time></trkpt><trkpt lat="43.81536072495598" lon="11.559221865939545"><ele>717.2</ele><time>2026-05-04T16:29:35.999Z</time></trkpt><trkpt lat="43.815417821271346" lon="11.559117885539724"><ele>718.0</ele><time>2026-05-04T16:29:36.999Z</time></trkpt><trkpt lat="43.8154566023394" lon="11.558990511976894"><ele>718.0</ele><time>2026-05-04T16:29:37.999Z</time></trkpt><trkpt lat="43.815481541744326" lon="11.558844336483569"><ele>718.0</ele><time>2026-05-04T16:29:38.999Z</time></trkpt><trkpt lat="43.81551884898579" lon="11.558706989177812"><ele>718.0</ele><time>2026-05-04T16:29:39.999Z</time></trkpt><trkpt lat="43.815575930561046" lon="11.558571122404043"><ele>718.0</ele><time>2026-05-04T16:29:40.999Z</time></trkpt><trkpt lat="43.81563809427097" lon="11.558442357811662"><ele>718.0</ele><time>2026-05-04T16:29:41.999Z</time></trkpt><trkpt lat="43.81569065238283" lon="11.55833663307548"><ele>716.5999999999999</ele><time>2026-05-04T16:29:42.999Z</time></trkpt><trkpt lat="43.81576371763125" lon="11.558248038613508"><ele>715.1999999999999</ele><time>2026-05-04T16:29:43.999Z</time></trkpt><trkpt lat="43.81584321479551" lon="11.558179653802533"><ele>713.8</ele><time>2026-05-04T16:29:44.999Z</time></trkpt><trkpt lat="43.81594111230233" lon="11.558099113350305"><ele>712.4</ele><time>2026-05-04T16:29:45.999Z</time></trkpt><trkpt lat="43.81603681217211" lon="11.558023551107002"><ele>711.0</ele><time>2026-05-04T16:29:46.999Z</time></trkpt><trkpt lat="43.816117937010226" lon="11.557933074164161"><ele>711.0</ele><time>2026-05-04T16:29:47.999Z</time></trkpt><trkpt lat="43.81620399294644" lon="11.557868556649515"><ele>711.0</ele><time>2026-05-04T16:29:48.999Z</time></trkpt><trkpt lat="43.816251472828185" lon="11.557751804160475"><ele>711.0</ele><time>2026-05-04T16:29:49.999Z</time></trkpt><trkpt lat="43.81629008226521" lon="11.557635341367961"><ele>711.0</ele><time>2026-05-04T16:29:50.999Z</time></trkpt><trkpt lat="43.81630758451478" lon="11.557499694888328"><ele>711.0</ele><time>2026-05-04T16:29:51.999Z</time></trkpt><trkpt lat="43.816311839221335" lon="11.557352762057658"><ele>707.4</ele><time>2026-05-04T16:29:52.999Z</time></trkpt><trkpt lat="43.81630845696421" lon="11.557205414500581"><ele>703.8</ele><time>2026-05-04T16:29:53.999Z</time></trkpt><trkpt lat="43.81625832814638" lon="11.557070643817992"><ele>700.1999999999999</ele><time>2026-05-04T16:29:54.999Z</time></trkpt><trkpt lat="43.816217654137574" lon="11.556944907051001"><ele>696.5999999999999</ele><time>2026-05-04T16:29:55.999Z</time></trkpt><trkpt lat="43.81619013940234" lon="11.556826922600584"><ele>693.0</ele><time>2026-05-04T16:29:56.999Z</time></trkpt><trkpt lat="43.81619707817806" lon="11.556711959197408"><ele>691.3333333333334</ele><time>2026-05-04T16:29:57.999Z</time></trkpt><trkpt lat="43.81623259985664" lon="11.556599847994491"><ele>689.6666666666666</ele><time>2026-05-04T16:29:58.999Z</time></trkpt><trkpt lat="43.816295925157505" lon="11.556505351613117"><ele>688.0</ele><time>2026-05-04T16:29:59.999Z</time></trkpt><trkpt lat="43.816364839995636" lon="11.556413224957268"><ele>686.3333333333333</ele><time>2026-05-04T16:30:00.999Z</time></trkpt><trkpt lat="43.816429895644305" lon="11.556327980469305"><ele>684.6666666666666</ele><time>2026-05-04T16:30:01.999Z</time></trkpt><trkpt lat="43.81649860398304" lon="11.556277434778302"><ele>683.0</ele><time>2026-05-04T16:30:02.999Z</time></trkpt><trkpt lat="43.81657056657133" lon="11.556193365257615"><ele>680.2</ele><time>2026-05-04T16:30:04.999Z</time></trkpt><trkpt lat="43.81644261492301" lon="11.556121060920317"><ele>677.4</ele><time>2026-05-04T16:30:06.999Z</time></trkpt><trkpt lat="43.81635438116131" lon="11.556133553800771"><ele>674.6</ele><time>2026-05-04T16:30:07.999Z</time></trkpt><trkpt lat="43.81625872456525" lon="11.55611629289774"><ele>671.8000000000001</ele><time>2026-05-04T16:30:08.999Z</time></trkpt><trkpt lat="43.81616751150667" lon="11.55614122738869"><ele>669.0</ele><time>2026-05-04T16:30:09.999Z</time></trkpt><trkpt lat="43.816086178738836" lon="11.556133759651216"><ele>669.0</ele><time>2026-05-04T16:30:10.999Z</time></trkpt><trkpt lat="43.81601984426185" lon="11.55616165035309"><ele>669.0</ele><time>2026-05-04T16:30:11.999Z</time></trkpt><trkpt lat="43.815953024423386" lon="11.556249730072244"><ele>669.0</ele><time>2026-05-04T16:30:12.999Z</time></trkpt><trkpt lat="43.815894824388" lon="11.556358024042156"><ele>669.0</ele><time>2026-05-04T16:30:13.999Z</time></trkpt><trkpt lat="43.815863080600195" lon="11.55649720109448"><ele>669.0</ele><time>2026-05-04T16:30:14.999Z</time></trkpt><trkpt lat="43.815816882843684" lon="11.55664136598035"><ele>669.0</ele><time>2026-05-04T16:30:15.999Z</time></trkpt><trkpt lat="43.81577552095707" lon="11.55679017612975"><ele>669.0</ele><time>2026-05-04T16:30:16.999Z</time></trkpt><trkpt lat="43.815728042307946" lon="11.55690517429665"><ele>669.0</ele><time>2026-05-04T16:30:17.999Z</time></trkpt><trkpt lat="43.81566073609633" lon="11.556994319940017"><ele>669.0</ele><time>2026-05-04T16:30:18.999Z</time></trkpt><trkpt lat="43.81557147491008" lon="11.557055737621008"><ele>669.0</ele><time>2026-05-04T16:30:19.999Z</time></trkpt><trkpt lat="43.81547120610446" lon="11.557065744456764"><ele>668.2</ele><time>2026-05-04T16:30:20.999Z</time></trkpt><trkpt lat="43.81535615273658" lon="11.557071118591308"><ele>667.4000000000001</ele><time>2026-05-04T16:30:21.999Z</time></trkpt><trkpt lat="43.8152560676566" lon="11.557100904062137"><ele>666.6</ele><time>2026-05-04T16:30:22.999Z</time></trkpt><trkpt lat="43.8151645759256" lon="11.557090866098486"><ele>665.8</ele><time>2026-05-04T16:30:23.999Z</time></trkpt><trkpt lat="43.815088967751784" lon="11.557047551771268"><ele>665.0</ele><time>2026-05-04T16:30:24.999Z</time></trkpt><trkpt lat="43.81503594772525" lon="11.55694091474705"><ele>663.6666666666666</ele><time>2026-05-04T16:30:25.999Z</time></trkpt><trkpt lat="43.814962286074575" lon="11.556863540753264"><ele>662.3333333333333</ele><time>2026-05-04T16:30:26.999Z</time></trkpt><trkpt lat="43.814910787469614" lon="11.556764018549773"><ele>661.0</ele><time>2026-05-04T16:30:27.999Z</time></trkpt><trkpt lat="43.814894120106956" lon="11.556662295404784"><ele>659.6666666666666</ele><time>2026-05-04T16:30:28.999Z</time></trkpt><trkpt lat="43.81490940283102" lon="11.556543519379765"><ele>658.3333333333334</ele><time>2026-05-04T16:30:29.999Z</time></trkpt><trkpt lat="43.814935337703574" lon="11.55641220657605"><ele>657.0</ele><time>2026-05-04T16:30:30.999Z</time></trkpt><trkpt lat="43.814967727169254" lon="11.556287226672078"><ele>657.2</ele><time>2026-05-04T16:30:31.999Z</time></trkpt><trkpt lat="43.814999170711594" lon="11.55617102581412"><ele>657.4000000000001</ele><time>2026-05-04T16:30:32.999Z</time></trkpt><trkpt lat="43.81502112204849" lon="11.556069226578007"><ele>657.5999999999999</ele><time>2026-05-04T16:30:33.999Z</time></trkpt><trkpt lat="43.815113058794026" lon="11.555987543860569"><ele>657.8</ele><time>2026-05-04T16:30:34.999Z</time></trkpt><trkpt lat="43.81514033359434" lon="11.555856447242675"><ele>658.0</ele><time>2026-05-04T16:30:35.999Z</time></trkpt><trkpt lat="43.815187092683544" lon="11.555725836900466"><ele>658.0</ele><time>2026-05-04T16:30:36.999Z</time></trkpt><trkpt lat="43.81523907517773" lon="11.555600029814743"><ele>658.0</ele><time>2026-05-04T16:30:37.999Z</time></trkpt><trkpt lat="43.8152900271041" lon="11.555469020240606"><ele>658.0</ele><time>2026-05-04T16:30:38.999Z</time></trkpt><trkpt lat="43.81533737211163" lon="11.555333911448985"><ele>658.0</ele><time>2026-05-04T16:30:39.999Z</time></trkpt><trkpt lat="43.81538480300351" lon="11.555199778753302"><ele>658.0</ele><time>2026-05-04T16:30:40.999Z</time></trkpt><trkpt lat="43.81543019889399" lon="11.55507950419903"><ele>655.5</ele><time>2026-05-04T16:30:41.999Z</time></trkpt><trkpt lat="43.81547218492089" lon="11.55498176274242"><ele>653.0</ele><time>2026-05-04T16:30:42.999Z</time></trkpt><trkpt lat="43.81552468925826" lon="11.55488056490367"><ele>650.5</ele><time>2026-05-04T16:30:43.999Z</time></trkpt><trkpt lat="43.815579654815224" lon="11.554793272650524"><ele>648.0</ele><time>2026-05-04T16:30:44.999Z</time></trkpt><trkpt lat="43.81565462852801" lon="11.554731276513644"><ele>645.5</ele><time>2026-05-04T16:30:45.999Z</time></trkpt><trkpt lat="43.815740983667986" lon="11.554669862887346"><ele>643.0</ele><time>2026-05-04T16:30:46.999Z</time></trkpt><trkpt lat="43.815808674938474" lon="11.554578289919485"><ele>641.8333333333334</ele><time>2026-05-04T16:30:47.999Z</time></trkpt><trkpt lat="43.81584864678943" lon="11.554473365458191"><ele>640.6666666666667</ele><time>2026-05-04T16:30:48.999Z</time></trkpt><trkpt lat="43.815909619604945" lon="11.554402358285888"><ele>639.5</ele><time>2026-05-04T16:30:49.999Z</time></trkpt><trkpt lat="43.815981176816415" lon="11.554338361003552"><ele>638.3333333333334</ele><time>2026-05-04T16:30:50.999Z</time></trkpt><trkpt lat="43.81606043959221" lon="11.554290448751754"><ele>637.1666666666666</ele><time>2026-05-04T16:30:51.999Z</time></trkpt><trkpt lat="43.81614745379228" lon="11.554235958577626"><ele>636.0</ele><time>2026-05-04T16:30:52.999Z</time></trkpt><trkpt lat="43.81625389765135" lon="11.554201504304926"><ele>636.0</ele><time>2026-05-04T16:30:53.999Z</time></trkpt><trkpt lat="43.816336287554094" lon="11.554128335755054"><ele>636.0</ele><time>2026-05-04T16:30:54.999Z</time></trkpt><trkpt lat="43.81642634310975" lon="11.554073249150445"><ele>636.0</ele><time>2026-05-04T16:30:55.999Z</time></trkpt><trkpt lat="43.816518638970436" lon="11.554018265840101"><ele>636.0</ele><time>2026-05-04T16:30:56.999Z</time></trkpt><trkpt lat="43.81660259703971" lon="11.55394591096597"><ele>636.0</ele><time>2026-05-04T16:30:57.999Z</time></trkpt><trkpt lat="43.81667797440768" lon="11.55388740296592"><ele>636.0</ele><time>2026-05-04T16:30:58.999Z</time></trkpt><trkpt lat="43.81673926871716" lon="11.55382066470483"><ele>636.0</ele><time>2026-05-04T16:30:59.999Z</time></trkpt><trkpt lat="43.81679832781029" lon="11.553759987559427"><ele>636.0</ele><time>2026-05-04T16:31:00.999Z</time></trkpt><trkpt lat="43.81685672268221" lon="11.553698131546547"><ele>636.0</ele><time>2026-05-04T16:31:01.999Z</time></trkpt><trkpt lat="43.816893443427055" lon="11.553624358749662"><ele>636.0</ele><time>2026-05-04T16:31:02.999Z</time></trkpt><trkpt lat="43.816946093902054" lon="11.553510744859963"><ele>636.0</ele><time>2026-05-04T16:31:04.999Z</time></trkpt><trkpt lat="43.816987726980464" lon="11.553427155185616"><ele>633.8571428571428</ele><time>2026-05-04T16:31:06.999Z</time></trkpt><trkpt lat="43.81703598483366" lon="11.553369523414414"><ele>631.7142857142858</ele><time>2026-05-04T16:31:08.999Z</time></trkpt><trkpt lat="43.81710745940198" lon="11.553415991153047"><ele>629.5714285714286</ele><time>2026-05-04T16:40:49.999Z</time></trkpt><trkpt lat="43.81717968500875" lon="11.553432768780347"><ele>627.4285714285713</ele><time>2026-05-04T16:41:10.999Z</time></trkpt><trkpt lat="43.81724187142785" lon="11.55341633043351"><ele>625.2857142857142</ele><time>2026-05-04T16:41:17.999Z</time></trkpt><trkpt lat="43.81728842639464" lon="11.553351228507506"><ele>623.1428571428571</ele><time>2026-05-04T16:59:55Z</time></trkpt><trkpt lat="43.817258904741415" lon="11.553274166023337"><ele>621.0</ele><time>2026-05-04T17:00:02Z</time></trkpt><trkpt lat="43.81720073370159" lon="11.553231275882938"><ele>620.9999999999999</ele><time>2026-05-04T17:00:24Z</time></trkpt><trkpt lat="43.81726305359672" lon="11.553251645006391"><ele>621.0</ele><time>2026-05-04T17:01:36Z</time></trkpt><trkpt lat="43.81725984105129" lon="11.553348600152512"><ele>621.0</ele><time>2026-05-04T17:02:05Z</time></trkpt><trkpt lat="43.81731494346859" lon="11.553393774069454"><ele>621.0</ele><time>2026-05-04T17:07:13.001Z</time></trkpt><trkpt lat="43.81739707530024" lon="11.553343840199352"><ele>621.0</ele><time>2026-05-04T17:40:08.999Z</time></trkpt><trkpt lat="43.817398035105676" lon="11.553449219099003"><ele>620.9999999999999</ele><time>2026-05-04T17:40:52Z</time></trkpt><trkpt lat="43.817377346357674" lon="11.553357361699687"><ele>621.0</ele><time>2026-05-04T17:41:02Z</time></trkpt><trkpt lat="43.81730302164114" lon="11.553424619018953"><ele>621.0</ele><time>2026-05-04T17:55:38Z</time></trkpt></trkseg></trk></gpx>